<?xml version="1.0" encoding="UTF-8"?>
<gpx xmlns="http://www.topografix.com/GPX/1/1"
     creator="GpsDumpMac 0.29"
     version="1.1"
     xmlns:xsi="http://www.w3.org/2001/XMLSchema-instance"
     xsi:schemaLocation="http://www.topografix.com/GPX/1/1 http://www.topografix.com/GPX/1/1/gpx.xsd">
  <metadata>
    <link href="http://www.gethome.no/stein.sorensen/">
      <text>GPS dump for www.flightlog.org</text>
    </link>
    <time>2018-09-04T07:45:08Z</time>
    <bounds minlat="41.029133" minlon="-3.775983" maxlat="41.278533" maxlon="-3.471917"/>
  </metadata>
  <trk>
    <name>Track 001</name>
    <trkseg>
      <trkpt lat="41.077333" lon="-3.708083">
        <ele>1831.0</ele>
        <time>2018-07-22T12:28:31Z</time>
      </trkpt>
      <trkpt lat="41.077367" lon="-3.708150">
        <ele>1833.0</ele>
        <time>2018-07-22T12:28:32Z</time>
      </trkpt>
      <trkpt lat="41.077400" lon="-3.708183">
        <ele>1835.0</ele>
        <time>2018-07-22T12:28:33Z</time>
      </trkpt>
      <trkpt lat="41.077433" lon="-3.708233">
        <ele>1836.0</ele>
        <time>2018-07-22T12:28:34Z</time>
      </trkpt>
      <trkpt lat="41.077467" lon="-3.708283">
        <ele>1837.0</ele>
        <time>2018-07-22T12:28:35Z</time>
      </trkpt>
      <trkpt lat="41.077500" lon="-3.708333">
        <ele>1837.0</ele>
        <time>2018-07-22T12:28:36Z</time>
      </trkpt>
      <trkpt lat="41.077533" lon="-3.708383">
        <ele>1838.0</ele>
        <time>2018-07-22T12:28:37Z</time>
      </trkpt>
      <trkpt lat="41.077567" lon="-3.708417">
        <ele>1839.0</ele>
        <time>2018-07-22T12:28:38Z</time>
      </trkpt>
      <trkpt lat="41.077583" lon="-3.708467">
        <ele>1841.0</ele>
        <time>2018-07-22T12:28:39Z</time>
      </trkpt>
      <trkpt lat="41.077617" lon="-3.708500">
        <ele>1841.0</ele>
        <time>2018-07-22T12:28:40Z</time>
      </trkpt>
      <trkpt lat="41.077633" lon="-3.708550">
        <ele>1841.0</ele>
        <time>2018-07-22T12:28:41Z</time>
      </trkpt>
      <trkpt lat="41.077667" lon="-3.708600">
        <ele>1841.0</ele>
        <time>2018-07-22T12:28:42Z</time>
      </trkpt>
      <trkpt lat="41.077700" lon="-3.708650">
        <ele>1840.0</ele>
        <time>2018-07-22T12:28:43Z</time>
      </trkpt>
      <trkpt lat="41.077733" lon="-3.708717">
        <ele>1840.0</ele>
        <time>2018-07-22T12:28:44Z</time>
      </trkpt>
      <trkpt lat="41.077767" lon="-3.708783">
        <ele>1841.0</ele>
        <time>2018-07-22T12:28:45Z</time>
      </trkpt>
      <trkpt lat="41.077800" lon="-3.708850">
        <ele>1842.0</ele>
        <time>2018-07-22T12:28:46Z</time>
      </trkpt>
      <trkpt lat="41.077833" lon="-3.708917">
        <ele>1844.0</ele>
        <time>2018-07-22T12:28:47Z</time>
      </trkpt>
      <trkpt lat="41.077850" lon="-3.708983">
        <ele>1845.0</ele>
        <time>2018-07-22T12:28:48Z</time>
      </trkpt>
      <trkpt lat="41.077867" lon="-3.709067">
        <ele>1846.0</ele>
        <time>2018-07-22T12:28:49Z</time>
      </trkpt>
      <trkpt lat="41.077850" lon="-3.709150">
        <ele>1848.0</ele>
        <time>2018-07-22T12:28:50Z</time>
      </trkpt>
      <trkpt lat="41.077817" lon="-3.709217">
        <ele>1850.0</ele>
        <time>2018-07-22T12:28:51Z</time>
      </trkpt>
      <trkpt lat="41.077783" lon="-3.709300">
        <ele>1851.0</ele>
        <time>2018-07-22T12:28:52Z</time>
      </trkpt>
      <trkpt lat="41.077750" lon="-3.709367">
        <ele>1852.0</ele>
        <time>2018-07-22T12:28:53Z</time>
      </trkpt>
      <trkpt lat="41.077700" lon="-3.709450">
        <ele>1853.0</ele>
        <time>2018-07-22T12:28:54Z</time>
      </trkpt>
      <trkpt lat="41.077650" lon="-3.709550">
        <ele>1853.0</ele>
        <time>2018-07-22T12:28:55Z</time>
      </trkpt>
      <trkpt lat="41.077583" lon="-3.709633">
        <ele>1854.0</ele>
        <time>2018-07-22T12:28:56Z</time>
      </trkpt>
      <trkpt lat="41.077517" lon="-3.709717">
        <ele>1857.0</ele>
        <time>2018-07-22T12:28:57Z</time>
      </trkpt>
      <trkpt lat="41.077450" lon="-3.709783">
        <ele>1859.0</ele>
        <time>2018-07-22T12:28:58Z</time>
      </trkpt>
      <trkpt lat="41.077400" lon="-3.709850">
        <ele>1861.0</ele>
        <time>2018-07-22T12:28:59Z</time>
      </trkpt>
      <trkpt lat="41.077333" lon="-3.709900">
        <ele>1861.0</ele>
        <time>2018-07-22T12:29:00Z</time>
      </trkpt>
      <trkpt lat="41.077267" lon="-3.709967">
        <ele>1862.0</ele>
        <time>2018-07-22T12:29:01Z</time>
      </trkpt>
      <trkpt lat="41.077200" lon="-3.710033">
        <ele>1862.0</ele>
        <time>2018-07-22T12:29:02Z</time>
      </trkpt>
      <trkpt lat="41.077150" lon="-3.710100">
        <ele>1862.0</ele>
        <time>2018-07-22T12:29:03Z</time>
      </trkpt>
      <trkpt lat="41.077083" lon="-3.710183">
        <ele>1862.0</ele>
        <time>2018-07-22T12:29:04Z</time>
      </trkpt>
      <trkpt lat="41.077033" lon="-3.710250">
        <ele>1862.0</ele>
        <time>2018-07-22T12:29:05Z</time>
      </trkpt>
      <trkpt lat="41.076983" lon="-3.710317">
        <ele>1862.0</ele>
        <time>2018-07-22T12:29:06Z</time>
      </trkpt>
      <trkpt lat="41.076933" lon="-3.710400">
        <ele>1861.0</ele>
        <time>2018-07-22T12:29:07Z</time>
      </trkpt>
      <trkpt lat="41.076883" lon="-3.710467">
        <ele>1859.0</ele>
        <time>2018-07-22T12:29:08Z</time>
      </trkpt>
      <trkpt lat="41.076850" lon="-3.710567">
        <ele>1859.0</ele>
        <time>2018-07-22T12:29:09Z</time>
      </trkpt>
      <trkpt lat="41.076817" lon="-3.710650">
        <ele>1858.0</ele>
        <time>2018-07-22T12:29:10Z</time>
      </trkpt>
      <trkpt lat="41.076750" lon="-3.710733">
        <ele>1858.0</ele>
        <time>2018-07-22T12:29:11Z</time>
      </trkpt>
      <trkpt lat="41.076700" lon="-3.710800">
        <ele>1858.0</ele>
        <time>2018-07-22T12:29:12Z</time>
      </trkpt>
      <trkpt lat="41.076617" lon="-3.710883">
        <ele>1857.0</ele>
        <time>2018-07-22T12:29:13Z</time>
      </trkpt>
      <trkpt lat="41.076567" lon="-3.710967">
        <ele>1857.0</ele>
        <time>2018-07-22T12:29:14Z</time>
      </trkpt>
      <trkpt lat="41.076533" lon="-3.711067">
        <ele>1857.0</ele>
        <time>2018-07-22T12:29:15Z</time>
      </trkpt>
      <trkpt lat="41.076483" lon="-3.711150">
        <ele>1857.0</ele>
        <time>2018-07-22T12:29:16Z</time>
      </trkpt>
      <trkpt lat="41.076433" lon="-3.711233">
        <ele>1858.0</ele>
        <time>2018-07-22T12:29:17Z</time>
      </trkpt>
      <trkpt lat="41.076367" lon="-3.711300">
        <ele>1858.0</ele>
        <time>2018-07-22T12:29:18Z</time>
      </trkpt>
      <trkpt lat="41.076300" lon="-3.711367">
        <ele>1859.0</ele>
        <time>2018-07-22T12:29:19Z</time>
      </trkpt>
      <trkpt lat="41.076233" lon="-3.711417">
        <ele>1859.0</ele>
        <time>2018-07-22T12:29:20Z</time>
      </trkpt>
      <trkpt lat="41.076167" lon="-3.711483">
        <ele>1860.0</ele>
        <time>2018-07-22T12:29:21Z</time>
      </trkpt>
      <trkpt lat="41.076100" lon="-3.711533">
        <ele>1860.0</ele>
        <time>2018-07-22T12:29:22Z</time>
      </trkpt>
      <trkpt lat="41.076033" lon="-3.711600">
        <ele>1860.0</ele>
        <time>2018-07-22T12:29:23Z</time>
      </trkpt>
      <trkpt lat="41.075950" lon="-3.711667">
        <ele>1861.0</ele>
        <time>2018-07-22T12:29:24Z</time>
      </trkpt>
      <trkpt lat="41.075883" lon="-3.711717">
        <ele>1862.0</ele>
        <time>2018-07-22T12:29:25Z</time>
      </trkpt>
      <trkpt lat="41.075817" lon="-3.711767">
        <ele>1862.0</ele>
        <time>2018-07-22T12:29:26Z</time>
      </trkpt>
      <trkpt lat="41.075767" lon="-3.711833">
        <ele>1862.0</ele>
        <time>2018-07-22T12:29:27Z</time>
      </trkpt>
      <trkpt lat="41.075717" lon="-3.711917">
        <ele>1862.0</ele>
        <time>2018-07-22T12:29:28Z</time>
      </trkpt>
      <trkpt lat="41.075683" lon="-3.711983">
        <ele>1863.0</ele>
        <time>2018-07-22T12:29:29Z</time>
      </trkpt>
      <trkpt lat="41.075633" lon="-3.712033">
        <ele>1865.0</ele>
        <time>2018-07-22T12:29:30Z</time>
      </trkpt>
      <trkpt lat="41.075583" lon="-3.712083">
        <ele>1866.0</ele>
        <time>2018-07-22T12:29:31Z</time>
      </trkpt>
      <trkpt lat="41.075550" lon="-3.712117">
        <ele>1866.0</ele>
        <time>2018-07-22T12:29:32Z</time>
      </trkpt>
      <trkpt lat="41.075517" lon="-3.712150">
        <ele>1865.0</ele>
        <time>2018-07-22T12:29:33Z</time>
      </trkpt>
      <trkpt lat="41.075500" lon="-3.712217">
        <ele>1862.0</ele>
        <time>2018-07-22T12:29:34Z</time>
      </trkpt>
      <trkpt lat="41.075500" lon="-3.712283">
        <ele>1860.0</ele>
        <time>2018-07-22T12:29:35Z</time>
      </trkpt>
      <trkpt lat="41.075500" lon="-3.712367">
        <ele>1859.0</ele>
        <time>2018-07-22T12:29:36Z</time>
      </trkpt>
      <trkpt lat="41.075500" lon="-3.712433">
        <ele>1861.0</ele>
        <time>2018-07-22T12:29:37Z</time>
      </trkpt>
      <trkpt lat="41.075517" lon="-3.712483">
        <ele>1862.0</ele>
        <time>2018-07-22T12:29:38Z</time>
      </trkpt>
      <trkpt lat="41.075517" lon="-3.712533">
        <ele>1863.0</ele>
        <time>2018-07-22T12:29:39Z</time>
      </trkpt>
      <trkpt lat="41.075500" lon="-3.712583">
        <ele>1863.0</ele>
        <time>2018-07-22T12:29:40Z</time>
      </trkpt>
      <trkpt lat="41.075483" lon="-3.712650">
        <ele>1863.0</ele>
        <time>2018-07-22T12:29:41Z</time>
      </trkpt>
      <trkpt lat="41.075450" lon="-3.712733">
        <ele>1863.0</ele>
        <time>2018-07-22T12:29:42Z</time>
      </trkpt>
      <trkpt lat="41.075417" lon="-3.712800">
        <ele>1865.0</ele>
        <time>2018-07-22T12:29:43Z</time>
      </trkpt>
      <trkpt lat="41.075383" lon="-3.712850">
        <ele>1868.0</ele>
        <time>2018-07-22T12:29:44Z</time>
      </trkpt>
      <trkpt lat="41.075350" lon="-3.712883">
        <ele>1869.0</ele>
        <time>2018-07-22T12:29:45Z</time>
      </trkpt>
      <trkpt lat="41.075333" lon="-3.712933">
        <ele>1869.0</ele>
        <time>2018-07-22T12:29:46Z</time>
      </trkpt>
      <trkpt lat="41.075317" lon="-3.713000">
        <ele>1867.0</ele>
        <time>2018-07-22T12:29:47Z</time>
      </trkpt>
      <trkpt lat="41.075300" lon="-3.713067">
        <ele>1866.0</ele>
        <time>2018-07-22T12:29:48Z</time>
      </trkpt>
      <trkpt lat="41.075283" lon="-3.713150">
        <ele>1864.0</ele>
        <time>2018-07-22T12:29:49Z</time>
      </trkpt>
      <trkpt lat="41.075250" lon="-3.713250">
        <ele>1864.0</ele>
        <time>2018-07-22T12:29:50Z</time>
      </trkpt>
      <trkpt lat="41.075233" lon="-3.713333">
        <ele>1863.0</ele>
        <time>2018-07-22T12:29:51Z</time>
      </trkpt>
      <trkpt lat="41.075233" lon="-3.713417">
        <ele>1863.0</ele>
        <time>2018-07-22T12:29:52Z</time>
      </trkpt>
      <trkpt lat="41.075200" lon="-3.713500">
        <ele>1863.0</ele>
        <time>2018-07-22T12:29:53Z</time>
      </trkpt>
      <trkpt lat="41.075167" lon="-3.713567">
        <ele>1862.0</ele>
        <time>2018-07-22T12:29:54Z</time>
      </trkpt>
      <trkpt lat="41.075117" lon="-3.713617">
        <ele>1860.0</ele>
        <time>2018-07-22T12:29:55Z</time>
      </trkpt>
      <trkpt lat="41.075067" lon="-3.713683">
        <ele>1858.0</ele>
        <time>2018-07-22T12:29:56Z</time>
      </trkpt>
      <trkpt lat="41.074983" lon="-3.713750">
        <ele>1856.0</ele>
        <time>2018-07-22T12:29:57Z</time>
      </trkpt>
      <trkpt lat="41.074917" lon="-3.713833">
        <ele>1855.0</ele>
        <time>2018-07-22T12:29:58Z</time>
      </trkpt>
      <trkpt lat="41.074833" lon="-3.713917">
        <ele>1855.0</ele>
        <time>2018-07-22T12:29:59Z</time>
      </trkpt>
      <trkpt lat="41.074767" lon="-3.714000">
        <ele>1855.0</ele>
        <time>2018-07-22T12:30:00Z</time>
      </trkpt>
      <trkpt lat="41.074700" lon="-3.714067">
        <ele>1855.0</ele>
        <time>2018-07-22T12:30:01Z</time>
      </trkpt>
      <trkpt lat="41.074633" lon="-3.714117">
        <ele>1855.0</ele>
        <time>2018-07-22T12:30:02Z</time>
      </trkpt>
      <trkpt lat="41.074567" lon="-3.714183">
        <ele>1854.0</ele>
        <time>2018-07-22T12:30:03Z</time>
      </trkpt>
      <trkpt lat="41.074517" lon="-3.714250">
        <ele>1853.0</ele>
        <time>2018-07-22T12:30:04Z</time>
      </trkpt>
      <trkpt lat="41.074467" lon="-3.714333">
        <ele>1851.0</ele>
        <time>2018-07-22T12:30:05Z</time>
      </trkpt>
      <trkpt lat="41.074417" lon="-3.714417">
        <ele>1850.0</ele>
        <time>2018-07-22T12:30:06Z</time>
      </trkpt>
      <trkpt lat="41.074367" lon="-3.714517">
        <ele>1848.0</ele>
        <time>2018-07-22T12:30:07Z</time>
      </trkpt>
      <trkpt lat="41.074317" lon="-3.714617">
        <ele>1847.0</ele>
        <time>2018-07-22T12:30:08Z</time>
      </trkpt>
      <trkpt lat="41.074267" lon="-3.714700">
        <ele>1847.0</ele>
        <time>2018-07-22T12:30:09Z</time>
      </trkpt>
      <trkpt lat="41.074200" lon="-3.714783">
        <ele>1846.0</ele>
        <time>2018-07-22T12:30:10Z</time>
      </trkpt>
      <trkpt lat="41.074133" lon="-3.714850">
        <ele>1845.0</ele>
        <time>2018-07-22T12:30:11Z</time>
      </trkpt>
      <trkpt lat="41.074083" lon="-3.714933">
        <ele>1844.0</ele>
        <time>2018-07-22T12:30:12Z</time>
      </trkpt>
      <trkpt lat="41.074017" lon="-3.715017">
        <ele>1843.0</ele>
        <time>2018-07-22T12:30:13Z</time>
      </trkpt>
      <trkpt lat="41.073950" lon="-3.715100">
        <ele>1842.0</ele>
        <time>2018-07-22T12:30:14Z</time>
      </trkpt>
      <trkpt lat="41.073900" lon="-3.715200">
        <ele>1841.0</ele>
        <time>2018-07-22T12:30:15Z</time>
      </trkpt>
      <trkpt lat="41.073833" lon="-3.715300">
        <ele>1840.0</ele>
        <time>2018-07-22T12:30:16Z</time>
      </trkpt>
      <trkpt lat="41.073783" lon="-3.715400">
        <ele>1840.0</ele>
        <time>2018-07-22T12:30:17Z</time>
      </trkpt>
      <trkpt lat="41.073717" lon="-3.715483">
        <ele>1840.0</ele>
        <time>2018-07-22T12:30:18Z</time>
      </trkpt>
      <trkpt lat="41.073650" lon="-3.715567">
        <ele>1840.0</ele>
        <time>2018-07-22T12:30:19Z</time>
      </trkpt>
      <trkpt lat="41.073600" lon="-3.715667">
        <ele>1840.0</ele>
        <time>2018-07-22T12:30:20Z</time>
      </trkpt>
      <trkpt lat="41.073533" lon="-3.715767">
        <ele>1840.0</ele>
        <time>2018-07-22T12:30:21Z</time>
      </trkpt>
      <trkpt lat="41.073467" lon="-3.715867">
        <ele>1841.0</ele>
        <time>2018-07-22T12:30:22Z</time>
      </trkpt>
      <trkpt lat="41.073383" lon="-3.715967">
        <ele>1842.0</ele>
        <time>2018-07-22T12:30:23Z</time>
      </trkpt>
      <trkpt lat="41.073317" lon="-3.716050">
        <ele>1843.0</ele>
        <time>2018-07-22T12:30:24Z</time>
      </trkpt>
      <trkpt lat="41.073233" lon="-3.716133">
        <ele>1845.0</ele>
        <time>2018-07-22T12:30:25Z</time>
      </trkpt>
      <trkpt lat="41.073167" lon="-3.716217">
        <ele>1847.0</ele>
        <time>2018-07-22T12:30:26Z</time>
      </trkpt>
      <trkpt lat="41.073100" lon="-3.716283">
        <ele>1848.0</ele>
        <time>2018-07-22T12:30:27Z</time>
      </trkpt>
      <trkpt lat="41.073033" lon="-3.716367">
        <ele>1848.0</ele>
        <time>2018-07-22T12:30:28Z</time>
      </trkpt>
      <trkpt lat="41.072983" lon="-3.716433">
        <ele>1847.0</ele>
        <time>2018-07-22T12:30:29Z</time>
      </trkpt>
      <trkpt lat="41.072933" lon="-3.716533">
        <ele>1845.0</ele>
        <time>2018-07-22T12:30:30Z</time>
      </trkpt>
      <trkpt lat="41.072867" lon="-3.716633">
        <ele>1843.0</ele>
        <time>2018-07-22T12:30:31Z</time>
      </trkpt>
      <trkpt lat="41.072767" lon="-3.716700">
        <ele>1842.0</ele>
        <time>2018-07-22T12:30:32Z</time>
      </trkpt>
      <trkpt lat="41.072683" lon="-3.716783">
        <ele>1842.0</ele>
        <time>2018-07-22T12:30:33Z</time>
      </trkpt>
      <trkpt lat="41.072600" lon="-3.716850">
        <ele>1843.0</ele>
        <time>2018-07-22T12:30:34Z</time>
      </trkpt>
      <trkpt lat="41.072517" lon="-3.716933">
        <ele>1843.0</ele>
        <time>2018-07-22T12:30:35Z</time>
      </trkpt>
      <trkpt lat="41.072417" lon="-3.717017">
        <ele>1843.0</ele>
        <time>2018-07-22T12:30:36Z</time>
      </trkpt>
      <trkpt lat="41.072317" lon="-3.717067">
        <ele>1843.0</ele>
        <time>2018-07-22T12:30:37Z</time>
      </trkpt>
      <trkpt lat="41.072233" lon="-3.717150">
        <ele>1844.0</ele>
        <time>2018-07-22T12:30:38Z</time>
      </trkpt>
      <trkpt lat="41.072150" lon="-3.717233">
        <ele>1843.0</ele>
        <time>2018-07-22T12:30:39Z</time>
      </trkpt>
      <trkpt lat="41.072067" lon="-3.717317">
        <ele>1843.0</ele>
        <time>2018-07-22T12:30:40Z</time>
      </trkpt>
      <trkpt lat="41.072000" lon="-3.717417">
        <ele>1842.0</ele>
        <time>2018-07-22T12:30:41Z</time>
      </trkpt>
      <trkpt lat="41.071917" lon="-3.717517">
        <ele>1841.0</ele>
        <time>2018-07-22T12:30:42Z</time>
      </trkpt>
      <trkpt lat="41.071833" lon="-3.717617">
        <ele>1840.0</ele>
        <time>2018-07-22T12:30:43Z</time>
      </trkpt>
      <trkpt lat="41.071767" lon="-3.717717">
        <ele>1839.0</ele>
        <time>2018-07-22T12:30:44Z</time>
      </trkpt>
      <trkpt lat="41.071683" lon="-3.717833">
        <ele>1838.0</ele>
        <time>2018-07-22T12:30:45Z</time>
      </trkpt>
      <trkpt lat="41.071617" lon="-3.717950">
        <ele>1838.0</ele>
        <time>2018-07-22T12:30:46Z</time>
      </trkpt>
      <trkpt lat="41.071533" lon="-3.718083">
        <ele>1838.0</ele>
        <time>2018-07-22T12:30:47Z</time>
      </trkpt>
      <trkpt lat="41.071467" lon="-3.718200">
        <ele>1839.0</ele>
        <time>2018-07-22T12:30:48Z</time>
      </trkpt>
      <trkpt lat="41.071383" lon="-3.718283">
        <ele>1840.0</ele>
        <time>2018-07-22T12:30:49Z</time>
      </trkpt>
      <trkpt lat="41.071300" lon="-3.718383">
        <ele>1840.0</ele>
        <time>2018-07-22T12:30:50Z</time>
      </trkpt>
      <trkpt lat="41.071217" lon="-3.718483">
        <ele>1839.0</ele>
        <time>2018-07-22T12:30:51Z</time>
      </trkpt>
      <trkpt lat="41.071150" lon="-3.718600">
        <ele>1837.0</ele>
        <time>2018-07-22T12:30:52Z</time>
      </trkpt>
      <trkpt lat="41.071083" lon="-3.718733">
        <ele>1836.0</ele>
        <time>2018-07-22T12:30:53Z</time>
      </trkpt>
      <trkpt lat="41.071017" lon="-3.718867">
        <ele>1835.0</ele>
        <time>2018-07-22T12:30:54Z</time>
      </trkpt>
      <trkpt lat="41.070950" lon="-3.719000">
        <ele>1836.0</ele>
        <time>2018-07-22T12:30:55Z</time>
      </trkpt>
      <trkpt lat="41.070867" lon="-3.719117">
        <ele>1836.0</ele>
        <time>2018-07-22T12:30:56Z</time>
      </trkpt>
      <trkpt lat="41.070783" lon="-3.719233">
        <ele>1837.0</ele>
        <time>2018-07-22T12:30:57Z</time>
      </trkpt>
      <trkpt lat="41.070717" lon="-3.719350">
        <ele>1837.0</ele>
        <time>2018-07-22T12:30:58Z</time>
      </trkpt>
      <trkpt lat="41.070633" lon="-3.719450">
        <ele>1838.0</ele>
        <time>2018-07-22T12:30:59Z</time>
      </trkpt>
      <trkpt lat="41.070550" lon="-3.719550">
        <ele>1838.0</ele>
        <time>2018-07-22T12:31:00Z</time>
      </trkpt>
      <trkpt lat="41.070483" lon="-3.719667">
        <ele>1837.0</ele>
        <time>2018-07-22T12:31:01Z</time>
      </trkpt>
      <trkpt lat="41.070417" lon="-3.719783">
        <ele>1836.0</ele>
        <time>2018-07-22T12:31:02Z</time>
      </trkpt>
      <trkpt lat="41.070350" lon="-3.719917">
        <ele>1835.0</ele>
        <time>2018-07-22T12:31:03Z</time>
      </trkpt>
      <trkpt lat="41.070317" lon="-3.720050">
        <ele>1835.0</ele>
        <time>2018-07-22T12:31:04Z</time>
      </trkpt>
      <trkpt lat="41.070267" lon="-3.720183">
        <ele>1837.0</ele>
        <time>2018-07-22T12:31:05Z</time>
      </trkpt>
      <trkpt lat="41.070217" lon="-3.720300">
        <ele>1838.0</ele>
        <time>2018-07-22T12:31:06Z</time>
      </trkpt>
      <trkpt lat="41.070167" lon="-3.720400">
        <ele>1839.0</ele>
        <time>2018-07-22T12:31:07Z</time>
      </trkpt>
      <trkpt lat="41.070100" lon="-3.720500">
        <ele>1839.0</ele>
        <time>2018-07-22T12:31:08Z</time>
      </trkpt>
      <trkpt lat="41.070033" lon="-3.720600">
        <ele>1839.0</ele>
        <time>2018-07-22T12:31:09Z</time>
      </trkpt>
      <trkpt lat="41.069967" lon="-3.720717">
        <ele>1839.0</ele>
        <time>2018-07-22T12:31:10Z</time>
      </trkpt>
      <trkpt lat="41.069917" lon="-3.720833">
        <ele>1838.0</ele>
        <time>2018-07-22T12:31:11Z</time>
      </trkpt>
      <trkpt lat="41.069850" lon="-3.720967">
        <ele>1838.0</ele>
        <time>2018-07-22T12:31:12Z</time>
      </trkpt>
      <trkpt lat="41.069800" lon="-3.721100">
        <ele>1839.0</ele>
        <time>2018-07-22T12:31:13Z</time>
      </trkpt>
      <trkpt lat="41.069733" lon="-3.721233">
        <ele>1840.0</ele>
        <time>2018-07-22T12:31:14Z</time>
      </trkpt>
      <trkpt lat="41.069667" lon="-3.721333">
        <ele>1842.0</ele>
        <time>2018-07-22T12:31:15Z</time>
      </trkpt>
      <trkpt lat="41.069600" lon="-3.721433">
        <ele>1844.0</ele>
        <time>2018-07-22T12:31:16Z</time>
      </trkpt>
      <trkpt lat="41.069533" lon="-3.721533">
        <ele>1846.0</ele>
        <time>2018-07-22T12:31:17Z</time>
      </trkpt>
      <trkpt lat="41.069500" lon="-3.721633">
        <ele>1848.0</ele>
        <time>2018-07-22T12:31:18Z</time>
      </trkpt>
      <trkpt lat="41.069467" lon="-3.721717">
        <ele>1851.0</ele>
        <time>2018-07-22T12:31:19Z</time>
      </trkpt>
      <trkpt lat="41.069467" lon="-3.721783">
        <ele>1852.0</ele>
        <time>2018-07-22T12:31:20Z</time>
      </trkpt>
      <trkpt lat="41.069467" lon="-3.721833">
        <ele>1852.0</ele>
        <time>2018-07-22T12:31:21Z</time>
      </trkpt>
      <trkpt lat="41.069467" lon="-3.721883">
        <ele>1851.0</ele>
        <time>2018-07-22T12:31:22Z</time>
      </trkpt>
      <trkpt lat="41.069467" lon="-3.721933">
        <ele>1850.0</ele>
        <time>2018-07-22T12:31:23Z</time>
      </trkpt>
      <trkpt lat="41.069450" lon="-3.722017">
        <ele>1848.0</ele>
        <time>2018-07-22T12:31:24Z</time>
      </trkpt>
      <trkpt lat="41.069417" lon="-3.722100">
        <ele>1846.0</ele>
        <time>2018-07-22T12:31:25Z</time>
      </trkpt>
      <trkpt lat="41.069367" lon="-3.722200">
        <ele>1845.0</ele>
        <time>2018-07-22T12:31:26Z</time>
      </trkpt>
      <trkpt lat="41.069300" lon="-3.722283">
        <ele>1844.0</ele>
        <time>2018-07-22T12:31:27Z</time>
      </trkpt>
      <trkpt lat="41.069233" lon="-3.722383">
        <ele>1843.0</ele>
        <time>2018-07-22T12:31:28Z</time>
      </trkpt>
      <trkpt lat="41.069150" lon="-3.722483">
        <ele>1843.0</ele>
        <time>2018-07-22T12:31:29Z</time>
      </trkpt>
      <trkpt lat="41.069067" lon="-3.722583">
        <ele>1843.0</ele>
        <time>2018-07-22T12:31:30Z</time>
      </trkpt>
      <trkpt lat="41.068967" lon="-3.722667">
        <ele>1845.0</ele>
        <time>2018-07-22T12:31:31Z</time>
      </trkpt>
      <trkpt lat="41.068883" lon="-3.722767">
        <ele>1846.0</ele>
        <time>2018-07-22T12:31:32Z</time>
      </trkpt>
      <trkpt lat="41.068783" lon="-3.722833">
        <ele>1846.0</ele>
        <time>2018-07-22T12:31:33Z</time>
      </trkpt>
      <trkpt lat="41.068700" lon="-3.722917">
        <ele>1846.0</ele>
        <time>2018-07-22T12:31:34Z</time>
      </trkpt>
      <trkpt lat="41.068600" lon="-3.723017">
        <ele>1845.0</ele>
        <time>2018-07-22T12:31:35Z</time>
      </trkpt>
      <trkpt lat="41.068533" lon="-3.723133">
        <ele>1846.0</ele>
        <time>2018-07-22T12:31:36Z</time>
      </trkpt>
      <trkpt lat="41.068467" lon="-3.723233">
        <ele>1847.0</ele>
        <time>2018-07-22T12:31:37Z</time>
      </trkpt>
      <trkpt lat="41.068400" lon="-3.723333">
        <ele>1848.0</ele>
        <time>2018-07-22T12:31:38Z</time>
      </trkpt>
      <trkpt lat="41.068333" lon="-3.723433">
        <ele>1849.0</ele>
        <time>2018-07-22T12:31:39Z</time>
      </trkpt>
      <trkpt lat="41.068267" lon="-3.723533">
        <ele>1849.0</ele>
        <time>2018-07-22T12:31:40Z</time>
      </trkpt>
      <trkpt lat="41.068183" lon="-3.723633">
        <ele>1849.0</ele>
        <time>2018-07-22T12:31:41Z</time>
      </trkpt>
      <trkpt lat="41.068117" lon="-3.723717">
        <ele>1850.0</ele>
        <time>2018-07-22T12:31:42Z</time>
      </trkpt>
      <trkpt lat="41.068050" lon="-3.723817">
        <ele>1851.0</ele>
        <time>2018-07-22T12:31:43Z</time>
      </trkpt>
      <trkpt lat="41.068000" lon="-3.723917">
        <ele>1851.0</ele>
        <time>2018-07-22T12:31:44Z</time>
      </trkpt>
      <trkpt lat="41.067933" lon="-3.724017">
        <ele>1850.0</ele>
        <time>2018-07-22T12:31:45Z</time>
      </trkpt>
      <trkpt lat="41.067867" lon="-3.724133">
        <ele>1850.0</ele>
        <time>2018-07-22T12:31:46Z</time>
      </trkpt>
      <trkpt lat="41.067800" lon="-3.724233">
        <ele>1849.0</ele>
        <time>2018-07-22T12:31:47Z</time>
      </trkpt>
      <trkpt lat="41.067717" lon="-3.724333">
        <ele>1848.0</ele>
        <time>2018-07-22T12:31:48Z</time>
      </trkpt>
      <trkpt lat="41.067633" lon="-3.724450">
        <ele>1848.0</ele>
        <time>2018-07-22T12:31:49Z</time>
      </trkpt>
      <trkpt lat="41.067550" lon="-3.724550">
        <ele>1848.0</ele>
        <time>2018-07-22T12:31:50Z</time>
      </trkpt>
      <trkpt lat="41.067467" lon="-3.724650">
        <ele>1848.0</ele>
        <time>2018-07-22T12:31:51Z</time>
      </trkpt>
      <trkpt lat="41.067383" lon="-3.724750">
        <ele>1848.0</ele>
        <time>2018-07-22T12:31:52Z</time>
      </trkpt>
      <trkpt lat="41.067300" lon="-3.724833">
        <ele>1848.0</ele>
        <time>2018-07-22T12:31:53Z</time>
      </trkpt>
      <trkpt lat="41.067217" lon="-3.724917">
        <ele>1849.0</ele>
        <time>2018-07-22T12:31:54Z</time>
      </trkpt>
      <trkpt lat="41.067133" lon="-3.724983">
        <ele>1850.0</ele>
        <time>2018-07-22T12:31:55Z</time>
      </trkpt>
      <trkpt lat="41.067050" lon="-3.725033">
        <ele>1852.0</ele>
        <time>2018-07-22T12:31:56Z</time>
      </trkpt>
      <trkpt lat="41.066967" lon="-3.725083">
        <ele>1853.0</ele>
        <time>2018-07-22T12:31:57Z</time>
      </trkpt>
      <trkpt lat="41.066883" lon="-3.725133">
        <ele>1853.0</ele>
        <time>2018-07-22T12:31:58Z</time>
      </trkpt>
      <trkpt lat="41.066800" lon="-3.725183">
        <ele>1854.0</ele>
        <time>2018-07-22T12:31:59Z</time>
      </trkpt>
      <trkpt lat="41.066717" lon="-3.725233">
        <ele>1855.0</ele>
        <time>2018-07-22T12:32:00Z</time>
      </trkpt>
      <trkpt lat="41.066633" lon="-3.725300">
        <ele>1856.0</ele>
        <time>2018-07-22T12:32:01Z</time>
      </trkpt>
      <trkpt lat="41.066567" lon="-3.725367">
        <ele>1857.0</ele>
        <time>2018-07-22T12:32:02Z</time>
      </trkpt>
      <trkpt lat="41.066517" lon="-3.725450">
        <ele>1858.0</ele>
        <time>2018-07-22T12:32:03Z</time>
      </trkpt>
      <trkpt lat="41.066483" lon="-3.725533">
        <ele>1860.0</ele>
        <time>2018-07-22T12:32:04Z</time>
      </trkpt>
      <trkpt lat="41.066483" lon="-3.725617">
        <ele>1861.0</ele>
        <time>2018-07-22T12:32:05Z</time>
      </trkpt>
      <trkpt lat="41.066517" lon="-3.725667">
        <ele>1861.0</ele>
        <time>2018-07-22T12:32:06Z</time>
      </trkpt>
      <trkpt lat="41.066567" lon="-3.725700">
        <ele>1860.0</ele>
        <time>2018-07-22T12:32:07Z</time>
      </trkpt>
      <trkpt lat="41.066650" lon="-3.725683">
        <ele>1859.0</ele>
        <time>2018-07-22T12:32:08Z</time>
      </trkpt>
      <trkpt lat="41.066733" lon="-3.725617">
        <ele>1860.0</ele>
        <time>2018-07-22T12:32:09Z</time>
      </trkpt>
      <trkpt lat="41.066783" lon="-3.725500">
        <ele>1862.0</ele>
        <time>2018-07-22T12:32:10Z</time>
      </trkpt>
      <trkpt lat="41.066800" lon="-3.725367">
        <ele>1864.0</ele>
        <time>2018-07-22T12:32:11Z</time>
      </trkpt>
      <trkpt lat="41.066800" lon="-3.725217">
        <ele>1867.0</ele>
        <time>2018-07-22T12:32:12Z</time>
      </trkpt>
      <trkpt lat="41.066800" lon="-3.725100">
        <ele>1869.0</ele>
        <time>2018-07-22T12:32:13Z</time>
      </trkpt>
      <trkpt lat="41.066817" lon="-3.724983">
        <ele>1871.0</ele>
        <time>2018-07-22T12:32:14Z</time>
      </trkpt>
      <trkpt lat="41.066867" lon="-3.724900">
        <ele>1870.0</ele>
        <time>2018-07-22T12:32:15Z</time>
      </trkpt>
      <trkpt lat="41.066933" lon="-3.724817">
        <ele>1870.0</ele>
        <time>2018-07-22T12:32:16Z</time>
      </trkpt>
      <trkpt lat="41.067017" lon="-3.724767">
        <ele>1872.0</ele>
        <time>2018-07-22T12:32:17Z</time>
      </trkpt>
      <trkpt lat="41.067083" lon="-3.724767">
        <ele>1874.0</ele>
        <time>2018-07-22T12:32:18Z</time>
      </trkpt>
      <trkpt lat="41.067133" lon="-3.724817">
        <ele>1876.0</ele>
        <time>2018-07-22T12:32:19Z</time>
      </trkpt>
      <trkpt lat="41.067183" lon="-3.724917">
        <ele>1877.0</ele>
        <time>2018-07-22T12:32:20Z</time>
      </trkpt>
      <trkpt lat="41.067200" lon="-3.725017">
        <ele>1878.0</ele>
        <time>2018-07-22T12:32:21Z</time>
      </trkpt>
      <trkpt lat="41.067217" lon="-3.725133">
        <ele>1879.0</ele>
        <time>2018-07-22T12:32:22Z</time>
      </trkpt>
      <trkpt lat="41.067200" lon="-3.725250">
        <ele>1881.0</ele>
        <time>2018-07-22T12:32:23Z</time>
      </trkpt>
      <trkpt lat="41.067150" lon="-3.725350">
        <ele>1881.0</ele>
        <time>2018-07-22T12:32:24Z</time>
      </trkpt>
      <trkpt lat="41.067067" lon="-3.725450">
        <ele>1881.0</ele>
        <time>2018-07-22T12:32:25Z</time>
      </trkpt>
      <trkpt lat="41.066950" lon="-3.725533">
        <ele>1881.0</ele>
        <time>2018-07-22T12:32:26Z</time>
      </trkpt>
      <trkpt lat="41.066833" lon="-3.725583">
        <ele>1882.0</ele>
        <time>2018-07-22T12:32:27Z</time>
      </trkpt>
      <trkpt lat="41.066717" lon="-3.725617">
        <ele>1884.0</ele>
        <time>2018-07-22T12:32:28Z</time>
      </trkpt>
      <trkpt lat="41.066633" lon="-3.725650">
        <ele>1885.0</ele>
        <time>2018-07-22T12:32:29Z</time>
      </trkpt>
      <trkpt lat="41.066550" lon="-3.725700">
        <ele>1886.0</ele>
        <time>2018-07-22T12:32:30Z</time>
      </trkpt>
      <trkpt lat="41.066483" lon="-3.725767">
        <ele>1885.0</ele>
        <time>2018-07-22T12:32:31Z</time>
      </trkpt>
      <trkpt lat="41.066417" lon="-3.725833">
        <ele>1884.0</ele>
        <time>2018-07-22T12:32:32Z</time>
      </trkpt>
      <trkpt lat="41.066367" lon="-3.725917">
        <ele>1883.0</ele>
        <time>2018-07-22T12:32:33Z</time>
      </trkpt>
      <trkpt lat="41.066333" lon="-3.725983">
        <ele>1883.0</ele>
        <time>2018-07-22T12:32:34Z</time>
      </trkpt>
      <trkpt lat="41.066317" lon="-3.726067">
        <ele>1881.0</ele>
        <time>2018-07-22T12:32:35Z</time>
      </trkpt>
      <trkpt lat="41.066333" lon="-3.726133">
        <ele>1879.0</ele>
        <time>2018-07-22T12:32:36Z</time>
      </trkpt>
      <trkpt lat="41.066383" lon="-3.726183">
        <ele>1877.0</ele>
        <time>2018-07-22T12:32:37Z</time>
      </trkpt>
      <trkpt lat="41.066467" lon="-3.726200">
        <ele>1876.0</ele>
        <time>2018-07-22T12:32:38Z</time>
      </trkpt>
      <trkpt lat="41.066533" lon="-3.726167">
        <ele>1875.0</ele>
        <time>2018-07-22T12:32:39Z</time>
      </trkpt>
      <trkpt lat="41.066583" lon="-3.726083">
        <ele>1876.0</ele>
        <time>2018-07-22T12:32:40Z</time>
      </trkpt>
      <trkpt lat="41.066617" lon="-3.725983">
        <ele>1877.0</ele>
        <time>2018-07-22T12:32:41Z</time>
      </trkpt>
      <trkpt lat="41.066633" lon="-3.725867">
        <ele>1877.0</ele>
        <time>2018-07-22T12:32:42Z</time>
      </trkpt>
      <trkpt lat="41.066633" lon="-3.725767">
        <ele>1875.0</ele>
        <time>2018-07-22T12:32:43Z</time>
      </trkpt>
      <trkpt lat="41.066650" lon="-3.725650">
        <ele>1872.0</ele>
        <time>2018-07-22T12:32:44Z</time>
      </trkpt>
      <trkpt lat="41.066683" lon="-3.725550">
        <ele>1870.0</ele>
        <time>2018-07-22T12:32:45Z</time>
      </trkpt>
      <trkpt lat="41.066750" lon="-3.725467">
        <ele>1868.0</ele>
        <time>2018-07-22T12:32:46Z</time>
      </trkpt>
      <trkpt lat="41.066800" lon="-3.725400">
        <ele>1868.0</ele>
        <time>2018-07-22T12:32:47Z</time>
      </trkpt>
      <trkpt lat="41.066850" lon="-3.725350">
        <ele>1869.0</ele>
        <time>2018-07-22T12:32:48Z</time>
      </trkpt>
      <trkpt lat="41.066900" lon="-3.725283">
        <ele>1870.0</ele>
        <time>2018-07-22T12:32:49Z</time>
      </trkpt>
      <trkpt lat="41.066950" lon="-3.725250">
        <ele>1872.0</ele>
        <time>2018-07-22T12:32:50Z</time>
      </trkpt>
      <trkpt lat="41.067000" lon="-3.725183">
        <ele>1874.0</ele>
        <time>2018-07-22T12:32:51Z</time>
      </trkpt>
      <trkpt lat="41.067033" lon="-3.725117">
        <ele>1876.0</ele>
        <time>2018-07-22T12:32:52Z</time>
      </trkpt>
      <trkpt lat="41.067050" lon="-3.725033">
        <ele>1878.0</ele>
        <time>2018-07-22T12:32:53Z</time>
      </trkpt>
      <trkpt lat="41.067067" lon="-3.724933">
        <ele>1879.0</ele>
        <time>2018-07-22T12:32:54Z</time>
      </trkpt>
      <trkpt lat="41.067083" lon="-3.724850">
        <ele>1879.0</ele>
        <time>2018-07-22T12:32:55Z</time>
      </trkpt>
      <trkpt lat="41.067117" lon="-3.724767">
        <ele>1879.0</ele>
        <time>2018-07-22T12:32:56Z</time>
      </trkpt>
      <trkpt lat="41.067167" lon="-3.724717">
        <ele>1877.0</ele>
        <time>2018-07-22T12:32:57Z</time>
      </trkpt>
      <trkpt lat="41.067233" lon="-3.724683">
        <ele>1875.0</ele>
        <time>2018-07-22T12:32:58Z</time>
      </trkpt>
      <trkpt lat="41.067283" lon="-3.724667">
        <ele>1873.0</ele>
        <time>2018-07-22T12:32:59Z</time>
      </trkpt>
      <trkpt lat="41.067350" lon="-3.724717">
        <ele>1870.0</ele>
        <time>2018-07-22T12:33:00Z</time>
      </trkpt>
      <trkpt lat="41.067383" lon="-3.724817">
        <ele>1867.0</ele>
        <time>2018-07-22T12:33:01Z</time>
      </trkpt>
      <trkpt lat="41.067383" lon="-3.724950">
        <ele>1864.0</ele>
        <time>2018-07-22T12:33:02Z</time>
      </trkpt>
      <trkpt lat="41.067333" lon="-3.725083">
        <ele>1863.0</ele>
        <time>2018-07-22T12:33:03Z</time>
      </trkpt>
      <trkpt lat="41.067267" lon="-3.725200">
        <ele>1862.0</ele>
        <time>2018-07-22T12:33:04Z</time>
      </trkpt>
      <trkpt lat="41.067183" lon="-3.725283">
        <ele>1863.0</ele>
        <time>2018-07-22T12:33:05Z</time>
      </trkpt>
      <trkpt lat="41.067117" lon="-3.725350">
        <ele>1863.0</ele>
        <time>2018-07-22T12:33:06Z</time>
      </trkpt>
      <trkpt lat="41.067050" lon="-3.725417">
        <ele>1863.0</ele>
        <time>2018-07-22T12:33:07Z</time>
      </trkpt>
      <trkpt lat="41.066967" lon="-3.725500">
        <ele>1863.0</ele>
        <time>2018-07-22T12:33:08Z</time>
      </trkpt>
      <trkpt lat="41.066900" lon="-3.725600">
        <ele>1862.0</ele>
        <time>2018-07-22T12:33:09Z</time>
      </trkpt>
      <trkpt lat="41.066800" lon="-3.725700">
        <ele>1863.0</ele>
        <time>2018-07-22T12:33:10Z</time>
      </trkpt>
      <trkpt lat="41.066700" lon="-3.725783">
        <ele>1865.0</ele>
        <time>2018-07-22T12:33:11Z</time>
      </trkpt>
      <trkpt lat="41.066617" lon="-3.725850">
        <ele>1867.0</ele>
        <time>2018-07-22T12:33:12Z</time>
      </trkpt>
      <trkpt lat="41.066533" lon="-3.725917">
        <ele>1868.0</ele>
        <time>2018-07-22T12:33:13Z</time>
      </trkpt>
      <trkpt lat="41.066467" lon="-3.725983">
        <ele>1868.0</ele>
        <time>2018-07-22T12:33:14Z</time>
      </trkpt>
      <trkpt lat="41.066400" lon="-3.726033">
        <ele>1867.0</ele>
        <time>2018-07-22T12:33:15Z</time>
      </trkpt>
      <trkpt lat="41.066333" lon="-3.726100">
        <ele>1865.0</ele>
        <time>2018-07-22T12:33:16Z</time>
      </trkpt>
      <trkpt lat="41.066267" lon="-3.726183">
        <ele>1864.0</ele>
        <time>2018-07-22T12:33:17Z</time>
      </trkpt>
      <trkpt lat="41.066183" lon="-3.726250">
        <ele>1863.0</ele>
        <time>2018-07-22T12:33:18Z</time>
      </trkpt>
      <trkpt lat="41.066117" lon="-3.726350">
        <ele>1863.0</ele>
        <time>2018-07-22T12:33:19Z</time>
      </trkpt>
      <trkpt lat="41.066050" lon="-3.726433">
        <ele>1863.0</ele>
        <time>2018-07-22T12:33:20Z</time>
      </trkpt>
      <trkpt lat="41.066000" lon="-3.726517">
        <ele>1863.0</ele>
        <time>2018-07-22T12:33:21Z</time>
      </trkpt>
      <trkpt lat="41.065967" lon="-3.726617">
        <ele>1862.0</ele>
        <time>2018-07-22T12:33:22Z</time>
      </trkpt>
      <trkpt lat="41.065933" lon="-3.726717">
        <ele>1863.0</ele>
        <time>2018-07-22T12:33:23Z</time>
      </trkpt>
      <trkpt lat="41.065900" lon="-3.726817">
        <ele>1865.0</ele>
        <time>2018-07-22T12:33:24Z</time>
      </trkpt>
      <trkpt lat="41.065867" lon="-3.726917">
        <ele>1866.0</ele>
        <time>2018-07-22T12:33:25Z</time>
      </trkpt>
      <trkpt lat="41.065817" lon="-3.727017">
        <ele>1868.0</ele>
        <time>2018-07-22T12:33:26Z</time>
      </trkpt>
      <trkpt lat="41.065783" lon="-3.727100">
        <ele>1869.0</ele>
        <time>2018-07-22T12:33:27Z</time>
      </trkpt>
      <trkpt lat="41.065750" lon="-3.727183">
        <ele>1870.0</ele>
        <time>2018-07-22T12:33:28Z</time>
      </trkpt>
      <trkpt lat="41.065700" lon="-3.727267">
        <ele>1870.0</ele>
        <time>2018-07-22T12:33:29Z</time>
      </trkpt>
      <trkpt lat="41.065633" lon="-3.727367">
        <ele>1869.0</ele>
        <time>2018-07-22T12:33:30Z</time>
      </trkpt>
      <trkpt lat="41.065583" lon="-3.727450">
        <ele>1868.0</ele>
        <time>2018-07-22T12:33:31Z</time>
      </trkpt>
      <trkpt lat="41.065517" lon="-3.727550">
        <ele>1867.0</ele>
        <time>2018-07-22T12:33:32Z</time>
      </trkpt>
      <trkpt lat="41.065467" lon="-3.727650">
        <ele>1866.0</ele>
        <time>2018-07-22T12:33:33Z</time>
      </trkpt>
      <trkpt lat="41.065433" lon="-3.727733">
        <ele>1865.0</ele>
        <time>2018-07-22T12:33:34Z</time>
      </trkpt>
      <trkpt lat="41.065400" lon="-3.727833">
        <ele>1865.0</ele>
        <time>2018-07-22T12:33:35Z</time>
      </trkpt>
      <trkpt lat="41.065350" lon="-3.727933">
        <ele>1864.0</ele>
        <time>2018-07-22T12:33:36Z</time>
      </trkpt>
      <trkpt lat="41.065317" lon="-3.728033">
        <ele>1863.0</ele>
        <time>2018-07-22T12:33:37Z</time>
      </trkpt>
      <trkpt lat="41.065267" lon="-3.728133">
        <ele>1862.0</ele>
        <time>2018-07-22T12:33:38Z</time>
      </trkpt>
      <trkpt lat="41.065233" lon="-3.728233">
        <ele>1861.0</ele>
        <time>2018-07-22T12:33:39Z</time>
      </trkpt>
      <trkpt lat="41.065183" lon="-3.728333">
        <ele>1860.0</ele>
        <time>2018-07-22T12:33:40Z</time>
      </trkpt>
      <trkpt lat="41.065133" lon="-3.728433">
        <ele>1860.0</ele>
        <time>2018-07-22T12:33:41Z</time>
      </trkpt>
      <trkpt lat="41.065083" lon="-3.728550">
        <ele>1861.0</ele>
        <time>2018-07-22T12:33:42Z</time>
      </trkpt>
      <trkpt lat="41.065017" lon="-3.728650">
        <ele>1862.0</ele>
        <time>2018-07-22T12:33:43Z</time>
      </trkpt>
      <trkpt lat="41.064983" lon="-3.728750">
        <ele>1865.0</ele>
        <time>2018-07-22T12:33:44Z</time>
      </trkpt>
      <trkpt lat="41.064933" lon="-3.728833">
        <ele>1868.0</ele>
        <time>2018-07-22T12:33:45Z</time>
      </trkpt>
      <trkpt lat="41.064900" lon="-3.728933">
        <ele>1871.0</ele>
        <time>2018-07-22T12:33:46Z</time>
      </trkpt>
      <trkpt lat="41.064850" lon="-3.729017">
        <ele>1873.0</ele>
        <time>2018-07-22T12:33:47Z</time>
      </trkpt>
      <trkpt lat="41.064833" lon="-3.729100">
        <ele>1875.0</ele>
        <time>2018-07-22T12:33:48Z</time>
      </trkpt>
      <trkpt lat="41.064850" lon="-3.729167">
        <ele>1873.0</ele>
        <time>2018-07-22T12:33:49Z</time>
      </trkpt>
      <trkpt lat="41.064900" lon="-3.729183">
        <ele>1872.0</ele>
        <time>2018-07-22T12:33:50Z</time>
      </trkpt>
      <trkpt lat="41.064983" lon="-3.729133">
        <ele>1871.0</ele>
        <time>2018-07-22T12:33:51Z</time>
      </trkpt>
      <trkpt lat="41.065033" lon="-3.729017">
        <ele>1872.0</ele>
        <time>2018-07-22T12:33:52Z</time>
      </trkpt>
      <trkpt lat="41.065067" lon="-3.728833">
        <ele>1874.0</ele>
        <time>2018-07-22T12:33:53Z</time>
      </trkpt>
      <trkpt lat="41.065050" lon="-3.728683">
        <ele>1878.0</ele>
        <time>2018-07-22T12:33:54Z</time>
      </trkpt>
      <trkpt lat="41.065033" lon="-3.728550">
        <ele>1883.0</ele>
        <time>2018-07-22T12:33:55Z</time>
      </trkpt>
      <trkpt lat="41.064983" lon="-3.728433">
        <ele>1886.0</ele>
        <time>2018-07-22T12:33:56Z</time>
      </trkpt>
      <trkpt lat="41.064933" lon="-3.728333">
        <ele>1888.0</ele>
        <time>2018-07-22T12:33:57Z</time>
      </trkpt>
      <trkpt lat="41.064867" lon="-3.728250">
        <ele>1888.0</ele>
        <time>2018-07-22T12:33:58Z</time>
      </trkpt>
      <trkpt lat="41.064750" lon="-3.728183">
        <ele>1887.0</ele>
        <time>2018-07-22T12:33:59Z</time>
      </trkpt>
      <trkpt lat="41.064617" lon="-3.728167">
        <ele>1886.0</ele>
        <time>2018-07-22T12:34:00Z</time>
      </trkpt>
      <trkpt lat="41.064500" lon="-3.728200">
        <ele>1886.0</ele>
        <time>2018-07-22T12:34:01Z</time>
      </trkpt>
      <trkpt lat="41.064417" lon="-3.728300">
        <ele>1887.0</ele>
        <time>2018-07-22T12:34:02Z</time>
      </trkpt>
      <trkpt lat="41.064383" lon="-3.728433">
        <ele>1888.0</ele>
        <time>2018-07-22T12:34:03Z</time>
      </trkpt>
      <trkpt lat="41.064383" lon="-3.728533">
        <ele>1892.0</ele>
        <time>2018-07-22T12:34:04Z</time>
      </trkpt>
      <trkpt lat="41.064400" lon="-3.728600">
        <ele>1898.0</ele>
        <time>2018-07-22T12:34:05Z</time>
      </trkpt>
      <trkpt lat="41.064450" lon="-3.728600">
        <ele>1902.0</ele>
        <time>2018-07-22T12:34:06Z</time>
      </trkpt>
      <trkpt lat="41.064483" lon="-3.728583">
        <ele>1905.0</ele>
        <time>2018-07-22T12:34:07Z</time>
      </trkpt>
      <trkpt lat="41.064517" lon="-3.728550">
        <ele>1907.0</ele>
        <time>2018-07-22T12:34:08Z</time>
      </trkpt>
      <trkpt lat="41.064567" lon="-3.728500">
        <ele>1907.0</ele>
        <time>2018-07-22T12:34:09Z</time>
      </trkpt>
      <trkpt lat="41.064633" lon="-3.728400">
        <ele>1908.0</ele>
        <time>2018-07-22T12:34:10Z</time>
      </trkpt>
      <trkpt lat="41.064667" lon="-3.728267">
        <ele>1909.0</ele>
        <time>2018-07-22T12:34:11Z</time>
      </trkpt>
      <trkpt lat="41.064667" lon="-3.728100">
        <ele>1909.0</ele>
        <time>2018-07-22T12:34:12Z</time>
      </trkpt>
      <trkpt lat="41.064617" lon="-3.727933">
        <ele>1910.0</ele>
        <time>2018-07-22T12:34:13Z</time>
      </trkpt>
      <trkpt lat="41.064533" lon="-3.727783">
        <ele>1912.0</ele>
        <time>2018-07-22T12:34:14Z</time>
      </trkpt>
      <trkpt lat="41.064433" lon="-3.727683">
        <ele>1915.0</ele>
        <time>2018-07-22T12:34:15Z</time>
      </trkpt>
      <trkpt lat="41.064333" lon="-3.727617">
        <ele>1918.0</ele>
        <time>2018-07-22T12:34:16Z</time>
      </trkpt>
      <trkpt lat="41.064217" lon="-3.727567">
        <ele>1921.0</ele>
        <time>2018-07-22T12:34:17Z</time>
      </trkpt>
      <trkpt lat="41.064117" lon="-3.727533">
        <ele>1921.0</ele>
        <time>2018-07-22T12:34:18Z</time>
      </trkpt>
      <trkpt lat="41.064000" lon="-3.727533">
        <ele>1922.0</ele>
        <time>2018-07-22T12:34:19Z</time>
      </trkpt>
      <trkpt lat="41.063900" lon="-3.727567">
        <ele>1922.0</ele>
        <time>2018-07-22T12:34:20Z</time>
      </trkpt>
      <trkpt lat="41.063800" lon="-3.727633">
        <ele>1922.0</ele>
        <time>2018-07-22T12:34:21Z</time>
      </trkpt>
      <trkpt lat="41.063733" lon="-3.727733">
        <ele>1923.0</ele>
        <time>2018-07-22T12:34:22Z</time>
      </trkpt>
      <trkpt lat="41.063717" lon="-3.727867">
        <ele>1924.0</ele>
        <time>2018-07-22T12:34:23Z</time>
      </trkpt>
      <trkpt lat="41.063700" lon="-3.727967">
        <ele>1928.0</ele>
        <time>2018-07-22T12:34:24Z</time>
      </trkpt>
      <trkpt lat="41.063700" lon="-3.728033">
        <ele>1933.0</ele>
        <time>2018-07-22T12:34:25Z</time>
      </trkpt>
      <trkpt lat="41.063683" lon="-3.728083">
        <ele>1937.0</ele>
        <time>2018-07-22T12:34:26Z</time>
      </trkpt>
      <trkpt lat="41.063683" lon="-3.728133">
        <ele>1939.0</ele>
        <time>2018-07-22T12:34:27Z</time>
      </trkpt>
      <trkpt lat="41.063683" lon="-3.728167">
        <ele>1941.0</ele>
        <time>2018-07-22T12:34:28Z</time>
      </trkpt>
      <trkpt lat="41.063717" lon="-3.728200">
        <ele>1941.0</ele>
        <time>2018-07-22T12:34:29Z</time>
      </trkpt>
      <trkpt lat="41.063767" lon="-3.728183">
        <ele>1942.0</ele>
        <time>2018-07-22T12:34:30Z</time>
      </trkpt>
      <trkpt lat="41.063817" lon="-3.728133">
        <ele>1942.0</ele>
        <time>2018-07-22T12:34:31Z</time>
      </trkpt>
      <trkpt lat="41.063867" lon="-3.728017">
        <ele>1943.0</ele>
        <time>2018-07-22T12:34:32Z</time>
      </trkpt>
      <trkpt lat="41.063883" lon="-3.727867">
        <ele>1944.0</ele>
        <time>2018-07-22T12:34:33Z</time>
      </trkpt>
      <trkpt lat="41.063867" lon="-3.727700">
        <ele>1945.0</ele>
        <time>2018-07-22T12:34:34Z</time>
      </trkpt>
      <trkpt lat="41.063800" lon="-3.727533">
        <ele>1947.0</ele>
        <time>2018-07-22T12:34:35Z</time>
      </trkpt>
      <trkpt lat="41.063717" lon="-3.727400">
        <ele>1949.0</ele>
        <time>2018-07-22T12:34:36Z</time>
      </trkpt>
      <trkpt lat="41.063600" lon="-3.727283">
        <ele>1951.0</ele>
        <time>2018-07-22T12:34:37Z</time>
      </trkpt>
      <trkpt lat="41.063467" lon="-3.727217">
        <ele>1954.0</ele>
        <time>2018-07-22T12:34:38Z</time>
      </trkpt>
      <trkpt lat="41.063317" lon="-3.727183">
        <ele>1957.0</ele>
        <time>2018-07-22T12:34:39Z</time>
      </trkpt>
      <trkpt lat="41.063200" lon="-3.727167">
        <ele>1961.0</ele>
        <time>2018-07-22T12:34:40Z</time>
      </trkpt>
      <trkpt lat="41.063083" lon="-3.727150">
        <ele>1966.0</ele>
        <time>2018-07-22T12:34:41Z</time>
      </trkpt>
      <trkpt lat="41.062983" lon="-3.727167">
        <ele>1970.0</ele>
        <time>2018-07-22T12:34:42Z</time>
      </trkpt>
      <trkpt lat="41.062883" lon="-3.727183">
        <ele>1972.0</ele>
        <time>2018-07-22T12:34:43Z</time>
      </trkpt>
      <trkpt lat="41.062800" lon="-3.727217">
        <ele>1974.0</ele>
        <time>2018-07-22T12:34:44Z</time>
      </trkpt>
      <trkpt lat="41.062733" lon="-3.727267">
        <ele>1974.0</ele>
        <time>2018-07-22T12:34:45Z</time>
      </trkpt>
      <trkpt lat="41.062667" lon="-3.727350">
        <ele>1972.0</ele>
        <time>2018-07-22T12:34:46Z</time>
      </trkpt>
      <trkpt lat="41.062650" lon="-3.727433">
        <ele>1971.0</ele>
        <time>2018-07-22T12:34:47Z</time>
      </trkpt>
      <trkpt lat="41.062667" lon="-3.727483">
        <ele>1971.0</ele>
        <time>2018-07-22T12:34:48Z</time>
      </trkpt>
      <trkpt lat="41.062717" lon="-3.727517">
        <ele>1971.0</ele>
        <time>2018-07-22T12:34:49Z</time>
      </trkpt>
      <trkpt lat="41.062767" lon="-3.727500">
        <ele>1973.0</ele>
        <time>2018-07-22T12:34:50Z</time>
      </trkpt>
      <trkpt lat="41.062817" lon="-3.727433">
        <ele>1974.0</ele>
        <time>2018-07-22T12:34:51Z</time>
      </trkpt>
      <trkpt lat="41.062850" lon="-3.727350">
        <ele>1975.0</ele>
        <time>2018-07-22T12:34:52Z</time>
      </trkpt>
      <trkpt lat="41.062867" lon="-3.727250">
        <ele>1977.0</ele>
        <time>2018-07-22T12:34:53Z</time>
      </trkpt>
      <trkpt lat="41.062883" lon="-3.727117">
        <ele>1978.0</ele>
        <time>2018-07-22T12:34:54Z</time>
      </trkpt>
      <trkpt lat="41.062883" lon="-3.726967">
        <ele>1980.0</ele>
        <time>2018-07-22T12:34:55Z</time>
      </trkpt>
      <trkpt lat="41.062883" lon="-3.726817">
        <ele>1982.0</ele>
        <time>2018-07-22T12:34:56Z</time>
      </trkpt>
      <trkpt lat="41.062867" lon="-3.726650">
        <ele>1984.0</ele>
        <time>2018-07-22T12:34:57Z</time>
      </trkpt>
      <trkpt lat="41.062850" lon="-3.726500">
        <ele>1986.0</ele>
        <time>2018-07-22T12:34:58Z</time>
      </trkpt>
      <trkpt lat="41.062833" lon="-3.726333">
        <ele>1989.0</ele>
        <time>2018-07-22T12:34:59Z</time>
      </trkpt>
      <trkpt lat="41.062833" lon="-3.726200">
        <ele>1991.0</ele>
        <time>2018-07-22T12:35:00Z</time>
      </trkpt>
      <trkpt lat="41.062850" lon="-3.726100">
        <ele>1993.0</ele>
        <time>2018-07-22T12:35:01Z</time>
      </trkpt>
      <trkpt lat="41.062900" lon="-3.726033">
        <ele>1993.0</ele>
        <time>2018-07-22T12:35:02Z</time>
      </trkpt>
      <trkpt lat="41.062967" lon="-3.726033">
        <ele>1992.0</ele>
        <time>2018-07-22T12:35:03Z</time>
      </trkpt>
      <trkpt lat="41.063033" lon="-3.726067">
        <ele>1993.0</ele>
        <time>2018-07-22T12:35:04Z</time>
      </trkpt>
      <trkpt lat="41.063067" lon="-3.726150">
        <ele>1994.0</ele>
        <time>2018-07-22T12:35:05Z</time>
      </trkpt>
      <trkpt lat="41.063050" lon="-3.726250">
        <ele>1996.0</ele>
        <time>2018-07-22T12:35:06Z</time>
      </trkpt>
      <trkpt lat="41.063000" lon="-3.726333">
        <ele>1998.0</ele>
        <time>2018-07-22T12:35:07Z</time>
      </trkpt>
      <trkpt lat="41.062933" lon="-3.726417">
        <ele>1999.0</ele>
        <time>2018-07-22T12:35:08Z</time>
      </trkpt>
      <trkpt lat="41.062867" lon="-3.726467">
        <ele>2001.0</ele>
        <time>2018-07-22T12:35:09Z</time>
      </trkpt>
      <trkpt lat="41.062767" lon="-3.726533">
        <ele>2001.0</ele>
        <time>2018-07-22T12:35:10Z</time>
      </trkpt>
      <trkpt lat="41.062633" lon="-3.726550">
        <ele>2001.0</ele>
        <time>2018-07-22T12:35:11Z</time>
      </trkpt>
      <trkpt lat="41.062483" lon="-3.726500">
        <ele>2001.0</ele>
        <time>2018-07-22T12:35:12Z</time>
      </trkpt>
      <trkpt lat="41.062350" lon="-3.726400">
        <ele>2001.0</ele>
        <time>2018-07-22T12:35:13Z</time>
      </trkpt>
      <trkpt lat="41.062267" lon="-3.726217">
        <ele>2002.0</ele>
        <time>2018-07-22T12:35:14Z</time>
      </trkpt>
      <trkpt lat="41.062233" lon="-3.726033">
        <ele>2004.0</ele>
        <time>2018-07-22T12:35:15Z</time>
      </trkpt>
      <trkpt lat="41.062250" lon="-3.725867">
        <ele>2007.0</ele>
        <time>2018-07-22T12:35:16Z</time>
      </trkpt>
      <trkpt lat="41.062267" lon="-3.725750">
        <ele>2010.0</ele>
        <time>2018-07-22T12:35:17Z</time>
      </trkpt>
      <trkpt lat="41.062300" lon="-3.725667">
        <ele>2013.0</ele>
        <time>2018-07-22T12:35:18Z</time>
      </trkpt>
      <trkpt lat="41.062333" lon="-3.725617">
        <ele>2013.0</ele>
        <time>2018-07-22T12:35:19Z</time>
      </trkpt>
      <trkpt lat="41.062383" lon="-3.725567">
        <ele>2013.0</ele>
        <time>2018-07-22T12:35:20Z</time>
      </trkpt>
      <trkpt lat="41.062433" lon="-3.725517">
        <ele>2013.0</ele>
        <time>2018-07-22T12:35:21Z</time>
      </trkpt>
      <trkpt lat="41.062500" lon="-3.725500">
        <ele>2012.0</ele>
        <time>2018-07-22T12:35:22Z</time>
      </trkpt>
      <trkpt lat="41.062567" lon="-3.725500">
        <ele>2012.0</ele>
        <time>2018-07-22T12:35:23Z</time>
      </trkpt>
      <trkpt lat="41.062617" lon="-3.725517">
        <ele>2013.0</ele>
        <time>2018-07-22T12:35:24Z</time>
      </trkpt>
      <trkpt lat="41.062667" lon="-3.725533">
        <ele>2013.0</ele>
        <time>2018-07-22T12:35:25Z</time>
      </trkpt>
      <trkpt lat="41.062717" lon="-3.725533">
        <ele>2013.0</ele>
        <time>2018-07-22T12:35:26Z</time>
      </trkpt>
      <trkpt lat="41.062767" lon="-3.725533">
        <ele>2013.0</ele>
        <time>2018-07-22T12:35:27Z</time>
      </trkpt>
      <trkpt lat="41.062833" lon="-3.725533">
        <ele>2012.0</ele>
        <time>2018-07-22T12:35:28Z</time>
      </trkpt>
      <trkpt lat="41.062917" lon="-3.725517">
        <ele>2012.0</ele>
        <time>2018-07-22T12:35:29Z</time>
      </trkpt>
      <trkpt lat="41.062983" lon="-3.725483">
        <ele>2013.0</ele>
        <time>2018-07-22T12:35:30Z</time>
      </trkpt>
      <trkpt lat="41.063067" lon="-3.725467">
        <ele>2014.0</ele>
        <time>2018-07-22T12:35:31Z</time>
      </trkpt>
      <trkpt lat="41.063133" lon="-3.725467">
        <ele>2014.0</ele>
        <time>2018-07-22T12:35:32Z</time>
      </trkpt>
      <trkpt lat="41.063200" lon="-3.725467">
        <ele>2015.0</ele>
        <time>2018-07-22T12:35:33Z</time>
      </trkpt>
      <trkpt lat="41.063267" lon="-3.725467">
        <ele>2014.0</ele>
        <time>2018-07-22T12:35:34Z</time>
      </trkpt>
      <trkpt lat="41.063333" lon="-3.725450">
        <ele>2013.0</ele>
        <time>2018-07-22T12:35:35Z</time>
      </trkpt>
      <trkpt lat="41.063400" lon="-3.725433">
        <ele>2012.0</ele>
        <time>2018-07-22T12:35:36Z</time>
      </trkpt>
      <trkpt lat="41.063483" lon="-3.725400">
        <ele>2010.0</ele>
        <time>2018-07-22T12:35:37Z</time>
      </trkpt>
      <trkpt lat="41.063567" lon="-3.725367">
        <ele>2008.0</ele>
        <time>2018-07-22T12:35:38Z</time>
      </trkpt>
      <trkpt lat="41.063650" lon="-3.725333">
        <ele>2007.0</ele>
        <time>2018-07-22T12:35:39Z</time>
      </trkpt>
      <trkpt lat="41.063717" lon="-3.725300">
        <ele>2007.0</ele>
        <time>2018-07-22T12:35:40Z</time>
      </trkpt>
      <trkpt lat="41.063783" lon="-3.725267">
        <ele>2007.0</ele>
        <time>2018-07-22T12:35:41Z</time>
      </trkpt>
      <trkpt lat="41.063850" lon="-3.725250">
        <ele>2006.0</ele>
        <time>2018-07-22T12:35:42Z</time>
      </trkpt>
      <trkpt lat="41.063917" lon="-3.725217">
        <ele>2005.0</ele>
        <time>2018-07-22T12:35:43Z</time>
      </trkpt>
      <trkpt lat="41.064000" lon="-3.725183">
        <ele>2004.0</ele>
        <time>2018-07-22T12:35:44Z</time>
      </trkpt>
      <trkpt lat="41.064067" lon="-3.725167">
        <ele>2003.0</ele>
        <time>2018-07-22T12:35:45Z</time>
      </trkpt>
      <trkpt lat="41.064133" lon="-3.725150">
        <ele>2003.0</ele>
        <time>2018-07-22T12:35:46Z</time>
      </trkpt>
      <trkpt lat="41.064200" lon="-3.725133">
        <ele>2003.0</ele>
        <time>2018-07-22T12:35:47Z</time>
      </trkpt>
      <trkpt lat="41.064283" lon="-3.725100">
        <ele>2002.0</ele>
        <time>2018-07-22T12:35:48Z</time>
      </trkpt>
      <trkpt lat="41.064350" lon="-3.725067">
        <ele>2002.0</ele>
        <time>2018-07-22T12:35:49Z</time>
      </trkpt>
      <trkpt lat="41.064433" lon="-3.725033">
        <ele>2003.0</ele>
        <time>2018-07-22T12:35:50Z</time>
      </trkpt>
      <trkpt lat="41.064517" lon="-3.725000">
        <ele>2005.0</ele>
        <time>2018-07-22T12:35:51Z</time>
      </trkpt>
      <trkpt lat="41.064583" lon="-3.724983">
        <ele>2007.0</ele>
        <time>2018-07-22T12:35:52Z</time>
      </trkpt>
      <trkpt lat="41.064650" lon="-3.724983">
        <ele>2008.0</ele>
        <time>2018-07-22T12:35:53Z</time>
      </trkpt>
      <trkpt lat="41.064717" lon="-3.724967">
        <ele>2009.0</ele>
        <time>2018-07-22T12:35:54Z</time>
      </trkpt>
      <trkpt lat="41.064783" lon="-3.724950">
        <ele>2009.0</ele>
        <time>2018-07-22T12:35:55Z</time>
      </trkpt>
      <trkpt lat="41.064867" lon="-3.724933">
        <ele>2010.0</ele>
        <time>2018-07-22T12:35:56Z</time>
      </trkpt>
      <trkpt lat="41.064933" lon="-3.724933">
        <ele>2011.0</ele>
        <time>2018-07-22T12:35:57Z</time>
      </trkpt>
      <trkpt lat="41.065017" lon="-3.724950">
        <ele>2014.0</ele>
        <time>2018-07-22T12:35:58Z</time>
      </trkpt>
      <trkpt lat="41.065067" lon="-3.724983">
        <ele>2018.0</ele>
        <time>2018-07-22T12:35:59Z</time>
      </trkpt>
      <trkpt lat="41.065117" lon="-3.725017">
        <ele>2022.0</ele>
        <time>2018-07-22T12:36:00Z</time>
      </trkpt>
      <trkpt lat="41.065150" lon="-3.725050">
        <ele>2026.0</ele>
        <time>2018-07-22T12:36:01Z</time>
      </trkpt>
      <trkpt lat="41.065183" lon="-3.725067">
        <ele>2027.0</ele>
        <time>2018-07-22T12:36:02Z</time>
      </trkpt>
      <trkpt lat="41.065233" lon="-3.725033">
        <ele>2029.0</ele>
        <time>2018-07-22T12:36:03Z</time>
      </trkpt>
      <trkpt lat="41.065283" lon="-3.724983">
        <ele>2030.0</ele>
        <time>2018-07-22T12:36:04Z</time>
      </trkpt>
      <trkpt lat="41.065317" lon="-3.724867">
        <ele>2031.0</ele>
        <time>2018-07-22T12:36:05Z</time>
      </trkpt>
      <trkpt lat="41.065317" lon="-3.724733">
        <ele>2033.0</ele>
        <time>2018-07-22T12:36:06Z</time>
      </trkpt>
      <trkpt lat="41.065283" lon="-3.724600">
        <ele>2034.0</ele>
        <time>2018-07-22T12:36:07Z</time>
      </trkpt>
      <trkpt lat="41.065200" lon="-3.724483">
        <ele>2036.0</ele>
        <time>2018-07-22T12:36:08Z</time>
      </trkpt>
      <trkpt lat="41.065083" lon="-3.724400">
        <ele>2036.0</ele>
        <time>2018-07-22T12:36:09Z</time>
      </trkpt>
      <trkpt lat="41.064967" lon="-3.724367">
        <ele>2037.0</ele>
        <time>2018-07-22T12:36:10Z</time>
      </trkpt>
      <trkpt lat="41.064833" lon="-3.724350">
        <ele>2038.0</ele>
        <time>2018-07-22T12:36:11Z</time>
      </trkpt>
      <trkpt lat="41.064700" lon="-3.724383">
        <ele>2040.0</ele>
        <time>2018-07-22T12:36:12Z</time>
      </trkpt>
      <trkpt lat="41.064583" lon="-3.724450">
        <ele>2042.0</ele>
        <time>2018-07-22T12:36:13Z</time>
      </trkpt>
      <trkpt lat="41.064483" lon="-3.724533">
        <ele>2045.0</ele>
        <time>2018-07-22T12:36:14Z</time>
      </trkpt>
      <trkpt lat="41.064417" lon="-3.724633">
        <ele>2048.0</ele>
        <time>2018-07-22T12:36:15Z</time>
      </trkpt>
      <trkpt lat="41.064367" lon="-3.724717">
        <ele>2050.0</ele>
        <time>2018-07-22T12:36:16Z</time>
      </trkpt>
      <trkpt lat="41.064333" lon="-3.724800">
        <ele>2052.0</ele>
        <time>2018-07-22T12:36:17Z</time>
      </trkpt>
      <trkpt lat="41.064300" lon="-3.724883">
        <ele>2054.0</ele>
        <time>2018-07-22T12:36:18Z</time>
      </trkpt>
      <trkpt lat="41.064300" lon="-3.724950">
        <ele>2056.0</ele>
        <time>2018-07-22T12:36:19Z</time>
      </trkpt>
      <trkpt lat="41.064300" lon="-3.725017">
        <ele>2056.0</ele>
        <time>2018-07-22T12:36:20Z</time>
      </trkpt>
      <trkpt lat="41.064317" lon="-3.725083">
        <ele>2056.0</ele>
        <time>2018-07-22T12:36:21Z</time>
      </trkpt>
      <trkpt lat="41.064350" lon="-3.725150">
        <ele>2056.0</ele>
        <time>2018-07-22T12:36:22Z</time>
      </trkpt>
      <trkpt lat="41.064400" lon="-3.725183">
        <ele>2056.0</ele>
        <time>2018-07-22T12:36:23Z</time>
      </trkpt>
      <trkpt lat="41.064450" lon="-3.725167">
        <ele>2056.0</ele>
        <time>2018-07-22T12:36:24Z</time>
      </trkpt>
      <trkpt lat="41.064517" lon="-3.725133">
        <ele>2056.0</ele>
        <time>2018-07-22T12:36:25Z</time>
      </trkpt>
      <trkpt lat="41.064583" lon="-3.725067">
        <ele>2058.0</ele>
        <time>2018-07-22T12:36:26Z</time>
      </trkpt>
      <trkpt lat="41.064650" lon="-3.725033">
        <ele>2062.0</ele>
        <time>2018-07-22T12:36:27Z</time>
      </trkpt>
      <trkpt lat="41.064717" lon="-3.725000">
        <ele>2065.0</ele>
        <time>2018-07-22T12:36:28Z</time>
      </trkpt>
      <trkpt lat="41.064767" lon="-3.725000">
        <ele>2067.0</ele>
        <time>2018-07-22T12:36:29Z</time>
      </trkpt>
      <trkpt lat="41.064817" lon="-3.725017">
        <ele>2069.0</ele>
        <time>2018-07-22T12:36:30Z</time>
      </trkpt>
      <trkpt lat="41.064867" lon="-3.725050">
        <ele>2069.0</ele>
        <time>2018-07-22T12:36:31Z</time>
      </trkpt>
      <trkpt lat="41.064900" lon="-3.725100">
        <ele>2070.0</ele>
        <time>2018-07-22T12:36:32Z</time>
      </trkpt>
      <trkpt lat="41.064933" lon="-3.725200">
        <ele>2070.0</ele>
        <time>2018-07-22T12:36:33Z</time>
      </trkpt>
      <trkpt lat="41.064950" lon="-3.725300">
        <ele>2071.0</ele>
        <time>2018-07-22T12:36:34Z</time>
      </trkpt>
      <trkpt lat="41.064933" lon="-3.725400">
        <ele>2072.0</ele>
        <time>2018-07-22T12:36:35Z</time>
      </trkpt>
      <trkpt lat="41.064900" lon="-3.725517">
        <ele>2072.0</ele>
        <time>2018-07-22T12:36:36Z</time>
      </trkpt>
      <trkpt lat="41.064817" lon="-3.725617">
        <ele>2072.0</ele>
        <time>2018-07-22T12:36:37Z</time>
      </trkpt>
      <trkpt lat="41.064700" lon="-3.725700">
        <ele>2073.0</ele>
        <time>2018-07-22T12:36:38Z</time>
      </trkpt>
      <trkpt lat="41.064583" lon="-3.725750">
        <ele>2075.0</ele>
        <time>2018-07-22T12:36:39Z</time>
      </trkpt>
      <trkpt lat="41.064467" lon="-3.725750">
        <ele>2076.0</ele>
        <time>2018-07-22T12:36:40Z</time>
      </trkpt>
      <trkpt lat="41.064333" lon="-3.725717">
        <ele>2077.0</ele>
        <time>2018-07-22T12:36:41Z</time>
      </trkpt>
      <trkpt lat="41.064217" lon="-3.725667">
        <ele>2077.0</ele>
        <time>2018-07-22T12:36:42Z</time>
      </trkpt>
      <trkpt lat="41.064117" lon="-3.725583">
        <ele>2078.0</ele>
        <time>2018-07-22T12:36:43Z</time>
      </trkpt>
      <trkpt lat="41.064033" lon="-3.725483">
        <ele>2077.0</ele>
        <time>2018-07-22T12:36:44Z</time>
      </trkpt>
      <trkpt lat="41.063967" lon="-3.725350">
        <ele>2077.0</ele>
        <time>2018-07-22T12:36:45Z</time>
      </trkpt>
      <trkpt lat="41.063917" lon="-3.725200">
        <ele>2076.0</ele>
        <time>2018-07-22T12:36:46Z</time>
      </trkpt>
      <trkpt lat="41.063917" lon="-3.725050">
        <ele>2075.0</ele>
        <time>2018-07-22T12:36:47Z</time>
      </trkpt>
      <trkpt lat="41.063933" lon="-3.724900">
        <ele>2074.0</ele>
        <time>2018-07-22T12:36:48Z</time>
      </trkpt>
      <trkpt lat="41.063983" lon="-3.724783">
        <ele>2076.0</ele>
        <time>2018-07-22T12:36:49Z</time>
      </trkpt>
      <trkpt lat="41.064033" lon="-3.724717">
        <ele>2078.0</ele>
        <time>2018-07-22T12:36:50Z</time>
      </trkpt>
      <trkpt lat="41.064083" lon="-3.724683">
        <ele>2081.0</ele>
        <time>2018-07-22T12:36:51Z</time>
      </trkpt>
      <trkpt lat="41.064117" lon="-3.724667">
        <ele>2083.0</ele>
        <time>2018-07-22T12:36:52Z</time>
      </trkpt>
      <trkpt lat="41.064167" lon="-3.724650">
        <ele>2084.0</ele>
        <time>2018-07-22T12:36:53Z</time>
      </trkpt>
      <trkpt lat="41.064200" lon="-3.724683">
        <ele>2085.0</ele>
        <time>2018-07-22T12:36:54Z</time>
      </trkpt>
      <trkpt lat="41.064233" lon="-3.724733">
        <ele>2085.0</ele>
        <time>2018-07-22T12:36:55Z</time>
      </trkpt>
      <trkpt lat="41.064267" lon="-3.724800">
        <ele>2085.0</ele>
        <time>2018-07-22T12:36:56Z</time>
      </trkpt>
      <trkpt lat="41.064283" lon="-3.724883">
        <ele>2085.0</ele>
        <time>2018-07-22T12:36:57Z</time>
      </trkpt>
      <trkpt lat="41.064300" lon="-3.725000">
        <ele>2086.0</ele>
        <time>2018-07-22T12:36:58Z</time>
      </trkpt>
      <trkpt lat="41.064317" lon="-3.725117">
        <ele>2088.0</ele>
        <time>2018-07-22T12:36:59Z</time>
      </trkpt>
      <trkpt lat="41.064317" lon="-3.725233">
        <ele>2089.0</ele>
        <time>2018-07-22T12:37:00Z</time>
      </trkpt>
      <trkpt lat="41.064317" lon="-3.725350">
        <ele>2091.0</ele>
        <time>2018-07-22T12:37:01Z</time>
      </trkpt>
      <trkpt lat="41.064317" lon="-3.725467">
        <ele>2093.0</ele>
        <time>2018-07-22T12:37:02Z</time>
      </trkpt>
      <trkpt lat="41.064317" lon="-3.725550">
        <ele>2093.0</ele>
        <time>2018-07-22T12:37:03Z</time>
      </trkpt>
      <trkpt lat="41.064317" lon="-3.725633">
        <ele>2093.0</ele>
        <time>2018-07-22T12:37:04Z</time>
      </trkpt>
      <trkpt lat="41.064317" lon="-3.725717">
        <ele>2092.0</ele>
        <time>2018-07-22T12:37:05Z</time>
      </trkpt>
      <trkpt lat="41.064333" lon="-3.725833">
        <ele>2091.0</ele>
        <time>2018-07-22T12:37:06Z</time>
      </trkpt>
      <trkpt lat="41.064333" lon="-3.725950">
        <ele>2090.0</ele>
        <time>2018-07-22T12:37:07Z</time>
      </trkpt>
      <trkpt lat="41.064317" lon="-3.726083">
        <ele>2090.0</ele>
        <time>2018-07-22T12:37:08Z</time>
      </trkpt>
      <trkpt lat="41.064317" lon="-3.726200">
        <ele>2090.0</ele>
        <time>2018-07-22T12:37:09Z</time>
      </trkpt>
      <trkpt lat="41.064333" lon="-3.726317">
        <ele>2092.0</ele>
        <time>2018-07-22T12:37:10Z</time>
      </trkpt>
      <trkpt lat="41.064350" lon="-3.726417">
        <ele>2093.0</ele>
        <time>2018-07-22T12:37:11Z</time>
      </trkpt>
      <trkpt lat="41.064383" lon="-3.726483">
        <ele>2096.0</ele>
        <time>2018-07-22T12:37:12Z</time>
      </trkpt>
      <trkpt lat="41.064417" lon="-3.726533">
        <ele>2097.0</ele>
        <time>2018-07-22T12:37:13Z</time>
      </trkpt>
      <trkpt lat="41.064450" lon="-3.726583">
        <ele>2097.0</ele>
        <time>2018-07-22T12:37:14Z</time>
      </trkpt>
      <trkpt lat="41.064500" lon="-3.726650">
        <ele>2096.0</ele>
        <time>2018-07-22T12:37:15Z</time>
      </trkpt>
      <trkpt lat="41.064550" lon="-3.726700">
        <ele>2095.0</ele>
        <time>2018-07-22T12:37:16Z</time>
      </trkpt>
      <trkpt lat="41.064617" lon="-3.726767">
        <ele>2094.0</ele>
        <time>2018-07-22T12:37:17Z</time>
      </trkpt>
      <trkpt lat="41.064700" lon="-3.726817">
        <ele>2095.0</ele>
        <time>2018-07-22T12:37:18Z</time>
      </trkpt>
      <trkpt lat="41.064750" lon="-3.726883">
        <ele>2097.0</ele>
        <time>2018-07-22T12:37:19Z</time>
      </trkpt>
      <trkpt lat="41.064783" lon="-3.726950">
        <ele>2100.0</ele>
        <time>2018-07-22T12:37:20Z</time>
      </trkpt>
      <trkpt lat="41.064817" lon="-3.727017">
        <ele>2102.0</ele>
        <time>2018-07-22T12:37:21Z</time>
      </trkpt>
      <trkpt lat="41.064833" lon="-3.727083">
        <ele>2102.0</ele>
        <time>2018-07-22T12:37:22Z</time>
      </trkpt>
      <trkpt lat="41.064883" lon="-3.727150">
        <ele>2102.0</ele>
        <time>2018-07-22T12:37:23Z</time>
      </trkpt>
      <trkpt lat="41.064933" lon="-3.727217">
        <ele>2102.0</ele>
        <time>2018-07-22T12:37:24Z</time>
      </trkpt>
      <trkpt lat="41.064983" lon="-3.727283">
        <ele>2103.0</ele>
        <time>2018-07-22T12:37:25Z</time>
      </trkpt>
      <trkpt lat="41.065033" lon="-3.727350">
        <ele>2103.0</ele>
        <time>2018-07-22T12:37:26Z</time>
      </trkpt>
      <trkpt lat="41.065083" lon="-3.727417">
        <ele>2103.0</ele>
        <time>2018-07-22T12:37:27Z</time>
      </trkpt>
      <trkpt lat="41.065133" lon="-3.727483">
        <ele>2103.0</ele>
        <time>2018-07-22T12:37:28Z</time>
      </trkpt>
      <trkpt lat="41.065167" lon="-3.727550">
        <ele>2103.0</ele>
        <time>2018-07-22T12:37:29Z</time>
      </trkpt>
      <trkpt lat="41.065217" lon="-3.727633">
        <ele>2102.0</ele>
        <time>2018-07-22T12:37:30Z</time>
      </trkpt>
      <trkpt lat="41.065283" lon="-3.727700">
        <ele>2103.0</ele>
        <time>2018-07-22T12:37:31Z</time>
      </trkpt>
      <trkpt lat="41.065333" lon="-3.727783">
        <ele>2105.0</ele>
        <time>2018-07-22T12:37:32Z</time>
      </trkpt>
      <trkpt lat="41.065367" lon="-3.727883">
        <ele>2108.0</ele>
        <time>2018-07-22T12:37:33Z</time>
      </trkpt>
      <trkpt lat="41.065417" lon="-3.727967">
        <ele>2110.0</ele>
        <time>2018-07-22T12:37:34Z</time>
      </trkpt>
      <trkpt lat="41.065467" lon="-3.728017">
        <ele>2113.0</ele>
        <time>2018-07-22T12:37:35Z</time>
      </trkpt>
      <trkpt lat="41.065517" lon="-3.728050">
        <ele>2116.0</ele>
        <time>2018-07-22T12:37:36Z</time>
      </trkpt>
      <trkpt lat="41.065583" lon="-3.728050">
        <ele>2117.0</ele>
        <time>2018-07-22T12:37:37Z</time>
      </trkpt>
      <trkpt lat="41.065650" lon="-3.728017">
        <ele>2117.0</ele>
        <time>2018-07-22T12:37:38Z</time>
      </trkpt>
      <trkpt lat="41.065750" lon="-3.727900">
        <ele>2117.0</ele>
        <time>2018-07-22T12:37:39Z</time>
      </trkpt>
      <trkpt lat="41.065817" lon="-3.727750">
        <ele>2118.0</ele>
        <time>2018-07-22T12:37:40Z</time>
      </trkpt>
      <trkpt lat="41.065833" lon="-3.727583">
        <ele>2120.0</ele>
        <time>2018-07-22T12:37:41Z</time>
      </trkpt>
      <trkpt lat="41.065800" lon="-3.727417">
        <ele>2122.0</ele>
        <time>2018-07-22T12:37:42Z</time>
      </trkpt>
      <trkpt lat="41.065717" lon="-3.727283">
        <ele>2125.0</ele>
        <time>2018-07-22T12:37:43Z</time>
      </trkpt>
      <trkpt lat="41.065617" lon="-3.727183">
        <ele>2126.0</ele>
        <time>2018-07-22T12:37:44Z</time>
      </trkpt>
      <trkpt lat="41.065517" lon="-3.727117">
        <ele>2128.0</ele>
        <time>2018-07-22T12:37:45Z</time>
      </trkpt>
      <trkpt lat="41.065400" lon="-3.727100">
        <ele>2130.0</ele>
        <time>2018-07-22T12:37:46Z</time>
      </trkpt>
      <trkpt lat="41.065283" lon="-3.727117">
        <ele>2132.0</ele>
        <time>2018-07-22T12:37:47Z</time>
      </trkpt>
      <trkpt lat="41.065183" lon="-3.727183">
        <ele>2134.0</ele>
        <time>2018-07-22T12:37:48Z</time>
      </trkpt>
      <trkpt lat="41.065100" lon="-3.727267">
        <ele>2137.0</ele>
        <time>2018-07-22T12:37:49Z</time>
      </trkpt>
      <trkpt lat="41.065050" lon="-3.727367">
        <ele>2139.0</ele>
        <time>2018-07-22T12:37:50Z</time>
      </trkpt>
      <trkpt lat="41.065033" lon="-3.727467">
        <ele>2142.0</ele>
        <time>2018-07-22T12:37:51Z</time>
      </trkpt>
      <trkpt lat="41.065050" lon="-3.727550">
        <ele>2144.0</ele>
        <time>2018-07-22T12:37:52Z</time>
      </trkpt>
      <trkpt lat="41.065100" lon="-3.727617">
        <ele>2145.0</ele>
        <time>2018-07-22T12:37:53Z</time>
      </trkpt>
      <trkpt lat="41.065167" lon="-3.727650">
        <ele>2147.0</ele>
        <time>2018-07-22T12:37:54Z</time>
      </trkpt>
      <trkpt lat="41.065250" lon="-3.727633">
        <ele>2148.0</ele>
        <time>2018-07-22T12:37:55Z</time>
      </trkpt>
      <trkpt lat="41.065350" lon="-3.727600">
        <ele>2150.0</ele>
        <time>2018-07-22T12:37:56Z</time>
      </trkpt>
      <trkpt lat="41.065433" lon="-3.727500">
        <ele>2152.0</ele>
        <time>2018-07-22T12:37:57Z</time>
      </trkpt>
      <trkpt lat="41.065483" lon="-3.727367">
        <ele>2154.0</ele>
        <time>2018-07-22T12:37:58Z</time>
      </trkpt>
      <trkpt lat="41.065517" lon="-3.727200">
        <ele>2155.0</ele>
        <time>2018-07-22T12:37:59Z</time>
      </trkpt>
      <trkpt lat="41.065500" lon="-3.727017">
        <ele>2157.0</ele>
        <time>2018-07-22T12:38:00Z</time>
      </trkpt>
      <trkpt lat="41.065433" lon="-3.726867">
        <ele>2159.0</ele>
        <time>2018-07-22T12:38:01Z</time>
      </trkpt>
      <trkpt lat="41.065350" lon="-3.726767">
        <ele>2160.0</ele>
        <time>2018-07-22T12:38:02Z</time>
      </trkpt>
      <trkpt lat="41.065233" lon="-3.726717">
        <ele>2160.0</ele>
        <time>2018-07-22T12:38:03Z</time>
      </trkpt>
      <trkpt lat="41.065100" lon="-3.726717">
        <ele>2161.0</ele>
        <time>2018-07-22T12:38:04Z</time>
      </trkpt>
      <trkpt lat="41.065000" lon="-3.726783">
        <ele>2162.0</ele>
        <time>2018-07-22T12:38:05Z</time>
      </trkpt>
      <trkpt lat="41.064917" lon="-3.726867">
        <ele>2165.0</ele>
        <time>2018-07-22T12:38:06Z</time>
      </trkpt>
      <trkpt lat="41.064883" lon="-3.726983">
        <ele>2167.0</ele>
        <time>2018-07-22T12:38:07Z</time>
      </trkpt>
      <trkpt lat="41.064867" lon="-3.727100">
        <ele>2170.0</ele>
        <time>2018-07-22T12:38:08Z</time>
      </trkpt>
      <trkpt lat="41.064900" lon="-3.727183">
        <ele>2173.0</ele>
        <time>2018-07-22T12:38:09Z</time>
      </trkpt>
      <trkpt lat="41.064933" lon="-3.727233">
        <ele>2175.0</ele>
        <time>2018-07-22T12:38:10Z</time>
      </trkpt>
      <trkpt lat="41.064983" lon="-3.727283">
        <ele>2176.0</ele>
        <time>2018-07-22T12:38:11Z</time>
      </trkpt>
      <trkpt lat="41.065067" lon="-3.727300">
        <ele>2177.0</ele>
        <time>2018-07-22T12:38:12Z</time>
      </trkpt>
      <trkpt lat="41.065150" lon="-3.727300">
        <ele>2178.0</ele>
        <time>2018-07-22T12:38:13Z</time>
      </trkpt>
      <trkpt lat="41.065250" lon="-3.727267">
        <ele>2179.0</ele>
        <time>2018-07-22T12:38:14Z</time>
      </trkpt>
      <trkpt lat="41.065333" lon="-3.727183">
        <ele>2182.0</ele>
        <time>2018-07-22T12:38:15Z</time>
      </trkpt>
      <trkpt lat="41.065400" lon="-3.727067">
        <ele>2184.0</ele>
        <time>2018-07-22T12:38:16Z</time>
      </trkpt>
      <trkpt lat="41.065450" lon="-3.726917">
        <ele>2185.0</ele>
        <time>2018-07-22T12:38:17Z</time>
      </trkpt>
      <trkpt lat="41.065450" lon="-3.726750">
        <ele>2186.0</ele>
        <time>2018-07-22T12:38:18Z</time>
      </trkpt>
      <trkpt lat="41.065417" lon="-3.726567">
        <ele>2188.0</ele>
        <time>2018-07-22T12:38:19Z</time>
      </trkpt>
      <trkpt lat="41.065350" lon="-3.726417">
        <ele>2190.0</ele>
        <time>2018-07-22T12:38:20Z</time>
      </trkpt>
      <trkpt lat="41.065267" lon="-3.726317">
        <ele>2192.0</ele>
        <time>2018-07-22T12:38:21Z</time>
      </trkpt>
      <trkpt lat="41.065150" lon="-3.726283">
        <ele>2193.0</ele>
        <time>2018-07-22T12:38:22Z</time>
      </trkpt>
      <trkpt lat="41.065050" lon="-3.726300">
        <ele>2194.0</ele>
        <time>2018-07-22T12:38:23Z</time>
      </trkpt>
      <trkpt lat="41.064967" lon="-3.726350">
        <ele>2196.0</ele>
        <time>2018-07-22T12:38:24Z</time>
      </trkpt>
      <trkpt lat="41.064900" lon="-3.726417">
        <ele>2198.0</ele>
        <time>2018-07-22T12:38:25Z</time>
      </trkpt>
      <trkpt lat="41.064850" lon="-3.726500">
        <ele>2200.0</ele>
        <time>2018-07-22T12:38:26Z</time>
      </trkpt>
      <trkpt lat="41.064833" lon="-3.726600">
        <ele>2202.0</ele>
        <time>2018-07-22T12:38:27Z</time>
      </trkpt>
      <trkpt lat="41.064833" lon="-3.726683">
        <ele>2203.0</ele>
        <time>2018-07-22T12:38:28Z</time>
      </trkpt>
      <trkpt lat="41.064867" lon="-3.726767">
        <ele>2205.0</ele>
        <time>2018-07-22T12:38:29Z</time>
      </trkpt>
      <trkpt lat="41.064917" lon="-3.726833">
        <ele>2206.0</ele>
        <time>2018-07-22T12:38:30Z</time>
      </trkpt>
      <trkpt lat="41.065000" lon="-3.726883">
        <ele>2206.0</ele>
        <time>2018-07-22T12:38:31Z</time>
      </trkpt>
      <trkpt lat="41.065100" lon="-3.726883">
        <ele>2206.0</ele>
        <time>2018-07-22T12:38:32Z</time>
      </trkpt>
      <trkpt lat="41.065200" lon="-3.726833">
        <ele>2208.0</ele>
        <time>2018-07-22T12:38:33Z</time>
      </trkpt>
      <trkpt lat="41.065267" lon="-3.726750">
        <ele>2211.0</ele>
        <time>2018-07-22T12:38:34Z</time>
      </trkpt>
      <trkpt lat="41.065317" lon="-3.726600">
        <ele>2214.0</ele>
        <time>2018-07-22T12:38:35Z</time>
      </trkpt>
      <trkpt lat="41.065317" lon="-3.726450">
        <ele>2216.0</ele>
        <time>2018-07-22T12:38:36Z</time>
      </trkpt>
      <trkpt lat="41.065283" lon="-3.726283">
        <ele>2218.0</ele>
        <time>2018-07-22T12:38:37Z</time>
      </trkpt>
      <trkpt lat="41.065233" lon="-3.726150">
        <ele>2220.0</ele>
        <time>2018-07-22T12:38:38Z</time>
      </trkpt>
      <trkpt lat="41.065167" lon="-3.726017">
        <ele>2222.0</ele>
        <time>2018-07-22T12:38:39Z</time>
      </trkpt>
      <trkpt lat="41.065067" lon="-3.725933">
        <ele>2224.0</ele>
        <time>2018-07-22T12:38:40Z</time>
      </trkpt>
      <trkpt lat="41.064967" lon="-3.725867">
        <ele>2225.0</ele>
        <time>2018-07-22T12:38:41Z</time>
      </trkpt>
      <trkpt lat="41.064850" lon="-3.725833">
        <ele>2227.0</ele>
        <time>2018-07-22T12:38:42Z</time>
      </trkpt>
      <trkpt lat="41.064750" lon="-3.725850">
        <ele>2229.0</ele>
        <time>2018-07-22T12:38:43Z</time>
      </trkpt>
      <trkpt lat="41.064667" lon="-3.725883">
        <ele>2231.0</ele>
        <time>2018-07-22T12:38:44Z</time>
      </trkpt>
      <trkpt lat="41.064617" lon="-3.725950">
        <ele>2232.0</ele>
        <time>2018-07-22T12:38:45Z</time>
      </trkpt>
      <trkpt lat="41.064600" lon="-3.726033">
        <ele>2233.0</ele>
        <time>2018-07-22T12:38:46Z</time>
      </trkpt>
      <trkpt lat="41.064600" lon="-3.726133">
        <ele>2233.0</ele>
        <time>2018-07-22T12:38:47Z</time>
      </trkpt>
      <trkpt lat="41.064633" lon="-3.726217">
        <ele>2233.0</ele>
        <time>2018-07-22T12:38:48Z</time>
      </trkpt>
      <trkpt lat="41.064667" lon="-3.726317">
        <ele>2234.0</ele>
        <time>2018-07-22T12:38:49Z</time>
      </trkpt>
      <trkpt lat="41.064733" lon="-3.726383">
        <ele>2236.0</ele>
        <time>2018-07-22T12:38:50Z</time>
      </trkpt>
      <trkpt lat="41.064783" lon="-3.726433">
        <ele>2238.0</ele>
        <time>2018-07-22T12:38:51Z</time>
      </trkpt>
      <trkpt lat="41.064833" lon="-3.726433">
        <ele>2240.0</ele>
        <time>2018-07-22T12:38:52Z</time>
      </trkpt>
      <trkpt lat="41.064900" lon="-3.726400">
        <ele>2241.0</ele>
        <time>2018-07-22T12:38:53Z</time>
      </trkpt>
      <trkpt lat="41.064967" lon="-3.726350">
        <ele>2241.0</ele>
        <time>2018-07-22T12:38:54Z</time>
      </trkpt>
      <trkpt lat="41.065050" lon="-3.726267">
        <ele>2242.0</ele>
        <time>2018-07-22T12:38:55Z</time>
      </trkpt>
      <trkpt lat="41.065100" lon="-3.726133">
        <ele>2242.0</ele>
        <time>2018-07-22T12:38:56Z</time>
      </trkpt>
      <trkpt lat="41.065117" lon="-3.725967">
        <ele>2243.0</ele>
        <time>2018-07-22T12:38:57Z</time>
      </trkpt>
      <trkpt lat="41.065117" lon="-3.725800">
        <ele>2244.0</ele>
        <time>2018-07-22T12:38:58Z</time>
      </trkpt>
      <trkpt lat="41.065083" lon="-3.725650">
        <ele>2247.0</ele>
        <time>2018-07-22T12:38:59Z</time>
      </trkpt>
      <trkpt lat="41.065033" lon="-3.725517">
        <ele>2249.0</ele>
        <time>2018-07-22T12:39:00Z</time>
      </trkpt>
      <trkpt lat="41.064967" lon="-3.725400">
        <ele>2250.0</ele>
        <time>2018-07-22T12:39:01Z</time>
      </trkpt>
      <trkpt lat="41.064867" lon="-3.725300">
        <ele>2250.0</ele>
        <time>2018-07-22T12:39:02Z</time>
      </trkpt>
      <trkpt lat="41.064767" lon="-3.725217">
        <ele>2250.0</ele>
        <time>2018-07-22T12:39:03Z</time>
      </trkpt>
      <trkpt lat="41.064633" lon="-3.725183">
        <ele>2251.0</ele>
        <time>2018-07-22T12:39:04Z</time>
      </trkpt>
      <trkpt lat="41.064517" lon="-3.725183">
        <ele>2252.0</ele>
        <time>2018-07-22T12:39:05Z</time>
      </trkpt>
      <trkpt lat="41.064417" lon="-3.725217">
        <ele>2254.0</ele>
        <time>2018-07-22T12:39:06Z</time>
      </trkpt>
      <trkpt lat="41.064350" lon="-3.725283">
        <ele>2256.0</ele>
        <time>2018-07-22T12:39:07Z</time>
      </trkpt>
      <trkpt lat="41.064283" lon="-3.725350">
        <ele>2257.0</ele>
        <time>2018-07-22T12:39:08Z</time>
      </trkpt>
      <trkpt lat="41.064233" lon="-3.725433">
        <ele>2259.0</ele>
        <time>2018-07-22T12:39:09Z</time>
      </trkpt>
      <trkpt lat="41.064200" lon="-3.725500">
        <ele>2260.0</ele>
        <time>2018-07-22T12:39:10Z</time>
      </trkpt>
      <trkpt lat="41.064183" lon="-3.725583">
        <ele>2259.0</ele>
        <time>2018-07-22T12:39:11Z</time>
      </trkpt>
      <trkpt lat="41.064183" lon="-3.725667">
        <ele>2259.0</ele>
        <time>2018-07-22T12:39:12Z</time>
      </trkpt>
      <trkpt lat="41.064200" lon="-3.725767">
        <ele>2260.0</ele>
        <time>2018-07-22T12:39:13Z</time>
      </trkpt>
      <trkpt lat="41.064250" lon="-3.725867">
        <ele>2261.0</ele>
        <time>2018-07-22T12:39:14Z</time>
      </trkpt>
      <trkpt lat="41.064317" lon="-3.725950">
        <ele>2265.0</ele>
        <time>2018-07-22T12:39:15Z</time>
      </trkpt>
      <trkpt lat="41.064383" lon="-3.726000">
        <ele>2268.0</ele>
        <time>2018-07-22T12:39:16Z</time>
      </trkpt>
      <trkpt lat="41.064467" lon="-3.726017">
        <ele>2271.0</ele>
        <time>2018-07-22T12:39:17Z</time>
      </trkpt>
      <trkpt lat="41.064533" lon="-3.726033">
        <ele>2274.0</ele>
        <time>2018-07-22T12:39:18Z</time>
      </trkpt>
      <trkpt lat="41.064600" lon="-3.726067">
        <ele>2277.0</ele>
        <time>2018-07-22T12:39:19Z</time>
      </trkpt>
      <trkpt lat="41.064683" lon="-3.726067">
        <ele>2279.0</ele>
        <time>2018-07-22T12:39:20Z</time>
      </trkpt>
      <trkpt lat="41.064750" lon="-3.726050">
        <ele>2281.0</ele>
        <time>2018-07-22T12:39:21Z</time>
      </trkpt>
      <trkpt lat="41.064833" lon="-3.726017">
        <ele>2282.0</ele>
        <time>2018-07-22T12:39:22Z</time>
      </trkpt>
      <trkpt lat="41.064900" lon="-3.726000">
        <ele>2284.0</ele>
        <time>2018-07-22T12:39:23Z</time>
      </trkpt>
      <trkpt lat="41.064967" lon="-3.726017">
        <ele>2286.0</ele>
        <time>2018-07-22T12:39:24Z</time>
      </trkpt>
      <trkpt lat="41.065000" lon="-3.726067">
        <ele>2287.0</ele>
        <time>2018-07-22T12:39:25Z</time>
      </trkpt>
      <trkpt lat="41.065033" lon="-3.726150">
        <ele>2287.0</ele>
        <time>2018-07-22T12:39:26Z</time>
      </trkpt>
      <trkpt lat="41.065050" lon="-3.726250">
        <ele>2289.0</ele>
        <time>2018-07-22T12:39:27Z</time>
      </trkpt>
      <trkpt lat="41.065050" lon="-3.726333">
        <ele>2291.0</ele>
        <time>2018-07-22T12:39:28Z</time>
      </trkpt>
      <trkpt lat="41.065050" lon="-3.726400">
        <ele>2294.0</ele>
        <time>2018-07-22T12:39:29Z</time>
      </trkpt>
      <trkpt lat="41.065050" lon="-3.726467">
        <ele>2296.0</ele>
        <time>2018-07-22T12:39:30Z</time>
      </trkpt>
      <trkpt lat="41.065050" lon="-3.726533">
        <ele>2297.0</ele>
        <time>2018-07-22T12:39:31Z</time>
      </trkpt>
      <trkpt lat="41.065033" lon="-3.726617">
        <ele>2298.0</ele>
        <time>2018-07-22T12:39:32Z</time>
      </trkpt>
      <trkpt lat="41.065017" lon="-3.726700">
        <ele>2298.0</ele>
        <time>2018-07-22T12:39:33Z</time>
      </trkpt>
      <trkpt lat="41.065017" lon="-3.726800">
        <ele>2299.0</ele>
        <time>2018-07-22T12:39:34Z</time>
      </trkpt>
      <trkpt lat="41.065017" lon="-3.726900">
        <ele>2299.0</ele>
        <time>2018-07-22T12:39:35Z</time>
      </trkpt>
      <trkpt lat="41.065033" lon="-3.726983">
        <ele>2301.0</ele>
        <time>2018-07-22T12:39:36Z</time>
      </trkpt>
      <trkpt lat="41.065050" lon="-3.727067">
        <ele>2302.0</ele>
        <time>2018-07-22T12:39:37Z</time>
      </trkpt>
      <trkpt lat="41.065083" lon="-3.727150">
        <ele>2302.0</ele>
        <time>2018-07-22T12:39:38Z</time>
      </trkpt>
      <trkpt lat="41.065117" lon="-3.727233">
        <ele>2302.0</ele>
        <time>2018-07-22T12:39:39Z</time>
      </trkpt>
      <trkpt lat="41.065150" lon="-3.727317">
        <ele>2303.0</ele>
        <time>2018-07-22T12:39:40Z</time>
      </trkpt>
      <trkpt lat="41.065183" lon="-3.727400">
        <ele>2304.0</ele>
        <time>2018-07-22T12:39:41Z</time>
      </trkpt>
      <trkpt lat="41.065217" lon="-3.727467">
        <ele>2304.0</ele>
        <time>2018-07-22T12:39:42Z</time>
      </trkpt>
      <trkpt lat="41.065250" lon="-3.727517">
        <ele>2304.0</ele>
        <time>2018-07-22T12:39:43Z</time>
      </trkpt>
      <trkpt lat="41.065283" lon="-3.727583">
        <ele>2303.0</ele>
        <time>2018-07-22T12:39:44Z</time>
      </trkpt>
      <trkpt lat="41.065333" lon="-3.727650">
        <ele>2301.0</ele>
        <time>2018-07-22T12:39:45Z</time>
      </trkpt>
      <trkpt lat="41.065383" lon="-3.727717">
        <ele>2300.0</ele>
        <time>2018-07-22T12:39:46Z</time>
      </trkpt>
      <trkpt lat="41.065433" lon="-3.727800">
        <ele>2300.0</ele>
        <time>2018-07-22T12:39:47Z</time>
      </trkpt>
      <trkpt lat="41.065483" lon="-3.727850">
        <ele>2301.0</ele>
        <time>2018-07-22T12:39:48Z</time>
      </trkpt>
      <trkpt lat="41.065517" lon="-3.727917">
        <ele>2301.0</ele>
        <time>2018-07-22T12:39:49Z</time>
      </trkpt>
      <trkpt lat="41.065550" lon="-3.727983">
        <ele>2301.0</ele>
        <time>2018-07-22T12:39:50Z</time>
      </trkpt>
      <trkpt lat="41.065583" lon="-3.728050">
        <ele>2300.0</ele>
        <time>2018-07-22T12:39:51Z</time>
      </trkpt>
      <trkpt lat="41.065617" lon="-3.728117">
        <ele>2299.0</ele>
        <time>2018-07-22T12:39:52Z</time>
      </trkpt>
      <trkpt lat="41.065667" lon="-3.728183">
        <ele>2298.0</ele>
        <time>2018-07-22T12:39:53Z</time>
      </trkpt>
      <trkpt lat="41.065717" lon="-3.728267">
        <ele>2297.0</ele>
        <time>2018-07-22T12:39:54Z</time>
      </trkpt>
      <trkpt lat="41.065750" lon="-3.728333">
        <ele>2296.0</ele>
        <time>2018-07-22T12:39:55Z</time>
      </trkpt>
      <trkpt lat="41.065783" lon="-3.728400">
        <ele>2296.0</ele>
        <time>2018-07-22T12:39:56Z</time>
      </trkpt>
      <trkpt lat="41.065817" lon="-3.728483">
        <ele>2295.0</ele>
        <time>2018-07-22T12:39:57Z</time>
      </trkpt>
      <trkpt lat="41.065833" lon="-3.728567">
        <ele>2294.0</ele>
        <time>2018-07-22T12:39:58Z</time>
      </trkpt>
      <trkpt lat="41.065850" lon="-3.728667">
        <ele>2293.0</ele>
        <time>2018-07-22T12:39:59Z</time>
      </trkpt>
      <trkpt lat="41.065867" lon="-3.728767">
        <ele>2292.0</ele>
        <time>2018-07-22T12:40:00Z</time>
      </trkpt>
      <trkpt lat="41.065883" lon="-3.728867">
        <ele>2292.0</ele>
        <time>2018-07-22T12:40:01Z</time>
      </trkpt>
      <trkpt lat="41.065900" lon="-3.728967">
        <ele>2292.0</ele>
        <time>2018-07-22T12:40:02Z</time>
      </trkpt>
      <trkpt lat="41.065917" lon="-3.729050">
        <ele>2291.0</ele>
        <time>2018-07-22T12:40:03Z</time>
      </trkpt>
      <trkpt lat="41.065933" lon="-3.729150">
        <ele>2290.0</ele>
        <time>2018-07-22T12:40:04Z</time>
      </trkpt>
      <trkpt lat="41.065933" lon="-3.729250">
        <ele>2288.0</ele>
        <time>2018-07-22T12:40:05Z</time>
      </trkpt>
      <trkpt lat="41.065950" lon="-3.729367">
        <ele>2285.0</ele>
        <time>2018-07-22T12:40:06Z</time>
      </trkpt>
      <trkpt lat="41.065950" lon="-3.729483">
        <ele>2284.0</ele>
        <time>2018-07-22T12:40:07Z</time>
      </trkpt>
      <trkpt lat="41.065950" lon="-3.729600">
        <ele>2283.0</ele>
        <time>2018-07-22T12:40:08Z</time>
      </trkpt>
      <trkpt lat="41.065950" lon="-3.729700">
        <ele>2282.0</ele>
        <time>2018-07-22T12:40:09Z</time>
      </trkpt>
      <trkpt lat="41.065967" lon="-3.729783">
        <ele>2280.0</ele>
        <time>2018-07-22T12:40:10Z</time>
      </trkpt>
      <trkpt lat="41.065983" lon="-3.729850">
        <ele>2278.0</ele>
        <time>2018-07-22T12:40:11Z</time>
      </trkpt>
      <trkpt lat="41.066000" lon="-3.729933">
        <ele>2275.0</ele>
        <time>2018-07-22T12:40:12Z</time>
      </trkpt>
      <trkpt lat="41.066017" lon="-3.730017">
        <ele>2273.0</ele>
        <time>2018-07-22T12:40:13Z</time>
      </trkpt>
      <trkpt lat="41.066033" lon="-3.730117">
        <ele>2270.0</ele>
        <time>2018-07-22T12:40:14Z</time>
      </trkpt>
      <trkpt lat="41.066067" lon="-3.730200">
        <ele>2267.0</ele>
        <time>2018-07-22T12:40:15Z</time>
      </trkpt>
      <trkpt lat="41.066117" lon="-3.730267">
        <ele>2264.0</ele>
        <time>2018-07-22T12:40:16Z</time>
      </trkpt>
      <trkpt lat="41.066183" lon="-3.730317">
        <ele>2260.0</ele>
        <time>2018-07-22T12:40:17Z</time>
      </trkpt>
      <trkpt lat="41.066283" lon="-3.730317">
        <ele>2258.0</ele>
        <time>2018-07-22T12:40:18Z</time>
      </trkpt>
      <trkpt lat="41.066367" lon="-3.730300">
        <ele>2256.0</ele>
        <time>2018-07-22T12:40:19Z</time>
      </trkpt>
      <trkpt lat="41.066450" lon="-3.730283">
        <ele>2254.0</ele>
        <time>2018-07-22T12:40:20Z</time>
      </trkpt>
      <trkpt lat="41.066533" lon="-3.730233">
        <ele>2252.0</ele>
        <time>2018-07-22T12:40:21Z</time>
      </trkpt>
      <trkpt lat="41.066600" lon="-3.730150">
        <ele>2250.0</ele>
        <time>2018-07-22T12:40:22Z</time>
      </trkpt>
      <trkpt lat="41.066683" lon="-3.730050">
        <ele>2248.0</ele>
        <time>2018-07-22T12:40:23Z</time>
      </trkpt>
      <trkpt lat="41.066750" lon="-3.729933">
        <ele>2247.0</ele>
        <time>2018-07-22T12:40:24Z</time>
      </trkpt>
      <trkpt lat="41.066817" lon="-3.729817">
        <ele>2246.0</ele>
        <time>2018-07-22T12:40:25Z</time>
      </trkpt>
      <trkpt lat="41.066867" lon="-3.729700">
        <ele>2245.0</ele>
        <time>2018-07-22T12:40:26Z</time>
      </trkpt>
      <trkpt lat="41.066917" lon="-3.729583">
        <ele>2243.0</ele>
        <time>2018-07-22T12:40:27Z</time>
      </trkpt>
      <trkpt lat="41.066950" lon="-3.729467">
        <ele>2240.0</ele>
        <time>2018-07-22T12:40:28Z</time>
      </trkpt>
      <trkpt lat="41.066983" lon="-3.729333">
        <ele>2237.0</ele>
        <time>2018-07-22T12:40:29Z</time>
      </trkpt>
      <trkpt lat="41.067033" lon="-3.729200">
        <ele>2233.0</ele>
        <time>2018-07-22T12:40:30Z</time>
      </trkpt>
      <trkpt lat="41.067083" lon="-3.729083">
        <ele>2229.0</ele>
        <time>2018-07-22T12:40:31Z</time>
      </trkpt>
      <trkpt lat="41.067133" lon="-3.728950">
        <ele>2227.0</ele>
        <time>2018-07-22T12:40:32Z</time>
      </trkpt>
      <trkpt lat="41.067183" lon="-3.728817">
        <ele>2224.0</ele>
        <time>2018-07-22T12:40:33Z</time>
      </trkpt>
      <trkpt lat="41.067233" lon="-3.728700">
        <ele>2223.0</ele>
        <time>2018-07-22T12:40:34Z</time>
      </trkpt>
      <trkpt lat="41.067300" lon="-3.728600">
        <ele>2221.0</ele>
        <time>2018-07-22T12:40:35Z</time>
      </trkpt>
      <trkpt lat="41.067350" lon="-3.728517">
        <ele>2220.0</ele>
        <time>2018-07-22T12:40:36Z</time>
      </trkpt>
      <trkpt lat="41.067417" lon="-3.728433">
        <ele>2219.0</ele>
        <time>2018-07-22T12:40:37Z</time>
      </trkpt>
      <trkpt lat="41.067483" lon="-3.728333">
        <ele>2216.0</ele>
        <time>2018-07-22T12:40:38Z</time>
      </trkpt>
      <trkpt lat="41.067550" lon="-3.728217">
        <ele>2214.0</ele>
        <time>2018-07-22T12:40:39Z</time>
      </trkpt>
      <trkpt lat="41.067600" lon="-3.728100">
        <ele>2213.0</ele>
        <time>2018-07-22T12:40:40Z</time>
      </trkpt>
      <trkpt lat="41.067667" lon="-3.728000">
        <ele>2212.0</ele>
        <time>2018-07-22T12:40:41Z</time>
      </trkpt>
      <trkpt lat="41.067717" lon="-3.727900">
        <ele>2211.0</ele>
        <time>2018-07-22T12:40:42Z</time>
      </trkpt>
      <trkpt lat="41.067750" lon="-3.727817">
        <ele>2209.0</ele>
        <time>2018-07-22T12:40:43Z</time>
      </trkpt>
      <trkpt lat="41.067817" lon="-3.727717">
        <ele>2208.0</ele>
        <time>2018-07-22T12:40:44Z</time>
      </trkpt>
      <trkpt lat="41.067867" lon="-3.727617">
        <ele>2207.0</ele>
        <time>2018-07-22T12:40:45Z</time>
      </trkpt>
      <trkpt lat="41.067933" lon="-3.727517">
        <ele>2206.0</ele>
        <time>2018-07-22T12:40:46Z</time>
      </trkpt>
      <trkpt lat="41.068000" lon="-3.727433">
        <ele>2206.0</ele>
        <time>2018-07-22T12:40:47Z</time>
      </trkpt>
      <trkpt lat="41.068050" lon="-3.727333">
        <ele>2207.0</ele>
        <time>2018-07-22T12:40:48Z</time>
      </trkpt>
      <trkpt lat="41.068100" lon="-3.727233">
        <ele>2207.0</ele>
        <time>2018-07-22T12:40:49Z</time>
      </trkpt>
      <trkpt lat="41.068167" lon="-3.727133">
        <ele>2206.0</ele>
        <time>2018-07-22T12:40:50Z</time>
      </trkpt>
      <trkpt lat="41.068217" lon="-3.727033">
        <ele>2207.0</ele>
        <time>2018-07-22T12:40:51Z</time>
      </trkpt>
      <trkpt lat="41.068267" lon="-3.726933">
        <ele>2207.0</ele>
        <time>2018-07-22T12:40:52Z</time>
      </trkpt>
      <trkpt lat="41.068317" lon="-3.726850">
        <ele>2207.0</ele>
        <time>2018-07-22T12:40:53Z</time>
      </trkpt>
      <trkpt lat="41.068367" lon="-3.726750">
        <ele>2207.0</ele>
        <time>2018-07-22T12:40:54Z</time>
      </trkpt>
      <trkpt lat="41.068417" lon="-3.726650">
        <ele>2207.0</ele>
        <time>2018-07-22T12:40:55Z</time>
      </trkpt>
      <trkpt lat="41.068483" lon="-3.726533">
        <ele>2206.0</ele>
        <time>2018-07-22T12:40:56Z</time>
      </trkpt>
      <trkpt lat="41.068533" lon="-3.726400">
        <ele>2205.0</ele>
        <time>2018-07-22T12:40:57Z</time>
      </trkpt>
      <trkpt lat="41.068600" lon="-3.726283">
        <ele>2206.0</ele>
        <time>2018-07-22T12:40:58Z</time>
      </trkpt>
      <trkpt lat="41.068650" lon="-3.726167">
        <ele>2206.0</ele>
        <time>2018-07-22T12:40:59Z</time>
      </trkpt>
      <trkpt lat="41.068667" lon="-3.726067">
        <ele>2206.0</ele>
        <time>2018-07-22T12:41:00Z</time>
      </trkpt>
      <trkpt lat="41.068683" lon="-3.725950">
        <ele>2205.0</ele>
        <time>2018-07-22T12:41:01Z</time>
      </trkpt>
      <trkpt lat="41.068733" lon="-3.725833">
        <ele>2202.0</ele>
        <time>2018-07-22T12:41:02Z</time>
      </trkpt>
      <trkpt lat="41.068767" lon="-3.725700">
        <ele>2199.0</ele>
        <time>2018-07-22T12:41:03Z</time>
      </trkpt>
      <trkpt lat="41.068833" lon="-3.725583">
        <ele>2197.0</ele>
        <time>2018-07-22T12:41:04Z</time>
      </trkpt>
      <trkpt lat="41.068883" lon="-3.725450">
        <ele>2195.0</ele>
        <time>2018-07-22T12:41:05Z</time>
      </trkpt>
      <trkpt lat="41.068950" lon="-3.725317">
        <ele>2194.0</ele>
        <time>2018-07-22T12:41:06Z</time>
      </trkpt>
      <trkpt lat="41.068983" lon="-3.725183">
        <ele>2194.0</ele>
        <time>2018-07-22T12:41:07Z</time>
      </trkpt>
      <trkpt lat="41.069033" lon="-3.725050">
        <ele>2193.0</ele>
        <time>2018-07-22T12:41:08Z</time>
      </trkpt>
      <trkpt lat="41.069083" lon="-3.724933">
        <ele>2193.0</ele>
        <time>2018-07-22T12:41:09Z</time>
      </trkpt>
      <trkpt lat="41.069133" lon="-3.724817">
        <ele>2192.0</ele>
        <time>2018-07-22T12:41:10Z</time>
      </trkpt>
      <trkpt lat="41.069183" lon="-3.724700">
        <ele>2191.0</ele>
        <time>2018-07-22T12:41:11Z</time>
      </trkpt>
      <trkpt lat="41.069217" lon="-3.724567">
        <ele>2190.0</ele>
        <time>2018-07-22T12:41:12Z</time>
      </trkpt>
      <trkpt lat="41.069283" lon="-3.724450">
        <ele>2189.0</ele>
        <time>2018-07-22T12:41:13Z</time>
      </trkpt>
      <trkpt lat="41.069333" lon="-3.724317">
        <ele>2187.0</ele>
        <time>2018-07-22T12:41:14Z</time>
      </trkpt>
      <trkpt lat="41.069400" lon="-3.724200">
        <ele>2186.0</ele>
        <time>2018-07-22T12:41:15Z</time>
      </trkpt>
      <trkpt lat="41.069450" lon="-3.724083">
        <ele>2186.0</ele>
        <time>2018-07-22T12:41:16Z</time>
      </trkpt>
      <trkpt lat="41.069517" lon="-3.723983">
        <ele>2184.0</ele>
        <time>2018-07-22T12:41:17Z</time>
      </trkpt>
      <trkpt lat="41.069567" lon="-3.723867">
        <ele>2183.0</ele>
        <time>2018-07-22T12:41:18Z</time>
      </trkpt>
      <trkpt lat="41.069633" lon="-3.723733">
        <ele>2180.0</ele>
        <time>2018-07-22T12:41:19Z</time>
      </trkpt>
      <trkpt lat="41.069700" lon="-3.723600">
        <ele>2179.0</ele>
        <time>2018-07-22T12:41:20Z</time>
      </trkpt>
      <trkpt lat="41.069767" lon="-3.723483">
        <ele>2177.0</ele>
        <time>2018-07-22T12:41:21Z</time>
      </trkpt>
      <trkpt lat="41.069833" lon="-3.723350">
        <ele>2176.0</ele>
        <time>2018-07-22T12:41:22Z</time>
      </trkpt>
      <trkpt lat="41.069900" lon="-3.723233">
        <ele>2173.0</ele>
        <time>2018-07-22T12:41:23Z</time>
      </trkpt>
      <trkpt lat="41.069983" lon="-3.723100">
        <ele>2170.0</ele>
        <time>2018-07-22T12:41:24Z</time>
      </trkpt>
      <trkpt lat="41.070050" lon="-3.722967">
        <ele>2167.0</ele>
        <time>2018-07-22T12:41:25Z</time>
      </trkpt>
      <trkpt lat="41.070117" lon="-3.722833">
        <ele>2164.0</ele>
        <time>2018-07-22T12:41:26Z</time>
      </trkpt>
      <trkpt lat="41.070200" lon="-3.722717">
        <ele>2162.0</ele>
        <time>2018-07-22T12:41:27Z</time>
      </trkpt>
      <trkpt lat="41.070267" lon="-3.722583">
        <ele>2159.0</ele>
        <time>2018-07-22T12:41:28Z</time>
      </trkpt>
      <trkpt lat="41.070350" lon="-3.722467">
        <ele>2156.0</ele>
        <time>2018-07-22T12:41:29Z</time>
      </trkpt>
      <trkpt lat="41.070433" lon="-3.722350">
        <ele>2154.0</ele>
        <time>2018-07-22T12:41:30Z</time>
      </trkpt>
      <trkpt lat="41.070517" lon="-3.722250">
        <ele>2153.0</ele>
        <time>2018-07-22T12:41:31Z</time>
      </trkpt>
      <trkpt lat="41.070583" lon="-3.722133">
        <ele>2152.0</ele>
        <time>2018-07-22T12:41:32Z</time>
      </trkpt>
      <trkpt lat="41.070650" lon="-3.722017">
        <ele>2151.0</ele>
        <time>2018-07-22T12:41:33Z</time>
      </trkpt>
      <trkpt lat="41.070733" lon="-3.721917">
        <ele>2150.0</ele>
        <time>2018-07-22T12:41:34Z</time>
      </trkpt>
      <trkpt lat="41.070800" lon="-3.721800">
        <ele>2150.0</ele>
        <time>2018-07-22T12:41:35Z</time>
      </trkpt>
      <trkpt lat="41.070867" lon="-3.721700">
        <ele>2151.0</ele>
        <time>2018-07-22T12:41:36Z</time>
      </trkpt>
      <trkpt lat="41.070933" lon="-3.721583">
        <ele>2151.0</ele>
        <time>2018-07-22T12:41:37Z</time>
      </trkpt>
      <trkpt lat="41.070983" lon="-3.721467">
        <ele>2152.0</ele>
        <time>2018-07-22T12:41:38Z</time>
      </trkpt>
      <trkpt lat="41.071017" lon="-3.721350">
        <ele>2153.0</ele>
        <time>2018-07-22T12:41:39Z</time>
      </trkpt>
      <trkpt lat="41.071067" lon="-3.721250">
        <ele>2152.0</ele>
        <time>2018-07-22T12:41:40Z</time>
      </trkpt>
      <trkpt lat="41.071117" lon="-3.721150">
        <ele>2152.0</ele>
        <time>2018-07-22T12:41:41Z</time>
      </trkpt>
      <trkpt lat="41.071167" lon="-3.721033">
        <ele>2153.0</ele>
        <time>2018-07-22T12:41:42Z</time>
      </trkpt>
      <trkpt lat="41.071217" lon="-3.720917">
        <ele>2153.0</ele>
        <time>2018-07-22T12:41:43Z</time>
      </trkpt>
      <trkpt lat="41.071267" lon="-3.720833">
        <ele>2154.0</ele>
        <time>2018-07-22T12:41:44Z</time>
      </trkpt>
      <trkpt lat="41.071333" lon="-3.720750">
        <ele>2154.0</ele>
        <time>2018-07-22T12:41:45Z</time>
      </trkpt>
      <trkpt lat="41.071383" lon="-3.720683">
        <ele>2153.0</ele>
        <time>2018-07-22T12:41:46Z</time>
      </trkpt>
      <trkpt lat="41.071433" lon="-3.720617">
        <ele>2152.0</ele>
        <time>2018-07-22T12:41:47Z</time>
      </trkpt>
      <trkpt lat="41.071500" lon="-3.720550">
        <ele>2151.0</ele>
        <time>2018-07-22T12:41:48Z</time>
      </trkpt>
      <trkpt lat="41.071533" lon="-3.720467">
        <ele>2148.0</ele>
        <time>2018-07-22T12:41:49Z</time>
      </trkpt>
      <trkpt lat="41.071583" lon="-3.720350">
        <ele>2146.0</ele>
        <time>2018-07-22T12:41:50Z</time>
      </trkpt>
      <trkpt lat="41.071617" lon="-3.720250">
        <ele>2143.0</ele>
        <time>2018-07-22T12:41:51Z</time>
      </trkpt>
      <trkpt lat="41.071650" lon="-3.720133">
        <ele>2141.0</ele>
        <time>2018-07-22T12:41:52Z</time>
      </trkpt>
      <trkpt lat="41.071700" lon="-3.720033">
        <ele>2138.0</ele>
        <time>2018-07-22T12:41:53Z</time>
      </trkpt>
      <trkpt lat="41.071733" lon="-3.719917">
        <ele>2135.0</ele>
        <time>2018-07-22T12:41:54Z</time>
      </trkpt>
      <trkpt lat="41.071783" lon="-3.719817">
        <ele>2131.0</ele>
        <time>2018-07-22T12:41:55Z</time>
      </trkpt>
      <trkpt lat="41.071817" lon="-3.719717">
        <ele>2127.0</ele>
        <time>2018-07-22T12:41:56Z</time>
      </trkpt>
      <trkpt lat="41.071867" lon="-3.719617">
        <ele>2123.0</ele>
        <time>2018-07-22T12:41:57Z</time>
      </trkpt>
      <trkpt lat="41.071917" lon="-3.719517">
        <ele>2118.0</ele>
        <time>2018-07-22T12:41:58Z</time>
      </trkpt>
      <trkpt lat="41.071967" lon="-3.719400">
        <ele>2115.0</ele>
        <time>2018-07-22T12:41:59Z</time>
      </trkpt>
      <trkpt lat="41.072017" lon="-3.719300">
        <ele>2112.0</ele>
        <time>2018-07-22T12:42:00Z</time>
      </trkpt>
      <trkpt lat="41.072083" lon="-3.719200">
        <ele>2109.0</ele>
        <time>2018-07-22T12:42:01Z</time>
      </trkpt>
      <trkpt lat="41.072133" lon="-3.719117">
        <ele>2105.0</ele>
        <time>2018-07-22T12:42:02Z</time>
      </trkpt>
      <trkpt lat="41.072183" lon="-3.719017">
        <ele>2102.0</ele>
        <time>2018-07-22T12:42:03Z</time>
      </trkpt>
      <trkpt lat="41.072233" lon="-3.718917">
        <ele>2099.0</ele>
        <time>2018-07-22T12:42:04Z</time>
      </trkpt>
      <trkpt lat="41.072300" lon="-3.718817">
        <ele>2095.0</ele>
        <time>2018-07-22T12:42:05Z</time>
      </trkpt>
      <trkpt lat="41.072367" lon="-3.718733">
        <ele>2093.0</ele>
        <time>2018-07-22T12:42:06Z</time>
      </trkpt>
      <trkpt lat="41.072433" lon="-3.718633">
        <ele>2091.0</ele>
        <time>2018-07-22T12:42:07Z</time>
      </trkpt>
      <trkpt lat="41.072517" lon="-3.718550">
        <ele>2088.0</ele>
        <time>2018-07-22T12:42:08Z</time>
      </trkpt>
      <trkpt lat="41.072583" lon="-3.718450">
        <ele>2085.0</ele>
        <time>2018-07-22T12:42:09Z</time>
      </trkpt>
      <trkpt lat="41.072650" lon="-3.718350">
        <ele>2080.0</ele>
        <time>2018-07-22T12:42:10Z</time>
      </trkpt>
      <trkpt lat="41.072700" lon="-3.718250">
        <ele>2076.0</ele>
        <time>2018-07-22T12:42:11Z</time>
      </trkpt>
      <trkpt lat="41.072767" lon="-3.718150">
        <ele>2072.0</ele>
        <time>2018-07-22T12:42:12Z</time>
      </trkpt>
      <trkpt lat="41.072833" lon="-3.718033">
        <ele>2067.0</ele>
        <time>2018-07-22T12:42:13Z</time>
      </trkpt>
      <trkpt lat="41.072900" lon="-3.717917">
        <ele>2063.0</ele>
        <time>2018-07-22T12:42:14Z</time>
      </trkpt>
      <trkpt lat="41.072967" lon="-3.717783">
        <ele>2060.0</ele>
        <time>2018-07-22T12:42:15Z</time>
      </trkpt>
      <trkpt lat="41.073050" lon="-3.717667">
        <ele>2058.0</ele>
        <time>2018-07-22T12:42:16Z</time>
      </trkpt>
      <trkpt lat="41.073133" lon="-3.717550">
        <ele>2057.0</ele>
        <time>2018-07-22T12:42:17Z</time>
      </trkpt>
      <trkpt lat="41.073217" lon="-3.717450">
        <ele>2056.0</ele>
        <time>2018-07-22T12:42:18Z</time>
      </trkpt>
      <trkpt lat="41.073300" lon="-3.717350">
        <ele>2057.0</ele>
        <time>2018-07-22T12:42:19Z</time>
      </trkpt>
      <trkpt lat="41.073367" lon="-3.717267">
        <ele>2059.0</ele>
        <time>2018-07-22T12:42:20Z</time>
      </trkpt>
      <trkpt lat="41.073433" lon="-3.717200">
        <ele>2060.0</ele>
        <time>2018-07-22T12:42:21Z</time>
      </trkpt>
      <trkpt lat="41.073467" lon="-3.717133">
        <ele>2060.0</ele>
        <time>2018-07-22T12:42:22Z</time>
      </trkpt>
      <trkpt lat="41.073517" lon="-3.717083">
        <ele>2057.0</ele>
        <time>2018-07-22T12:42:23Z</time>
      </trkpt>
      <trkpt lat="41.073567" lon="-3.717033">
        <ele>2053.0</ele>
        <time>2018-07-22T12:42:24Z</time>
      </trkpt>
      <trkpt lat="41.073617" lon="-3.716967">
        <ele>2048.0</ele>
        <time>2018-07-22T12:42:25Z</time>
      </trkpt>
      <trkpt lat="41.073683" lon="-3.716867">
        <ele>2043.0</ele>
        <time>2018-07-22T12:42:26Z</time>
      </trkpt>
      <trkpt lat="41.073733" lon="-3.716750">
        <ele>2038.0</ele>
        <time>2018-07-22T12:42:27Z</time>
      </trkpt>
      <trkpt lat="41.073767" lon="-3.716617">
        <ele>2034.0</ele>
        <time>2018-07-22T12:42:28Z</time>
      </trkpt>
      <trkpt lat="41.073800" lon="-3.716483">
        <ele>2031.0</ele>
        <time>2018-07-22T12:42:29Z</time>
      </trkpt>
      <trkpt lat="41.073833" lon="-3.716367">
        <ele>2029.0</ele>
        <time>2018-07-22T12:42:30Z</time>
      </trkpt>
      <trkpt lat="41.073867" lon="-3.716250">
        <ele>2027.0</ele>
        <time>2018-07-22T12:42:31Z</time>
      </trkpt>
      <trkpt lat="41.073917" lon="-3.716150">
        <ele>2024.0</ele>
        <time>2018-07-22T12:42:32Z</time>
      </trkpt>
      <trkpt lat="41.073967" lon="-3.716033">
        <ele>2020.0</ele>
        <time>2018-07-22T12:42:33Z</time>
      </trkpt>
      <trkpt lat="41.074033" lon="-3.715917">
        <ele>2017.0</ele>
        <time>2018-07-22T12:42:34Z</time>
      </trkpt>
      <trkpt lat="41.074100" lon="-3.715817">
        <ele>2014.0</ele>
        <time>2018-07-22T12:42:35Z</time>
      </trkpt>
      <trkpt lat="41.074150" lon="-3.715700">
        <ele>2012.0</ele>
        <time>2018-07-22T12:42:36Z</time>
      </trkpt>
      <trkpt lat="41.074233" lon="-3.715600">
        <ele>2010.0</ele>
        <time>2018-07-22T12:42:37Z</time>
      </trkpt>
      <trkpt lat="41.074300" lon="-3.715483">
        <ele>2009.0</ele>
        <time>2018-07-22T12:42:38Z</time>
      </trkpt>
      <trkpt lat="41.074383" lon="-3.715367">
        <ele>2008.0</ele>
        <time>2018-07-22T12:42:39Z</time>
      </trkpt>
      <trkpt lat="41.074450" lon="-3.715233">
        <ele>2008.0</ele>
        <time>2018-07-22T12:42:40Z</time>
      </trkpt>
      <trkpt lat="41.074533" lon="-3.715133">
        <ele>2008.0</ele>
        <time>2018-07-22T12:42:41Z</time>
      </trkpt>
      <trkpt lat="41.074600" lon="-3.715017">
        <ele>2007.0</ele>
        <time>2018-07-22T12:42:42Z</time>
      </trkpt>
      <trkpt lat="41.074667" lon="-3.714900">
        <ele>2007.0</ele>
        <time>2018-07-22T12:42:43Z</time>
      </trkpt>
      <trkpt lat="41.074750" lon="-3.714783">
        <ele>2007.0</ele>
        <time>2018-07-22T12:42:44Z</time>
      </trkpt>
      <trkpt lat="41.074817" lon="-3.714683">
        <ele>2006.0</ele>
        <time>2018-07-22T12:42:45Z</time>
      </trkpt>
      <trkpt lat="41.074883" lon="-3.714567">
        <ele>2006.0</ele>
        <time>2018-07-22T12:42:46Z</time>
      </trkpt>
      <trkpt lat="41.074933" lon="-3.714467">
        <ele>2006.0</ele>
        <time>2018-07-22T12:42:47Z</time>
      </trkpt>
      <trkpt lat="41.074983" lon="-3.714350">
        <ele>2006.0</ele>
        <time>2018-07-22T12:42:48Z</time>
      </trkpt>
      <trkpt lat="41.075033" lon="-3.714250">
        <ele>2005.0</ele>
        <time>2018-07-22T12:42:49Z</time>
      </trkpt>
      <trkpt lat="41.075100" lon="-3.714133">
        <ele>2005.0</ele>
        <time>2018-07-22T12:42:50Z</time>
      </trkpt>
      <trkpt lat="41.075150" lon="-3.714033">
        <ele>2005.0</ele>
        <time>2018-07-22T12:42:51Z</time>
      </trkpt>
      <trkpt lat="41.075217" lon="-3.713950">
        <ele>2006.0</ele>
        <time>2018-07-22T12:42:52Z</time>
      </trkpt>
      <trkpt lat="41.075283" lon="-3.713867">
        <ele>2007.0</ele>
        <time>2018-07-22T12:42:53Z</time>
      </trkpt>
      <trkpt lat="41.075333" lon="-3.713783">
        <ele>2007.0</ele>
        <time>2018-07-22T12:42:54Z</time>
      </trkpt>
      <trkpt lat="41.075383" lon="-3.713683">
        <ele>2007.0</ele>
        <time>2018-07-22T12:42:55Z</time>
      </trkpt>
      <trkpt lat="41.075433" lon="-3.713583">
        <ele>2006.0</ele>
        <time>2018-07-22T12:42:56Z</time>
      </trkpt>
      <trkpt lat="41.075483" lon="-3.713483">
        <ele>2005.0</ele>
        <time>2018-07-22T12:42:57Z</time>
      </trkpt>
      <trkpt lat="41.075533" lon="-3.713383">
        <ele>2005.0</ele>
        <time>2018-07-22T12:42:58Z</time>
      </trkpt>
      <trkpt lat="41.075600" lon="-3.713283">
        <ele>2005.0</ele>
        <time>2018-07-22T12:42:59Z</time>
      </trkpt>
      <trkpt lat="41.075667" lon="-3.713183">
        <ele>2004.0</ele>
        <time>2018-07-22T12:43:00Z</time>
      </trkpt>
      <trkpt lat="41.075733" lon="-3.713083">
        <ele>2004.0</ele>
        <time>2018-07-22T12:43:01Z</time>
      </trkpt>
      <trkpt lat="41.075817" lon="-3.712983">
        <ele>2005.0</ele>
        <time>2018-07-22T12:43:02Z</time>
      </trkpt>
      <trkpt lat="41.075900" lon="-3.712883">
        <ele>2006.0</ele>
        <time>2018-07-22T12:43:03Z</time>
      </trkpt>
      <trkpt lat="41.075983" lon="-3.712800">
        <ele>2007.0</ele>
        <time>2018-07-22T12:43:04Z</time>
      </trkpt>
      <trkpt lat="41.076067" lon="-3.712683">
        <ele>2009.0</ele>
        <time>2018-07-22T12:43:05Z</time>
      </trkpt>
      <trkpt lat="41.076117" lon="-3.712600">
        <ele>2009.0</ele>
        <time>2018-07-22T12:43:06Z</time>
      </trkpt>
      <trkpt lat="41.076183" lon="-3.712500">
        <ele>2009.0</ele>
        <time>2018-07-22T12:43:07Z</time>
      </trkpt>
      <trkpt lat="41.076250" lon="-3.712433">
        <ele>2007.0</ele>
        <time>2018-07-22T12:43:08Z</time>
      </trkpt>
      <trkpt lat="41.076300" lon="-3.712350">
        <ele>2004.0</ele>
        <time>2018-07-22T12:43:09Z</time>
      </trkpt>
      <trkpt lat="41.076367" lon="-3.712250">
        <ele>2001.0</ele>
        <time>2018-07-22T12:43:10Z</time>
      </trkpt>
      <trkpt lat="41.076417" lon="-3.712150">
        <ele>1998.0</ele>
        <time>2018-07-22T12:43:11Z</time>
      </trkpt>
      <trkpt lat="41.076467" lon="-3.712033">
        <ele>1996.0</ele>
        <time>2018-07-22T12:43:12Z</time>
      </trkpt>
      <trkpt lat="41.076500" lon="-3.711900">
        <ele>1994.0</ele>
        <time>2018-07-22T12:43:13Z</time>
      </trkpt>
      <trkpt lat="41.076550" lon="-3.711783">
        <ele>1992.0</ele>
        <time>2018-07-22T12:43:14Z</time>
      </trkpt>
      <trkpt lat="41.076600" lon="-3.711683">
        <ele>1990.0</ele>
        <time>2018-07-22T12:43:15Z</time>
      </trkpt>
      <trkpt lat="41.076633" lon="-3.711567">
        <ele>1988.0</ele>
        <time>2018-07-22T12:43:16Z</time>
      </trkpt>
      <trkpt lat="41.076633" lon="-3.711433">
        <ele>1985.0</ele>
        <time>2018-07-22T12:43:17Z</time>
      </trkpt>
      <trkpt lat="41.076617" lon="-3.711283">
        <ele>1983.0</ele>
        <time>2018-07-22T12:43:18Z</time>
      </trkpt>
      <trkpt lat="41.076567" lon="-3.711133">
        <ele>1980.0</ele>
        <time>2018-07-22T12:43:19Z</time>
      </trkpt>
      <trkpt lat="41.076467" lon="-3.711000">
        <ele>1977.0</ele>
        <time>2018-07-22T12:43:20Z</time>
      </trkpt>
      <trkpt lat="41.076350" lon="-3.710900">
        <ele>1975.0</ele>
        <time>2018-07-22T12:43:21Z</time>
      </trkpt>
      <trkpt lat="41.076200" lon="-3.710883">
        <ele>1973.0</ele>
        <time>2018-07-22T12:43:22Z</time>
      </trkpt>
      <trkpt lat="41.076083" lon="-3.710900">
        <ele>1971.0</ele>
        <time>2018-07-22T12:43:23Z</time>
      </trkpt>
      <trkpt lat="41.075983" lon="-3.710983">
        <ele>1969.0</ele>
        <time>2018-07-22T12:43:24Z</time>
      </trkpt>
      <trkpt lat="41.075900" lon="-3.711083">
        <ele>1969.0</ele>
        <time>2018-07-22T12:43:25Z</time>
      </trkpt>
      <trkpt lat="41.075850" lon="-3.711183">
        <ele>1969.0</ele>
        <time>2018-07-22T12:43:26Z</time>
      </trkpt>
      <trkpt lat="41.075817" lon="-3.711267">
        <ele>1969.0</ele>
        <time>2018-07-22T12:43:27Z</time>
      </trkpt>
      <trkpt lat="41.075767" lon="-3.711350">
        <ele>1968.0</ele>
        <time>2018-07-22T12:43:28Z</time>
      </trkpt>
      <trkpt lat="41.075717" lon="-3.711433">
        <ele>1967.0</ele>
        <time>2018-07-22T12:43:29Z</time>
      </trkpt>
      <trkpt lat="41.075683" lon="-3.711533">
        <ele>1964.0</ele>
        <time>2018-07-22T12:43:30Z</time>
      </trkpt>
      <trkpt lat="41.075650" lon="-3.711650">
        <ele>1962.0</ele>
        <time>2018-07-22T12:43:31Z</time>
      </trkpt>
      <trkpt lat="41.075617" lon="-3.711783">
        <ele>1959.0</ele>
        <time>2018-07-22T12:43:32Z</time>
      </trkpt>
      <trkpt lat="41.075583" lon="-3.711900">
        <ele>1958.0</ele>
        <time>2018-07-22T12:43:33Z</time>
      </trkpt>
      <trkpt lat="41.075550" lon="-3.712017">
        <ele>1957.0</ele>
        <time>2018-07-22T12:43:34Z</time>
      </trkpt>
      <trkpt lat="41.075500" lon="-3.712117">
        <ele>1956.0</ele>
        <time>2018-07-22T12:43:35Z</time>
      </trkpt>
      <trkpt lat="41.075450" lon="-3.712233">
        <ele>1955.0</ele>
        <time>2018-07-22T12:43:36Z</time>
      </trkpt>
      <trkpt lat="41.075400" lon="-3.712333">
        <ele>1953.0</ele>
        <time>2018-07-22T12:43:37Z</time>
      </trkpt>
      <trkpt lat="41.075367" lon="-3.712433">
        <ele>1953.0</ele>
        <time>2018-07-22T12:43:38Z</time>
      </trkpt>
      <trkpt lat="41.075333" lon="-3.712533">
        <ele>1953.0</ele>
        <time>2018-07-22T12:43:39Z</time>
      </trkpt>
      <trkpt lat="41.075300" lon="-3.712633">
        <ele>1953.0</ele>
        <time>2018-07-22T12:43:40Z</time>
      </trkpt>
      <trkpt lat="41.075267" lon="-3.712733">
        <ele>1953.0</ele>
        <time>2018-07-22T12:43:41Z</time>
      </trkpt>
      <trkpt lat="41.075233" lon="-3.712833">
        <ele>1953.0</ele>
        <time>2018-07-22T12:43:42Z</time>
      </trkpt>
      <trkpt lat="41.075200" lon="-3.712950">
        <ele>1952.0</ele>
        <time>2018-07-22T12:43:43Z</time>
      </trkpt>
      <trkpt lat="41.075167" lon="-3.713050">
        <ele>1952.0</ele>
        <time>2018-07-22T12:43:44Z</time>
      </trkpt>
      <trkpt lat="41.075117" lon="-3.713150">
        <ele>1953.0</ele>
        <time>2018-07-22T12:43:45Z</time>
      </trkpt>
      <trkpt lat="41.075083" lon="-3.713250">
        <ele>1954.0</ele>
        <time>2018-07-22T12:43:46Z</time>
      </trkpt>
      <trkpt lat="41.075050" lon="-3.713333">
        <ele>1954.0</ele>
        <time>2018-07-22T12:43:47Z</time>
      </trkpt>
      <trkpt lat="41.075017" lon="-3.713417">
        <ele>1953.0</ele>
        <time>2018-07-22T12:43:48Z</time>
      </trkpt>
      <trkpt lat="41.075000" lon="-3.713500">
        <ele>1951.0</ele>
        <time>2018-07-22T12:43:49Z</time>
      </trkpt>
      <trkpt lat="41.074950" lon="-3.713600">
        <ele>1949.0</ele>
        <time>2018-07-22T12:43:50Z</time>
      </trkpt>
      <trkpt lat="41.074900" lon="-3.713717">
        <ele>1947.0</ele>
        <time>2018-07-22T12:43:51Z</time>
      </trkpt>
      <trkpt lat="41.074850" lon="-3.713833">
        <ele>1947.0</ele>
        <time>2018-07-22T12:43:52Z</time>
      </trkpt>
      <trkpt lat="41.074800" lon="-3.713933">
        <ele>1949.0</ele>
        <time>2018-07-22T12:43:53Z</time>
      </trkpt>
      <trkpt lat="41.074783" lon="-3.714033">
        <ele>1951.0</ele>
        <time>2018-07-22T12:43:54Z</time>
      </trkpt>
      <trkpt lat="41.074750" lon="-3.714117">
        <ele>1952.0</ele>
        <time>2018-07-22T12:43:55Z</time>
      </trkpt>
      <trkpt lat="41.074717" lon="-3.714183">
        <ele>1952.0</ele>
        <time>2018-07-22T12:43:56Z</time>
      </trkpt>
      <trkpt lat="41.074650" lon="-3.714267">
        <ele>1951.0</ele>
        <time>2018-07-22T12:43:57Z</time>
      </trkpt>
      <trkpt lat="41.074600" lon="-3.714350">
        <ele>1950.0</ele>
        <time>2018-07-22T12:43:58Z</time>
      </trkpt>
      <trkpt lat="41.074550" lon="-3.714450">
        <ele>1949.0</ele>
        <time>2018-07-22T12:43:59Z</time>
      </trkpt>
      <trkpt lat="41.074517" lon="-3.714533">
        <ele>1949.0</ele>
        <time>2018-07-22T12:44:00Z</time>
      </trkpt>
      <trkpt lat="41.074467" lon="-3.714633">
        <ele>1948.0</ele>
        <time>2018-07-22T12:44:01Z</time>
      </trkpt>
      <trkpt lat="41.074417" lon="-3.714733">
        <ele>1947.0</ele>
        <time>2018-07-22T12:44:02Z</time>
      </trkpt>
      <trkpt lat="41.074383" lon="-3.714817">
        <ele>1946.0</ele>
        <time>2018-07-22T12:44:03Z</time>
      </trkpt>
      <trkpt lat="41.074367" lon="-3.714917">
        <ele>1945.0</ele>
        <time>2018-07-22T12:44:04Z</time>
      </trkpt>
      <trkpt lat="41.074333" lon="-3.715000">
        <ele>1944.0</ele>
        <time>2018-07-22T12:44:05Z</time>
      </trkpt>
      <trkpt lat="41.074300" lon="-3.715083">
        <ele>1944.0</ele>
        <time>2018-07-22T12:44:06Z</time>
      </trkpt>
      <trkpt lat="41.074250" lon="-3.715167">
        <ele>1942.0</ele>
        <time>2018-07-22T12:44:07Z</time>
      </trkpt>
      <trkpt lat="41.074200" lon="-3.715233">
        <ele>1940.0</ele>
        <time>2018-07-22T12:44:08Z</time>
      </trkpt>
      <trkpt lat="41.074150" lon="-3.715300">
        <ele>1938.0</ele>
        <time>2018-07-22T12:44:09Z</time>
      </trkpt>
      <trkpt lat="41.074117" lon="-3.715383">
        <ele>1936.0</ele>
        <time>2018-07-22T12:44:10Z</time>
      </trkpt>
      <trkpt lat="41.074067" lon="-3.715467">
        <ele>1934.0</ele>
        <time>2018-07-22T12:44:11Z</time>
      </trkpt>
      <trkpt lat="41.074017" lon="-3.715567">
        <ele>1933.0</ele>
        <time>2018-07-22T12:44:12Z</time>
      </trkpt>
      <trkpt lat="41.073967" lon="-3.715650">
        <ele>1932.0</ele>
        <time>2018-07-22T12:44:13Z</time>
      </trkpt>
      <trkpt lat="41.073917" lon="-3.715733">
        <ele>1931.0</ele>
        <time>2018-07-22T12:44:14Z</time>
      </trkpt>
      <trkpt lat="41.073850" lon="-3.715800">
        <ele>1930.0</ele>
        <time>2018-07-22T12:44:15Z</time>
      </trkpt>
      <trkpt lat="41.073783" lon="-3.715850">
        <ele>1929.0</ele>
        <time>2018-07-22T12:44:16Z</time>
      </trkpt>
      <trkpt lat="41.073733" lon="-3.715917">
        <ele>1928.0</ele>
        <time>2018-07-22T12:44:17Z</time>
      </trkpt>
      <trkpt lat="41.073700" lon="-3.715983">
        <ele>1925.0</ele>
        <time>2018-07-22T12:44:18Z</time>
      </trkpt>
      <trkpt lat="41.073633" lon="-3.716050">
        <ele>1923.0</ele>
        <time>2018-07-22T12:44:19Z</time>
      </trkpt>
      <trkpt lat="41.073583" lon="-3.716117">
        <ele>1920.0</ele>
        <time>2018-07-22T12:44:20Z</time>
      </trkpt>
      <trkpt lat="41.073517" lon="-3.716200">
        <ele>1917.0</ele>
        <time>2018-07-22T12:44:21Z</time>
      </trkpt>
      <trkpt lat="41.073450" lon="-3.716267">
        <ele>1915.0</ele>
        <time>2018-07-22T12:44:22Z</time>
      </trkpt>
      <trkpt lat="41.073367" lon="-3.716333">
        <ele>1912.0</ele>
        <time>2018-07-22T12:44:23Z</time>
      </trkpt>
      <trkpt lat="41.073317" lon="-3.716400">
        <ele>1910.0</ele>
        <time>2018-07-22T12:44:24Z</time>
      </trkpt>
      <trkpt lat="41.073250" lon="-3.716467">
        <ele>1907.0</ele>
        <time>2018-07-22T12:44:25Z</time>
      </trkpt>
      <trkpt lat="41.073183" lon="-3.716550">
        <ele>1904.0</ele>
        <time>2018-07-22T12:44:26Z</time>
      </trkpt>
      <trkpt lat="41.073100" lon="-3.716633">
        <ele>1900.0</ele>
        <time>2018-07-22T12:44:27Z</time>
      </trkpt>
      <trkpt lat="41.073033" lon="-3.716717">
        <ele>1898.0</ele>
        <time>2018-07-22T12:44:28Z</time>
      </trkpt>
      <trkpt lat="41.072933" lon="-3.716800">
        <ele>1897.0</ele>
        <time>2018-07-22T12:44:29Z</time>
      </trkpt>
      <trkpt lat="41.072850" lon="-3.716867">
        <ele>1897.0</ele>
        <time>2018-07-22T12:44:30Z</time>
      </trkpt>
      <trkpt lat="41.072767" lon="-3.716933">
        <ele>1896.0</ele>
        <time>2018-07-22T12:44:31Z</time>
      </trkpt>
      <trkpt lat="41.072683" lon="-3.717000">
        <ele>1896.0</ele>
        <time>2018-07-22T12:44:32Z</time>
      </trkpt>
      <trkpt lat="41.072600" lon="-3.717067">
        <ele>1895.0</ele>
        <time>2018-07-22T12:44:33Z</time>
      </trkpt>
      <trkpt lat="41.072517" lon="-3.717150">
        <ele>1893.0</ele>
        <time>2018-07-22T12:44:34Z</time>
      </trkpt>
      <trkpt lat="41.072433" lon="-3.717233">
        <ele>1892.0</ele>
        <time>2018-07-22T12:44:35Z</time>
      </trkpt>
      <trkpt lat="41.072350" lon="-3.717333">
        <ele>1890.0</ele>
        <time>2018-07-22T12:44:36Z</time>
      </trkpt>
      <trkpt lat="41.072267" lon="-3.717433">
        <ele>1890.0</ele>
        <time>2018-07-22T12:44:37Z</time>
      </trkpt>
      <trkpt lat="41.072183" lon="-3.717517">
        <ele>1890.0</ele>
        <time>2018-07-22T12:44:38Z</time>
      </trkpt>
      <trkpt lat="41.072117" lon="-3.717583">
        <ele>1889.0</ele>
        <time>2018-07-22T12:44:39Z</time>
      </trkpt>
      <trkpt lat="41.072033" lon="-3.717683">
        <ele>1887.0</ele>
        <time>2018-07-22T12:44:40Z</time>
      </trkpt>
      <trkpt lat="41.071967" lon="-3.717767">
        <ele>1886.0</ele>
        <time>2018-07-22T12:44:41Z</time>
      </trkpt>
      <trkpt lat="41.071883" lon="-3.717867">
        <ele>1885.0</ele>
        <time>2018-07-22T12:44:42Z</time>
      </trkpt>
      <trkpt lat="41.071800" lon="-3.717967">
        <ele>1885.0</ele>
        <time>2018-07-22T12:44:43Z</time>
      </trkpt>
      <trkpt lat="41.071733" lon="-3.718050">
        <ele>1885.0</ele>
        <time>2018-07-22T12:44:44Z</time>
      </trkpt>
      <trkpt lat="41.071667" lon="-3.718117">
        <ele>1885.0</ele>
        <time>2018-07-22T12:44:45Z</time>
      </trkpt>
      <trkpt lat="41.071600" lon="-3.718200">
        <ele>1885.0</ele>
        <time>2018-07-22T12:44:46Z</time>
      </trkpt>
      <trkpt lat="41.071517" lon="-3.718267">
        <ele>1883.0</ele>
        <time>2018-07-22T12:44:47Z</time>
      </trkpt>
      <trkpt lat="41.071417" lon="-3.718333">
        <ele>1882.0</ele>
        <time>2018-07-22T12:44:48Z</time>
      </trkpt>
      <trkpt lat="41.071333" lon="-3.718400">
        <ele>1881.0</ele>
        <time>2018-07-22T12:44:49Z</time>
      </trkpt>
      <trkpt lat="41.071233" lon="-3.718483">
        <ele>1880.0</ele>
        <time>2018-07-22T12:44:50Z</time>
      </trkpt>
      <trkpt lat="41.071150" lon="-3.718583">
        <ele>1879.0</ele>
        <time>2018-07-22T12:44:51Z</time>
      </trkpt>
      <trkpt lat="41.071050" lon="-3.718683">
        <ele>1879.0</ele>
        <time>2018-07-22T12:44:52Z</time>
      </trkpt>
      <trkpt lat="41.070967" lon="-3.718783">
        <ele>1880.0</ele>
        <time>2018-07-22T12:44:53Z</time>
      </trkpt>
      <trkpt lat="41.070883" lon="-3.718867">
        <ele>1881.0</ele>
        <time>2018-07-22T12:44:54Z</time>
      </trkpt>
      <trkpt lat="41.070817" lon="-3.718933">
        <ele>1882.0</ele>
        <time>2018-07-22T12:44:55Z</time>
      </trkpt>
      <trkpt lat="41.070733" lon="-3.719000">
        <ele>1883.0</ele>
        <time>2018-07-22T12:44:56Z</time>
      </trkpt>
      <trkpt lat="41.070650" lon="-3.719067">
        <ele>1882.0</ele>
        <time>2018-07-22T12:44:57Z</time>
      </trkpt>
      <trkpt lat="41.070583" lon="-3.719133">
        <ele>1881.0</ele>
        <time>2018-07-22T12:44:58Z</time>
      </trkpt>
      <trkpt lat="41.070483" lon="-3.719217">
        <ele>1881.0</ele>
        <time>2018-07-22T12:44:59Z</time>
      </trkpt>
      <trkpt lat="41.070400" lon="-3.719317">
        <ele>1881.0</ele>
        <time>2018-07-22T12:45:00Z</time>
      </trkpt>
      <trkpt lat="41.070300" lon="-3.719383">
        <ele>1881.0</ele>
        <time>2018-07-22T12:45:01Z</time>
      </trkpt>
      <trkpt lat="41.070217" lon="-3.719450">
        <ele>1882.0</ele>
        <time>2018-07-22T12:45:02Z</time>
      </trkpt>
      <trkpt lat="41.070133" lon="-3.719500">
        <ele>1882.0</ele>
        <time>2018-07-22T12:45:03Z</time>
      </trkpt>
      <trkpt lat="41.070067" lon="-3.719567">
        <ele>1881.0</ele>
        <time>2018-07-22T12:45:04Z</time>
      </trkpt>
      <trkpt lat="41.069983" lon="-3.719633">
        <ele>1879.0</ele>
        <time>2018-07-22T12:45:05Z</time>
      </trkpt>
      <trkpt lat="41.069900" lon="-3.719717">
        <ele>1878.0</ele>
        <time>2018-07-22T12:45:06Z</time>
      </trkpt>
      <trkpt lat="41.069817" lon="-3.719800">
        <ele>1878.0</ele>
        <time>2018-07-22T12:45:07Z</time>
      </trkpt>
      <trkpt lat="41.069733" lon="-3.719900">
        <ele>1879.0</ele>
        <time>2018-07-22T12:45:08Z</time>
      </trkpt>
      <trkpt lat="41.069667" lon="-3.719983">
        <ele>1880.0</ele>
        <time>2018-07-22T12:45:09Z</time>
      </trkpt>
      <trkpt lat="41.069600" lon="-3.720050">
        <ele>1880.0</ele>
        <time>2018-07-22T12:45:10Z</time>
      </trkpt>
      <trkpt lat="41.069533" lon="-3.720150">
        <ele>1879.0</ele>
        <time>2018-07-22T12:45:11Z</time>
      </trkpt>
      <trkpt lat="41.069483" lon="-3.720250">
        <ele>1877.0</ele>
        <time>2018-07-22T12:45:12Z</time>
      </trkpt>
      <trkpt lat="41.069417" lon="-3.720350">
        <ele>1875.0</ele>
        <time>2018-07-22T12:45:13Z</time>
      </trkpt>
      <trkpt lat="41.069350" lon="-3.720483">
        <ele>1873.0</ele>
        <time>2018-07-22T12:45:14Z</time>
      </trkpt>
      <trkpt lat="41.069267" lon="-3.720600">
        <ele>1873.0</ele>
        <time>2018-07-22T12:45:15Z</time>
      </trkpt>
      <trkpt lat="41.069200" lon="-3.720717">
        <ele>1873.0</ele>
        <time>2018-07-22T12:45:16Z</time>
      </trkpt>
      <trkpt lat="41.069133" lon="-3.720833">
        <ele>1874.0</ele>
        <time>2018-07-22T12:45:17Z</time>
      </trkpt>
      <trkpt lat="41.069067" lon="-3.720933">
        <ele>1875.0</ele>
        <time>2018-07-22T12:45:18Z</time>
      </trkpt>
      <trkpt lat="41.069017" lon="-3.721033">
        <ele>1876.0</ele>
        <time>2018-07-22T12:45:19Z</time>
      </trkpt>
      <trkpt lat="41.068967" lon="-3.721150">
        <ele>1877.0</ele>
        <time>2018-07-22T12:45:20Z</time>
      </trkpt>
      <trkpt lat="41.068917" lon="-3.721250">
        <ele>1877.0</ele>
        <time>2018-07-22T12:45:21Z</time>
      </trkpt>
      <trkpt lat="41.068867" lon="-3.721350">
        <ele>1877.0</ele>
        <time>2018-07-22T12:45:22Z</time>
      </trkpt>
      <trkpt lat="41.068800" lon="-3.721450">
        <ele>1877.0</ele>
        <time>2018-07-22T12:45:23Z</time>
      </trkpt>
      <trkpt lat="41.068733" lon="-3.721550">
        <ele>1877.0</ele>
        <time>2018-07-22T12:45:24Z</time>
      </trkpt>
      <trkpt lat="41.068667" lon="-3.721650">
        <ele>1878.0</ele>
        <time>2018-07-22T12:45:25Z</time>
      </trkpt>
      <trkpt lat="41.068617" lon="-3.721767">
        <ele>1879.0</ele>
        <time>2018-07-22T12:45:26Z</time>
      </trkpt>
      <trkpt lat="41.068600" lon="-3.721883">
        <ele>1881.0</ele>
        <time>2018-07-22T12:45:27Z</time>
      </trkpt>
      <trkpt lat="41.068550" lon="-3.721983">
        <ele>1882.0</ele>
        <time>2018-07-22T12:45:28Z</time>
      </trkpt>
      <trkpt lat="41.068500" lon="-3.722067">
        <ele>1882.0</ele>
        <time>2018-07-22T12:45:29Z</time>
      </trkpt>
      <trkpt lat="41.068417" lon="-3.722150">
        <ele>1882.0</ele>
        <time>2018-07-22T12:45:30Z</time>
      </trkpt>
      <trkpt lat="41.068333" lon="-3.722233">
        <ele>1881.0</ele>
        <time>2018-07-22T12:45:31Z</time>
      </trkpt>
      <trkpt lat="41.068283" lon="-3.722350">
        <ele>1880.0</ele>
        <time>2018-07-22T12:45:32Z</time>
      </trkpt>
      <trkpt lat="41.068233" lon="-3.722450">
        <ele>1880.0</ele>
        <time>2018-07-22T12:45:33Z</time>
      </trkpt>
      <trkpt lat="41.068183" lon="-3.722550">
        <ele>1879.0</ele>
        <time>2018-07-22T12:45:34Z</time>
      </trkpt>
      <trkpt lat="41.068133" lon="-3.722650">
        <ele>1877.0</ele>
        <time>2018-07-22T12:45:35Z</time>
      </trkpt>
      <trkpt lat="41.068083" lon="-3.722750">
        <ele>1875.0</ele>
        <time>2018-07-22T12:45:36Z</time>
      </trkpt>
      <trkpt lat="41.068017" lon="-3.722867">
        <ele>1873.0</ele>
        <time>2018-07-22T12:45:37Z</time>
      </trkpt>
      <trkpt lat="41.067967" lon="-3.723017">
        <ele>1872.0</ele>
        <time>2018-07-22T12:45:38Z</time>
      </trkpt>
      <trkpt lat="41.067900" lon="-3.723150">
        <ele>1874.0</ele>
        <time>2018-07-22T12:45:39Z</time>
      </trkpt>
      <trkpt lat="41.067850" lon="-3.723267">
        <ele>1878.0</ele>
        <time>2018-07-22T12:45:40Z</time>
      </trkpt>
      <trkpt lat="41.067783" lon="-3.723350">
        <ele>1881.0</ele>
        <time>2018-07-22T12:45:41Z</time>
      </trkpt>
      <trkpt lat="41.067733" lon="-3.723417">
        <ele>1884.0</ele>
        <time>2018-07-22T12:45:42Z</time>
      </trkpt>
      <trkpt lat="41.067700" lon="-3.723483">
        <ele>1884.0</ele>
        <time>2018-07-22T12:45:43Z</time>
      </trkpt>
      <trkpt lat="41.067667" lon="-3.723567">
        <ele>1884.0</ele>
        <time>2018-07-22T12:45:44Z</time>
      </trkpt>
      <trkpt lat="41.067617" lon="-3.723667">
        <ele>1883.0</ele>
        <time>2018-07-22T12:45:45Z</time>
      </trkpt>
      <trkpt lat="41.067583" lon="-3.723767">
        <ele>1883.0</ele>
        <time>2018-07-22T12:45:46Z</time>
      </trkpt>
      <trkpt lat="41.067517" lon="-3.723867">
        <ele>1883.0</ele>
        <time>2018-07-22T12:45:47Z</time>
      </trkpt>
      <trkpt lat="41.067467" lon="-3.723950">
        <ele>1885.0</ele>
        <time>2018-07-22T12:45:48Z</time>
      </trkpt>
      <trkpt lat="41.067400" lon="-3.724033">
        <ele>1886.0</ele>
        <time>2018-07-22T12:45:49Z</time>
      </trkpt>
      <trkpt lat="41.067317" lon="-3.724100">
        <ele>1887.0</ele>
        <time>2018-07-22T12:45:50Z</time>
      </trkpt>
      <trkpt lat="41.067250" lon="-3.724167">
        <ele>1887.0</ele>
        <time>2018-07-22T12:45:51Z</time>
      </trkpt>
      <trkpt lat="41.067167" lon="-3.724233">
        <ele>1887.0</ele>
        <time>2018-07-22T12:45:52Z</time>
      </trkpt>
      <trkpt lat="41.067067" lon="-3.724300">
        <ele>1887.0</ele>
        <time>2018-07-22T12:45:53Z</time>
      </trkpt>
      <trkpt lat="41.066967" lon="-3.724367">
        <ele>1887.0</ele>
        <time>2018-07-22T12:45:54Z</time>
      </trkpt>
      <trkpt lat="41.066867" lon="-3.724417">
        <ele>1888.0</ele>
        <time>2018-07-22T12:45:55Z</time>
      </trkpt>
      <trkpt lat="41.066767" lon="-3.724450">
        <ele>1890.0</ele>
        <time>2018-07-22T12:45:56Z</time>
      </trkpt>
      <trkpt lat="41.066667" lon="-3.724500">
        <ele>1892.0</ele>
        <time>2018-07-22T12:45:57Z</time>
      </trkpt>
      <trkpt lat="41.066583" lon="-3.724550">
        <ele>1892.0</ele>
        <time>2018-07-22T12:45:58Z</time>
      </trkpt>
      <trkpt lat="41.066500" lon="-3.724617">
        <ele>1891.0</ele>
        <time>2018-07-22T12:45:59Z</time>
      </trkpt>
      <trkpt lat="41.066400" lon="-3.724683">
        <ele>1891.0</ele>
        <time>2018-07-22T12:46:00Z</time>
      </trkpt>
      <trkpt lat="41.066317" lon="-3.724733">
        <ele>1892.0</ele>
        <time>2018-07-22T12:46:01Z</time>
      </trkpt>
      <trkpt lat="41.066233" lon="-3.724800">
        <ele>1893.0</ele>
        <time>2018-07-22T12:46:02Z</time>
      </trkpt>
      <trkpt lat="41.066150" lon="-3.724850">
        <ele>1893.0</ele>
        <time>2018-07-22T12:46:03Z</time>
      </trkpt>
      <trkpt lat="41.066083" lon="-3.724900">
        <ele>1893.0</ele>
        <time>2018-07-22T12:46:04Z</time>
      </trkpt>
      <trkpt lat="41.066000" lon="-3.724967">
        <ele>1892.0</ele>
        <time>2018-07-22T12:46:05Z</time>
      </trkpt>
      <trkpt lat="41.065933" lon="-3.725017">
        <ele>1891.0</ele>
        <time>2018-07-22T12:46:06Z</time>
      </trkpt>
      <trkpt lat="41.065850" lon="-3.725083">
        <ele>1889.0</ele>
        <time>2018-07-22T12:46:07Z</time>
      </trkpt>
      <trkpt lat="41.065783" lon="-3.725183">
        <ele>1887.0</ele>
        <time>2018-07-22T12:46:08Z</time>
      </trkpt>
      <trkpt lat="41.065717" lon="-3.725283">
        <ele>1886.0</ele>
        <time>2018-07-22T12:46:09Z</time>
      </trkpt>
      <trkpt lat="41.065650" lon="-3.725383">
        <ele>1885.0</ele>
        <time>2018-07-22T12:46:10Z</time>
      </trkpt>
      <trkpt lat="41.065567" lon="-3.725483">
        <ele>1884.0</ele>
        <time>2018-07-22T12:46:11Z</time>
      </trkpt>
      <trkpt lat="41.065483" lon="-3.725567">
        <ele>1884.0</ele>
        <time>2018-07-22T12:46:12Z</time>
      </trkpt>
      <trkpt lat="41.065417" lon="-3.725650">
        <ele>1885.0</ele>
        <time>2018-07-22T12:46:13Z</time>
      </trkpt>
      <trkpt lat="41.065350" lon="-3.725750">
        <ele>1884.0</ele>
        <time>2018-07-22T12:46:14Z</time>
      </trkpt>
      <trkpt lat="41.065300" lon="-3.725883">
        <ele>1884.0</ele>
        <time>2018-07-22T12:46:15Z</time>
      </trkpt>
      <trkpt lat="41.065250" lon="-3.726000">
        <ele>1885.0</ele>
        <time>2018-07-22T12:46:16Z</time>
      </trkpt>
      <trkpt lat="41.065183" lon="-3.726117">
        <ele>1887.0</ele>
        <time>2018-07-22T12:46:17Z</time>
      </trkpt>
      <trkpt lat="41.065117" lon="-3.726233">
        <ele>1887.0</ele>
        <time>2018-07-22T12:46:18Z</time>
      </trkpt>
      <trkpt lat="41.065033" lon="-3.726333">
        <ele>1888.0</ele>
        <time>2018-07-22T12:46:19Z</time>
      </trkpt>
      <trkpt lat="41.064950" lon="-3.726433">
        <ele>1888.0</ele>
        <time>2018-07-22T12:46:20Z</time>
      </trkpt>
      <trkpt lat="41.064883" lon="-3.726517">
        <ele>1890.0</ele>
        <time>2018-07-22T12:46:21Z</time>
      </trkpt>
      <trkpt lat="41.064800" lon="-3.726617">
        <ele>1891.0</ele>
        <time>2018-07-22T12:46:22Z</time>
      </trkpt>
      <trkpt lat="41.064733" lon="-3.726683">
        <ele>1893.0</ele>
        <time>2018-07-22T12:46:23Z</time>
      </trkpt>
      <trkpt lat="41.064683" lon="-3.726767">
        <ele>1894.0</ele>
        <time>2018-07-22T12:46:24Z</time>
      </trkpt>
      <trkpt lat="41.064617" lon="-3.726833">
        <ele>1894.0</ele>
        <time>2018-07-22T12:46:25Z</time>
      </trkpt>
      <trkpt lat="41.064567" lon="-3.726917">
        <ele>1892.0</ele>
        <time>2018-07-22T12:46:26Z</time>
      </trkpt>
      <trkpt lat="41.064533" lon="-3.727017">
        <ele>1889.0</ele>
        <time>2018-07-22T12:46:27Z</time>
      </trkpt>
      <trkpt lat="41.064467" lon="-3.727133">
        <ele>1887.0</ele>
        <time>2018-07-22T12:46:28Z</time>
      </trkpt>
      <trkpt lat="41.064433" lon="-3.727267">
        <ele>1884.0</ele>
        <time>2018-07-22T12:46:29Z</time>
      </trkpt>
      <trkpt lat="41.064400" lon="-3.727383">
        <ele>1884.0</ele>
        <time>2018-07-22T12:46:30Z</time>
      </trkpt>
      <trkpt lat="41.064367" lon="-3.727500">
        <ele>1884.0</ele>
        <time>2018-07-22T12:46:31Z</time>
      </trkpt>
      <trkpt lat="41.064367" lon="-3.727600">
        <ele>1884.0</ele>
        <time>2018-07-22T12:46:32Z</time>
      </trkpt>
      <trkpt lat="41.064367" lon="-3.727683">
        <ele>1881.0</ele>
        <time>2018-07-22T12:46:33Z</time>
      </trkpt>
      <trkpt lat="41.064367" lon="-3.727800">
        <ele>1878.0</ele>
        <time>2018-07-22T12:46:34Z</time>
      </trkpt>
      <trkpt lat="41.064350" lon="-3.727933">
        <ele>1873.0</ele>
        <time>2018-07-22T12:46:35Z</time>
      </trkpt>
      <trkpt lat="41.064350" lon="-3.728067">
        <ele>1870.0</ele>
        <time>2018-07-22T12:46:36Z</time>
      </trkpt>
      <trkpt lat="41.064317" lon="-3.728217">
        <ele>1869.0</ele>
        <time>2018-07-22T12:46:37Z</time>
      </trkpt>
      <trkpt lat="41.064300" lon="-3.728350">
        <ele>1869.0</ele>
        <time>2018-07-22T12:46:38Z</time>
      </trkpt>
      <trkpt lat="41.064267" lon="-3.728467">
        <ele>1868.0</ele>
        <time>2018-07-22T12:46:39Z</time>
      </trkpt>
      <trkpt lat="41.064250" lon="-3.728583">
        <ele>1868.0</ele>
        <time>2018-07-22T12:46:40Z</time>
      </trkpt>
      <trkpt lat="41.064233" lon="-3.728683">
        <ele>1866.0</ele>
        <time>2018-07-22T12:46:41Z</time>
      </trkpt>
      <trkpt lat="41.064217" lon="-3.728800">
        <ele>1863.0</ele>
        <time>2018-07-22T12:46:42Z</time>
      </trkpt>
      <trkpt lat="41.064183" lon="-3.728950">
        <ele>1861.0</ele>
        <time>2018-07-22T12:46:43Z</time>
      </trkpt>
      <trkpt lat="41.064167" lon="-3.729100">
        <ele>1859.0</ele>
        <time>2018-07-22T12:46:44Z</time>
      </trkpt>
      <trkpt lat="41.064150" lon="-3.729267">
        <ele>1860.0</ele>
        <time>2018-07-22T12:46:45Z</time>
      </trkpt>
      <trkpt lat="41.064117" lon="-3.729417">
        <ele>1861.0</ele>
        <time>2018-07-22T12:46:46Z</time>
      </trkpt>
      <trkpt lat="41.064067" lon="-3.729550">
        <ele>1862.0</ele>
        <time>2018-07-22T12:46:47Z</time>
      </trkpt>
      <trkpt lat="41.064017" lon="-3.729683">
        <ele>1863.0</ele>
        <time>2018-07-22T12:46:48Z</time>
      </trkpt>
      <trkpt lat="41.064000" lon="-3.729817">
        <ele>1863.0</ele>
        <time>2018-07-22T12:46:49Z</time>
      </trkpt>
      <trkpt lat="41.064000" lon="-3.729950">
        <ele>1863.0</ele>
        <time>2018-07-22T12:46:50Z</time>
      </trkpt>
      <trkpt lat="41.064017" lon="-3.730083">
        <ele>1864.0</ele>
        <time>2018-07-22T12:46:51Z</time>
      </trkpt>
      <trkpt lat="41.064050" lon="-3.730217">
        <ele>1865.0</ele>
        <time>2018-07-22T12:46:52Z</time>
      </trkpt>
      <trkpt lat="41.064067" lon="-3.730367">
        <ele>1866.0</ele>
        <time>2018-07-22T12:46:53Z</time>
      </trkpt>
      <trkpt lat="41.064067" lon="-3.730500">
        <ele>1868.0</ele>
        <time>2018-07-22T12:46:54Z</time>
      </trkpt>
      <trkpt lat="41.064050" lon="-3.730617">
        <ele>1871.0</ele>
        <time>2018-07-22T12:46:55Z</time>
      </trkpt>
      <trkpt lat="41.064033" lon="-3.730733">
        <ele>1873.0</ele>
        <time>2018-07-22T12:46:56Z</time>
      </trkpt>
      <trkpt lat="41.064033" lon="-3.730833">
        <ele>1876.0</ele>
        <time>2018-07-22T12:46:57Z</time>
      </trkpt>
      <trkpt lat="41.064050" lon="-3.730933">
        <ele>1876.0</ele>
        <time>2018-07-22T12:46:58Z</time>
      </trkpt>
      <trkpt lat="41.064117" lon="-3.731000">
        <ele>1875.0</ele>
        <time>2018-07-22T12:46:59Z</time>
      </trkpt>
      <trkpt lat="41.064217" lon="-3.731017">
        <ele>1875.0</ele>
        <time>2018-07-22T12:47:00Z</time>
      </trkpt>
      <trkpt lat="41.064317" lon="-3.730967">
        <ele>1875.0</ele>
        <time>2018-07-22T12:47:01Z</time>
      </trkpt>
      <trkpt lat="41.064383" lon="-3.730850">
        <ele>1876.0</ele>
        <time>2018-07-22T12:47:02Z</time>
      </trkpt>
      <trkpt lat="41.064400" lon="-3.730700">
        <ele>1877.0</ele>
        <time>2018-07-22T12:47:03Z</time>
      </trkpt>
      <trkpt lat="41.064367" lon="-3.730533">
        <ele>1878.0</ele>
        <time>2018-07-22T12:47:04Z</time>
      </trkpt>
      <trkpt lat="41.064300" lon="-3.730400">
        <ele>1880.0</ele>
        <time>2018-07-22T12:47:05Z</time>
      </trkpt>
      <trkpt lat="41.064217" lon="-3.730300">
        <ele>1882.0</ele>
        <time>2018-07-22T12:47:06Z</time>
      </trkpt>
      <trkpt lat="41.064117" lon="-3.730233">
        <ele>1883.0</ele>
        <time>2018-07-22T12:47:07Z</time>
      </trkpt>
      <trkpt lat="41.064000" lon="-3.730200">
        <ele>1885.0</ele>
        <time>2018-07-22T12:47:08Z</time>
      </trkpt>
      <trkpt lat="41.063883" lon="-3.730200">
        <ele>1888.0</ele>
        <time>2018-07-22T12:47:09Z</time>
      </trkpt>
      <trkpt lat="41.063767" lon="-3.730217">
        <ele>1890.0</ele>
        <time>2018-07-22T12:47:10Z</time>
      </trkpt>
      <trkpt lat="41.063667" lon="-3.730267">
        <ele>1893.0</ele>
        <time>2018-07-22T12:47:11Z</time>
      </trkpt>
      <trkpt lat="41.063583" lon="-3.730333">
        <ele>1895.0</ele>
        <time>2018-07-22T12:47:12Z</time>
      </trkpt>
      <trkpt lat="41.063517" lon="-3.730450">
        <ele>1895.0</ele>
        <time>2018-07-22T12:47:13Z</time>
      </trkpt>
      <trkpt lat="41.063483" lon="-3.730583">
        <ele>1894.0</ele>
        <time>2018-07-22T12:47:14Z</time>
      </trkpt>
      <trkpt lat="41.063467" lon="-3.730733">
        <ele>1893.0</ele>
        <time>2018-07-22T12:47:15Z</time>
      </trkpt>
      <trkpt lat="41.063483" lon="-3.730883">
        <ele>1895.0</ele>
        <time>2018-07-22T12:47:16Z</time>
      </trkpt>
      <trkpt lat="41.063550" lon="-3.731000">
        <ele>1897.0</ele>
        <time>2018-07-22T12:47:17Z</time>
      </trkpt>
      <trkpt lat="41.063617" lon="-3.731067">
        <ele>1900.0</ele>
        <time>2018-07-22T12:47:18Z</time>
      </trkpt>
      <trkpt lat="41.063683" lon="-3.731083">
        <ele>1902.0</ele>
        <time>2018-07-22T12:47:19Z</time>
      </trkpt>
      <trkpt lat="41.063750" lon="-3.731067">
        <ele>1904.0</ele>
        <time>2018-07-22T12:47:20Z</time>
      </trkpt>
      <trkpt lat="41.063833" lon="-3.731033">
        <ele>1905.0</ele>
        <time>2018-07-22T12:47:21Z</time>
      </trkpt>
      <trkpt lat="41.063900" lon="-3.730983">
        <ele>1907.0</ele>
        <time>2018-07-22T12:47:22Z</time>
      </trkpt>
      <trkpt lat="41.063950" lon="-3.730917">
        <ele>1909.0</ele>
        <time>2018-07-22T12:47:23Z</time>
      </trkpt>
      <trkpt lat="41.064000" lon="-3.730817">
        <ele>1909.0</ele>
        <time>2018-07-22T12:47:24Z</time>
      </trkpt>
      <trkpt lat="41.064017" lon="-3.730683">
        <ele>1910.0</ele>
        <time>2018-07-22T12:47:25Z</time>
      </trkpt>
      <trkpt lat="41.064000" lon="-3.730533">
        <ele>1911.0</ele>
        <time>2018-07-22T12:47:26Z</time>
      </trkpt>
      <trkpt lat="41.063950" lon="-3.730400">
        <ele>1911.0</ele>
        <time>2018-07-22T12:47:27Z</time>
      </trkpt>
      <trkpt lat="41.063867" lon="-3.730283">
        <ele>1912.0</ele>
        <time>2018-07-22T12:47:28Z</time>
      </trkpt>
      <trkpt lat="41.063750" lon="-3.730183">
        <ele>1912.0</ele>
        <time>2018-07-22T12:47:29Z</time>
      </trkpt>
      <trkpt lat="41.063617" lon="-3.730117">
        <ele>1914.0</ele>
        <time>2018-07-22T12:47:30Z</time>
      </trkpt>
      <trkpt lat="41.063500" lon="-3.730083">
        <ele>1918.0</ele>
        <time>2018-07-22T12:47:31Z</time>
      </trkpt>
      <trkpt lat="41.063400" lon="-3.730083">
        <ele>1921.0</ele>
        <time>2018-07-22T12:47:32Z</time>
      </trkpt>
      <trkpt lat="41.063300" lon="-3.730117">
        <ele>1924.0</ele>
        <time>2018-07-22T12:47:33Z</time>
      </trkpt>
      <trkpt lat="41.063200" lon="-3.730167">
        <ele>1926.0</ele>
        <time>2018-07-22T12:47:34Z</time>
      </trkpt>
      <trkpt lat="41.063117" lon="-3.730250">
        <ele>1927.0</ele>
        <time>2018-07-22T12:47:35Z</time>
      </trkpt>
      <trkpt lat="41.063050" lon="-3.730350">
        <ele>1929.0</ele>
        <time>2018-07-22T12:47:36Z</time>
      </trkpt>
      <trkpt lat="41.062983" lon="-3.730483">
        <ele>1930.0</ele>
        <time>2018-07-22T12:47:37Z</time>
      </trkpt>
      <trkpt lat="41.062933" lon="-3.730617">
        <ele>1933.0</ele>
        <time>2018-07-22T12:47:38Z</time>
      </trkpt>
      <trkpt lat="41.062900" lon="-3.730750">
        <ele>1935.0</ele>
        <time>2018-07-22T12:47:39Z</time>
      </trkpt>
      <trkpt lat="41.062900" lon="-3.730867">
        <ele>1938.0</ele>
        <time>2018-07-22T12:47:40Z</time>
      </trkpt>
      <trkpt lat="41.062933" lon="-3.730967">
        <ele>1939.0</ele>
        <time>2018-07-22T12:47:41Z</time>
      </trkpt>
      <trkpt lat="41.062983" lon="-3.731033">
        <ele>1940.0</ele>
        <time>2018-07-22T12:47:42Z</time>
      </trkpt>
      <trkpt lat="41.063050" lon="-3.731083">
        <ele>1942.0</ele>
        <time>2018-07-22T12:47:43Z</time>
      </trkpt>
      <trkpt lat="41.063117" lon="-3.731117">
        <ele>1944.0</ele>
        <time>2018-07-22T12:47:44Z</time>
      </trkpt>
      <trkpt lat="41.063167" lon="-3.731100">
        <ele>1946.0</ele>
        <time>2018-07-22T12:47:45Z</time>
      </trkpt>
      <trkpt lat="41.063233" lon="-3.731067">
        <ele>1947.0</ele>
        <time>2018-07-22T12:47:46Z</time>
      </trkpt>
      <trkpt lat="41.063283" lon="-3.731000">
        <ele>1947.0</ele>
        <time>2018-07-22T12:47:47Z</time>
      </trkpt>
      <trkpt lat="41.063333" lon="-3.730900">
        <ele>1948.0</ele>
        <time>2018-07-22T12:47:48Z</time>
      </trkpt>
      <trkpt lat="41.063350" lon="-3.730767">
        <ele>1951.0</ele>
        <time>2018-07-22T12:47:49Z</time>
      </trkpt>
      <trkpt lat="41.063333" lon="-3.730633">
        <ele>1953.0</ele>
        <time>2018-07-22T12:47:50Z</time>
      </trkpt>
      <trkpt lat="41.063283" lon="-3.730517">
        <ele>1954.0</ele>
        <time>2018-07-22T12:47:51Z</time>
      </trkpt>
      <trkpt lat="41.063200" lon="-3.730400">
        <ele>1956.0</ele>
        <time>2018-07-22T12:47:52Z</time>
      </trkpt>
      <trkpt lat="41.063100" lon="-3.730317">
        <ele>1958.0</ele>
        <time>2018-07-22T12:47:53Z</time>
      </trkpt>
      <trkpt lat="41.062983" lon="-3.730250">
        <ele>1961.0</ele>
        <time>2018-07-22T12:47:54Z</time>
      </trkpt>
      <trkpt lat="41.062850" lon="-3.730233">
        <ele>1963.0</ele>
        <time>2018-07-22T12:47:55Z</time>
      </trkpt>
      <trkpt lat="41.062717" lon="-3.730250">
        <ele>1966.0</ele>
        <time>2018-07-22T12:47:56Z</time>
      </trkpt>
      <trkpt lat="41.062583" lon="-3.730300">
        <ele>1970.0</ele>
        <time>2018-07-22T12:47:57Z</time>
      </trkpt>
      <trkpt lat="41.062500" lon="-3.730367">
        <ele>1974.0</ele>
        <time>2018-07-22T12:47:58Z</time>
      </trkpt>
      <trkpt lat="41.062433" lon="-3.730467">
        <ele>1977.0</ele>
        <time>2018-07-22T12:47:59Z</time>
      </trkpt>
      <trkpt lat="41.062400" lon="-3.730583">
        <ele>1978.0</ele>
        <time>2018-07-22T12:48:00Z</time>
      </trkpt>
      <trkpt lat="41.062383" lon="-3.730700">
        <ele>1978.0</ele>
        <time>2018-07-22T12:48:01Z</time>
      </trkpt>
      <trkpt lat="41.062400" lon="-3.730817">
        <ele>1979.0</ele>
        <time>2018-07-22T12:48:02Z</time>
      </trkpt>
      <trkpt lat="41.062433" lon="-3.730900">
        <ele>1980.0</ele>
        <time>2018-07-22T12:48:03Z</time>
      </trkpt>
      <trkpt lat="41.062483" lon="-3.730950">
        <ele>1981.0</ele>
        <time>2018-07-22T12:48:04Z</time>
      </trkpt>
      <trkpt lat="41.062550" lon="-3.730983">
        <ele>1982.0</ele>
        <time>2018-07-22T12:48:05Z</time>
      </trkpt>
      <trkpt lat="41.062617" lon="-3.730983">
        <ele>1983.0</ele>
        <time>2018-07-22T12:48:06Z</time>
      </trkpt>
      <trkpt lat="41.062683" lon="-3.730950">
        <ele>1983.0</ele>
        <time>2018-07-22T12:48:07Z</time>
      </trkpt>
      <trkpt lat="41.062733" lon="-3.730867">
        <ele>1985.0</ele>
        <time>2018-07-22T12:48:08Z</time>
      </trkpt>
      <trkpt lat="41.062767" lon="-3.730750">
        <ele>1987.0</ele>
        <time>2018-07-22T12:48:09Z</time>
      </trkpt>
      <trkpt lat="41.062783" lon="-3.730633">
        <ele>1990.0</ele>
        <time>2018-07-22T12:48:10Z</time>
      </trkpt>
      <trkpt lat="41.062767" lon="-3.730517">
        <ele>1993.0</ele>
        <time>2018-07-22T12:48:11Z</time>
      </trkpt>
      <trkpt lat="41.062733" lon="-3.730400">
        <ele>1995.0</ele>
        <time>2018-07-22T12:48:12Z</time>
      </trkpt>
      <trkpt lat="41.062667" lon="-3.730283">
        <ele>1995.0</ele>
        <time>2018-07-22T12:48:13Z</time>
      </trkpt>
      <trkpt lat="41.062583" lon="-3.730183">
        <ele>1994.0</ele>
        <time>2018-07-22T12:48:14Z</time>
      </trkpt>
      <trkpt lat="41.062450" lon="-3.730100">
        <ele>1994.0</ele>
        <time>2018-07-22T12:48:15Z</time>
      </trkpt>
      <trkpt lat="41.062300" lon="-3.730067">
        <ele>1996.0</ele>
        <time>2018-07-22T12:48:16Z</time>
      </trkpt>
      <trkpt lat="41.062167" lon="-3.730067">
        <ele>2000.0</ele>
        <time>2018-07-22T12:48:17Z</time>
      </trkpt>
      <trkpt lat="41.062050" lon="-3.730100">
        <ele>2005.0</ele>
        <time>2018-07-22T12:48:18Z</time>
      </trkpt>
      <trkpt lat="41.061950" lon="-3.730150">
        <ele>2008.0</ele>
        <time>2018-07-22T12:48:19Z</time>
      </trkpt>
      <trkpt lat="41.061867" lon="-3.730200">
        <ele>2010.0</ele>
        <time>2018-07-22T12:48:20Z</time>
      </trkpt>
      <trkpt lat="41.061783" lon="-3.730267">
        <ele>2011.0</ele>
        <time>2018-07-22T12:48:21Z</time>
      </trkpt>
      <trkpt lat="41.061700" lon="-3.730367">
        <ele>2010.0</ele>
        <time>2018-07-22T12:48:22Z</time>
      </trkpt>
      <trkpt lat="41.061617" lon="-3.730483">
        <ele>2010.0</ele>
        <time>2018-07-22T12:48:23Z</time>
      </trkpt>
      <trkpt lat="41.061567" lon="-3.730617">
        <ele>2010.0</ele>
        <time>2018-07-22T12:48:24Z</time>
      </trkpt>
      <trkpt lat="41.061567" lon="-3.730733">
        <ele>2012.0</ele>
        <time>2018-07-22T12:48:25Z</time>
      </trkpt>
      <trkpt lat="41.061583" lon="-3.730833">
        <ele>2014.0</ele>
        <time>2018-07-22T12:48:26Z</time>
      </trkpt>
      <trkpt lat="41.061617" lon="-3.730900">
        <ele>2015.0</ele>
        <time>2018-07-22T12:48:27Z</time>
      </trkpt>
      <trkpt lat="41.061650" lon="-3.730967">
        <ele>2016.0</ele>
        <time>2018-07-22T12:48:28Z</time>
      </trkpt>
      <trkpt lat="41.061717" lon="-3.731000">
        <ele>2017.0</ele>
        <time>2018-07-22T12:48:29Z</time>
      </trkpt>
      <trkpt lat="41.061767" lon="-3.731033">
        <ele>2016.0</ele>
        <time>2018-07-22T12:48:30Z</time>
      </trkpt>
      <trkpt lat="41.061833" lon="-3.731033">
        <ele>2015.0</ele>
        <time>2018-07-22T12:48:31Z</time>
      </trkpt>
      <trkpt lat="41.061917" lon="-3.730983">
        <ele>2015.0</ele>
        <time>2018-07-22T12:48:32Z</time>
      </trkpt>
      <trkpt lat="41.062000" lon="-3.730917">
        <ele>2014.0</ele>
        <time>2018-07-22T12:48:33Z</time>
      </trkpt>
      <trkpt lat="41.062067" lon="-3.730800">
        <ele>2016.0</ele>
        <time>2018-07-22T12:48:34Z</time>
      </trkpt>
      <trkpt lat="41.062117" lon="-3.730683">
        <ele>2018.0</ele>
        <time>2018-07-22T12:48:35Z</time>
      </trkpt>
      <trkpt lat="41.062117" lon="-3.730567">
        <ele>2021.0</ele>
        <time>2018-07-22T12:48:36Z</time>
      </trkpt>
      <trkpt lat="41.062100" lon="-3.730433">
        <ele>2023.0</ele>
        <time>2018-07-22T12:48:37Z</time>
      </trkpt>
      <trkpt lat="41.062050" lon="-3.730317">
        <ele>2024.0</ele>
        <time>2018-07-22T12:48:38Z</time>
      </trkpt>
      <trkpt lat="41.062000" lon="-3.730200">
        <ele>2025.0</ele>
        <time>2018-07-22T12:48:39Z</time>
      </trkpt>
      <trkpt lat="41.061900" lon="-3.730100">
        <ele>2025.0</ele>
        <time>2018-07-22T12:48:40Z</time>
      </trkpt>
      <trkpt lat="41.061783" lon="-3.730017">
        <ele>2024.0</ele>
        <time>2018-07-22T12:48:41Z</time>
      </trkpt>
      <trkpt lat="41.061633" lon="-3.730000">
        <ele>2023.0</ele>
        <time>2018-07-22T12:48:42Z</time>
      </trkpt>
      <trkpt lat="41.061500" lon="-3.730033">
        <ele>2025.0</ele>
        <time>2018-07-22T12:48:43Z</time>
      </trkpt>
      <trkpt lat="41.061383" lon="-3.730100">
        <ele>2028.0</ele>
        <time>2018-07-22T12:48:44Z</time>
      </trkpt>
      <trkpt lat="41.061283" lon="-3.730200">
        <ele>2029.0</ele>
        <time>2018-07-22T12:48:45Z</time>
      </trkpt>
      <trkpt lat="41.061233" lon="-3.730317">
        <ele>2031.0</ele>
        <time>2018-07-22T12:48:46Z</time>
      </trkpt>
      <trkpt lat="41.061183" lon="-3.730417">
        <ele>2033.0</ele>
        <time>2018-07-22T12:48:47Z</time>
      </trkpt>
      <trkpt lat="41.061150" lon="-3.730533">
        <ele>2035.0</ele>
        <time>2018-07-22T12:48:48Z</time>
      </trkpt>
      <trkpt lat="41.061117" lon="-3.730633">
        <ele>2036.0</ele>
        <time>2018-07-22T12:48:49Z</time>
      </trkpt>
      <trkpt lat="41.061117" lon="-3.730733">
        <ele>2035.0</ele>
        <time>2018-07-22T12:48:50Z</time>
      </trkpt>
      <trkpt lat="41.061117" lon="-3.730817">
        <ele>2034.0</ele>
        <time>2018-07-22T12:48:51Z</time>
      </trkpt>
      <trkpt lat="41.061117" lon="-3.730933">
        <ele>2033.0</ele>
        <time>2018-07-22T12:48:52Z</time>
      </trkpt>
      <trkpt lat="41.061100" lon="-3.731050">
        <ele>2033.0</ele>
        <time>2018-07-22T12:48:53Z</time>
      </trkpt>
      <trkpt lat="41.061083" lon="-3.731150">
        <ele>2034.0</ele>
        <time>2018-07-22T12:48:54Z</time>
      </trkpt>
      <trkpt lat="41.061050" lon="-3.731267">
        <ele>2035.0</ele>
        <time>2018-07-22T12:48:55Z</time>
      </trkpt>
      <trkpt lat="41.061033" lon="-3.731350">
        <ele>2034.0</ele>
        <time>2018-07-22T12:48:56Z</time>
      </trkpt>
      <trkpt lat="41.061017" lon="-3.731433">
        <ele>2033.0</ele>
        <time>2018-07-22T12:48:57Z</time>
      </trkpt>
      <trkpt lat="41.061000" lon="-3.731533">
        <ele>2034.0</ele>
        <time>2018-07-22T12:48:58Z</time>
      </trkpt>
      <trkpt lat="41.060983" lon="-3.731633">
        <ele>2034.0</ele>
        <time>2018-07-22T12:48:59Z</time>
      </trkpt>
      <trkpt lat="41.060950" lon="-3.731733">
        <ele>2034.0</ele>
        <time>2018-07-22T12:49:00Z</time>
      </trkpt>
      <trkpt lat="41.060933" lon="-3.731833">
        <ele>2035.0</ele>
        <time>2018-07-22T12:49:01Z</time>
      </trkpt>
      <trkpt lat="41.060900" lon="-3.731917">
        <ele>2036.0</ele>
        <time>2018-07-22T12:49:02Z</time>
      </trkpt>
      <trkpt lat="41.060883" lon="-3.732017">
        <ele>2036.0</ele>
        <time>2018-07-22T12:49:03Z</time>
      </trkpt>
      <trkpt lat="41.060867" lon="-3.732100">
        <ele>2035.0</ele>
        <time>2018-07-22T12:49:04Z</time>
      </trkpt>
      <trkpt lat="41.060850" lon="-3.732200">
        <ele>2035.0</ele>
        <time>2018-07-22T12:49:05Z</time>
      </trkpt>
      <trkpt lat="41.060833" lon="-3.732300">
        <ele>2035.0</ele>
        <time>2018-07-22T12:49:06Z</time>
      </trkpt>
      <trkpt lat="41.060783" lon="-3.732417">
        <ele>2036.0</ele>
        <time>2018-07-22T12:49:07Z</time>
      </trkpt>
      <trkpt lat="41.060750" lon="-3.732517">
        <ele>2038.0</ele>
        <time>2018-07-22T12:49:08Z</time>
      </trkpt>
      <trkpt lat="41.060717" lon="-3.732600">
        <ele>2039.0</ele>
        <time>2018-07-22T12:49:09Z</time>
      </trkpt>
      <trkpt lat="41.060683" lon="-3.732700">
        <ele>2040.0</ele>
        <time>2018-07-22T12:49:10Z</time>
      </trkpt>
      <trkpt lat="41.060650" lon="-3.732817">
        <ele>2041.0</ele>
        <time>2018-07-22T12:49:11Z</time>
      </trkpt>
      <trkpt lat="41.060617" lon="-3.732917">
        <ele>2041.0</ele>
        <time>2018-07-22T12:49:12Z</time>
      </trkpt>
      <trkpt lat="41.060583" lon="-3.733017">
        <ele>2042.0</ele>
        <time>2018-07-22T12:49:13Z</time>
      </trkpt>
      <trkpt lat="41.060550" lon="-3.733133">
        <ele>2043.0</ele>
        <time>2018-07-22T12:49:14Z</time>
      </trkpt>
      <trkpt lat="41.060517" lon="-3.733233">
        <ele>2046.0</ele>
        <time>2018-07-22T12:49:15Z</time>
      </trkpt>
      <trkpt lat="41.060483" lon="-3.733317">
        <ele>2049.0</ele>
        <time>2018-07-22T12:49:16Z</time>
      </trkpt>
      <trkpt lat="41.060433" lon="-3.733417">
        <ele>2050.0</ele>
        <time>2018-07-22T12:49:17Z</time>
      </trkpt>
      <trkpt lat="41.060383" lon="-3.733517">
        <ele>2052.0</ele>
        <time>2018-07-22T12:49:18Z</time>
      </trkpt>
      <trkpt lat="41.060300" lon="-3.733617">
        <ele>2052.0</ele>
        <time>2018-07-22T12:49:19Z</time>
      </trkpt>
      <trkpt lat="41.060233" lon="-3.733700">
        <ele>2052.0</ele>
        <time>2018-07-22T12:49:20Z</time>
      </trkpt>
      <trkpt lat="41.060133" lon="-3.733800">
        <ele>2053.0</ele>
        <time>2018-07-22T12:49:21Z</time>
      </trkpt>
      <trkpt lat="41.060067" lon="-3.733900">
        <ele>2054.0</ele>
        <time>2018-07-22T12:49:22Z</time>
      </trkpt>
      <trkpt lat="41.060000" lon="-3.734017">
        <ele>2057.0</ele>
        <time>2018-07-22T12:49:23Z</time>
      </trkpt>
      <trkpt lat="41.059933" lon="-3.734117">
        <ele>2061.0</ele>
        <time>2018-07-22T12:49:24Z</time>
      </trkpt>
      <trkpt lat="41.059900" lon="-3.734217">
        <ele>2066.0</ele>
        <time>2018-07-22T12:49:25Z</time>
      </trkpt>
      <trkpt lat="41.059867" lon="-3.734300">
        <ele>2071.0</ele>
        <time>2018-07-22T12:49:26Z</time>
      </trkpt>
      <trkpt lat="41.059850" lon="-3.734367">
        <ele>2075.0</ele>
        <time>2018-07-22T12:49:27Z</time>
      </trkpt>
      <trkpt lat="41.059833" lon="-3.734433">
        <ele>2077.0</ele>
        <time>2018-07-22T12:49:28Z</time>
      </trkpt>
      <trkpt lat="41.059817" lon="-3.734483">
        <ele>2078.0</ele>
        <time>2018-07-22T12:49:29Z</time>
      </trkpt>
      <trkpt lat="41.059850" lon="-3.734550">
        <ele>2079.0</ele>
        <time>2018-07-22T12:49:30Z</time>
      </trkpt>
      <trkpt lat="41.059883" lon="-3.734617">
        <ele>2079.0</ele>
        <time>2018-07-22T12:49:31Z</time>
      </trkpt>
      <trkpt lat="41.059950" lon="-3.734650">
        <ele>2081.0</ele>
        <time>2018-07-22T12:49:32Z</time>
      </trkpt>
      <trkpt lat="41.060017" lon="-3.734633">
        <ele>2083.0</ele>
        <time>2018-07-22T12:49:33Z</time>
      </trkpt>
      <trkpt lat="41.060067" lon="-3.734567">
        <ele>2086.0</ele>
        <time>2018-07-22T12:49:34Z</time>
      </trkpt>
      <trkpt lat="41.060117" lon="-3.734467">
        <ele>2089.0</ele>
        <time>2018-07-22T12:49:35Z</time>
      </trkpt>
      <trkpt lat="41.060150" lon="-3.734333">
        <ele>2091.0</ele>
        <time>2018-07-22T12:49:36Z</time>
      </trkpt>
      <trkpt lat="41.060150" lon="-3.734183">
        <ele>2094.0</ele>
        <time>2018-07-22T12:49:37Z</time>
      </trkpt>
      <trkpt lat="41.060100" lon="-3.734017">
        <ele>2097.0</ele>
        <time>2018-07-22T12:49:38Z</time>
      </trkpt>
      <trkpt lat="41.060033" lon="-3.733883">
        <ele>2099.0</ele>
        <time>2018-07-22T12:49:39Z</time>
      </trkpt>
      <trkpt lat="41.059933" lon="-3.733767">
        <ele>2101.0</ele>
        <time>2018-07-22T12:49:40Z</time>
      </trkpt>
      <trkpt lat="41.059817" lon="-3.733683">
        <ele>2104.0</ele>
        <time>2018-07-22T12:49:41Z</time>
      </trkpt>
      <trkpt lat="41.059683" lon="-3.733650">
        <ele>2107.0</ele>
        <time>2018-07-22T12:49:42Z</time>
      </trkpt>
      <trkpt lat="41.059583" lon="-3.733650">
        <ele>2109.0</ele>
        <time>2018-07-22T12:49:43Z</time>
      </trkpt>
      <trkpt lat="41.059483" lon="-3.733683">
        <ele>2112.0</ele>
        <time>2018-07-22T12:49:44Z</time>
      </trkpt>
      <trkpt lat="41.059383" lon="-3.733750">
        <ele>2114.0</ele>
        <time>2018-07-22T12:49:45Z</time>
      </trkpt>
      <trkpt lat="41.059283" lon="-3.733833">
        <ele>2116.0</ele>
        <time>2018-07-22T12:49:46Z</time>
      </trkpt>
      <trkpt lat="41.059200" lon="-3.733933">
        <ele>2119.0</ele>
        <time>2018-07-22T12:49:47Z</time>
      </trkpt>
      <trkpt lat="41.059150" lon="-3.734017">
        <ele>2123.0</ele>
        <time>2018-07-22T12:49:48Z</time>
      </trkpt>
      <trkpt lat="41.059100" lon="-3.734100">
        <ele>2126.0</ele>
        <time>2018-07-22T12:49:49Z</time>
      </trkpt>
      <trkpt lat="41.059100" lon="-3.734183">
        <ele>2128.0</ele>
        <time>2018-07-22T12:49:50Z</time>
      </trkpt>
      <trkpt lat="41.059117" lon="-3.734283">
        <ele>2128.0</ele>
        <time>2018-07-22T12:49:51Z</time>
      </trkpt>
      <trkpt lat="41.059167" lon="-3.734333">
        <ele>2130.0</ele>
        <time>2018-07-22T12:49:52Z</time>
      </trkpt>
      <trkpt lat="41.059233" lon="-3.734367">
        <ele>2132.0</ele>
        <time>2018-07-22T12:49:53Z</time>
      </trkpt>
      <trkpt lat="41.059300" lon="-3.734350">
        <ele>2134.0</ele>
        <time>2018-07-22T12:49:54Z</time>
      </trkpt>
      <trkpt lat="41.059350" lon="-3.734300">
        <ele>2135.0</ele>
        <time>2018-07-22T12:49:55Z</time>
      </trkpt>
      <trkpt lat="41.059417" lon="-3.734217">
        <ele>2137.0</ele>
        <time>2018-07-22T12:49:56Z</time>
      </trkpt>
      <trkpt lat="41.059467" lon="-3.734100">
        <ele>2139.0</ele>
        <time>2018-07-22T12:49:57Z</time>
      </trkpt>
      <trkpt lat="41.059500" lon="-3.733967">
        <ele>2142.0</ele>
        <time>2018-07-22T12:49:58Z</time>
      </trkpt>
      <trkpt lat="41.059500" lon="-3.733817">
        <ele>2145.0</ele>
        <time>2018-07-22T12:49:59Z</time>
      </trkpt>
      <trkpt lat="41.059483" lon="-3.733650">
        <ele>2148.0</ele>
        <time>2018-07-22T12:50:00Z</time>
      </trkpt>
      <trkpt lat="41.059433" lon="-3.733500">
        <ele>2150.0</ele>
        <time>2018-07-22T12:50:01Z</time>
      </trkpt>
      <trkpt lat="41.059350" lon="-3.733367">
        <ele>2153.0</ele>
        <time>2018-07-22T12:50:02Z</time>
      </trkpt>
      <trkpt lat="41.059267" lon="-3.733250">
        <ele>2155.0</ele>
        <time>2018-07-22T12:50:03Z</time>
      </trkpt>
      <trkpt lat="41.059150" lon="-3.733167">
        <ele>2157.0</ele>
        <time>2018-07-22T12:50:04Z</time>
      </trkpt>
      <trkpt lat="41.059050" lon="-3.733100">
        <ele>2159.0</ele>
        <time>2018-07-22T12:50:05Z</time>
      </trkpt>
      <trkpt lat="41.058933" lon="-3.733067">
        <ele>2162.0</ele>
        <time>2018-07-22T12:50:06Z</time>
      </trkpt>
      <trkpt lat="41.058817" lon="-3.733083">
        <ele>2164.0</ele>
        <time>2018-07-22T12:50:07Z</time>
      </trkpt>
      <trkpt lat="41.058717" lon="-3.733133">
        <ele>2166.0</ele>
        <time>2018-07-22T12:50:08Z</time>
      </trkpt>
      <trkpt lat="41.058617" lon="-3.733250">
        <ele>2167.0</ele>
        <time>2018-07-22T12:50:09Z</time>
      </trkpt>
      <trkpt lat="41.058550" lon="-3.733367">
        <ele>2170.0</ele>
        <time>2018-07-22T12:50:10Z</time>
      </trkpt>
      <trkpt lat="41.058500" lon="-3.733500">
        <ele>2174.0</ele>
        <time>2018-07-22T12:50:11Z</time>
      </trkpt>
      <trkpt lat="41.058467" lon="-3.733617">
        <ele>2178.0</ele>
        <time>2018-07-22T12:50:12Z</time>
      </trkpt>
      <trkpt lat="41.058450" lon="-3.733700">
        <ele>2181.0</ele>
        <time>2018-07-22T12:50:13Z</time>
      </trkpt>
      <trkpt lat="41.058450" lon="-3.733783">
        <ele>2184.0</ele>
        <time>2018-07-22T12:50:14Z</time>
      </trkpt>
      <trkpt lat="41.058483" lon="-3.733833">
        <ele>2186.0</ele>
        <time>2018-07-22T12:50:15Z</time>
      </trkpt>
      <trkpt lat="41.058517" lon="-3.733883">
        <ele>2186.0</ele>
        <time>2018-07-22T12:50:16Z</time>
      </trkpt>
      <trkpt lat="41.058583" lon="-3.733900">
        <ele>2187.0</ele>
        <time>2018-07-22T12:50:17Z</time>
      </trkpt>
      <trkpt lat="41.058650" lon="-3.733917">
        <ele>2188.0</ele>
        <time>2018-07-22T12:50:18Z</time>
      </trkpt>
      <trkpt lat="41.058717" lon="-3.733883">
        <ele>2188.0</ele>
        <time>2018-07-22T12:50:19Z</time>
      </trkpt>
      <trkpt lat="41.058783" lon="-3.733817">
        <ele>2188.0</ele>
        <time>2018-07-22T12:50:20Z</time>
      </trkpt>
      <trkpt lat="41.058833" lon="-3.733700">
        <ele>2189.0</ele>
        <time>2018-07-22T12:50:21Z</time>
      </trkpt>
      <trkpt lat="41.058883" lon="-3.733567">
        <ele>2189.0</ele>
        <time>2018-07-22T12:50:22Z</time>
      </trkpt>
      <trkpt lat="41.058917" lon="-3.733433">
        <ele>2191.0</ele>
        <time>2018-07-22T12:50:23Z</time>
      </trkpt>
      <trkpt lat="41.058967" lon="-3.733283">
        <ele>2194.0</ele>
        <time>2018-07-22T12:50:24Z</time>
      </trkpt>
      <trkpt lat="41.058967" lon="-3.733133">
        <ele>2198.0</ele>
        <time>2018-07-22T12:50:25Z</time>
      </trkpt>
      <trkpt lat="41.058950" lon="-3.732983">
        <ele>2201.0</ele>
        <time>2018-07-22T12:50:26Z</time>
      </trkpt>
      <trkpt lat="41.058917" lon="-3.732850">
        <ele>2204.0</ele>
        <time>2018-07-22T12:50:27Z</time>
      </trkpt>
      <trkpt lat="41.058883" lon="-3.732700">
        <ele>2206.0</ele>
        <time>2018-07-22T12:50:28Z</time>
      </trkpt>
      <trkpt lat="41.058833" lon="-3.732567">
        <ele>2208.0</ele>
        <time>2018-07-22T12:50:29Z</time>
      </trkpt>
      <trkpt lat="41.058767" lon="-3.732433">
        <ele>2209.0</ele>
        <time>2018-07-22T12:50:30Z</time>
      </trkpt>
      <trkpt lat="41.058667" lon="-3.732317">
        <ele>2210.0</ele>
        <time>2018-07-22T12:50:31Z</time>
      </trkpt>
      <trkpt lat="41.058567" lon="-3.732217">
        <ele>2211.0</ele>
        <time>2018-07-22T12:50:32Z</time>
      </trkpt>
      <trkpt lat="41.058433" lon="-3.732133">
        <ele>2212.0</ele>
        <time>2018-07-22T12:50:33Z</time>
      </trkpt>
      <trkpt lat="41.058317" lon="-3.732100">
        <ele>2214.0</ele>
        <time>2018-07-22T12:50:34Z</time>
      </trkpt>
      <trkpt lat="41.058183" lon="-3.732100">
        <ele>2216.0</ele>
        <time>2018-07-22T12:50:35Z</time>
      </trkpt>
      <trkpt lat="41.058083" lon="-3.732117">
        <ele>2220.0</ele>
        <time>2018-07-22T12:50:36Z</time>
      </trkpt>
      <trkpt lat="41.057983" lon="-3.732167">
        <ele>2223.0</ele>
        <time>2018-07-22T12:50:37Z</time>
      </trkpt>
      <trkpt lat="41.057900" lon="-3.732233">
        <ele>2225.0</ele>
        <time>2018-07-22T12:50:38Z</time>
      </trkpt>
      <trkpt lat="41.057850" lon="-3.732333">
        <ele>2227.0</ele>
        <time>2018-07-22T12:50:39Z</time>
      </trkpt>
      <trkpt lat="41.057800" lon="-3.732433">
        <ele>2228.0</ele>
        <time>2018-07-22T12:50:40Z</time>
      </trkpt>
      <trkpt lat="41.057783" lon="-3.732567">
        <ele>2229.0</ele>
        <time>2018-07-22T12:50:41Z</time>
      </trkpt>
      <trkpt lat="41.057783" lon="-3.732683">
        <ele>2230.0</ele>
        <time>2018-07-22T12:50:42Z</time>
      </trkpt>
      <trkpt lat="41.057800" lon="-3.732783">
        <ele>2232.0</ele>
        <time>2018-07-22T12:50:43Z</time>
      </trkpt>
      <trkpt lat="41.057850" lon="-3.732850">
        <ele>2234.0</ele>
        <time>2018-07-22T12:50:44Z</time>
      </trkpt>
      <trkpt lat="41.057917" lon="-3.732867">
        <ele>2235.0</ele>
        <time>2018-07-22T12:50:45Z</time>
      </trkpt>
      <trkpt lat="41.058000" lon="-3.732850">
        <ele>2236.0</ele>
        <time>2018-07-22T12:50:46Z</time>
      </trkpt>
      <trkpt lat="41.058067" lon="-3.732817">
        <ele>2237.0</ele>
        <time>2018-07-22T12:50:47Z</time>
      </trkpt>
      <trkpt lat="41.058133" lon="-3.732750">
        <ele>2238.0</ele>
        <time>2018-07-22T12:50:48Z</time>
      </trkpt>
      <trkpt lat="41.058183" lon="-3.732650">
        <ele>2238.0</ele>
        <time>2018-07-22T12:50:49Z</time>
      </trkpt>
      <trkpt lat="41.058233" lon="-3.732500">
        <ele>2238.0</ele>
        <time>2018-07-22T12:50:50Z</time>
      </trkpt>
      <trkpt lat="41.058267" lon="-3.732333">
        <ele>2238.0</ele>
        <time>2018-07-22T12:50:51Z</time>
      </trkpt>
      <trkpt lat="41.058283" lon="-3.732167">
        <ele>2239.0</ele>
        <time>2018-07-22T12:50:52Z</time>
      </trkpt>
      <trkpt lat="41.058267" lon="-3.731983">
        <ele>2242.0</ele>
        <time>2018-07-22T12:50:53Z</time>
      </trkpt>
      <trkpt lat="41.058217" lon="-3.731833">
        <ele>2245.0</ele>
        <time>2018-07-22T12:50:54Z</time>
      </trkpt>
      <trkpt lat="41.058150" lon="-3.731700">
        <ele>2247.0</ele>
        <time>2018-07-22T12:50:55Z</time>
      </trkpt>
      <trkpt lat="41.058067" lon="-3.731600">
        <ele>2249.0</ele>
        <time>2018-07-22T12:50:56Z</time>
      </trkpt>
      <trkpt lat="41.057983" lon="-3.731517">
        <ele>2251.0</ele>
        <time>2018-07-22T12:50:57Z</time>
      </trkpt>
      <trkpt lat="41.057883" lon="-3.731433">
        <ele>2252.0</ele>
        <time>2018-07-22T12:50:58Z</time>
      </trkpt>
      <trkpt lat="41.057767" lon="-3.731367">
        <ele>2253.0</ele>
        <time>2018-07-22T12:50:59Z</time>
      </trkpt>
      <trkpt lat="41.057633" lon="-3.731317">
        <ele>2254.0</ele>
        <time>2018-07-22T12:51:00Z</time>
      </trkpt>
      <trkpt lat="41.057500" lon="-3.731283">
        <ele>2256.0</ele>
        <time>2018-07-22T12:51:01Z</time>
      </trkpt>
      <trkpt lat="41.057383" lon="-3.731300">
        <ele>2259.0</ele>
        <time>2018-07-22T12:51:02Z</time>
      </trkpt>
      <trkpt lat="41.057267" lon="-3.731333">
        <ele>2261.0</ele>
        <time>2018-07-22T12:51:03Z</time>
      </trkpt>
      <trkpt lat="41.057167" lon="-3.731400">
        <ele>2263.0</ele>
        <time>2018-07-22T12:51:04Z</time>
      </trkpt>
      <trkpt lat="41.057083" lon="-3.731483">
        <ele>2265.0</ele>
        <time>2018-07-22T12:51:05Z</time>
      </trkpt>
      <trkpt lat="41.057017" lon="-3.731583">
        <ele>2266.0</ele>
        <time>2018-07-22T12:51:06Z</time>
      </trkpt>
      <trkpt lat="41.056967" lon="-3.731700">
        <ele>2269.0</ele>
        <time>2018-07-22T12:51:07Z</time>
      </trkpt>
      <trkpt lat="41.056950" lon="-3.731800">
        <ele>2272.0</ele>
        <time>2018-07-22T12:51:08Z</time>
      </trkpt>
      <trkpt lat="41.056967" lon="-3.731900">
        <ele>2274.0</ele>
        <time>2018-07-22T12:51:09Z</time>
      </trkpt>
      <trkpt lat="41.056983" lon="-3.731983">
        <ele>2275.0</ele>
        <time>2018-07-22T12:51:10Z</time>
      </trkpt>
      <trkpt lat="41.057017" lon="-3.732050">
        <ele>2277.0</ele>
        <time>2018-07-22T12:51:11Z</time>
      </trkpt>
      <trkpt lat="41.057083" lon="-3.732100">
        <ele>2277.0</ele>
        <time>2018-07-22T12:51:12Z</time>
      </trkpt>
      <trkpt lat="41.057150" lon="-3.732117">
        <ele>2277.0</ele>
        <time>2018-07-22T12:51:13Z</time>
      </trkpt>
      <trkpt lat="41.057233" lon="-3.732083">
        <ele>2277.0</ele>
        <time>2018-07-22T12:51:14Z</time>
      </trkpt>
      <trkpt lat="41.057317" lon="-3.732017">
        <ele>2276.0</ele>
        <time>2018-07-22T12:51:15Z</time>
      </trkpt>
      <trkpt lat="41.057400" lon="-3.731900">
        <ele>2277.0</ele>
        <time>2018-07-22T12:51:16Z</time>
      </trkpt>
      <trkpt lat="41.057467" lon="-3.731767">
        <ele>2279.0</ele>
        <time>2018-07-22T12:51:17Z</time>
      </trkpt>
      <trkpt lat="41.057500" lon="-3.731633">
        <ele>2281.0</ele>
        <time>2018-07-22T12:51:18Z</time>
      </trkpt>
      <trkpt lat="41.057517" lon="-3.731467">
        <ele>2283.0</ele>
        <time>2018-07-22T12:51:19Z</time>
      </trkpt>
      <trkpt lat="41.057517" lon="-3.731300">
        <ele>2283.0</ele>
        <time>2018-07-22T12:51:20Z</time>
      </trkpt>
      <trkpt lat="41.057483" lon="-3.731133">
        <ele>2284.0</ele>
        <time>2018-07-22T12:51:21Z</time>
      </trkpt>
      <trkpt lat="41.057417" lon="-3.730983">
        <ele>2285.0</ele>
        <time>2018-07-22T12:51:22Z</time>
      </trkpt>
      <trkpt lat="41.057333" lon="-3.730850">
        <ele>2286.0</ele>
        <time>2018-07-22T12:51:23Z</time>
      </trkpt>
      <trkpt lat="41.057233" lon="-3.730750">
        <ele>2289.0</ele>
        <time>2018-07-22T12:51:24Z</time>
      </trkpt>
      <trkpt lat="41.057117" lon="-3.730667">
        <ele>2291.0</ele>
        <time>2018-07-22T12:51:25Z</time>
      </trkpt>
      <trkpt lat="41.057000" lon="-3.730600">
        <ele>2294.0</ele>
        <time>2018-07-22T12:51:26Z</time>
      </trkpt>
      <trkpt lat="41.056883" lon="-3.730550">
        <ele>2296.0</ele>
        <time>2018-07-22T12:51:27Z</time>
      </trkpt>
      <trkpt lat="41.056767" lon="-3.730533">
        <ele>2297.0</ele>
        <time>2018-07-22T12:51:28Z</time>
      </trkpt>
      <trkpt lat="41.056650" lon="-3.730533">
        <ele>2299.0</ele>
        <time>2018-07-22T12:51:29Z</time>
      </trkpt>
      <trkpt lat="41.056533" lon="-3.730583">
        <ele>2301.0</ele>
        <time>2018-07-22T12:51:30Z</time>
      </trkpt>
      <trkpt lat="41.056433" lon="-3.730650">
        <ele>2303.0</ele>
        <time>2018-07-22T12:51:31Z</time>
      </trkpt>
      <trkpt lat="41.056367" lon="-3.730750">
        <ele>2306.0</ele>
        <time>2018-07-22T12:51:32Z</time>
      </trkpt>
      <trkpt lat="41.056333" lon="-3.730850">
        <ele>2308.0</ele>
        <time>2018-07-22T12:51:33Z</time>
      </trkpt>
      <trkpt lat="41.056300" lon="-3.730950">
        <ele>2310.0</ele>
        <time>2018-07-22T12:51:34Z</time>
      </trkpt>
      <trkpt lat="41.056300" lon="-3.731067">
        <ele>2310.0</ele>
        <time>2018-07-22T12:51:35Z</time>
      </trkpt>
      <trkpt lat="41.056317" lon="-3.731167">
        <ele>2311.0</ele>
        <time>2018-07-22T12:51:36Z</time>
      </trkpt>
      <trkpt lat="41.056350" lon="-3.731267">
        <ele>2313.0</ele>
        <time>2018-07-22T12:51:37Z</time>
      </trkpt>
      <trkpt lat="41.056383" lon="-3.731333">
        <ele>2315.0</ele>
        <time>2018-07-22T12:51:38Z</time>
      </trkpt>
      <trkpt lat="41.056433" lon="-3.731383">
        <ele>2316.0</ele>
        <time>2018-07-22T12:51:39Z</time>
      </trkpt>
      <trkpt lat="41.056500" lon="-3.731400">
        <ele>2317.0</ele>
        <time>2018-07-22T12:51:40Z</time>
      </trkpt>
      <trkpt lat="41.056567" lon="-3.731417">
        <ele>2317.0</ele>
        <time>2018-07-22T12:51:41Z</time>
      </trkpt>
      <trkpt lat="41.056633" lon="-3.731400">
        <ele>2318.0</ele>
        <time>2018-07-22T12:51:42Z</time>
      </trkpt>
      <trkpt lat="41.056717" lon="-3.731367">
        <ele>2319.0</ele>
        <time>2018-07-22T12:51:43Z</time>
      </trkpt>
      <trkpt lat="41.056783" lon="-3.731300">
        <ele>2320.0</ele>
        <time>2018-07-22T12:51:44Z</time>
      </trkpt>
      <trkpt lat="41.056833" lon="-3.731200">
        <ele>2322.0</ele>
        <time>2018-07-22T12:51:45Z</time>
      </trkpt>
      <trkpt lat="41.056883" lon="-3.731067">
        <ele>2324.0</ele>
        <time>2018-07-22T12:51:46Z</time>
      </trkpt>
      <trkpt lat="41.056900" lon="-3.730917">
        <ele>2327.0</ele>
        <time>2018-07-22T12:51:47Z</time>
      </trkpt>
      <trkpt lat="41.056883" lon="-3.730767">
        <ele>2329.0</ele>
        <time>2018-07-22T12:51:48Z</time>
      </trkpt>
      <trkpt lat="41.056850" lon="-3.730600">
        <ele>2331.0</ele>
        <time>2018-07-22T12:51:49Z</time>
      </trkpt>
      <trkpt lat="41.056800" lon="-3.730433">
        <ele>2333.0</ele>
        <time>2018-07-22T12:51:50Z</time>
      </trkpt>
      <trkpt lat="41.056733" lon="-3.730300">
        <ele>2334.0</ele>
        <time>2018-07-22T12:51:51Z</time>
      </trkpt>
      <trkpt lat="41.056633" lon="-3.730200">
        <ele>2335.0</ele>
        <time>2018-07-22T12:51:52Z</time>
      </trkpt>
      <trkpt lat="41.056533" lon="-3.730117">
        <ele>2336.0</ele>
        <time>2018-07-22T12:51:53Z</time>
      </trkpt>
      <trkpt lat="41.056417" lon="-3.730067">
        <ele>2336.0</ele>
        <time>2018-07-22T12:51:54Z</time>
      </trkpt>
      <trkpt lat="41.056300" lon="-3.730033">
        <ele>2337.0</ele>
        <time>2018-07-22T12:51:55Z</time>
      </trkpt>
      <trkpt lat="41.056183" lon="-3.730050">
        <ele>2338.0</ele>
        <time>2018-07-22T12:51:56Z</time>
      </trkpt>
      <trkpt lat="41.056083" lon="-3.730083">
        <ele>2339.0</ele>
        <time>2018-07-22T12:51:57Z</time>
      </trkpt>
      <trkpt lat="41.056017" lon="-3.730150">
        <ele>2341.0</ele>
        <time>2018-07-22T12:51:58Z</time>
      </trkpt>
      <trkpt lat="41.055950" lon="-3.730217">
        <ele>2342.0</ele>
        <time>2018-07-22T12:51:59Z</time>
      </trkpt>
      <trkpt lat="41.055917" lon="-3.730300">
        <ele>2343.0</ele>
        <time>2018-07-22T12:52:00Z</time>
      </trkpt>
      <trkpt lat="41.055883" lon="-3.730367">
        <ele>2343.0</ele>
        <time>2018-07-22T12:52:01Z</time>
      </trkpt>
      <trkpt lat="41.055850" lon="-3.730450">
        <ele>2343.0</ele>
        <time>2018-07-22T12:52:02Z</time>
      </trkpt>
      <trkpt lat="41.055817" lon="-3.730533">
        <ele>2343.0</ele>
        <time>2018-07-22T12:52:03Z</time>
      </trkpt>
      <trkpt lat="41.055783" lon="-3.730633">
        <ele>2342.0</ele>
        <time>2018-07-22T12:52:04Z</time>
      </trkpt>
      <trkpt lat="41.055750" lon="-3.730733">
        <ele>2342.0</ele>
        <time>2018-07-22T12:52:05Z</time>
      </trkpt>
      <trkpt lat="41.055700" lon="-3.730850">
        <ele>2342.0</ele>
        <time>2018-07-22T12:52:06Z</time>
      </trkpt>
      <trkpt lat="41.055667" lon="-3.730950">
        <ele>2343.0</ele>
        <time>2018-07-22T12:52:07Z</time>
      </trkpt>
      <trkpt lat="41.055633" lon="-3.731050">
        <ele>2344.0</ele>
        <time>2018-07-22T12:52:08Z</time>
      </trkpt>
      <trkpt lat="41.055583" lon="-3.731150">
        <ele>2345.0</ele>
        <time>2018-07-22T12:52:09Z</time>
      </trkpt>
      <trkpt lat="41.055550" lon="-3.731233">
        <ele>2345.0</ele>
        <time>2018-07-22T12:52:10Z</time>
      </trkpt>
      <trkpt lat="41.055500" lon="-3.731333">
        <ele>2346.0</ele>
        <time>2018-07-22T12:52:11Z</time>
      </trkpt>
      <trkpt lat="41.055450" lon="-3.731417">
        <ele>2347.0</ele>
        <time>2018-07-22T12:52:12Z</time>
      </trkpt>
      <trkpt lat="41.055417" lon="-3.731517">
        <ele>2348.0</ele>
        <time>2018-07-22T12:52:13Z</time>
      </trkpt>
      <trkpt lat="41.055367" lon="-3.731600">
        <ele>2349.0</ele>
        <time>2018-07-22T12:52:14Z</time>
      </trkpt>
      <trkpt lat="41.055333" lon="-3.731683">
        <ele>2349.0</ele>
        <time>2018-07-22T12:52:15Z</time>
      </trkpt>
      <trkpt lat="41.055283" lon="-3.731783">
        <ele>2349.0</ele>
        <time>2018-07-22T12:52:16Z</time>
      </trkpt>
      <trkpt lat="41.055217" lon="-3.731883">
        <ele>2350.0</ele>
        <time>2018-07-22T12:52:17Z</time>
      </trkpt>
      <trkpt lat="41.055167" lon="-3.731967">
        <ele>2350.0</ele>
        <time>2018-07-22T12:52:18Z</time>
      </trkpt>
      <trkpt lat="41.055117" lon="-3.732067">
        <ele>2351.0</ele>
        <time>2018-07-22T12:52:19Z</time>
      </trkpt>
      <trkpt lat="41.055067" lon="-3.732150">
        <ele>2352.0</ele>
        <time>2018-07-22T12:52:20Z</time>
      </trkpt>
      <trkpt lat="41.055017" lon="-3.732233">
        <ele>2353.0</ele>
        <time>2018-07-22T12:52:21Z</time>
      </trkpt>
      <trkpt lat="41.054967" lon="-3.732300">
        <ele>2353.0</ele>
        <time>2018-07-22T12:52:22Z</time>
      </trkpt>
      <trkpt lat="41.054900" lon="-3.732383">
        <ele>2353.0</ele>
        <time>2018-07-22T12:52:23Z</time>
      </trkpt>
      <trkpt lat="41.054833" lon="-3.732450">
        <ele>2353.0</ele>
        <time>2018-07-22T12:52:24Z</time>
      </trkpt>
      <trkpt lat="41.054783" lon="-3.732550">
        <ele>2353.0</ele>
        <time>2018-07-22T12:52:25Z</time>
      </trkpt>
      <trkpt lat="41.054750" lon="-3.732633">
        <ele>2354.0</ele>
        <time>2018-07-22T12:52:26Z</time>
      </trkpt>
      <trkpt lat="41.054700" lon="-3.732733">
        <ele>2354.0</ele>
        <time>2018-07-22T12:52:27Z</time>
      </trkpt>
      <trkpt lat="41.054650" lon="-3.732817">
        <ele>2354.0</ele>
        <time>2018-07-22T12:52:28Z</time>
      </trkpt>
      <trkpt lat="41.054583" lon="-3.732900">
        <ele>2354.0</ele>
        <time>2018-07-22T12:52:29Z</time>
      </trkpt>
      <trkpt lat="41.054517" lon="-3.732983">
        <ele>2355.0</ele>
        <time>2018-07-22T12:52:30Z</time>
      </trkpt>
      <trkpt lat="41.054450" lon="-3.733067">
        <ele>2355.0</ele>
        <time>2018-07-22T12:52:31Z</time>
      </trkpt>
      <trkpt lat="41.054400" lon="-3.733150">
        <ele>2355.0</ele>
        <time>2018-07-22T12:52:32Z</time>
      </trkpt>
      <trkpt lat="41.054333" lon="-3.733250">
        <ele>2355.0</ele>
        <time>2018-07-22T12:52:33Z</time>
      </trkpt>
      <trkpt lat="41.054283" lon="-3.733333">
        <ele>2355.0</ele>
        <time>2018-07-22T12:52:34Z</time>
      </trkpt>
      <trkpt lat="41.054217" lon="-3.733417">
        <ele>2356.0</ele>
        <time>2018-07-22T12:52:35Z</time>
      </trkpt>
      <trkpt lat="41.054167" lon="-3.733500">
        <ele>2356.0</ele>
        <time>2018-07-22T12:52:36Z</time>
      </trkpt>
      <trkpt lat="41.054117" lon="-3.733600">
        <ele>2356.0</ele>
        <time>2018-07-22T12:52:37Z</time>
      </trkpt>
      <trkpt lat="41.054083" lon="-3.733700">
        <ele>2356.0</ele>
        <time>2018-07-22T12:52:38Z</time>
      </trkpt>
      <trkpt lat="41.054050" lon="-3.733783">
        <ele>2356.0</ele>
        <time>2018-07-22T12:52:39Z</time>
      </trkpt>
      <trkpt lat="41.054017" lon="-3.733883">
        <ele>2355.0</ele>
        <time>2018-07-22T12:52:40Z</time>
      </trkpt>
      <trkpt lat="41.053967" lon="-3.733967">
        <ele>2355.0</ele>
        <time>2018-07-22T12:52:41Z</time>
      </trkpt>
      <trkpt lat="41.053917" lon="-3.734050">
        <ele>2354.0</ele>
        <time>2018-07-22T12:52:42Z</time>
      </trkpt>
      <trkpt lat="41.053883" lon="-3.734133">
        <ele>2354.0</ele>
        <time>2018-07-22T12:52:43Z</time>
      </trkpt>
      <trkpt lat="41.053833" lon="-3.734217">
        <ele>2354.0</ele>
        <time>2018-07-22T12:52:44Z</time>
      </trkpt>
      <trkpt lat="41.053783" lon="-3.734300">
        <ele>2354.0</ele>
        <time>2018-07-22T12:52:45Z</time>
      </trkpt>
      <trkpt lat="41.053750" lon="-3.734383">
        <ele>2354.0</ele>
        <time>2018-07-22T12:52:46Z</time>
      </trkpt>
      <trkpt lat="41.053700" lon="-3.734467">
        <ele>2353.0</ele>
        <time>2018-07-22T12:52:47Z</time>
      </trkpt>
      <trkpt lat="41.053667" lon="-3.734550">
        <ele>2353.0</ele>
        <time>2018-07-22T12:52:48Z</time>
      </trkpt>
      <trkpt lat="41.053650" lon="-3.734633">
        <ele>2353.0</ele>
        <time>2018-07-22T12:52:49Z</time>
      </trkpt>
      <trkpt lat="41.053650" lon="-3.734733">
        <ele>2354.0</ele>
        <time>2018-07-22T12:52:50Z</time>
      </trkpt>
      <trkpt lat="41.053650" lon="-3.734833">
        <ele>2354.0</ele>
        <time>2018-07-22T12:52:51Z</time>
      </trkpt>
      <trkpt lat="41.053633" lon="-3.734933">
        <ele>2354.0</ele>
        <time>2018-07-22T12:52:52Z</time>
      </trkpt>
      <trkpt lat="41.053617" lon="-3.735017">
        <ele>2354.0</ele>
        <time>2018-07-22T12:52:53Z</time>
      </trkpt>
      <trkpt lat="41.053617" lon="-3.735083">
        <ele>2355.0</ele>
        <time>2018-07-22T12:52:54Z</time>
      </trkpt>
      <trkpt lat="41.053617" lon="-3.735150">
        <ele>2355.0</ele>
        <time>2018-07-22T12:52:55Z</time>
      </trkpt>
      <trkpt lat="41.053617" lon="-3.735217">
        <ele>2355.0</ele>
        <time>2018-07-22T12:52:56Z</time>
      </trkpt>
      <trkpt lat="41.053600" lon="-3.735283">
        <ele>2354.0</ele>
        <time>2018-07-22T12:52:57Z</time>
      </trkpt>
      <trkpt lat="41.053567" lon="-3.735367">
        <ele>2352.0</ele>
        <time>2018-07-22T12:52:58Z</time>
      </trkpt>
      <trkpt lat="41.053517" lon="-3.735450">
        <ele>2351.0</ele>
        <time>2018-07-22T12:52:59Z</time>
      </trkpt>
      <trkpt lat="41.053483" lon="-3.735533">
        <ele>2351.0</ele>
        <time>2018-07-22T12:53:00Z</time>
      </trkpt>
      <trkpt lat="41.053450" lon="-3.735617">
        <ele>2353.0</ele>
        <time>2018-07-22T12:53:01Z</time>
      </trkpt>
      <trkpt lat="41.053417" lon="-3.735683">
        <ele>2355.0</ele>
        <time>2018-07-22T12:53:02Z</time>
      </trkpt>
      <trkpt lat="41.053350" lon="-3.735733">
        <ele>2355.0</ele>
        <time>2018-07-22T12:53:03Z</time>
      </trkpt>
      <trkpt lat="41.053283" lon="-3.735767">
        <ele>2354.0</ele>
        <time>2018-07-22T12:53:04Z</time>
      </trkpt>
      <trkpt lat="41.053217" lon="-3.735800">
        <ele>2353.0</ele>
        <time>2018-07-22T12:53:05Z</time>
      </trkpt>
      <trkpt lat="41.053133" lon="-3.735850">
        <ele>2352.0</ele>
        <time>2018-07-22T12:53:06Z</time>
      </trkpt>
      <trkpt lat="41.053050" lon="-3.735900">
        <ele>2350.0</ele>
        <time>2018-07-22T12:53:07Z</time>
      </trkpt>
      <trkpt lat="41.052983" lon="-3.735950">
        <ele>2348.0</ele>
        <time>2018-07-22T12:53:08Z</time>
      </trkpt>
      <trkpt lat="41.052900" lon="-3.736017">
        <ele>2347.0</ele>
        <time>2018-07-22T12:53:09Z</time>
      </trkpt>
      <trkpt lat="41.052800" lon="-3.736083">
        <ele>2346.0</ele>
        <time>2018-07-22T12:53:10Z</time>
      </trkpt>
      <trkpt lat="41.052717" lon="-3.736150">
        <ele>2346.0</ele>
        <time>2018-07-22T12:53:11Z</time>
      </trkpt>
      <trkpt lat="41.052633" lon="-3.736217">
        <ele>2346.0</ele>
        <time>2018-07-22T12:53:12Z</time>
      </trkpt>
      <trkpt lat="41.052550" lon="-3.736267">
        <ele>2346.0</ele>
        <time>2018-07-22T12:53:13Z</time>
      </trkpt>
      <trkpt lat="41.052483" lon="-3.736333">
        <ele>2346.0</ele>
        <time>2018-07-22T12:53:14Z</time>
      </trkpt>
      <trkpt lat="41.052400" lon="-3.736417">
        <ele>2346.0</ele>
        <time>2018-07-22T12:53:15Z</time>
      </trkpt>
      <trkpt lat="41.052333" lon="-3.736500">
        <ele>2346.0</ele>
        <time>2018-07-22T12:53:16Z</time>
      </trkpt>
      <trkpt lat="41.052283" lon="-3.736583">
        <ele>2345.0</ele>
        <time>2018-07-22T12:53:17Z</time>
      </trkpt>
      <trkpt lat="41.052217" lon="-3.736667">
        <ele>2345.0</ele>
        <time>2018-07-22T12:53:18Z</time>
      </trkpt>
      <trkpt lat="41.052133" lon="-3.736750">
        <ele>2344.0</ele>
        <time>2018-07-22T12:53:19Z</time>
      </trkpt>
      <trkpt lat="41.052067" lon="-3.736817">
        <ele>2343.0</ele>
        <time>2018-07-22T12:53:20Z</time>
      </trkpt>
      <trkpt lat="41.051983" lon="-3.736900">
        <ele>2343.0</ele>
        <time>2018-07-22T12:53:21Z</time>
      </trkpt>
      <trkpt lat="41.051917" lon="-3.736983">
        <ele>2342.0</ele>
        <time>2018-07-22T12:53:22Z</time>
      </trkpt>
      <trkpt lat="41.051833" lon="-3.737083">
        <ele>2342.0</ele>
        <time>2018-07-22T12:53:23Z</time>
      </trkpt>
      <trkpt lat="41.051767" lon="-3.737167">
        <ele>2342.0</ele>
        <time>2018-07-22T12:53:24Z</time>
      </trkpt>
      <trkpt lat="41.051717" lon="-3.737250">
        <ele>2341.0</ele>
        <time>2018-07-22T12:53:25Z</time>
      </trkpt>
      <trkpt lat="41.051650" lon="-3.737317">
        <ele>2341.0</ele>
        <time>2018-07-22T12:53:26Z</time>
      </trkpt>
      <trkpt lat="41.051567" lon="-3.737417">
        <ele>2340.0</ele>
        <time>2018-07-22T12:53:27Z</time>
      </trkpt>
      <trkpt lat="41.051500" lon="-3.737483">
        <ele>2339.0</ele>
        <time>2018-07-22T12:53:28Z</time>
      </trkpt>
      <trkpt lat="41.051433" lon="-3.737567">
        <ele>2338.0</ele>
        <time>2018-07-22T12:53:29Z</time>
      </trkpt>
      <trkpt lat="41.051350" lon="-3.737667">
        <ele>2337.0</ele>
        <time>2018-07-22T12:53:30Z</time>
      </trkpt>
      <trkpt lat="41.051283" lon="-3.737783">
        <ele>2336.0</ele>
        <time>2018-07-22T12:53:31Z</time>
      </trkpt>
      <trkpt lat="41.051233" lon="-3.737883">
        <ele>2335.0</ele>
        <time>2018-07-22T12:53:32Z</time>
      </trkpt>
      <trkpt lat="41.051183" lon="-3.738000">
        <ele>2335.0</ele>
        <time>2018-07-22T12:53:33Z</time>
      </trkpt>
      <trkpt lat="41.051117" lon="-3.738100">
        <ele>2335.0</ele>
        <time>2018-07-22T12:53:34Z</time>
      </trkpt>
      <trkpt lat="41.051067" lon="-3.738200">
        <ele>2333.0</ele>
        <time>2018-07-22T12:53:35Z</time>
      </trkpt>
      <trkpt lat="41.051017" lon="-3.738317">
        <ele>2331.0</ele>
        <time>2018-07-22T12:53:36Z</time>
      </trkpt>
      <trkpt lat="41.050967" lon="-3.738450">
        <ele>2329.0</ele>
        <time>2018-07-22T12:53:37Z</time>
      </trkpt>
      <trkpt lat="41.050917" lon="-3.738567">
        <ele>2329.0</ele>
        <time>2018-07-22T12:53:38Z</time>
      </trkpt>
      <trkpt lat="41.050867" lon="-3.738683">
        <ele>2328.0</ele>
        <time>2018-07-22T12:53:39Z</time>
      </trkpt>
      <trkpt lat="41.050817" lon="-3.738800">
        <ele>2327.0</ele>
        <time>2018-07-22T12:53:40Z</time>
      </trkpt>
      <trkpt lat="41.050783" lon="-3.738900">
        <ele>2325.0</ele>
        <time>2018-07-22T12:53:41Z</time>
      </trkpt>
      <trkpt lat="41.050750" lon="-3.739017">
        <ele>2324.0</ele>
        <time>2018-07-22T12:53:42Z</time>
      </trkpt>
      <trkpt lat="41.050717" lon="-3.739133">
        <ele>2322.0</ele>
        <time>2018-07-22T12:53:43Z</time>
      </trkpt>
      <trkpt lat="41.050683" lon="-3.739267">
        <ele>2320.0</ele>
        <time>2018-07-22T12:53:44Z</time>
      </trkpt>
      <trkpt lat="41.050633" lon="-3.739383">
        <ele>2319.0</ele>
        <time>2018-07-22T12:53:45Z</time>
      </trkpt>
      <trkpt lat="41.050600" lon="-3.739500">
        <ele>2319.0</ele>
        <time>2018-07-22T12:53:46Z</time>
      </trkpt>
      <trkpt lat="41.050550" lon="-3.739600">
        <ele>2320.0</ele>
        <time>2018-07-22T12:53:47Z</time>
      </trkpt>
      <trkpt lat="41.050517" lon="-3.739700">
        <ele>2320.0</ele>
        <time>2018-07-22T12:53:48Z</time>
      </trkpt>
      <trkpt lat="41.050483" lon="-3.739783">
        <ele>2319.0</ele>
        <time>2018-07-22T12:53:49Z</time>
      </trkpt>
      <trkpt lat="41.050433" lon="-3.739883">
        <ele>2317.0</ele>
        <time>2018-07-22T12:53:50Z</time>
      </trkpt>
      <trkpt lat="41.050367" lon="-3.739967">
        <ele>2315.0</ele>
        <time>2018-07-22T12:53:51Z</time>
      </trkpt>
      <trkpt lat="41.050300" lon="-3.740067">
        <ele>2313.0</ele>
        <time>2018-07-22T12:53:52Z</time>
      </trkpt>
      <trkpt lat="41.050217" lon="-3.740167">
        <ele>2313.0</ele>
        <time>2018-07-22T12:53:53Z</time>
      </trkpt>
      <trkpt lat="41.050150" lon="-3.740267">
        <ele>2313.0</ele>
        <time>2018-07-22T12:53:54Z</time>
      </trkpt>
      <trkpt lat="41.050083" lon="-3.740350">
        <ele>2313.0</ele>
        <time>2018-07-22T12:53:55Z</time>
      </trkpt>
      <trkpt lat="41.050017" lon="-3.740433">
        <ele>2312.0</ele>
        <time>2018-07-22T12:53:56Z</time>
      </trkpt>
      <trkpt lat="41.049950" lon="-3.740500">
        <ele>2312.0</ele>
        <time>2018-07-22T12:53:57Z</time>
      </trkpt>
      <trkpt lat="41.049900" lon="-3.740583">
        <ele>2311.0</ele>
        <time>2018-07-22T12:53:58Z</time>
      </trkpt>
      <trkpt lat="41.049817" lon="-3.740650">
        <ele>2310.0</ele>
        <time>2018-07-22T12:53:59Z</time>
      </trkpt>
      <trkpt lat="41.049750" lon="-3.740733">
        <ele>2308.0</ele>
        <time>2018-07-22T12:54:00Z</time>
      </trkpt>
      <trkpt lat="41.049683" lon="-3.740800">
        <ele>2307.0</ele>
        <time>2018-07-22T12:54:01Z</time>
      </trkpt>
      <trkpt lat="41.049600" lon="-3.740883">
        <ele>2305.0</ele>
        <time>2018-07-22T12:54:02Z</time>
      </trkpt>
      <trkpt lat="41.049533" lon="-3.740950">
        <ele>2304.0</ele>
        <time>2018-07-22T12:54:03Z</time>
      </trkpt>
      <trkpt lat="41.049450" lon="-3.741017">
        <ele>2303.0</ele>
        <time>2018-07-22T12:54:04Z</time>
      </trkpt>
      <trkpt lat="41.049383" lon="-3.741083">
        <ele>2301.0</ele>
        <time>2018-07-22T12:54:05Z</time>
      </trkpt>
      <trkpt lat="41.049317" lon="-3.741167">
        <ele>2298.0</ele>
        <time>2018-07-22T12:54:06Z</time>
      </trkpt>
      <trkpt lat="41.049233" lon="-3.741233">
        <ele>2296.0</ele>
        <time>2018-07-22T12:54:07Z</time>
      </trkpt>
      <trkpt lat="41.049150" lon="-3.741333">
        <ele>2294.0</ele>
        <time>2018-07-22T12:54:08Z</time>
      </trkpt>
      <trkpt lat="41.049050" lon="-3.741400">
        <ele>2293.0</ele>
        <time>2018-07-22T12:54:09Z</time>
      </trkpt>
      <trkpt lat="41.048967" lon="-3.741483">
        <ele>2293.0</ele>
        <time>2018-07-22T12:54:10Z</time>
      </trkpt>
      <trkpt lat="41.048883" lon="-3.741550">
        <ele>2294.0</ele>
        <time>2018-07-22T12:54:11Z</time>
      </trkpt>
      <trkpt lat="41.048800" lon="-3.741617">
        <ele>2295.0</ele>
        <time>2018-07-22T12:54:12Z</time>
      </trkpt>
      <trkpt lat="41.048717" lon="-3.741683">
        <ele>2296.0</ele>
        <time>2018-07-22T12:54:13Z</time>
      </trkpt>
      <trkpt lat="41.048650" lon="-3.741750">
        <ele>2296.0</ele>
        <time>2018-07-22T12:54:14Z</time>
      </trkpt>
      <trkpt lat="41.048567" lon="-3.741800">
        <ele>2296.0</ele>
        <time>2018-07-22T12:54:15Z</time>
      </trkpt>
      <trkpt lat="41.048500" lon="-3.741883">
        <ele>2295.0</ele>
        <time>2018-07-22T12:54:16Z</time>
      </trkpt>
      <trkpt lat="41.048417" lon="-3.741967">
        <ele>2294.0</ele>
        <time>2018-07-22T12:54:17Z</time>
      </trkpt>
      <trkpt lat="41.048350" lon="-3.742067">
        <ele>2294.0</ele>
        <time>2018-07-22T12:54:18Z</time>
      </trkpt>
      <trkpt lat="41.048283" lon="-3.742133">
        <ele>2295.0</ele>
        <time>2018-07-22T12:54:19Z</time>
      </trkpt>
      <trkpt lat="41.048200" lon="-3.742200">
        <ele>2296.0</ele>
        <time>2018-07-22T12:54:20Z</time>
      </trkpt>
      <trkpt lat="41.048133" lon="-3.742267">
        <ele>2297.0</ele>
        <time>2018-07-22T12:54:21Z</time>
      </trkpt>
      <trkpt lat="41.048067" lon="-3.742350">
        <ele>2297.0</ele>
        <time>2018-07-22T12:54:22Z</time>
      </trkpt>
      <trkpt lat="41.048017" lon="-3.742417">
        <ele>2297.0</ele>
        <time>2018-07-22T12:54:23Z</time>
      </trkpt>
      <trkpt lat="41.047967" lon="-3.742500">
        <ele>2296.0</ele>
        <time>2018-07-22T12:54:24Z</time>
      </trkpt>
      <trkpt lat="41.047917" lon="-3.742567">
        <ele>2295.0</ele>
        <time>2018-07-22T12:54:25Z</time>
      </trkpt>
      <trkpt lat="41.047867" lon="-3.742633">
        <ele>2292.0</ele>
        <time>2018-07-22T12:54:26Z</time>
      </trkpt>
      <trkpt lat="41.047833" lon="-3.742717">
        <ele>2289.0</ele>
        <time>2018-07-22T12:54:27Z</time>
      </trkpt>
      <trkpt lat="41.047783" lon="-3.742817">
        <ele>2286.0</ele>
        <time>2018-07-22T12:54:28Z</time>
      </trkpt>
      <trkpt lat="41.047733" lon="-3.742917">
        <ele>2284.0</ele>
        <time>2018-07-22T12:54:29Z</time>
      </trkpt>
      <trkpt lat="41.047700" lon="-3.743017">
        <ele>2282.0</ele>
        <time>2018-07-22T12:54:30Z</time>
      </trkpt>
      <trkpt lat="41.047650" lon="-3.743100">
        <ele>2280.0</ele>
        <time>2018-07-22T12:54:31Z</time>
      </trkpt>
      <trkpt lat="41.047600" lon="-3.743183">
        <ele>2277.0</ele>
        <time>2018-07-22T12:54:32Z</time>
      </trkpt>
      <trkpt lat="41.047550" lon="-3.743267">
        <ele>2274.0</ele>
        <time>2018-07-22T12:54:33Z</time>
      </trkpt>
      <trkpt lat="41.047500" lon="-3.743367">
        <ele>2269.0</ele>
        <time>2018-07-22T12:54:34Z</time>
      </trkpt>
      <trkpt lat="41.047450" lon="-3.743467">
        <ele>2266.0</ele>
        <time>2018-07-22T12:54:35Z</time>
      </trkpt>
      <trkpt lat="41.047400" lon="-3.743567">
        <ele>2264.0</ele>
        <time>2018-07-22T12:54:36Z</time>
      </trkpt>
      <trkpt lat="41.047350" lon="-3.743667">
        <ele>2262.0</ele>
        <time>2018-07-22T12:54:37Z</time>
      </trkpt>
      <trkpt lat="41.047300" lon="-3.743733">
        <ele>2260.0</ele>
        <time>2018-07-22T12:54:38Z</time>
      </trkpt>
      <trkpt lat="41.047233" lon="-3.743800">
        <ele>2257.0</ele>
        <time>2018-07-22T12:54:39Z</time>
      </trkpt>
      <trkpt lat="41.047167" lon="-3.743867">
        <ele>2253.0</ele>
        <time>2018-07-22T12:54:40Z</time>
      </trkpt>
      <trkpt lat="41.047083" lon="-3.743933">
        <ele>2250.0</ele>
        <time>2018-07-22T12:54:41Z</time>
      </trkpt>
      <trkpt lat="41.047000" lon="-3.743983">
        <ele>2248.0</ele>
        <time>2018-07-22T12:54:42Z</time>
      </trkpt>
      <trkpt lat="41.046933" lon="-3.744050">
        <ele>2245.0</ele>
        <time>2018-07-22T12:54:43Z</time>
      </trkpt>
      <trkpt lat="41.046867" lon="-3.744133">
        <ele>2241.0</ele>
        <time>2018-07-22T12:54:44Z</time>
      </trkpt>
      <trkpt lat="41.046800" lon="-3.744217">
        <ele>2238.0</ele>
        <time>2018-07-22T12:54:45Z</time>
      </trkpt>
      <trkpt lat="41.046733" lon="-3.744300">
        <ele>2234.0</ele>
        <time>2018-07-22T12:54:46Z</time>
      </trkpt>
      <trkpt lat="41.046650" lon="-3.744417">
        <ele>2230.0</ele>
        <time>2018-07-22T12:54:47Z</time>
      </trkpt>
      <trkpt lat="41.046583" lon="-3.744517">
        <ele>2228.0</ele>
        <time>2018-07-22T12:54:48Z</time>
      </trkpt>
      <trkpt lat="41.046517" lon="-3.744617">
        <ele>2225.0</ele>
        <time>2018-07-22T12:54:49Z</time>
      </trkpt>
      <trkpt lat="41.046433" lon="-3.744733">
        <ele>2223.0</ele>
        <time>2018-07-22T12:54:50Z</time>
      </trkpt>
      <trkpt lat="41.046367" lon="-3.744867">
        <ele>2220.0</ele>
        <time>2018-07-22T12:54:51Z</time>
      </trkpt>
      <trkpt lat="41.046283" lon="-3.745000">
        <ele>2217.0</ele>
        <time>2018-07-22T12:54:52Z</time>
      </trkpt>
      <trkpt lat="41.046217" lon="-3.745133">
        <ele>2215.0</ele>
        <time>2018-07-22T12:54:53Z</time>
      </trkpt>
      <trkpt lat="41.046150" lon="-3.745283">
        <ele>2214.0</ele>
        <time>2018-07-22T12:54:54Z</time>
      </trkpt>
      <trkpt lat="41.046083" lon="-3.745400">
        <ele>2216.0</ele>
        <time>2018-07-22T12:54:55Z</time>
      </trkpt>
      <trkpt lat="41.046017" lon="-3.745483">
        <ele>2218.0</ele>
        <time>2018-07-22T12:54:56Z</time>
      </trkpt>
      <trkpt lat="41.045950" lon="-3.745583">
        <ele>2219.0</ele>
        <time>2018-07-22T12:54:57Z</time>
      </trkpt>
      <trkpt lat="41.045900" lon="-3.745667">
        <ele>2219.0</ele>
        <time>2018-07-22T12:54:58Z</time>
      </trkpt>
      <trkpt lat="41.045833" lon="-3.745750">
        <ele>2218.0</ele>
        <time>2018-07-22T12:54:59Z</time>
      </trkpt>
      <trkpt lat="41.045767" lon="-3.745850">
        <ele>2218.0</ele>
        <time>2018-07-22T12:55:00Z</time>
      </trkpt>
      <trkpt lat="41.045700" lon="-3.745950">
        <ele>2217.0</ele>
        <time>2018-07-22T12:55:01Z</time>
      </trkpt>
      <trkpt lat="41.045633" lon="-3.746050">
        <ele>2216.0</ele>
        <time>2018-07-22T12:55:02Z</time>
      </trkpt>
      <trkpt lat="41.045567" lon="-3.746183">
        <ele>2215.0</ele>
        <time>2018-07-22T12:55:03Z</time>
      </trkpt>
      <trkpt lat="41.045500" lon="-3.746300">
        <ele>2215.0</ele>
        <time>2018-07-22T12:55:04Z</time>
      </trkpt>
      <trkpt lat="41.045450" lon="-3.746433">
        <ele>2215.0</ele>
        <time>2018-07-22T12:55:05Z</time>
      </trkpt>
      <trkpt lat="41.045383" lon="-3.746533">
        <ele>2216.0</ele>
        <time>2018-07-22T12:55:06Z</time>
      </trkpt>
      <trkpt lat="41.045317" lon="-3.746633">
        <ele>2216.0</ele>
        <time>2018-07-22T12:55:07Z</time>
      </trkpt>
      <trkpt lat="41.045250" lon="-3.746733">
        <ele>2216.0</ele>
        <time>2018-07-22T12:55:08Z</time>
      </trkpt>
      <trkpt lat="41.045200" lon="-3.746833">
        <ele>2216.0</ele>
        <time>2018-07-22T12:55:09Z</time>
      </trkpt>
      <trkpt lat="41.045150" lon="-3.746950">
        <ele>2216.0</ele>
        <time>2018-07-22T12:55:10Z</time>
      </trkpt>
      <trkpt lat="41.045083" lon="-3.747067">
        <ele>2215.0</ele>
        <time>2018-07-22T12:55:11Z</time>
      </trkpt>
      <trkpt lat="41.045033" lon="-3.747183">
        <ele>2216.0</ele>
        <time>2018-07-22T12:55:12Z</time>
      </trkpt>
      <trkpt lat="41.044950" lon="-3.747283">
        <ele>2217.0</ele>
        <time>2018-07-22T12:55:13Z</time>
      </trkpt>
      <trkpt lat="41.044883" lon="-3.747383">
        <ele>2219.0</ele>
        <time>2018-07-22T12:55:14Z</time>
      </trkpt>
      <trkpt lat="41.044833" lon="-3.747467">
        <ele>2221.0</ele>
        <time>2018-07-22T12:55:15Z</time>
      </trkpt>
      <trkpt lat="41.044767" lon="-3.747550">
        <ele>2222.0</ele>
        <time>2018-07-22T12:55:16Z</time>
      </trkpt>
      <trkpt lat="41.044717" lon="-3.747633">
        <ele>2223.0</ele>
        <time>2018-07-22T12:55:17Z</time>
      </trkpt>
      <trkpt lat="41.044650" lon="-3.747733">
        <ele>2222.0</ele>
        <time>2018-07-22T12:55:18Z</time>
      </trkpt>
      <trkpt lat="41.044600" lon="-3.747833">
        <ele>2222.0</ele>
        <time>2018-07-22T12:55:19Z</time>
      </trkpt>
      <trkpt lat="41.044533" lon="-3.747950">
        <ele>2221.0</ele>
        <time>2018-07-22T12:55:20Z</time>
      </trkpt>
      <trkpt lat="41.044467" lon="-3.748067">
        <ele>2221.0</ele>
        <time>2018-07-22T12:55:21Z</time>
      </trkpt>
      <trkpt lat="41.044417" lon="-3.748183">
        <ele>2222.0</ele>
        <time>2018-07-22T12:55:22Z</time>
      </trkpt>
      <trkpt lat="41.044350" lon="-3.748283">
        <ele>2223.0</ele>
        <time>2018-07-22T12:55:23Z</time>
      </trkpt>
      <trkpt lat="41.044300" lon="-3.748400">
        <ele>2223.0</ele>
        <time>2018-07-22T12:55:24Z</time>
      </trkpt>
      <trkpt lat="41.044233" lon="-3.748500">
        <ele>2223.0</ele>
        <time>2018-07-22T12:55:25Z</time>
      </trkpt>
      <trkpt lat="41.044183" lon="-3.748633">
        <ele>2224.0</ele>
        <time>2018-07-22T12:55:26Z</time>
      </trkpt>
      <trkpt lat="41.044117" lon="-3.748750">
        <ele>2224.0</ele>
        <time>2018-07-22T12:55:27Z</time>
      </trkpt>
      <trkpt lat="41.044067" lon="-3.748867">
        <ele>2226.0</ele>
        <time>2018-07-22T12:55:28Z</time>
      </trkpt>
      <trkpt lat="41.044000" lon="-3.748967">
        <ele>2229.0</ele>
        <time>2018-07-22T12:55:29Z</time>
      </trkpt>
      <trkpt lat="41.043950" lon="-3.749050">
        <ele>2231.0</ele>
        <time>2018-07-22T12:55:30Z</time>
      </trkpt>
      <trkpt lat="41.043900" lon="-3.749150">
        <ele>2233.0</ele>
        <time>2018-07-22T12:55:31Z</time>
      </trkpt>
      <trkpt lat="41.043850" lon="-3.749233">
        <ele>2233.0</ele>
        <time>2018-07-22T12:55:32Z</time>
      </trkpt>
      <trkpt lat="41.043800" lon="-3.749333">
        <ele>2234.0</ele>
        <time>2018-07-22T12:55:33Z</time>
      </trkpt>
      <trkpt lat="41.043783" lon="-3.749450">
        <ele>2235.0</ele>
        <time>2018-07-22T12:55:34Z</time>
      </trkpt>
      <trkpt lat="41.043800" lon="-3.749567">
        <ele>2235.0</ele>
        <time>2018-07-22T12:55:35Z</time>
      </trkpt>
      <trkpt lat="41.043867" lon="-3.749650">
        <ele>2235.0</ele>
        <time>2018-07-22T12:55:36Z</time>
      </trkpt>
      <trkpt lat="41.043950" lon="-3.749700">
        <ele>2236.0</ele>
        <time>2018-07-22T12:55:37Z</time>
      </trkpt>
      <trkpt lat="41.044033" lon="-3.749717">
        <ele>2239.0</ele>
        <time>2018-07-22T12:55:38Z</time>
      </trkpt>
      <trkpt lat="41.044117" lon="-3.749667">
        <ele>2242.0</ele>
        <time>2018-07-22T12:55:39Z</time>
      </trkpt>
      <trkpt lat="41.044183" lon="-3.749600">
        <ele>2245.0</ele>
        <time>2018-07-22T12:55:40Z</time>
      </trkpt>
      <trkpt lat="41.044250" lon="-3.749517">
        <ele>2247.0</ele>
        <time>2018-07-22T12:55:41Z</time>
      </trkpt>
      <trkpt lat="41.044300" lon="-3.749400">
        <ele>2248.0</ele>
        <time>2018-07-22T12:55:42Z</time>
      </trkpt>
      <trkpt lat="41.044333" lon="-3.749267">
        <ele>2248.0</ele>
        <time>2018-07-22T12:55:43Z</time>
      </trkpt>
      <trkpt lat="41.044350" lon="-3.749117">
        <ele>2249.0</ele>
        <time>2018-07-22T12:55:44Z</time>
      </trkpt>
      <trkpt lat="41.044317" lon="-3.748950">
        <ele>2249.0</ele>
        <time>2018-07-22T12:55:45Z</time>
      </trkpt>
      <trkpt lat="41.044267" lon="-3.748817">
        <ele>2250.0</ele>
        <time>2018-07-22T12:55:46Z</time>
      </trkpt>
      <trkpt lat="41.044183" lon="-3.748700">
        <ele>2251.0</ele>
        <time>2018-07-22T12:55:47Z</time>
      </trkpt>
      <trkpt lat="41.044083" lon="-3.748617">
        <ele>2252.0</ele>
        <time>2018-07-22T12:55:48Z</time>
      </trkpt>
      <trkpt lat="41.043983" lon="-3.748567">
        <ele>2253.0</ele>
        <time>2018-07-22T12:55:49Z</time>
      </trkpt>
      <trkpt lat="41.043883" lon="-3.748533">
        <ele>2253.0</ele>
        <time>2018-07-22T12:55:50Z</time>
      </trkpt>
      <trkpt lat="41.043767" lon="-3.748533">
        <ele>2254.0</ele>
        <time>2018-07-22T12:55:51Z</time>
      </trkpt>
      <trkpt lat="41.043667" lon="-3.748550">
        <ele>2255.0</ele>
        <time>2018-07-22T12:55:52Z</time>
      </trkpt>
      <trkpt lat="41.043567" lon="-3.748600">
        <ele>2257.0</ele>
        <time>2018-07-22T12:55:53Z</time>
      </trkpt>
      <trkpt lat="41.043483" lon="-3.748667">
        <ele>2258.0</ele>
        <time>2018-07-22T12:55:54Z</time>
      </trkpt>
      <trkpt lat="41.043400" lon="-3.748750">
        <ele>2259.0</ele>
        <time>2018-07-22T12:55:55Z</time>
      </trkpt>
      <trkpt lat="41.043350" lon="-3.748867">
        <ele>2260.0</ele>
        <time>2018-07-22T12:55:56Z</time>
      </trkpt>
      <trkpt lat="41.043317" lon="-3.748983">
        <ele>2263.0</ele>
        <time>2018-07-22T12:55:57Z</time>
      </trkpt>
      <trkpt lat="41.043317" lon="-3.749083">
        <ele>2265.0</ele>
        <time>2018-07-22T12:55:58Z</time>
      </trkpt>
      <trkpt lat="41.043333" lon="-3.749167">
        <ele>2267.0</ele>
        <time>2018-07-22T12:55:59Z</time>
      </trkpt>
      <trkpt lat="41.043350" lon="-3.749250">
        <ele>2268.0</ele>
        <time>2018-07-22T12:56:00Z</time>
      </trkpt>
      <trkpt lat="41.043400" lon="-3.749317">
        <ele>2268.0</ele>
        <time>2018-07-22T12:56:01Z</time>
      </trkpt>
      <trkpt lat="41.043483" lon="-3.749367">
        <ele>2268.0</ele>
        <time>2018-07-22T12:56:02Z</time>
      </trkpt>
      <trkpt lat="41.043567" lon="-3.749417">
        <ele>2268.0</ele>
        <time>2018-07-22T12:56:03Z</time>
      </trkpt>
      <trkpt lat="41.043667" lon="-3.749433">
        <ele>2269.0</ele>
        <time>2018-07-22T12:56:04Z</time>
      </trkpt>
      <trkpt lat="41.043783" lon="-3.749383">
        <ele>2271.0</ele>
        <time>2018-07-22T12:56:05Z</time>
      </trkpt>
      <trkpt lat="41.043883" lon="-3.749317">
        <ele>2275.0</ele>
        <time>2018-07-22T12:56:06Z</time>
      </trkpt>
      <trkpt lat="41.043950" lon="-3.749200">
        <ele>2279.0</ele>
        <time>2018-07-22T12:56:07Z</time>
      </trkpt>
      <trkpt lat="41.044000" lon="-3.749083">
        <ele>2282.0</ele>
        <time>2018-07-22T12:56:08Z</time>
      </trkpt>
      <trkpt lat="41.044033" lon="-3.748950">
        <ele>2286.0</ele>
        <time>2018-07-22T12:56:09Z</time>
      </trkpt>
      <trkpt lat="41.044050" lon="-3.748817">
        <ele>2288.0</ele>
        <time>2018-07-22T12:56:10Z</time>
      </trkpt>
      <trkpt lat="41.044050" lon="-3.748667">
        <ele>2290.0</ele>
        <time>2018-07-22T12:56:11Z</time>
      </trkpt>
      <trkpt lat="41.044033" lon="-3.748533">
        <ele>2291.0</ele>
        <time>2018-07-22T12:56:12Z</time>
      </trkpt>
      <trkpt lat="41.044000" lon="-3.748400">
        <ele>2292.0</ele>
        <time>2018-07-22T12:56:13Z</time>
      </trkpt>
      <trkpt lat="41.043933" lon="-3.748283">
        <ele>2293.0</ele>
        <time>2018-07-22T12:56:14Z</time>
      </trkpt>
      <trkpt lat="41.043850" lon="-3.748200">
        <ele>2292.0</ele>
        <time>2018-07-22T12:56:15Z</time>
      </trkpt>
      <trkpt lat="41.043767" lon="-3.748133">
        <ele>2292.0</ele>
        <time>2018-07-22T12:56:16Z</time>
      </trkpt>
      <trkpt lat="41.043650" lon="-3.748100">
        <ele>2292.0</ele>
        <time>2018-07-22T12:56:17Z</time>
      </trkpt>
      <trkpt lat="41.043550" lon="-3.748083">
        <ele>2293.0</ele>
        <time>2018-07-22T12:56:18Z</time>
      </trkpt>
      <trkpt lat="41.043433" lon="-3.748083">
        <ele>2294.0</ele>
        <time>2018-07-22T12:56:19Z</time>
      </trkpt>
      <trkpt lat="41.043333" lon="-3.748117">
        <ele>2296.0</ele>
        <time>2018-07-22T12:56:20Z</time>
      </trkpt>
      <trkpt lat="41.043250" lon="-3.748133">
        <ele>2297.0</ele>
        <time>2018-07-22T12:56:21Z</time>
      </trkpt>
      <trkpt lat="41.043167" lon="-3.748183">
        <ele>2299.0</ele>
        <time>2018-07-22T12:56:22Z</time>
      </trkpt>
      <trkpt lat="41.043083" lon="-3.748250">
        <ele>2300.0</ele>
        <time>2018-07-22T12:56:23Z</time>
      </trkpt>
      <trkpt lat="41.043000" lon="-3.748333">
        <ele>2301.0</ele>
        <time>2018-07-22T12:56:24Z</time>
      </trkpt>
      <trkpt lat="41.042933" lon="-3.748433">
        <ele>2303.0</ele>
        <time>2018-07-22T12:56:25Z</time>
      </trkpt>
      <trkpt lat="41.042883" lon="-3.748533">
        <ele>2306.0</ele>
        <time>2018-07-22T12:56:26Z</time>
      </trkpt>
      <trkpt lat="41.042833" lon="-3.748633">
        <ele>2309.0</ele>
        <time>2018-07-22T12:56:27Z</time>
      </trkpt>
      <trkpt lat="41.042800" lon="-3.748733">
        <ele>2311.0</ele>
        <time>2018-07-22T12:56:28Z</time>
      </trkpt>
      <trkpt lat="41.042767" lon="-3.748817">
        <ele>2313.0</ele>
        <time>2018-07-22T12:56:29Z</time>
      </trkpt>
      <trkpt lat="41.042750" lon="-3.748933">
        <ele>2315.0</ele>
        <time>2018-07-22T12:56:30Z</time>
      </trkpt>
      <trkpt lat="41.042767" lon="-3.749033">
        <ele>2316.0</ele>
        <time>2018-07-22T12:56:31Z</time>
      </trkpt>
      <trkpt lat="41.042817" lon="-3.749150">
        <ele>2318.0</ele>
        <time>2018-07-22T12:56:32Z</time>
      </trkpt>
      <trkpt lat="41.042883" lon="-3.749233">
        <ele>2321.0</ele>
        <time>2018-07-22T12:56:33Z</time>
      </trkpt>
      <trkpt lat="41.042967" lon="-3.749283">
        <ele>2325.0</ele>
        <time>2018-07-22T12:56:34Z</time>
      </trkpt>
      <trkpt lat="41.043033" lon="-3.749317">
        <ele>2329.0</ele>
        <time>2018-07-22T12:56:35Z</time>
      </trkpt>
      <trkpt lat="41.043100" lon="-3.749300">
        <ele>2332.0</ele>
        <time>2018-07-22T12:56:36Z</time>
      </trkpt>
      <trkpt lat="41.043167" lon="-3.749267">
        <ele>2333.0</ele>
        <time>2018-07-22T12:56:37Z</time>
      </trkpt>
      <trkpt lat="41.043250" lon="-3.749200">
        <ele>2332.0</ele>
        <time>2018-07-22T12:56:38Z</time>
      </trkpt>
      <trkpt lat="41.043317" lon="-3.749100">
        <ele>2332.0</ele>
        <time>2018-07-22T12:56:39Z</time>
      </trkpt>
      <trkpt lat="41.043367" lon="-3.748967">
        <ele>2331.0</ele>
        <time>2018-07-22T12:56:40Z</time>
      </trkpt>
      <trkpt lat="41.043383" lon="-3.748800">
        <ele>2332.0</ele>
        <time>2018-07-22T12:56:41Z</time>
      </trkpt>
      <trkpt lat="41.043367" lon="-3.748650">
        <ele>2334.0</ele>
        <time>2018-07-22T12:56:42Z</time>
      </trkpt>
      <trkpt lat="41.043317" lon="-3.748517">
        <ele>2336.0</ele>
        <time>2018-07-22T12:56:43Z</time>
      </trkpt>
      <trkpt lat="41.043250" lon="-3.748417">
        <ele>2338.0</ele>
        <time>2018-07-22T12:56:44Z</time>
      </trkpt>
      <trkpt lat="41.043167" lon="-3.748333">
        <ele>2339.0</ele>
        <time>2018-07-22T12:56:45Z</time>
      </trkpt>
      <trkpt lat="41.043067" lon="-3.748283">
        <ele>2341.0</ele>
        <time>2018-07-22T12:56:46Z</time>
      </trkpt>
      <trkpt lat="41.042967" lon="-3.748267">
        <ele>2342.0</ele>
        <time>2018-07-22T12:56:47Z</time>
      </trkpt>
      <trkpt lat="41.042867" lon="-3.748250">
        <ele>2344.0</ele>
        <time>2018-07-22T12:56:48Z</time>
      </trkpt>
      <trkpt lat="41.042767" lon="-3.748250">
        <ele>2346.0</ele>
        <time>2018-07-22T12:56:49Z</time>
      </trkpt>
      <trkpt lat="41.042667" lon="-3.748250">
        <ele>2349.0</ele>
        <time>2018-07-22T12:56:50Z</time>
      </trkpt>
      <trkpt lat="41.042583" lon="-3.748250">
        <ele>2351.0</ele>
        <time>2018-07-22T12:56:51Z</time>
      </trkpt>
      <trkpt lat="41.042483" lon="-3.748250">
        <ele>2353.0</ele>
        <time>2018-07-22T12:56:52Z</time>
      </trkpt>
      <trkpt lat="41.042400" lon="-3.748283">
        <ele>2355.0</ele>
        <time>2018-07-22T12:56:53Z</time>
      </trkpt>
      <trkpt lat="41.042317" lon="-3.748317">
        <ele>2357.0</ele>
        <time>2018-07-22T12:56:54Z</time>
      </trkpt>
      <trkpt lat="41.042233" lon="-3.748367">
        <ele>2358.0</ele>
        <time>2018-07-22T12:56:55Z</time>
      </trkpt>
      <trkpt lat="41.042133" lon="-3.748417">
        <ele>2359.0</ele>
        <time>2018-07-22T12:56:56Z</time>
      </trkpt>
      <trkpt lat="41.042050" lon="-3.748500">
        <ele>2359.0</ele>
        <time>2018-07-22T12:56:57Z</time>
      </trkpt>
      <trkpt lat="41.041983" lon="-3.748583">
        <ele>2360.0</ele>
        <time>2018-07-22T12:56:58Z</time>
      </trkpt>
      <trkpt lat="41.041950" lon="-3.748700">
        <ele>2359.0</ele>
        <time>2018-07-22T12:56:59Z</time>
      </trkpt>
      <trkpt lat="41.041950" lon="-3.748800">
        <ele>2357.0</ele>
        <time>2018-07-22T12:57:00Z</time>
      </trkpt>
      <trkpt lat="41.041967" lon="-3.748900">
        <ele>2354.0</ele>
        <time>2018-07-22T12:57:01Z</time>
      </trkpt>
      <trkpt lat="41.042017" lon="-3.749000">
        <ele>2353.0</ele>
        <time>2018-07-22T12:57:02Z</time>
      </trkpt>
      <trkpt lat="41.042083" lon="-3.749067">
        <ele>2352.0</ele>
        <time>2018-07-22T12:57:03Z</time>
      </trkpt>
      <trkpt lat="41.042183" lon="-3.749133">
        <ele>2351.0</ele>
        <time>2018-07-22T12:57:04Z</time>
      </trkpt>
      <trkpt lat="41.042267" lon="-3.749150">
        <ele>2350.0</ele>
        <time>2018-07-22T12:57:05Z</time>
      </trkpt>
      <trkpt lat="41.042367" lon="-3.749133">
        <ele>2350.0</ele>
        <time>2018-07-22T12:57:06Z</time>
      </trkpt>
      <trkpt lat="41.042467" lon="-3.749100">
        <ele>2349.0</ele>
        <time>2018-07-22T12:57:07Z</time>
      </trkpt>
      <trkpt lat="41.042550" lon="-3.749017">
        <ele>2349.0</ele>
        <time>2018-07-22T12:57:08Z</time>
      </trkpt>
      <trkpt lat="41.042633" lon="-3.748917">
        <ele>2349.0</ele>
        <time>2018-07-22T12:57:09Z</time>
      </trkpt>
      <trkpt lat="41.042700" lon="-3.748800">
        <ele>2350.0</ele>
        <time>2018-07-22T12:57:10Z</time>
      </trkpt>
      <trkpt lat="41.042750" lon="-3.748650">
        <ele>2351.0</ele>
        <time>2018-07-22T12:57:11Z</time>
      </trkpt>
      <trkpt lat="41.042783" lon="-3.748483">
        <ele>2354.0</ele>
        <time>2018-07-22T12:57:12Z</time>
      </trkpt>
      <trkpt lat="41.042800" lon="-3.748333">
        <ele>2358.0</ele>
        <time>2018-07-22T12:57:13Z</time>
      </trkpt>
      <trkpt lat="41.042783" lon="-3.748183">
        <ele>2361.0</ele>
        <time>2018-07-22T12:57:14Z</time>
      </trkpt>
      <trkpt lat="41.042733" lon="-3.748050">
        <ele>2364.0</ele>
        <time>2018-07-22T12:57:15Z</time>
      </trkpt>
      <trkpt lat="41.042683" lon="-3.747933">
        <ele>2366.0</ele>
        <time>2018-07-22T12:57:16Z</time>
      </trkpt>
      <trkpt lat="41.042600" lon="-3.747817">
        <ele>2369.0</ele>
        <time>2018-07-22T12:57:17Z</time>
      </trkpt>
      <trkpt lat="41.042517" lon="-3.747733">
        <ele>2372.0</ele>
        <time>2018-07-22T12:57:18Z</time>
      </trkpt>
      <trkpt lat="41.042433" lon="-3.747683">
        <ele>2375.0</ele>
        <time>2018-07-22T12:57:19Z</time>
      </trkpt>
      <trkpt lat="41.042333" lon="-3.747650">
        <ele>2377.0</ele>
        <time>2018-07-22T12:57:20Z</time>
      </trkpt>
      <trkpt lat="41.042250" lon="-3.747617">
        <ele>2379.0</ele>
        <time>2018-07-22T12:57:21Z</time>
      </trkpt>
      <trkpt lat="41.042150" lon="-3.747617">
        <ele>2381.0</ele>
        <time>2018-07-22T12:57:22Z</time>
      </trkpt>
      <trkpt lat="41.042033" lon="-3.747617">
        <ele>2382.0</ele>
        <time>2018-07-22T12:57:23Z</time>
      </trkpt>
      <trkpt lat="41.041933" lon="-3.747667">
        <ele>2382.0</ele>
        <time>2018-07-22T12:57:24Z</time>
      </trkpt>
      <trkpt lat="41.041850" lon="-3.747750">
        <ele>2381.0</ele>
        <time>2018-07-22T12:57:25Z</time>
      </trkpt>
      <trkpt lat="41.041767" lon="-3.747867">
        <ele>2380.0</ele>
        <time>2018-07-22T12:57:26Z</time>
      </trkpt>
      <trkpt lat="41.041733" lon="-3.747983">
        <ele>2380.0</ele>
        <time>2018-07-22T12:57:27Z</time>
      </trkpt>
      <trkpt lat="41.041683" lon="-3.748083">
        <ele>2380.0</ele>
        <time>2018-07-22T12:57:28Z</time>
      </trkpt>
      <trkpt lat="41.041633" lon="-3.748167">
        <ele>2379.0</ele>
        <time>2018-07-22T12:57:29Z</time>
      </trkpt>
      <trkpt lat="41.041583" lon="-3.748267">
        <ele>2378.0</ele>
        <time>2018-07-22T12:57:30Z</time>
      </trkpt>
      <trkpt lat="41.041517" lon="-3.748367">
        <ele>2375.0</ele>
        <time>2018-07-22T12:57:31Z</time>
      </trkpt>
      <trkpt lat="41.041467" lon="-3.748467">
        <ele>2373.0</ele>
        <time>2018-07-22T12:57:32Z</time>
      </trkpt>
      <trkpt lat="41.041417" lon="-3.748583">
        <ele>2371.0</ele>
        <time>2018-07-22T12:57:33Z</time>
      </trkpt>
      <trkpt lat="41.041367" lon="-3.748683">
        <ele>2370.0</ele>
        <time>2018-07-22T12:57:34Z</time>
      </trkpt>
      <trkpt lat="41.041317" lon="-3.748783">
        <ele>2368.0</ele>
        <time>2018-07-22T12:57:35Z</time>
      </trkpt>
      <trkpt lat="41.041267" lon="-3.748883">
        <ele>2367.0</ele>
        <time>2018-07-22T12:57:36Z</time>
      </trkpt>
      <trkpt lat="41.041233" lon="-3.749000">
        <ele>2365.0</ele>
        <time>2018-07-22T12:57:37Z</time>
      </trkpt>
      <trkpt lat="41.041200" lon="-3.749117">
        <ele>2364.0</ele>
        <time>2018-07-22T12:57:38Z</time>
      </trkpt>
      <trkpt lat="41.041150" lon="-3.749250">
        <ele>2362.0</ele>
        <time>2018-07-22T12:57:39Z</time>
      </trkpt>
      <trkpt lat="41.041100" lon="-3.749367">
        <ele>2360.0</ele>
        <time>2018-07-22T12:57:40Z</time>
      </trkpt>
      <trkpt lat="41.041050" lon="-3.749467">
        <ele>2359.0</ele>
        <time>2018-07-22T12:57:41Z</time>
      </trkpt>
      <trkpt lat="41.040983" lon="-3.749583">
        <ele>2358.0</ele>
        <time>2018-07-22T12:57:42Z</time>
      </trkpt>
      <trkpt lat="41.040933" lon="-3.749683">
        <ele>2358.0</ele>
        <time>2018-07-22T12:57:43Z</time>
      </trkpt>
      <trkpt lat="41.040900" lon="-3.749800">
        <ele>2358.0</ele>
        <time>2018-07-22T12:57:44Z</time>
      </trkpt>
      <trkpt lat="41.040867" lon="-3.749917">
        <ele>2358.0</ele>
        <time>2018-07-22T12:57:45Z</time>
      </trkpt>
      <trkpt lat="41.040850" lon="-3.750017">
        <ele>2358.0</ele>
        <time>2018-07-22T12:57:46Z</time>
      </trkpt>
      <trkpt lat="41.040817" lon="-3.750133">
        <ele>2359.0</ele>
        <time>2018-07-22T12:57:47Z</time>
      </trkpt>
      <trkpt lat="41.040783" lon="-3.750233">
        <ele>2359.0</ele>
        <time>2018-07-22T12:57:48Z</time>
      </trkpt>
      <trkpt lat="41.040750" lon="-3.750333">
        <ele>2358.0</ele>
        <time>2018-07-22T12:57:49Z</time>
      </trkpt>
      <trkpt lat="41.040717" lon="-3.750417">
        <ele>2357.0</ele>
        <time>2018-07-22T12:57:50Z</time>
      </trkpt>
      <trkpt lat="41.040683" lon="-3.750517">
        <ele>2356.0</ele>
        <time>2018-07-22T12:57:51Z</time>
      </trkpt>
      <trkpt lat="41.040650" lon="-3.750617">
        <ele>2355.0</ele>
        <time>2018-07-22T12:57:52Z</time>
      </trkpt>
      <trkpt lat="41.040617" lon="-3.750733">
        <ele>2353.0</ele>
        <time>2018-07-22T12:57:53Z</time>
      </trkpt>
      <trkpt lat="41.040567" lon="-3.750850">
        <ele>2352.0</ele>
        <time>2018-07-22T12:57:54Z</time>
      </trkpt>
      <trkpt lat="41.040517" lon="-3.750950">
        <ele>2352.0</ele>
        <time>2018-07-22T12:57:55Z</time>
      </trkpt>
      <trkpt lat="41.040467" lon="-3.751033">
        <ele>2354.0</ele>
        <time>2018-07-22T12:57:56Z</time>
      </trkpt>
      <trkpt lat="41.040433" lon="-3.751133">
        <ele>2355.0</ele>
        <time>2018-07-22T12:57:57Z</time>
      </trkpt>
      <trkpt lat="41.040417" lon="-3.751217">
        <ele>2356.0</ele>
        <time>2018-07-22T12:57:58Z</time>
      </trkpt>
      <trkpt lat="41.040417" lon="-3.751300">
        <ele>2356.0</ele>
        <time>2018-07-22T12:57:59Z</time>
      </trkpt>
      <trkpt lat="41.040383" lon="-3.751383">
        <ele>2356.0</ele>
        <time>2018-07-22T12:58:00Z</time>
      </trkpt>
      <trkpt lat="41.040350" lon="-3.751467">
        <ele>2356.0</ele>
        <time>2018-07-22T12:58:01Z</time>
      </trkpt>
      <trkpt lat="41.040300" lon="-3.751567">
        <ele>2357.0</ele>
        <time>2018-07-22T12:58:02Z</time>
      </trkpt>
      <trkpt lat="41.040233" lon="-3.751650">
        <ele>2358.0</ele>
        <time>2018-07-22T12:58:03Z</time>
      </trkpt>
      <trkpt lat="41.040150" lon="-3.751733">
        <ele>2360.0</ele>
        <time>2018-07-22T12:58:04Z</time>
      </trkpt>
      <trkpt lat="41.040067" lon="-3.751767">
        <ele>2361.0</ele>
        <time>2018-07-22T12:58:05Z</time>
      </trkpt>
      <trkpt lat="41.039950" lon="-3.751767">
        <ele>2361.0</ele>
        <time>2018-07-22T12:58:06Z</time>
      </trkpt>
      <trkpt lat="41.039850" lon="-3.751700">
        <ele>2360.0</ele>
        <time>2018-07-22T12:58:07Z</time>
      </trkpt>
      <trkpt lat="41.039767" lon="-3.751617">
        <ele>2360.0</ele>
        <time>2018-07-22T12:58:08Z</time>
      </trkpt>
      <trkpt lat="41.039700" lon="-3.751517">
        <ele>2359.0</ele>
        <time>2018-07-22T12:58:09Z</time>
      </trkpt>
      <trkpt lat="41.039650" lon="-3.751383">
        <ele>2357.0</ele>
        <time>2018-07-22T12:58:10Z</time>
      </trkpt>
      <trkpt lat="41.039633" lon="-3.751250">
        <ele>2355.0</ele>
        <time>2018-07-22T12:58:11Z</time>
      </trkpt>
      <trkpt lat="41.039633" lon="-3.751117">
        <ele>2352.0</ele>
        <time>2018-07-22T12:58:12Z</time>
      </trkpt>
      <trkpt lat="41.039667" lon="-3.750967">
        <ele>2349.0</ele>
        <time>2018-07-22T12:58:13Z</time>
      </trkpt>
      <trkpt lat="41.039733" lon="-3.750833">
        <ele>2346.0</ele>
        <time>2018-07-22T12:58:14Z</time>
      </trkpt>
      <trkpt lat="41.039817" lon="-3.750733">
        <ele>2345.0</ele>
        <time>2018-07-22T12:58:15Z</time>
      </trkpt>
      <trkpt lat="41.039917" lon="-3.750683">
        <ele>2343.0</ele>
        <time>2018-07-22T12:58:16Z</time>
      </trkpt>
      <trkpt lat="41.040017" lon="-3.750700">
        <ele>2342.0</ele>
        <time>2018-07-22T12:58:17Z</time>
      </trkpt>
      <trkpt lat="41.040100" lon="-3.750750">
        <ele>2340.0</ele>
        <time>2018-07-22T12:58:18Z</time>
      </trkpt>
      <trkpt lat="41.040167" lon="-3.750817">
        <ele>2340.0</ele>
        <time>2018-07-22T12:58:19Z</time>
      </trkpt>
      <trkpt lat="41.040217" lon="-3.750933">
        <ele>2339.0</ele>
        <time>2018-07-22T12:58:20Z</time>
      </trkpt>
      <trkpt lat="41.040217" lon="-3.751033">
        <ele>2339.0</ele>
        <time>2018-07-22T12:58:21Z</time>
      </trkpt>
      <trkpt lat="41.040183" lon="-3.751167">
        <ele>2340.0</ele>
        <time>2018-07-22T12:58:22Z</time>
      </trkpt>
      <trkpt lat="41.040133" lon="-3.751267">
        <ele>2341.0</ele>
        <time>2018-07-22T12:58:23Z</time>
      </trkpt>
      <trkpt lat="41.040067" lon="-3.751350">
        <ele>2343.0</ele>
        <time>2018-07-22T12:58:24Z</time>
      </trkpt>
      <trkpt lat="41.040017" lon="-3.751417">
        <ele>2345.0</ele>
        <time>2018-07-22T12:58:25Z</time>
      </trkpt>
      <trkpt lat="41.039967" lon="-3.751467">
        <ele>2345.0</ele>
        <time>2018-07-22T12:58:26Z</time>
      </trkpt>
      <trkpt lat="41.039933" lon="-3.751533">
        <ele>2345.0</ele>
        <time>2018-07-22T12:58:27Z</time>
      </trkpt>
      <trkpt lat="41.039883" lon="-3.751600">
        <ele>2344.0</ele>
        <time>2018-07-22T12:58:28Z</time>
      </trkpt>
      <trkpt lat="41.039833" lon="-3.751683">
        <ele>2342.0</ele>
        <time>2018-07-22T12:58:29Z</time>
      </trkpt>
      <trkpt lat="41.039783" lon="-3.751783">
        <ele>2342.0</ele>
        <time>2018-07-22T12:58:30Z</time>
      </trkpt>
      <trkpt lat="41.039733" lon="-3.751883">
        <ele>2341.0</ele>
        <time>2018-07-22T12:58:31Z</time>
      </trkpt>
      <trkpt lat="41.039683" lon="-3.751967">
        <ele>2341.0</ele>
        <time>2018-07-22T12:58:32Z</time>
      </trkpt>
      <trkpt lat="41.039650" lon="-3.752083">
        <ele>2341.0</ele>
        <time>2018-07-22T12:58:33Z</time>
      </trkpt>
      <trkpt lat="41.039617" lon="-3.752183">
        <ele>2340.0</ele>
        <time>2018-07-22T12:58:34Z</time>
      </trkpt>
      <trkpt lat="41.039583" lon="-3.752300">
        <ele>2339.0</ele>
        <time>2018-07-22T12:58:35Z</time>
      </trkpt>
      <trkpt lat="41.039550" lon="-3.752433">
        <ele>2339.0</ele>
        <time>2018-07-22T12:58:36Z</time>
      </trkpt>
      <trkpt lat="41.039500" lon="-3.752550">
        <ele>2339.0</ele>
        <time>2018-07-22T12:58:37Z</time>
      </trkpt>
      <trkpt lat="41.039450" lon="-3.752683">
        <ele>2340.0</ele>
        <time>2018-07-22T12:58:38Z</time>
      </trkpt>
      <trkpt lat="41.039383" lon="-3.752783">
        <ele>2341.0</ele>
        <time>2018-07-22T12:58:39Z</time>
      </trkpt>
      <trkpt lat="41.039317" lon="-3.752900">
        <ele>2342.0</ele>
        <time>2018-07-22T12:58:40Z</time>
      </trkpt>
      <trkpt lat="41.039267" lon="-3.753000">
        <ele>2344.0</ele>
        <time>2018-07-22T12:58:41Z</time>
      </trkpt>
      <trkpt lat="41.039217" lon="-3.753100">
        <ele>2345.0</ele>
        <time>2018-07-22T12:58:42Z</time>
      </trkpt>
      <trkpt lat="41.039150" lon="-3.753200">
        <ele>2346.0</ele>
        <time>2018-07-22T12:58:43Z</time>
      </trkpt>
      <trkpt lat="41.039100" lon="-3.753317">
        <ele>2346.0</ele>
        <time>2018-07-22T12:58:44Z</time>
      </trkpt>
      <trkpt lat="41.039050" lon="-3.753417">
        <ele>2346.0</ele>
        <time>2018-07-22T12:58:45Z</time>
      </trkpt>
      <trkpt lat="41.039000" lon="-3.753533">
        <ele>2346.0</ele>
        <time>2018-07-22T12:58:46Z</time>
      </trkpt>
      <trkpt lat="41.038933" lon="-3.753667">
        <ele>2346.0</ele>
        <time>2018-07-22T12:58:47Z</time>
      </trkpt>
      <trkpt lat="41.038883" lon="-3.753783">
        <ele>2346.0</ele>
        <time>2018-07-22T12:58:48Z</time>
      </trkpt>
      <trkpt lat="41.038817" lon="-3.753900">
        <ele>2346.0</ele>
        <time>2018-07-22T12:58:49Z</time>
      </trkpt>
      <trkpt lat="41.038750" lon="-3.754000">
        <ele>2347.0</ele>
        <time>2018-07-22T12:58:50Z</time>
      </trkpt>
      <trkpt lat="41.038683" lon="-3.754083">
        <ele>2348.0</ele>
        <time>2018-07-22T12:58:51Z</time>
      </trkpt>
      <trkpt lat="41.038617" lon="-3.754183">
        <ele>2348.0</ele>
        <time>2018-07-22T12:58:52Z</time>
      </trkpt>
      <trkpt lat="41.038533" lon="-3.754267">
        <ele>2347.0</ele>
        <time>2018-07-22T12:58:53Z</time>
      </trkpt>
      <trkpt lat="41.038467" lon="-3.754383">
        <ele>2345.0</ele>
        <time>2018-07-22T12:58:54Z</time>
      </trkpt>
      <trkpt lat="41.038383" lon="-3.754483">
        <ele>2345.0</ele>
        <time>2018-07-22T12:58:55Z</time>
      </trkpt>
      <trkpt lat="41.038317" lon="-3.754583">
        <ele>2345.0</ele>
        <time>2018-07-22T12:58:56Z</time>
      </trkpt>
      <trkpt lat="41.038250" lon="-3.754700">
        <ele>2345.0</ele>
        <time>2018-07-22T12:58:57Z</time>
      </trkpt>
      <trkpt lat="41.038200" lon="-3.754800">
        <ele>2345.0</ele>
        <time>2018-07-22T12:58:58Z</time>
      </trkpt>
      <trkpt lat="41.038150" lon="-3.754917">
        <ele>2344.0</ele>
        <time>2018-07-22T12:58:59Z</time>
      </trkpt>
      <trkpt lat="41.038100" lon="-3.755033">
        <ele>2343.0</ele>
        <time>2018-07-22T12:59:00Z</time>
      </trkpt>
      <trkpt lat="41.038050" lon="-3.755133">
        <ele>2341.0</ele>
        <time>2018-07-22T12:59:01Z</time>
      </trkpt>
      <trkpt lat="41.038000" lon="-3.755250">
        <ele>2340.0</ele>
        <time>2018-07-22T12:59:02Z</time>
      </trkpt>
      <trkpt lat="41.037967" lon="-3.755367">
        <ele>2339.0</ele>
        <time>2018-07-22T12:59:03Z</time>
      </trkpt>
      <trkpt lat="41.037933" lon="-3.755483">
        <ele>2339.0</ele>
        <time>2018-07-22T12:59:04Z</time>
      </trkpt>
      <trkpt lat="41.037883" lon="-3.755600">
        <ele>2338.0</ele>
        <time>2018-07-22T12:59:05Z</time>
      </trkpt>
      <trkpt lat="41.037833" lon="-3.755700">
        <ele>2336.0</ele>
        <time>2018-07-22T12:59:06Z</time>
      </trkpt>
      <trkpt lat="41.037783" lon="-3.755800">
        <ele>2335.0</ele>
        <time>2018-07-22T12:59:07Z</time>
      </trkpt>
      <trkpt lat="41.037733" lon="-3.755900">
        <ele>2333.0</ele>
        <time>2018-07-22T12:59:08Z</time>
      </trkpt>
      <trkpt lat="41.037683" lon="-3.756017">
        <ele>2332.0</ele>
        <time>2018-07-22T12:59:09Z</time>
      </trkpt>
      <trkpt lat="41.037633" lon="-3.756133">
        <ele>2330.0</ele>
        <time>2018-07-22T12:59:10Z</time>
      </trkpt>
      <trkpt lat="41.037583" lon="-3.756233">
        <ele>2330.0</ele>
        <time>2018-07-22T12:59:11Z</time>
      </trkpt>
      <trkpt lat="41.037533" lon="-3.756333">
        <ele>2329.0</ele>
        <time>2018-07-22T12:59:12Z</time>
      </trkpt>
      <trkpt lat="41.037467" lon="-3.756433">
        <ele>2329.0</ele>
        <time>2018-07-22T12:59:13Z</time>
      </trkpt>
      <trkpt lat="41.037417" lon="-3.756517">
        <ele>2328.0</ele>
        <time>2018-07-22T12:59:14Z</time>
      </trkpt>
      <trkpt lat="41.037383" lon="-3.756600">
        <ele>2327.0</ele>
        <time>2018-07-22T12:59:15Z</time>
      </trkpt>
      <trkpt lat="41.037333" lon="-3.756683">
        <ele>2325.0</ele>
        <time>2018-07-22T12:59:16Z</time>
      </trkpt>
      <trkpt lat="41.037300" lon="-3.756767">
        <ele>2322.0</ele>
        <time>2018-07-22T12:59:17Z</time>
      </trkpt>
      <trkpt lat="41.037250" lon="-3.756850">
        <ele>2319.0</ele>
        <time>2018-07-22T12:59:18Z</time>
      </trkpt>
      <trkpt lat="41.037217" lon="-3.756950">
        <ele>2317.0</ele>
        <time>2018-07-22T12:59:19Z</time>
      </trkpt>
      <trkpt lat="41.037183" lon="-3.757050">
        <ele>2314.0</ele>
        <time>2018-07-22T12:59:20Z</time>
      </trkpt>
      <trkpt lat="41.037167" lon="-3.757167">
        <ele>2312.0</ele>
        <time>2018-07-22T12:59:21Z</time>
      </trkpt>
      <trkpt lat="41.037150" lon="-3.757283">
        <ele>2310.0</ele>
        <time>2018-07-22T12:59:22Z</time>
      </trkpt>
      <trkpt lat="41.037150" lon="-3.757417">
        <ele>2308.0</ele>
        <time>2018-07-22T12:59:23Z</time>
      </trkpt>
      <trkpt lat="41.037150" lon="-3.757550">
        <ele>2307.0</ele>
        <time>2018-07-22T12:59:24Z</time>
      </trkpt>
      <trkpt lat="41.037150" lon="-3.757667">
        <ele>2305.0</ele>
        <time>2018-07-22T12:59:25Z</time>
      </trkpt>
      <trkpt lat="41.037150" lon="-3.757800">
        <ele>2304.0</ele>
        <time>2018-07-22T12:59:26Z</time>
      </trkpt>
      <trkpt lat="41.037150" lon="-3.757933">
        <ele>2301.0</ele>
        <time>2018-07-22T12:59:27Z</time>
      </trkpt>
      <trkpt lat="41.037150" lon="-3.758067">
        <ele>2300.0</ele>
        <time>2018-07-22T12:59:28Z</time>
      </trkpt>
      <trkpt lat="41.037150" lon="-3.758200">
        <ele>2299.0</ele>
        <time>2018-07-22T12:59:29Z</time>
      </trkpt>
      <trkpt lat="41.037150" lon="-3.758333">
        <ele>2299.0</ele>
        <time>2018-07-22T12:59:30Z</time>
      </trkpt>
      <trkpt lat="41.037150" lon="-3.758450">
        <ele>2299.0</ele>
        <time>2018-07-22T12:59:31Z</time>
      </trkpt>
      <trkpt lat="41.037133" lon="-3.758550">
        <ele>2298.0</ele>
        <time>2018-07-22T12:59:32Z</time>
      </trkpt>
      <trkpt lat="41.037117" lon="-3.758667">
        <ele>2297.0</ele>
        <time>2018-07-22T12:59:33Z</time>
      </trkpt>
      <trkpt lat="41.037100" lon="-3.758783">
        <ele>2296.0</ele>
        <time>2018-07-22T12:59:34Z</time>
      </trkpt>
      <trkpt lat="41.037100" lon="-3.758917">
        <ele>2295.0</ele>
        <time>2018-07-22T12:59:35Z</time>
      </trkpt>
      <trkpt lat="41.037083" lon="-3.759033">
        <ele>2295.0</ele>
        <time>2018-07-22T12:59:36Z</time>
      </trkpt>
      <trkpt lat="41.037067" lon="-3.759133">
        <ele>2295.0</ele>
        <time>2018-07-22T12:59:37Z</time>
      </trkpt>
      <trkpt lat="41.037050" lon="-3.759233">
        <ele>2295.0</ele>
        <time>2018-07-22T12:59:38Z</time>
      </trkpt>
      <trkpt lat="41.037017" lon="-3.759333">
        <ele>2294.0</ele>
        <time>2018-07-22T12:59:39Z</time>
      </trkpt>
      <trkpt lat="41.037000" lon="-3.759417">
        <ele>2291.0</ele>
        <time>2018-07-22T12:59:40Z</time>
      </trkpt>
      <trkpt lat="41.036967" lon="-3.759533">
        <ele>2287.0</ele>
        <time>2018-07-22T12:59:41Z</time>
      </trkpt>
      <trkpt lat="41.036950" lon="-3.759650">
        <ele>2284.0</ele>
        <time>2018-07-22T12:59:42Z</time>
      </trkpt>
      <trkpt lat="41.036900" lon="-3.759767">
        <ele>2282.0</ele>
        <time>2018-07-22T12:59:43Z</time>
      </trkpt>
      <trkpt lat="41.036867" lon="-3.759867">
        <ele>2280.0</ele>
        <time>2018-07-22T12:59:44Z</time>
      </trkpt>
      <trkpt lat="41.036833" lon="-3.759967">
        <ele>2279.0</ele>
        <time>2018-07-22T12:59:45Z</time>
      </trkpt>
      <trkpt lat="41.036800" lon="-3.760067">
        <ele>2276.0</ele>
        <time>2018-07-22T12:59:46Z</time>
      </trkpt>
      <trkpt lat="41.036767" lon="-3.760167">
        <ele>2274.0</ele>
        <time>2018-07-22T12:59:47Z</time>
      </trkpt>
      <trkpt lat="41.036750" lon="-3.760283">
        <ele>2270.0</ele>
        <time>2018-07-22T12:59:48Z</time>
      </trkpt>
      <trkpt lat="41.036717" lon="-3.760417">
        <ele>2268.0</ele>
        <time>2018-07-22T12:59:49Z</time>
      </trkpt>
      <trkpt lat="41.036683" lon="-3.760533">
        <ele>2266.0</ele>
        <time>2018-07-22T12:59:50Z</time>
      </trkpt>
      <trkpt lat="41.036650" lon="-3.760650">
        <ele>2265.0</ele>
        <time>2018-07-22T12:59:51Z</time>
      </trkpt>
      <trkpt lat="41.036633" lon="-3.760750">
        <ele>2264.0</ele>
        <time>2018-07-22T12:59:52Z</time>
      </trkpt>
      <trkpt lat="41.036617" lon="-3.760850">
        <ele>2261.0</ele>
        <time>2018-07-22T12:59:53Z</time>
      </trkpt>
      <trkpt lat="41.036583" lon="-3.760933">
        <ele>2258.0</ele>
        <time>2018-07-22T12:59:54Z</time>
      </trkpt>
      <trkpt lat="41.036550" lon="-3.761033">
        <ele>2254.0</ele>
        <time>2018-07-22T12:59:55Z</time>
      </trkpt>
      <trkpt lat="41.036517" lon="-3.761133">
        <ele>2250.0</ele>
        <time>2018-07-22T12:59:56Z</time>
      </trkpt>
      <trkpt lat="41.036467" lon="-3.761250">
        <ele>2247.0</ele>
        <time>2018-07-22T12:59:57Z</time>
      </trkpt>
      <trkpt lat="41.036417" lon="-3.761350">
        <ele>2244.0</ele>
        <time>2018-07-22T12:59:58Z</time>
      </trkpt>
      <trkpt lat="41.036383" lon="-3.761450">
        <ele>2241.0</ele>
        <time>2018-07-22T12:59:59Z</time>
      </trkpt>
      <trkpt lat="41.036333" lon="-3.761550">
        <ele>2239.0</ele>
        <time>2018-07-22T13:00:00Z</time>
      </trkpt>
      <trkpt lat="41.036300" lon="-3.761667">
        <ele>2236.0</ele>
        <time>2018-07-22T13:00:01Z</time>
      </trkpt>
      <trkpt lat="41.036250" lon="-3.761750">
        <ele>2234.0</ele>
        <time>2018-07-22T13:00:02Z</time>
      </trkpt>
      <trkpt lat="41.036200" lon="-3.761833">
        <ele>2232.0</ele>
        <time>2018-07-22T13:00:03Z</time>
      </trkpt>
      <trkpt lat="41.036133" lon="-3.761917">
        <ele>2228.0</ele>
        <time>2018-07-22T13:00:04Z</time>
      </trkpt>
      <trkpt lat="41.036083" lon="-3.762000">
        <ele>2225.0</ele>
        <time>2018-07-22T13:00:05Z</time>
      </trkpt>
      <trkpt lat="41.036017" lon="-3.762100">
        <ele>2222.0</ele>
        <time>2018-07-22T13:00:06Z</time>
      </trkpt>
      <trkpt lat="41.035950" lon="-3.762183">
        <ele>2220.0</ele>
        <time>2018-07-22T13:00:07Z</time>
      </trkpt>
      <trkpt lat="41.035883" lon="-3.762267">
        <ele>2218.0</ele>
        <time>2018-07-22T13:00:08Z</time>
      </trkpt>
      <trkpt lat="41.035833" lon="-3.762367">
        <ele>2216.0</ele>
        <time>2018-07-22T13:00:09Z</time>
      </trkpt>
      <trkpt lat="41.035783" lon="-3.762450">
        <ele>2213.0</ele>
        <time>2018-07-22T13:00:10Z</time>
      </trkpt>
      <trkpt lat="41.035733" lon="-3.762550">
        <ele>2210.0</ele>
        <time>2018-07-22T13:00:11Z</time>
      </trkpt>
      <trkpt lat="41.035683" lon="-3.762650">
        <ele>2206.0</ele>
        <time>2018-07-22T13:00:12Z</time>
      </trkpt>
      <trkpt lat="41.035617" lon="-3.762750">
        <ele>2203.0</ele>
        <time>2018-07-22T13:00:13Z</time>
      </trkpt>
      <trkpt lat="41.035567" lon="-3.762867">
        <ele>2200.0</ele>
        <time>2018-07-22T13:00:14Z</time>
      </trkpt>
      <trkpt lat="41.035533" lon="-3.762967">
        <ele>2198.0</ele>
        <time>2018-07-22T13:00:15Z</time>
      </trkpt>
      <trkpt lat="41.035483" lon="-3.763067">
        <ele>2196.0</ele>
        <time>2018-07-22T13:00:16Z</time>
      </trkpt>
      <trkpt lat="41.035433" lon="-3.763167">
        <ele>2194.0</ele>
        <time>2018-07-22T13:00:17Z</time>
      </trkpt>
      <trkpt lat="41.035383" lon="-3.763283">
        <ele>2190.0</ele>
        <time>2018-07-22T13:00:18Z</time>
      </trkpt>
      <trkpt lat="41.035317" lon="-3.763400">
        <ele>2186.0</ele>
        <time>2018-07-22T13:00:19Z</time>
      </trkpt>
      <trkpt lat="41.035267" lon="-3.763517">
        <ele>2183.0</ele>
        <time>2018-07-22T13:00:20Z</time>
      </trkpt>
      <trkpt lat="41.035200" lon="-3.763633">
        <ele>2181.0</ele>
        <time>2018-07-22T13:00:21Z</time>
      </trkpt>
      <trkpt lat="41.035150" lon="-3.763750">
        <ele>2179.0</ele>
        <time>2018-07-22T13:00:22Z</time>
      </trkpt>
      <trkpt lat="41.035100" lon="-3.763850">
        <ele>2177.0</ele>
        <time>2018-07-22T13:00:23Z</time>
      </trkpt>
      <trkpt lat="41.035033" lon="-3.763950">
        <ele>2175.0</ele>
        <time>2018-07-22T13:00:24Z</time>
      </trkpt>
      <trkpt lat="41.034983" lon="-3.764050">
        <ele>2172.0</ele>
        <time>2018-07-22T13:00:25Z</time>
      </trkpt>
      <trkpt lat="41.034933" lon="-3.764167">
        <ele>2168.0</ele>
        <time>2018-07-22T13:00:26Z</time>
      </trkpt>
      <trkpt lat="41.034883" lon="-3.764283">
        <ele>2165.0</ele>
        <time>2018-07-22T13:00:27Z</time>
      </trkpt>
      <trkpt lat="41.034833" lon="-3.764383">
        <ele>2162.0</ele>
        <time>2018-07-22T13:00:28Z</time>
      </trkpt>
      <trkpt lat="41.034767" lon="-3.764500">
        <ele>2159.0</ele>
        <time>2018-07-22T13:00:29Z</time>
      </trkpt>
      <trkpt lat="41.034700" lon="-3.764600">
        <ele>2157.0</ele>
        <time>2018-07-22T13:00:30Z</time>
      </trkpt>
      <trkpt lat="41.034650" lon="-3.764717">
        <ele>2155.0</ele>
        <time>2018-07-22T13:00:31Z</time>
      </trkpt>
      <trkpt lat="41.034600" lon="-3.764817">
        <ele>2154.0</ele>
        <time>2018-07-22T13:00:32Z</time>
      </trkpt>
      <trkpt lat="41.034567" lon="-3.764900">
        <ele>2153.0</ele>
        <time>2018-07-22T13:00:33Z</time>
      </trkpt>
      <trkpt lat="41.034517" lon="-3.765000">
        <ele>2151.0</ele>
        <time>2018-07-22T13:00:34Z</time>
      </trkpt>
      <trkpt lat="41.034467" lon="-3.765083">
        <ele>2148.0</ele>
        <time>2018-07-22T13:00:35Z</time>
      </trkpt>
      <trkpt lat="41.034417" lon="-3.765200">
        <ele>2145.0</ele>
        <time>2018-07-22T13:00:36Z</time>
      </trkpt>
      <trkpt lat="41.034350" lon="-3.765317">
        <ele>2142.0</ele>
        <time>2018-07-22T13:00:37Z</time>
      </trkpt>
      <trkpt lat="41.034283" lon="-3.765417">
        <ele>2140.0</ele>
        <time>2018-07-22T13:00:38Z</time>
      </trkpt>
      <trkpt lat="41.034217" lon="-3.765533">
        <ele>2138.0</ele>
        <time>2018-07-22T13:00:39Z</time>
      </trkpt>
      <trkpt lat="41.034150" lon="-3.765633">
        <ele>2137.0</ele>
        <time>2018-07-22T13:00:40Z</time>
      </trkpt>
      <trkpt lat="41.034083" lon="-3.765733">
        <ele>2134.0</ele>
        <time>2018-07-22T13:00:41Z</time>
      </trkpt>
      <trkpt lat="41.034000" lon="-3.765800">
        <ele>2132.0</ele>
        <time>2018-07-22T13:00:42Z</time>
      </trkpt>
      <trkpt lat="41.033900" lon="-3.765867">
        <ele>2130.0</ele>
        <time>2018-07-22T13:00:43Z</time>
      </trkpt>
      <trkpt lat="41.033767" lon="-3.765900">
        <ele>2126.0</ele>
        <time>2018-07-22T13:00:44Z</time>
      </trkpt>
      <trkpt lat="41.033633" lon="-3.765900">
        <ele>2122.0</ele>
        <time>2018-07-22T13:00:45Z</time>
      </trkpt>
      <trkpt lat="41.033483" lon="-3.765883">
        <ele>2120.0</ele>
        <time>2018-07-22T13:00:46Z</time>
      </trkpt>
      <trkpt lat="41.033350" lon="-3.765833">
        <ele>2120.0</ele>
        <time>2018-07-22T13:00:47Z</time>
      </trkpt>
      <trkpt lat="41.033250" lon="-3.765767">
        <ele>2121.0</ele>
        <time>2018-07-22T13:00:48Z</time>
      </trkpt>
      <trkpt lat="41.033150" lon="-3.765683">
        <ele>2121.0</ele>
        <time>2018-07-22T13:00:49Z</time>
      </trkpt>
      <trkpt lat="41.033083" lon="-3.765583">
        <ele>2119.0</ele>
        <time>2018-07-22T13:00:50Z</time>
      </trkpt>
      <trkpt lat="41.033000" lon="-3.765467">
        <ele>2116.0</ele>
        <time>2018-07-22T13:00:51Z</time>
      </trkpt>
      <trkpt lat="41.032933" lon="-3.765317">
        <ele>2112.0</ele>
        <time>2018-07-22T13:00:52Z</time>
      </trkpt>
      <trkpt lat="41.032883" lon="-3.765150">
        <ele>2109.0</ele>
        <time>2018-07-22T13:00:53Z</time>
      </trkpt>
      <trkpt lat="41.032867" lon="-3.764983">
        <ele>2107.0</ele>
        <time>2018-07-22T13:00:54Z</time>
      </trkpt>
      <trkpt lat="41.032850" lon="-3.764833">
        <ele>2105.0</ele>
        <time>2018-07-22T13:00:55Z</time>
      </trkpt>
      <trkpt lat="41.032833" lon="-3.764683">
        <ele>2104.0</ele>
        <time>2018-07-22T13:00:56Z</time>
      </trkpt>
      <trkpt lat="41.032817" lon="-3.764550">
        <ele>2102.0</ele>
        <time>2018-07-22T13:00:57Z</time>
      </trkpt>
      <trkpt lat="41.032800" lon="-3.764400">
        <ele>2099.0</ele>
        <time>2018-07-22T13:00:58Z</time>
      </trkpt>
      <trkpt lat="41.032783" lon="-3.764233">
        <ele>2095.0</ele>
        <time>2018-07-22T13:00:59Z</time>
      </trkpt>
      <trkpt lat="41.032800" lon="-3.764067">
        <ele>2092.0</ele>
        <time>2018-07-22T13:01:00Z</time>
      </trkpt>
      <trkpt lat="41.032800" lon="-3.763900">
        <ele>2090.0</ele>
        <time>2018-07-22T13:01:01Z</time>
      </trkpt>
      <trkpt lat="41.032817" lon="-3.763750">
        <ele>2089.0</ele>
        <time>2018-07-22T13:01:02Z</time>
      </trkpt>
      <trkpt lat="41.032833" lon="-3.763617">
        <ele>2088.0</ele>
        <time>2018-07-22T13:01:03Z</time>
      </trkpt>
      <trkpt lat="41.032833" lon="-3.763467">
        <ele>2087.0</ele>
        <time>2018-07-22T13:01:04Z</time>
      </trkpt>
      <trkpt lat="41.032867" lon="-3.763333">
        <ele>2086.0</ele>
        <time>2018-07-22T13:01:05Z</time>
      </trkpt>
      <trkpt lat="41.032883" lon="-3.763200">
        <ele>2084.0</ele>
        <time>2018-07-22T13:01:06Z</time>
      </trkpt>
      <trkpt lat="41.032917" lon="-3.763050">
        <ele>2082.0</ele>
        <time>2018-07-22T13:01:07Z</time>
      </trkpt>
      <trkpt lat="41.032933" lon="-3.762917">
        <ele>2081.0</ele>
        <time>2018-07-22T13:01:08Z</time>
      </trkpt>
      <trkpt lat="41.032950" lon="-3.762783">
        <ele>2080.0</ele>
        <time>2018-07-22T13:01:09Z</time>
      </trkpt>
      <trkpt lat="41.032983" lon="-3.762650">
        <ele>2079.0</ele>
        <time>2018-07-22T13:01:10Z</time>
      </trkpt>
      <trkpt lat="41.033033" lon="-3.762533">
        <ele>2078.0</ele>
        <time>2018-07-22T13:01:11Z</time>
      </trkpt>
      <trkpt lat="41.033100" lon="-3.762417">
        <ele>2076.0</ele>
        <time>2018-07-22T13:01:12Z</time>
      </trkpt>
      <trkpt lat="41.033150" lon="-3.762300">
        <ele>2075.0</ele>
        <time>2018-07-22T13:01:13Z</time>
      </trkpt>
      <trkpt lat="41.033217" lon="-3.762200">
        <ele>2073.0</ele>
        <time>2018-07-22T13:01:14Z</time>
      </trkpt>
      <trkpt lat="41.033267" lon="-3.762083">
        <ele>2072.0</ele>
        <time>2018-07-22T13:01:15Z</time>
      </trkpt>
      <trkpt lat="41.033317" lon="-3.761967">
        <ele>2071.0</ele>
        <time>2018-07-22T13:01:16Z</time>
      </trkpt>
      <trkpt lat="41.033383" lon="-3.761867">
        <ele>2069.0</ele>
        <time>2018-07-22T13:01:17Z</time>
      </trkpt>
      <trkpt lat="41.033433" lon="-3.761750">
        <ele>2067.0</ele>
        <time>2018-07-22T13:01:18Z</time>
      </trkpt>
      <trkpt lat="41.033467" lon="-3.761600">
        <ele>2065.0</ele>
        <time>2018-07-22T13:01:19Z</time>
      </trkpt>
      <trkpt lat="41.033500" lon="-3.761450">
        <ele>2064.0</ele>
        <time>2018-07-22T13:01:20Z</time>
      </trkpt>
      <trkpt lat="41.033517" lon="-3.761300">
        <ele>2063.0</ele>
        <time>2018-07-22T13:01:21Z</time>
      </trkpt>
      <trkpt lat="41.033533" lon="-3.761150">
        <ele>2063.0</ele>
        <time>2018-07-22T13:01:22Z</time>
      </trkpt>
      <trkpt lat="41.033550" lon="-3.761017">
        <ele>2062.0</ele>
        <time>2018-07-22T13:01:23Z</time>
      </trkpt>
      <trkpt lat="41.033550" lon="-3.760883">
        <ele>2060.0</ele>
        <time>2018-07-22T13:01:24Z</time>
      </trkpt>
      <trkpt lat="41.033567" lon="-3.760750">
        <ele>2058.0</ele>
        <time>2018-07-22T13:01:25Z</time>
      </trkpt>
      <trkpt lat="41.033600" lon="-3.760617">
        <ele>2055.0</ele>
        <time>2018-07-22T13:01:26Z</time>
      </trkpt>
      <trkpt lat="41.033633" lon="-3.760467">
        <ele>2052.0</ele>
        <time>2018-07-22T13:01:27Z</time>
      </trkpt>
      <trkpt lat="41.033667" lon="-3.760333">
        <ele>2050.0</ele>
        <time>2018-07-22T13:01:28Z</time>
      </trkpt>
      <trkpt lat="41.033700" lon="-3.760200">
        <ele>2049.0</ele>
        <time>2018-07-22T13:01:29Z</time>
      </trkpt>
      <trkpt lat="41.033717" lon="-3.760067">
        <ele>2048.0</ele>
        <time>2018-07-22T13:01:30Z</time>
      </trkpt>
      <trkpt lat="41.033717" lon="-3.759933">
        <ele>2045.0</ele>
        <time>2018-07-22T13:01:31Z</time>
      </trkpt>
      <trkpt lat="41.033700" lon="-3.759783">
        <ele>2042.0</ele>
        <time>2018-07-22T13:01:32Z</time>
      </trkpt>
      <trkpt lat="41.033667" lon="-3.759633">
        <ele>2039.0</ele>
        <time>2018-07-22T13:01:33Z</time>
      </trkpt>
      <trkpt lat="41.033633" lon="-3.759483">
        <ele>2036.0</ele>
        <time>2018-07-22T13:01:34Z</time>
      </trkpt>
      <trkpt lat="41.033617" lon="-3.759317">
        <ele>2033.0</ele>
        <time>2018-07-22T13:01:35Z</time>
      </trkpt>
      <trkpt lat="41.033600" lon="-3.759167">
        <ele>2031.0</ele>
        <time>2018-07-22T13:01:36Z</time>
      </trkpt>
      <trkpt lat="41.033583" lon="-3.759017">
        <ele>2030.0</ele>
        <time>2018-07-22T13:01:37Z</time>
      </trkpt>
      <trkpt lat="41.033567" lon="-3.758883">
        <ele>2028.0</ele>
        <time>2018-07-22T13:01:38Z</time>
      </trkpt>
      <trkpt lat="41.033550" lon="-3.758750">
        <ele>2026.0</ele>
        <time>2018-07-22T13:01:39Z</time>
      </trkpt>
      <trkpt lat="41.033517" lon="-3.758600">
        <ele>2023.0</ele>
        <time>2018-07-22T13:01:40Z</time>
      </trkpt>
      <trkpt lat="41.033500" lon="-3.758450">
        <ele>2020.0</ele>
        <time>2018-07-22T13:01:41Z</time>
      </trkpt>
      <trkpt lat="41.033483" lon="-3.758300">
        <ele>2018.0</ele>
        <time>2018-07-22T13:01:42Z</time>
      </trkpt>
      <trkpt lat="41.033467" lon="-3.758133">
        <ele>2016.0</ele>
        <time>2018-07-22T13:01:43Z</time>
      </trkpt>
      <trkpt lat="41.033433" lon="-3.758000">
        <ele>2014.0</ele>
        <time>2018-07-22T13:01:44Z</time>
      </trkpt>
      <trkpt lat="41.033383" lon="-3.757850">
        <ele>2012.0</ele>
        <time>2018-07-22T13:01:45Z</time>
      </trkpt>
      <trkpt lat="41.033333" lon="-3.757717">
        <ele>2009.0</ele>
        <time>2018-07-22T13:01:46Z</time>
      </trkpt>
      <trkpt lat="41.033283" lon="-3.757567">
        <ele>2005.0</ele>
        <time>2018-07-22T13:01:47Z</time>
      </trkpt>
      <trkpt lat="41.033233" lon="-3.757433">
        <ele>2003.0</ele>
        <time>2018-07-22T13:01:48Z</time>
      </trkpt>
      <trkpt lat="41.033167" lon="-3.757300">
        <ele>2001.0</ele>
        <time>2018-07-22T13:01:49Z</time>
      </trkpt>
      <trkpt lat="41.033100" lon="-3.757183">
        <ele>1999.0</ele>
        <time>2018-07-22T13:01:50Z</time>
      </trkpt>
      <trkpt lat="41.033000" lon="-3.757083">
        <ele>1998.0</ele>
        <time>2018-07-22T13:01:51Z</time>
      </trkpt>
      <trkpt lat="41.032900" lon="-3.757000">
        <ele>1995.0</ele>
        <time>2018-07-22T13:01:52Z</time>
      </trkpt>
      <trkpt lat="41.032800" lon="-3.756917">
        <ele>1994.0</ele>
        <time>2018-07-22T13:01:53Z</time>
      </trkpt>
      <trkpt lat="41.032683" lon="-3.756833">
        <ele>1993.0</ele>
        <time>2018-07-22T13:01:54Z</time>
      </trkpt>
      <trkpt lat="41.032567" lon="-3.756750">
        <ele>1993.0</ele>
        <time>2018-07-22T13:01:55Z</time>
      </trkpt>
      <trkpt lat="41.032450" lon="-3.756683">
        <ele>1992.0</ele>
        <time>2018-07-22T13:01:56Z</time>
      </trkpt>
      <trkpt lat="41.032333" lon="-3.756633">
        <ele>1992.0</ele>
        <time>2018-07-22T13:01:57Z</time>
      </trkpt>
      <trkpt lat="41.032217" lon="-3.756583">
        <ele>1993.0</ele>
        <time>2018-07-22T13:01:58Z</time>
      </trkpt>
      <trkpt lat="41.032100" lon="-3.756550">
        <ele>1994.0</ele>
        <time>2018-07-22T13:01:59Z</time>
      </trkpt>
      <trkpt lat="41.032000" lon="-3.756533">
        <ele>1995.0</ele>
        <time>2018-07-22T13:02:00Z</time>
      </trkpt>
      <trkpt lat="41.031900" lon="-3.756533">
        <ele>1996.0</ele>
        <time>2018-07-22T13:02:01Z</time>
      </trkpt>
      <trkpt lat="41.031817" lon="-3.756567">
        <ele>1997.0</ele>
        <time>2018-07-22T13:02:02Z</time>
      </trkpt>
      <trkpt lat="41.031717" lon="-3.756567">
        <ele>1998.0</ele>
        <time>2018-07-22T13:02:03Z</time>
      </trkpt>
      <trkpt lat="41.031617" lon="-3.756583">
        <ele>1999.0</ele>
        <time>2018-07-22T13:02:04Z</time>
      </trkpt>
      <trkpt lat="41.031533" lon="-3.756617">
        <ele>2000.0</ele>
        <time>2018-07-22T13:02:05Z</time>
      </trkpt>
      <trkpt lat="41.031467" lon="-3.756683">
        <ele>2000.0</ele>
        <time>2018-07-22T13:02:06Z</time>
      </trkpt>
      <trkpt lat="41.031433" lon="-3.756783">
        <ele>2000.0</ele>
        <time>2018-07-22T13:02:07Z</time>
      </trkpt>
      <trkpt lat="41.031450" lon="-3.756867">
        <ele>2000.0</ele>
        <time>2018-07-22T13:02:08Z</time>
      </trkpt>
      <trkpt lat="41.031483" lon="-3.756950">
        <ele>2001.0</ele>
        <time>2018-07-22T13:02:09Z</time>
      </trkpt>
      <trkpt lat="41.031533" lon="-3.756983">
        <ele>2003.0</ele>
        <time>2018-07-22T13:02:10Z</time>
      </trkpt>
      <trkpt lat="41.031583" lon="-3.757000">
        <ele>2004.0</ele>
        <time>2018-07-22T13:02:11Z</time>
      </trkpt>
      <trkpt lat="41.031667" lon="-3.756983">
        <ele>2005.0</ele>
        <time>2018-07-22T13:02:12Z</time>
      </trkpt>
      <trkpt lat="41.031733" lon="-3.756917">
        <ele>2004.0</ele>
        <time>2018-07-22T13:02:13Z</time>
      </trkpt>
      <trkpt lat="41.031783" lon="-3.756817">
        <ele>2004.0</ele>
        <time>2018-07-22T13:02:14Z</time>
      </trkpt>
      <trkpt lat="41.031817" lon="-3.756667">
        <ele>2003.0</ele>
        <time>2018-07-22T13:02:15Z</time>
      </trkpt>
      <trkpt lat="41.031817" lon="-3.756500">
        <ele>2001.0</ele>
        <time>2018-07-22T13:02:16Z</time>
      </trkpt>
      <trkpt lat="41.031783" lon="-3.756300">
        <ele>2000.0</ele>
        <time>2018-07-22T13:02:17Z</time>
      </trkpt>
      <trkpt lat="41.031700" lon="-3.756133">
        <ele>2000.0</ele>
        <time>2018-07-22T13:02:18Z</time>
      </trkpt>
      <trkpt lat="41.031583" lon="-3.756000">
        <ele>1999.0</ele>
        <time>2018-07-22T13:02:19Z</time>
      </trkpt>
      <trkpt lat="41.031467" lon="-3.755933">
        <ele>1999.0</ele>
        <time>2018-07-22T13:02:20Z</time>
      </trkpt>
      <trkpt lat="41.031333" lon="-3.755900">
        <ele>2001.0</ele>
        <time>2018-07-22T13:02:21Z</time>
      </trkpt>
      <trkpt lat="41.031200" lon="-3.755900">
        <ele>2004.0</ele>
        <time>2018-07-22T13:02:22Z</time>
      </trkpt>
      <trkpt lat="41.031083" lon="-3.755917">
        <ele>2006.0</ele>
        <time>2018-07-22T13:02:23Z</time>
      </trkpt>
      <trkpt lat="41.030983" lon="-3.755950">
        <ele>2008.0</ele>
        <time>2018-07-22T13:02:24Z</time>
      </trkpt>
      <trkpt lat="41.030883" lon="-3.756000">
        <ele>2010.0</ele>
        <time>2018-07-22T13:02:25Z</time>
      </trkpt>
      <trkpt lat="41.030800" lon="-3.756083">
        <ele>2011.0</ele>
        <time>2018-07-22T13:02:26Z</time>
      </trkpt>
      <trkpt lat="41.030717" lon="-3.756167">
        <ele>2014.0</ele>
        <time>2018-07-22T13:02:27Z</time>
      </trkpt>
      <trkpt lat="41.030650" lon="-3.756250">
        <ele>2017.0</ele>
        <time>2018-07-22T13:02:28Z</time>
      </trkpt>
      <trkpt lat="41.030600" lon="-3.756317">
        <ele>2019.0</ele>
        <time>2018-07-22T13:02:29Z</time>
      </trkpt>
      <trkpt lat="41.030533" lon="-3.756383">
        <ele>2022.0</ele>
        <time>2018-07-22T13:02:30Z</time>
      </trkpt>
      <trkpt lat="41.030500" lon="-3.756450">
        <ele>2023.0</ele>
        <time>2018-07-22T13:02:31Z</time>
      </trkpt>
      <trkpt lat="41.030483" lon="-3.756533">
        <ele>2024.0</ele>
        <time>2018-07-22T13:02:32Z</time>
      </trkpt>
      <trkpt lat="41.030500" lon="-3.756600">
        <ele>2024.0</ele>
        <time>2018-07-22T13:02:33Z</time>
      </trkpt>
      <trkpt lat="41.030550" lon="-3.756650">
        <ele>2024.0</ele>
        <time>2018-07-22T13:02:34Z</time>
      </trkpt>
      <trkpt lat="41.030617" lon="-3.756650">
        <ele>2024.0</ele>
        <time>2018-07-22T13:02:35Z</time>
      </trkpt>
      <trkpt lat="41.030700" lon="-3.756583">
        <ele>2025.0</ele>
        <time>2018-07-22T13:02:36Z</time>
      </trkpt>
      <trkpt lat="41.030750" lon="-3.756483">
        <ele>2029.0</ele>
        <time>2018-07-22T13:02:37Z</time>
      </trkpt>
      <trkpt lat="41.030783" lon="-3.756367">
        <ele>2033.0</ele>
        <time>2018-07-22T13:02:38Z</time>
      </trkpt>
      <trkpt lat="41.030800" lon="-3.756250">
        <ele>2038.0</ele>
        <time>2018-07-22T13:02:39Z</time>
      </trkpt>
      <trkpt lat="41.030783" lon="-3.756117">
        <ele>2041.0</ele>
        <time>2018-07-22T13:02:40Z</time>
      </trkpt>
      <trkpt lat="41.030750" lon="-3.755967">
        <ele>2043.0</ele>
        <time>2018-07-22T13:02:41Z</time>
      </trkpt>
      <trkpt lat="41.030717" lon="-3.755817">
        <ele>2045.0</ele>
        <time>2018-07-22T13:02:42Z</time>
      </trkpt>
      <trkpt lat="41.030717" lon="-3.755683">
        <ele>2047.0</ele>
        <time>2018-07-22T13:02:43Z</time>
      </trkpt>
      <trkpt lat="41.030717" lon="-3.755550">
        <ele>2049.0</ele>
        <time>2018-07-22T13:02:44Z</time>
      </trkpt>
      <trkpt lat="41.030767" lon="-3.755433">
        <ele>2050.0</ele>
        <time>2018-07-22T13:02:45Z</time>
      </trkpt>
      <trkpt lat="41.030817" lon="-3.755350">
        <ele>2051.0</ele>
        <time>2018-07-22T13:02:46Z</time>
      </trkpt>
      <trkpt lat="41.030900" lon="-3.755300">
        <ele>2053.0</ele>
        <time>2018-07-22T13:02:47Z</time>
      </trkpt>
      <trkpt lat="41.030967" lon="-3.755317">
        <ele>2055.0</ele>
        <time>2018-07-22T13:02:48Z</time>
      </trkpt>
      <trkpt lat="41.031017" lon="-3.755383">
        <ele>2057.0</ele>
        <time>2018-07-22T13:02:49Z</time>
      </trkpt>
      <trkpt lat="41.031017" lon="-3.755467">
        <ele>2060.0</ele>
        <time>2018-07-22T13:02:50Z</time>
      </trkpt>
      <trkpt lat="41.030967" lon="-3.755550">
        <ele>2062.0</ele>
        <time>2018-07-22T13:02:51Z</time>
      </trkpt>
      <trkpt lat="41.030867" lon="-3.755583">
        <ele>2063.0</ele>
        <time>2018-07-22T13:02:52Z</time>
      </trkpt>
      <trkpt lat="41.030733" lon="-3.755600">
        <ele>2063.0</ele>
        <time>2018-07-22T13:02:53Z</time>
      </trkpt>
      <trkpt lat="41.030600" lon="-3.755567">
        <ele>2066.0</ele>
        <time>2018-07-22T13:02:54Z</time>
      </trkpt>
      <trkpt lat="41.030467" lon="-3.755533">
        <ele>2071.0</ele>
        <time>2018-07-22T13:02:55Z</time>
      </trkpt>
      <trkpt lat="41.030367" lon="-3.755533">
        <ele>2075.0</ele>
        <time>2018-07-22T13:02:56Z</time>
      </trkpt>
      <trkpt lat="41.030267" lon="-3.755567">
        <ele>2076.0</ele>
        <time>2018-07-22T13:02:57Z</time>
      </trkpt>
      <trkpt lat="41.030183" lon="-3.755633">
        <ele>2076.0</ele>
        <time>2018-07-22T13:02:58Z</time>
      </trkpt>
      <trkpt lat="41.030133" lon="-3.755750">
        <ele>2076.0</ele>
        <time>2018-07-22T13:02:59Z</time>
      </trkpt>
      <trkpt lat="41.030117" lon="-3.755850">
        <ele>2078.0</ele>
        <time>2018-07-22T13:03:00Z</time>
      </trkpt>
      <trkpt lat="41.030117" lon="-3.755950">
        <ele>2081.0</ele>
        <time>2018-07-22T13:03:01Z</time>
      </trkpt>
      <trkpt lat="41.030150" lon="-3.755983">
        <ele>2085.0</ele>
        <time>2018-07-22T13:03:02Z</time>
      </trkpt>
      <trkpt lat="41.030183" lon="-3.755983">
        <ele>2087.0</ele>
        <time>2018-07-22T13:03:03Z</time>
      </trkpt>
      <trkpt lat="41.030233" lon="-3.755950">
        <ele>2088.0</ele>
        <time>2018-07-22T13:03:04Z</time>
      </trkpt>
      <trkpt lat="41.030300" lon="-3.755867">
        <ele>2088.0</ele>
        <time>2018-07-22T13:03:05Z</time>
      </trkpt>
      <trkpt lat="41.030350" lon="-3.755767">
        <ele>2089.0</ele>
        <time>2018-07-22T13:03:06Z</time>
      </trkpt>
      <trkpt lat="41.030367" lon="-3.755583">
        <ele>2089.0</ele>
        <time>2018-07-22T13:03:07Z</time>
      </trkpt>
      <trkpt lat="41.030350" lon="-3.755383">
        <ele>2089.0</ele>
        <time>2018-07-22T13:03:08Z</time>
      </trkpt>
      <trkpt lat="41.030267" lon="-3.755183">
        <ele>2090.0</ele>
        <time>2018-07-22T13:03:09Z</time>
      </trkpt>
      <trkpt lat="41.030133" lon="-3.755050">
        <ele>2092.0</ele>
        <time>2018-07-22T13:03:10Z</time>
      </trkpt>
      <trkpt lat="41.029983" lon="-3.755000">
        <ele>2095.0</ele>
        <time>2018-07-22T13:03:11Z</time>
      </trkpt>
      <trkpt lat="41.029867" lon="-3.755033">
        <ele>2097.0</ele>
        <time>2018-07-22T13:03:12Z</time>
      </trkpt>
      <trkpt lat="41.029767" lon="-3.755100">
        <ele>2100.0</ele>
        <time>2018-07-22T13:03:13Z</time>
      </trkpt>
      <trkpt lat="41.029700" lon="-3.755183">
        <ele>2104.0</ele>
        <time>2018-07-22T13:03:14Z</time>
      </trkpt>
      <trkpt lat="41.029650" lon="-3.755250">
        <ele>2107.0</ele>
        <time>2018-07-22T13:03:15Z</time>
      </trkpt>
      <trkpt lat="41.029617" lon="-3.755317">
        <ele>2108.0</ele>
        <time>2018-07-22T13:03:16Z</time>
      </trkpt>
      <trkpt lat="41.029617" lon="-3.755400">
        <ele>2108.0</ele>
        <time>2018-07-22T13:03:17Z</time>
      </trkpt>
      <trkpt lat="41.029633" lon="-3.755467">
        <ele>2108.0</ele>
        <time>2018-07-22T13:03:18Z</time>
      </trkpt>
      <trkpt lat="41.029683" lon="-3.755533">
        <ele>2109.0</ele>
        <time>2018-07-22T13:03:19Z</time>
      </trkpt>
      <trkpt lat="41.029733" lon="-3.755567">
        <ele>2110.0</ele>
        <time>2018-07-22T13:03:20Z</time>
      </trkpt>
      <trkpt lat="41.029800" lon="-3.755567">
        <ele>2112.0</ele>
        <time>2018-07-22T13:03:21Z</time>
      </trkpt>
      <trkpt lat="41.029850" lon="-3.755517">
        <ele>2112.0</ele>
        <time>2018-07-22T13:03:22Z</time>
      </trkpt>
      <trkpt lat="41.029900" lon="-3.755450">
        <ele>2111.0</ele>
        <time>2018-07-22T13:03:23Z</time>
      </trkpt>
      <trkpt lat="41.029967" lon="-3.755367">
        <ele>2110.0</ele>
        <time>2018-07-22T13:03:24Z</time>
      </trkpt>
      <trkpt lat="41.030033" lon="-3.755283">
        <ele>2109.0</ele>
        <time>2018-07-22T13:03:25Z</time>
      </trkpt>
      <trkpt lat="41.030083" lon="-3.755250">
        <ele>2109.0</ele>
        <time>2018-07-22T13:03:26Z</time>
      </trkpt>
      <trkpt lat="41.030133" lon="-3.755233">
        <ele>2109.0</ele>
        <time>2018-07-22T13:03:27Z</time>
      </trkpt>
      <trkpt lat="41.030167" lon="-3.755233">
        <ele>2108.0</ele>
        <time>2018-07-22T13:03:28Z</time>
      </trkpt>
      <trkpt lat="41.030200" lon="-3.755250">
        <ele>2107.0</ele>
        <time>2018-07-22T13:03:29Z</time>
      </trkpt>
      <trkpt lat="41.030233" lon="-3.755267">
        <ele>2104.0</ele>
        <time>2018-07-22T13:03:30Z</time>
      </trkpt>
      <trkpt lat="41.030233" lon="-3.755333">
        <ele>2101.0</ele>
        <time>2018-07-22T13:03:31Z</time>
      </trkpt>
      <trkpt lat="41.030217" lon="-3.755433">
        <ele>2098.0</ele>
        <time>2018-07-22T13:03:32Z</time>
      </trkpt>
      <trkpt lat="41.030167" lon="-3.755533">
        <ele>2095.0</ele>
        <time>2018-07-22T13:03:33Z</time>
      </trkpt>
      <trkpt lat="41.030067" lon="-3.755600">
        <ele>2093.0</ele>
        <time>2018-07-22T13:03:34Z</time>
      </trkpt>
      <trkpt lat="41.029950" lon="-3.755650">
        <ele>2092.0</ele>
        <time>2018-07-22T13:03:35Z</time>
      </trkpt>
      <trkpt lat="41.029850" lon="-3.755667">
        <ele>2092.0</ele>
        <time>2018-07-22T13:03:36Z</time>
      </trkpt>
      <trkpt lat="41.029767" lon="-3.755683">
        <ele>2091.0</ele>
        <time>2018-07-22T13:03:37Z</time>
      </trkpt>
      <trkpt lat="41.029667" lon="-3.755717">
        <ele>2089.0</ele>
        <time>2018-07-22T13:03:38Z</time>
      </trkpt>
      <trkpt lat="41.029583" lon="-3.755767">
        <ele>2087.0</ele>
        <time>2018-07-22T13:03:39Z</time>
      </trkpt>
      <trkpt lat="41.029483" lon="-3.755817">
        <ele>2086.0</ele>
        <time>2018-07-22T13:03:40Z</time>
      </trkpt>
      <trkpt lat="41.029383" lon="-3.755883">
        <ele>2085.0</ele>
        <time>2018-07-22T13:03:41Z</time>
      </trkpt>
      <trkpt lat="41.029283" lon="-3.755950">
        <ele>2085.0</ele>
        <time>2018-07-22T13:03:42Z</time>
      </trkpt>
      <trkpt lat="41.029217" lon="-3.756017">
        <ele>2085.0</ele>
        <time>2018-07-22T13:03:43Z</time>
      </trkpt>
      <trkpt lat="41.029167" lon="-3.756100">
        <ele>2084.0</ele>
        <time>2018-07-22T13:03:44Z</time>
      </trkpt>
      <trkpt lat="41.029133" lon="-3.756183">
        <ele>2082.0</ele>
        <time>2018-07-22T13:03:45Z</time>
      </trkpt>
      <trkpt lat="41.029133" lon="-3.756267">
        <ele>2081.0</ele>
        <time>2018-07-22T13:03:46Z</time>
      </trkpt>
      <trkpt lat="41.029150" lon="-3.756333">
        <ele>2079.0</ele>
        <time>2018-07-22T13:03:47Z</time>
      </trkpt>
      <trkpt lat="41.029183" lon="-3.756400">
        <ele>2078.0</ele>
        <time>2018-07-22T13:03:48Z</time>
      </trkpt>
      <trkpt lat="41.029233" lon="-3.756433">
        <ele>2077.0</ele>
        <time>2018-07-22T13:03:49Z</time>
      </trkpt>
      <trkpt lat="41.029283" lon="-3.756467">
        <ele>2075.0</ele>
        <time>2018-07-22T13:03:50Z</time>
      </trkpt>
      <trkpt lat="41.029367" lon="-3.756450">
        <ele>2073.0</ele>
        <time>2018-07-22T13:03:51Z</time>
      </trkpt>
      <trkpt lat="41.029450" lon="-3.756383">
        <ele>2071.0</ele>
        <time>2018-07-22T13:03:52Z</time>
      </trkpt>
      <trkpt lat="41.029517" lon="-3.756317">
        <ele>2069.0</ele>
        <time>2018-07-22T13:03:53Z</time>
      </trkpt>
      <trkpt lat="41.029583" lon="-3.756217">
        <ele>2069.0</ele>
        <time>2018-07-22T13:03:54Z</time>
      </trkpt>
      <trkpt lat="41.029650" lon="-3.756117">
        <ele>2069.0</ele>
        <time>2018-07-22T13:03:55Z</time>
      </trkpt>
      <trkpt lat="41.029700" lon="-3.756017">
        <ele>2069.0</ele>
        <time>2018-07-22T13:03:56Z</time>
      </trkpt>
      <trkpt lat="41.029767" lon="-3.755950">
        <ele>2068.0</ele>
        <time>2018-07-22T13:03:57Z</time>
      </trkpt>
      <trkpt lat="41.029817" lon="-3.755883">
        <ele>2067.0</ele>
        <time>2018-07-22T13:03:58Z</time>
      </trkpt>
      <trkpt lat="41.029900" lon="-3.755833">
        <ele>2066.0</ele>
        <time>2018-07-22T13:03:59Z</time>
      </trkpt>
      <trkpt lat="41.029983" lon="-3.755800">
        <ele>2065.0</ele>
        <time>2018-07-22T13:04:00Z</time>
      </trkpt>
      <trkpt lat="41.030050" lon="-3.755750">
        <ele>2065.0</ele>
        <time>2018-07-22T13:04:01Z</time>
      </trkpt>
      <trkpt lat="41.030117" lon="-3.755717">
        <ele>2065.0</ele>
        <time>2018-07-22T13:04:02Z</time>
      </trkpt>
      <trkpt lat="41.030167" lon="-3.755667">
        <ele>2064.0</ele>
        <time>2018-07-22T13:04:03Z</time>
      </trkpt>
      <trkpt lat="41.030233" lon="-3.755633">
        <ele>2063.0</ele>
        <time>2018-07-22T13:04:04Z</time>
      </trkpt>
      <trkpt lat="41.030300" lon="-3.755583">
        <ele>2061.0</ele>
        <time>2018-07-22T13:04:05Z</time>
      </trkpt>
      <trkpt lat="41.030383" lon="-3.755550">
        <ele>2060.0</ele>
        <time>2018-07-22T13:04:06Z</time>
      </trkpt>
      <trkpt lat="41.030450" lon="-3.755500">
        <ele>2060.0</ele>
        <time>2018-07-22T13:04:07Z</time>
      </trkpt>
      <trkpt lat="41.030517" lon="-3.755433">
        <ele>2059.0</ele>
        <time>2018-07-22T13:04:08Z</time>
      </trkpt>
      <trkpt lat="41.030567" lon="-3.755400">
        <ele>2059.0</ele>
        <time>2018-07-22T13:04:09Z</time>
      </trkpt>
      <trkpt lat="41.030633" lon="-3.755367">
        <ele>2058.0</ele>
        <time>2018-07-22T13:04:10Z</time>
      </trkpt>
      <trkpt lat="41.030700" lon="-3.755367">
        <ele>2057.0</ele>
        <time>2018-07-22T13:04:11Z</time>
      </trkpt>
      <trkpt lat="41.030783" lon="-3.755400">
        <ele>2056.0</ele>
        <time>2018-07-22T13:04:12Z</time>
      </trkpt>
      <trkpt lat="41.030850" lon="-3.755450">
        <ele>2056.0</ele>
        <time>2018-07-22T13:04:13Z</time>
      </trkpt>
      <trkpt lat="41.030900" lon="-3.755517">
        <ele>2057.0</ele>
        <time>2018-07-22T13:04:14Z</time>
      </trkpt>
      <trkpt lat="41.030917" lon="-3.755600">
        <ele>2057.0</ele>
        <time>2018-07-22T13:04:15Z</time>
      </trkpt>
      <trkpt lat="41.030900" lon="-3.755717">
        <ele>2056.0</ele>
        <time>2018-07-22T13:04:16Z</time>
      </trkpt>
      <trkpt lat="41.030867" lon="-3.755817">
        <ele>2054.0</ele>
        <time>2018-07-22T13:04:17Z</time>
      </trkpt>
      <trkpt lat="41.030800" lon="-3.755917">
        <ele>2053.0</ele>
        <time>2018-07-22T13:04:18Z</time>
      </trkpt>
      <trkpt lat="41.030700" lon="-3.756000">
        <ele>2053.0</ele>
        <time>2018-07-22T13:04:19Z</time>
      </trkpt>
      <trkpt lat="41.030600" lon="-3.756050">
        <ele>2053.0</ele>
        <time>2018-07-22T13:04:20Z</time>
      </trkpt>
      <trkpt lat="41.030483" lon="-3.756050">
        <ele>2053.0</ele>
        <time>2018-07-22T13:04:21Z</time>
      </trkpt>
      <trkpt lat="41.030367" lon="-3.756033">
        <ele>2052.0</ele>
        <time>2018-07-22T13:04:22Z</time>
      </trkpt>
      <trkpt lat="41.030250" lon="-3.756000">
        <ele>2052.0</ele>
        <time>2018-07-22T13:04:23Z</time>
      </trkpt>
      <trkpt lat="41.030150" lon="-3.755967">
        <ele>2051.0</ele>
        <time>2018-07-22T13:04:24Z</time>
      </trkpt>
      <trkpt lat="41.030033" lon="-3.755967">
        <ele>2051.0</ele>
        <time>2018-07-22T13:04:25Z</time>
      </trkpt>
      <trkpt lat="41.029933" lon="-3.755983">
        <ele>2049.0</ele>
        <time>2018-07-22T13:04:26Z</time>
      </trkpt>
      <trkpt lat="41.029833" lon="-3.756033">
        <ele>2048.0</ele>
        <time>2018-07-22T13:04:27Z</time>
      </trkpt>
      <trkpt lat="41.029733" lon="-3.756083">
        <ele>2047.0</ele>
        <time>2018-07-22T13:04:28Z</time>
      </trkpt>
      <trkpt lat="41.029633" lon="-3.756167">
        <ele>2046.0</ele>
        <time>2018-07-22T13:04:29Z</time>
      </trkpt>
      <trkpt lat="41.029567" lon="-3.756250">
        <ele>2045.0</ele>
        <time>2018-07-22T13:04:30Z</time>
      </trkpt>
      <trkpt lat="41.029500" lon="-3.756350">
        <ele>2045.0</ele>
        <time>2018-07-22T13:04:31Z</time>
      </trkpt>
      <trkpt lat="41.029450" lon="-3.756467">
        <ele>2043.0</ele>
        <time>2018-07-22T13:04:32Z</time>
      </trkpt>
      <trkpt lat="41.029417" lon="-3.756583">
        <ele>2042.0</ele>
        <time>2018-07-22T13:04:33Z</time>
      </trkpt>
      <trkpt lat="41.029383" lon="-3.756700">
        <ele>2042.0</ele>
        <time>2018-07-22T13:04:34Z</time>
      </trkpt>
      <trkpt lat="41.029350" lon="-3.756817">
        <ele>2042.0</ele>
        <time>2018-07-22T13:04:35Z</time>
      </trkpt>
      <trkpt lat="41.029333" lon="-3.756917">
        <ele>2042.0</ele>
        <time>2018-07-22T13:04:36Z</time>
      </trkpt>
      <trkpt lat="41.029350" lon="-3.757017">
        <ele>2041.0</ele>
        <time>2018-07-22T13:04:37Z</time>
      </trkpt>
      <trkpt lat="41.029383" lon="-3.757083">
        <ele>2039.0</ele>
        <time>2018-07-22T13:04:38Z</time>
      </trkpt>
      <trkpt lat="41.029433" lon="-3.757133">
        <ele>2037.0</ele>
        <time>2018-07-22T13:04:39Z</time>
      </trkpt>
      <trkpt lat="41.029500" lon="-3.757167">
        <ele>2035.0</ele>
        <time>2018-07-22T13:04:40Z</time>
      </trkpt>
      <trkpt lat="41.029567" lon="-3.757167">
        <ele>2034.0</ele>
        <time>2018-07-22T13:04:41Z</time>
      </trkpt>
      <trkpt lat="41.029633" lon="-3.757133">
        <ele>2033.0</ele>
        <time>2018-07-22T13:04:42Z</time>
      </trkpt>
      <trkpt lat="41.029700" lon="-3.757067">
        <ele>2032.0</ele>
        <time>2018-07-22T13:04:43Z</time>
      </trkpt>
      <trkpt lat="41.029750" lon="-3.756983">
        <ele>2031.0</ele>
        <time>2018-07-22T13:04:44Z</time>
      </trkpt>
      <trkpt lat="41.029800" lon="-3.756883">
        <ele>2031.0</ele>
        <time>2018-07-22T13:04:45Z</time>
      </trkpt>
      <trkpt lat="41.029850" lon="-3.756767">
        <ele>2030.0</ele>
        <time>2018-07-22T13:04:46Z</time>
      </trkpt>
      <trkpt lat="41.029900" lon="-3.756667">
        <ele>2029.0</ele>
        <time>2018-07-22T13:04:47Z</time>
      </trkpt>
      <trkpt lat="41.029950" lon="-3.756583">
        <ele>2029.0</ele>
        <time>2018-07-22T13:04:48Z</time>
      </trkpt>
      <trkpt lat="41.030017" lon="-3.756483">
        <ele>2028.0</ele>
        <time>2018-07-22T13:04:49Z</time>
      </trkpt>
      <trkpt lat="41.030067" lon="-3.756400">
        <ele>2026.0</ele>
        <time>2018-07-22T13:04:50Z</time>
      </trkpt>
      <trkpt lat="41.030133" lon="-3.756317">
        <ele>2025.0</ele>
        <time>2018-07-22T13:04:51Z</time>
      </trkpt>
      <trkpt lat="41.030200" lon="-3.756217">
        <ele>2025.0</ele>
        <time>2018-07-22T13:04:52Z</time>
      </trkpt>
      <trkpt lat="41.030250" lon="-3.756133">
        <ele>2025.0</ele>
        <time>2018-07-22T13:04:53Z</time>
      </trkpt>
      <trkpt lat="41.030317" lon="-3.756050">
        <ele>2025.0</ele>
        <time>2018-07-22T13:04:54Z</time>
      </trkpt>
      <trkpt lat="41.030367" lon="-3.755983">
        <ele>2025.0</ele>
        <time>2018-07-22T13:04:55Z</time>
      </trkpt>
      <trkpt lat="41.030417" lon="-3.755917">
        <ele>2025.0</ele>
        <time>2018-07-22T13:04:56Z</time>
      </trkpt>
      <trkpt lat="41.030483" lon="-3.755850">
        <ele>2024.0</ele>
        <time>2018-07-22T13:04:57Z</time>
      </trkpt>
      <trkpt lat="41.030550" lon="-3.755767">
        <ele>2022.0</ele>
        <time>2018-07-22T13:04:58Z</time>
      </trkpt>
      <trkpt lat="41.030633" lon="-3.755700">
        <ele>2022.0</ele>
        <time>2018-07-22T13:04:59Z</time>
      </trkpt>
      <trkpt lat="41.030700" lon="-3.755633">
        <ele>2022.0</ele>
        <time>2018-07-22T13:05:00Z</time>
      </trkpt>
      <trkpt lat="41.030750" lon="-3.755567">
        <ele>2022.0</ele>
        <time>2018-07-22T13:05:01Z</time>
      </trkpt>
      <trkpt lat="41.030817" lon="-3.755517">
        <ele>2023.0</ele>
        <time>2018-07-22T13:05:02Z</time>
      </trkpt>
      <trkpt lat="41.030883" lon="-3.755450">
        <ele>2023.0</ele>
        <time>2018-07-22T13:05:03Z</time>
      </trkpt>
      <trkpt lat="41.030950" lon="-3.755383">
        <ele>2022.0</ele>
        <time>2018-07-22T13:05:04Z</time>
      </trkpt>
      <trkpt lat="41.031017" lon="-3.755333">
        <ele>2022.0</ele>
        <time>2018-07-22T13:05:05Z</time>
      </trkpt>
      <trkpt lat="41.031100" lon="-3.755267">
        <ele>2022.0</ele>
        <time>2018-07-22T13:05:06Z</time>
      </trkpt>
      <trkpt lat="41.031167" lon="-3.755217">
        <ele>2022.0</ele>
        <time>2018-07-22T13:05:07Z</time>
      </trkpt>
      <trkpt lat="41.031250" lon="-3.755150">
        <ele>2022.0</ele>
        <time>2018-07-22T13:05:08Z</time>
      </trkpt>
      <trkpt lat="41.031317" lon="-3.755083">
        <ele>2022.0</ele>
        <time>2018-07-22T13:05:09Z</time>
      </trkpt>
      <trkpt lat="41.031383" lon="-3.755017">
        <ele>2022.0</ele>
        <time>2018-07-22T13:05:10Z</time>
      </trkpt>
      <trkpt lat="41.031450" lon="-3.754933">
        <ele>2022.0</ele>
        <time>2018-07-22T13:05:11Z</time>
      </trkpt>
      <trkpt lat="41.031517" lon="-3.754867">
        <ele>2020.0</ele>
        <time>2018-07-22T13:05:12Z</time>
      </trkpt>
      <trkpt lat="41.031600" lon="-3.754783">
        <ele>2019.0</ele>
        <time>2018-07-22T13:05:13Z</time>
      </trkpt>
      <trkpt lat="41.031683" lon="-3.754717">
        <ele>2019.0</ele>
        <time>2018-07-22T13:05:14Z</time>
      </trkpt>
      <trkpt lat="41.031750" lon="-3.754650">
        <ele>2019.0</ele>
        <time>2018-07-22T13:05:15Z</time>
      </trkpt>
      <trkpt lat="41.031833" lon="-3.754583">
        <ele>2018.0</ele>
        <time>2018-07-22T13:05:16Z</time>
      </trkpt>
      <trkpt lat="41.031900" lon="-3.754517">
        <ele>2018.0</ele>
        <time>2018-07-22T13:05:17Z</time>
      </trkpt>
      <trkpt lat="41.031983" lon="-3.754450">
        <ele>2017.0</ele>
        <time>2018-07-22T13:05:18Z</time>
      </trkpt>
      <trkpt lat="41.032050" lon="-3.754383">
        <ele>2016.0</ele>
        <time>2018-07-22T13:05:19Z</time>
      </trkpt>
      <trkpt lat="41.032133" lon="-3.754333">
        <ele>2015.0</ele>
        <time>2018-07-22T13:05:20Z</time>
      </trkpt>
      <trkpt lat="41.032233" lon="-3.754283">
        <ele>2014.0</ele>
        <time>2018-07-22T13:05:21Z</time>
      </trkpt>
      <trkpt lat="41.032317" lon="-3.754233">
        <ele>2015.0</ele>
        <time>2018-07-22T13:05:22Z</time>
      </trkpt>
      <trkpt lat="41.032417" lon="-3.754200">
        <ele>2016.0</ele>
        <time>2018-07-22T13:05:23Z</time>
      </trkpt>
      <trkpt lat="41.032500" lon="-3.754167">
        <ele>2018.0</ele>
        <time>2018-07-22T13:05:24Z</time>
      </trkpt>
      <trkpt lat="41.032567" lon="-3.754133">
        <ele>2019.0</ele>
        <time>2018-07-22T13:05:25Z</time>
      </trkpt>
      <trkpt lat="41.032633" lon="-3.754100">
        <ele>2019.0</ele>
        <time>2018-07-22T13:05:26Z</time>
      </trkpt>
      <trkpt lat="41.032700" lon="-3.754067">
        <ele>2019.0</ele>
        <time>2018-07-22T13:05:27Z</time>
      </trkpt>
      <trkpt lat="41.032783" lon="-3.754017">
        <ele>2018.0</ele>
        <time>2018-07-22T13:05:28Z</time>
      </trkpt>
      <trkpt lat="41.032850" lon="-3.753967">
        <ele>2017.0</ele>
        <time>2018-07-22T13:05:29Z</time>
      </trkpt>
      <trkpt lat="41.032933" lon="-3.753917">
        <ele>2016.0</ele>
        <time>2018-07-22T13:05:30Z</time>
      </trkpt>
      <trkpt lat="41.033000" lon="-3.753850">
        <ele>2015.0</ele>
        <time>2018-07-22T13:05:31Z</time>
      </trkpt>
      <trkpt lat="41.033067" lon="-3.753767">
        <ele>2015.0</ele>
        <time>2018-07-22T13:05:32Z</time>
      </trkpt>
      <trkpt lat="41.033117" lon="-3.753683">
        <ele>2014.0</ele>
        <time>2018-07-22T13:05:33Z</time>
      </trkpt>
      <trkpt lat="41.033167" lon="-3.753600">
        <ele>2014.0</ele>
        <time>2018-07-22T13:05:34Z</time>
      </trkpt>
      <trkpt lat="41.033233" lon="-3.753500">
        <ele>2013.0</ele>
        <time>2018-07-22T13:05:35Z</time>
      </trkpt>
      <trkpt lat="41.033283" lon="-3.753400">
        <ele>2013.0</ele>
        <time>2018-07-22T13:05:36Z</time>
      </trkpt>
      <trkpt lat="41.033333" lon="-3.753300">
        <ele>2014.0</ele>
        <time>2018-07-22T13:05:37Z</time>
      </trkpt>
      <trkpt lat="41.033383" lon="-3.753200">
        <ele>2014.0</ele>
        <time>2018-07-22T13:05:38Z</time>
      </trkpt>
      <trkpt lat="41.033450" lon="-3.753117">
        <ele>2014.0</ele>
        <time>2018-07-22T13:05:39Z</time>
      </trkpt>
      <trkpt lat="41.033517" lon="-3.753017">
        <ele>2014.0</ele>
        <time>2018-07-22T13:05:40Z</time>
      </trkpt>
      <trkpt lat="41.033600" lon="-3.752933">
        <ele>2012.0</ele>
        <time>2018-07-22T13:05:41Z</time>
      </trkpt>
      <trkpt lat="41.033667" lon="-3.752833">
        <ele>2011.0</ele>
        <time>2018-07-22T13:05:42Z</time>
      </trkpt>
      <trkpt lat="41.033750" lon="-3.752767">
        <ele>2011.0</ele>
        <time>2018-07-22T13:05:43Z</time>
      </trkpt>
      <trkpt lat="41.033817" lon="-3.752683">
        <ele>2011.0</ele>
        <time>2018-07-22T13:05:44Z</time>
      </trkpt>
      <trkpt lat="41.033867" lon="-3.752617">
        <ele>2010.0</ele>
        <time>2018-07-22T13:05:45Z</time>
      </trkpt>
      <trkpt lat="41.033933" lon="-3.752550">
        <ele>2009.0</ele>
        <time>2018-07-22T13:05:46Z</time>
      </trkpt>
      <trkpt lat="41.034017" lon="-3.752467">
        <ele>2006.0</ele>
        <time>2018-07-22T13:05:47Z</time>
      </trkpt>
      <trkpt lat="41.034100" lon="-3.752400">
        <ele>2003.0</ele>
        <time>2018-07-22T13:05:48Z</time>
      </trkpt>
      <trkpt lat="41.034183" lon="-3.752317">
        <ele>2002.0</ele>
        <time>2018-07-22T13:05:49Z</time>
      </trkpt>
      <trkpt lat="41.034267" lon="-3.752233">
        <ele>2002.0</ele>
        <time>2018-07-22T13:05:50Z</time>
      </trkpt>
      <trkpt lat="41.034350" lon="-3.752167">
        <ele>2002.0</ele>
        <time>2018-07-22T13:05:51Z</time>
      </trkpt>
      <trkpt lat="41.034433" lon="-3.752100">
        <ele>2001.0</ele>
        <time>2018-07-22T13:05:52Z</time>
      </trkpt>
      <trkpt lat="41.034517" lon="-3.752033">
        <ele>2000.0</ele>
        <time>2018-07-22T13:05:53Z</time>
      </trkpt>
      <trkpt lat="41.034600" lon="-3.751950">
        <ele>1998.0</ele>
        <time>2018-07-22T13:05:54Z</time>
      </trkpt>
      <trkpt lat="41.034683" lon="-3.751867">
        <ele>1996.0</ele>
        <time>2018-07-22T13:05:55Z</time>
      </trkpt>
      <trkpt lat="41.034783" lon="-3.751783">
        <ele>1995.0</ele>
        <time>2018-07-22T13:05:56Z</time>
      </trkpt>
      <trkpt lat="41.034900" lon="-3.751717">
        <ele>1994.0</ele>
        <time>2018-07-22T13:05:57Z</time>
      </trkpt>
      <trkpt lat="41.035000" lon="-3.751633">
        <ele>1995.0</ele>
        <time>2018-07-22T13:05:58Z</time>
      </trkpt>
      <trkpt lat="41.035083" lon="-3.751567">
        <ele>1996.0</ele>
        <time>2018-07-22T13:05:59Z</time>
      </trkpt>
      <trkpt lat="41.035167" lon="-3.751517">
        <ele>1999.0</ele>
        <time>2018-07-22T13:06:00Z</time>
      </trkpt>
      <trkpt lat="41.035250" lon="-3.751467">
        <ele>2000.0</ele>
        <time>2018-07-22T13:06:01Z</time>
      </trkpt>
      <trkpt lat="41.035333" lon="-3.751417">
        <ele>2001.0</ele>
        <time>2018-07-22T13:06:02Z</time>
      </trkpt>
      <trkpt lat="41.035417" lon="-3.751367">
        <ele>2001.0</ele>
        <time>2018-07-22T13:06:03Z</time>
      </trkpt>
      <trkpt lat="41.035500" lon="-3.751317">
        <ele>2002.0</ele>
        <time>2018-07-22T13:06:04Z</time>
      </trkpt>
      <trkpt lat="41.035600" lon="-3.751250">
        <ele>2003.0</ele>
        <time>2018-07-22T13:06:05Z</time>
      </trkpt>
      <trkpt lat="41.035667" lon="-3.751167">
        <ele>2005.0</ele>
        <time>2018-07-22T13:06:06Z</time>
      </trkpt>
      <trkpt lat="41.035733" lon="-3.751083">
        <ele>2006.0</ele>
        <time>2018-07-22T13:06:07Z</time>
      </trkpt>
      <trkpt lat="41.035800" lon="-3.751000">
        <ele>2009.0</ele>
        <time>2018-07-22T13:06:08Z</time>
      </trkpt>
      <trkpt lat="41.035867" lon="-3.750950">
        <ele>2011.0</ele>
        <time>2018-07-22T13:06:09Z</time>
      </trkpt>
      <trkpt lat="41.035917" lon="-3.750950">
        <ele>2011.0</ele>
        <time>2018-07-22T13:06:10Z</time>
      </trkpt>
      <trkpt lat="41.035983" lon="-3.751017">
        <ele>2010.0</ele>
        <time>2018-07-22T13:06:11Z</time>
      </trkpt>
      <trkpt lat="41.036017" lon="-3.751100">
        <ele>2009.0</ele>
        <time>2018-07-22T13:06:12Z</time>
      </trkpt>
      <trkpt lat="41.036033" lon="-3.751217">
        <ele>2008.0</ele>
        <time>2018-07-22T13:06:13Z</time>
      </trkpt>
      <trkpt lat="41.036033" lon="-3.751350">
        <ele>2007.0</ele>
        <time>2018-07-22T13:06:14Z</time>
      </trkpt>
      <trkpt lat="41.036017" lon="-3.751467">
        <ele>2009.0</ele>
        <time>2018-07-22T13:06:15Z</time>
      </trkpt>
      <trkpt lat="41.036000" lon="-3.751567">
        <ele>2011.0</ele>
        <time>2018-07-22T13:06:16Z</time>
      </trkpt>
      <trkpt lat="41.035967" lon="-3.751650">
        <ele>2013.0</ele>
        <time>2018-07-22T13:06:17Z</time>
      </trkpt>
      <trkpt lat="41.035900" lon="-3.751733">
        <ele>2014.0</ele>
        <time>2018-07-22T13:06:18Z</time>
      </trkpt>
      <trkpt lat="41.035800" lon="-3.751800">
        <ele>2013.0</ele>
        <time>2018-07-22T13:06:19Z</time>
      </trkpt>
      <trkpt lat="41.035683" lon="-3.751850">
        <ele>2012.0</ele>
        <time>2018-07-22T13:06:20Z</time>
      </trkpt>
      <trkpt lat="41.035567" lon="-3.751900">
        <ele>2014.0</ele>
        <time>2018-07-22T13:06:21Z</time>
      </trkpt>
      <trkpt lat="41.035467" lon="-3.751967">
        <ele>2016.0</ele>
        <time>2018-07-22T13:06:22Z</time>
      </trkpt>
      <trkpt lat="41.035400" lon="-3.752050">
        <ele>2017.0</ele>
        <time>2018-07-22T13:06:23Z</time>
      </trkpt>
      <trkpt lat="41.035350" lon="-3.752133">
        <ele>2017.0</ele>
        <time>2018-07-22T13:06:24Z</time>
      </trkpt>
      <trkpt lat="41.035333" lon="-3.752233">
        <ele>2016.0</ele>
        <time>2018-07-22T13:06:25Z</time>
      </trkpt>
      <trkpt lat="41.035333" lon="-3.752333">
        <ele>2014.0</ele>
        <time>2018-07-22T13:06:26Z</time>
      </trkpt>
      <trkpt lat="41.035383" lon="-3.752417">
        <ele>2012.0</ele>
        <time>2018-07-22T13:06:27Z</time>
      </trkpt>
      <trkpt lat="41.035467" lon="-3.752483">
        <ele>2010.0</ele>
        <time>2018-07-22T13:06:28Z</time>
      </trkpt>
      <trkpt lat="41.035567" lon="-3.752483">
        <ele>2010.0</ele>
        <time>2018-07-22T13:06:29Z</time>
      </trkpt>
      <trkpt lat="41.035650" lon="-3.752450">
        <ele>2010.0</ele>
        <time>2018-07-22T13:06:30Z</time>
      </trkpt>
      <trkpt lat="41.035717" lon="-3.752383">
        <ele>2010.0</ele>
        <time>2018-07-22T13:06:31Z</time>
      </trkpt>
      <trkpt lat="41.035767" lon="-3.752283">
        <ele>2010.0</ele>
        <time>2018-07-22T13:06:32Z</time>
      </trkpt>
      <trkpt lat="41.035800" lon="-3.752150">
        <ele>2010.0</ele>
        <time>2018-07-22T13:06:33Z</time>
      </trkpt>
      <trkpt lat="41.035833" lon="-3.752017">
        <ele>2011.0</ele>
        <time>2018-07-22T13:06:34Z</time>
      </trkpt>
      <trkpt lat="41.035850" lon="-3.751883">
        <ele>2013.0</ele>
        <time>2018-07-22T13:06:35Z</time>
      </trkpt>
      <trkpt lat="41.035867" lon="-3.751750">
        <ele>2015.0</ele>
        <time>2018-07-22T13:06:36Z</time>
      </trkpt>
      <trkpt lat="41.035883" lon="-3.751633">
        <ele>2018.0</ele>
        <time>2018-07-22T13:06:37Z</time>
      </trkpt>
      <trkpt lat="41.035883" lon="-3.751517">
        <ele>2020.0</ele>
        <time>2018-07-22T13:06:38Z</time>
      </trkpt>
      <trkpt lat="41.035883" lon="-3.751400">
        <ele>2021.0</ele>
        <time>2018-07-22T13:06:39Z</time>
      </trkpt>
      <trkpt lat="41.035883" lon="-3.751267">
        <ele>2021.0</ele>
        <time>2018-07-22T13:06:40Z</time>
      </trkpt>
      <trkpt lat="41.035883" lon="-3.751133">
        <ele>2022.0</ele>
        <time>2018-07-22T13:06:41Z</time>
      </trkpt>
      <trkpt lat="41.035900" lon="-3.751017">
        <ele>2021.0</ele>
        <time>2018-07-22T13:06:42Z</time>
      </trkpt>
      <trkpt lat="41.035933" lon="-3.750917">
        <ele>2020.0</ele>
        <time>2018-07-22T13:06:43Z</time>
      </trkpt>
      <trkpt lat="41.036000" lon="-3.750850">
        <ele>2018.0</ele>
        <time>2018-07-22T13:06:44Z</time>
      </trkpt>
      <trkpt lat="41.036083" lon="-3.750817">
        <ele>2016.0</ele>
        <time>2018-07-22T13:06:45Z</time>
      </trkpt>
      <trkpt lat="41.036150" lon="-3.750833">
        <ele>2015.0</ele>
        <time>2018-07-22T13:06:46Z</time>
      </trkpt>
      <trkpt lat="41.036217" lon="-3.750883">
        <ele>2016.0</ele>
        <time>2018-07-22T13:06:47Z</time>
      </trkpt>
      <trkpt lat="41.036250" lon="-3.750950">
        <ele>2016.0</ele>
        <time>2018-07-22T13:06:48Z</time>
      </trkpt>
      <trkpt lat="41.036283" lon="-3.751017">
        <ele>2016.0</ele>
        <time>2018-07-22T13:06:49Z</time>
      </trkpt>
      <trkpt lat="41.036300" lon="-3.751083">
        <ele>2016.0</ele>
        <time>2018-07-22T13:06:50Z</time>
      </trkpt>
      <trkpt lat="41.036300" lon="-3.751167">
        <ele>2014.0</ele>
        <time>2018-07-22T13:06:51Z</time>
      </trkpt>
      <trkpt lat="41.036283" lon="-3.751267">
        <ele>2012.0</ele>
        <time>2018-07-22T13:06:52Z</time>
      </trkpt>
      <trkpt lat="41.036217" lon="-3.751367">
        <ele>2010.0</ele>
        <time>2018-07-22T13:06:53Z</time>
      </trkpt>
      <trkpt lat="41.036117" lon="-3.751450">
        <ele>2007.0</ele>
        <time>2018-07-22T13:06:54Z</time>
      </trkpt>
      <trkpt lat="41.035983" lon="-3.751483">
        <ele>2006.0</ele>
        <time>2018-07-22T13:06:55Z</time>
      </trkpt>
      <trkpt lat="41.035867" lon="-3.751500">
        <ele>2007.0</ele>
        <time>2018-07-22T13:06:56Z</time>
      </trkpt>
      <trkpt lat="41.035750" lon="-3.751500">
        <ele>2010.0</ele>
        <time>2018-07-22T13:06:57Z</time>
      </trkpt>
      <trkpt lat="41.035650" lon="-3.751500">
        <ele>2011.0</ele>
        <time>2018-07-22T13:06:58Z</time>
      </trkpt>
      <trkpt lat="41.035550" lon="-3.751517">
        <ele>2013.0</ele>
        <time>2018-07-22T13:06:59Z</time>
      </trkpt>
      <trkpt lat="41.035450" lon="-3.751533">
        <ele>2014.0</ele>
        <time>2018-07-22T13:07:00Z</time>
      </trkpt>
      <trkpt lat="41.035350" lon="-3.751533">
        <ele>2016.0</ele>
        <time>2018-07-22T13:07:01Z</time>
      </trkpt>
      <trkpt lat="41.035233" lon="-3.751533">
        <ele>2017.0</ele>
        <time>2018-07-22T13:07:02Z</time>
      </trkpt>
      <trkpt lat="41.035150" lon="-3.751500">
        <ele>2018.0</ele>
        <time>2018-07-22T13:07:03Z</time>
      </trkpt>
      <trkpt lat="41.035050" lon="-3.751467">
        <ele>2018.0</ele>
        <time>2018-07-22T13:07:04Z</time>
      </trkpt>
      <trkpt lat="41.034967" lon="-3.751450">
        <ele>2017.0</ele>
        <time>2018-07-22T13:07:05Z</time>
      </trkpt>
      <trkpt lat="41.034867" lon="-3.751450">
        <ele>2016.0</ele>
        <time>2018-07-22T13:07:06Z</time>
      </trkpt>
      <trkpt lat="41.034767" lon="-3.751483">
        <ele>2014.0</ele>
        <time>2018-07-22T13:07:07Z</time>
      </trkpt>
      <trkpt lat="41.034683" lon="-3.751550">
        <ele>2013.0</ele>
        <time>2018-07-22T13:07:08Z</time>
      </trkpt>
      <trkpt lat="41.034617" lon="-3.751633">
        <ele>2013.0</ele>
        <time>2018-07-22T13:07:09Z</time>
      </trkpt>
      <trkpt lat="41.034600" lon="-3.751733">
        <ele>2012.0</ele>
        <time>2018-07-22T13:07:10Z</time>
      </trkpt>
      <trkpt lat="41.034600" lon="-3.751833">
        <ele>2011.0</ele>
        <time>2018-07-22T13:07:11Z</time>
      </trkpt>
      <trkpt lat="41.034650" lon="-3.751900">
        <ele>2009.0</ele>
        <time>2018-07-22T13:07:12Z</time>
      </trkpt>
      <trkpt lat="41.034733" lon="-3.751950">
        <ele>2007.0</ele>
        <time>2018-07-22T13:07:13Z</time>
      </trkpt>
      <trkpt lat="41.034833" lon="-3.751983">
        <ele>2006.0</ele>
        <time>2018-07-22T13:07:14Z</time>
      </trkpt>
      <trkpt lat="41.034933" lon="-3.751950">
        <ele>2005.0</ele>
        <time>2018-07-22T13:07:15Z</time>
      </trkpt>
      <trkpt lat="41.035017" lon="-3.751883">
        <ele>2005.0</ele>
        <time>2018-07-22T13:07:16Z</time>
      </trkpt>
      <trkpt lat="41.035083" lon="-3.751800">
        <ele>2006.0</ele>
        <time>2018-07-22T13:07:17Z</time>
      </trkpt>
      <trkpt lat="41.035150" lon="-3.751700">
        <ele>2007.0</ele>
        <time>2018-07-22T13:07:18Z</time>
      </trkpt>
      <trkpt lat="41.035200" lon="-3.751600">
        <ele>2009.0</ele>
        <time>2018-07-22T13:07:19Z</time>
      </trkpt>
      <trkpt lat="41.035267" lon="-3.751500">
        <ele>2010.0</ele>
        <time>2018-07-22T13:07:20Z</time>
      </trkpt>
      <trkpt lat="41.035300" lon="-3.751400">
        <ele>2011.0</ele>
        <time>2018-07-22T13:07:21Z</time>
      </trkpt>
      <trkpt lat="41.035350" lon="-3.751300">
        <ele>2013.0</ele>
        <time>2018-07-22T13:07:22Z</time>
      </trkpt>
      <trkpt lat="41.035383" lon="-3.751200">
        <ele>2015.0</ele>
        <time>2018-07-22T13:07:23Z</time>
      </trkpt>
      <trkpt lat="41.035433" lon="-3.751117">
        <ele>2016.0</ele>
        <time>2018-07-22T13:07:24Z</time>
      </trkpt>
      <trkpt lat="41.035483" lon="-3.751017">
        <ele>2017.0</ele>
        <time>2018-07-22T13:07:25Z</time>
      </trkpt>
      <trkpt lat="41.035517" lon="-3.750933">
        <ele>2017.0</ele>
        <time>2018-07-22T13:07:26Z</time>
      </trkpt>
      <trkpt lat="41.035567" lon="-3.750867">
        <ele>2016.0</ele>
        <time>2018-07-22T13:07:27Z</time>
      </trkpt>
      <trkpt lat="41.035633" lon="-3.750800">
        <ele>2015.0</ele>
        <time>2018-07-22T13:07:28Z</time>
      </trkpt>
      <trkpt lat="41.035700" lon="-3.750750">
        <ele>2014.0</ele>
        <time>2018-07-22T13:07:29Z</time>
      </trkpt>
      <trkpt lat="41.035783" lon="-3.750717">
        <ele>2013.0</ele>
        <time>2018-07-22T13:07:30Z</time>
      </trkpt>
      <trkpt lat="41.035867" lon="-3.750667">
        <ele>2014.0</ele>
        <time>2018-07-22T13:07:31Z</time>
      </trkpt>
      <trkpt lat="41.035950" lon="-3.750633">
        <ele>2015.0</ele>
        <time>2018-07-22T13:07:32Z</time>
      </trkpt>
      <trkpt lat="41.036000" lon="-3.750583">
        <ele>2017.0</ele>
        <time>2018-07-22T13:07:33Z</time>
      </trkpt>
      <trkpt lat="41.036050" lon="-3.750550">
        <ele>2018.0</ele>
        <time>2018-07-22T13:07:34Z</time>
      </trkpt>
      <trkpt lat="41.036100" lon="-3.750500">
        <ele>2018.0</ele>
        <time>2018-07-22T13:07:35Z</time>
      </trkpt>
      <trkpt lat="41.036150" lon="-3.750467">
        <ele>2017.0</ele>
        <time>2018-07-22T13:07:36Z</time>
      </trkpt>
      <trkpt lat="41.036217" lon="-3.750433">
        <ele>2016.0</ele>
        <time>2018-07-22T13:07:37Z</time>
      </trkpt>
      <trkpt lat="41.036283" lon="-3.750383">
        <ele>2015.0</ele>
        <time>2018-07-22T13:07:38Z</time>
      </trkpt>
      <trkpt lat="41.036350" lon="-3.750333">
        <ele>2015.0</ele>
        <time>2018-07-22T13:07:39Z</time>
      </trkpt>
      <trkpt lat="41.036433" lon="-3.750283">
        <ele>2015.0</ele>
        <time>2018-07-22T13:07:40Z</time>
      </trkpt>
      <trkpt lat="41.036483" lon="-3.750217">
        <ele>2015.0</ele>
        <time>2018-07-22T13:07:41Z</time>
      </trkpt>
      <trkpt lat="41.036550" lon="-3.750167">
        <ele>2016.0</ele>
        <time>2018-07-22T13:07:42Z</time>
      </trkpt>
      <trkpt lat="41.036617" lon="-3.750117">
        <ele>2016.0</ele>
        <time>2018-07-22T13:07:43Z</time>
      </trkpt>
      <trkpt lat="41.036683" lon="-3.750050">
        <ele>2016.0</ele>
        <time>2018-07-22T13:07:44Z</time>
      </trkpt>
      <trkpt lat="41.036750" lon="-3.749983">
        <ele>2015.0</ele>
        <time>2018-07-22T13:07:45Z</time>
      </trkpt>
      <trkpt lat="41.036817" lon="-3.749917">
        <ele>2016.0</ele>
        <time>2018-07-22T13:07:46Z</time>
      </trkpt>
      <trkpt lat="41.036883" lon="-3.749817">
        <ele>2016.0</ele>
        <time>2018-07-22T13:07:47Z</time>
      </trkpt>
      <trkpt lat="41.036933" lon="-3.749733">
        <ele>2017.0</ele>
        <time>2018-07-22T13:07:48Z</time>
      </trkpt>
      <trkpt lat="41.037000" lon="-3.749633">
        <ele>2018.0</ele>
        <time>2018-07-22T13:07:49Z</time>
      </trkpt>
      <trkpt lat="41.037050" lon="-3.749533">
        <ele>2018.0</ele>
        <time>2018-07-22T13:07:50Z</time>
      </trkpt>
      <trkpt lat="41.037083" lon="-3.749433">
        <ele>2019.0</ele>
        <time>2018-07-22T13:07:51Z</time>
      </trkpt>
      <trkpt lat="41.037133" lon="-3.749350">
        <ele>2019.0</ele>
        <time>2018-07-22T13:07:52Z</time>
      </trkpt>
      <trkpt lat="41.037200" lon="-3.749267">
        <ele>2018.0</ele>
        <time>2018-07-22T13:07:53Z</time>
      </trkpt>
      <trkpt lat="41.037250" lon="-3.749183">
        <ele>2018.0</ele>
        <time>2018-07-22T13:07:54Z</time>
      </trkpt>
      <trkpt lat="41.037317" lon="-3.749117">
        <ele>2017.0</ele>
        <time>2018-07-22T13:07:55Z</time>
      </trkpt>
      <trkpt lat="41.037367" lon="-3.749050">
        <ele>2016.0</ele>
        <time>2018-07-22T13:07:56Z</time>
      </trkpt>
      <trkpt lat="41.037433" lon="-3.748967">
        <ele>2016.0</ele>
        <time>2018-07-22T13:07:57Z</time>
      </trkpt>
      <trkpt lat="41.037500" lon="-3.748900">
        <ele>2015.0</ele>
        <time>2018-07-22T13:07:58Z</time>
      </trkpt>
      <trkpt lat="41.037583" lon="-3.748833">
        <ele>2015.0</ele>
        <time>2018-07-22T13:07:59Z</time>
      </trkpt>
      <trkpt lat="41.037650" lon="-3.748767">
        <ele>2015.0</ele>
        <time>2018-07-22T13:08:00Z</time>
      </trkpt>
      <trkpt lat="41.037717" lon="-3.748733">
        <ele>2015.0</ele>
        <time>2018-07-22T13:08:01Z</time>
      </trkpt>
      <trkpt lat="41.037783" lon="-3.748700">
        <ele>2015.0</ele>
        <time>2018-07-22T13:08:02Z</time>
      </trkpt>
      <trkpt lat="41.037850" lon="-3.748667">
        <ele>2014.0</ele>
        <time>2018-07-22T13:08:03Z</time>
      </trkpt>
      <trkpt lat="41.037917" lon="-3.748633">
        <ele>2014.0</ele>
        <time>2018-07-22T13:08:04Z</time>
      </trkpt>
      <trkpt lat="41.037983" lon="-3.748600">
        <ele>2014.0</ele>
        <time>2018-07-22T13:08:05Z</time>
      </trkpt>
      <trkpt lat="41.038067" lon="-3.748583">
        <ele>2014.0</ele>
        <time>2018-07-22T13:08:06Z</time>
      </trkpt>
      <trkpt lat="41.038150" lon="-3.748567">
        <ele>2014.0</ele>
        <time>2018-07-22T13:08:07Z</time>
      </trkpt>
      <trkpt lat="41.038217" lon="-3.748550">
        <ele>2015.0</ele>
        <time>2018-07-22T13:08:08Z</time>
      </trkpt>
      <trkpt lat="41.038300" lon="-3.748517">
        <ele>2014.0</ele>
        <time>2018-07-22T13:08:09Z</time>
      </trkpt>
      <trkpt lat="41.038367" lon="-3.748500">
        <ele>2013.0</ele>
        <time>2018-07-22T13:08:10Z</time>
      </trkpt>
      <trkpt lat="41.038433" lon="-3.748467">
        <ele>2013.0</ele>
        <time>2018-07-22T13:08:11Z</time>
      </trkpt>
      <trkpt lat="41.038517" lon="-3.748433">
        <ele>2012.0</ele>
        <time>2018-07-22T13:08:12Z</time>
      </trkpt>
      <trkpt lat="41.038583" lon="-3.748400">
        <ele>2012.0</ele>
        <time>2018-07-22T13:08:13Z</time>
      </trkpt>
      <trkpt lat="41.038650" lon="-3.748367">
        <ele>2012.0</ele>
        <time>2018-07-22T13:08:14Z</time>
      </trkpt>
      <trkpt lat="41.038717" lon="-3.748333">
        <ele>2012.0</ele>
        <time>2018-07-22T13:08:15Z</time>
      </trkpt>
      <trkpt lat="41.038767" lon="-3.748283">
        <ele>2011.0</ele>
        <time>2018-07-22T13:08:16Z</time>
      </trkpt>
      <trkpt lat="41.038833" lon="-3.748233">
        <ele>2010.0</ele>
        <time>2018-07-22T13:08:17Z</time>
      </trkpt>
      <trkpt lat="41.038900" lon="-3.748183">
        <ele>2008.0</ele>
        <time>2018-07-22T13:08:18Z</time>
      </trkpt>
      <trkpt lat="41.038967" lon="-3.748150">
        <ele>2006.0</ele>
        <time>2018-07-22T13:08:19Z</time>
      </trkpt>
      <trkpt lat="41.039033" lon="-3.748117">
        <ele>2004.0</ele>
        <time>2018-07-22T13:08:20Z</time>
      </trkpt>
      <trkpt lat="41.039100" lon="-3.748067">
        <ele>2002.0</ele>
        <time>2018-07-22T13:08:21Z</time>
      </trkpt>
      <trkpt lat="41.039183" lon="-3.748000">
        <ele>2001.0</ele>
        <time>2018-07-22T13:08:22Z</time>
      </trkpt>
      <trkpt lat="41.039267" lon="-3.747917">
        <ele>2000.0</ele>
        <time>2018-07-22T13:08:23Z</time>
      </trkpt>
      <trkpt lat="41.039350" lon="-3.747850">
        <ele>2000.0</ele>
        <time>2018-07-22T13:08:24Z</time>
      </trkpt>
      <trkpt lat="41.039433" lon="-3.747767">
        <ele>2001.0</ele>
        <time>2018-07-22T13:08:25Z</time>
      </trkpt>
      <trkpt lat="41.039500" lon="-3.747683">
        <ele>2001.0</ele>
        <time>2018-07-22T13:08:26Z</time>
      </trkpt>
      <trkpt lat="41.039567" lon="-3.747600">
        <ele>2001.0</ele>
        <time>2018-07-22T13:08:27Z</time>
      </trkpt>
      <trkpt lat="41.039650" lon="-3.747517">
        <ele>2000.0</ele>
        <time>2018-07-22T13:08:28Z</time>
      </trkpt>
      <trkpt lat="41.039717" lon="-3.747433">
        <ele>1999.0</ele>
        <time>2018-07-22T13:08:29Z</time>
      </trkpt>
      <trkpt lat="41.039800" lon="-3.747350">
        <ele>1999.0</ele>
        <time>2018-07-22T13:08:30Z</time>
      </trkpt>
      <trkpt lat="41.039883" lon="-3.747267">
        <ele>1999.0</ele>
        <time>2018-07-22T13:08:31Z</time>
      </trkpt>
      <trkpt lat="41.039950" lon="-3.747200">
        <ele>1998.0</ele>
        <time>2018-07-22T13:08:32Z</time>
      </trkpt>
      <trkpt lat="41.040033" lon="-3.747133">
        <ele>1997.0</ele>
        <time>2018-07-22T13:08:33Z</time>
      </trkpt>
      <trkpt lat="41.040117" lon="-3.747067">
        <ele>1994.0</ele>
        <time>2018-07-22T13:08:34Z</time>
      </trkpt>
      <trkpt lat="41.040200" lon="-3.746983">
        <ele>1993.0</ele>
        <time>2018-07-22T13:08:35Z</time>
      </trkpt>
      <trkpt lat="41.040267" lon="-3.746900">
        <ele>1991.0</ele>
        <time>2018-07-22T13:08:36Z</time>
      </trkpt>
      <trkpt lat="41.040367" lon="-3.746800">
        <ele>1990.0</ele>
        <time>2018-07-22T13:08:37Z</time>
      </trkpt>
      <trkpt lat="41.040450" lon="-3.746733">
        <ele>1988.0</ele>
        <time>2018-07-22T13:08:38Z</time>
      </trkpt>
      <trkpt lat="41.040533" lon="-3.746650">
        <ele>1988.0</ele>
        <time>2018-07-22T13:08:39Z</time>
      </trkpt>
      <trkpt lat="41.040617" lon="-3.746583">
        <ele>1987.0</ele>
        <time>2018-07-22T13:08:40Z</time>
      </trkpt>
      <trkpt lat="41.040700" lon="-3.746533">
        <ele>1986.0</ele>
        <time>2018-07-22T13:08:41Z</time>
      </trkpt>
      <trkpt lat="41.040783" lon="-3.746483">
        <ele>1984.0</ele>
        <time>2018-07-22T13:08:42Z</time>
      </trkpt>
      <trkpt lat="41.040867" lon="-3.746433">
        <ele>1982.0</ele>
        <time>2018-07-22T13:08:43Z</time>
      </trkpt>
      <trkpt lat="41.040967" lon="-3.746417">
        <ele>1978.0</ele>
        <time>2018-07-22T13:08:44Z</time>
      </trkpt>
      <trkpt lat="41.041083" lon="-3.746383">
        <ele>1976.0</ele>
        <time>2018-07-22T13:08:45Z</time>
      </trkpt>
      <trkpt lat="41.041183" lon="-3.746383">
        <ele>1975.0</ele>
        <time>2018-07-22T13:08:46Z</time>
      </trkpt>
      <trkpt lat="41.041300" lon="-3.746383">
        <ele>1974.0</ele>
        <time>2018-07-22T13:08:47Z</time>
      </trkpt>
      <trkpt lat="41.041400" lon="-3.746383">
        <ele>1974.0</ele>
        <time>2018-07-22T13:08:48Z</time>
      </trkpt>
      <trkpt lat="41.041500" lon="-3.746400">
        <ele>1973.0</ele>
        <time>2018-07-22T13:08:49Z</time>
      </trkpt>
      <trkpt lat="41.041600" lon="-3.746400">
        <ele>1972.0</ele>
        <time>2018-07-22T13:08:50Z</time>
      </trkpt>
      <trkpt lat="41.041700" lon="-3.746400">
        <ele>1970.0</ele>
        <time>2018-07-22T13:08:51Z</time>
      </trkpt>
      <trkpt lat="41.041817" lon="-3.746400">
        <ele>1968.0</ele>
        <time>2018-07-22T13:08:52Z</time>
      </trkpt>
      <trkpt lat="41.041950" lon="-3.746400">
        <ele>1965.0</ele>
        <time>2018-07-22T13:08:53Z</time>
      </trkpt>
      <trkpt lat="41.042067" lon="-3.746367">
        <ele>1964.0</ele>
        <time>2018-07-22T13:08:54Z</time>
      </trkpt>
      <trkpt lat="41.042183" lon="-3.746333">
        <ele>1962.0</ele>
        <time>2018-07-22T13:08:55Z</time>
      </trkpt>
      <trkpt lat="41.042283" lon="-3.746283">
        <ele>1960.0</ele>
        <time>2018-07-22T13:08:56Z</time>
      </trkpt>
      <trkpt lat="41.042400" lon="-3.746217">
        <ele>1956.0</ele>
        <time>2018-07-22T13:08:57Z</time>
      </trkpt>
      <trkpt lat="41.042517" lon="-3.746167">
        <ele>1953.0</ele>
        <time>2018-07-22T13:08:58Z</time>
      </trkpt>
      <trkpt lat="41.042633" lon="-3.746117">
        <ele>1949.0</ele>
        <time>2018-07-22T13:08:59Z</time>
      </trkpt>
      <trkpt lat="41.042750" lon="-3.746067">
        <ele>1945.0</ele>
        <time>2018-07-22T13:09:00Z</time>
      </trkpt>
      <trkpt lat="41.042883" lon="-3.746017">
        <ele>1942.0</ele>
        <time>2018-07-22T13:09:01Z</time>
      </trkpt>
      <trkpt lat="41.043000" lon="-3.745950">
        <ele>1939.0</ele>
        <time>2018-07-22T13:09:02Z</time>
      </trkpt>
      <trkpt lat="41.043117" lon="-3.745867">
        <ele>1937.0</ele>
        <time>2018-07-22T13:09:03Z</time>
      </trkpt>
      <trkpt lat="41.043217" lon="-3.745767">
        <ele>1934.0</ele>
        <time>2018-07-22T13:09:04Z</time>
      </trkpt>
      <trkpt lat="41.043317" lon="-3.745683">
        <ele>1933.0</ele>
        <time>2018-07-22T13:09:05Z</time>
      </trkpt>
      <trkpt lat="41.043417" lon="-3.745600">
        <ele>1932.0</ele>
        <time>2018-07-22T13:09:06Z</time>
      </trkpt>
      <trkpt lat="41.043517" lon="-3.745533">
        <ele>1931.0</ele>
        <time>2018-07-22T13:09:07Z</time>
      </trkpt>
      <trkpt lat="41.043617" lon="-3.745483">
        <ele>1931.0</ele>
        <time>2018-07-22T13:09:08Z</time>
      </trkpt>
      <trkpt lat="41.043717" lon="-3.745417">
        <ele>1931.0</ele>
        <time>2018-07-22T13:09:09Z</time>
      </trkpt>
      <trkpt lat="41.043833" lon="-3.745350">
        <ele>1930.0</ele>
        <time>2018-07-22T13:09:10Z</time>
      </trkpt>
      <trkpt lat="41.043933" lon="-3.745300">
        <ele>1930.0</ele>
        <time>2018-07-22T13:09:11Z</time>
      </trkpt>
      <trkpt lat="41.044050" lon="-3.745233">
        <ele>1931.0</ele>
        <time>2018-07-22T13:09:12Z</time>
      </trkpt>
      <trkpt lat="41.044150" lon="-3.745150">
        <ele>1932.0</ele>
        <time>2018-07-22T13:09:13Z</time>
      </trkpt>
      <trkpt lat="41.044250" lon="-3.745067">
        <ele>1933.0</ele>
        <time>2018-07-22T13:09:14Z</time>
      </trkpt>
      <trkpt lat="41.044333" lon="-3.744967">
        <ele>1935.0</ele>
        <time>2018-07-22T13:09:15Z</time>
      </trkpt>
      <trkpt lat="41.044417" lon="-3.744883">
        <ele>1935.0</ele>
        <time>2018-07-22T13:09:16Z</time>
      </trkpt>
      <trkpt lat="41.044500" lon="-3.744817">
        <ele>1936.0</ele>
        <time>2018-07-22T13:09:17Z</time>
      </trkpt>
      <trkpt lat="41.044600" lon="-3.744767">
        <ele>1936.0</ele>
        <time>2018-07-22T13:09:18Z</time>
      </trkpt>
      <trkpt lat="41.044717" lon="-3.744717">
        <ele>1936.0</ele>
        <time>2018-07-22T13:09:19Z</time>
      </trkpt>
      <trkpt lat="41.044817" lon="-3.744683">
        <ele>1936.0</ele>
        <time>2018-07-22T13:09:20Z</time>
      </trkpt>
      <trkpt lat="41.044933" lon="-3.744700">
        <ele>1935.0</ele>
        <time>2018-07-22T13:09:21Z</time>
      </trkpt>
      <trkpt lat="41.045017" lon="-3.744767">
        <ele>1934.0</ele>
        <time>2018-07-22T13:09:22Z</time>
      </trkpt>
      <trkpt lat="41.045100" lon="-3.744850">
        <ele>1934.0</ele>
        <time>2018-07-22T13:09:23Z</time>
      </trkpt>
      <trkpt lat="41.045167" lon="-3.744933">
        <ele>1934.0</ele>
        <time>2018-07-22T13:09:24Z</time>
      </trkpt>
      <trkpt lat="41.045250" lon="-3.745017">
        <ele>1936.0</ele>
        <time>2018-07-22T13:09:25Z</time>
      </trkpt>
      <trkpt lat="41.045317" lon="-3.745067">
        <ele>1939.0</ele>
        <time>2018-07-22T13:09:26Z</time>
      </trkpt>
      <trkpt lat="41.045383" lon="-3.745133">
        <ele>1940.0</ele>
        <time>2018-07-22T13:09:27Z</time>
      </trkpt>
      <trkpt lat="41.045467" lon="-3.745167">
        <ele>1941.0</ele>
        <time>2018-07-22T13:09:28Z</time>
      </trkpt>
      <trkpt lat="41.045550" lon="-3.745183">
        <ele>1942.0</ele>
        <time>2018-07-22T13:09:29Z</time>
      </trkpt>
      <trkpt lat="41.045633" lon="-3.745167">
        <ele>1942.0</ele>
        <time>2018-07-22T13:09:30Z</time>
      </trkpt>
      <trkpt lat="41.045733" lon="-3.745083">
        <ele>1941.0</ele>
        <time>2018-07-22T13:09:31Z</time>
      </trkpt>
      <trkpt lat="41.045800" lon="-3.744950">
        <ele>1942.0</ele>
        <time>2018-07-22T13:09:32Z</time>
      </trkpt>
      <trkpt lat="41.045817" lon="-3.744800">
        <ele>1944.0</ele>
        <time>2018-07-22T13:09:33Z</time>
      </trkpt>
      <trkpt lat="41.045800" lon="-3.744650">
        <ele>1944.0</ele>
        <time>2018-07-22T13:09:34Z</time>
      </trkpt>
      <trkpt lat="41.045733" lon="-3.744517">
        <ele>1946.0</ele>
        <time>2018-07-22T13:09:35Z</time>
      </trkpt>
      <trkpt lat="41.045650" lon="-3.744417">
        <ele>1947.0</ele>
        <time>2018-07-22T13:09:36Z</time>
      </trkpt>
      <trkpt lat="41.045583" lon="-3.744350">
        <ele>1949.0</ele>
        <time>2018-07-22T13:09:37Z</time>
      </trkpt>
      <trkpt lat="41.045500" lon="-3.744300">
        <ele>1950.0</ele>
        <time>2018-07-22T13:09:38Z</time>
      </trkpt>
      <trkpt lat="41.045400" lon="-3.744250">
        <ele>1950.0</ele>
        <time>2018-07-22T13:09:39Z</time>
      </trkpt>
      <trkpt lat="41.045317" lon="-3.744233">
        <ele>1950.0</ele>
        <time>2018-07-22T13:09:40Z</time>
      </trkpt>
      <trkpt lat="41.045233" lon="-3.744250">
        <ele>1950.0</ele>
        <time>2018-07-22T13:09:41Z</time>
      </trkpt>
      <trkpt lat="41.045167" lon="-3.744300">
        <ele>1950.0</ele>
        <time>2018-07-22T13:09:42Z</time>
      </trkpt>
      <trkpt lat="41.045117" lon="-3.744383">
        <ele>1949.0</ele>
        <time>2018-07-22T13:09:43Z</time>
      </trkpt>
      <trkpt lat="41.045100" lon="-3.744483">
        <ele>1949.0</ele>
        <time>2018-07-22T13:09:44Z</time>
      </trkpt>
      <trkpt lat="41.045100" lon="-3.744600">
        <ele>1949.0</ele>
        <time>2018-07-22T13:09:45Z</time>
      </trkpt>
      <trkpt lat="41.045133" lon="-3.744717">
        <ele>1949.0</ele>
        <time>2018-07-22T13:09:46Z</time>
      </trkpt>
      <trkpt lat="41.045200" lon="-3.744817">
        <ele>1948.0</ele>
        <time>2018-07-22T13:09:47Z</time>
      </trkpt>
      <trkpt lat="41.045300" lon="-3.744867">
        <ele>1948.0</ele>
        <time>2018-07-22T13:09:48Z</time>
      </trkpt>
      <trkpt lat="41.045417" lon="-3.744900">
        <ele>1948.0</ele>
        <time>2018-07-22T13:09:49Z</time>
      </trkpt>
      <trkpt lat="41.045533" lon="-3.744900">
        <ele>1949.0</ele>
        <time>2018-07-22T13:09:50Z</time>
      </trkpt>
      <trkpt lat="41.045633" lon="-3.744883">
        <ele>1951.0</ele>
        <time>2018-07-22T13:09:51Z</time>
      </trkpt>
      <trkpt lat="41.045733" lon="-3.744867">
        <ele>1953.0</ele>
        <time>2018-07-22T13:09:52Z</time>
      </trkpt>
      <trkpt lat="41.045817" lon="-3.744867">
        <ele>1955.0</ele>
        <time>2018-07-22T13:09:53Z</time>
      </trkpt>
      <trkpt lat="41.045883" lon="-3.744883">
        <ele>1957.0</ele>
        <time>2018-07-22T13:09:54Z</time>
      </trkpt>
      <trkpt lat="41.045950" lon="-3.744917">
        <ele>1958.0</ele>
        <time>2018-07-22T13:09:55Z</time>
      </trkpt>
      <trkpt lat="41.046017" lon="-3.744967">
        <ele>1960.0</ele>
        <time>2018-07-22T13:09:56Z</time>
      </trkpt>
      <trkpt lat="41.046083" lon="-3.745033">
        <ele>1961.0</ele>
        <time>2018-07-22T13:09:57Z</time>
      </trkpt>
      <trkpt lat="41.046133" lon="-3.745100">
        <ele>1961.0</ele>
        <time>2018-07-22T13:09:58Z</time>
      </trkpt>
      <trkpt lat="41.046200" lon="-3.745167">
        <ele>1963.0</ele>
        <time>2018-07-22T13:09:59Z</time>
      </trkpt>
      <trkpt lat="41.046283" lon="-3.745200">
        <ele>1964.0</ele>
        <time>2018-07-22T13:10:00Z</time>
      </trkpt>
      <trkpt lat="41.046367" lon="-3.745200">
        <ele>1965.0</ele>
        <time>2018-07-22T13:10:01Z</time>
      </trkpt>
      <trkpt lat="41.046467" lon="-3.745167">
        <ele>1967.0</ele>
        <time>2018-07-22T13:10:02Z</time>
      </trkpt>
      <trkpt lat="41.046567" lon="-3.745150">
        <ele>1970.0</ele>
        <time>2018-07-22T13:10:03Z</time>
      </trkpt>
      <trkpt lat="41.046650" lon="-3.745117">
        <ele>1972.0</ele>
        <time>2018-07-22T13:10:04Z</time>
      </trkpt>
      <trkpt lat="41.046750" lon="-3.745083">
        <ele>1975.0</ele>
        <time>2018-07-22T13:10:05Z</time>
      </trkpt>
      <trkpt lat="41.046833" lon="-3.745067">
        <ele>1977.0</ele>
        <time>2018-07-22T13:10:06Z</time>
      </trkpt>
      <trkpt lat="41.046917" lon="-3.745050">
        <ele>1980.0</ele>
        <time>2018-07-22T13:10:07Z</time>
      </trkpt>
      <trkpt lat="41.047000" lon="-3.745050">
        <ele>1983.0</ele>
        <time>2018-07-22T13:10:08Z</time>
      </trkpt>
      <trkpt lat="41.047083" lon="-3.745033">
        <ele>1987.0</ele>
        <time>2018-07-22T13:10:09Z</time>
      </trkpt>
      <trkpt lat="41.047150" lon="-3.745000">
        <ele>1991.0</ele>
        <time>2018-07-22T13:10:10Z</time>
      </trkpt>
      <trkpt lat="41.047217" lon="-3.744967">
        <ele>1997.0</ele>
        <time>2018-07-22T13:10:11Z</time>
      </trkpt>
      <trkpt lat="41.047283" lon="-3.744933">
        <ele>2001.0</ele>
        <time>2018-07-22T13:10:12Z</time>
      </trkpt>
      <trkpt lat="41.047333" lon="-3.744917">
        <ele>2005.0</ele>
        <time>2018-07-22T13:10:13Z</time>
      </trkpt>
      <trkpt lat="41.047383" lon="-3.744917">
        <ele>2007.0</ele>
        <time>2018-07-22T13:10:14Z</time>
      </trkpt>
      <trkpt lat="41.047433" lon="-3.744900">
        <ele>2009.0</ele>
        <time>2018-07-22T13:10:15Z</time>
      </trkpt>
      <trkpt lat="41.047483" lon="-3.744850">
        <ele>2009.0</ele>
        <time>2018-07-22T13:10:16Z</time>
      </trkpt>
      <trkpt lat="41.047533" lon="-3.744733">
        <ele>2009.0</ele>
        <time>2018-07-22T13:10:17Z</time>
      </trkpt>
      <trkpt lat="41.047550" lon="-3.744583">
        <ele>2009.0</ele>
        <time>2018-07-22T13:10:18Z</time>
      </trkpt>
      <trkpt lat="41.047550" lon="-3.744417">
        <ele>2011.0</ele>
        <time>2018-07-22T13:10:19Z</time>
      </trkpt>
      <trkpt lat="41.047500" lon="-3.744267">
        <ele>2012.0</ele>
        <time>2018-07-22T13:10:20Z</time>
      </trkpt>
      <trkpt lat="41.047417" lon="-3.744133">
        <ele>2014.0</ele>
        <time>2018-07-22T13:10:21Z</time>
      </trkpt>
      <trkpt lat="41.047333" lon="-3.744050">
        <ele>2017.0</ele>
        <time>2018-07-22T13:10:22Z</time>
      </trkpt>
      <trkpt lat="41.047233" lon="-3.744000">
        <ele>2019.0</ele>
        <time>2018-07-22T13:10:23Z</time>
      </trkpt>
      <trkpt lat="41.047133" lon="-3.744000">
        <ele>2021.0</ele>
        <time>2018-07-22T13:10:24Z</time>
      </trkpt>
      <trkpt lat="41.047033" lon="-3.744033">
        <ele>2023.0</ele>
        <time>2018-07-22T13:10:25Z</time>
      </trkpt>
      <trkpt lat="41.046950" lon="-3.744067">
        <ele>2024.0</ele>
        <time>2018-07-22T13:10:26Z</time>
      </trkpt>
      <trkpt lat="41.046867" lon="-3.744117">
        <ele>2027.0</ele>
        <time>2018-07-22T13:10:27Z</time>
      </trkpt>
      <trkpt lat="41.046783" lon="-3.744183">
        <ele>2030.0</ele>
        <time>2018-07-22T13:10:28Z</time>
      </trkpt>
      <trkpt lat="41.046750" lon="-3.744250">
        <ele>2033.0</ele>
        <time>2018-07-22T13:10:29Z</time>
      </trkpt>
      <trkpt lat="41.046717" lon="-3.744350">
        <ele>2036.0</ele>
        <time>2018-07-22T13:10:30Z</time>
      </trkpt>
      <trkpt lat="41.046717" lon="-3.744433">
        <ele>2038.0</ele>
        <time>2018-07-22T13:10:31Z</time>
      </trkpt>
      <trkpt lat="41.046717" lon="-3.744500">
        <ele>2041.0</ele>
        <time>2018-07-22T13:10:32Z</time>
      </trkpt>
      <trkpt lat="41.046733" lon="-3.744550">
        <ele>2043.0</ele>
        <time>2018-07-22T13:10:33Z</time>
      </trkpt>
      <trkpt lat="41.046783" lon="-3.744583">
        <ele>2045.0</ele>
        <time>2018-07-22T13:10:34Z</time>
      </trkpt>
      <trkpt lat="41.046850" lon="-3.744600">
        <ele>2046.0</ele>
        <time>2018-07-22T13:10:35Z</time>
      </trkpt>
      <trkpt lat="41.046917" lon="-3.744600">
        <ele>2050.0</ele>
        <time>2018-07-22T13:10:36Z</time>
      </trkpt>
      <trkpt lat="41.046983" lon="-3.744567">
        <ele>2055.0</ele>
        <time>2018-07-22T13:10:37Z</time>
      </trkpt>
      <trkpt lat="41.047033" lon="-3.744517">
        <ele>2060.0</ele>
        <time>2018-07-22T13:10:38Z</time>
      </trkpt>
      <trkpt lat="41.047067" lon="-3.744400">
        <ele>2063.0</ele>
        <time>2018-07-22T13:10:39Z</time>
      </trkpt>
      <trkpt lat="41.047083" lon="-3.744267">
        <ele>2066.0</ele>
        <time>2018-07-22T13:10:40Z</time>
      </trkpt>
      <trkpt lat="41.047067" lon="-3.744117">
        <ele>2068.0</ele>
        <time>2018-07-22T13:10:41Z</time>
      </trkpt>
      <trkpt lat="41.047017" lon="-3.743950">
        <ele>2071.0</ele>
        <time>2018-07-22T13:10:42Z</time>
      </trkpt>
      <trkpt lat="41.046917" lon="-3.743833">
        <ele>2073.0</ele>
        <time>2018-07-22T13:10:43Z</time>
      </trkpt>
      <trkpt lat="41.046783" lon="-3.743783">
        <ele>2076.0</ele>
        <time>2018-07-22T13:10:44Z</time>
      </trkpt>
      <trkpt lat="41.046667" lon="-3.743817">
        <ele>2079.0</ele>
        <time>2018-07-22T13:10:45Z</time>
      </trkpt>
      <trkpt lat="41.046583" lon="-3.743917">
        <ele>2083.0</ele>
        <time>2018-07-22T13:10:46Z</time>
      </trkpt>
      <trkpt lat="41.046533" lon="-3.744017">
        <ele>2086.0</ele>
        <time>2018-07-22T13:10:47Z</time>
      </trkpt>
      <trkpt lat="41.046500" lon="-3.744100">
        <ele>2090.0</ele>
        <time>2018-07-22T13:10:48Z</time>
      </trkpt>
      <trkpt lat="41.046467" lon="-3.744167">
        <ele>2095.0</ele>
        <time>2018-07-22T13:10:49Z</time>
      </trkpt>
      <trkpt lat="41.046433" lon="-3.744233">
        <ele>2098.0</ele>
        <time>2018-07-22T13:10:50Z</time>
      </trkpt>
      <trkpt lat="41.046417" lon="-3.744300">
        <ele>2101.0</ele>
        <time>2018-07-22T13:10:51Z</time>
      </trkpt>
      <trkpt lat="41.046417" lon="-3.744367">
        <ele>2103.0</ele>
        <time>2018-07-22T13:10:52Z</time>
      </trkpt>
      <trkpt lat="41.046433" lon="-3.744417">
        <ele>2106.0</ele>
        <time>2018-07-22T13:10:53Z</time>
      </trkpt>
      <trkpt lat="41.046467" lon="-3.744483">
        <ele>2108.0</ele>
        <time>2018-07-22T13:10:54Z</time>
      </trkpt>
      <trkpt lat="41.046483" lon="-3.744550">
        <ele>2111.0</ele>
        <time>2018-07-22T13:10:55Z</time>
      </trkpt>
      <trkpt lat="41.046500" lon="-3.744600">
        <ele>2113.0</ele>
        <time>2018-07-22T13:10:56Z</time>
      </trkpt>
      <trkpt lat="41.046550" lon="-3.744633">
        <ele>2114.0</ele>
        <time>2018-07-22T13:10:57Z</time>
      </trkpt>
      <trkpt lat="41.046600" lon="-3.744650">
        <ele>2114.0</ele>
        <time>2018-07-22T13:10:58Z</time>
      </trkpt>
      <trkpt lat="41.046667" lon="-3.744633">
        <ele>2114.0</ele>
        <time>2018-07-22T13:10:59Z</time>
      </trkpt>
      <trkpt lat="41.046750" lon="-3.744600">
        <ele>2115.0</ele>
        <time>2018-07-22T13:11:00Z</time>
      </trkpt>
      <trkpt lat="41.046833" lon="-3.744550">
        <ele>2118.0</ele>
        <time>2018-07-22T13:11:01Z</time>
      </trkpt>
      <trkpt lat="41.046900" lon="-3.744500">
        <ele>2121.0</ele>
        <time>2018-07-22T13:11:02Z</time>
      </trkpt>
      <trkpt lat="41.046967" lon="-3.744417">
        <ele>2124.0</ele>
        <time>2018-07-22T13:11:03Z</time>
      </trkpt>
      <trkpt lat="41.047033" lon="-3.744350">
        <ele>2126.0</ele>
        <time>2018-07-22T13:11:04Z</time>
      </trkpt>
      <trkpt lat="41.047083" lon="-3.744283">
        <ele>2128.0</ele>
        <time>2018-07-22T13:11:05Z</time>
      </trkpt>
      <trkpt lat="41.047133" lon="-3.744183">
        <ele>2129.0</ele>
        <time>2018-07-22T13:11:06Z</time>
      </trkpt>
      <trkpt lat="41.047167" lon="-3.744067">
        <ele>2130.0</ele>
        <time>2018-07-22T13:11:07Z</time>
      </trkpt>
      <trkpt lat="41.047183" lon="-3.743917">
        <ele>2131.0</ele>
        <time>2018-07-22T13:11:08Z</time>
      </trkpt>
      <trkpt lat="41.047150" lon="-3.743750">
        <ele>2132.0</ele>
        <time>2018-07-22T13:11:09Z</time>
      </trkpt>
      <trkpt lat="41.047083" lon="-3.743600">
        <ele>2134.0</ele>
        <time>2018-07-22T13:11:10Z</time>
      </trkpt>
      <trkpt lat="41.047000" lon="-3.743467">
        <ele>2136.0</ele>
        <time>2018-07-22T13:11:11Z</time>
      </trkpt>
      <trkpt lat="41.046900" lon="-3.743383">
        <ele>2139.0</ele>
        <time>2018-07-22T13:11:12Z</time>
      </trkpt>
      <trkpt lat="41.046783" lon="-3.743333">
        <ele>2142.0</ele>
        <time>2018-07-22T13:11:13Z</time>
      </trkpt>
      <trkpt lat="41.046683" lon="-3.743317">
        <ele>2146.0</ele>
        <time>2018-07-22T13:11:14Z</time>
      </trkpt>
      <trkpt lat="41.046583" lon="-3.743317">
        <ele>2151.0</ele>
        <time>2018-07-22T13:11:15Z</time>
      </trkpt>
      <trkpt lat="41.046483" lon="-3.743300">
        <ele>2155.0</ele>
        <time>2018-07-22T13:11:16Z</time>
      </trkpt>
      <trkpt lat="41.046383" lon="-3.743283">
        <ele>2160.0</ele>
        <time>2018-07-22T13:11:17Z</time>
      </trkpt>
      <trkpt lat="41.046283" lon="-3.743283">
        <ele>2164.0</ele>
        <time>2018-07-22T13:11:18Z</time>
      </trkpt>
      <trkpt lat="41.046200" lon="-3.743283">
        <ele>2169.0</ele>
        <time>2018-07-22T13:11:19Z</time>
      </trkpt>
      <trkpt lat="41.046133" lon="-3.743317">
        <ele>2174.0</ele>
        <time>2018-07-22T13:11:20Z</time>
      </trkpt>
      <trkpt lat="41.046083" lon="-3.743333">
        <ele>2178.0</ele>
        <time>2018-07-22T13:11:21Z</time>
      </trkpt>
      <trkpt lat="41.046017" lon="-3.743350">
        <ele>2182.0</ele>
        <time>2018-07-22T13:11:22Z</time>
      </trkpt>
      <trkpt lat="41.045950" lon="-3.743333">
        <ele>2184.0</ele>
        <time>2018-07-22T13:11:23Z</time>
      </trkpt>
      <trkpt lat="41.045867" lon="-3.743300">
        <ele>2185.0</ele>
        <time>2018-07-22T13:11:24Z</time>
      </trkpt>
      <trkpt lat="41.045783" lon="-3.743233">
        <ele>2187.0</ele>
        <time>2018-07-22T13:11:25Z</time>
      </trkpt>
      <trkpt lat="41.045700" lon="-3.743100">
        <ele>2189.0</ele>
        <time>2018-07-22T13:11:26Z</time>
      </trkpt>
      <trkpt lat="41.045650" lon="-3.742933">
        <ele>2191.0</ele>
        <time>2018-07-22T13:11:27Z</time>
      </trkpt>
      <trkpt lat="41.045650" lon="-3.742767">
        <ele>2194.0</ele>
        <time>2018-07-22T13:11:28Z</time>
      </trkpt>
      <trkpt lat="41.045700" lon="-3.742600">
        <ele>2196.0</ele>
        <time>2018-07-22T13:11:29Z</time>
      </trkpt>
      <trkpt lat="41.045783" lon="-3.742483">
        <ele>2199.0</ele>
        <time>2018-07-22T13:11:30Z</time>
      </trkpt>
      <trkpt lat="41.045883" lon="-3.742433">
        <ele>2203.0</ele>
        <time>2018-07-22T13:11:31Z</time>
      </trkpt>
      <trkpt lat="41.045967" lon="-3.742417">
        <ele>2207.0</ele>
        <time>2018-07-22T13:11:32Z</time>
      </trkpt>
      <trkpt lat="41.046067" lon="-3.742450">
        <ele>2210.0</ele>
        <time>2018-07-22T13:11:33Z</time>
      </trkpt>
      <trkpt lat="41.046133" lon="-3.742517">
        <ele>2212.0</ele>
        <time>2018-07-22T13:11:34Z</time>
      </trkpt>
      <trkpt lat="41.046183" lon="-3.742617">
        <ele>2215.0</ele>
        <time>2018-07-22T13:11:35Z</time>
      </trkpt>
      <trkpt lat="41.046200" lon="-3.742733">
        <ele>2219.0</ele>
        <time>2018-07-22T13:11:36Z</time>
      </trkpt>
      <trkpt lat="41.046167" lon="-3.742850">
        <ele>2223.0</ele>
        <time>2018-07-22T13:11:37Z</time>
      </trkpt>
      <trkpt lat="41.046117" lon="-3.742933">
        <ele>2228.0</ele>
        <time>2018-07-22T13:11:38Z</time>
      </trkpt>
      <trkpt lat="41.046033" lon="-3.742983">
        <ele>2231.0</ele>
        <time>2018-07-22T13:11:39Z</time>
      </trkpt>
      <trkpt lat="41.045950" lon="-3.742983">
        <ele>2234.0</ele>
        <time>2018-07-22T13:11:40Z</time>
      </trkpt>
      <trkpt lat="41.045850" lon="-3.742917">
        <ele>2236.0</ele>
        <time>2018-07-22T13:11:41Z</time>
      </trkpt>
      <trkpt lat="41.045750" lon="-3.742800">
        <ele>2239.0</ele>
        <time>2018-07-22T13:11:42Z</time>
      </trkpt>
      <trkpt lat="41.045700" lon="-3.742650">
        <ele>2242.0</ele>
        <time>2018-07-22T13:11:43Z</time>
      </trkpt>
      <trkpt lat="41.045700" lon="-3.742483">
        <ele>2246.0</ele>
        <time>2018-07-22T13:11:44Z</time>
      </trkpt>
      <trkpt lat="41.045750" lon="-3.742333">
        <ele>2249.0</ele>
        <time>2018-07-22T13:11:45Z</time>
      </trkpt>
      <trkpt lat="41.045817" lon="-3.742217">
        <ele>2253.0</ele>
        <time>2018-07-22T13:11:46Z</time>
      </trkpt>
      <trkpt lat="41.045900" lon="-3.742133">
        <ele>2257.0</ele>
        <time>2018-07-22T13:11:47Z</time>
      </trkpt>
      <trkpt lat="41.046000" lon="-3.742100">
        <ele>2261.0</ele>
        <time>2018-07-22T13:11:48Z</time>
      </trkpt>
      <trkpt lat="41.046083" lon="-3.742100">
        <ele>2264.0</ele>
        <time>2018-07-22T13:11:49Z</time>
      </trkpt>
      <trkpt lat="41.046167" lon="-3.742150">
        <ele>2267.0</ele>
        <time>2018-07-22T13:11:50Z</time>
      </trkpt>
      <trkpt lat="41.046233" lon="-3.742233">
        <ele>2272.0</ele>
        <time>2018-07-22T13:11:51Z</time>
      </trkpt>
      <trkpt lat="41.046267" lon="-3.742317">
        <ele>2277.0</ele>
        <time>2018-07-22T13:11:52Z</time>
      </trkpt>
      <trkpt lat="41.046267" lon="-3.742417">
        <ele>2282.0</ele>
        <time>2018-07-22T13:11:53Z</time>
      </trkpt>
      <trkpt lat="41.046250" lon="-3.742500">
        <ele>2286.0</ele>
        <time>2018-07-22T13:11:54Z</time>
      </trkpt>
      <trkpt lat="41.046200" lon="-3.742583">
        <ele>2289.0</ele>
        <time>2018-07-22T13:11:55Z</time>
      </trkpt>
      <trkpt lat="41.046150" lon="-3.742650">
        <ele>2292.0</ele>
        <time>2018-07-22T13:11:56Z</time>
      </trkpt>
      <trkpt lat="41.046050" lon="-3.742717">
        <ele>2295.0</ele>
        <time>2018-07-22T13:11:57Z</time>
      </trkpt>
      <trkpt lat="41.045950" lon="-3.742733">
        <ele>2298.0</ele>
        <time>2018-07-22T13:11:58Z</time>
      </trkpt>
      <trkpt lat="41.045833" lon="-3.742683">
        <ele>2302.0</ele>
        <time>2018-07-22T13:11:59Z</time>
      </trkpt>
      <trkpt lat="41.045750" lon="-3.742600">
        <ele>2308.0</ele>
        <time>2018-07-22T13:12:00Z</time>
      </trkpt>
      <trkpt lat="41.045700" lon="-3.742483">
        <ele>2313.0</ele>
        <time>2018-07-22T13:12:01Z</time>
      </trkpt>
      <trkpt lat="41.045700" lon="-3.742350">
        <ele>2317.0</ele>
        <time>2018-07-22T13:12:02Z</time>
      </trkpt>
      <trkpt lat="41.045717" lon="-3.742233">
        <ele>2320.0</ele>
        <time>2018-07-22T13:12:03Z</time>
      </trkpt>
      <trkpt lat="41.045750" lon="-3.742083">
        <ele>2322.0</ele>
        <time>2018-07-22T13:12:04Z</time>
      </trkpt>
      <trkpt lat="41.045800" lon="-3.741950">
        <ele>2325.0</ele>
        <time>2018-07-22T13:12:05Z</time>
      </trkpt>
      <trkpt lat="41.045883" lon="-3.741850">
        <ele>2329.0</ele>
        <time>2018-07-22T13:12:06Z</time>
      </trkpt>
      <trkpt lat="41.045983" lon="-3.741783">
        <ele>2332.0</ele>
        <time>2018-07-22T13:12:07Z</time>
      </trkpt>
      <trkpt lat="41.046083" lon="-3.741767">
        <ele>2337.0</ele>
        <time>2018-07-22T13:12:08Z</time>
      </trkpt>
      <trkpt lat="41.046167" lon="-3.741817">
        <ele>2341.0</ele>
        <time>2018-07-22T13:12:09Z</time>
      </trkpt>
      <trkpt lat="41.046217" lon="-3.741900">
        <ele>2345.0</ele>
        <time>2018-07-22T13:12:10Z</time>
      </trkpt>
      <trkpt lat="41.046233" lon="-3.742000">
        <ele>2349.0</ele>
        <time>2018-07-22T13:12:11Z</time>
      </trkpt>
      <trkpt lat="41.046217" lon="-3.742100">
        <ele>2353.0</ele>
        <time>2018-07-22T13:12:12Z</time>
      </trkpt>
      <trkpt lat="41.046183" lon="-3.742183">
        <ele>2356.0</ele>
        <time>2018-07-22T13:12:13Z</time>
      </trkpt>
      <trkpt lat="41.046117" lon="-3.742250">
        <ele>2358.0</ele>
        <time>2018-07-22T13:12:14Z</time>
      </trkpt>
      <trkpt lat="41.046033" lon="-3.742300">
        <ele>2361.0</ele>
        <time>2018-07-22T13:12:15Z</time>
      </trkpt>
      <trkpt lat="41.045950" lon="-3.742333">
        <ele>2364.0</ele>
        <time>2018-07-22T13:12:16Z</time>
      </trkpt>
      <trkpt lat="41.045850" lon="-3.742350">
        <ele>2369.0</ele>
        <time>2018-07-22T13:12:17Z</time>
      </trkpt>
      <trkpt lat="41.045750" lon="-3.742317">
        <ele>2374.0</ele>
        <time>2018-07-22T13:12:18Z</time>
      </trkpt>
      <trkpt lat="41.045683" lon="-3.742250">
        <ele>2380.0</ele>
        <time>2018-07-22T13:12:19Z</time>
      </trkpt>
      <trkpt lat="41.045633" lon="-3.742167">
        <ele>2383.0</ele>
        <time>2018-07-22T13:12:20Z</time>
      </trkpt>
      <trkpt lat="41.045600" lon="-3.742033">
        <ele>2386.0</ele>
        <time>2018-07-22T13:12:21Z</time>
      </trkpt>
      <trkpt lat="41.045583" lon="-3.741900">
        <ele>2388.0</ele>
        <time>2018-07-22T13:12:22Z</time>
      </trkpt>
      <trkpt lat="41.045583" lon="-3.741750">
        <ele>2390.0</ele>
        <time>2018-07-22T13:12:23Z</time>
      </trkpt>
      <trkpt lat="41.045617" lon="-3.741583">
        <ele>2393.0</ele>
        <time>2018-07-22T13:12:24Z</time>
      </trkpt>
      <trkpt lat="41.045650" lon="-3.741433">
        <ele>2397.0</ele>
        <time>2018-07-22T13:12:25Z</time>
      </trkpt>
      <trkpt lat="41.045717" lon="-3.741300">
        <ele>2401.0</ele>
        <time>2018-07-22T13:12:26Z</time>
      </trkpt>
      <trkpt lat="41.045800" lon="-3.741200">
        <ele>2406.0</ele>
        <time>2018-07-22T13:12:27Z</time>
      </trkpt>
      <trkpt lat="41.045883" lon="-3.741150">
        <ele>2409.0</ele>
        <time>2018-07-22T13:12:28Z</time>
      </trkpt>
      <trkpt lat="41.046000" lon="-3.741117">
        <ele>2413.0</ele>
        <time>2018-07-22T13:12:29Z</time>
      </trkpt>
      <trkpt lat="41.046100" lon="-3.741117">
        <ele>2418.0</ele>
        <time>2018-07-22T13:12:30Z</time>
      </trkpt>
      <trkpt lat="41.046200" lon="-3.741117">
        <ele>2424.0</ele>
        <time>2018-07-22T13:12:31Z</time>
      </trkpt>
      <trkpt lat="41.046283" lon="-3.741133">
        <ele>2429.0</ele>
        <time>2018-07-22T13:12:32Z</time>
      </trkpt>
      <trkpt lat="41.046367" lon="-3.741150">
        <ele>2433.0</ele>
        <time>2018-07-22T13:12:33Z</time>
      </trkpt>
      <trkpt lat="41.046433" lon="-3.741200">
        <ele>2437.0</ele>
        <time>2018-07-22T13:12:34Z</time>
      </trkpt>
      <trkpt lat="41.046500" lon="-3.741283">
        <ele>2440.0</ele>
        <time>2018-07-22T13:12:35Z</time>
      </trkpt>
      <trkpt lat="41.046533" lon="-3.741383">
        <ele>2443.0</ele>
        <time>2018-07-22T13:12:36Z</time>
      </trkpt>
      <trkpt lat="41.046567" lon="-3.741483">
        <ele>2446.0</ele>
        <time>2018-07-22T13:12:37Z</time>
      </trkpt>
      <trkpt lat="41.046567" lon="-3.741583">
        <ele>2451.0</ele>
        <time>2018-07-22T13:12:38Z</time>
      </trkpt>
      <trkpt lat="41.046550" lon="-3.741683">
        <ele>2454.0</ele>
        <time>2018-07-22T13:12:39Z</time>
      </trkpt>
      <trkpt lat="41.046517" lon="-3.741767">
        <ele>2456.0</ele>
        <time>2018-07-22T13:12:40Z</time>
      </trkpt>
      <trkpt lat="41.046450" lon="-3.741850">
        <ele>2457.0</ele>
        <time>2018-07-22T13:12:41Z</time>
      </trkpt>
      <trkpt lat="41.046350" lon="-3.741917">
        <ele>2458.0</ele>
        <time>2018-07-22T13:12:42Z</time>
      </trkpt>
      <trkpt lat="41.046233" lon="-3.741967">
        <ele>2460.0</ele>
        <time>2018-07-22T13:12:43Z</time>
      </trkpt>
      <trkpt lat="41.046133" lon="-3.741967">
        <ele>2463.0</ele>
        <time>2018-07-22T13:12:44Z</time>
      </trkpt>
      <trkpt lat="41.046033" lon="-3.741917">
        <ele>2465.0</ele>
        <time>2018-07-22T13:12:45Z</time>
      </trkpt>
      <trkpt lat="41.045950" lon="-3.741833">
        <ele>2467.0</ele>
        <time>2018-07-22T13:12:46Z</time>
      </trkpt>
      <trkpt lat="41.045867" lon="-3.741717">
        <ele>2469.0</ele>
        <time>2018-07-22T13:12:47Z</time>
      </trkpt>
      <trkpt lat="41.045800" lon="-3.741583">
        <ele>2473.0</ele>
        <time>2018-07-22T13:12:48Z</time>
      </trkpt>
      <trkpt lat="41.045750" lon="-3.741433">
        <ele>2479.0</ele>
        <time>2018-07-22T13:12:49Z</time>
      </trkpt>
      <trkpt lat="41.045750" lon="-3.741300">
        <ele>2484.0</ele>
        <time>2018-07-22T13:12:50Z</time>
      </trkpt>
      <trkpt lat="41.045783" lon="-3.741183">
        <ele>2488.0</ele>
        <time>2018-07-22T13:12:51Z</time>
      </trkpt>
      <trkpt lat="41.045817" lon="-3.741050">
        <ele>2492.0</ele>
        <time>2018-07-22T13:12:52Z</time>
      </trkpt>
      <trkpt lat="41.045883" lon="-3.740933">
        <ele>2495.0</ele>
        <time>2018-07-22T13:12:53Z</time>
      </trkpt>
      <trkpt lat="41.045950" lon="-3.740817">
        <ele>2498.0</ele>
        <time>2018-07-22T13:12:54Z</time>
      </trkpt>
      <trkpt lat="41.046033" lon="-3.740733">
        <ele>2501.0</ele>
        <time>2018-07-22T13:12:55Z</time>
      </trkpt>
      <trkpt lat="41.046133" lon="-3.740667">
        <ele>2505.0</ele>
        <time>2018-07-22T13:12:56Z</time>
      </trkpt>
      <trkpt lat="41.046233" lon="-3.740617">
        <ele>2508.0</ele>
        <time>2018-07-22T13:12:57Z</time>
      </trkpt>
      <trkpt lat="41.046350" lon="-3.740600">
        <ele>2511.0</ele>
        <time>2018-07-22T13:12:58Z</time>
      </trkpt>
      <trkpt lat="41.046483" lon="-3.740583">
        <ele>2515.0</ele>
        <time>2018-07-22T13:12:59Z</time>
      </trkpt>
      <trkpt lat="41.046583" lon="-3.740583">
        <ele>2520.0</ele>
        <time>2018-07-22T13:13:00Z</time>
      </trkpt>
      <trkpt lat="41.046667" lon="-3.740600">
        <ele>2526.0</ele>
        <time>2018-07-22T13:13:01Z</time>
      </trkpt>
      <trkpt lat="41.046750" lon="-3.740617">
        <ele>2530.0</ele>
        <time>2018-07-22T13:13:02Z</time>
      </trkpt>
      <trkpt lat="41.046833" lon="-3.740633">
        <ele>2532.0</ele>
        <time>2018-07-22T13:13:03Z</time>
      </trkpt>
      <trkpt lat="41.046917" lon="-3.740667">
        <ele>2535.0</ele>
        <time>2018-07-22T13:13:04Z</time>
      </trkpt>
      <trkpt lat="41.047000" lon="-3.740700">
        <ele>2536.0</ele>
        <time>2018-07-22T13:13:05Z</time>
      </trkpt>
      <trkpt lat="41.047100" lon="-3.740733">
        <ele>2538.0</ele>
        <time>2018-07-22T13:13:06Z</time>
      </trkpt>
      <trkpt lat="41.047200" lon="-3.740767">
        <ele>2539.0</ele>
        <time>2018-07-22T13:13:07Z</time>
      </trkpt>
      <trkpt lat="41.047300" lon="-3.740800">
        <ele>2540.0</ele>
        <time>2018-07-22T13:13:08Z</time>
      </trkpt>
      <trkpt lat="41.047383" lon="-3.740850">
        <ele>2541.0</ele>
        <time>2018-07-22T13:13:09Z</time>
      </trkpt>
      <trkpt lat="41.047467" lon="-3.740900">
        <ele>2542.0</ele>
        <time>2018-07-22T13:13:10Z</time>
      </trkpt>
      <trkpt lat="41.047550" lon="-3.740950">
        <ele>2543.0</ele>
        <time>2018-07-22T13:13:11Z</time>
      </trkpt>
      <trkpt lat="41.047633" lon="-3.741017">
        <ele>2544.0</ele>
        <time>2018-07-22T13:13:12Z</time>
      </trkpt>
      <trkpt lat="41.047717" lon="-3.741067">
        <ele>2544.0</ele>
        <time>2018-07-22T13:13:13Z</time>
      </trkpt>
      <trkpt lat="41.047800" lon="-3.741133">
        <ele>2545.0</ele>
        <time>2018-07-22T13:13:14Z</time>
      </trkpt>
      <trkpt lat="41.047867" lon="-3.741183">
        <ele>2546.0</ele>
        <time>2018-07-22T13:13:15Z</time>
      </trkpt>
      <trkpt lat="41.047950" lon="-3.741217">
        <ele>2545.0</ele>
        <time>2018-07-22T13:13:16Z</time>
      </trkpt>
      <trkpt lat="41.048033" lon="-3.741250">
        <ele>2544.0</ele>
        <time>2018-07-22T13:13:17Z</time>
      </trkpt>
      <trkpt lat="41.048133" lon="-3.741300">
        <ele>2543.0</ele>
        <time>2018-07-22T13:13:18Z</time>
      </trkpt>
      <trkpt lat="41.048217" lon="-3.741350">
        <ele>2542.0</ele>
        <time>2018-07-22T13:13:19Z</time>
      </trkpt>
      <trkpt lat="41.048317" lon="-3.741417">
        <ele>2542.0</ele>
        <time>2018-07-22T13:13:20Z</time>
      </trkpt>
      <trkpt lat="41.048417" lon="-3.741483">
        <ele>2542.0</ele>
        <time>2018-07-22T13:13:21Z</time>
      </trkpt>
      <trkpt lat="41.048500" lon="-3.741533">
        <ele>2544.0</ele>
        <time>2018-07-22T13:13:22Z</time>
      </trkpt>
      <trkpt lat="41.048583" lon="-3.741567">
        <ele>2545.0</ele>
        <time>2018-07-22T13:13:23Z</time>
      </trkpt>
      <trkpt lat="41.048667" lon="-3.741583">
        <ele>2545.0</ele>
        <time>2018-07-22T13:13:24Z</time>
      </trkpt>
      <trkpt lat="41.048767" lon="-3.741617">
        <ele>2545.0</ele>
        <time>2018-07-22T13:13:25Z</time>
      </trkpt>
      <trkpt lat="41.048850" lon="-3.741667">
        <ele>2544.0</ele>
        <time>2018-07-22T13:13:26Z</time>
      </trkpt>
      <trkpt lat="41.048950" lon="-3.741733">
        <ele>2543.0</ele>
        <time>2018-07-22T13:13:27Z</time>
      </trkpt>
      <trkpt lat="41.049033" lon="-3.741800">
        <ele>2544.0</ele>
        <time>2018-07-22T13:13:28Z</time>
      </trkpt>
      <trkpt lat="41.049117" lon="-3.741850">
        <ele>2545.0</ele>
        <time>2018-07-22T13:13:29Z</time>
      </trkpt>
      <trkpt lat="41.049200" lon="-3.741917">
        <ele>2546.0</ele>
        <time>2018-07-22T13:13:30Z</time>
      </trkpt>
      <trkpt lat="41.049283" lon="-3.741950">
        <ele>2547.0</ele>
        <time>2018-07-22T13:13:31Z</time>
      </trkpt>
      <trkpt lat="41.049350" lon="-3.742000">
        <ele>2548.0</ele>
        <time>2018-07-22T13:13:32Z</time>
      </trkpt>
      <trkpt lat="41.049417" lon="-3.742033">
        <ele>2549.0</ele>
        <time>2018-07-22T13:13:33Z</time>
      </trkpt>
      <trkpt lat="41.049483" lon="-3.742083">
        <ele>2549.0</ele>
        <time>2018-07-22T13:13:34Z</time>
      </trkpt>
      <trkpt lat="41.049533" lon="-3.742133">
        <ele>2547.0</ele>
        <time>2018-07-22T13:13:35Z</time>
      </trkpt>
      <trkpt lat="41.049600" lon="-3.742183">
        <ele>2545.0</ele>
        <time>2018-07-22T13:13:36Z</time>
      </trkpt>
      <trkpt lat="41.049667" lon="-3.742250">
        <ele>2543.0</ele>
        <time>2018-07-22T13:13:37Z</time>
      </trkpt>
      <trkpt lat="41.049733" lon="-3.742300">
        <ele>2542.0</ele>
        <time>2018-07-22T13:13:38Z</time>
      </trkpt>
      <trkpt lat="41.049817" lon="-3.742350">
        <ele>2541.0</ele>
        <time>2018-07-22T13:13:39Z</time>
      </trkpt>
      <trkpt lat="41.049883" lon="-3.742400">
        <ele>2542.0</ele>
        <time>2018-07-22T13:13:40Z</time>
      </trkpt>
      <trkpt lat="41.049950" lon="-3.742450">
        <ele>2541.0</ele>
        <time>2018-07-22T13:13:41Z</time>
      </trkpt>
      <trkpt lat="41.050017" lon="-3.742500">
        <ele>2540.0</ele>
        <time>2018-07-22T13:13:42Z</time>
      </trkpt>
      <trkpt lat="41.050083" lon="-3.742533">
        <ele>2539.0</ele>
        <time>2018-07-22T13:13:43Z</time>
      </trkpt>
      <trkpt lat="41.050167" lon="-3.742567">
        <ele>2537.0</ele>
        <time>2018-07-22T13:13:44Z</time>
      </trkpt>
      <trkpt lat="41.050250" lon="-3.742600">
        <ele>2536.0</ele>
        <time>2018-07-22T13:13:45Z</time>
      </trkpt>
      <trkpt lat="41.050333" lon="-3.742667">
        <ele>2534.0</ele>
        <time>2018-07-22T13:13:46Z</time>
      </trkpt>
      <trkpt lat="41.050417" lon="-3.742717">
        <ele>2533.0</ele>
        <time>2018-07-22T13:13:47Z</time>
      </trkpt>
      <trkpt lat="41.050483" lon="-3.742783">
        <ele>2533.0</ele>
        <time>2018-07-22T13:13:48Z</time>
      </trkpt>
      <trkpt lat="41.050567" lon="-3.742833">
        <ele>2532.0</ele>
        <time>2018-07-22T13:13:49Z</time>
      </trkpt>
      <trkpt lat="41.050633" lon="-3.742883">
        <ele>2531.0</ele>
        <time>2018-07-22T13:13:50Z</time>
      </trkpt>
      <trkpt lat="41.050700" lon="-3.742917">
        <ele>2530.0</ele>
        <time>2018-07-22T13:13:51Z</time>
      </trkpt>
      <trkpt lat="41.050783" lon="-3.742950">
        <ele>2530.0</ele>
        <time>2018-07-22T13:13:52Z</time>
      </trkpt>
      <trkpt lat="41.050833" lon="-3.743000">
        <ele>2530.0</ele>
        <time>2018-07-22T13:13:53Z</time>
      </trkpt>
      <trkpt lat="41.050867" lon="-3.743050">
        <ele>2530.0</ele>
        <time>2018-07-22T13:13:54Z</time>
      </trkpt>
      <trkpt lat="41.050917" lon="-3.743100">
        <ele>2530.0</ele>
        <time>2018-07-22T13:13:55Z</time>
      </trkpt>
      <trkpt lat="41.050950" lon="-3.743167">
        <ele>2529.0</ele>
        <time>2018-07-22T13:13:56Z</time>
      </trkpt>
      <trkpt lat="41.051017" lon="-3.743217">
        <ele>2528.0</ele>
        <time>2018-07-22T13:13:57Z</time>
      </trkpt>
      <trkpt lat="41.051083" lon="-3.743283">
        <ele>2527.0</ele>
        <time>2018-07-22T13:13:58Z</time>
      </trkpt>
      <trkpt lat="41.051150" lon="-3.743333">
        <ele>2528.0</ele>
        <time>2018-07-22T13:13:59Z</time>
      </trkpt>
      <trkpt lat="41.051200" lon="-3.743400">
        <ele>2529.0</ele>
        <time>2018-07-22T13:14:00Z</time>
      </trkpt>
      <trkpt lat="41.051250" lon="-3.743450">
        <ele>2530.0</ele>
        <time>2018-07-22T13:14:01Z</time>
      </trkpt>
      <trkpt lat="41.051317" lon="-3.743483">
        <ele>2529.0</ele>
        <time>2018-07-22T13:14:02Z</time>
      </trkpt>
      <trkpt lat="41.051383" lon="-3.743517">
        <ele>2528.0</ele>
        <time>2018-07-22T13:14:03Z</time>
      </trkpt>
      <trkpt lat="41.051450" lon="-3.743567">
        <ele>2526.0</ele>
        <time>2018-07-22T13:14:04Z</time>
      </trkpt>
      <trkpt lat="41.051517" lon="-3.743617">
        <ele>2525.0</ele>
        <time>2018-07-22T13:14:05Z</time>
      </trkpt>
      <trkpt lat="41.051600" lon="-3.743683">
        <ele>2524.0</ele>
        <time>2018-07-22T13:14:06Z</time>
      </trkpt>
      <trkpt lat="41.051667" lon="-3.743733">
        <ele>2524.0</ele>
        <time>2018-07-22T13:14:07Z</time>
      </trkpt>
      <trkpt lat="41.051733" lon="-3.743783">
        <ele>2524.0</ele>
        <time>2018-07-22T13:14:08Z</time>
      </trkpt>
      <trkpt lat="41.051800" lon="-3.743833">
        <ele>2523.0</ele>
        <time>2018-07-22T13:14:09Z</time>
      </trkpt>
      <trkpt lat="41.051867" lon="-3.743883">
        <ele>2521.0</ele>
        <time>2018-07-22T13:14:10Z</time>
      </trkpt>
      <trkpt lat="41.051950" lon="-3.743933">
        <ele>2519.0</ele>
        <time>2018-07-22T13:14:11Z</time>
      </trkpt>
      <trkpt lat="41.052017" lon="-3.743983">
        <ele>2517.0</ele>
        <time>2018-07-22T13:14:12Z</time>
      </trkpt>
      <trkpt lat="41.052100" lon="-3.744033">
        <ele>2514.0</ele>
        <time>2018-07-22T13:14:13Z</time>
      </trkpt>
      <trkpt lat="41.052183" lon="-3.744083">
        <ele>2512.0</ele>
        <time>2018-07-22T13:14:14Z</time>
      </trkpt>
      <trkpt lat="41.052250" lon="-3.744167">
        <ele>2510.0</ele>
        <time>2018-07-22T13:14:15Z</time>
      </trkpt>
      <trkpt lat="41.052317" lon="-3.744250">
        <ele>2509.0</ele>
        <time>2018-07-22T13:14:16Z</time>
      </trkpt>
      <trkpt lat="41.052383" lon="-3.744350">
        <ele>2508.0</ele>
        <time>2018-07-22T13:14:17Z</time>
      </trkpt>
      <trkpt lat="41.052450" lon="-3.744433">
        <ele>2508.0</ele>
        <time>2018-07-22T13:14:18Z</time>
      </trkpt>
      <trkpt lat="41.052517" lon="-3.744533">
        <ele>2507.0</ele>
        <time>2018-07-22T13:14:19Z</time>
      </trkpt>
      <trkpt lat="41.052583" lon="-3.744617">
        <ele>2506.0</ele>
        <time>2018-07-22T13:14:20Z</time>
      </trkpt>
      <trkpt lat="41.052633" lon="-3.744700">
        <ele>2505.0</ele>
        <time>2018-07-22T13:14:21Z</time>
      </trkpt>
      <trkpt lat="41.052717" lon="-3.744783">
        <ele>2503.0</ele>
        <time>2018-07-22T13:14:22Z</time>
      </trkpt>
      <trkpt lat="41.052783" lon="-3.744850">
        <ele>2500.0</ele>
        <time>2018-07-22T13:14:23Z</time>
      </trkpt>
      <trkpt lat="41.052867" lon="-3.744917">
        <ele>2498.0</ele>
        <time>2018-07-22T13:14:24Z</time>
      </trkpt>
      <trkpt lat="41.052950" lon="-3.744983">
        <ele>2497.0</ele>
        <time>2018-07-22T13:14:25Z</time>
      </trkpt>
      <trkpt lat="41.053033" lon="-3.745033">
        <ele>2497.0</ele>
        <time>2018-07-22T13:14:26Z</time>
      </trkpt>
      <trkpt lat="41.053083" lon="-3.745083">
        <ele>2497.0</ele>
        <time>2018-07-22T13:14:27Z</time>
      </trkpt>
      <trkpt lat="41.053150" lon="-3.745117">
        <ele>2496.0</ele>
        <time>2018-07-22T13:14:28Z</time>
      </trkpt>
      <trkpt lat="41.053200" lon="-3.745150">
        <ele>2495.0</ele>
        <time>2018-07-22T13:14:29Z</time>
      </trkpt>
      <trkpt lat="41.053267" lon="-3.745167">
        <ele>2493.0</ele>
        <time>2018-07-22T13:14:30Z</time>
      </trkpt>
      <trkpt lat="41.053350" lon="-3.745183">
        <ele>2491.0</ele>
        <time>2018-07-22T13:14:31Z</time>
      </trkpt>
      <trkpt lat="41.053417" lon="-3.745217">
        <ele>2489.0</ele>
        <time>2018-07-22T13:14:32Z</time>
      </trkpt>
      <trkpt lat="41.053483" lon="-3.745233">
        <ele>2486.0</ele>
        <time>2018-07-22T13:14:33Z</time>
      </trkpt>
      <trkpt lat="41.053567" lon="-3.745250">
        <ele>2483.0</ele>
        <time>2018-07-22T13:14:34Z</time>
      </trkpt>
      <trkpt lat="41.053650" lon="-3.745283">
        <ele>2480.0</ele>
        <time>2018-07-22T13:14:35Z</time>
      </trkpt>
      <trkpt lat="41.053733" lon="-3.745300">
        <ele>2477.0</ele>
        <time>2018-07-22T13:14:36Z</time>
      </trkpt>
      <trkpt lat="41.053800" lon="-3.745317">
        <ele>2475.0</ele>
        <time>2018-07-22T13:14:37Z</time>
      </trkpt>
      <trkpt lat="41.053883" lon="-3.745333">
        <ele>2472.0</ele>
        <time>2018-07-22T13:14:38Z</time>
      </trkpt>
      <trkpt lat="41.053950" lon="-3.745333">
        <ele>2469.0</ele>
        <time>2018-07-22T13:14:39Z</time>
      </trkpt>
      <trkpt lat="41.054017" lon="-3.745333">
        <ele>2466.0</ele>
        <time>2018-07-22T13:14:40Z</time>
      </trkpt>
      <trkpt lat="41.054083" lon="-3.745350">
        <ele>2463.0</ele>
        <time>2018-07-22T13:14:41Z</time>
      </trkpt>
      <trkpt lat="41.054150" lon="-3.745383">
        <ele>2460.0</ele>
        <time>2018-07-22T13:14:42Z</time>
      </trkpt>
      <trkpt lat="41.054217" lon="-3.745433">
        <ele>2455.0</ele>
        <time>2018-07-22T13:14:43Z</time>
      </trkpt>
      <trkpt lat="41.054283" lon="-3.745467">
        <ele>2452.0</ele>
        <time>2018-07-22T13:14:44Z</time>
      </trkpt>
      <trkpt lat="41.054350" lon="-3.745517">
        <ele>2448.0</ele>
        <time>2018-07-22T13:14:45Z</time>
      </trkpt>
      <trkpt lat="41.054417" lon="-3.745567">
        <ele>2445.0</ele>
        <time>2018-07-22T13:14:46Z</time>
      </trkpt>
      <trkpt lat="41.054467" lon="-3.745617">
        <ele>2440.0</ele>
        <time>2018-07-22T13:14:47Z</time>
      </trkpt>
      <trkpt lat="41.054533" lon="-3.745667">
        <ele>2435.0</ele>
        <time>2018-07-22T13:14:48Z</time>
      </trkpt>
      <trkpt lat="41.054600" lon="-3.745717">
        <ele>2429.0</ele>
        <time>2018-07-22T13:14:49Z</time>
      </trkpt>
      <trkpt lat="41.054683" lon="-3.745767">
        <ele>2424.0</ele>
        <time>2018-07-22T13:14:50Z</time>
      </trkpt>
      <trkpt lat="41.054783" lon="-3.745833">
        <ele>2418.0</ele>
        <time>2018-07-22T13:14:51Z</time>
      </trkpt>
      <trkpt lat="41.054867" lon="-3.745900">
        <ele>2412.0</ele>
        <time>2018-07-22T13:14:52Z</time>
      </trkpt>
      <trkpt lat="41.054967" lon="-3.745950">
        <ele>2408.0</ele>
        <time>2018-07-22T13:14:53Z</time>
      </trkpt>
      <trkpt lat="41.055067" lon="-3.746000">
        <ele>2403.0</ele>
        <time>2018-07-22T13:14:54Z</time>
      </trkpt>
      <trkpt lat="41.055150" lon="-3.746067">
        <ele>2400.0</ele>
        <time>2018-07-22T13:14:55Z</time>
      </trkpt>
      <trkpt lat="41.055233" lon="-3.746117">
        <ele>2396.0</ele>
        <time>2018-07-22T13:14:56Z</time>
      </trkpt>
      <trkpt lat="41.055317" lon="-3.746167">
        <ele>2392.0</ele>
        <time>2018-07-22T13:14:57Z</time>
      </trkpt>
      <trkpt lat="41.055400" lon="-3.746233">
        <ele>2389.0</ele>
        <time>2018-07-22T13:14:58Z</time>
      </trkpt>
      <trkpt lat="41.055467" lon="-3.746283">
        <ele>2386.0</ele>
        <time>2018-07-22T13:14:59Z</time>
      </trkpt>
      <trkpt lat="41.055550" lon="-3.746333">
        <ele>2383.0</ele>
        <time>2018-07-22T13:15:00Z</time>
      </trkpt>
      <trkpt lat="41.055617" lon="-3.746367">
        <ele>2380.0</ele>
        <time>2018-07-22T13:15:01Z</time>
      </trkpt>
      <trkpt lat="41.055683" lon="-3.746417">
        <ele>2376.0</ele>
        <time>2018-07-22T13:15:02Z</time>
      </trkpt>
      <trkpt lat="41.055767" lon="-3.746467">
        <ele>2373.0</ele>
        <time>2018-07-22T13:15:03Z</time>
      </trkpt>
      <trkpt lat="41.055833" lon="-3.746500">
        <ele>2370.0</ele>
        <time>2018-07-22T13:15:04Z</time>
      </trkpt>
      <trkpt lat="41.055917" lon="-3.746550">
        <ele>2367.0</ele>
        <time>2018-07-22T13:15:05Z</time>
      </trkpt>
      <trkpt lat="41.056000" lon="-3.746600">
        <ele>2364.0</ele>
        <time>2018-07-22T13:15:06Z</time>
      </trkpt>
      <trkpt lat="41.056067" lon="-3.746633">
        <ele>2362.0</ele>
        <time>2018-07-22T13:15:07Z</time>
      </trkpt>
      <trkpt lat="41.056133" lon="-3.746683">
        <ele>2361.0</ele>
        <time>2018-07-22T13:15:08Z</time>
      </trkpt>
      <trkpt lat="41.056183" lon="-3.746733">
        <ele>2361.0</ele>
        <time>2018-07-22T13:15:09Z</time>
      </trkpt>
      <trkpt lat="41.056233" lon="-3.746783">
        <ele>2360.0</ele>
        <time>2018-07-22T13:15:10Z</time>
      </trkpt>
      <trkpt lat="41.056283" lon="-3.746817">
        <ele>2359.0</ele>
        <time>2018-07-22T13:15:11Z</time>
      </trkpt>
      <trkpt lat="41.056333" lon="-3.746850">
        <ele>2358.0</ele>
        <time>2018-07-22T13:15:12Z</time>
      </trkpt>
      <trkpt lat="41.056383" lon="-3.746883">
        <ele>2357.0</ele>
        <time>2018-07-22T13:15:13Z</time>
      </trkpt>
      <trkpt lat="41.056433" lon="-3.746917">
        <ele>2356.0</ele>
        <time>2018-07-22T13:15:14Z</time>
      </trkpt>
      <trkpt lat="41.056467" lon="-3.746967">
        <ele>2356.0</ele>
        <time>2018-07-22T13:15:15Z</time>
      </trkpt>
      <trkpt lat="41.056517" lon="-3.747017">
        <ele>2356.0</ele>
        <time>2018-07-22T13:15:16Z</time>
      </trkpt>
      <trkpt lat="41.056583" lon="-3.747050">
        <ele>2357.0</ele>
        <time>2018-07-22T13:15:17Z</time>
      </trkpt>
      <trkpt lat="41.056633" lon="-3.747083">
        <ele>2357.0</ele>
        <time>2018-07-22T13:15:18Z</time>
      </trkpt>
      <trkpt lat="41.056683" lon="-3.747117">
        <ele>2358.0</ele>
        <time>2018-07-22T13:15:19Z</time>
      </trkpt>
      <trkpt lat="41.056733" lon="-3.747133">
        <ele>2359.0</ele>
        <time>2018-07-22T13:15:20Z</time>
      </trkpt>
      <trkpt lat="41.056783" lon="-3.747167">
        <ele>2358.0</ele>
        <time>2018-07-22T13:15:21Z</time>
      </trkpt>
      <trkpt lat="41.056833" lon="-3.747183">
        <ele>2359.0</ele>
        <time>2018-07-22T13:15:22Z</time>
      </trkpt>
      <trkpt lat="41.056900" lon="-3.747217">
        <ele>2359.0</ele>
        <time>2018-07-22T13:15:23Z</time>
      </trkpt>
      <trkpt lat="41.056950" lon="-3.747250">
        <ele>2361.0</ele>
        <time>2018-07-22T13:15:24Z</time>
      </trkpt>
      <trkpt lat="41.057000" lon="-3.747283">
        <ele>2362.0</ele>
        <time>2018-07-22T13:15:25Z</time>
      </trkpt>
      <trkpt lat="41.057050" lon="-3.747317">
        <ele>2363.0</ele>
        <time>2018-07-22T13:15:26Z</time>
      </trkpt>
      <trkpt lat="41.057100" lon="-3.747333">
        <ele>2364.0</ele>
        <time>2018-07-22T13:15:27Z</time>
      </trkpt>
      <trkpt lat="41.057150" lon="-3.747367">
        <ele>2366.0</ele>
        <time>2018-07-22T13:15:28Z</time>
      </trkpt>
      <trkpt lat="41.057183" lon="-3.747417">
        <ele>2367.0</ele>
        <time>2018-07-22T13:15:29Z</time>
      </trkpt>
      <trkpt lat="41.057233" lon="-3.747450">
        <ele>2368.0</ele>
        <time>2018-07-22T13:15:30Z</time>
      </trkpt>
      <trkpt lat="41.057283" lon="-3.747500">
        <ele>2370.0</ele>
        <time>2018-07-22T13:15:31Z</time>
      </trkpt>
      <trkpt lat="41.057317" lon="-3.747533">
        <ele>2372.0</ele>
        <time>2018-07-22T13:15:32Z</time>
      </trkpt>
      <trkpt lat="41.057367" lon="-3.747567">
        <ele>2375.0</ele>
        <time>2018-07-22T13:15:33Z</time>
      </trkpt>
      <trkpt lat="41.057400" lon="-3.747583">
        <ele>2377.0</ele>
        <time>2018-07-22T13:15:34Z</time>
      </trkpt>
      <trkpt lat="41.057450" lon="-3.747617">
        <ele>2380.0</ele>
        <time>2018-07-22T13:15:35Z</time>
      </trkpt>
      <trkpt lat="41.057500" lon="-3.747650">
        <ele>2382.0</ele>
        <time>2018-07-22T13:15:36Z</time>
      </trkpt>
      <trkpt lat="41.057517" lon="-3.747700">
        <ele>2384.0</ele>
        <time>2018-07-22T13:15:37Z</time>
      </trkpt>
      <trkpt lat="41.057550" lon="-3.747733">
        <ele>2387.0</ele>
        <time>2018-07-22T13:15:38Z</time>
      </trkpt>
      <trkpt lat="41.057567" lon="-3.747750">
        <ele>2389.0</ele>
        <time>2018-07-22T13:15:39Z</time>
      </trkpt>
      <trkpt lat="41.057600" lon="-3.747733">
        <ele>2389.0</ele>
        <time>2018-07-22T13:15:40Z</time>
      </trkpt>
      <trkpt lat="41.057633" lon="-3.747700">
        <ele>2388.0</ele>
        <time>2018-07-22T13:15:41Z</time>
      </trkpt>
      <trkpt lat="41.057667" lon="-3.747617">
        <ele>2387.0</ele>
        <time>2018-07-22T13:15:42Z</time>
      </trkpt>
      <trkpt lat="41.057700" lon="-3.747517">
        <ele>2388.0</ele>
        <time>2018-07-22T13:15:43Z</time>
      </trkpt>
      <trkpt lat="41.057717" lon="-3.747417">
        <ele>2389.0</ele>
        <time>2018-07-22T13:15:44Z</time>
      </trkpt>
      <trkpt lat="41.057700" lon="-3.747300">
        <ele>2388.0</ele>
        <time>2018-07-22T13:15:45Z</time>
      </trkpt>
      <trkpt lat="41.057667" lon="-3.747183">
        <ele>2386.0</ele>
        <time>2018-07-22T13:15:46Z</time>
      </trkpt>
      <trkpt lat="41.057600" lon="-3.747067">
        <ele>2384.0</ele>
        <time>2018-07-22T13:15:47Z</time>
      </trkpt>
      <trkpt lat="41.057517" lon="-3.746950">
        <ele>2383.0</ele>
        <time>2018-07-22T13:15:48Z</time>
      </trkpt>
      <trkpt lat="41.057417" lon="-3.746833">
        <ele>2384.0</ele>
        <time>2018-07-22T13:15:49Z</time>
      </trkpt>
      <trkpt lat="41.057300" lon="-3.746767">
        <ele>2385.0</ele>
        <time>2018-07-22T13:15:50Z</time>
      </trkpt>
      <trkpt lat="41.057167" lon="-3.746700">
        <ele>2386.0</ele>
        <time>2018-07-22T13:15:51Z</time>
      </trkpt>
      <trkpt lat="41.057033" lon="-3.746683">
        <ele>2389.0</ele>
        <time>2018-07-22T13:15:52Z</time>
      </trkpt>
      <trkpt lat="41.056900" lon="-3.746667">
        <ele>2392.0</ele>
        <time>2018-07-22T13:15:53Z</time>
      </trkpt>
      <trkpt lat="41.056783" lon="-3.746683">
        <ele>2395.0</ele>
        <time>2018-07-22T13:15:54Z</time>
      </trkpt>
      <trkpt lat="41.056667" lon="-3.746717">
        <ele>2397.0</ele>
        <time>2018-07-22T13:15:55Z</time>
      </trkpt>
      <trkpt lat="41.056550" lon="-3.746767">
        <ele>2400.0</ele>
        <time>2018-07-22T13:15:56Z</time>
      </trkpt>
      <trkpt lat="41.056450" lon="-3.746800">
        <ele>2402.0</ele>
        <time>2018-07-22T13:15:57Z</time>
      </trkpt>
      <trkpt lat="41.056350" lon="-3.746850">
        <ele>2403.0</ele>
        <time>2018-07-22T13:15:58Z</time>
      </trkpt>
      <trkpt lat="41.056267" lon="-3.746917">
        <ele>2405.0</ele>
        <time>2018-07-22T13:15:59Z</time>
      </trkpt>
      <trkpt lat="41.056183" lon="-3.747000">
        <ele>2404.0</ele>
        <time>2018-07-22T13:16:00Z</time>
      </trkpt>
      <trkpt lat="41.056133" lon="-3.747100">
        <ele>2404.0</ele>
        <time>2018-07-22T13:16:01Z</time>
      </trkpt>
      <trkpt lat="41.056100" lon="-3.747217">
        <ele>2403.0</ele>
        <time>2018-07-22T13:16:02Z</time>
      </trkpt>
      <trkpt lat="41.056083" lon="-3.747333">
        <ele>2404.0</ele>
        <time>2018-07-22T13:16:03Z</time>
      </trkpt>
      <trkpt lat="41.056100" lon="-3.747433">
        <ele>2404.0</ele>
        <time>2018-07-22T13:16:04Z</time>
      </trkpt>
      <trkpt lat="41.056133" lon="-3.747517">
        <ele>2404.0</ele>
        <time>2018-07-22T13:16:05Z</time>
      </trkpt>
      <trkpt lat="41.056183" lon="-3.747583">
        <ele>2404.0</ele>
        <time>2018-07-22T13:16:06Z</time>
      </trkpt>
      <trkpt lat="41.056250" lon="-3.747617">
        <ele>2405.0</ele>
        <time>2018-07-22T13:16:07Z</time>
      </trkpt>
      <trkpt lat="41.056317" lon="-3.747650">
        <ele>2406.0</ele>
        <time>2018-07-22T13:16:08Z</time>
      </trkpt>
      <trkpt lat="41.056367" lon="-3.747683">
        <ele>2407.0</ele>
        <time>2018-07-22T13:16:09Z</time>
      </trkpt>
      <trkpt lat="41.056433" lon="-3.747700">
        <ele>2408.0</ele>
        <time>2018-07-22T13:16:10Z</time>
      </trkpt>
      <trkpt lat="41.056483" lon="-3.747733">
        <ele>2409.0</ele>
        <time>2018-07-22T13:16:11Z</time>
      </trkpt>
      <trkpt lat="41.056533" lon="-3.747767">
        <ele>2409.0</ele>
        <time>2018-07-22T13:16:12Z</time>
      </trkpt>
      <trkpt lat="41.056583" lon="-3.747817">
        <ele>2409.0</ele>
        <time>2018-07-22T13:16:13Z</time>
      </trkpt>
      <trkpt lat="41.056650" lon="-3.747850">
        <ele>2410.0</ele>
        <time>2018-07-22T13:16:14Z</time>
      </trkpt>
      <trkpt lat="41.056700" lon="-3.747883">
        <ele>2411.0</ele>
        <time>2018-07-22T13:16:15Z</time>
      </trkpt>
      <trkpt lat="41.056750" lon="-3.747917">
        <ele>2412.0</ele>
        <time>2018-07-22T13:16:16Z</time>
      </trkpt>
      <trkpt lat="41.056800" lon="-3.747950">
        <ele>2413.0</ele>
        <time>2018-07-22T13:16:17Z</time>
      </trkpt>
      <trkpt lat="41.056850" lon="-3.747983">
        <ele>2414.0</ele>
        <time>2018-07-22T13:16:18Z</time>
      </trkpt>
      <trkpt lat="41.056900" lon="-3.748017">
        <ele>2414.0</ele>
        <time>2018-07-22T13:16:19Z</time>
      </trkpt>
      <trkpt lat="41.056950" lon="-3.748050">
        <ele>2415.0</ele>
        <time>2018-07-22T13:16:20Z</time>
      </trkpt>
      <trkpt lat="41.057000" lon="-3.748083">
        <ele>2415.0</ele>
        <time>2018-07-22T13:16:21Z</time>
      </trkpt>
      <trkpt lat="41.057067" lon="-3.748100">
        <ele>2414.0</ele>
        <time>2018-07-22T13:16:22Z</time>
      </trkpt>
      <trkpt lat="41.057133" lon="-3.748133">
        <ele>2414.0</ele>
        <time>2018-07-22T13:16:23Z</time>
      </trkpt>
      <trkpt lat="41.057200" lon="-3.748167">
        <ele>2415.0</ele>
        <time>2018-07-22T13:16:24Z</time>
      </trkpt>
      <trkpt lat="41.057267" lon="-3.748200">
        <ele>2416.0</ele>
        <time>2018-07-22T13:16:25Z</time>
      </trkpt>
      <trkpt lat="41.057333" lon="-3.748217">
        <ele>2418.0</ele>
        <time>2018-07-22T13:16:26Z</time>
      </trkpt>
      <trkpt lat="41.057400" lon="-3.748233">
        <ele>2419.0</ele>
        <time>2018-07-22T13:16:27Z</time>
      </trkpt>
      <trkpt lat="41.057450" lon="-3.748250">
        <ele>2420.0</ele>
        <time>2018-07-22T13:16:28Z</time>
      </trkpt>
      <trkpt lat="41.057483" lon="-3.748267">
        <ele>2420.0</ele>
        <time>2018-07-22T13:16:29Z</time>
      </trkpt>
      <trkpt lat="41.057533" lon="-3.748283">
        <ele>2418.0</ele>
        <time>2018-07-22T13:16:30Z</time>
      </trkpt>
      <trkpt lat="41.057567" lon="-3.748317">
        <ele>2415.0</ele>
        <time>2018-07-22T13:16:31Z</time>
      </trkpt>
      <trkpt lat="41.057633" lon="-3.748350">
        <ele>2412.0</ele>
        <time>2018-07-22T13:16:32Z</time>
      </trkpt>
      <trkpt lat="41.057700" lon="-3.748367">
        <ele>2408.0</ele>
        <time>2018-07-22T13:16:33Z</time>
      </trkpt>
      <trkpt lat="41.057783" lon="-3.748383">
        <ele>2405.0</ele>
        <time>2018-07-22T13:16:34Z</time>
      </trkpt>
      <trkpt lat="41.057867" lon="-3.748400">
        <ele>2402.0</ele>
        <time>2018-07-22T13:16:35Z</time>
      </trkpt>
      <trkpt lat="41.057967" lon="-3.748433">
        <ele>2399.0</ele>
        <time>2018-07-22T13:16:36Z</time>
      </trkpt>
      <trkpt lat="41.058050" lon="-3.748483">
        <ele>2398.0</ele>
        <time>2018-07-22T13:16:37Z</time>
      </trkpt>
      <trkpt lat="41.058117" lon="-3.748517">
        <ele>2398.0</ele>
        <time>2018-07-22T13:16:38Z</time>
      </trkpt>
      <trkpt lat="41.058200" lon="-3.748533">
        <ele>2398.0</ele>
        <time>2018-07-22T13:16:39Z</time>
      </trkpt>
      <trkpt lat="41.058267" lon="-3.748567">
        <ele>2397.0</ele>
        <time>2018-07-22T13:16:40Z</time>
      </trkpt>
      <trkpt lat="41.058333" lon="-3.748583">
        <ele>2396.0</ele>
        <time>2018-07-22T13:16:41Z</time>
      </trkpt>
      <trkpt lat="41.058383" lon="-3.748600">
        <ele>2393.0</ele>
        <time>2018-07-22T13:16:42Z</time>
      </trkpt>
      <trkpt lat="41.058467" lon="-3.748633">
        <ele>2391.0</ele>
        <time>2018-07-22T13:16:43Z</time>
      </trkpt>
      <trkpt lat="41.058533" lon="-3.748667">
        <ele>2389.0</ele>
        <time>2018-07-22T13:16:44Z</time>
      </trkpt>
      <trkpt lat="41.058617" lon="-3.748700">
        <ele>2387.0</ele>
        <time>2018-07-22T13:16:45Z</time>
      </trkpt>
      <trkpt lat="41.058683" lon="-3.748750">
        <ele>2386.0</ele>
        <time>2018-07-22T13:16:46Z</time>
      </trkpt>
      <trkpt lat="41.058767" lon="-3.748783">
        <ele>2385.0</ele>
        <time>2018-07-22T13:16:47Z</time>
      </trkpt>
      <trkpt lat="41.058850" lon="-3.748850">
        <ele>2385.0</ele>
        <time>2018-07-22T13:16:48Z</time>
      </trkpt>
      <trkpt lat="41.058933" lon="-3.748900">
        <ele>2385.0</ele>
        <time>2018-07-22T13:16:49Z</time>
      </trkpt>
      <trkpt lat="41.058983" lon="-3.748950">
        <ele>2388.0</ele>
        <time>2018-07-22T13:16:50Z</time>
      </trkpt>
      <trkpt lat="41.059033" lon="-3.749017">
        <ele>2392.0</ele>
        <time>2018-07-22T13:16:51Z</time>
      </trkpt>
      <trkpt lat="41.059083" lon="-3.749067">
        <ele>2396.0</ele>
        <time>2018-07-22T13:16:52Z</time>
      </trkpt>
      <trkpt lat="41.059133" lon="-3.749100">
        <ele>2398.0</ele>
        <time>2018-07-22T13:16:53Z</time>
      </trkpt>
      <trkpt lat="41.059183" lon="-3.749133">
        <ele>2401.0</ele>
        <time>2018-07-22T13:16:54Z</time>
      </trkpt>
      <trkpt lat="41.059250" lon="-3.749133">
        <ele>2403.0</ele>
        <time>2018-07-22T13:16:55Z</time>
      </trkpt>
      <trkpt lat="41.059317" lon="-3.749117">
        <ele>2405.0</ele>
        <time>2018-07-22T13:16:56Z</time>
      </trkpt>
      <trkpt lat="41.059383" lon="-3.749050">
        <ele>2408.0</ele>
        <time>2018-07-22T13:16:57Z</time>
      </trkpt>
      <trkpt lat="41.059433" lon="-3.748933">
        <ele>2410.0</ele>
        <time>2018-07-22T13:16:58Z</time>
      </trkpt>
      <trkpt lat="41.059483" lon="-3.748783">
        <ele>2412.0</ele>
        <time>2018-07-22T13:16:59Z</time>
      </trkpt>
      <trkpt lat="41.059483" lon="-3.748600">
        <ele>2414.0</ele>
        <time>2018-07-22T13:17:00Z</time>
      </trkpt>
      <trkpt lat="41.059467" lon="-3.748433">
        <ele>2417.0</ele>
        <time>2018-07-22T13:17:01Z</time>
      </trkpt>
      <trkpt lat="41.059417" lon="-3.748283">
        <ele>2420.0</ele>
        <time>2018-07-22T13:17:02Z</time>
      </trkpt>
      <trkpt lat="41.059333" lon="-3.748167">
        <ele>2422.0</ele>
        <time>2018-07-22T13:17:03Z</time>
      </trkpt>
      <trkpt lat="41.059233" lon="-3.748083">
        <ele>2424.0</ele>
        <time>2018-07-22T13:17:04Z</time>
      </trkpt>
      <trkpt lat="41.059133" lon="-3.748033">
        <ele>2426.0</ele>
        <time>2018-07-22T13:17:05Z</time>
      </trkpt>
      <trkpt lat="41.059017" lon="-3.748000">
        <ele>2428.0</ele>
        <time>2018-07-22T13:17:06Z</time>
      </trkpt>
      <trkpt lat="41.058900" lon="-3.748000">
        <ele>2429.0</ele>
        <time>2018-07-22T13:17:07Z</time>
      </trkpt>
      <trkpt lat="41.058783" lon="-3.748033">
        <ele>2431.0</ele>
        <time>2018-07-22T13:17:08Z</time>
      </trkpt>
      <trkpt lat="41.058683" lon="-3.748100">
        <ele>2433.0</ele>
        <time>2018-07-22T13:17:09Z</time>
      </trkpt>
      <trkpt lat="41.058617" lon="-3.748200">
        <ele>2435.0</ele>
        <time>2018-07-22T13:17:10Z</time>
      </trkpt>
      <trkpt lat="41.058600" lon="-3.748300">
        <ele>2436.0</ele>
        <time>2018-07-22T13:17:11Z</time>
      </trkpt>
      <trkpt lat="41.058600" lon="-3.748400">
        <ele>2438.0</ele>
        <time>2018-07-22T13:17:12Z</time>
      </trkpt>
      <trkpt lat="41.058617" lon="-3.748483">
        <ele>2441.0</ele>
        <time>2018-07-22T13:17:13Z</time>
      </trkpt>
      <trkpt lat="41.058633" lon="-3.748550">
        <ele>2444.0</ele>
        <time>2018-07-22T13:17:14Z</time>
      </trkpt>
      <trkpt lat="41.058650" lon="-3.748600">
        <ele>2445.0</ele>
        <time>2018-07-22T13:17:15Z</time>
      </trkpt>
      <trkpt lat="41.058683" lon="-3.748633">
        <ele>2446.0</ele>
        <time>2018-07-22T13:17:16Z</time>
      </trkpt>
      <trkpt lat="41.058733" lon="-3.748650">
        <ele>2445.0</ele>
        <time>2018-07-22T13:17:17Z</time>
      </trkpt>
      <trkpt lat="41.058817" lon="-3.748633">
        <ele>2445.0</ele>
        <time>2018-07-22T13:17:18Z</time>
      </trkpt>
      <trkpt lat="41.058883" lon="-3.748583">
        <ele>2447.0</ele>
        <time>2018-07-22T13:17:19Z</time>
      </trkpt>
      <trkpt lat="41.058950" lon="-3.748517">
        <ele>2450.0</ele>
        <time>2018-07-22T13:17:20Z</time>
      </trkpt>
      <trkpt lat="41.059000" lon="-3.748400">
        <ele>2453.0</ele>
        <time>2018-07-22T13:17:21Z</time>
      </trkpt>
      <trkpt lat="41.059033" lon="-3.748267">
        <ele>2455.0</ele>
        <time>2018-07-22T13:17:22Z</time>
      </trkpt>
      <trkpt lat="41.059050" lon="-3.748117">
        <ele>2458.0</ele>
        <time>2018-07-22T13:17:23Z</time>
      </trkpt>
      <trkpt lat="41.059050" lon="-3.747983">
        <ele>2460.0</ele>
        <time>2018-07-22T13:17:24Z</time>
      </trkpt>
      <trkpt lat="41.059033" lon="-3.747817">
        <ele>2462.0</ele>
        <time>2018-07-22T13:17:25Z</time>
      </trkpt>
      <trkpt lat="41.059000" lon="-3.747650">
        <ele>2463.0</ele>
        <time>2018-07-22T13:17:26Z</time>
      </trkpt>
      <trkpt lat="41.058933" lon="-3.747500">
        <ele>2464.0</ele>
        <time>2018-07-22T13:17:27Z</time>
      </trkpt>
      <trkpt lat="41.058850" lon="-3.747333">
        <ele>2465.0</ele>
        <time>2018-07-22T13:17:28Z</time>
      </trkpt>
      <trkpt lat="41.058733" lon="-3.747217">
        <ele>2466.0</ele>
        <time>2018-07-22T13:17:29Z</time>
      </trkpt>
      <trkpt lat="41.058617" lon="-3.747100">
        <ele>2468.0</ele>
        <time>2018-07-22T13:17:30Z</time>
      </trkpt>
      <trkpt lat="41.058483" lon="-3.747033">
        <ele>2470.0</ele>
        <time>2018-07-22T13:17:31Z</time>
      </trkpt>
      <trkpt lat="41.058367" lon="-3.747000">
        <ele>2472.0</ele>
        <time>2018-07-22T13:17:32Z</time>
      </trkpt>
      <trkpt lat="41.058233" lon="-3.746967">
        <ele>2474.0</ele>
        <time>2018-07-22T13:17:33Z</time>
      </trkpt>
      <trkpt lat="41.058117" lon="-3.746950">
        <ele>2476.0</ele>
        <time>2018-07-22T13:17:34Z</time>
      </trkpt>
      <trkpt lat="41.058000" lon="-3.746983">
        <ele>2478.0</ele>
        <time>2018-07-22T13:17:35Z</time>
      </trkpt>
      <trkpt lat="41.057900" lon="-3.747017">
        <ele>2478.0</ele>
        <time>2018-07-22T13:17:36Z</time>
      </trkpt>
      <trkpt lat="41.057833" lon="-3.747083">
        <ele>2478.0</ele>
        <time>2018-07-22T13:17:37Z</time>
      </trkpt>
      <trkpt lat="41.057800" lon="-3.747150">
        <ele>2478.0</ele>
        <time>2018-07-22T13:17:38Z</time>
      </trkpt>
      <trkpt lat="41.057767" lon="-3.747200">
        <ele>2477.0</ele>
        <time>2018-07-22T13:17:39Z</time>
      </trkpt>
      <trkpt lat="41.057733" lon="-3.747250">
        <ele>2476.0</ele>
        <time>2018-07-22T13:17:40Z</time>
      </trkpt>
      <trkpt lat="41.057700" lon="-3.747317">
        <ele>2474.0</ele>
        <time>2018-07-22T13:17:41Z</time>
      </trkpt>
      <trkpt lat="41.057667" lon="-3.747400">
        <ele>2472.0</ele>
        <time>2018-07-22T13:17:42Z</time>
      </trkpt>
      <trkpt lat="41.057650" lon="-3.747483">
        <ele>2470.0</ele>
        <time>2018-07-22T13:17:43Z</time>
      </trkpt>
      <trkpt lat="41.057667" lon="-3.747567">
        <ele>2467.0</ele>
        <time>2018-07-22T13:17:44Z</time>
      </trkpt>
      <trkpt lat="41.057717" lon="-3.747617">
        <ele>2465.0</ele>
        <time>2018-07-22T13:17:45Z</time>
      </trkpt>
      <trkpt lat="41.057800" lon="-3.747633">
        <ele>2462.0</ele>
        <time>2018-07-22T13:17:46Z</time>
      </trkpt>
      <trkpt lat="41.057883" lon="-3.747617">
        <ele>2461.0</ele>
        <time>2018-07-22T13:17:47Z</time>
      </trkpt>
      <trkpt lat="41.057950" lon="-3.747617">
        <ele>2462.0</ele>
        <time>2018-07-22T13:17:48Z</time>
      </trkpt>
      <trkpt lat="41.058033" lon="-3.747617">
        <ele>2462.0</ele>
        <time>2018-07-22T13:17:49Z</time>
      </trkpt>
      <trkpt lat="41.058100" lon="-3.747617">
        <ele>2464.0</ele>
        <time>2018-07-22T13:17:50Z</time>
      </trkpt>
      <trkpt lat="41.058167" lon="-3.747633">
        <ele>2465.0</ele>
        <time>2018-07-22T13:17:51Z</time>
      </trkpt>
      <trkpt lat="41.058250" lon="-3.747650">
        <ele>2467.0</ele>
        <time>2018-07-22T13:17:52Z</time>
      </trkpt>
      <trkpt lat="41.058317" lon="-3.747650">
        <ele>2469.0</ele>
        <time>2018-07-22T13:17:53Z</time>
      </trkpt>
      <trkpt lat="41.058383" lon="-3.747633">
        <ele>2472.0</ele>
        <time>2018-07-22T13:17:54Z</time>
      </trkpt>
      <trkpt lat="41.058450" lon="-3.747583">
        <ele>2475.0</ele>
        <time>2018-07-22T13:17:55Z</time>
      </trkpt>
      <trkpt lat="41.058517" lon="-3.747517">
        <ele>2477.0</ele>
        <time>2018-07-22T13:17:56Z</time>
      </trkpt>
      <trkpt lat="41.058583" lon="-3.747433">
        <ele>2479.0</ele>
        <time>2018-07-22T13:17:57Z</time>
      </trkpt>
      <trkpt lat="41.058650" lon="-3.747367">
        <ele>2481.0</ele>
        <time>2018-07-22T13:17:58Z</time>
      </trkpt>
      <trkpt lat="41.058733" lon="-3.747317">
        <ele>2483.0</ele>
        <time>2018-07-22T13:17:59Z</time>
      </trkpt>
      <trkpt lat="41.058817" lon="-3.747283">
        <ele>2486.0</ele>
        <time>2018-07-22T13:18:00Z</time>
      </trkpt>
      <trkpt lat="41.058900" lon="-3.747250">
        <ele>2491.0</ele>
        <time>2018-07-22T13:18:01Z</time>
      </trkpt>
      <trkpt lat="41.058967" lon="-3.747217">
        <ele>2495.0</ele>
        <time>2018-07-22T13:18:02Z</time>
      </trkpt>
      <trkpt lat="41.059033" lon="-3.747200">
        <ele>2499.0</ele>
        <time>2018-07-22T13:18:03Z</time>
      </trkpt>
      <trkpt lat="41.059083" lon="-3.747183">
        <ele>2503.0</ele>
        <time>2018-07-22T13:18:04Z</time>
      </trkpt>
      <trkpt lat="41.059150" lon="-3.747150">
        <ele>2506.0</ele>
        <time>2018-07-22T13:18:05Z</time>
      </trkpt>
      <trkpt lat="41.059217" lon="-3.747117">
        <ele>2508.0</ele>
        <time>2018-07-22T13:18:06Z</time>
      </trkpt>
      <trkpt lat="41.059283" lon="-3.747033">
        <ele>2511.0</ele>
        <time>2018-07-22T13:18:07Z</time>
      </trkpt>
      <trkpt lat="41.059333" lon="-3.746917">
        <ele>2513.0</ele>
        <time>2018-07-22T13:18:08Z</time>
      </trkpt>
      <trkpt lat="41.059383" lon="-3.746750">
        <ele>2514.0</ele>
        <time>2018-07-22T13:18:09Z</time>
      </trkpt>
      <trkpt lat="41.059400" lon="-3.746567">
        <ele>2515.0</ele>
        <time>2018-07-22T13:18:10Z</time>
      </trkpt>
      <trkpt lat="41.059367" lon="-3.746350">
        <ele>2516.0</ele>
        <time>2018-07-22T13:18:11Z</time>
      </trkpt>
      <trkpt lat="41.059300" lon="-3.746150">
        <ele>2518.0</ele>
        <time>2018-07-22T13:18:12Z</time>
      </trkpt>
      <trkpt lat="41.059183" lon="-3.746000">
        <ele>2522.0</ele>
        <time>2018-07-22T13:18:13Z</time>
      </trkpt>
      <trkpt lat="41.059083" lon="-3.745917">
        <ele>2526.0</ele>
        <time>2018-07-22T13:18:14Z</time>
      </trkpt>
      <trkpt lat="41.058967" lon="-3.745867">
        <ele>2529.0</ele>
        <time>2018-07-22T13:18:15Z</time>
      </trkpt>
      <trkpt lat="41.058867" lon="-3.745850">
        <ele>2532.0</ele>
        <time>2018-07-22T13:18:16Z</time>
      </trkpt>
      <trkpt lat="41.058767" lon="-3.745850">
        <ele>2534.0</ele>
        <time>2018-07-22T13:18:17Z</time>
      </trkpt>
      <trkpt lat="41.058667" lon="-3.745867">
        <ele>2535.0</ele>
        <time>2018-07-22T13:18:18Z</time>
      </trkpt>
      <trkpt lat="41.058567" lon="-3.745917">
        <ele>2535.0</ele>
        <time>2018-07-22T13:18:19Z</time>
      </trkpt>
      <trkpt lat="41.058483" lon="-3.745967">
        <ele>2537.0</ele>
        <time>2018-07-22T13:18:20Z</time>
      </trkpt>
      <trkpt lat="41.058433" lon="-3.746033">
        <ele>2539.0</ele>
        <time>2018-07-22T13:18:21Z</time>
      </trkpt>
      <trkpt lat="41.058417" lon="-3.746117">
        <ele>2541.0</ele>
        <time>2018-07-22T13:18:22Z</time>
      </trkpt>
      <trkpt lat="41.058433" lon="-3.746183">
        <ele>2541.0</ele>
        <time>2018-07-22T13:18:23Z</time>
      </trkpt>
      <trkpt lat="41.058467" lon="-3.746250">
        <ele>2543.0</ele>
        <time>2018-07-22T13:18:24Z</time>
      </trkpt>
      <trkpt lat="41.058517" lon="-3.746300">
        <ele>2544.0</ele>
        <time>2018-07-22T13:18:25Z</time>
      </trkpt>
      <trkpt lat="41.058583" lon="-3.746333">
        <ele>2547.0</ele>
        <time>2018-07-22T13:18:26Z</time>
      </trkpt>
      <trkpt lat="41.058650" lon="-3.746317">
        <ele>2551.0</ele>
        <time>2018-07-22T13:18:27Z</time>
      </trkpt>
      <trkpt lat="41.058700" lon="-3.746300">
        <ele>2554.0</ele>
        <time>2018-07-22T13:18:28Z</time>
      </trkpt>
      <trkpt lat="41.058783" lon="-3.746250">
        <ele>2555.0</ele>
        <time>2018-07-22T13:18:29Z</time>
      </trkpt>
      <trkpt lat="41.058867" lon="-3.746167">
        <ele>2556.0</ele>
        <time>2018-07-22T13:18:30Z</time>
      </trkpt>
      <trkpt lat="41.058933" lon="-3.746050">
        <ele>2558.0</ele>
        <time>2018-07-22T13:18:31Z</time>
      </trkpt>
      <trkpt lat="41.059000" lon="-3.745900">
        <ele>2560.0</ele>
        <time>2018-07-22T13:18:32Z</time>
      </trkpt>
      <trkpt lat="41.059033" lon="-3.745733">
        <ele>2563.0</ele>
        <time>2018-07-22T13:18:33Z</time>
      </trkpt>
      <trkpt lat="41.059033" lon="-3.745550">
        <ele>2566.0</ele>
        <time>2018-07-22T13:18:34Z</time>
      </trkpt>
      <trkpt lat="41.059000" lon="-3.745367">
        <ele>2568.0</ele>
        <time>2018-07-22T13:18:35Z</time>
      </trkpt>
      <trkpt lat="41.058933" lon="-3.745183">
        <ele>2570.0</ele>
        <time>2018-07-22T13:18:36Z</time>
      </trkpt>
      <trkpt lat="41.058850" lon="-3.745017">
        <ele>2571.0</ele>
        <time>2018-07-22T13:18:37Z</time>
      </trkpt>
      <trkpt lat="41.058750" lon="-3.744883">
        <ele>2572.0</ele>
        <time>2018-07-22T13:18:38Z</time>
      </trkpt>
      <trkpt lat="41.058617" lon="-3.744817">
        <ele>2573.0</ele>
        <time>2018-07-22T13:18:39Z</time>
      </trkpt>
      <trkpt lat="41.058500" lon="-3.744767">
        <ele>2573.0</ele>
        <time>2018-07-22T13:18:40Z</time>
      </trkpt>
      <trkpt lat="41.058367" lon="-3.744767">
        <ele>2573.0</ele>
        <time>2018-07-22T13:18:41Z</time>
      </trkpt>
      <trkpt lat="41.058250" lon="-3.744783">
        <ele>2574.0</ele>
        <time>2018-07-22T13:18:42Z</time>
      </trkpt>
      <trkpt lat="41.058150" lon="-3.744833">
        <ele>2574.0</ele>
        <time>2018-07-22T13:18:43Z</time>
      </trkpt>
      <trkpt lat="41.058083" lon="-3.744900">
        <ele>2575.0</ele>
        <time>2018-07-22T13:18:44Z</time>
      </trkpt>
      <trkpt lat="41.058033" lon="-3.744983">
        <ele>2574.0</ele>
        <time>2018-07-22T13:18:45Z</time>
      </trkpt>
      <trkpt lat="41.058000" lon="-3.745100">
        <ele>2575.0</ele>
        <time>2018-07-22T13:18:46Z</time>
      </trkpt>
      <trkpt lat="41.057983" lon="-3.745217">
        <ele>2578.0</ele>
        <time>2018-07-22T13:18:47Z</time>
      </trkpt>
      <trkpt lat="41.057983" lon="-3.745300">
        <ele>2582.0</ele>
        <time>2018-07-22T13:18:48Z</time>
      </trkpt>
      <trkpt lat="41.058000" lon="-3.745367">
        <ele>2585.0</ele>
        <time>2018-07-22T13:18:49Z</time>
      </trkpt>
      <trkpt lat="41.058017" lon="-3.745400">
        <ele>2588.0</ele>
        <time>2018-07-22T13:18:50Z</time>
      </trkpt>
      <trkpt lat="41.058050" lon="-3.745417">
        <ele>2589.0</ele>
        <time>2018-07-22T13:18:51Z</time>
      </trkpt>
      <trkpt lat="41.058083" lon="-3.745433">
        <ele>2589.0</ele>
        <time>2018-07-22T13:18:52Z</time>
      </trkpt>
      <trkpt lat="41.058150" lon="-3.745450">
        <ele>2587.0</ele>
        <time>2018-07-22T13:18:53Z</time>
      </trkpt>
      <trkpt lat="41.058200" lon="-3.745483">
        <ele>2587.0</ele>
        <time>2018-07-22T13:18:54Z</time>
      </trkpt>
      <trkpt lat="41.058283" lon="-3.745517">
        <ele>2587.0</ele>
        <time>2018-07-22T13:18:55Z</time>
      </trkpt>
      <trkpt lat="41.058350" lon="-3.745583">
        <ele>2588.0</ele>
        <time>2018-07-22T13:18:56Z</time>
      </trkpt>
      <trkpt lat="41.058433" lon="-3.745650">
        <ele>2589.0</ele>
        <time>2018-07-22T13:18:57Z</time>
      </trkpt>
      <trkpt lat="41.058500" lon="-3.745700">
        <ele>2590.0</ele>
        <time>2018-07-22T13:18:58Z</time>
      </trkpt>
      <trkpt lat="41.058583" lon="-3.745767">
        <ele>2592.0</ele>
        <time>2018-07-22T13:18:59Z</time>
      </trkpt>
      <trkpt lat="41.058667" lon="-3.745800">
        <ele>2595.0</ele>
        <time>2018-07-22T13:19:00Z</time>
      </trkpt>
      <trkpt lat="41.058733" lon="-3.745850">
        <ele>2598.0</ele>
        <time>2018-07-22T13:19:01Z</time>
      </trkpt>
      <trkpt lat="41.058800" lon="-3.745883">
        <ele>2601.0</ele>
        <time>2018-07-22T13:19:02Z</time>
      </trkpt>
      <trkpt lat="41.058867" lon="-3.745917">
        <ele>2604.0</ele>
        <time>2018-07-22T13:19:03Z</time>
      </trkpt>
      <trkpt lat="41.058917" lon="-3.745967">
        <ele>2606.0</ele>
        <time>2018-07-22T13:19:04Z</time>
      </trkpt>
      <trkpt lat="41.058983" lon="-3.746000">
        <ele>2609.0</ele>
        <time>2018-07-22T13:19:05Z</time>
      </trkpt>
      <trkpt lat="41.059050" lon="-3.746033">
        <ele>2611.0</ele>
        <time>2018-07-22T13:19:06Z</time>
      </trkpt>
      <trkpt lat="41.059117" lon="-3.746067">
        <ele>2613.0</ele>
        <time>2018-07-22T13:19:07Z</time>
      </trkpt>
      <trkpt lat="41.059183" lon="-3.746100">
        <ele>2614.0</ele>
        <time>2018-07-22T13:19:08Z</time>
      </trkpt>
      <trkpt lat="41.059283" lon="-3.746133">
        <ele>2617.0</ele>
        <time>2018-07-22T13:19:09Z</time>
      </trkpt>
      <trkpt lat="41.059367" lon="-3.746167">
        <ele>2621.0</ele>
        <time>2018-07-22T13:19:10Z</time>
      </trkpt>
      <trkpt lat="41.059467" lon="-3.746150">
        <ele>2627.0</ele>
        <time>2018-07-22T13:19:11Z</time>
      </trkpt>
      <trkpt lat="41.059567" lon="-3.746100">
        <ele>2631.0</ele>
        <time>2018-07-22T13:19:12Z</time>
      </trkpt>
      <trkpt lat="41.059650" lon="-3.746017">
        <ele>2633.0</ele>
        <time>2018-07-22T13:19:13Z</time>
      </trkpt>
      <trkpt lat="41.059733" lon="-3.745867">
        <ele>2635.0</ele>
        <time>2018-07-22T13:19:14Z</time>
      </trkpt>
      <trkpt lat="41.059800" lon="-3.745683">
        <ele>2637.0</ele>
        <time>2018-07-22T13:19:15Z</time>
      </trkpt>
      <trkpt lat="41.059817" lon="-3.745467">
        <ele>2640.0</ele>
        <time>2018-07-22T13:19:16Z</time>
      </trkpt>
      <trkpt lat="41.059783" lon="-3.745233">
        <ele>2644.0</ele>
        <time>2018-07-22T13:19:17Z</time>
      </trkpt>
      <trkpt lat="41.059733" lon="-3.745050">
        <ele>2647.0</ele>
        <time>2018-07-22T13:19:18Z</time>
      </trkpt>
      <trkpt lat="41.059650" lon="-3.744883">
        <ele>2651.0</ele>
        <time>2018-07-22T13:19:19Z</time>
      </trkpt>
      <trkpt lat="41.059550" lon="-3.744767">
        <ele>2653.0</ele>
        <time>2018-07-22T13:19:20Z</time>
      </trkpt>
      <trkpt lat="41.059433" lon="-3.744700">
        <ele>2655.0</ele>
        <time>2018-07-22T13:19:21Z</time>
      </trkpt>
      <trkpt lat="41.059333" lon="-3.744700">
        <ele>2658.0</ele>
        <time>2018-07-22T13:19:22Z</time>
      </trkpt>
      <trkpt lat="41.059267" lon="-3.744750">
        <ele>2662.0</ele>
        <time>2018-07-22T13:19:23Z</time>
      </trkpt>
      <trkpt lat="41.059250" lon="-3.744833">
        <ele>2665.0</ele>
        <time>2018-07-22T13:19:24Z</time>
      </trkpt>
      <trkpt lat="41.059267" lon="-3.744933">
        <ele>2667.0</ele>
        <time>2018-07-22T13:19:25Z</time>
      </trkpt>
      <trkpt lat="41.059300" lon="-3.745033">
        <ele>2669.0</ele>
        <time>2018-07-22T13:19:26Z</time>
      </trkpt>
      <trkpt lat="41.059367" lon="-3.745117">
        <ele>2672.0</ele>
        <time>2018-07-22T13:19:27Z</time>
      </trkpt>
      <trkpt lat="41.059417" lon="-3.745183">
        <ele>2675.0</ele>
        <time>2018-07-22T13:19:28Z</time>
      </trkpt>
      <trkpt lat="41.059467" lon="-3.745267">
        <ele>2678.0</ele>
        <time>2018-07-22T13:19:29Z</time>
      </trkpt>
      <trkpt lat="41.059517" lon="-3.745350">
        <ele>2682.0</ele>
        <time>2018-07-22T13:19:30Z</time>
      </trkpt>
      <trkpt lat="41.059583" lon="-3.745450">
        <ele>2686.0</ele>
        <time>2018-07-22T13:19:31Z</time>
      </trkpt>
      <trkpt lat="41.059633" lon="-3.745517">
        <ele>2690.0</ele>
        <time>2018-07-22T13:19:32Z</time>
      </trkpt>
      <trkpt lat="41.059700" lon="-3.745550">
        <ele>2694.0</ele>
        <time>2018-07-22T13:19:33Z</time>
      </trkpt>
      <trkpt lat="41.059783" lon="-3.745583">
        <ele>2698.0</ele>
        <time>2018-07-22T13:19:34Z</time>
      </trkpt>
      <trkpt lat="41.059867" lon="-3.745617">
        <ele>2701.0</ele>
        <time>2018-07-22T13:19:35Z</time>
      </trkpt>
      <trkpt lat="41.059933" lon="-3.745667">
        <ele>2705.0</ele>
        <time>2018-07-22T13:19:36Z</time>
      </trkpt>
      <trkpt lat="41.059967" lon="-3.745750">
        <ele>2709.0</ele>
        <time>2018-07-22T13:19:37Z</time>
      </trkpt>
      <trkpt lat="41.059983" lon="-3.745817">
        <ele>2713.0</ele>
        <time>2018-07-22T13:19:38Z</time>
      </trkpt>
      <trkpt lat="41.060017" lon="-3.745883">
        <ele>2716.0</ele>
        <time>2018-07-22T13:19:39Z</time>
      </trkpt>
      <trkpt lat="41.060050" lon="-3.745933">
        <ele>2717.0</ele>
        <time>2018-07-22T13:19:40Z</time>
      </trkpt>
      <trkpt lat="41.060100" lon="-3.746000">
        <ele>2718.0</ele>
        <time>2018-07-22T13:19:41Z</time>
      </trkpt>
      <trkpt lat="41.060133" lon="-3.746067">
        <ele>2719.0</ele>
        <time>2018-07-22T13:19:42Z</time>
      </trkpt>
      <trkpt lat="41.060183" lon="-3.746150">
        <ele>2719.0</ele>
        <time>2018-07-22T13:19:43Z</time>
      </trkpt>
      <trkpt lat="41.060217" lon="-3.746233">
        <ele>2720.0</ele>
        <time>2018-07-22T13:19:44Z</time>
      </trkpt>
      <trkpt lat="41.060267" lon="-3.746300">
        <ele>2720.0</ele>
        <time>2018-07-22T13:19:45Z</time>
      </trkpt>
      <trkpt lat="41.060317" lon="-3.746367">
        <ele>2720.0</ele>
        <time>2018-07-22T13:19:46Z</time>
      </trkpt>
      <trkpt lat="41.060383" lon="-3.746400">
        <ele>2721.0</ele>
        <time>2018-07-22T13:19:47Z</time>
      </trkpt>
      <trkpt lat="41.060450" lon="-3.746417">
        <ele>2722.0</ele>
        <time>2018-07-22T13:19:48Z</time>
      </trkpt>
      <trkpt lat="41.060500" lon="-3.746433">
        <ele>2722.0</ele>
        <time>2018-07-22T13:19:49Z</time>
      </trkpt>
      <trkpt lat="41.060550" lon="-3.746450">
        <ele>2721.0</ele>
        <time>2018-07-22T13:19:50Z</time>
      </trkpt>
      <trkpt lat="41.060600" lon="-3.746467">
        <ele>2718.0</ele>
        <time>2018-07-22T13:19:51Z</time>
      </trkpt>
      <trkpt lat="41.060667" lon="-3.746483">
        <ele>2715.0</ele>
        <time>2018-07-22T13:19:52Z</time>
      </trkpt>
      <trkpt lat="41.060733" lon="-3.746517">
        <ele>2711.0</ele>
        <time>2018-07-22T13:19:53Z</time>
      </trkpt>
      <trkpt lat="41.060817" lon="-3.746550">
        <ele>2708.0</ele>
        <time>2018-07-22T13:19:54Z</time>
      </trkpt>
      <trkpt lat="41.060900" lon="-3.746600">
        <ele>2706.0</ele>
        <time>2018-07-22T13:19:55Z</time>
      </trkpt>
      <trkpt lat="41.060983" lon="-3.746633">
        <ele>2705.0</ele>
        <time>2018-07-22T13:19:56Z</time>
      </trkpt>
      <trkpt lat="41.061067" lon="-3.746683">
        <ele>2704.0</ele>
        <time>2018-07-22T13:19:57Z</time>
      </trkpt>
      <trkpt lat="41.061150" lon="-3.746717">
        <ele>2704.0</ele>
        <time>2018-07-22T13:19:58Z</time>
      </trkpt>
      <trkpt lat="41.061217" lon="-3.746750">
        <ele>2703.0</ele>
        <time>2018-07-22T13:19:59Z</time>
      </trkpt>
      <trkpt lat="41.061300" lon="-3.746783">
        <ele>2702.0</ele>
        <time>2018-07-22T13:20:00Z</time>
      </trkpt>
      <trkpt lat="41.061383" lon="-3.746817">
        <ele>2702.0</ele>
        <time>2018-07-22T13:20:01Z</time>
      </trkpt>
      <trkpt lat="41.061467" lon="-3.746850">
        <ele>2702.0</ele>
        <time>2018-07-22T13:20:02Z</time>
      </trkpt>
      <trkpt lat="41.061550" lon="-3.746867">
        <ele>2703.0</ele>
        <time>2018-07-22T13:20:03Z</time>
      </trkpt>
      <trkpt lat="41.061633" lon="-3.746883">
        <ele>2703.0</ele>
        <time>2018-07-22T13:20:04Z</time>
      </trkpt>
      <trkpt lat="41.061700" lon="-3.746917">
        <ele>2705.0</ele>
        <time>2018-07-22T13:20:05Z</time>
      </trkpt>
      <trkpt lat="41.061783" lon="-3.746950">
        <ele>2706.0</ele>
        <time>2018-07-22T13:20:06Z</time>
      </trkpt>
      <trkpt lat="41.061867" lon="-3.746983">
        <ele>2708.0</ele>
        <time>2018-07-22T13:20:07Z</time>
      </trkpt>
      <trkpt lat="41.061933" lon="-3.747017">
        <ele>2709.0</ele>
        <time>2018-07-22T13:20:08Z</time>
      </trkpt>
      <trkpt lat="41.061983" lon="-3.747050">
        <ele>2711.0</ele>
        <time>2018-07-22T13:20:09Z</time>
      </trkpt>
      <trkpt lat="41.062050" lon="-3.747083">
        <ele>2711.0</ele>
        <time>2018-07-22T13:20:10Z</time>
      </trkpt>
      <trkpt lat="41.062117" lon="-3.747133">
        <ele>2712.0</ele>
        <time>2018-07-22T13:20:11Z</time>
      </trkpt>
      <trkpt lat="41.062200" lon="-3.747167">
        <ele>2712.0</ele>
        <time>2018-07-22T13:20:12Z</time>
      </trkpt>
      <trkpt lat="41.062283" lon="-3.747217">
        <ele>2712.0</ele>
        <time>2018-07-22T13:20:13Z</time>
      </trkpt>
      <trkpt lat="41.062350" lon="-3.747267">
        <ele>2713.0</ele>
        <time>2018-07-22T13:20:14Z</time>
      </trkpt>
      <trkpt lat="41.062417" lon="-3.747300">
        <ele>2713.0</ele>
        <time>2018-07-22T13:20:15Z</time>
      </trkpt>
      <trkpt lat="41.062500" lon="-3.747333">
        <ele>2714.0</ele>
        <time>2018-07-22T13:20:16Z</time>
      </trkpt>
      <trkpt lat="41.062567" lon="-3.747383">
        <ele>2714.0</ele>
        <time>2018-07-22T13:20:17Z</time>
      </trkpt>
      <trkpt lat="41.062633" lon="-3.747433">
        <ele>2714.0</ele>
        <time>2018-07-22T13:20:18Z</time>
      </trkpt>
      <trkpt lat="41.062717" lon="-3.747483">
        <ele>2715.0</ele>
        <time>2018-07-22T13:20:19Z</time>
      </trkpt>
      <trkpt lat="41.062783" lon="-3.747550">
        <ele>2717.0</ele>
        <time>2018-07-22T13:20:20Z</time>
      </trkpt>
      <trkpt lat="41.062850" lon="-3.747600">
        <ele>2719.0</ele>
        <time>2018-07-22T13:20:21Z</time>
      </trkpt>
      <trkpt lat="41.062917" lon="-3.747633">
        <ele>2720.0</ele>
        <time>2018-07-22T13:20:22Z</time>
      </trkpt>
      <trkpt lat="41.062983" lon="-3.747683">
        <ele>2721.0</ele>
        <time>2018-07-22T13:20:23Z</time>
      </trkpt>
      <trkpt lat="41.063067" lon="-3.747733">
        <ele>2721.0</ele>
        <time>2018-07-22T13:20:24Z</time>
      </trkpt>
      <trkpt lat="41.063133" lon="-3.747800">
        <ele>2721.0</ele>
        <time>2018-07-22T13:20:25Z</time>
      </trkpt>
      <trkpt lat="41.063200" lon="-3.747850">
        <ele>2722.0</ele>
        <time>2018-07-22T13:20:26Z</time>
      </trkpt>
      <trkpt lat="41.063267" lon="-3.747917">
        <ele>2723.0</ele>
        <time>2018-07-22T13:20:27Z</time>
      </trkpt>
      <trkpt lat="41.063333" lon="-3.747967">
        <ele>2725.0</ele>
        <time>2018-07-22T13:20:28Z</time>
      </trkpt>
      <trkpt lat="41.063383" lon="-3.748033">
        <ele>2726.0</ele>
        <time>2018-07-22T13:20:29Z</time>
      </trkpt>
      <trkpt lat="41.063417" lon="-3.748083">
        <ele>2726.0</ele>
        <time>2018-07-22T13:20:30Z</time>
      </trkpt>
      <trkpt lat="41.063450" lon="-3.748150">
        <ele>2727.0</ele>
        <time>2018-07-22T13:20:31Z</time>
      </trkpt>
      <trkpt lat="41.063500" lon="-3.748217">
        <ele>2726.0</ele>
        <time>2018-07-22T13:20:32Z</time>
      </trkpt>
      <trkpt lat="41.063550" lon="-3.748267">
        <ele>2726.0</ele>
        <time>2018-07-22T13:20:33Z</time>
      </trkpt>
      <trkpt lat="41.063633" lon="-3.748317">
        <ele>2726.0</ele>
        <time>2018-07-22T13:20:34Z</time>
      </trkpt>
      <trkpt lat="41.063717" lon="-3.748383">
        <ele>2727.0</ele>
        <time>2018-07-22T13:20:35Z</time>
      </trkpt>
      <trkpt lat="41.063800" lon="-3.748433">
        <ele>2728.0</ele>
        <time>2018-07-22T13:20:36Z</time>
      </trkpt>
      <trkpt lat="41.063883" lon="-3.748483">
        <ele>2730.0</ele>
        <time>2018-07-22T13:20:37Z</time>
      </trkpt>
      <trkpt lat="41.063950" lon="-3.748533">
        <ele>2731.0</ele>
        <time>2018-07-22T13:20:38Z</time>
      </trkpt>
      <trkpt lat="41.064017" lon="-3.748567">
        <ele>2731.0</ele>
        <time>2018-07-22T13:20:39Z</time>
      </trkpt>
      <trkpt lat="41.064067" lon="-3.748600">
        <ele>2729.0</ele>
        <time>2018-07-22T13:20:40Z</time>
      </trkpt>
      <trkpt lat="41.064117" lon="-3.748650">
        <ele>2726.0</ele>
        <time>2018-07-22T13:20:41Z</time>
      </trkpt>
      <trkpt lat="41.064183" lon="-3.748733">
        <ele>2722.0</ele>
        <time>2018-07-22T13:20:42Z</time>
      </trkpt>
      <trkpt lat="41.064233" lon="-3.748817">
        <ele>2718.0</ele>
        <time>2018-07-22T13:20:43Z</time>
      </trkpt>
      <trkpt lat="41.064300" lon="-3.748900">
        <ele>2715.0</ele>
        <time>2018-07-22T13:20:44Z</time>
      </trkpt>
      <trkpt lat="41.064367" lon="-3.749000">
        <ele>2712.0</ele>
        <time>2018-07-22T13:20:45Z</time>
      </trkpt>
      <trkpt lat="41.064417" lon="-3.749100">
        <ele>2710.0</ele>
        <time>2018-07-22T13:20:46Z</time>
      </trkpt>
      <trkpt lat="41.064483" lon="-3.749183">
        <ele>2708.0</ele>
        <time>2018-07-22T13:20:47Z</time>
      </trkpt>
      <trkpt lat="41.064550" lon="-3.749267">
        <ele>2706.0</ele>
        <time>2018-07-22T13:20:48Z</time>
      </trkpt>
      <trkpt lat="41.064633" lon="-3.749350">
        <ele>2704.0</ele>
        <time>2018-07-22T13:20:49Z</time>
      </trkpt>
      <trkpt lat="41.064717" lon="-3.749417">
        <ele>2703.0</ele>
        <time>2018-07-22T13:20:50Z</time>
      </trkpt>
      <trkpt lat="41.064783" lon="-3.749483">
        <ele>2702.0</ele>
        <time>2018-07-22T13:20:51Z</time>
      </trkpt>
      <trkpt lat="41.064867" lon="-3.749550">
        <ele>2702.0</ele>
        <time>2018-07-22T13:20:52Z</time>
      </trkpt>
      <trkpt lat="41.064933" lon="-3.749600">
        <ele>2701.0</ele>
        <time>2018-07-22T13:20:53Z</time>
      </trkpt>
      <trkpt lat="41.065017" lon="-3.749650">
        <ele>2700.0</ele>
        <time>2018-07-22T13:20:54Z</time>
      </trkpt>
      <trkpt lat="41.065100" lon="-3.749700">
        <ele>2699.0</ele>
        <time>2018-07-22T13:20:55Z</time>
      </trkpt>
      <trkpt lat="41.065200" lon="-3.749767">
        <ele>2699.0</ele>
        <time>2018-07-22T13:20:56Z</time>
      </trkpt>
      <trkpt lat="41.065267" lon="-3.749817">
        <ele>2700.0</ele>
        <time>2018-07-22T13:20:57Z</time>
      </trkpt>
      <trkpt lat="41.065350" lon="-3.749850">
        <ele>2702.0</ele>
        <time>2018-07-22T13:20:58Z</time>
      </trkpt>
      <trkpt lat="41.065433" lon="-3.749900">
        <ele>2703.0</ele>
        <time>2018-07-22T13:20:59Z</time>
      </trkpt>
      <trkpt lat="41.065533" lon="-3.749933">
        <ele>2705.0</ele>
        <time>2018-07-22T13:21:00Z</time>
      </trkpt>
      <trkpt lat="41.065617" lon="-3.749983">
        <ele>2707.0</ele>
        <time>2018-07-22T13:21:01Z</time>
      </trkpt>
      <trkpt lat="41.065700" lon="-3.750033">
        <ele>2709.0</ele>
        <time>2018-07-22T13:21:02Z</time>
      </trkpt>
      <trkpt lat="41.065767" lon="-3.750100">
        <ele>2711.0</ele>
        <time>2018-07-22T13:21:03Z</time>
      </trkpt>
      <trkpt lat="41.065833" lon="-3.750150">
        <ele>2713.0</ele>
        <time>2018-07-22T13:21:04Z</time>
      </trkpt>
      <trkpt lat="41.065933" lon="-3.750217">
        <ele>2714.0</ele>
        <time>2018-07-22T13:21:05Z</time>
      </trkpt>
      <trkpt lat="41.066017" lon="-3.750250">
        <ele>2716.0</ele>
        <time>2018-07-22T13:21:06Z</time>
      </trkpt>
      <trkpt lat="41.066117" lon="-3.750267">
        <ele>2718.0</ele>
        <time>2018-07-22T13:21:07Z</time>
      </trkpt>
      <trkpt lat="41.066217" lon="-3.750283">
        <ele>2719.0</ele>
        <time>2018-07-22T13:21:08Z</time>
      </trkpt>
      <trkpt lat="41.066300" lon="-3.750317">
        <ele>2720.0</ele>
        <time>2018-07-22T13:21:09Z</time>
      </trkpt>
      <trkpt lat="41.066383" lon="-3.750350">
        <ele>2721.0</ele>
        <time>2018-07-22T13:21:10Z</time>
      </trkpt>
      <trkpt lat="41.066483" lon="-3.750383">
        <ele>2720.0</ele>
        <time>2018-07-22T13:21:11Z</time>
      </trkpt>
      <trkpt lat="41.066567" lon="-3.750417">
        <ele>2721.0</ele>
        <time>2018-07-22T13:21:12Z</time>
      </trkpt>
      <trkpt lat="41.066650" lon="-3.750450">
        <ele>2721.0</ele>
        <time>2018-07-22T13:21:13Z</time>
      </trkpt>
      <trkpt lat="41.066733" lon="-3.750483">
        <ele>2722.0</ele>
        <time>2018-07-22T13:21:14Z</time>
      </trkpt>
      <trkpt lat="41.066800" lon="-3.750517">
        <ele>2722.0</ele>
        <time>2018-07-22T13:21:15Z</time>
      </trkpt>
      <trkpt lat="41.066867" lon="-3.750550">
        <ele>2722.0</ele>
        <time>2018-07-22T13:21:16Z</time>
      </trkpt>
      <trkpt lat="41.066933" lon="-3.750583">
        <ele>2721.0</ele>
        <time>2018-07-22T13:21:17Z</time>
      </trkpt>
      <trkpt lat="41.067000" lon="-3.750617">
        <ele>2720.0</ele>
        <time>2018-07-22T13:21:18Z</time>
      </trkpt>
      <trkpt lat="41.067067" lon="-3.750667">
        <ele>2718.0</ele>
        <time>2018-07-22T13:21:19Z</time>
      </trkpt>
      <trkpt lat="41.067167" lon="-3.750717">
        <ele>2717.0</ele>
        <time>2018-07-22T13:21:20Z</time>
      </trkpt>
      <trkpt lat="41.067267" lon="-3.750750">
        <ele>2716.0</ele>
        <time>2018-07-22T13:21:21Z</time>
      </trkpt>
      <trkpt lat="41.067350" lon="-3.750800">
        <ele>2717.0</ele>
        <time>2018-07-22T13:21:22Z</time>
      </trkpt>
      <trkpt lat="41.067433" lon="-3.750867">
        <ele>2717.0</ele>
        <time>2018-07-22T13:21:23Z</time>
      </trkpt>
      <trkpt lat="41.067500" lon="-3.750917">
        <ele>2717.0</ele>
        <time>2018-07-22T13:21:24Z</time>
      </trkpt>
      <trkpt lat="41.067550" lon="-3.750983">
        <ele>2716.0</ele>
        <time>2018-07-22T13:21:25Z</time>
      </trkpt>
      <trkpt lat="41.067633" lon="-3.751050">
        <ele>2715.0</ele>
        <time>2018-07-22T13:21:26Z</time>
      </trkpt>
      <trkpt lat="41.067700" lon="-3.751100">
        <ele>2714.0</ele>
        <time>2018-07-22T13:21:27Z</time>
      </trkpt>
      <trkpt lat="41.067783" lon="-3.751167">
        <ele>2712.0</ele>
        <time>2018-07-22T13:21:28Z</time>
      </trkpt>
      <trkpt lat="41.067850" lon="-3.751233">
        <ele>2711.0</ele>
        <time>2018-07-22T13:21:29Z</time>
      </trkpt>
      <trkpt lat="41.067917" lon="-3.751317">
        <ele>2709.0</ele>
        <time>2018-07-22T13:21:30Z</time>
      </trkpt>
      <trkpt lat="41.068000" lon="-3.751400">
        <ele>2708.0</ele>
        <time>2018-07-22T13:21:31Z</time>
      </trkpt>
      <trkpt lat="41.068067" lon="-3.751500">
        <ele>2707.0</ele>
        <time>2018-07-22T13:21:32Z</time>
      </trkpt>
      <trkpt lat="41.068150" lon="-3.751583">
        <ele>2707.0</ele>
        <time>2018-07-22T13:21:33Z</time>
      </trkpt>
      <trkpt lat="41.068233" lon="-3.751667">
        <ele>2707.0</ele>
        <time>2018-07-22T13:21:34Z</time>
      </trkpt>
      <trkpt lat="41.068300" lon="-3.751750">
        <ele>2708.0</ele>
        <time>2018-07-22T13:21:35Z</time>
      </trkpt>
      <trkpt lat="41.068367" lon="-3.751817">
        <ele>2708.0</ele>
        <time>2018-07-22T13:21:36Z</time>
      </trkpt>
      <trkpt lat="41.068450" lon="-3.751867">
        <ele>2708.0</ele>
        <time>2018-07-22T13:21:37Z</time>
      </trkpt>
      <trkpt lat="41.068533" lon="-3.751917">
        <ele>2708.0</ele>
        <time>2018-07-22T13:21:38Z</time>
      </trkpt>
      <trkpt lat="41.068633" lon="-3.751967">
        <ele>2708.0</ele>
        <time>2018-07-22T13:21:39Z</time>
      </trkpt>
      <trkpt lat="41.068717" lon="-3.752033">
        <ele>2707.0</ele>
        <time>2018-07-22T13:21:40Z</time>
      </trkpt>
      <trkpt lat="41.068800" lon="-3.752083">
        <ele>2707.0</ele>
        <time>2018-07-22T13:21:41Z</time>
      </trkpt>
      <trkpt lat="41.068883" lon="-3.752133">
        <ele>2707.0</ele>
        <time>2018-07-22T13:21:42Z</time>
      </trkpt>
      <trkpt lat="41.068967" lon="-3.752183">
        <ele>2707.0</ele>
        <time>2018-07-22T13:21:43Z</time>
      </trkpt>
      <trkpt lat="41.069050" lon="-3.752233">
        <ele>2706.0</ele>
        <time>2018-07-22T13:21:44Z</time>
      </trkpt>
      <trkpt lat="41.069117" lon="-3.752283">
        <ele>2705.0</ele>
        <time>2018-07-22T13:21:45Z</time>
      </trkpt>
      <trkpt lat="41.069217" lon="-3.752333">
        <ele>2704.0</ele>
        <time>2018-07-22T13:21:46Z</time>
      </trkpt>
      <trkpt lat="41.069300" lon="-3.752383">
        <ele>2702.0</ele>
        <time>2018-07-22T13:21:47Z</time>
      </trkpt>
      <trkpt lat="41.069383" lon="-3.752467">
        <ele>2701.0</ele>
        <time>2018-07-22T13:21:48Z</time>
      </trkpt>
      <trkpt lat="41.069483" lon="-3.752533">
        <ele>2702.0</ele>
        <time>2018-07-22T13:21:49Z</time>
      </trkpt>
      <trkpt lat="41.069567" lon="-3.752567">
        <ele>2704.0</ele>
        <time>2018-07-22T13:21:50Z</time>
      </trkpt>
      <trkpt lat="41.069633" lon="-3.752600">
        <ele>2707.0</ele>
        <time>2018-07-22T13:21:51Z</time>
      </trkpt>
      <trkpt lat="41.069700" lon="-3.752617">
        <ele>2708.0</ele>
        <time>2018-07-22T13:21:52Z</time>
      </trkpt>
      <trkpt lat="41.069750" lon="-3.752633">
        <ele>2708.0</ele>
        <time>2018-07-22T13:21:53Z</time>
      </trkpt>
      <trkpt lat="41.069783" lon="-3.752667">
        <ele>2707.0</ele>
        <time>2018-07-22T13:21:54Z</time>
      </trkpt>
      <trkpt lat="41.069850" lon="-3.752683">
        <ele>2706.0</ele>
        <time>2018-07-22T13:21:55Z</time>
      </trkpt>
      <trkpt lat="41.069900" lon="-3.752717">
        <ele>2706.0</ele>
        <time>2018-07-22T13:21:56Z</time>
      </trkpt>
      <trkpt lat="41.069983" lon="-3.752733">
        <ele>2705.0</ele>
        <time>2018-07-22T13:21:57Z</time>
      </trkpt>
      <trkpt lat="41.070033" lon="-3.752783">
        <ele>2703.0</ele>
        <time>2018-07-22T13:21:58Z</time>
      </trkpt>
      <trkpt lat="41.070100" lon="-3.752833">
        <ele>2702.0</ele>
        <time>2018-07-22T13:21:59Z</time>
      </trkpt>
      <trkpt lat="41.070150" lon="-3.752900">
        <ele>2701.0</ele>
        <time>2018-07-22T13:22:00Z</time>
      </trkpt>
      <trkpt lat="41.070217" lon="-3.752967">
        <ele>2702.0</ele>
        <time>2018-07-22T13:22:01Z</time>
      </trkpt>
      <trkpt lat="41.070283" lon="-3.753017">
        <ele>2704.0</ele>
        <time>2018-07-22T13:22:02Z</time>
      </trkpt>
      <trkpt lat="41.070350" lon="-3.753067">
        <ele>2707.0</ele>
        <time>2018-07-22T13:22:03Z</time>
      </trkpt>
      <trkpt lat="41.070417" lon="-3.753100">
        <ele>2709.0</ele>
        <time>2018-07-22T13:22:04Z</time>
      </trkpt>
      <trkpt lat="41.070483" lon="-3.753117">
        <ele>2710.0</ele>
        <time>2018-07-22T13:22:05Z</time>
      </trkpt>
      <trkpt lat="41.070550" lon="-3.753150">
        <ele>2711.0</ele>
        <time>2018-07-22T13:22:06Z</time>
      </trkpt>
      <trkpt lat="41.070617" lon="-3.753167">
        <ele>2709.0</ele>
        <time>2018-07-22T13:22:07Z</time>
      </trkpt>
      <trkpt lat="41.070700" lon="-3.753200">
        <ele>2708.0</ele>
        <time>2018-07-22T13:22:08Z</time>
      </trkpt>
      <trkpt lat="41.070783" lon="-3.753233">
        <ele>2707.0</ele>
        <time>2018-07-22T13:22:09Z</time>
      </trkpt>
      <trkpt lat="41.070883" lon="-3.753283">
        <ele>2706.0</ele>
        <time>2018-07-22T13:22:10Z</time>
      </trkpt>
      <trkpt lat="41.070967" lon="-3.753333">
        <ele>2708.0</ele>
        <time>2018-07-22T13:22:11Z</time>
      </trkpt>
      <trkpt lat="41.071050" lon="-3.753383">
        <ele>2709.0</ele>
        <time>2018-07-22T13:22:12Z</time>
      </trkpt>
      <trkpt lat="41.071133" lon="-3.753417">
        <ele>2711.0</ele>
        <time>2018-07-22T13:22:13Z</time>
      </trkpt>
      <trkpt lat="41.071200" lon="-3.753467">
        <ele>2712.0</ele>
        <time>2018-07-22T13:22:14Z</time>
      </trkpt>
      <trkpt lat="41.071267" lon="-3.753483">
        <ele>2712.0</ele>
        <time>2018-07-22T13:22:15Z</time>
      </trkpt>
      <trkpt lat="41.071317" lon="-3.753517">
        <ele>2712.0</ele>
        <time>2018-07-22T13:22:16Z</time>
      </trkpt>
      <trkpt lat="41.071383" lon="-3.753567">
        <ele>2711.0</ele>
        <time>2018-07-22T13:22:17Z</time>
      </trkpt>
      <trkpt lat="41.071450" lon="-3.753617">
        <ele>2710.0</ele>
        <time>2018-07-22T13:22:18Z</time>
      </trkpt>
      <trkpt lat="41.071500" lon="-3.753683">
        <ele>2709.0</ele>
        <time>2018-07-22T13:22:19Z</time>
      </trkpt>
      <trkpt lat="41.071550" lon="-3.753750">
        <ele>2707.0</ele>
        <time>2018-07-22T13:22:20Z</time>
      </trkpt>
      <trkpt lat="41.071617" lon="-3.753817">
        <ele>2706.0</ele>
        <time>2018-07-22T13:22:21Z</time>
      </trkpt>
      <trkpt lat="41.071683" lon="-3.753883">
        <ele>2705.0</ele>
        <time>2018-07-22T13:22:22Z</time>
      </trkpt>
      <trkpt lat="41.071733" lon="-3.753950">
        <ele>2705.0</ele>
        <time>2018-07-22T13:22:23Z</time>
      </trkpt>
      <trkpt lat="41.071800" lon="-3.754000">
        <ele>2704.0</ele>
        <time>2018-07-22T13:22:24Z</time>
      </trkpt>
      <trkpt lat="41.071850" lon="-3.754067">
        <ele>2702.0</ele>
        <time>2018-07-22T13:22:25Z</time>
      </trkpt>
      <trkpt lat="41.071917" lon="-3.754133">
        <ele>2700.0</ele>
        <time>2018-07-22T13:22:26Z</time>
      </trkpt>
      <trkpt lat="41.071983" lon="-3.754183">
        <ele>2699.0</ele>
        <time>2018-07-22T13:22:27Z</time>
      </trkpt>
      <trkpt lat="41.072083" lon="-3.754250">
        <ele>2697.0</ele>
        <time>2018-07-22T13:22:28Z</time>
      </trkpt>
      <trkpt lat="41.072167" lon="-3.754300">
        <ele>2696.0</ele>
        <time>2018-07-22T13:22:29Z</time>
      </trkpt>
      <trkpt lat="41.072267" lon="-3.754367">
        <ele>2695.0</ele>
        <time>2018-07-22T13:22:30Z</time>
      </trkpt>
      <trkpt lat="41.072383" lon="-3.754417">
        <ele>2693.0</ele>
        <time>2018-07-22T13:22:31Z</time>
      </trkpt>
      <trkpt lat="41.072467" lon="-3.754467">
        <ele>2692.0</ele>
        <time>2018-07-22T13:22:32Z</time>
      </trkpt>
      <trkpt lat="41.072567" lon="-3.754517">
        <ele>2690.0</ele>
        <time>2018-07-22T13:22:33Z</time>
      </trkpt>
      <trkpt lat="41.072650" lon="-3.754583">
        <ele>2689.0</ele>
        <time>2018-07-22T13:22:34Z</time>
      </trkpt>
      <trkpt lat="41.072733" lon="-3.754650">
        <ele>2687.0</ele>
        <time>2018-07-22T13:22:35Z</time>
      </trkpt>
      <trkpt lat="41.072800" lon="-3.754717">
        <ele>2684.0</ele>
        <time>2018-07-22T13:22:36Z</time>
      </trkpt>
      <trkpt lat="41.072883" lon="-3.754800">
        <ele>2682.0</ele>
        <time>2018-07-22T13:22:37Z</time>
      </trkpt>
      <trkpt lat="41.072967" lon="-3.754883">
        <ele>2679.0</ele>
        <time>2018-07-22T13:22:38Z</time>
      </trkpt>
      <trkpt lat="41.073050" lon="-3.754967">
        <ele>2676.0</ele>
        <time>2018-07-22T13:22:39Z</time>
      </trkpt>
      <trkpt lat="41.073150" lon="-3.755033">
        <ele>2674.0</ele>
        <time>2018-07-22T13:22:40Z</time>
      </trkpt>
      <trkpt lat="41.073250" lon="-3.755117">
        <ele>2672.0</ele>
        <time>2018-07-22T13:22:41Z</time>
      </trkpt>
      <trkpt lat="41.073350" lon="-3.755183">
        <ele>2669.0</ele>
        <time>2018-07-22T13:22:42Z</time>
      </trkpt>
      <trkpt lat="41.073450" lon="-3.755267">
        <ele>2667.0</ele>
        <time>2018-07-22T13:22:43Z</time>
      </trkpt>
      <trkpt lat="41.073550" lon="-3.755350">
        <ele>2665.0</ele>
        <time>2018-07-22T13:22:44Z</time>
      </trkpt>
      <trkpt lat="41.073650" lon="-3.755450">
        <ele>2664.0</ele>
        <time>2018-07-22T13:22:45Z</time>
      </trkpt>
      <trkpt lat="41.073750" lon="-3.755550">
        <ele>2663.0</ele>
        <time>2018-07-22T13:22:46Z</time>
      </trkpt>
      <trkpt lat="41.073833" lon="-3.755650">
        <ele>2663.0</ele>
        <time>2018-07-22T13:22:47Z</time>
      </trkpt>
      <trkpt lat="41.073933" lon="-3.755733">
        <ele>2663.0</ele>
        <time>2018-07-22T13:22:48Z</time>
      </trkpt>
      <trkpt lat="41.074033" lon="-3.755800">
        <ele>2663.0</ele>
        <time>2018-07-22T13:22:49Z</time>
      </trkpt>
      <trkpt lat="41.074133" lon="-3.755867">
        <ele>2662.0</ele>
        <time>2018-07-22T13:22:50Z</time>
      </trkpt>
      <trkpt lat="41.074217" lon="-3.755933">
        <ele>2661.0</ele>
        <time>2018-07-22T13:22:51Z</time>
      </trkpt>
      <trkpt lat="41.074317" lon="-3.756000">
        <ele>2661.0</ele>
        <time>2018-07-22T13:22:52Z</time>
      </trkpt>
      <trkpt lat="41.074417" lon="-3.756050">
        <ele>2660.0</ele>
        <time>2018-07-22T13:22:53Z</time>
      </trkpt>
      <trkpt lat="41.074517" lon="-3.756083">
        <ele>2659.0</ele>
        <time>2018-07-22T13:22:54Z</time>
      </trkpt>
      <trkpt lat="41.074600" lon="-3.756133">
        <ele>2657.0</ele>
        <time>2018-07-22T13:22:55Z</time>
      </trkpt>
      <trkpt lat="41.074700" lon="-3.756183">
        <ele>2655.0</ele>
        <time>2018-07-22T13:22:56Z</time>
      </trkpt>
      <trkpt lat="41.074783" lon="-3.756250">
        <ele>2652.0</ele>
        <time>2018-07-22T13:22:57Z</time>
      </trkpt>
      <trkpt lat="41.074867" lon="-3.756333">
        <ele>2649.0</ele>
        <time>2018-07-22T13:22:58Z</time>
      </trkpt>
      <trkpt lat="41.074950" lon="-3.756400">
        <ele>2647.0</ele>
        <time>2018-07-22T13:22:59Z</time>
      </trkpt>
      <trkpt lat="41.075033" lon="-3.756467">
        <ele>2646.0</ele>
        <time>2018-07-22T13:23:00Z</time>
      </trkpt>
      <trkpt lat="41.075117" lon="-3.756500">
        <ele>2644.0</ele>
        <time>2018-07-22T13:23:01Z</time>
      </trkpt>
      <trkpt lat="41.075200" lon="-3.756550">
        <ele>2641.0</ele>
        <time>2018-07-22T13:23:02Z</time>
      </trkpt>
      <trkpt lat="41.075300" lon="-3.756600">
        <ele>2638.0</ele>
        <time>2018-07-22T13:23:03Z</time>
      </trkpt>
      <trkpt lat="41.075383" lon="-3.756650">
        <ele>2634.0</ele>
        <time>2018-07-22T13:23:04Z</time>
      </trkpt>
      <trkpt lat="41.075483" lon="-3.756717">
        <ele>2630.0</ele>
        <time>2018-07-22T13:23:05Z</time>
      </trkpt>
      <trkpt lat="41.075583" lon="-3.756783">
        <ele>2628.0</ele>
        <time>2018-07-22T13:23:06Z</time>
      </trkpt>
      <trkpt lat="41.075667" lon="-3.756867">
        <ele>2626.0</ele>
        <time>2018-07-22T13:23:07Z</time>
      </trkpt>
      <trkpt lat="41.075767" lon="-3.756950">
        <ele>2625.0</ele>
        <time>2018-07-22T13:23:08Z</time>
      </trkpt>
      <trkpt lat="41.075867" lon="-3.757000">
        <ele>2624.0</ele>
        <time>2018-07-22T13:23:09Z</time>
      </trkpt>
      <trkpt lat="41.075950" lon="-3.757050">
        <ele>2623.0</ele>
        <time>2018-07-22T13:23:10Z</time>
      </trkpt>
      <trkpt lat="41.076050" lon="-3.757100">
        <ele>2620.0</ele>
        <time>2018-07-22T13:23:11Z</time>
      </trkpt>
      <trkpt lat="41.076150" lon="-3.757150">
        <ele>2618.0</ele>
        <time>2018-07-22T13:23:12Z</time>
      </trkpt>
      <trkpt lat="41.076250" lon="-3.757200">
        <ele>2616.0</ele>
        <time>2018-07-22T13:23:13Z</time>
      </trkpt>
      <trkpt lat="41.076333" lon="-3.757283">
        <ele>2614.0</ele>
        <time>2018-07-22T13:23:14Z</time>
      </trkpt>
      <trkpt lat="41.076417" lon="-3.757367">
        <ele>2613.0</ele>
        <time>2018-07-22T13:23:15Z</time>
      </trkpt>
      <trkpt lat="41.076517" lon="-3.757433">
        <ele>2613.0</ele>
        <time>2018-07-22T13:23:16Z</time>
      </trkpt>
      <trkpt lat="41.076583" lon="-3.757500">
        <ele>2612.0</ele>
        <time>2018-07-22T13:23:17Z</time>
      </trkpt>
      <trkpt lat="41.076667" lon="-3.757567">
        <ele>2609.0</ele>
        <time>2018-07-22T13:23:18Z</time>
      </trkpt>
      <trkpt lat="41.076750" lon="-3.757650">
        <ele>2606.0</ele>
        <time>2018-07-22T13:23:19Z</time>
      </trkpt>
      <trkpt lat="41.076817" lon="-3.757733">
        <ele>2603.0</ele>
        <time>2018-07-22T13:23:20Z</time>
      </trkpt>
      <trkpt lat="41.076917" lon="-3.757833">
        <ele>2600.0</ele>
        <time>2018-07-22T13:23:21Z</time>
      </trkpt>
      <trkpt lat="41.077000" lon="-3.757917">
        <ele>2598.0</ele>
        <time>2018-07-22T13:23:22Z</time>
      </trkpt>
      <trkpt lat="41.077100" lon="-3.758000">
        <ele>2595.0</ele>
        <time>2018-07-22T13:23:23Z</time>
      </trkpt>
      <trkpt lat="41.077183" lon="-3.758083">
        <ele>2594.0</ele>
        <time>2018-07-22T13:23:24Z</time>
      </trkpt>
      <trkpt lat="41.077267" lon="-3.758167">
        <ele>2593.0</ele>
        <time>2018-07-22T13:23:25Z</time>
      </trkpt>
      <trkpt lat="41.077350" lon="-3.758217">
        <ele>2593.0</ele>
        <time>2018-07-22T13:23:26Z</time>
      </trkpt>
      <trkpt lat="41.077450" lon="-3.758267">
        <ele>2592.0</ele>
        <time>2018-07-22T13:23:27Z</time>
      </trkpt>
      <trkpt lat="41.077533" lon="-3.758317">
        <ele>2591.0</ele>
        <time>2018-07-22T13:23:28Z</time>
      </trkpt>
      <trkpt lat="41.077617" lon="-3.758367">
        <ele>2589.0</ele>
        <time>2018-07-22T13:23:29Z</time>
      </trkpt>
      <trkpt lat="41.077700" lon="-3.758433">
        <ele>2587.0</ele>
        <time>2018-07-22T13:23:30Z</time>
      </trkpt>
      <trkpt lat="41.077783" lon="-3.758500">
        <ele>2585.0</ele>
        <time>2018-07-22T13:23:31Z</time>
      </trkpt>
      <trkpt lat="41.077883" lon="-3.758567">
        <ele>2583.0</ele>
        <time>2018-07-22T13:23:32Z</time>
      </trkpt>
      <trkpt lat="41.077967" lon="-3.758617">
        <ele>2581.0</ele>
        <time>2018-07-22T13:23:33Z</time>
      </trkpt>
      <trkpt lat="41.078067" lon="-3.758667">
        <ele>2580.0</ele>
        <time>2018-07-22T13:23:34Z</time>
      </trkpt>
      <trkpt lat="41.078167" lon="-3.758717">
        <ele>2578.0</ele>
        <time>2018-07-22T13:23:35Z</time>
      </trkpt>
      <trkpt lat="41.078250" lon="-3.758767">
        <ele>2576.0</ele>
        <time>2018-07-22T13:23:36Z</time>
      </trkpt>
      <trkpt lat="41.078350" lon="-3.758817">
        <ele>2574.0</ele>
        <time>2018-07-22T13:23:37Z</time>
      </trkpt>
      <trkpt lat="41.078433" lon="-3.758867">
        <ele>2572.0</ele>
        <time>2018-07-22T13:23:38Z</time>
      </trkpt>
      <trkpt lat="41.078533" lon="-3.758917">
        <ele>2569.0</ele>
        <time>2018-07-22T13:23:39Z</time>
      </trkpt>
      <trkpt lat="41.078617" lon="-3.758983">
        <ele>2567.0</ele>
        <time>2018-07-22T13:23:40Z</time>
      </trkpt>
      <trkpt lat="41.078700" lon="-3.759050">
        <ele>2565.0</ele>
        <time>2018-07-22T13:23:41Z</time>
      </trkpt>
      <trkpt lat="41.078783" lon="-3.759100">
        <ele>2562.0</ele>
        <time>2018-07-22T13:23:42Z</time>
      </trkpt>
      <trkpt lat="41.078883" lon="-3.759167">
        <ele>2560.0</ele>
        <time>2018-07-22T13:23:43Z</time>
      </trkpt>
      <trkpt lat="41.078967" lon="-3.759217">
        <ele>2560.0</ele>
        <time>2018-07-22T13:23:44Z</time>
      </trkpt>
      <trkpt lat="41.079067" lon="-3.759267">
        <ele>2559.0</ele>
        <time>2018-07-22T13:23:45Z</time>
      </trkpt>
      <trkpt lat="41.079150" lon="-3.759317">
        <ele>2560.0</ele>
        <time>2018-07-22T13:23:46Z</time>
      </trkpt>
      <trkpt lat="41.079250" lon="-3.759367">
        <ele>2560.0</ele>
        <time>2018-07-22T13:23:47Z</time>
      </trkpt>
      <trkpt lat="41.079333" lon="-3.759417">
        <ele>2559.0</ele>
        <time>2018-07-22T13:23:48Z</time>
      </trkpt>
      <trkpt lat="41.079417" lon="-3.759450">
        <ele>2558.0</ele>
        <time>2018-07-22T13:23:49Z</time>
      </trkpt>
      <trkpt lat="41.079500" lon="-3.759500">
        <ele>2557.0</ele>
        <time>2018-07-22T13:23:50Z</time>
      </trkpt>
      <trkpt lat="41.079583" lon="-3.759533">
        <ele>2557.0</ele>
        <time>2018-07-22T13:23:51Z</time>
      </trkpt>
      <trkpt lat="41.079667" lon="-3.759583">
        <ele>2556.0</ele>
        <time>2018-07-22T13:23:52Z</time>
      </trkpt>
      <trkpt lat="41.079733" lon="-3.759633">
        <ele>2556.0</ele>
        <time>2018-07-22T13:23:53Z</time>
      </trkpt>
      <trkpt lat="41.079800" lon="-3.759700">
        <ele>2554.0</ele>
        <time>2018-07-22T13:23:54Z</time>
      </trkpt>
      <trkpt lat="41.079867" lon="-3.759750">
        <ele>2552.0</ele>
        <time>2018-07-22T13:23:55Z</time>
      </trkpt>
      <trkpt lat="41.079933" lon="-3.759833">
        <ele>2550.0</ele>
        <time>2018-07-22T13:23:56Z</time>
      </trkpt>
      <trkpt lat="41.080000" lon="-3.759933">
        <ele>2549.0</ele>
        <time>2018-07-22T13:23:57Z</time>
      </trkpt>
      <trkpt lat="41.080083" lon="-3.760017">
        <ele>2548.0</ele>
        <time>2018-07-22T13:23:58Z</time>
      </trkpt>
      <trkpt lat="41.080133" lon="-3.760100">
        <ele>2548.0</ele>
        <time>2018-07-22T13:23:59Z</time>
      </trkpt>
      <trkpt lat="41.080200" lon="-3.760183">
        <ele>2548.0</ele>
        <time>2018-07-22T13:24:00Z</time>
      </trkpt>
      <trkpt lat="41.080250" lon="-3.760267">
        <ele>2547.0</ele>
        <time>2018-07-22T13:24:01Z</time>
      </trkpt>
      <trkpt lat="41.080300" lon="-3.760350">
        <ele>2545.0</ele>
        <time>2018-07-22T13:24:02Z</time>
      </trkpt>
      <trkpt lat="41.080350" lon="-3.760433">
        <ele>2543.0</ele>
        <time>2018-07-22T13:24:03Z</time>
      </trkpt>
      <trkpt lat="41.080400" lon="-3.760517">
        <ele>2541.0</ele>
        <time>2018-07-22T13:24:04Z</time>
      </trkpt>
      <trkpt lat="41.080450" lon="-3.760633">
        <ele>2540.0</ele>
        <time>2018-07-22T13:24:05Z</time>
      </trkpt>
      <trkpt lat="41.080500" lon="-3.760733">
        <ele>2538.0</ele>
        <time>2018-07-22T13:24:06Z</time>
      </trkpt>
      <trkpt lat="41.080550" lon="-3.760850">
        <ele>2538.0</ele>
        <time>2018-07-22T13:24:07Z</time>
      </trkpt>
      <trkpt lat="41.080600" lon="-3.760950">
        <ele>2537.0</ele>
        <time>2018-07-22T13:24:08Z</time>
      </trkpt>
      <trkpt lat="41.080667" lon="-3.761050">
        <ele>2537.0</ele>
        <time>2018-07-22T13:24:09Z</time>
      </trkpt>
      <trkpt lat="41.080717" lon="-3.761150">
        <ele>2537.0</ele>
        <time>2018-07-22T13:24:10Z</time>
      </trkpt>
      <trkpt lat="41.080783" lon="-3.761233">
        <ele>2537.0</ele>
        <time>2018-07-22T13:24:11Z</time>
      </trkpt>
      <trkpt lat="41.080833" lon="-3.761317">
        <ele>2537.0</ele>
        <time>2018-07-22T13:24:12Z</time>
      </trkpt>
      <trkpt lat="41.080900" lon="-3.761400">
        <ele>2537.0</ele>
        <time>2018-07-22T13:24:13Z</time>
      </trkpt>
      <trkpt lat="41.080950" lon="-3.761483">
        <ele>2536.0</ele>
        <time>2018-07-22T13:24:14Z</time>
      </trkpt>
      <trkpt lat="41.081000" lon="-3.761583">
        <ele>2536.0</ele>
        <time>2018-07-22T13:24:15Z</time>
      </trkpt>
      <trkpt lat="41.081050" lon="-3.761683">
        <ele>2535.0</ele>
        <time>2018-07-22T13:24:16Z</time>
      </trkpt>
      <trkpt lat="41.081083" lon="-3.761783">
        <ele>2534.0</ele>
        <time>2018-07-22T13:24:17Z</time>
      </trkpt>
      <trkpt lat="41.081117" lon="-3.761883">
        <ele>2532.0</ele>
        <time>2018-07-22T13:24:18Z</time>
      </trkpt>
      <trkpt lat="41.081167" lon="-3.762000">
        <ele>2529.0</ele>
        <time>2018-07-22T13:24:19Z</time>
      </trkpt>
      <trkpt lat="41.081217" lon="-3.762117">
        <ele>2526.0</ele>
        <time>2018-07-22T13:24:20Z</time>
      </trkpt>
      <trkpt lat="41.081283" lon="-3.762217">
        <ele>2524.0</ele>
        <time>2018-07-22T13:24:21Z</time>
      </trkpt>
      <trkpt lat="41.081367" lon="-3.762317">
        <ele>2522.0</ele>
        <time>2018-07-22T13:24:22Z</time>
      </trkpt>
      <trkpt lat="41.081433" lon="-3.762417">
        <ele>2520.0</ele>
        <time>2018-07-22T13:24:23Z</time>
      </trkpt>
      <trkpt lat="41.081500" lon="-3.762500">
        <ele>2518.0</ele>
        <time>2018-07-22T13:24:24Z</time>
      </trkpt>
      <trkpt lat="41.081567" lon="-3.762617">
        <ele>2515.0</ele>
        <time>2018-07-22T13:24:25Z</time>
      </trkpt>
      <trkpt lat="41.081617" lon="-3.762733">
        <ele>2512.0</ele>
        <time>2018-07-22T13:24:26Z</time>
      </trkpt>
      <trkpt lat="41.081683" lon="-3.762850">
        <ele>2509.0</ele>
        <time>2018-07-22T13:24:27Z</time>
      </trkpt>
      <trkpt lat="41.081767" lon="-3.762967">
        <ele>2508.0</ele>
        <time>2018-07-22T13:24:28Z</time>
      </trkpt>
      <trkpt lat="41.081833" lon="-3.763050">
        <ele>2507.0</ele>
        <time>2018-07-22T13:24:29Z</time>
      </trkpt>
      <trkpt lat="41.081900" lon="-3.763150">
        <ele>2505.0</ele>
        <time>2018-07-22T13:24:30Z</time>
      </trkpt>
      <trkpt lat="41.081950" lon="-3.763233">
        <ele>2502.0</ele>
        <time>2018-07-22T13:24:31Z</time>
      </trkpt>
      <trkpt lat="41.082017" lon="-3.763333">
        <ele>2499.0</ele>
        <time>2018-07-22T13:24:32Z</time>
      </trkpt>
      <trkpt lat="41.082050" lon="-3.763450">
        <ele>2495.0</ele>
        <time>2018-07-22T13:24:33Z</time>
      </trkpt>
      <trkpt lat="41.082100" lon="-3.763583">
        <ele>2493.0</ele>
        <time>2018-07-22T13:24:34Z</time>
      </trkpt>
      <trkpt lat="41.082167" lon="-3.763700">
        <ele>2490.0</ele>
        <time>2018-07-22T13:24:35Z</time>
      </trkpt>
      <trkpt lat="41.082217" lon="-3.763800">
        <ele>2488.0</ele>
        <time>2018-07-22T13:24:36Z</time>
      </trkpt>
      <trkpt lat="41.082283" lon="-3.763883">
        <ele>2485.0</ele>
        <time>2018-07-22T13:24:37Z</time>
      </trkpt>
      <trkpt lat="41.082350" lon="-3.763967">
        <ele>2483.0</ele>
        <time>2018-07-22T13:24:38Z</time>
      </trkpt>
      <trkpt lat="41.082400" lon="-3.764050">
        <ele>2479.0</ele>
        <time>2018-07-22T13:24:39Z</time>
      </trkpt>
      <trkpt lat="41.082467" lon="-3.764150">
        <ele>2475.0</ele>
        <time>2018-07-22T13:24:40Z</time>
      </trkpt>
      <trkpt lat="41.082533" lon="-3.764267">
        <ele>2470.0</ele>
        <time>2018-07-22T13:24:41Z</time>
      </trkpt>
      <trkpt lat="41.082617" lon="-3.764383">
        <ele>2465.0</ele>
        <time>2018-07-22T13:24:42Z</time>
      </trkpt>
      <trkpt lat="41.082683" lon="-3.764500">
        <ele>2461.0</ele>
        <time>2018-07-22T13:24:43Z</time>
      </trkpt>
      <trkpt lat="41.082750" lon="-3.764633">
        <ele>2459.0</ele>
        <time>2018-07-22T13:24:44Z</time>
      </trkpt>
      <trkpt lat="41.082800" lon="-3.764750">
        <ele>2457.0</ele>
        <time>2018-07-22T13:24:45Z</time>
      </trkpt>
      <trkpt lat="41.082867" lon="-3.764867">
        <ele>2455.0</ele>
        <time>2018-07-22T13:24:46Z</time>
      </trkpt>
      <trkpt lat="41.082917" lon="-3.764967">
        <ele>2452.0</ele>
        <time>2018-07-22T13:24:47Z</time>
      </trkpt>
      <trkpt lat="41.082983" lon="-3.765067">
        <ele>2448.0</ele>
        <time>2018-07-22T13:24:48Z</time>
      </trkpt>
      <trkpt lat="41.083067" lon="-3.765167">
        <ele>2445.0</ele>
        <time>2018-07-22T13:24:49Z</time>
      </trkpt>
      <trkpt lat="41.083150" lon="-3.765267">
        <ele>2442.0</ele>
        <time>2018-07-22T13:24:50Z</time>
      </trkpt>
      <trkpt lat="41.083233" lon="-3.765350">
        <ele>2439.0</ele>
        <time>2018-07-22T13:24:51Z</time>
      </trkpt>
      <trkpt lat="41.083317" lon="-3.765450">
        <ele>2436.0</ele>
        <time>2018-07-22T13:24:52Z</time>
      </trkpt>
      <trkpt lat="41.083400" lon="-3.765517">
        <ele>2435.0</ele>
        <time>2018-07-22T13:24:53Z</time>
      </trkpt>
      <trkpt lat="41.083450" lon="-3.765600">
        <ele>2435.0</ele>
        <time>2018-07-22T13:24:54Z</time>
      </trkpt>
      <trkpt lat="41.083517" lon="-3.765650">
        <ele>2434.0</ele>
        <time>2018-07-22T13:24:55Z</time>
      </trkpt>
      <trkpt lat="41.083567" lon="-3.765717">
        <ele>2433.0</ele>
        <time>2018-07-22T13:24:56Z</time>
      </trkpt>
      <trkpt lat="41.083633" lon="-3.765767">
        <ele>2431.0</ele>
        <time>2018-07-22T13:24:57Z</time>
      </trkpt>
      <trkpt lat="41.083700" lon="-3.765833">
        <ele>2428.0</ele>
        <time>2018-07-22T13:24:58Z</time>
      </trkpt>
      <trkpt lat="41.083767" lon="-3.765883">
        <ele>2425.0</ele>
        <time>2018-07-22T13:24:59Z</time>
      </trkpt>
      <trkpt lat="41.083833" lon="-3.765950">
        <ele>2423.0</ele>
        <time>2018-07-22T13:25:00Z</time>
      </trkpt>
      <trkpt lat="41.083900" lon="-3.766000">
        <ele>2422.0</ele>
        <time>2018-07-22T13:25:01Z</time>
      </trkpt>
      <trkpt lat="41.083950" lon="-3.766050">
        <ele>2421.0</ele>
        <time>2018-07-22T13:25:02Z</time>
      </trkpt>
      <trkpt lat="41.084017" lon="-3.766117">
        <ele>2418.0</ele>
        <time>2018-07-22T13:25:03Z</time>
      </trkpt>
      <trkpt lat="41.084067" lon="-3.766167">
        <ele>2416.0</ele>
        <time>2018-07-22T13:25:04Z</time>
      </trkpt>
      <trkpt lat="41.084133" lon="-3.766217">
        <ele>2413.0</ele>
        <time>2018-07-22T13:25:05Z</time>
      </trkpt>
      <trkpt lat="41.084200" lon="-3.766267">
        <ele>2411.0</ele>
        <time>2018-07-22T13:25:06Z</time>
      </trkpt>
      <trkpt lat="41.084267" lon="-3.766333">
        <ele>2410.0</ele>
        <time>2018-07-22T13:25:07Z</time>
      </trkpt>
      <trkpt lat="41.084317" lon="-3.766400">
        <ele>2408.0</ele>
        <time>2018-07-22T13:25:08Z</time>
      </trkpt>
      <trkpt lat="41.084383" lon="-3.766467">
        <ele>2406.0</ele>
        <time>2018-07-22T13:25:09Z</time>
      </trkpt>
      <trkpt lat="41.084433" lon="-3.766533">
        <ele>2403.0</ele>
        <time>2018-07-22T13:25:10Z</time>
      </trkpt>
      <trkpt lat="41.084500" lon="-3.766583">
        <ele>2401.0</ele>
        <time>2018-07-22T13:25:11Z</time>
      </trkpt>
      <trkpt lat="41.084567" lon="-3.766650">
        <ele>2398.0</ele>
        <time>2018-07-22T13:25:12Z</time>
      </trkpt>
      <trkpt lat="41.084650" lon="-3.766700">
        <ele>2396.0</ele>
        <time>2018-07-22T13:25:13Z</time>
      </trkpt>
      <trkpt lat="41.084733" lon="-3.766750">
        <ele>2393.0</ele>
        <time>2018-07-22T13:25:14Z</time>
      </trkpt>
      <trkpt lat="41.084800" lon="-3.766800">
        <ele>2391.0</ele>
        <time>2018-07-22T13:25:15Z</time>
      </trkpt>
      <trkpt lat="41.084883" lon="-3.766850">
        <ele>2389.0</ele>
        <time>2018-07-22T13:25:16Z</time>
      </trkpt>
      <trkpt lat="41.084950" lon="-3.766917">
        <ele>2387.0</ele>
        <time>2018-07-22T13:25:17Z</time>
      </trkpt>
      <trkpt lat="41.085017" lon="-3.766983">
        <ele>2386.0</ele>
        <time>2018-07-22T13:25:18Z</time>
      </trkpt>
      <trkpt lat="41.085067" lon="-3.767067">
        <ele>2384.0</ele>
        <time>2018-07-22T13:25:19Z</time>
      </trkpt>
      <trkpt lat="41.085100" lon="-3.767150">
        <ele>2382.0</ele>
        <time>2018-07-22T13:25:20Z</time>
      </trkpt>
      <trkpt lat="41.085133" lon="-3.767233">
        <ele>2379.0</ele>
        <time>2018-07-22T13:25:21Z</time>
      </trkpt>
      <trkpt lat="41.085150" lon="-3.767333">
        <ele>2376.0</ele>
        <time>2018-07-22T13:25:22Z</time>
      </trkpt>
      <trkpt lat="41.085183" lon="-3.767433">
        <ele>2374.0</ele>
        <time>2018-07-22T13:25:23Z</time>
      </trkpt>
      <trkpt lat="41.085233" lon="-3.767517">
        <ele>2371.0</ele>
        <time>2018-07-22T13:25:24Z</time>
      </trkpt>
      <trkpt lat="41.085267" lon="-3.767617">
        <ele>2369.0</ele>
        <time>2018-07-22T13:25:25Z</time>
      </trkpt>
      <trkpt lat="41.085317" lon="-3.767717">
        <ele>2367.0</ele>
        <time>2018-07-22T13:25:26Z</time>
      </trkpt>
      <trkpt lat="41.085350" lon="-3.767800">
        <ele>2364.0</ele>
        <time>2018-07-22T13:25:27Z</time>
      </trkpt>
      <trkpt lat="41.085383" lon="-3.767900">
        <ele>2361.0</ele>
        <time>2018-07-22T13:25:28Z</time>
      </trkpt>
      <trkpt lat="41.085417" lon="-3.768000">
        <ele>2359.0</ele>
        <time>2018-07-22T13:25:29Z</time>
      </trkpt>
      <trkpt lat="41.085450" lon="-3.768100">
        <ele>2356.0</ele>
        <time>2018-07-22T13:25:30Z</time>
      </trkpt>
      <trkpt lat="41.085483" lon="-3.768200">
        <ele>2354.0</ele>
        <time>2018-07-22T13:25:31Z</time>
      </trkpt>
      <trkpt lat="41.085517" lon="-3.768300">
        <ele>2352.0</ele>
        <time>2018-07-22T13:25:32Z</time>
      </trkpt>
      <trkpt lat="41.085567" lon="-3.768383">
        <ele>2351.0</ele>
        <time>2018-07-22T13:25:33Z</time>
      </trkpt>
      <trkpt lat="41.085600" lon="-3.768467">
        <ele>2348.0</ele>
        <time>2018-07-22T13:25:34Z</time>
      </trkpt>
      <trkpt lat="41.085633" lon="-3.768550">
        <ele>2345.0</ele>
        <time>2018-07-22T13:25:35Z</time>
      </trkpt>
      <trkpt lat="41.085667" lon="-3.768650">
        <ele>2341.0</ele>
        <time>2018-07-22T13:25:36Z</time>
      </trkpt>
      <trkpt lat="41.085700" lon="-3.768750">
        <ele>2337.0</ele>
        <time>2018-07-22T13:25:37Z</time>
      </trkpt>
      <trkpt lat="41.085733" lon="-3.768850">
        <ele>2334.0</ele>
        <time>2018-07-22T13:25:38Z</time>
      </trkpt>
      <trkpt lat="41.085783" lon="-3.768950">
        <ele>2331.0</ele>
        <time>2018-07-22T13:25:39Z</time>
      </trkpt>
      <trkpt lat="41.085817" lon="-3.769050">
        <ele>2330.0</ele>
        <time>2018-07-22T13:25:40Z</time>
      </trkpt>
      <trkpt lat="41.085850" lon="-3.769117">
        <ele>2328.0</ele>
        <time>2018-07-22T13:25:41Z</time>
      </trkpt>
      <trkpt lat="41.085883" lon="-3.769183">
        <ele>2324.0</ele>
        <time>2018-07-22T13:25:42Z</time>
      </trkpt>
      <trkpt lat="41.085900" lon="-3.769267">
        <ele>2320.0</ele>
        <time>2018-07-22T13:25:43Z</time>
      </trkpt>
      <trkpt lat="41.085933" lon="-3.769367">
        <ele>2315.0</ele>
        <time>2018-07-22T13:25:44Z</time>
      </trkpt>
      <trkpt lat="41.085967" lon="-3.769500">
        <ele>2309.0</ele>
        <time>2018-07-22T13:25:45Z</time>
      </trkpt>
      <trkpt lat="41.086000" lon="-3.769633">
        <ele>2306.0</ele>
        <time>2018-07-22T13:25:46Z</time>
      </trkpt>
      <trkpt lat="41.086033" lon="-3.769750">
        <ele>2305.0</ele>
        <time>2018-07-22T13:25:47Z</time>
      </trkpt>
      <trkpt lat="41.086067" lon="-3.769867">
        <ele>2305.0</ele>
        <time>2018-07-22T13:25:48Z</time>
      </trkpt>
      <trkpt lat="41.086117" lon="-3.769950">
        <ele>2305.0</ele>
        <time>2018-07-22T13:25:49Z</time>
      </trkpt>
      <trkpt lat="41.086150" lon="-3.770050">
        <ele>2303.0</ele>
        <time>2018-07-22T13:25:50Z</time>
      </trkpt>
      <trkpt lat="41.086200" lon="-3.770133">
        <ele>2300.0</ele>
        <time>2018-07-22T13:25:51Z</time>
      </trkpt>
      <trkpt lat="41.086250" lon="-3.770233">
        <ele>2296.0</ele>
        <time>2018-07-22T13:25:52Z</time>
      </trkpt>
      <trkpt lat="41.086333" lon="-3.770333">
        <ele>2292.0</ele>
        <time>2018-07-22T13:25:53Z</time>
      </trkpt>
      <trkpt lat="41.086400" lon="-3.770450">
        <ele>2290.0</ele>
        <time>2018-07-22T13:25:54Z</time>
      </trkpt>
      <trkpt lat="41.086467" lon="-3.770533">
        <ele>2288.0</ele>
        <time>2018-07-22T13:25:55Z</time>
      </trkpt>
      <trkpt lat="41.086500" lon="-3.770617">
        <ele>2286.0</ele>
        <time>2018-07-22T13:25:56Z</time>
      </trkpt>
      <trkpt lat="41.086550" lon="-3.770717">
        <ele>2284.0</ele>
        <time>2018-07-22T13:25:57Z</time>
      </trkpt>
      <trkpt lat="41.086583" lon="-3.770800">
        <ele>2282.0</ele>
        <time>2018-07-22T13:25:58Z</time>
      </trkpt>
      <trkpt lat="41.086633" lon="-3.770883">
        <ele>2280.0</ele>
        <time>2018-07-22T13:25:59Z</time>
      </trkpt>
      <trkpt lat="41.086683" lon="-3.770967">
        <ele>2278.0</ele>
        <time>2018-07-22T13:26:00Z</time>
      </trkpt>
      <trkpt lat="41.086717" lon="-3.771033">
        <ele>2276.0</ele>
        <time>2018-07-22T13:26:01Z</time>
      </trkpt>
      <trkpt lat="41.086767" lon="-3.771117">
        <ele>2273.0</ele>
        <time>2018-07-22T13:26:02Z</time>
      </trkpt>
      <trkpt lat="41.086800" lon="-3.771217">
        <ele>2271.0</ele>
        <time>2018-07-22T13:26:03Z</time>
      </trkpt>
      <trkpt lat="41.086833" lon="-3.771317">
        <ele>2268.0</ele>
        <time>2018-07-22T13:26:04Z</time>
      </trkpt>
      <trkpt lat="41.086833" lon="-3.771400">
        <ele>2266.0</ele>
        <time>2018-07-22T13:26:05Z</time>
      </trkpt>
      <trkpt lat="41.086850" lon="-3.771483">
        <ele>2264.0</ele>
        <time>2018-07-22T13:26:06Z</time>
      </trkpt>
      <trkpt lat="41.086883" lon="-3.771567">
        <ele>2262.0</ele>
        <time>2018-07-22T13:26:07Z</time>
      </trkpt>
      <trkpt lat="41.086933" lon="-3.771633">
        <ele>2260.0</ele>
        <time>2018-07-22T13:26:08Z</time>
      </trkpt>
      <trkpt lat="41.087000" lon="-3.771717">
        <ele>2259.0</ele>
        <time>2018-07-22T13:26:09Z</time>
      </trkpt>
      <trkpt lat="41.087050" lon="-3.771800">
        <ele>2259.0</ele>
        <time>2018-07-22T13:26:10Z</time>
      </trkpt>
      <trkpt lat="41.087100" lon="-3.771850">
        <ele>2261.0</ele>
        <time>2018-07-22T13:26:11Z</time>
      </trkpt>
      <trkpt lat="41.087150" lon="-3.771883">
        <ele>2265.0</ele>
        <time>2018-07-22T13:26:12Z</time>
      </trkpt>
      <trkpt lat="41.087217" lon="-3.771883">
        <ele>2267.0</ele>
        <time>2018-07-22T13:26:13Z</time>
      </trkpt>
      <trkpt lat="41.087267" lon="-3.771900">
        <ele>2267.0</ele>
        <time>2018-07-22T13:26:14Z</time>
      </trkpt>
      <trkpt lat="41.087333" lon="-3.771917">
        <ele>2267.0</ele>
        <time>2018-07-22T13:26:15Z</time>
      </trkpt>
      <trkpt lat="41.087383" lon="-3.771950">
        <ele>2266.0</ele>
        <time>2018-07-22T13:26:16Z</time>
      </trkpt>
      <trkpt lat="41.087417" lon="-3.772017">
        <ele>2266.0</ele>
        <time>2018-07-22T13:26:17Z</time>
      </trkpt>
      <trkpt lat="41.087450" lon="-3.772083">
        <ele>2267.0</ele>
        <time>2018-07-22T13:26:18Z</time>
      </trkpt>
      <trkpt lat="41.087483" lon="-3.772133">
        <ele>2268.0</ele>
        <time>2018-07-22T13:26:19Z</time>
      </trkpt>
      <trkpt lat="41.087483" lon="-3.772183">
        <ele>2270.0</ele>
        <time>2018-07-22T13:26:20Z</time>
      </trkpt>
      <trkpt lat="41.087483" lon="-3.772233">
        <ele>2270.0</ele>
        <time>2018-07-22T13:26:21Z</time>
      </trkpt>
      <trkpt lat="41.087483" lon="-3.772300">
        <ele>2271.0</ele>
        <time>2018-07-22T13:26:22Z</time>
      </trkpt>
      <trkpt lat="41.087500" lon="-3.772367">
        <ele>2273.0</ele>
        <time>2018-07-22T13:26:23Z</time>
      </trkpt>
      <trkpt lat="41.087517" lon="-3.772417">
        <ele>2274.0</ele>
        <time>2018-07-22T13:26:24Z</time>
      </trkpt>
      <trkpt lat="41.087517" lon="-3.772483">
        <ele>2276.0</ele>
        <time>2018-07-22T13:26:25Z</time>
      </trkpt>
      <trkpt lat="41.087517" lon="-3.772517">
        <ele>2277.0</ele>
        <time>2018-07-22T13:26:26Z</time>
      </trkpt>
      <trkpt lat="41.087500" lon="-3.772567">
        <ele>2278.0</ele>
        <time>2018-07-22T13:26:27Z</time>
      </trkpt>
      <trkpt lat="41.087483" lon="-3.772617">
        <ele>2278.0</ele>
        <time>2018-07-22T13:26:28Z</time>
      </trkpt>
      <trkpt lat="41.087450" lon="-3.772667">
        <ele>2279.0</ele>
        <time>2018-07-22T13:26:29Z</time>
      </trkpt>
      <trkpt lat="41.087417" lon="-3.772733">
        <ele>2280.0</ele>
        <time>2018-07-22T13:26:30Z</time>
      </trkpt>
      <trkpt lat="41.087383" lon="-3.772800">
        <ele>2282.0</ele>
        <time>2018-07-22T13:26:31Z</time>
      </trkpt>
      <trkpt lat="41.087350" lon="-3.772850">
        <ele>2283.0</ele>
        <time>2018-07-22T13:26:32Z</time>
      </trkpt>
      <trkpt lat="41.087350" lon="-3.772917">
        <ele>2285.0</ele>
        <time>2018-07-22T13:26:33Z</time>
      </trkpt>
      <trkpt lat="41.087367" lon="-3.772967">
        <ele>2286.0</ele>
        <time>2018-07-22T13:26:34Z</time>
      </trkpt>
      <trkpt lat="41.087433" lon="-3.773017">
        <ele>2287.0</ele>
        <time>2018-07-22T13:26:35Z</time>
      </trkpt>
      <trkpt lat="41.087500" lon="-3.773033">
        <ele>2288.0</ele>
        <time>2018-07-22T13:26:36Z</time>
      </trkpt>
      <trkpt lat="41.087600" lon="-3.773000">
        <ele>2291.0</ele>
        <time>2018-07-22T13:26:37Z</time>
      </trkpt>
      <trkpt lat="41.087700" lon="-3.772933">
        <ele>2294.0</ele>
        <time>2018-07-22T13:26:38Z</time>
      </trkpt>
      <trkpt lat="41.087767" lon="-3.772817">
        <ele>2298.0</ele>
        <time>2018-07-22T13:26:39Z</time>
      </trkpt>
      <trkpt lat="41.087833" lon="-3.772667">
        <ele>2302.0</ele>
        <time>2018-07-22T13:26:40Z</time>
      </trkpt>
      <trkpt lat="41.087867" lon="-3.772500">
        <ele>2304.0</ele>
        <time>2018-07-22T13:26:41Z</time>
      </trkpt>
      <trkpt lat="41.087867" lon="-3.772317">
        <ele>2306.0</ele>
        <time>2018-07-22T13:26:42Z</time>
      </trkpt>
      <trkpt lat="41.087867" lon="-3.772133">
        <ele>2306.0</ele>
        <time>2018-07-22T13:26:43Z</time>
      </trkpt>
      <trkpt lat="41.087833" lon="-3.771967">
        <ele>2306.0</ele>
        <time>2018-07-22T13:26:44Z</time>
      </trkpt>
      <trkpt lat="41.087783" lon="-3.771783">
        <ele>2305.0</ele>
        <time>2018-07-22T13:26:45Z</time>
      </trkpt>
      <trkpt lat="41.087700" lon="-3.771633">
        <ele>2304.0</ele>
        <time>2018-07-22T13:26:46Z</time>
      </trkpt>
      <trkpt lat="41.087617" lon="-3.771500">
        <ele>2303.0</ele>
        <time>2018-07-22T13:26:47Z</time>
      </trkpt>
      <trkpt lat="41.087517" lon="-3.771417">
        <ele>2303.0</ele>
        <time>2018-07-22T13:26:48Z</time>
      </trkpt>
      <trkpt lat="41.087433" lon="-3.771350">
        <ele>2304.0</ele>
        <time>2018-07-22T13:26:49Z</time>
      </trkpt>
      <trkpt lat="41.087350" lon="-3.771333">
        <ele>2305.0</ele>
        <time>2018-07-22T13:26:50Z</time>
      </trkpt>
      <trkpt lat="41.087283" lon="-3.771333">
        <ele>2305.0</ele>
        <time>2018-07-22T13:26:51Z</time>
      </trkpt>
      <trkpt lat="41.087233" lon="-3.771350">
        <ele>2305.0</ele>
        <time>2018-07-22T13:26:52Z</time>
      </trkpt>
      <trkpt lat="41.087183" lon="-3.771383">
        <ele>2306.0</ele>
        <time>2018-07-22T13:26:53Z</time>
      </trkpt>
      <trkpt lat="41.087133" lon="-3.771417">
        <ele>2306.0</ele>
        <time>2018-07-22T13:26:54Z</time>
      </trkpt>
      <trkpt lat="41.087083" lon="-3.771450">
        <ele>2307.0</ele>
        <time>2018-07-22T13:26:55Z</time>
      </trkpt>
      <trkpt lat="41.087067" lon="-3.771500">
        <ele>2307.0</ele>
        <time>2018-07-22T13:26:56Z</time>
      </trkpt>
      <trkpt lat="41.087050" lon="-3.771550">
        <ele>2307.0</ele>
        <time>2018-07-22T13:26:57Z</time>
      </trkpt>
      <trkpt lat="41.087033" lon="-3.771633">
        <ele>2306.0</ele>
        <time>2018-07-22T13:26:58Z</time>
      </trkpt>
      <trkpt lat="41.087033" lon="-3.771700">
        <ele>2307.0</ele>
        <time>2018-07-22T13:26:59Z</time>
      </trkpt>
      <trkpt lat="41.087033" lon="-3.771800">
        <ele>2308.0</ele>
        <time>2018-07-22T13:27:00Z</time>
      </trkpt>
      <trkpt lat="41.087050" lon="-3.771867">
        <ele>2310.0</ele>
        <time>2018-07-22T13:27:01Z</time>
      </trkpt>
      <trkpt lat="41.087067" lon="-3.771933">
        <ele>2314.0</ele>
        <time>2018-07-22T13:27:02Z</time>
      </trkpt>
      <trkpt lat="41.087083" lon="-3.771967">
        <ele>2317.0</ele>
        <time>2018-07-22T13:27:03Z</time>
      </trkpt>
      <trkpt lat="41.087100" lon="-3.772000">
        <ele>2319.0</ele>
        <time>2018-07-22T13:27:04Z</time>
      </trkpt>
      <trkpt lat="41.087133" lon="-3.772033">
        <ele>2318.0</ele>
        <time>2018-07-22T13:27:05Z</time>
      </trkpt>
      <trkpt lat="41.087167" lon="-3.772083">
        <ele>2317.0</ele>
        <time>2018-07-22T13:27:06Z</time>
      </trkpt>
      <trkpt lat="41.087233" lon="-3.772117">
        <ele>2316.0</ele>
        <time>2018-07-22T13:27:07Z</time>
      </trkpt>
      <trkpt lat="41.087300" lon="-3.772150">
        <ele>2315.0</ele>
        <time>2018-07-22T13:27:08Z</time>
      </trkpt>
      <trkpt lat="41.087383" lon="-3.772150">
        <ele>2315.0</ele>
        <time>2018-07-22T13:27:09Z</time>
      </trkpt>
      <trkpt lat="41.087450" lon="-3.772150">
        <ele>2314.0</ele>
        <time>2018-07-22T13:27:10Z</time>
      </trkpt>
      <trkpt lat="41.087517" lon="-3.772183">
        <ele>2314.0</ele>
        <time>2018-07-22T13:27:11Z</time>
      </trkpt>
      <trkpt lat="41.087567" lon="-3.772233">
        <ele>2314.0</ele>
        <time>2018-07-22T13:27:12Z</time>
      </trkpt>
      <trkpt lat="41.087600" lon="-3.772300">
        <ele>2315.0</ele>
        <time>2018-07-22T13:27:13Z</time>
      </trkpt>
      <trkpt lat="41.087650" lon="-3.772383">
        <ele>2317.0</ele>
        <time>2018-07-22T13:27:14Z</time>
      </trkpt>
      <trkpt lat="41.087683" lon="-3.772450">
        <ele>2320.0</ele>
        <time>2018-07-22T13:27:15Z</time>
      </trkpt>
      <trkpt lat="41.087717" lon="-3.772500">
        <ele>2324.0</ele>
        <time>2018-07-22T13:27:16Z</time>
      </trkpt>
      <trkpt lat="41.087733" lon="-3.772550">
        <ele>2326.0</ele>
        <time>2018-07-22T13:27:17Z</time>
      </trkpt>
      <trkpt lat="41.087767" lon="-3.772600">
        <ele>2327.0</ele>
        <time>2018-07-22T13:27:18Z</time>
      </trkpt>
      <trkpt lat="41.087800" lon="-3.772650">
        <ele>2329.0</ele>
        <time>2018-07-22T13:27:19Z</time>
      </trkpt>
      <trkpt lat="41.087850" lon="-3.772683">
        <ele>2329.0</ele>
        <time>2018-07-22T13:27:20Z</time>
      </trkpt>
      <trkpt lat="41.087917" lon="-3.772700">
        <ele>2331.0</ele>
        <time>2018-07-22T13:27:21Z</time>
      </trkpt>
      <trkpt lat="41.087983" lon="-3.772717">
        <ele>2332.0</ele>
        <time>2018-07-22T13:27:22Z</time>
      </trkpt>
      <trkpt lat="41.088067" lon="-3.772700">
        <ele>2333.0</ele>
        <time>2018-07-22T13:27:23Z</time>
      </trkpt>
      <trkpt lat="41.088150" lon="-3.772650">
        <ele>2333.0</ele>
        <time>2018-07-22T13:27:24Z</time>
      </trkpt>
      <trkpt lat="41.088233" lon="-3.772567">
        <ele>2334.0</ele>
        <time>2018-07-22T13:27:25Z</time>
      </trkpt>
      <trkpt lat="41.088317" lon="-3.772467">
        <ele>2335.0</ele>
        <time>2018-07-22T13:27:26Z</time>
      </trkpt>
      <trkpt lat="41.088367" lon="-3.772333">
        <ele>2337.0</ele>
        <time>2018-07-22T13:27:27Z</time>
      </trkpt>
      <trkpt lat="41.088417" lon="-3.772183">
        <ele>2338.0</ele>
        <time>2018-07-22T13:27:28Z</time>
      </trkpt>
      <trkpt lat="41.088450" lon="-3.772033">
        <ele>2339.0</ele>
        <time>2018-07-22T13:27:29Z</time>
      </trkpt>
      <trkpt lat="41.088467" lon="-3.771883">
        <ele>2339.0</ele>
        <time>2018-07-22T13:27:30Z</time>
      </trkpt>
      <trkpt lat="41.088450" lon="-3.771717">
        <ele>2339.0</ele>
        <time>2018-07-22T13:27:31Z</time>
      </trkpt>
      <trkpt lat="41.088433" lon="-3.771533">
        <ele>2339.0</ele>
        <time>2018-07-22T13:27:32Z</time>
      </trkpt>
      <trkpt lat="41.088383" lon="-3.771383">
        <ele>2339.0</ele>
        <time>2018-07-22T13:27:33Z</time>
      </trkpt>
      <trkpt lat="41.088333" lon="-3.771233">
        <ele>2342.0</ele>
        <time>2018-07-22T13:27:34Z</time>
      </trkpt>
      <trkpt lat="41.088250" lon="-3.771117">
        <ele>2343.0</ele>
        <time>2018-07-22T13:27:35Z</time>
      </trkpt>
      <trkpt lat="41.088183" lon="-3.771033">
        <ele>2344.0</ele>
        <time>2018-07-22T13:27:36Z</time>
      </trkpt>
      <trkpt lat="41.088083" lon="-3.770983">
        <ele>2345.0</ele>
        <time>2018-07-22T13:27:37Z</time>
      </trkpt>
      <trkpt lat="41.088000" lon="-3.770933">
        <ele>2344.0</ele>
        <time>2018-07-22T13:27:38Z</time>
      </trkpt>
      <trkpt lat="41.087900" lon="-3.770917">
        <ele>2343.0</ele>
        <time>2018-07-22T13:27:39Z</time>
      </trkpt>
      <trkpt lat="41.087817" lon="-3.770900">
        <ele>2342.0</ele>
        <time>2018-07-22T13:27:40Z</time>
      </trkpt>
      <trkpt lat="41.087717" lon="-3.770900">
        <ele>2341.0</ele>
        <time>2018-07-22T13:27:41Z</time>
      </trkpt>
      <trkpt lat="41.087650" lon="-3.770933">
        <ele>2340.0</ele>
        <time>2018-07-22T13:27:42Z</time>
      </trkpt>
      <trkpt lat="41.087583" lon="-3.770983">
        <ele>2338.0</ele>
        <time>2018-07-22T13:27:43Z</time>
      </trkpt>
      <trkpt lat="41.087517" lon="-3.771050">
        <ele>2337.0</ele>
        <time>2018-07-22T13:27:44Z</time>
      </trkpt>
      <trkpt lat="41.087483" lon="-3.771133">
        <ele>2337.0</ele>
        <time>2018-07-22T13:27:45Z</time>
      </trkpt>
      <trkpt lat="41.087467" lon="-3.771217">
        <ele>2337.0</ele>
        <time>2018-07-22T13:27:46Z</time>
      </trkpt>
      <trkpt lat="41.087467" lon="-3.771317">
        <ele>2336.0</ele>
        <time>2018-07-22T13:27:47Z</time>
      </trkpt>
      <trkpt lat="41.087467" lon="-3.771400">
        <ele>2336.0</ele>
        <time>2018-07-22T13:27:48Z</time>
      </trkpt>
      <trkpt lat="41.087483" lon="-3.771500">
        <ele>2335.0</ele>
        <time>2018-07-22T13:27:49Z</time>
      </trkpt>
      <trkpt lat="41.087517" lon="-3.771583">
        <ele>2335.0</ele>
        <time>2018-07-22T13:27:50Z</time>
      </trkpt>
      <trkpt lat="41.087550" lon="-3.771667">
        <ele>2334.0</ele>
        <time>2018-07-22T13:27:51Z</time>
      </trkpt>
      <trkpt lat="41.087583" lon="-3.771767">
        <ele>2334.0</ele>
        <time>2018-07-22T13:27:52Z</time>
      </trkpt>
      <trkpt lat="41.087617" lon="-3.771883">
        <ele>2334.0</ele>
        <time>2018-07-22T13:27:53Z</time>
      </trkpt>
      <trkpt lat="41.087667" lon="-3.771983">
        <ele>2335.0</ele>
        <time>2018-07-22T13:27:54Z</time>
      </trkpt>
      <trkpt lat="41.087717" lon="-3.772083">
        <ele>2337.0</ele>
        <time>2018-07-22T13:27:55Z</time>
      </trkpt>
      <trkpt lat="41.087767" lon="-3.772183">
        <ele>2339.0</ele>
        <time>2018-07-22T13:27:56Z</time>
      </trkpt>
      <trkpt lat="41.087800" lon="-3.772267">
        <ele>2341.0</ele>
        <time>2018-07-22T13:27:57Z</time>
      </trkpt>
      <trkpt lat="41.087833" lon="-3.772333">
        <ele>2343.0</ele>
        <time>2018-07-22T13:27:58Z</time>
      </trkpt>
      <trkpt lat="41.087867" lon="-3.772417">
        <ele>2345.0</ele>
        <time>2018-07-22T13:27:59Z</time>
      </trkpt>
      <trkpt lat="41.087917" lon="-3.772517">
        <ele>2347.0</ele>
        <time>2018-07-22T13:28:00Z</time>
      </trkpt>
      <trkpt lat="41.087950" lon="-3.772617">
        <ele>2349.0</ele>
        <time>2018-07-22T13:28:01Z</time>
      </trkpt>
      <trkpt lat="41.087983" lon="-3.772717">
        <ele>2351.0</ele>
        <time>2018-07-22T13:28:02Z</time>
      </trkpt>
      <trkpt lat="41.088017" lon="-3.772817">
        <ele>2352.0</ele>
        <time>2018-07-22T13:28:03Z</time>
      </trkpt>
      <trkpt lat="41.088050" lon="-3.772900">
        <ele>2353.0</ele>
        <time>2018-07-22T13:28:04Z</time>
      </trkpt>
      <trkpt lat="41.088083" lon="-3.773000">
        <ele>2355.0</ele>
        <time>2018-07-22T13:28:05Z</time>
      </trkpt>
      <trkpt lat="41.088117" lon="-3.773117">
        <ele>2357.0</ele>
        <time>2018-07-22T13:28:06Z</time>
      </trkpt>
      <trkpt lat="41.088133" lon="-3.773250">
        <ele>2359.0</ele>
        <time>2018-07-22T13:28:07Z</time>
      </trkpt>
      <trkpt lat="41.088150" lon="-3.773383">
        <ele>2364.0</ele>
        <time>2018-07-22T13:28:08Z</time>
      </trkpt>
      <trkpt lat="41.088150" lon="-3.773483">
        <ele>2369.0</ele>
        <time>2018-07-22T13:28:09Z</time>
      </trkpt>
      <trkpt lat="41.088167" lon="-3.773583">
        <ele>2374.0</ele>
        <time>2018-07-22T13:28:10Z</time>
      </trkpt>
      <trkpt lat="41.088183" lon="-3.773667">
        <ele>2377.0</ele>
        <time>2018-07-22T13:28:11Z</time>
      </trkpt>
      <trkpt lat="41.088200" lon="-3.773767">
        <ele>2380.0</ele>
        <time>2018-07-22T13:28:12Z</time>
      </trkpt>
      <trkpt lat="41.088250" lon="-3.773867">
        <ele>2381.0</ele>
        <time>2018-07-22T13:28:13Z</time>
      </trkpt>
      <trkpt lat="41.088317" lon="-3.773967">
        <ele>2383.0</ele>
        <time>2018-07-22T13:28:14Z</time>
      </trkpt>
      <trkpt lat="41.088383" lon="-3.774050">
        <ele>2387.0</ele>
        <time>2018-07-22T13:28:15Z</time>
      </trkpt>
      <trkpt lat="41.088483" lon="-3.774083">
        <ele>2392.0</ele>
        <time>2018-07-22T13:28:16Z</time>
      </trkpt>
      <trkpt lat="41.088583" lon="-3.774100">
        <ele>2397.0</ele>
        <time>2018-07-22T13:28:17Z</time>
      </trkpt>
      <trkpt lat="41.088667" lon="-3.774083">
        <ele>2402.0</ele>
        <time>2018-07-22T13:28:18Z</time>
      </trkpt>
      <trkpt lat="41.088750" lon="-3.774050">
        <ele>2405.0</ele>
        <time>2018-07-22T13:28:19Z</time>
      </trkpt>
      <trkpt lat="41.088817" lon="-3.773983">
        <ele>2408.0</ele>
        <time>2018-07-22T13:28:20Z</time>
      </trkpt>
      <trkpt lat="41.088883" lon="-3.773883">
        <ele>2410.0</ele>
        <time>2018-07-22T13:28:21Z</time>
      </trkpt>
      <trkpt lat="41.088933" lon="-3.773767">
        <ele>2413.0</ele>
        <time>2018-07-22T13:28:22Z</time>
      </trkpt>
      <trkpt lat="41.088950" lon="-3.773617">
        <ele>2417.0</ele>
        <time>2018-07-22T13:28:23Z</time>
      </trkpt>
      <trkpt lat="41.088900" lon="-3.773500">
        <ele>2420.0</ele>
        <time>2018-07-22T13:28:24Z</time>
      </trkpt>
      <trkpt lat="41.088817" lon="-3.773400">
        <ele>2422.0</ele>
        <time>2018-07-22T13:28:25Z</time>
      </trkpt>
      <trkpt lat="41.088700" lon="-3.773350">
        <ele>2423.0</ele>
        <time>2018-07-22T13:28:26Z</time>
      </trkpt>
      <trkpt lat="41.088583" lon="-3.773317">
        <ele>2425.0</ele>
        <time>2018-07-22T13:28:27Z</time>
      </trkpt>
      <trkpt lat="41.088467" lon="-3.773317">
        <ele>2428.0</ele>
        <time>2018-07-22T13:28:28Z</time>
      </trkpt>
      <trkpt lat="41.088367" lon="-3.773350">
        <ele>2431.0</ele>
        <time>2018-07-22T13:28:29Z</time>
      </trkpt>
      <trkpt lat="41.088267" lon="-3.773417">
        <ele>2433.0</ele>
        <time>2018-07-22T13:28:30Z</time>
      </trkpt>
      <trkpt lat="41.088183" lon="-3.773483">
        <ele>2435.0</ele>
        <time>2018-07-22T13:28:31Z</time>
      </trkpt>
      <trkpt lat="41.088100" lon="-3.773567">
        <ele>2439.0</ele>
        <time>2018-07-22T13:28:32Z</time>
      </trkpt>
      <trkpt lat="41.088017" lon="-3.773667">
        <ele>2443.0</ele>
        <time>2018-07-22T13:28:33Z</time>
      </trkpt>
      <trkpt lat="41.087967" lon="-3.773750">
        <ele>2446.0</ele>
        <time>2018-07-22T13:28:34Z</time>
      </trkpt>
      <trkpt lat="41.087917" lon="-3.773850">
        <ele>2449.0</ele>
        <time>2018-07-22T13:28:35Z</time>
      </trkpt>
      <trkpt lat="41.087867" lon="-3.773967">
        <ele>2453.0</ele>
        <time>2018-07-22T13:28:36Z</time>
      </trkpt>
      <trkpt lat="41.087817" lon="-3.774083">
        <ele>2457.0</ele>
        <time>2018-07-22T13:28:37Z</time>
      </trkpt>
      <trkpt lat="41.087783" lon="-3.774183">
        <ele>2462.0</ele>
        <time>2018-07-22T13:28:38Z</time>
      </trkpt>
      <trkpt lat="41.087767" lon="-3.774283">
        <ele>2466.0</ele>
        <time>2018-07-22T13:28:39Z</time>
      </trkpt>
      <trkpt lat="41.087767" lon="-3.774383">
        <ele>2469.0</ele>
        <time>2018-07-22T13:28:40Z</time>
      </trkpt>
      <trkpt lat="41.087800" lon="-3.774483">
        <ele>2470.0</ele>
        <time>2018-07-22T13:28:41Z</time>
      </trkpt>
      <trkpt lat="41.087850" lon="-3.774600">
        <ele>2471.0</ele>
        <time>2018-07-22T13:28:42Z</time>
      </trkpt>
      <trkpt lat="41.087900" lon="-3.774683">
        <ele>2473.0</ele>
        <time>2018-07-22T13:28:43Z</time>
      </trkpt>
      <trkpt lat="41.087967" lon="-3.774733">
        <ele>2475.0</ele>
        <time>2018-07-22T13:28:44Z</time>
      </trkpt>
      <trkpt lat="41.088050" lon="-3.774767">
        <ele>2477.0</ele>
        <time>2018-07-22T13:28:45Z</time>
      </trkpt>
      <trkpt lat="41.088133" lon="-3.774767">
        <ele>2478.0</ele>
        <time>2018-07-22T13:28:46Z</time>
      </trkpt>
      <trkpt lat="41.088233" lon="-3.774733">
        <ele>2481.0</ele>
        <time>2018-07-22T13:28:47Z</time>
      </trkpt>
      <trkpt lat="41.088333" lon="-3.774650">
        <ele>2484.0</ele>
        <time>2018-07-22T13:28:48Z</time>
      </trkpt>
      <trkpt lat="41.088417" lon="-3.774533">
        <ele>2488.0</ele>
        <time>2018-07-22T13:28:49Z</time>
      </trkpt>
      <trkpt lat="41.088467" lon="-3.774383">
        <ele>2493.0</ele>
        <time>2018-07-22T13:28:50Z</time>
      </trkpt>
      <trkpt lat="41.088467" lon="-3.774250">
        <ele>2498.0</ele>
        <time>2018-07-22T13:28:51Z</time>
      </trkpt>
      <trkpt lat="41.088433" lon="-3.774117">
        <ele>2501.0</ele>
        <time>2018-07-22T13:28:52Z</time>
      </trkpt>
      <trkpt lat="41.088383" lon="-3.774000">
        <ele>2503.0</ele>
        <time>2018-07-22T13:28:53Z</time>
      </trkpt>
      <trkpt lat="41.088333" lon="-3.773883">
        <ele>2505.0</ele>
        <time>2018-07-22T13:28:54Z</time>
      </trkpt>
      <trkpt lat="41.088267" lon="-3.773750">
        <ele>2507.0</ele>
        <time>2018-07-22T13:28:55Z</time>
      </trkpt>
      <trkpt lat="41.088183" lon="-3.773633">
        <ele>2510.0</ele>
        <time>2018-07-22T13:28:56Z</time>
      </trkpt>
      <trkpt lat="41.088083" lon="-3.773550">
        <ele>2512.0</ele>
        <time>2018-07-22T13:28:57Z</time>
      </trkpt>
      <trkpt lat="41.087967" lon="-3.773500">
        <ele>2514.0</ele>
        <time>2018-07-22T13:28:58Z</time>
      </trkpt>
      <trkpt lat="41.087850" lon="-3.773500">
        <ele>2516.0</ele>
        <time>2018-07-22T13:28:59Z</time>
      </trkpt>
      <trkpt lat="41.087733" lon="-3.773517">
        <ele>2518.0</ele>
        <time>2018-07-22T13:29:00Z</time>
      </trkpt>
      <trkpt lat="41.087633" lon="-3.773567">
        <ele>2522.0</ele>
        <time>2018-07-22T13:29:01Z</time>
      </trkpt>
      <trkpt lat="41.087533" lon="-3.773633">
        <ele>2525.0</ele>
        <time>2018-07-22T13:29:02Z</time>
      </trkpt>
      <trkpt lat="41.087467" lon="-3.773717">
        <ele>2529.0</ele>
        <time>2018-07-22T13:29:03Z</time>
      </trkpt>
      <trkpt lat="41.087417" lon="-3.773800">
        <ele>2531.0</ele>
        <time>2018-07-22T13:29:04Z</time>
      </trkpt>
      <trkpt lat="41.087383" lon="-3.773900">
        <ele>2532.0</ele>
        <time>2018-07-22T13:29:05Z</time>
      </trkpt>
      <trkpt lat="41.087367" lon="-3.773983">
        <ele>2535.0</ele>
        <time>2018-07-22T13:29:06Z</time>
      </trkpt>
      <trkpt lat="41.087367" lon="-3.774067">
        <ele>2537.0</ele>
        <time>2018-07-22T13:29:07Z</time>
      </trkpt>
      <trkpt lat="41.087383" lon="-3.774150">
        <ele>2539.0</ele>
        <time>2018-07-22T13:29:08Z</time>
      </trkpt>
      <trkpt lat="41.087417" lon="-3.774233">
        <ele>2540.0</ele>
        <time>2018-07-22T13:29:09Z</time>
      </trkpt>
      <trkpt lat="41.087483" lon="-3.774300">
        <ele>2541.0</ele>
        <time>2018-07-22T13:29:10Z</time>
      </trkpt>
      <trkpt lat="41.087567" lon="-3.774350">
        <ele>2541.0</ele>
        <time>2018-07-22T13:29:11Z</time>
      </trkpt>
      <trkpt lat="41.087650" lon="-3.774383">
        <ele>2543.0</ele>
        <time>2018-07-22T13:29:12Z</time>
      </trkpt>
      <trkpt lat="41.087733" lon="-3.774417">
        <ele>2543.0</ele>
        <time>2018-07-22T13:29:13Z</time>
      </trkpt>
      <trkpt lat="41.087850" lon="-3.774417">
        <ele>2544.0</ele>
        <time>2018-07-22T13:29:14Z</time>
      </trkpt>
      <trkpt lat="41.087950" lon="-3.774383">
        <ele>2543.0</ele>
        <time>2018-07-22T13:29:15Z</time>
      </trkpt>
      <trkpt lat="41.088067" lon="-3.774317">
        <ele>2543.0</ele>
        <time>2018-07-22T13:29:16Z</time>
      </trkpt>
      <trkpt lat="41.088167" lon="-3.774217">
        <ele>2544.0</ele>
        <time>2018-07-22T13:29:17Z</time>
      </trkpt>
      <trkpt lat="41.088267" lon="-3.774100">
        <ele>2545.0</ele>
        <time>2018-07-22T13:29:18Z</time>
      </trkpt>
      <trkpt lat="41.088333" lon="-3.773950">
        <ele>2549.0</ele>
        <time>2018-07-22T13:29:19Z</time>
      </trkpt>
      <trkpt lat="41.088350" lon="-3.773800">
        <ele>2554.0</ele>
        <time>2018-07-22T13:29:20Z</time>
      </trkpt>
      <trkpt lat="41.088367" lon="-3.773667">
        <ele>2559.0</ele>
        <time>2018-07-22T13:29:21Z</time>
      </trkpt>
      <trkpt lat="41.088367" lon="-3.773567">
        <ele>2563.0</ele>
        <time>2018-07-22T13:29:22Z</time>
      </trkpt>
      <trkpt lat="41.088367" lon="-3.773467">
        <ele>2565.0</ele>
        <time>2018-07-22T13:29:23Z</time>
      </trkpt>
      <trkpt lat="41.088383" lon="-3.773350">
        <ele>2566.0</ele>
        <time>2018-07-22T13:29:24Z</time>
      </trkpt>
      <trkpt lat="41.088400" lon="-3.773217">
        <ele>2566.0</ele>
        <time>2018-07-22T13:29:25Z</time>
      </trkpt>
      <trkpt lat="41.088383" lon="-3.773067">
        <ele>2567.0</ele>
        <time>2018-07-22T13:29:26Z</time>
      </trkpt>
      <trkpt lat="41.088333" lon="-3.772933">
        <ele>2568.0</ele>
        <time>2018-07-22T13:29:27Z</time>
      </trkpt>
      <trkpt lat="41.088267" lon="-3.772817">
        <ele>2569.0</ele>
        <time>2018-07-22T13:29:28Z</time>
      </trkpt>
      <trkpt lat="41.088167" lon="-3.772717">
        <ele>2570.0</ele>
        <time>2018-07-22T13:29:29Z</time>
      </trkpt>
      <trkpt lat="41.088067" lon="-3.772650">
        <ele>2572.0</ele>
        <time>2018-07-22T13:29:30Z</time>
      </trkpt>
      <trkpt lat="41.087983" lon="-3.772600">
        <ele>2574.0</ele>
        <time>2018-07-22T13:29:31Z</time>
      </trkpt>
      <trkpt lat="41.087900" lon="-3.772550">
        <ele>2576.0</ele>
        <time>2018-07-22T13:29:32Z</time>
      </trkpt>
      <trkpt lat="41.087800" lon="-3.772533">
        <ele>2577.0</ele>
        <time>2018-07-22T13:29:33Z</time>
      </trkpt>
      <trkpt lat="41.087700" lon="-3.772517">
        <ele>2580.0</ele>
        <time>2018-07-22T13:29:34Z</time>
      </trkpt>
      <trkpt lat="41.087617" lon="-3.772483">
        <ele>2584.0</ele>
        <time>2018-07-22T13:29:35Z</time>
      </trkpt>
      <trkpt lat="41.087533" lon="-3.772467">
        <ele>2586.0</ele>
        <time>2018-07-22T13:29:36Z</time>
      </trkpt>
      <trkpt lat="41.087467" lon="-3.772467">
        <ele>2588.0</ele>
        <time>2018-07-22T13:29:37Z</time>
      </trkpt>
      <trkpt lat="41.087383" lon="-3.772467">
        <ele>2589.0</ele>
        <time>2018-07-22T13:29:38Z</time>
      </trkpt>
      <trkpt lat="41.087300" lon="-3.772483">
        <ele>2589.0</ele>
        <time>2018-07-22T13:29:39Z</time>
      </trkpt>
      <trkpt lat="41.087200" lon="-3.772500">
        <ele>2590.0</ele>
        <time>2018-07-22T13:29:40Z</time>
      </trkpt>
      <trkpt lat="41.087117" lon="-3.772550">
        <ele>2591.0</ele>
        <time>2018-07-22T13:29:41Z</time>
      </trkpt>
      <trkpt lat="41.087050" lon="-3.772600">
        <ele>2593.0</ele>
        <time>2018-07-22T13:29:42Z</time>
      </trkpt>
      <trkpt lat="41.087000" lon="-3.772667">
        <ele>2595.0</ele>
        <time>2018-07-22T13:29:43Z</time>
      </trkpt>
      <trkpt lat="41.086967" lon="-3.772733">
        <ele>2597.0</ele>
        <time>2018-07-22T13:29:44Z</time>
      </trkpt>
      <trkpt lat="41.086950" lon="-3.772800">
        <ele>2598.0</ele>
        <time>2018-07-22T13:29:45Z</time>
      </trkpt>
      <trkpt lat="41.086950" lon="-3.772883">
        <ele>2598.0</ele>
        <time>2018-07-22T13:29:46Z</time>
      </trkpt>
      <trkpt lat="41.086933" lon="-3.772967">
        <ele>2599.0</ele>
        <time>2018-07-22T13:29:47Z</time>
      </trkpt>
      <trkpt lat="41.086933" lon="-3.773033">
        <ele>2599.0</ele>
        <time>2018-07-22T13:29:48Z</time>
      </trkpt>
      <trkpt lat="41.086933" lon="-3.773100">
        <ele>2600.0</ele>
        <time>2018-07-22T13:29:49Z</time>
      </trkpt>
      <trkpt lat="41.086917" lon="-3.773167">
        <ele>2600.0</ele>
        <time>2018-07-22T13:29:50Z</time>
      </trkpt>
      <trkpt lat="41.086900" lon="-3.773233">
        <ele>2599.0</ele>
        <time>2018-07-22T13:29:51Z</time>
      </trkpt>
      <trkpt lat="41.086883" lon="-3.773317">
        <ele>2598.0</ele>
        <time>2018-07-22T13:29:52Z</time>
      </trkpt>
      <trkpt lat="41.086883" lon="-3.773417">
        <ele>2597.0</ele>
        <time>2018-07-22T13:29:53Z</time>
      </trkpt>
      <trkpt lat="41.086883" lon="-3.773500">
        <ele>2597.0</ele>
        <time>2018-07-22T13:29:54Z</time>
      </trkpt>
      <trkpt lat="41.086917" lon="-3.773567">
        <ele>2596.0</ele>
        <time>2018-07-22T13:29:55Z</time>
      </trkpt>
      <trkpt lat="41.086933" lon="-3.773650">
        <ele>2596.0</ele>
        <time>2018-07-22T13:29:56Z</time>
      </trkpt>
      <trkpt lat="41.086950" lon="-3.773717">
        <ele>2595.0</ele>
        <time>2018-07-22T13:29:57Z</time>
      </trkpt>
      <trkpt lat="41.086967" lon="-3.773800">
        <ele>2594.0</ele>
        <time>2018-07-22T13:29:58Z</time>
      </trkpt>
      <trkpt lat="41.087000" lon="-3.773883">
        <ele>2593.0</ele>
        <time>2018-07-22T13:29:59Z</time>
      </trkpt>
      <trkpt lat="41.087033" lon="-3.773950">
        <ele>2592.0</ele>
        <time>2018-07-22T13:30:00Z</time>
      </trkpt>
      <trkpt lat="41.087067" lon="-3.774033">
        <ele>2592.0</ele>
        <time>2018-07-22T13:30:01Z</time>
      </trkpt>
      <trkpt lat="41.087117" lon="-3.774117">
        <ele>2592.0</ele>
        <time>2018-07-22T13:30:02Z</time>
      </trkpt>
      <trkpt lat="41.087150" lon="-3.774183">
        <ele>2592.0</ele>
        <time>2018-07-22T13:30:03Z</time>
      </trkpt>
      <trkpt lat="41.087183" lon="-3.774267">
        <ele>2592.0</ele>
        <time>2018-07-22T13:30:04Z</time>
      </trkpt>
      <trkpt lat="41.087217" lon="-3.774350">
        <ele>2592.0</ele>
        <time>2018-07-22T13:30:05Z</time>
      </trkpt>
      <trkpt lat="41.087267" lon="-3.774417">
        <ele>2591.0</ele>
        <time>2018-07-22T13:30:06Z</time>
      </trkpt>
      <trkpt lat="41.087317" lon="-3.774483">
        <ele>2590.0</ele>
        <time>2018-07-22T13:30:07Z</time>
      </trkpt>
      <trkpt lat="41.087367" lon="-3.774550">
        <ele>2590.0</ele>
        <time>2018-07-22T13:30:08Z</time>
      </trkpt>
      <trkpt lat="41.087433" lon="-3.774633">
        <ele>2590.0</ele>
        <time>2018-07-22T13:30:09Z</time>
      </trkpt>
      <trkpt lat="41.087500" lon="-3.774700">
        <ele>2591.0</ele>
        <time>2018-07-22T13:30:10Z</time>
      </trkpt>
      <trkpt lat="41.087583" lon="-3.774767">
        <ele>2592.0</ele>
        <time>2018-07-22T13:30:11Z</time>
      </trkpt>
      <trkpt lat="41.087650" lon="-3.774817">
        <ele>2594.0</ele>
        <time>2018-07-22T13:30:12Z</time>
      </trkpt>
      <trkpt lat="41.087717" lon="-3.774867">
        <ele>2595.0</ele>
        <time>2018-07-22T13:30:13Z</time>
      </trkpt>
      <trkpt lat="41.087783" lon="-3.774900">
        <ele>2596.0</ele>
        <time>2018-07-22T13:30:14Z</time>
      </trkpt>
      <trkpt lat="41.087850" lon="-3.774933">
        <ele>2596.0</ele>
        <time>2018-07-22T13:30:15Z</time>
      </trkpt>
      <trkpt lat="41.087933" lon="-3.774967">
        <ele>2596.0</ele>
        <time>2018-07-22T13:30:16Z</time>
      </trkpt>
      <trkpt lat="41.088017" lon="-3.775017">
        <ele>2596.0</ele>
        <time>2018-07-22T13:30:17Z</time>
      </trkpt>
      <trkpt lat="41.088117" lon="-3.775050">
        <ele>2598.0</ele>
        <time>2018-07-22T13:30:18Z</time>
      </trkpt>
      <trkpt lat="41.088217" lon="-3.775100">
        <ele>2600.0</ele>
        <time>2018-07-22T13:30:19Z</time>
      </trkpt>
      <trkpt lat="41.088317" lon="-3.775133">
        <ele>2603.0</ele>
        <time>2018-07-22T13:30:20Z</time>
      </trkpt>
      <trkpt lat="41.088417" lon="-3.775167">
        <ele>2606.0</ele>
        <time>2018-07-22T13:30:21Z</time>
      </trkpt>
      <trkpt lat="41.088500" lon="-3.775217">
        <ele>2609.0</ele>
        <time>2018-07-22T13:30:22Z</time>
      </trkpt>
      <trkpt lat="41.088583" lon="-3.775250">
        <ele>2611.0</ele>
        <time>2018-07-22T13:30:23Z</time>
      </trkpt>
      <trkpt lat="41.088667" lon="-3.775300">
        <ele>2613.0</ele>
        <time>2018-07-22T13:30:24Z</time>
      </trkpt>
      <trkpt lat="41.088750" lon="-3.775350">
        <ele>2615.0</ele>
        <time>2018-07-22T13:30:25Z</time>
      </trkpt>
      <trkpt lat="41.088833" lon="-3.775367">
        <ele>2617.0</ele>
        <time>2018-07-22T13:30:26Z</time>
      </trkpt>
      <trkpt lat="41.088917" lon="-3.775350">
        <ele>2619.0</ele>
        <time>2018-07-22T13:30:27Z</time>
      </trkpt>
      <trkpt lat="41.089000" lon="-3.775300">
        <ele>2619.0</ele>
        <time>2018-07-22T13:30:28Z</time>
      </trkpt>
      <trkpt lat="41.089067" lon="-3.775217">
        <ele>2620.0</ele>
        <time>2018-07-22T13:30:29Z</time>
      </trkpt>
      <trkpt lat="41.089117" lon="-3.775117">
        <ele>2620.0</ele>
        <time>2018-07-22T13:30:30Z</time>
      </trkpt>
      <trkpt lat="41.089150" lon="-3.775000">
        <ele>2622.0</ele>
        <time>2018-07-22T13:30:31Z</time>
      </trkpt>
      <trkpt lat="41.089183" lon="-3.774883">
        <ele>2623.0</ele>
        <time>2018-07-22T13:30:32Z</time>
      </trkpt>
      <trkpt lat="41.089183" lon="-3.774750">
        <ele>2624.0</ele>
        <time>2018-07-22T13:30:33Z</time>
      </trkpt>
      <trkpt lat="41.089150" lon="-3.774617">
        <ele>2625.0</ele>
        <time>2018-07-22T13:30:34Z</time>
      </trkpt>
      <trkpt lat="41.089100" lon="-3.774500">
        <ele>2626.0</ele>
        <time>2018-07-22T13:30:35Z</time>
      </trkpt>
      <trkpt lat="41.089033" lon="-3.774383">
        <ele>2628.0</ele>
        <time>2018-07-22T13:30:36Z</time>
      </trkpt>
      <trkpt lat="41.088967" lon="-3.774317">
        <ele>2629.0</ele>
        <time>2018-07-22T13:30:37Z</time>
      </trkpt>
      <trkpt lat="41.088883" lon="-3.774250">
        <ele>2630.0</ele>
        <time>2018-07-22T13:30:38Z</time>
      </trkpt>
      <trkpt lat="41.088783" lon="-3.774200">
        <ele>2630.0</ele>
        <time>2018-07-22T13:30:39Z</time>
      </trkpt>
      <trkpt lat="41.088683" lon="-3.774183">
        <ele>2630.0</ele>
        <time>2018-07-22T13:30:40Z</time>
      </trkpt>
      <trkpt lat="41.088550" lon="-3.774183">
        <ele>2631.0</ele>
        <time>2018-07-22T13:30:41Z</time>
      </trkpt>
      <trkpt lat="41.088450" lon="-3.774183">
        <ele>2634.0</ele>
        <time>2018-07-22T13:30:42Z</time>
      </trkpt>
      <trkpt lat="41.088350" lon="-3.774200">
        <ele>2638.0</ele>
        <time>2018-07-22T13:30:43Z</time>
      </trkpt>
      <trkpt lat="41.088250" lon="-3.774200">
        <ele>2642.0</ele>
        <time>2018-07-22T13:30:44Z</time>
      </trkpt>
      <trkpt lat="41.088183" lon="-3.774217">
        <ele>2644.0</ele>
        <time>2018-07-22T13:30:45Z</time>
      </trkpt>
      <trkpt lat="41.088100" lon="-3.774217">
        <ele>2645.0</ele>
        <time>2018-07-22T13:30:46Z</time>
      </trkpt>
      <trkpt lat="41.088017" lon="-3.774233">
        <ele>2645.0</ele>
        <time>2018-07-22T13:30:47Z</time>
      </trkpt>
      <trkpt lat="41.087917" lon="-3.774283">
        <ele>2646.0</ele>
        <time>2018-07-22T13:30:48Z</time>
      </trkpt>
      <trkpt lat="41.087833" lon="-3.774350">
        <ele>2648.0</ele>
        <time>2018-07-22T13:30:49Z</time>
      </trkpt>
      <trkpt lat="41.087767" lon="-3.774450">
        <ele>2651.0</ele>
        <time>2018-07-22T13:30:50Z</time>
      </trkpt>
      <trkpt lat="41.087733" lon="-3.774533">
        <ele>2652.0</ele>
        <time>2018-07-22T13:30:51Z</time>
      </trkpt>
      <trkpt lat="41.087717" lon="-3.774633">
        <ele>2653.0</ele>
        <time>2018-07-22T13:30:52Z</time>
      </trkpt>
      <trkpt lat="41.087717" lon="-3.774750">
        <ele>2653.0</ele>
        <time>2018-07-22T13:30:53Z</time>
      </trkpt>
      <trkpt lat="41.087733" lon="-3.774867">
        <ele>2652.0</ele>
        <time>2018-07-22T13:30:54Z</time>
      </trkpt>
      <trkpt lat="41.087783" lon="-3.774983">
        <ele>2650.0</ele>
        <time>2018-07-22T13:30:55Z</time>
      </trkpt>
      <trkpt lat="41.087833" lon="-3.775100">
        <ele>2650.0</ele>
        <time>2018-07-22T13:30:56Z</time>
      </trkpt>
      <trkpt lat="41.087900" lon="-3.775217">
        <ele>2650.0</ele>
        <time>2018-07-22T13:30:57Z</time>
      </trkpt>
      <trkpt lat="41.087967" lon="-3.775300">
        <ele>2650.0</ele>
        <time>2018-07-22T13:30:58Z</time>
      </trkpt>
      <trkpt lat="41.088050" lon="-3.775367">
        <ele>2651.0</ele>
        <time>2018-07-22T13:30:59Z</time>
      </trkpt>
      <trkpt lat="41.088133" lon="-3.775400">
        <ele>2652.0</ele>
        <time>2018-07-22T13:31:00Z</time>
      </trkpt>
      <trkpt lat="41.088217" lon="-3.775433">
        <ele>2654.0</ele>
        <time>2018-07-22T13:31:01Z</time>
      </trkpt>
      <trkpt lat="41.088300" lon="-3.775433">
        <ele>2655.0</ele>
        <time>2018-07-22T13:31:02Z</time>
      </trkpt>
      <trkpt lat="41.088367" lon="-3.775433">
        <ele>2657.0</ele>
        <time>2018-07-22T13:31:03Z</time>
      </trkpt>
      <trkpt lat="41.088450" lon="-3.775433">
        <ele>2658.0</ele>
        <time>2018-07-22T13:31:04Z</time>
      </trkpt>
      <trkpt lat="41.088533" lon="-3.775400">
        <ele>2659.0</ele>
        <time>2018-07-22T13:31:05Z</time>
      </trkpt>
      <trkpt lat="41.088617" lon="-3.775367">
        <ele>2660.0</ele>
        <time>2018-07-22T13:31:06Z</time>
      </trkpt>
      <trkpt lat="41.088683" lon="-3.775317">
        <ele>2661.0</ele>
        <time>2018-07-22T13:31:07Z</time>
      </trkpt>
      <trkpt lat="41.088750" lon="-3.775250">
        <ele>2661.0</ele>
        <time>2018-07-22T13:31:08Z</time>
      </trkpt>
      <trkpt lat="41.088817" lon="-3.775150">
        <ele>2661.0</ele>
        <time>2018-07-22T13:31:09Z</time>
      </trkpt>
      <trkpt lat="41.088867" lon="-3.775067">
        <ele>2662.0</ele>
        <time>2018-07-22T13:31:10Z</time>
      </trkpt>
      <trkpt lat="41.088917" lon="-3.774967">
        <ele>2662.0</ele>
        <time>2018-07-22T13:31:11Z</time>
      </trkpt>
      <trkpt lat="41.088950" lon="-3.774867">
        <ele>2663.0</ele>
        <time>2018-07-22T13:31:12Z</time>
      </trkpt>
      <trkpt lat="41.088967" lon="-3.774733">
        <ele>2662.0</ele>
        <time>2018-07-22T13:31:13Z</time>
      </trkpt>
      <trkpt lat="41.088983" lon="-3.774600">
        <ele>2662.0</ele>
        <time>2018-07-22T13:31:14Z</time>
      </trkpt>
      <trkpt lat="41.088967" lon="-3.774450">
        <ele>2662.0</ele>
        <time>2018-07-22T13:31:15Z</time>
      </trkpt>
      <trkpt lat="41.088933" lon="-3.774300">
        <ele>2664.0</ele>
        <time>2018-07-22T13:31:16Z</time>
      </trkpt>
      <trkpt lat="41.088900" lon="-3.774167">
        <ele>2666.0</ele>
        <time>2018-07-22T13:31:17Z</time>
      </trkpt>
      <trkpt lat="41.088850" lon="-3.774050">
        <ele>2668.0</ele>
        <time>2018-07-22T13:31:18Z</time>
      </trkpt>
      <trkpt lat="41.088817" lon="-3.773933">
        <ele>2670.0</ele>
        <time>2018-07-22T13:31:19Z</time>
      </trkpt>
      <trkpt lat="41.088800" lon="-3.773817">
        <ele>2671.0</ele>
        <time>2018-07-22T13:31:20Z</time>
      </trkpt>
      <trkpt lat="41.088767" lon="-3.773717">
        <ele>2671.0</ele>
        <time>2018-07-22T13:31:21Z</time>
      </trkpt>
      <trkpt lat="41.088733" lon="-3.773600">
        <ele>2671.0</ele>
        <time>2018-07-22T13:31:22Z</time>
      </trkpt>
      <trkpt lat="41.088683" lon="-3.773483">
        <ele>2671.0</ele>
        <time>2018-07-22T13:31:23Z</time>
      </trkpt>
      <trkpt lat="41.088633" lon="-3.773367">
        <ele>2670.0</ele>
        <time>2018-07-22T13:31:24Z</time>
      </trkpt>
      <trkpt lat="41.088583" lon="-3.773267">
        <ele>2671.0</ele>
        <time>2018-07-22T13:31:25Z</time>
      </trkpt>
      <trkpt lat="41.088517" lon="-3.773167">
        <ele>2671.0</ele>
        <time>2018-07-22T13:31:26Z</time>
      </trkpt>
      <trkpt lat="41.088450" lon="-3.773083">
        <ele>2671.0</ele>
        <time>2018-07-22T13:31:27Z</time>
      </trkpt>
      <trkpt lat="41.088383" lon="-3.773017">
        <ele>2672.0</ele>
        <time>2018-07-22T13:31:28Z</time>
      </trkpt>
      <trkpt lat="41.088300" lon="-3.772967">
        <ele>2673.0</ele>
        <time>2018-07-22T13:31:29Z</time>
      </trkpt>
      <trkpt lat="41.088217" lon="-3.772933">
        <ele>2674.0</ele>
        <time>2018-07-22T13:31:30Z</time>
      </trkpt>
      <trkpt lat="41.088133" lon="-3.772933">
        <ele>2675.0</ele>
        <time>2018-07-22T13:31:31Z</time>
      </trkpt>
      <trkpt lat="41.088050" lon="-3.772933">
        <ele>2674.0</ele>
        <time>2018-07-22T13:31:32Z</time>
      </trkpt>
      <trkpt lat="41.087967" lon="-3.772983">
        <ele>2673.0</ele>
        <time>2018-07-22T13:31:33Z</time>
      </trkpt>
      <trkpt lat="41.087900" lon="-3.773050">
        <ele>2671.0</ele>
        <time>2018-07-22T13:31:34Z</time>
      </trkpt>
      <trkpt lat="41.087833" lon="-3.773117">
        <ele>2671.0</ele>
        <time>2018-07-22T13:31:35Z</time>
      </trkpt>
      <trkpt lat="41.087783" lon="-3.773200">
        <ele>2671.0</ele>
        <time>2018-07-22T13:31:36Z</time>
      </trkpt>
      <trkpt lat="41.087733" lon="-3.773267">
        <ele>2671.0</ele>
        <time>2018-07-22T13:31:37Z</time>
      </trkpt>
      <trkpt lat="41.087683" lon="-3.773333">
        <ele>2670.0</ele>
        <time>2018-07-22T13:31:38Z</time>
      </trkpt>
      <trkpt lat="41.087650" lon="-3.773417">
        <ele>2669.0</ele>
        <time>2018-07-22T13:31:39Z</time>
      </trkpt>
      <trkpt lat="41.087617" lon="-3.773500">
        <ele>2667.0</ele>
        <time>2018-07-22T13:31:40Z</time>
      </trkpt>
      <trkpt lat="41.087600" lon="-3.773600">
        <ele>2665.0</ele>
        <time>2018-07-22T13:31:41Z</time>
      </trkpt>
      <trkpt lat="41.087567" lon="-3.773717">
        <ele>2662.0</ele>
        <time>2018-07-22T13:31:42Z</time>
      </trkpt>
      <trkpt lat="41.087567" lon="-3.773850">
        <ele>2661.0</ele>
        <time>2018-07-22T13:31:43Z</time>
      </trkpt>
      <trkpt lat="41.087567" lon="-3.773983">
        <ele>2660.0</ele>
        <time>2018-07-22T13:31:44Z</time>
      </trkpt>
      <trkpt lat="41.087583" lon="-3.774133">
        <ele>2660.0</ele>
        <time>2018-07-22T13:31:45Z</time>
      </trkpt>
      <trkpt lat="41.087600" lon="-3.774267">
        <ele>2661.0</ele>
        <time>2018-07-22T13:31:46Z</time>
      </trkpt>
      <trkpt lat="41.087633" lon="-3.774383">
        <ele>2662.0</ele>
        <time>2018-07-22T13:31:47Z</time>
      </trkpt>
      <trkpt lat="41.087650" lon="-3.774483">
        <ele>2662.0</ele>
        <time>2018-07-22T13:31:48Z</time>
      </trkpt>
      <trkpt lat="41.087683" lon="-3.774600">
        <ele>2661.0</ele>
        <time>2018-07-22T13:31:49Z</time>
      </trkpt>
      <trkpt lat="41.087717" lon="-3.774733">
        <ele>2659.0</ele>
        <time>2018-07-22T13:31:50Z</time>
      </trkpt>
      <trkpt lat="41.087767" lon="-3.774850">
        <ele>2657.0</ele>
        <time>2018-07-22T13:31:51Z</time>
      </trkpt>
      <trkpt lat="41.087833" lon="-3.774983">
        <ele>2656.0</ele>
        <time>2018-07-22T13:31:52Z</time>
      </trkpt>
      <trkpt lat="41.087900" lon="-3.775083">
        <ele>2655.0</ele>
        <time>2018-07-22T13:31:53Z</time>
      </trkpt>
      <trkpt lat="41.087983" lon="-3.775150">
        <ele>2654.0</ele>
        <time>2018-07-22T13:31:54Z</time>
      </trkpt>
      <trkpt lat="41.088083" lon="-3.775200">
        <ele>2653.0</ele>
        <time>2018-07-22T13:31:55Z</time>
      </trkpt>
      <trkpt lat="41.088167" lon="-3.775250">
        <ele>2653.0</ele>
        <time>2018-07-22T13:31:56Z</time>
      </trkpt>
      <trkpt lat="41.088250" lon="-3.775283">
        <ele>2653.0</ele>
        <time>2018-07-22T13:31:57Z</time>
      </trkpt>
      <trkpt lat="41.088333" lon="-3.775300">
        <ele>2654.0</ele>
        <time>2018-07-22T13:31:58Z</time>
      </trkpt>
      <trkpt lat="41.088417" lon="-3.775300">
        <ele>2654.0</ele>
        <time>2018-07-22T13:31:59Z</time>
      </trkpt>
      <trkpt lat="41.088500" lon="-3.775317">
        <ele>2655.0</ele>
        <time>2018-07-22T13:32:00Z</time>
      </trkpt>
      <trkpt lat="41.088583" lon="-3.775317">
        <ele>2655.0</ele>
        <time>2018-07-22T13:32:01Z</time>
      </trkpt>
      <trkpt lat="41.088667" lon="-3.775317">
        <ele>2655.0</ele>
        <time>2018-07-22T13:32:02Z</time>
      </trkpt>
      <trkpt lat="41.088750" lon="-3.775317">
        <ele>2655.0</ele>
        <time>2018-07-22T13:32:03Z</time>
      </trkpt>
      <trkpt lat="41.088833" lon="-3.775300">
        <ele>2655.0</ele>
        <time>2018-07-22T13:32:04Z</time>
      </trkpt>
      <trkpt lat="41.088933" lon="-3.775267">
        <ele>2655.0</ele>
        <time>2018-07-22T13:32:05Z</time>
      </trkpt>
      <trkpt lat="41.089017" lon="-3.775217">
        <ele>2656.0</ele>
        <time>2018-07-22T13:32:06Z</time>
      </trkpt>
      <trkpt lat="41.089100" lon="-3.775183">
        <ele>2657.0</ele>
        <time>2018-07-22T13:32:07Z</time>
      </trkpt>
      <trkpt lat="41.089183" lon="-3.775150">
        <ele>2658.0</ele>
        <time>2018-07-22T13:32:08Z</time>
      </trkpt>
      <trkpt lat="41.089267" lon="-3.775133">
        <ele>2659.0</ele>
        <time>2018-07-22T13:32:09Z</time>
      </trkpt>
      <trkpt lat="41.089367" lon="-3.775100">
        <ele>2660.0</ele>
        <time>2018-07-22T13:32:10Z</time>
      </trkpt>
      <trkpt lat="41.089450" lon="-3.775083">
        <ele>2660.0</ele>
        <time>2018-07-22T13:32:11Z</time>
      </trkpt>
      <trkpt lat="41.089533" lon="-3.775050">
        <ele>2661.0</ele>
        <time>2018-07-22T13:32:12Z</time>
      </trkpt>
      <trkpt lat="41.089617" lon="-3.775033">
        <ele>2661.0</ele>
        <time>2018-07-22T13:32:13Z</time>
      </trkpt>
      <trkpt lat="41.089717" lon="-3.775033">
        <ele>2661.0</ele>
        <time>2018-07-22T13:32:14Z</time>
      </trkpt>
      <trkpt lat="41.089800" lon="-3.775083">
        <ele>2661.0</ele>
        <time>2018-07-22T13:32:15Z</time>
      </trkpt>
      <trkpt lat="41.089900" lon="-3.775150">
        <ele>2662.0</ele>
        <time>2018-07-22T13:32:16Z</time>
      </trkpt>
      <trkpt lat="41.089967" lon="-3.775233">
        <ele>2662.0</ele>
        <time>2018-07-22T13:32:17Z</time>
      </trkpt>
      <trkpt lat="41.090033" lon="-3.775333">
        <ele>2664.0</ele>
        <time>2018-07-22T13:32:18Z</time>
      </trkpt>
      <trkpt lat="41.090067" lon="-3.775417">
        <ele>2665.0</ele>
        <time>2018-07-22T13:32:19Z</time>
      </trkpt>
      <trkpt lat="41.090067" lon="-3.775517">
        <ele>2664.0</ele>
        <time>2018-07-22T13:32:20Z</time>
      </trkpt>
      <trkpt lat="41.090050" lon="-3.775633">
        <ele>2662.0</ele>
        <time>2018-07-22T13:32:21Z</time>
      </trkpt>
      <trkpt lat="41.090017" lon="-3.775733">
        <ele>2659.0</ele>
        <time>2018-07-22T13:32:22Z</time>
      </trkpt>
      <trkpt lat="41.089967" lon="-3.775850">
        <ele>2657.0</ele>
        <time>2018-07-22T13:32:23Z</time>
      </trkpt>
      <trkpt lat="41.089900" lon="-3.775933">
        <ele>2655.0</ele>
        <time>2018-07-22T13:32:24Z</time>
      </trkpt>
      <trkpt lat="41.089817" lon="-3.775983">
        <ele>2652.0</ele>
        <time>2018-07-22T13:32:25Z</time>
      </trkpt>
      <trkpt lat="41.089717" lon="-3.775983">
        <ele>2648.0</ele>
        <time>2018-07-22T13:32:26Z</time>
      </trkpt>
      <trkpt lat="41.089600" lon="-3.775967">
        <ele>2643.0</ele>
        <time>2018-07-22T13:32:27Z</time>
      </trkpt>
      <trkpt lat="41.089500" lon="-3.775900">
        <ele>2641.0</ele>
        <time>2018-07-22T13:32:28Z</time>
      </trkpt>
      <trkpt lat="41.089417" lon="-3.775800">
        <ele>2639.0</ele>
        <time>2018-07-22T13:32:29Z</time>
      </trkpt>
      <trkpt lat="41.089367" lon="-3.775683">
        <ele>2638.0</ele>
        <time>2018-07-22T13:32:30Z</time>
      </trkpt>
      <trkpt lat="41.089367" lon="-3.775533">
        <ele>2636.0</ele>
        <time>2018-07-22T13:32:31Z</time>
      </trkpt>
      <trkpt lat="41.089383" lon="-3.775417">
        <ele>2635.0</ele>
        <time>2018-07-22T13:32:32Z</time>
      </trkpt>
      <trkpt lat="41.089400" lon="-3.775300">
        <ele>2634.0</ele>
        <time>2018-07-22T13:32:33Z</time>
      </trkpt>
      <trkpt lat="41.089433" lon="-3.775183">
        <ele>2634.0</ele>
        <time>2018-07-22T13:32:34Z</time>
      </trkpt>
      <trkpt lat="41.089467" lon="-3.775083">
        <ele>2635.0</ele>
        <time>2018-07-22T13:32:35Z</time>
      </trkpt>
      <trkpt lat="41.089500" lon="-3.774983">
        <ele>2635.0</ele>
        <time>2018-07-22T13:32:36Z</time>
      </trkpt>
      <trkpt lat="41.089550" lon="-3.774900">
        <ele>2636.0</ele>
        <time>2018-07-22T13:32:37Z</time>
      </trkpt>
      <trkpt lat="41.089617" lon="-3.774800">
        <ele>2636.0</ele>
        <time>2018-07-22T13:32:38Z</time>
      </trkpt>
      <trkpt lat="41.089667" lon="-3.774733">
        <ele>2637.0</ele>
        <time>2018-07-22T13:32:39Z</time>
      </trkpt>
      <trkpt lat="41.089733" lon="-3.774667">
        <ele>2638.0</ele>
        <time>2018-07-22T13:32:40Z</time>
      </trkpt>
      <trkpt lat="41.089800" lon="-3.774617">
        <ele>2637.0</ele>
        <time>2018-07-22T13:32:41Z</time>
      </trkpt>
      <trkpt lat="41.089883" lon="-3.774567">
        <ele>2636.0</ele>
        <time>2018-07-22T13:32:42Z</time>
      </trkpt>
      <trkpt lat="41.089967" lon="-3.774550">
        <ele>2635.0</ele>
        <time>2018-07-22T13:32:43Z</time>
      </trkpt>
      <trkpt lat="41.090067" lon="-3.774533">
        <ele>2634.0</ele>
        <time>2018-07-22T13:32:44Z</time>
      </trkpt>
      <trkpt lat="41.090167" lon="-3.774533">
        <ele>2634.0</ele>
        <time>2018-07-22T13:32:45Z</time>
      </trkpt>
      <trkpt lat="41.090250" lon="-3.774533">
        <ele>2634.0</ele>
        <time>2018-07-22T13:32:46Z</time>
      </trkpt>
      <trkpt lat="41.090350" lon="-3.774533">
        <ele>2633.0</ele>
        <time>2018-07-22T13:32:47Z</time>
      </trkpt>
      <trkpt lat="41.090433" lon="-3.774533">
        <ele>2632.0</ele>
        <time>2018-07-22T13:32:48Z</time>
      </trkpt>
      <trkpt lat="41.090533" lon="-3.774533">
        <ele>2631.0</ele>
        <time>2018-07-22T13:32:49Z</time>
      </trkpt>
      <trkpt lat="41.090650" lon="-3.774533">
        <ele>2630.0</ele>
        <time>2018-07-22T13:32:50Z</time>
      </trkpt>
      <trkpt lat="41.090750" lon="-3.774533">
        <ele>2629.0</ele>
        <time>2018-07-22T13:32:51Z</time>
      </trkpt>
      <trkpt lat="41.090850" lon="-3.774533">
        <ele>2628.0</ele>
        <time>2018-07-22T13:32:52Z</time>
      </trkpt>
      <trkpt lat="41.090950" lon="-3.774533">
        <ele>2626.0</ele>
        <time>2018-07-22T13:32:53Z</time>
      </trkpt>
      <trkpt lat="41.091067" lon="-3.774550">
        <ele>2625.0</ele>
        <time>2018-07-22T13:32:54Z</time>
      </trkpt>
      <trkpt lat="41.091167" lon="-3.774550">
        <ele>2623.0</ele>
        <time>2018-07-22T13:32:55Z</time>
      </trkpt>
      <trkpt lat="41.091283" lon="-3.774533">
        <ele>2622.0</ele>
        <time>2018-07-22T13:32:56Z</time>
      </trkpt>
      <trkpt lat="41.091383" lon="-3.774533">
        <ele>2621.0</ele>
        <time>2018-07-22T13:32:57Z</time>
      </trkpt>
      <trkpt lat="41.091500" lon="-3.774533">
        <ele>2621.0</ele>
        <time>2018-07-22T13:32:58Z</time>
      </trkpt>
      <trkpt lat="41.091600" lon="-3.774533">
        <ele>2621.0</ele>
        <time>2018-07-22T13:32:59Z</time>
      </trkpt>
      <trkpt lat="41.091700" lon="-3.774517">
        <ele>2620.0</ele>
        <time>2018-07-22T13:33:00Z</time>
      </trkpt>
      <trkpt lat="41.091783" lon="-3.774517">
        <ele>2619.0</ele>
        <time>2018-07-22T13:33:01Z</time>
      </trkpt>
      <trkpt lat="41.091883" lon="-3.774500">
        <ele>2617.0</ele>
        <time>2018-07-22T13:33:02Z</time>
      </trkpt>
      <trkpt lat="41.092000" lon="-3.774483">
        <ele>2614.0</ele>
        <time>2018-07-22T13:33:03Z</time>
      </trkpt>
      <trkpt lat="41.092117" lon="-3.774450">
        <ele>2613.0</ele>
        <time>2018-07-22T13:33:04Z</time>
      </trkpt>
      <trkpt lat="41.092233" lon="-3.774417">
        <ele>2612.0</ele>
        <time>2018-07-22T13:33:05Z</time>
      </trkpt>
      <trkpt lat="41.092333" lon="-3.774383">
        <ele>2611.0</ele>
        <time>2018-07-22T13:33:06Z</time>
      </trkpt>
      <trkpt lat="41.092433" lon="-3.774350">
        <ele>2611.0</ele>
        <time>2018-07-22T13:33:07Z</time>
      </trkpt>
      <trkpt lat="41.092533" lon="-3.774333">
        <ele>2610.0</ele>
        <time>2018-07-22T13:33:08Z</time>
      </trkpt>
      <trkpt lat="41.092633" lon="-3.774317">
        <ele>2609.0</ele>
        <time>2018-07-22T13:33:09Z</time>
      </trkpt>
      <trkpt lat="41.092733" lon="-3.774317">
        <ele>2608.0</ele>
        <time>2018-07-22T13:33:10Z</time>
      </trkpt>
      <trkpt lat="41.092850" lon="-3.774300">
        <ele>2606.0</ele>
        <time>2018-07-22T13:33:11Z</time>
      </trkpt>
      <trkpt lat="41.092967" lon="-3.774300">
        <ele>2605.0</ele>
        <time>2018-07-22T13:33:12Z</time>
      </trkpt>
      <trkpt lat="41.093083" lon="-3.774300">
        <ele>2604.0</ele>
        <time>2018-07-22T13:33:13Z</time>
      </trkpt>
      <trkpt lat="41.093200" lon="-3.774283">
        <ele>2604.0</ele>
        <time>2018-07-22T13:33:14Z</time>
      </trkpt>
      <trkpt lat="41.093317" lon="-3.774267">
        <ele>2603.0</ele>
        <time>2018-07-22T13:33:15Z</time>
      </trkpt>
      <trkpt lat="41.093433" lon="-3.774250">
        <ele>2602.0</ele>
        <time>2018-07-22T13:33:16Z</time>
      </trkpt>
      <trkpt lat="41.093550" lon="-3.774233">
        <ele>2602.0</ele>
        <time>2018-07-22T13:33:17Z</time>
      </trkpt>
      <trkpt lat="41.093650" lon="-3.774200">
        <ele>2602.0</ele>
        <time>2018-07-22T13:33:18Z</time>
      </trkpt>
      <trkpt lat="41.093767" lon="-3.774167">
        <ele>2602.0</ele>
        <time>2018-07-22T13:33:19Z</time>
      </trkpt>
      <trkpt lat="41.093867" lon="-3.774133">
        <ele>2601.0</ele>
        <time>2018-07-22T13:33:20Z</time>
      </trkpt>
      <trkpt lat="41.093983" lon="-3.774100">
        <ele>2600.0</ele>
        <time>2018-07-22T13:33:21Z</time>
      </trkpt>
      <trkpt lat="41.094083" lon="-3.774050">
        <ele>2600.0</ele>
        <time>2018-07-22T13:33:22Z</time>
      </trkpt>
      <trkpt lat="41.094200" lon="-3.774000">
        <ele>2599.0</ele>
        <time>2018-07-22T13:33:23Z</time>
      </trkpt>
      <trkpt lat="41.094300" lon="-3.773950">
        <ele>2599.0</ele>
        <time>2018-07-22T13:33:24Z</time>
      </trkpt>
      <trkpt lat="41.094383" lon="-3.773900">
        <ele>2599.0</ele>
        <time>2018-07-22T13:33:25Z</time>
      </trkpt>
      <trkpt lat="41.094483" lon="-3.773850">
        <ele>2598.0</ele>
        <time>2018-07-22T13:33:26Z</time>
      </trkpt>
      <trkpt lat="41.094583" lon="-3.773817">
        <ele>2597.0</ele>
        <time>2018-07-22T13:33:27Z</time>
      </trkpt>
      <trkpt lat="41.094683" lon="-3.773783">
        <ele>2596.0</ele>
        <time>2018-07-22T13:33:28Z</time>
      </trkpt>
      <trkpt lat="41.094783" lon="-3.773767">
        <ele>2595.0</ele>
        <time>2018-07-22T13:33:29Z</time>
      </trkpt>
      <trkpt lat="41.094883" lon="-3.773733">
        <ele>2594.0</ele>
        <time>2018-07-22T13:33:30Z</time>
      </trkpt>
      <trkpt lat="41.094967" lon="-3.773717">
        <ele>2593.0</ele>
        <time>2018-07-22T13:33:31Z</time>
      </trkpt>
      <trkpt lat="41.095050" lon="-3.773667">
        <ele>2591.0</ele>
        <time>2018-07-22T13:33:32Z</time>
      </trkpt>
      <trkpt lat="41.095133" lon="-3.773633">
        <ele>2587.0</ele>
        <time>2018-07-22T13:33:33Z</time>
      </trkpt>
      <trkpt lat="41.095233" lon="-3.773600">
        <ele>2583.0</ele>
        <time>2018-07-22T13:33:34Z</time>
      </trkpt>
      <trkpt lat="41.095333" lon="-3.773533">
        <ele>2579.0</ele>
        <time>2018-07-22T13:33:35Z</time>
      </trkpt>
      <trkpt lat="41.095417" lon="-3.773467">
        <ele>2576.0</ele>
        <time>2018-07-22T13:33:36Z</time>
      </trkpt>
      <trkpt lat="41.095517" lon="-3.773383">
        <ele>2574.0</ele>
        <time>2018-07-22T13:33:37Z</time>
      </trkpt>
      <trkpt lat="41.095600" lon="-3.773333">
        <ele>2573.0</ele>
        <time>2018-07-22T13:33:38Z</time>
      </trkpt>
      <trkpt lat="41.095667" lon="-3.773300">
        <ele>2572.0</ele>
        <time>2018-07-22T13:33:39Z</time>
      </trkpt>
      <trkpt lat="41.095750" lon="-3.773267">
        <ele>2570.0</ele>
        <time>2018-07-22T13:33:40Z</time>
      </trkpt>
      <trkpt lat="41.095817" lon="-3.773233">
        <ele>2567.0</ele>
        <time>2018-07-22T13:33:41Z</time>
      </trkpt>
      <trkpt lat="41.095917" lon="-3.773183">
        <ele>2564.0</ele>
        <time>2018-07-22T13:33:42Z</time>
      </trkpt>
      <trkpt lat="41.096000" lon="-3.773133">
        <ele>2561.0</ele>
        <time>2018-07-22T13:33:43Z</time>
      </trkpt>
      <trkpt lat="41.096100" lon="-3.773083">
        <ele>2558.0</ele>
        <time>2018-07-22T13:33:44Z</time>
      </trkpt>
      <trkpt lat="41.096200" lon="-3.773050">
        <ele>2556.0</ele>
        <time>2018-07-22T13:33:45Z</time>
      </trkpt>
      <trkpt lat="41.096300" lon="-3.773017">
        <ele>2553.0</ele>
        <time>2018-07-22T13:33:46Z</time>
      </trkpt>
      <trkpt lat="41.096383" lon="-3.772983">
        <ele>2550.0</ele>
        <time>2018-07-22T13:33:47Z</time>
      </trkpt>
      <trkpt lat="41.096483" lon="-3.772950">
        <ele>2547.0</ele>
        <time>2018-07-22T13:33:48Z</time>
      </trkpt>
      <trkpt lat="41.096583" lon="-3.772917">
        <ele>2543.0</ele>
        <time>2018-07-22T13:33:49Z</time>
      </trkpt>
      <trkpt lat="41.096700" lon="-3.772883">
        <ele>2539.0</ele>
        <time>2018-07-22T13:33:50Z</time>
      </trkpt>
      <trkpt lat="41.096800" lon="-3.772883">
        <ele>2536.0</ele>
        <time>2018-07-22T13:33:51Z</time>
      </trkpt>
      <trkpt lat="41.096917" lon="-3.772867">
        <ele>2533.0</ele>
        <time>2018-07-22T13:33:52Z</time>
      </trkpt>
      <trkpt lat="41.097017" lon="-3.772867">
        <ele>2532.0</ele>
        <time>2018-07-22T13:33:53Z</time>
      </trkpt>
      <trkpt lat="41.097117" lon="-3.772850">
        <ele>2530.0</ele>
        <time>2018-07-22T13:33:54Z</time>
      </trkpt>
      <trkpt lat="41.097217" lon="-3.772850">
        <ele>2528.0</ele>
        <time>2018-07-22T13:33:55Z</time>
      </trkpt>
      <trkpt lat="41.097300" lon="-3.772833">
        <ele>2526.0</ele>
        <time>2018-07-22T13:33:56Z</time>
      </trkpt>
      <trkpt lat="41.097400" lon="-3.772817">
        <ele>2524.0</ele>
        <time>2018-07-22T13:33:57Z</time>
      </trkpt>
      <trkpt lat="41.097500" lon="-3.772783">
        <ele>2521.0</ele>
        <time>2018-07-22T13:33:58Z</time>
      </trkpt>
      <trkpt lat="41.097583" lon="-3.772733">
        <ele>2519.0</ele>
        <time>2018-07-22T13:33:59Z</time>
      </trkpt>
      <trkpt lat="41.097683" lon="-3.772700">
        <ele>2518.0</ele>
        <time>2018-07-22T13:34:00Z</time>
      </trkpt>
      <trkpt lat="41.097767" lon="-3.772667">
        <ele>2517.0</ele>
        <time>2018-07-22T13:34:01Z</time>
      </trkpt>
      <trkpt lat="41.097850" lon="-3.772633">
        <ele>2515.0</ele>
        <time>2018-07-22T13:34:02Z</time>
      </trkpt>
      <trkpt lat="41.097950" lon="-3.772617">
        <ele>2513.0</ele>
        <time>2018-07-22T13:34:03Z</time>
      </trkpt>
      <trkpt lat="41.098033" lon="-3.772567">
        <ele>2511.0</ele>
        <time>2018-07-22T13:34:04Z</time>
      </trkpt>
      <trkpt lat="41.098117" lon="-3.772500">
        <ele>2509.0</ele>
        <time>2018-07-22T13:34:05Z</time>
      </trkpt>
      <trkpt lat="41.098200" lon="-3.772433">
        <ele>2508.0</ele>
        <time>2018-07-22T13:34:06Z</time>
      </trkpt>
      <trkpt lat="41.098267" lon="-3.772367">
        <ele>2506.0</ele>
        <time>2018-07-22T13:34:07Z</time>
      </trkpt>
      <trkpt lat="41.098367" lon="-3.772317">
        <ele>2504.0</ele>
        <time>2018-07-22T13:34:08Z</time>
      </trkpt>
      <trkpt lat="41.098450" lon="-3.772283">
        <ele>2501.0</ele>
        <time>2018-07-22T13:34:09Z</time>
      </trkpt>
      <trkpt lat="41.098550" lon="-3.772250">
        <ele>2499.0</ele>
        <time>2018-07-22T13:34:10Z</time>
      </trkpt>
      <trkpt lat="41.098650" lon="-3.772200">
        <ele>2497.0</ele>
        <time>2018-07-22T13:34:11Z</time>
      </trkpt>
      <trkpt lat="41.098750" lon="-3.772150">
        <ele>2496.0</ele>
        <time>2018-07-22T13:34:12Z</time>
      </trkpt>
      <trkpt lat="41.098850" lon="-3.772100">
        <ele>2495.0</ele>
        <time>2018-07-22T13:34:13Z</time>
      </trkpt>
      <trkpt lat="41.098933" lon="-3.772050">
        <ele>2495.0</ele>
        <time>2018-07-22T13:34:14Z</time>
      </trkpt>
      <trkpt lat="41.099000" lon="-3.772017">
        <ele>2494.0</ele>
        <time>2018-07-22T13:34:15Z</time>
      </trkpt>
      <trkpt lat="41.099083" lon="-3.772000">
        <ele>2494.0</ele>
        <time>2018-07-22T13:34:16Z</time>
      </trkpt>
      <trkpt lat="41.099150" lon="-3.772000">
        <ele>2493.0</ele>
        <time>2018-07-22T13:34:17Z</time>
      </trkpt>
      <trkpt lat="41.099233" lon="-3.772000">
        <ele>2492.0</ele>
        <time>2018-07-22T13:34:18Z</time>
      </trkpt>
      <trkpt lat="41.099317" lon="-3.771983">
        <ele>2491.0</ele>
        <time>2018-07-22T13:34:19Z</time>
      </trkpt>
      <trkpt lat="41.099417" lon="-3.771950">
        <ele>2490.0</ele>
        <time>2018-07-22T13:34:20Z</time>
      </trkpt>
      <trkpt lat="41.099517" lon="-3.771917">
        <ele>2489.0</ele>
        <time>2018-07-22T13:34:21Z</time>
      </trkpt>
      <trkpt lat="41.099617" lon="-3.771883">
        <ele>2489.0</ele>
        <time>2018-07-22T13:34:22Z</time>
      </trkpt>
      <trkpt lat="41.099700" lon="-3.771833">
        <ele>2489.0</ele>
        <time>2018-07-22T13:34:23Z</time>
      </trkpt>
      <trkpt lat="41.099783" lon="-3.771783">
        <ele>2489.0</ele>
        <time>2018-07-22T13:34:24Z</time>
      </trkpt>
      <trkpt lat="41.099850" lon="-3.771733">
        <ele>2487.0</ele>
        <time>2018-07-22T13:34:25Z</time>
      </trkpt>
      <trkpt lat="41.099933" lon="-3.771683">
        <ele>2486.0</ele>
        <time>2018-07-22T13:34:26Z</time>
      </trkpt>
      <trkpt lat="41.100033" lon="-3.771650">
        <ele>2485.0</ele>
        <time>2018-07-22T13:34:27Z</time>
      </trkpt>
      <trkpt lat="41.100117" lon="-3.771633">
        <ele>2483.0</ele>
        <time>2018-07-22T13:34:28Z</time>
      </trkpt>
      <trkpt lat="41.100217" lon="-3.771600">
        <ele>2482.0</ele>
        <time>2018-07-22T13:34:29Z</time>
      </trkpt>
      <trkpt lat="41.100300" lon="-3.771567">
        <ele>2481.0</ele>
        <time>2018-07-22T13:34:30Z</time>
      </trkpt>
      <trkpt lat="41.100383" lon="-3.771517">
        <ele>2480.0</ele>
        <time>2018-07-22T13:34:31Z</time>
      </trkpt>
      <trkpt lat="41.100467" lon="-3.771467">
        <ele>2480.0</ele>
        <time>2018-07-22T13:34:32Z</time>
      </trkpt>
      <trkpt lat="41.100550" lon="-3.771433">
        <ele>2479.0</ele>
        <time>2018-07-22T13:34:33Z</time>
      </trkpt>
      <trkpt lat="41.100633" lon="-3.771417">
        <ele>2477.0</ele>
        <time>2018-07-22T13:34:34Z</time>
      </trkpt>
      <trkpt lat="41.100733" lon="-3.771383">
        <ele>2476.0</ele>
        <time>2018-07-22T13:34:35Z</time>
      </trkpt>
      <trkpt lat="41.100817" lon="-3.771350">
        <ele>2474.0</ele>
        <time>2018-07-22T13:34:36Z</time>
      </trkpt>
      <trkpt lat="41.100917" lon="-3.771300">
        <ele>2473.0</ele>
        <time>2018-07-22T13:34:37Z</time>
      </trkpt>
      <trkpt lat="41.101017" lon="-3.771267">
        <ele>2472.0</ele>
        <time>2018-07-22T13:34:38Z</time>
      </trkpt>
      <trkpt lat="41.101100" lon="-3.771233">
        <ele>2471.0</ele>
        <time>2018-07-22T13:34:39Z</time>
      </trkpt>
      <trkpt lat="41.101200" lon="-3.771200">
        <ele>2469.0</ele>
        <time>2018-07-22T13:34:40Z</time>
      </trkpt>
      <trkpt lat="41.101317" lon="-3.771167">
        <ele>2467.0</ele>
        <time>2018-07-22T13:34:41Z</time>
      </trkpt>
      <trkpt lat="41.101417" lon="-3.771117">
        <ele>2466.0</ele>
        <time>2018-07-22T13:34:42Z</time>
      </trkpt>
      <trkpt lat="41.101533" lon="-3.771067">
        <ele>2466.0</ele>
        <time>2018-07-22T13:34:43Z</time>
      </trkpt>
      <trkpt lat="41.101617" lon="-3.771033">
        <ele>2467.0</ele>
        <time>2018-07-22T13:34:44Z</time>
      </trkpt>
      <trkpt lat="41.101700" lon="-3.770983">
        <ele>2468.0</ele>
        <time>2018-07-22T13:34:45Z</time>
      </trkpt>
      <trkpt lat="41.101783" lon="-3.770967">
        <ele>2468.0</ele>
        <time>2018-07-22T13:34:46Z</time>
      </trkpt>
      <trkpt lat="41.101850" lon="-3.770933">
        <ele>2467.0</ele>
        <time>2018-07-22T13:34:47Z</time>
      </trkpt>
      <trkpt lat="41.101933" lon="-3.770933">
        <ele>2464.0</ele>
        <time>2018-07-22T13:34:48Z</time>
      </trkpt>
      <trkpt lat="41.102033" lon="-3.770917">
        <ele>2462.0</ele>
        <time>2018-07-22T13:34:49Z</time>
      </trkpt>
      <trkpt lat="41.102133" lon="-3.770900">
        <ele>2461.0</ele>
        <time>2018-07-22T13:34:50Z</time>
      </trkpt>
      <trkpt lat="41.102250" lon="-3.770883">
        <ele>2460.0</ele>
        <time>2018-07-22T13:34:51Z</time>
      </trkpt>
      <trkpt lat="41.102350" lon="-3.770850">
        <ele>2460.0</ele>
        <time>2018-07-22T13:34:52Z</time>
      </trkpt>
      <trkpt lat="41.102450" lon="-3.770817">
        <ele>2460.0</ele>
        <time>2018-07-22T13:34:53Z</time>
      </trkpt>
      <trkpt lat="41.102550" lon="-3.770800">
        <ele>2459.0</ele>
        <time>2018-07-22T13:34:54Z</time>
      </trkpt>
      <trkpt lat="41.102650" lon="-3.770783">
        <ele>2458.0</ele>
        <time>2018-07-22T13:34:55Z</time>
      </trkpt>
      <trkpt lat="41.102733" lon="-3.770767">
        <ele>2457.0</ele>
        <time>2018-07-22T13:34:56Z</time>
      </trkpt>
      <trkpt lat="41.102833" lon="-3.770733">
        <ele>2454.0</ele>
        <time>2018-07-22T13:34:57Z</time>
      </trkpt>
      <trkpt lat="41.102933" lon="-3.770717">
        <ele>2452.0</ele>
        <time>2018-07-22T13:34:58Z</time>
      </trkpt>
      <trkpt lat="41.103050" lon="-3.770700">
        <ele>2450.0</ele>
        <time>2018-07-22T13:34:59Z</time>
      </trkpt>
      <trkpt lat="41.103150" lon="-3.770667">
        <ele>2448.0</ele>
        <time>2018-07-22T13:35:00Z</time>
      </trkpt>
      <trkpt lat="41.103250" lon="-3.770650">
        <ele>2446.0</ele>
        <time>2018-07-22T13:35:01Z</time>
      </trkpt>
      <trkpt lat="41.103350" lon="-3.770617">
        <ele>2445.0</ele>
        <time>2018-07-22T13:35:02Z</time>
      </trkpt>
      <trkpt lat="41.103433" lon="-3.770600">
        <ele>2443.0</ele>
        <time>2018-07-22T13:35:03Z</time>
      </trkpt>
      <trkpt lat="41.103533" lon="-3.770583">
        <ele>2442.0</ele>
        <time>2018-07-22T13:35:04Z</time>
      </trkpt>
      <trkpt lat="41.103633" lon="-3.770567">
        <ele>2440.0</ele>
        <time>2018-07-22T13:35:05Z</time>
      </trkpt>
      <trkpt lat="41.103750" lon="-3.770550">
        <ele>2439.0</ele>
        <time>2018-07-22T13:35:06Z</time>
      </trkpt>
      <trkpt lat="41.103833" lon="-3.770517">
        <ele>2439.0</ele>
        <time>2018-07-22T13:35:07Z</time>
      </trkpt>
      <trkpt lat="41.103933" lon="-3.770483">
        <ele>2438.0</ele>
        <time>2018-07-22T13:35:08Z</time>
      </trkpt>
      <trkpt lat="41.104017" lon="-3.770450">
        <ele>2437.0</ele>
        <time>2018-07-22T13:35:09Z</time>
      </trkpt>
      <trkpt lat="41.104100" lon="-3.770433">
        <ele>2436.0</ele>
        <time>2018-07-22T13:35:10Z</time>
      </trkpt>
      <trkpt lat="41.104183" lon="-3.770417">
        <ele>2434.0</ele>
        <time>2018-07-22T13:35:11Z</time>
      </trkpt>
      <trkpt lat="41.104267" lon="-3.770400">
        <ele>2433.0</ele>
        <time>2018-07-22T13:35:12Z</time>
      </trkpt>
      <trkpt lat="41.104367" lon="-3.770400">
        <ele>2432.0</ele>
        <time>2018-07-22T13:35:13Z</time>
      </trkpt>
      <trkpt lat="41.104450" lon="-3.770383">
        <ele>2431.0</ele>
        <time>2018-07-22T13:35:14Z</time>
      </trkpt>
      <trkpt lat="41.104533" lon="-3.770367">
        <ele>2430.0</ele>
        <time>2018-07-22T13:35:15Z</time>
      </trkpt>
      <trkpt lat="41.104633" lon="-3.770350">
        <ele>2429.0</ele>
        <time>2018-07-22T13:35:16Z</time>
      </trkpt>
      <trkpt lat="41.104717" lon="-3.770333">
        <ele>2427.0</ele>
        <time>2018-07-22T13:35:17Z</time>
      </trkpt>
      <trkpt lat="41.104800" lon="-3.770300">
        <ele>2427.0</ele>
        <time>2018-07-22T13:35:18Z</time>
      </trkpt>
      <trkpt lat="41.104883" lon="-3.770267">
        <ele>2426.0</ele>
        <time>2018-07-22T13:35:19Z</time>
      </trkpt>
      <trkpt lat="41.104967" lon="-3.770233">
        <ele>2424.0</ele>
        <time>2018-07-22T13:35:20Z</time>
      </trkpt>
      <trkpt lat="41.105050" lon="-3.770200">
        <ele>2421.0</ele>
        <time>2018-07-22T13:35:21Z</time>
      </trkpt>
      <trkpt lat="41.105150" lon="-3.770167">
        <ele>2420.0</ele>
        <time>2018-07-22T13:35:22Z</time>
      </trkpt>
      <trkpt lat="41.105250" lon="-3.770133">
        <ele>2420.0</ele>
        <time>2018-07-22T13:35:23Z</time>
      </trkpt>
      <trkpt lat="41.105350" lon="-3.770100">
        <ele>2421.0</ele>
        <time>2018-07-22T13:35:24Z</time>
      </trkpt>
      <trkpt lat="41.105450" lon="-3.770067">
        <ele>2423.0</ele>
        <time>2018-07-22T13:35:25Z</time>
      </trkpt>
      <trkpt lat="41.105533" lon="-3.770017">
        <ele>2423.0</ele>
        <time>2018-07-22T13:35:26Z</time>
      </trkpt>
      <trkpt lat="41.105617" lon="-3.769983">
        <ele>2423.0</ele>
        <time>2018-07-22T13:35:27Z</time>
      </trkpt>
      <trkpt lat="41.105700" lon="-3.769967">
        <ele>2422.0</ele>
        <time>2018-07-22T13:35:28Z</time>
      </trkpt>
      <trkpt lat="41.105800" lon="-3.769967">
        <ele>2420.0</ele>
        <time>2018-07-22T13:35:29Z</time>
      </trkpt>
      <trkpt lat="41.105900" lon="-3.769967">
        <ele>2419.0</ele>
        <time>2018-07-22T13:35:30Z</time>
      </trkpt>
      <trkpt lat="41.106000" lon="-3.769950">
        <ele>2418.0</ele>
        <time>2018-07-22T13:35:31Z</time>
      </trkpt>
      <trkpt lat="41.106117" lon="-3.769933">
        <ele>2418.0</ele>
        <time>2018-07-22T13:35:32Z</time>
      </trkpt>
      <trkpt lat="41.106233" lon="-3.769883">
        <ele>2418.0</ele>
        <time>2018-07-22T13:35:33Z</time>
      </trkpt>
      <trkpt lat="41.106350" lon="-3.769850">
        <ele>2418.0</ele>
        <time>2018-07-22T13:35:34Z</time>
      </trkpt>
      <trkpt lat="41.106450" lon="-3.769817">
        <ele>2418.0</ele>
        <time>2018-07-22T13:35:35Z</time>
      </trkpt>
      <trkpt lat="41.106567" lon="-3.769800">
        <ele>2417.0</ele>
        <time>2018-07-22T13:35:36Z</time>
      </trkpt>
      <trkpt lat="41.106667" lon="-3.769767">
        <ele>2417.0</ele>
        <time>2018-07-22T13:35:37Z</time>
      </trkpt>
      <trkpt lat="41.106783" lon="-3.769750">
        <ele>2416.0</ele>
        <time>2018-07-22T13:35:38Z</time>
      </trkpt>
      <trkpt lat="41.106883" lon="-3.769717">
        <ele>2414.0</ele>
        <time>2018-07-22T13:35:39Z</time>
      </trkpt>
      <trkpt lat="41.107000" lon="-3.769683">
        <ele>2413.0</ele>
        <time>2018-07-22T13:35:40Z</time>
      </trkpt>
      <trkpt lat="41.107117" lon="-3.769667">
        <ele>2413.0</ele>
        <time>2018-07-22T13:35:41Z</time>
      </trkpt>
      <trkpt lat="41.107233" lon="-3.769650">
        <ele>2413.0</ele>
        <time>2018-07-22T13:35:42Z</time>
      </trkpt>
      <trkpt lat="41.107333" lon="-3.769617">
        <ele>2413.0</ele>
        <time>2018-07-22T13:35:43Z</time>
      </trkpt>
      <trkpt lat="41.107450" lon="-3.769600">
        <ele>2413.0</ele>
        <time>2018-07-22T13:35:44Z</time>
      </trkpt>
      <trkpt lat="41.107550" lon="-3.769583">
        <ele>2412.0</ele>
        <time>2018-07-22T13:35:45Z</time>
      </trkpt>
      <trkpt lat="41.107667" lon="-3.769550">
        <ele>2411.0</ele>
        <time>2018-07-22T13:35:46Z</time>
      </trkpt>
      <trkpt lat="41.107783" lon="-3.769533">
        <ele>2410.0</ele>
        <time>2018-07-22T13:35:47Z</time>
      </trkpt>
      <trkpt lat="41.107900" lon="-3.769500">
        <ele>2409.0</ele>
        <time>2018-07-22T13:35:48Z</time>
      </trkpt>
      <trkpt lat="41.108017" lon="-3.769467">
        <ele>2409.0</ele>
        <time>2018-07-22T13:35:49Z</time>
      </trkpt>
      <trkpt lat="41.108117" lon="-3.769433">
        <ele>2409.0</ele>
        <time>2018-07-22T13:35:50Z</time>
      </trkpt>
      <trkpt lat="41.108217" lon="-3.769400">
        <ele>2409.0</ele>
        <time>2018-07-22T13:35:51Z</time>
      </trkpt>
      <trkpt lat="41.108333" lon="-3.769350">
        <ele>2409.0</ele>
        <time>2018-07-22T13:35:52Z</time>
      </trkpt>
      <trkpt lat="41.108433" lon="-3.769317">
        <ele>2408.0</ele>
        <time>2018-07-22T13:35:53Z</time>
      </trkpt>
      <trkpt lat="41.108550" lon="-3.769267">
        <ele>2407.0</ele>
        <time>2018-07-22T13:35:54Z</time>
      </trkpt>
      <trkpt lat="41.108650" lon="-3.769233">
        <ele>2407.0</ele>
        <time>2018-07-22T13:35:55Z</time>
      </trkpt>
      <trkpt lat="41.108767" lon="-3.769200">
        <ele>2407.0</ele>
        <time>2018-07-22T13:35:56Z</time>
      </trkpt>
      <trkpt lat="41.108867" lon="-3.769167">
        <ele>2407.0</ele>
        <time>2018-07-22T13:35:57Z</time>
      </trkpt>
      <trkpt lat="41.108967" lon="-3.769133">
        <ele>2407.0</ele>
        <time>2018-07-22T13:35:58Z</time>
      </trkpt>
      <trkpt lat="41.109050" lon="-3.769100">
        <ele>2405.0</ele>
        <time>2018-07-22T13:35:59Z</time>
      </trkpt>
      <trkpt lat="41.109150" lon="-3.769050">
        <ele>2403.0</ele>
        <time>2018-07-22T13:36:00Z</time>
      </trkpt>
      <trkpt lat="41.109250" lon="-3.769000">
        <ele>2401.0</ele>
        <time>2018-07-22T13:36:01Z</time>
      </trkpt>
      <trkpt lat="41.109350" lon="-3.768967">
        <ele>2399.0</ele>
        <time>2018-07-22T13:36:02Z</time>
      </trkpt>
      <trkpt lat="41.109450" lon="-3.768950">
        <ele>2396.0</ele>
        <time>2018-07-22T13:36:03Z</time>
      </trkpt>
      <trkpt lat="41.109550" lon="-3.768917">
        <ele>2394.0</ele>
        <time>2018-07-22T13:36:04Z</time>
      </trkpt>
      <trkpt lat="41.109650" lon="-3.768883">
        <ele>2392.0</ele>
        <time>2018-07-22T13:36:05Z</time>
      </trkpt>
      <trkpt lat="41.109750" lon="-3.768850">
        <ele>2390.0</ele>
        <time>2018-07-22T13:36:06Z</time>
      </trkpt>
      <trkpt lat="41.109850" lon="-3.768817">
        <ele>2388.0</ele>
        <time>2018-07-22T13:36:07Z</time>
      </trkpt>
      <trkpt lat="41.109950" lon="-3.768783">
        <ele>2385.0</ele>
        <time>2018-07-22T13:36:08Z</time>
      </trkpt>
      <trkpt lat="41.110050" lon="-3.768750">
        <ele>2383.0</ele>
        <time>2018-07-22T13:36:09Z</time>
      </trkpt>
      <trkpt lat="41.110150" lon="-3.768700">
        <ele>2380.0</ele>
        <time>2018-07-22T13:36:10Z</time>
      </trkpt>
      <trkpt lat="41.110250" lon="-3.768667">
        <ele>2376.0</ele>
        <time>2018-07-22T13:36:11Z</time>
      </trkpt>
      <trkpt lat="41.110367" lon="-3.768617">
        <ele>2373.0</ele>
        <time>2018-07-22T13:36:12Z</time>
      </trkpt>
      <trkpt lat="41.110467" lon="-3.768583">
        <ele>2370.0</ele>
        <time>2018-07-22T13:36:13Z</time>
      </trkpt>
      <trkpt lat="41.110583" lon="-3.768567">
        <ele>2368.0</ele>
        <time>2018-07-22T13:36:14Z</time>
      </trkpt>
      <trkpt lat="41.110683" lon="-3.768550">
        <ele>2366.0</ele>
        <time>2018-07-22T13:36:15Z</time>
      </trkpt>
      <trkpt lat="41.110783" lon="-3.768550">
        <ele>2364.0</ele>
        <time>2018-07-22T13:36:16Z</time>
      </trkpt>
      <trkpt lat="41.110883" lon="-3.768550">
        <ele>2362.0</ele>
        <time>2018-07-22T13:36:17Z</time>
      </trkpt>
      <trkpt lat="41.110967" lon="-3.768550">
        <ele>2359.0</ele>
        <time>2018-07-22T13:36:18Z</time>
      </trkpt>
      <trkpt lat="41.111067" lon="-3.768567">
        <ele>2356.0</ele>
        <time>2018-07-22T13:36:19Z</time>
      </trkpt>
      <trkpt lat="41.111150" lon="-3.768600">
        <ele>2353.0</ele>
        <time>2018-07-22T13:36:20Z</time>
      </trkpt>
      <trkpt lat="41.111250" lon="-3.768617">
        <ele>2350.0</ele>
        <time>2018-07-22T13:36:21Z</time>
      </trkpt>
      <trkpt lat="41.111367" lon="-3.768633">
        <ele>2347.0</ele>
        <time>2018-07-22T13:36:22Z</time>
      </trkpt>
      <trkpt lat="41.111483" lon="-3.768650">
        <ele>2345.0</ele>
        <time>2018-07-22T13:36:23Z</time>
      </trkpt>
      <trkpt lat="41.111583" lon="-3.768650">
        <ele>2344.0</ele>
        <time>2018-07-22T13:36:24Z</time>
      </trkpt>
      <trkpt lat="41.111700" lon="-3.768633">
        <ele>2343.0</ele>
        <time>2018-07-22T13:36:25Z</time>
      </trkpt>
      <trkpt lat="41.111800" lon="-3.768600">
        <ele>2341.0</ele>
        <time>2018-07-22T13:36:26Z</time>
      </trkpt>
      <trkpt lat="41.111900" lon="-3.768583">
        <ele>2339.0</ele>
        <time>2018-07-22T13:36:27Z</time>
      </trkpt>
      <trkpt lat="41.112017" lon="-3.768567">
        <ele>2335.0</ele>
        <time>2018-07-22T13:36:28Z</time>
      </trkpt>
      <trkpt lat="41.112133" lon="-3.768550">
        <ele>2332.0</ele>
        <time>2018-07-22T13:36:29Z</time>
      </trkpt>
      <trkpt lat="41.112250" lon="-3.768533">
        <ele>2329.0</ele>
        <time>2018-07-22T13:36:30Z</time>
      </trkpt>
      <trkpt lat="41.112367" lon="-3.768533">
        <ele>2327.0</ele>
        <time>2018-07-22T13:36:31Z</time>
      </trkpt>
      <trkpt lat="41.112500" lon="-3.768517">
        <ele>2324.0</ele>
        <time>2018-07-22T13:36:32Z</time>
      </trkpt>
      <trkpt lat="41.112617" lon="-3.768500">
        <ele>2323.0</ele>
        <time>2018-07-22T13:36:33Z</time>
      </trkpt>
      <trkpt lat="41.112717" lon="-3.768467">
        <ele>2321.0</ele>
        <time>2018-07-22T13:36:34Z</time>
      </trkpt>
      <trkpt lat="41.112833" lon="-3.768450">
        <ele>2320.0</ele>
        <time>2018-07-22T13:36:35Z</time>
      </trkpt>
      <trkpt lat="41.112933" lon="-3.768417">
        <ele>2318.0</ele>
        <time>2018-07-22T13:36:36Z</time>
      </trkpt>
      <trkpt lat="41.113050" lon="-3.768383">
        <ele>2315.0</ele>
        <time>2018-07-22T13:36:37Z</time>
      </trkpt>
      <trkpt lat="41.113167" lon="-3.768350">
        <ele>2313.0</ele>
        <time>2018-07-22T13:36:38Z</time>
      </trkpt>
      <trkpt lat="41.113283" lon="-3.768317">
        <ele>2311.0</ele>
        <time>2018-07-22T13:36:39Z</time>
      </trkpt>
      <trkpt lat="41.113400" lon="-3.768283">
        <ele>2309.0</ele>
        <time>2018-07-22T13:36:40Z</time>
      </trkpt>
      <trkpt lat="41.113517" lon="-3.768250">
        <ele>2308.0</ele>
        <time>2018-07-22T13:36:41Z</time>
      </trkpt>
      <trkpt lat="41.113633" lon="-3.768217">
        <ele>2307.0</ele>
        <time>2018-07-22T13:36:42Z</time>
      </trkpt>
      <trkpt lat="41.113750" lon="-3.768183">
        <ele>2306.0</ele>
        <time>2018-07-22T13:36:43Z</time>
      </trkpt>
      <trkpt lat="41.113850" lon="-3.768150">
        <ele>2306.0</ele>
        <time>2018-07-22T13:36:44Z</time>
      </trkpt>
      <trkpt lat="41.113950" lon="-3.768117">
        <ele>2305.0</ele>
        <time>2018-07-22T13:36:45Z</time>
      </trkpt>
      <trkpt lat="41.114050" lon="-3.768100">
        <ele>2303.0</ele>
        <time>2018-07-22T13:36:46Z</time>
      </trkpt>
      <trkpt lat="41.114167" lon="-3.768100">
        <ele>2302.0</ele>
        <time>2018-07-22T13:36:47Z</time>
      </trkpt>
      <trkpt lat="41.114283" lon="-3.768083">
        <ele>2300.0</ele>
        <time>2018-07-22T13:36:48Z</time>
      </trkpt>
      <trkpt lat="41.114417" lon="-3.768067">
        <ele>2299.0</ele>
        <time>2018-07-22T13:36:49Z</time>
      </trkpt>
      <trkpt lat="41.114533" lon="-3.768033">
        <ele>2299.0</ele>
        <time>2018-07-22T13:36:50Z</time>
      </trkpt>
      <trkpt lat="41.114650" lon="-3.768017">
        <ele>2299.0</ele>
        <time>2018-07-22T13:36:51Z</time>
      </trkpt>
      <trkpt lat="41.114767" lon="-3.767983">
        <ele>2298.0</ele>
        <time>2018-07-22T13:36:52Z</time>
      </trkpt>
      <trkpt lat="41.114883" lon="-3.767967">
        <ele>2297.0</ele>
        <time>2018-07-22T13:36:53Z</time>
      </trkpt>
      <trkpt lat="41.115000" lon="-3.767950">
        <ele>2296.0</ele>
        <time>2018-07-22T13:36:54Z</time>
      </trkpt>
      <trkpt lat="41.115117" lon="-3.767933">
        <ele>2294.0</ele>
        <time>2018-07-22T13:36:55Z</time>
      </trkpt>
      <trkpt lat="41.115233" lon="-3.767933">
        <ele>2293.0</ele>
        <time>2018-07-22T13:36:56Z</time>
      </trkpt>
      <trkpt lat="41.115333" lon="-3.767917">
        <ele>2292.0</ele>
        <time>2018-07-22T13:36:57Z</time>
      </trkpt>
      <trkpt lat="41.115450" lon="-3.767917">
        <ele>2291.0</ele>
        <time>2018-07-22T13:36:58Z</time>
      </trkpt>
      <trkpt lat="41.115567" lon="-3.767917">
        <ele>2289.0</ele>
        <time>2018-07-22T13:36:59Z</time>
      </trkpt>
      <trkpt lat="41.115667" lon="-3.767917">
        <ele>2287.0</ele>
        <time>2018-07-22T13:37:00Z</time>
      </trkpt>
      <trkpt lat="41.115783" lon="-3.767917">
        <ele>2285.0</ele>
        <time>2018-07-22T13:37:01Z</time>
      </trkpt>
      <trkpt lat="41.115900" lon="-3.767917">
        <ele>2283.0</ele>
        <time>2018-07-22T13:37:02Z</time>
      </trkpt>
      <trkpt lat="41.116017" lon="-3.767900">
        <ele>2282.0</ele>
        <time>2018-07-22T13:37:03Z</time>
      </trkpt>
      <trkpt lat="41.116133" lon="-3.767883">
        <ele>2281.0</ele>
        <time>2018-07-22T13:37:04Z</time>
      </trkpt>
      <trkpt lat="41.116250" lon="-3.767850">
        <ele>2280.0</ele>
        <time>2018-07-22T13:37:05Z</time>
      </trkpt>
      <trkpt lat="41.116350" lon="-3.767833">
        <ele>2278.0</ele>
        <time>2018-07-22T13:37:06Z</time>
      </trkpt>
      <trkpt lat="41.116450" lon="-3.767833">
        <ele>2275.0</ele>
        <time>2018-07-22T13:37:07Z</time>
      </trkpt>
      <trkpt lat="41.116567" lon="-3.767817">
        <ele>2273.0</ele>
        <time>2018-07-22T13:37:08Z</time>
      </trkpt>
      <trkpt lat="41.116683" lon="-3.767817">
        <ele>2270.0</ele>
        <time>2018-07-22T13:37:09Z</time>
      </trkpt>
      <trkpt lat="41.116817" lon="-3.767800">
        <ele>2268.0</ele>
        <time>2018-07-22T13:37:10Z</time>
      </trkpt>
      <trkpt lat="41.116933" lon="-3.767800">
        <ele>2267.0</ele>
        <time>2018-07-22T13:37:11Z</time>
      </trkpt>
      <trkpt lat="41.117050" lon="-3.767783">
        <ele>2266.0</ele>
        <time>2018-07-22T13:37:12Z</time>
      </trkpt>
      <trkpt lat="41.117167" lon="-3.767767">
        <ele>2264.0</ele>
        <time>2018-07-22T13:37:13Z</time>
      </trkpt>
      <trkpt lat="41.117267" lon="-3.767767">
        <ele>2263.0</ele>
        <time>2018-07-22T13:37:14Z</time>
      </trkpt>
      <trkpt lat="41.117367" lon="-3.767767">
        <ele>2261.0</ele>
        <time>2018-07-22T13:37:15Z</time>
      </trkpt>
      <trkpt lat="41.117467" lon="-3.767783">
        <ele>2259.0</ele>
        <time>2018-07-22T13:37:16Z</time>
      </trkpt>
      <trkpt lat="41.117567" lon="-3.767800">
        <ele>2257.0</ele>
        <time>2018-07-22T13:37:17Z</time>
      </trkpt>
      <trkpt lat="41.117667" lon="-3.767817">
        <ele>2254.0</ele>
        <time>2018-07-22T13:37:18Z</time>
      </trkpt>
      <trkpt lat="41.117783" lon="-3.767850">
        <ele>2253.0</ele>
        <time>2018-07-22T13:37:19Z</time>
      </trkpt>
      <trkpt lat="41.117883" lon="-3.767867">
        <ele>2251.0</ele>
        <time>2018-07-22T13:37:20Z</time>
      </trkpt>
      <trkpt lat="41.117983" lon="-3.767900">
        <ele>2251.0</ele>
        <time>2018-07-22T13:37:21Z</time>
      </trkpt>
      <trkpt lat="41.118083" lon="-3.767933">
        <ele>2250.0</ele>
        <time>2018-07-22T13:37:22Z</time>
      </trkpt>
      <trkpt lat="41.118167" lon="-3.767983">
        <ele>2249.0</ele>
        <time>2018-07-22T13:37:23Z</time>
      </trkpt>
      <trkpt lat="41.118250" lon="-3.768017">
        <ele>2248.0</ele>
        <time>2018-07-22T13:37:24Z</time>
      </trkpt>
      <trkpt lat="41.118333" lon="-3.768067">
        <ele>2246.0</ele>
        <time>2018-07-22T13:37:25Z</time>
      </trkpt>
      <trkpt lat="41.118433" lon="-3.768100">
        <ele>2245.0</ele>
        <time>2018-07-22T13:37:26Z</time>
      </trkpt>
      <trkpt lat="41.118533" lon="-3.768117">
        <ele>2243.0</ele>
        <time>2018-07-22T13:37:27Z</time>
      </trkpt>
      <trkpt lat="41.118650" lon="-3.768133">
        <ele>2241.0</ele>
        <time>2018-07-22T13:37:28Z</time>
      </trkpt>
      <trkpt lat="41.118750" lon="-3.768150">
        <ele>2239.0</ele>
        <time>2018-07-22T13:37:29Z</time>
      </trkpt>
      <trkpt lat="41.118867" lon="-3.768167">
        <ele>2238.0</ele>
        <time>2018-07-22T13:37:30Z</time>
      </trkpt>
      <trkpt lat="41.118967" lon="-3.768183">
        <ele>2237.0</ele>
        <time>2018-07-22T13:37:31Z</time>
      </trkpt>
      <trkpt lat="41.119050" lon="-3.768200">
        <ele>2235.0</ele>
        <time>2018-07-22T13:37:32Z</time>
      </trkpt>
      <trkpt lat="41.119150" lon="-3.768217">
        <ele>2233.0</ele>
        <time>2018-07-22T13:37:33Z</time>
      </trkpt>
      <trkpt lat="41.119250" lon="-3.768233">
        <ele>2231.0</ele>
        <time>2018-07-22T13:37:34Z</time>
      </trkpt>
      <trkpt lat="41.119350" lon="-3.768267">
        <ele>2229.0</ele>
        <time>2018-07-22T13:37:35Z</time>
      </trkpt>
      <trkpt lat="41.119450" lon="-3.768300">
        <ele>2227.0</ele>
        <time>2018-07-22T13:37:36Z</time>
      </trkpt>
      <trkpt lat="41.119533" lon="-3.768350">
        <ele>2226.0</ele>
        <time>2018-07-22T13:37:37Z</time>
      </trkpt>
      <trkpt lat="41.119617" lon="-3.768400">
        <ele>2224.0</ele>
        <time>2018-07-22T13:37:38Z</time>
      </trkpt>
      <trkpt lat="41.119700" lon="-3.768433">
        <ele>2223.0</ele>
        <time>2018-07-22T13:37:39Z</time>
      </trkpt>
      <trkpt lat="41.119800" lon="-3.768450">
        <ele>2221.0</ele>
        <time>2018-07-22T13:37:40Z</time>
      </trkpt>
      <trkpt lat="41.119883" lon="-3.768483">
        <ele>2219.0</ele>
        <time>2018-07-22T13:37:41Z</time>
      </trkpt>
      <trkpt lat="41.119983" lon="-3.768533">
        <ele>2217.0</ele>
        <time>2018-07-22T13:37:42Z</time>
      </trkpt>
      <trkpt lat="41.120050" lon="-3.768567">
        <ele>2215.0</ele>
        <time>2018-07-22T13:37:43Z</time>
      </trkpt>
      <trkpt lat="41.120133" lon="-3.768617">
        <ele>2214.0</ele>
        <time>2018-07-22T13:37:44Z</time>
      </trkpt>
      <trkpt lat="41.120233" lon="-3.768633">
        <ele>2212.0</ele>
        <time>2018-07-22T13:37:45Z</time>
      </trkpt>
      <trkpt lat="41.120333" lon="-3.768633">
        <ele>2210.0</ele>
        <time>2018-07-22T13:37:46Z</time>
      </trkpt>
      <trkpt lat="41.120433" lon="-3.768617">
        <ele>2208.0</ele>
        <time>2018-07-22T13:37:47Z</time>
      </trkpt>
      <trkpt lat="41.120533" lon="-3.768567">
        <ele>2206.0</ele>
        <time>2018-07-22T13:37:48Z</time>
      </trkpt>
      <trkpt lat="41.120633" lon="-3.768500">
        <ele>2204.0</ele>
        <time>2018-07-22T13:37:49Z</time>
      </trkpt>
      <trkpt lat="41.120733" lon="-3.768417">
        <ele>2202.0</ele>
        <time>2018-07-22T13:37:50Z</time>
      </trkpt>
      <trkpt lat="41.120817" lon="-3.768317">
        <ele>2200.0</ele>
        <time>2018-07-22T13:37:51Z</time>
      </trkpt>
      <trkpt lat="41.120900" lon="-3.768200">
        <ele>2198.0</ele>
        <time>2018-07-22T13:37:52Z</time>
      </trkpt>
      <trkpt lat="41.120983" lon="-3.768083">
        <ele>2196.0</ele>
        <time>2018-07-22T13:37:53Z</time>
      </trkpt>
      <trkpt lat="41.121083" lon="-3.767950">
        <ele>2194.0</ele>
        <time>2018-07-22T13:37:54Z</time>
      </trkpt>
      <trkpt lat="41.121183" lon="-3.767817">
        <ele>2192.0</ele>
        <time>2018-07-22T13:37:55Z</time>
      </trkpt>
      <trkpt lat="41.121267" lon="-3.767683">
        <ele>2192.0</ele>
        <time>2018-07-22T13:37:56Z</time>
      </trkpt>
      <trkpt lat="41.121367" lon="-3.767567">
        <ele>2193.0</ele>
        <time>2018-07-22T13:37:57Z</time>
      </trkpt>
      <trkpt lat="41.121450" lon="-3.767467">
        <ele>2193.0</ele>
        <time>2018-07-22T13:37:58Z</time>
      </trkpt>
      <trkpt lat="41.121550" lon="-3.767350">
        <ele>2192.0</ele>
        <time>2018-07-22T13:37:59Z</time>
      </trkpt>
      <trkpt lat="41.121633" lon="-3.767233">
        <ele>2190.0</ele>
        <time>2018-07-22T13:38:00Z</time>
      </trkpt>
      <trkpt lat="41.121733" lon="-3.767100">
        <ele>2188.0</ele>
        <time>2018-07-22T13:38:01Z</time>
      </trkpt>
      <trkpt lat="41.121817" lon="-3.766967">
        <ele>2187.0</ele>
        <time>2018-07-22T13:38:02Z</time>
      </trkpt>
      <trkpt lat="41.121917" lon="-3.766817">
        <ele>2186.0</ele>
        <time>2018-07-22T13:38:03Z</time>
      </trkpt>
      <trkpt lat="41.121983" lon="-3.766667">
        <ele>2186.0</ele>
        <time>2018-07-22T13:38:04Z</time>
      </trkpt>
      <trkpt lat="41.122067" lon="-3.766533">
        <ele>2186.0</ele>
        <time>2018-07-22T13:38:05Z</time>
      </trkpt>
      <trkpt lat="41.122133" lon="-3.766383">
        <ele>2185.0</ele>
        <time>2018-07-22T13:38:06Z</time>
      </trkpt>
      <trkpt lat="41.122217" lon="-3.766250">
        <ele>2184.0</ele>
        <time>2018-07-22T13:38:07Z</time>
      </trkpt>
      <trkpt lat="41.122283" lon="-3.766100">
        <ele>2182.0</ele>
        <time>2018-07-22T13:38:08Z</time>
      </trkpt>
      <trkpt lat="41.122367" lon="-3.765967">
        <ele>2181.0</ele>
        <time>2018-07-22T13:38:09Z</time>
      </trkpt>
      <trkpt lat="41.122450" lon="-3.765833">
        <ele>2179.0</ele>
        <time>2018-07-22T13:38:10Z</time>
      </trkpt>
      <trkpt lat="41.122533" lon="-3.765683">
        <ele>2178.0</ele>
        <time>2018-07-22T13:38:11Z</time>
      </trkpt>
      <trkpt lat="41.122617" lon="-3.765550">
        <ele>2176.0</ele>
        <time>2018-07-22T13:38:12Z</time>
      </trkpt>
      <trkpt lat="41.122700" lon="-3.765417">
        <ele>2176.0</ele>
        <time>2018-07-22T13:38:13Z</time>
      </trkpt>
      <trkpt lat="41.122783" lon="-3.765283">
        <ele>2175.0</ele>
        <time>2018-07-22T13:38:14Z</time>
      </trkpt>
      <trkpt lat="41.122867" lon="-3.765150">
        <ele>2174.0</ele>
        <time>2018-07-22T13:38:15Z</time>
      </trkpt>
      <trkpt lat="41.122950" lon="-3.765017">
        <ele>2173.0</ele>
        <time>2018-07-22T13:38:16Z</time>
      </trkpt>
      <trkpt lat="41.123017" lon="-3.764883">
        <ele>2172.0</ele>
        <time>2018-07-22T13:38:17Z</time>
      </trkpt>
      <trkpt lat="41.123083" lon="-3.764733">
        <ele>2170.0</ele>
        <time>2018-07-22T13:38:18Z</time>
      </trkpt>
      <trkpt lat="41.123150" lon="-3.764583">
        <ele>2169.0</ele>
        <time>2018-07-22T13:38:19Z</time>
      </trkpt>
      <trkpt lat="41.123200" lon="-3.764417">
        <ele>2167.0</ele>
        <time>2018-07-22T13:38:20Z</time>
      </trkpt>
      <trkpt lat="41.123250" lon="-3.764250">
        <ele>2166.0</ele>
        <time>2018-07-22T13:38:21Z</time>
      </trkpt>
      <trkpt lat="41.123300" lon="-3.764100">
        <ele>2164.0</ele>
        <time>2018-07-22T13:38:22Z</time>
      </trkpt>
      <trkpt lat="41.123333" lon="-3.763933">
        <ele>2162.0</ele>
        <time>2018-07-22T13:38:23Z</time>
      </trkpt>
      <trkpt lat="41.123383" lon="-3.763767">
        <ele>2160.0</ele>
        <time>2018-07-22T13:38:24Z</time>
      </trkpt>
      <trkpt lat="41.123433" lon="-3.763600">
        <ele>2158.0</ele>
        <time>2018-07-22T13:38:25Z</time>
      </trkpt>
      <trkpt lat="41.123500" lon="-3.763433">
        <ele>2156.0</ele>
        <time>2018-07-22T13:38:26Z</time>
      </trkpt>
      <trkpt lat="41.123567" lon="-3.763283">
        <ele>2154.0</ele>
        <time>2018-07-22T13:38:27Z</time>
      </trkpt>
      <trkpt lat="41.123633" lon="-3.763117">
        <ele>2152.0</ele>
        <time>2018-07-22T13:38:28Z</time>
      </trkpt>
      <trkpt lat="41.123683" lon="-3.762967">
        <ele>2150.0</ele>
        <time>2018-07-22T13:38:29Z</time>
      </trkpt>
      <trkpt lat="41.123767" lon="-3.762817">
        <ele>2148.0</ele>
        <time>2018-07-22T13:38:30Z</time>
      </trkpt>
      <trkpt lat="41.123833" lon="-3.762650">
        <ele>2146.0</ele>
        <time>2018-07-22T13:38:31Z</time>
      </trkpt>
      <trkpt lat="41.123900" lon="-3.762500">
        <ele>2144.0</ele>
        <time>2018-07-22T13:38:32Z</time>
      </trkpt>
      <trkpt lat="41.123983" lon="-3.762350">
        <ele>2142.0</ele>
        <time>2018-07-22T13:38:33Z</time>
      </trkpt>
      <trkpt lat="41.124050" lon="-3.762217">
        <ele>2140.0</ele>
        <time>2018-07-22T13:38:34Z</time>
      </trkpt>
      <trkpt lat="41.124133" lon="-3.762067">
        <ele>2138.0</ele>
        <time>2018-07-22T13:38:35Z</time>
      </trkpt>
      <trkpt lat="41.124200" lon="-3.761917">
        <ele>2136.0</ele>
        <time>2018-07-22T13:38:36Z</time>
      </trkpt>
      <trkpt lat="41.124283" lon="-3.761767">
        <ele>2133.0</ele>
        <time>2018-07-22T13:38:37Z</time>
      </trkpt>
      <trkpt lat="41.124367" lon="-3.761600">
        <ele>2131.0</ele>
        <time>2018-07-22T13:38:38Z</time>
      </trkpt>
      <trkpt lat="41.124450" lon="-3.761433">
        <ele>2129.0</ele>
        <time>2018-07-22T13:38:39Z</time>
      </trkpt>
      <trkpt lat="41.124533" lon="-3.761283">
        <ele>2128.0</ele>
        <time>2018-07-22T13:38:40Z</time>
      </trkpt>
      <trkpt lat="41.124600" lon="-3.761117">
        <ele>2127.0</ele>
        <time>2018-07-22T13:38:41Z</time>
      </trkpt>
      <trkpt lat="41.124683" lon="-3.760967">
        <ele>2126.0</ele>
        <time>2018-07-22T13:38:42Z</time>
      </trkpt>
      <trkpt lat="41.124750" lon="-3.760817">
        <ele>2124.0</ele>
        <time>2018-07-22T13:38:43Z</time>
      </trkpt>
      <trkpt lat="41.124833" lon="-3.760667">
        <ele>2122.0</ele>
        <time>2018-07-22T13:38:44Z</time>
      </trkpt>
      <trkpt lat="41.124917" lon="-3.760517">
        <ele>2119.0</ele>
        <time>2018-07-22T13:38:45Z</time>
      </trkpt>
      <trkpt lat="41.125017" lon="-3.760367">
        <ele>2116.0</ele>
        <time>2018-07-22T13:38:46Z</time>
      </trkpt>
      <trkpt lat="41.125100" lon="-3.760217">
        <ele>2114.0</ele>
        <time>2018-07-22T13:38:47Z</time>
      </trkpt>
      <trkpt lat="41.125200" lon="-3.760083">
        <ele>2112.0</ele>
        <time>2018-07-22T13:38:48Z</time>
      </trkpt>
      <trkpt lat="41.125300" lon="-3.759950">
        <ele>2110.0</ele>
        <time>2018-07-22T13:38:49Z</time>
      </trkpt>
      <trkpt lat="41.125400" lon="-3.759817">
        <ele>2108.0</ele>
        <time>2018-07-22T13:38:50Z</time>
      </trkpt>
      <trkpt lat="41.125483" lon="-3.759683">
        <ele>2105.0</ele>
        <time>2018-07-22T13:38:51Z</time>
      </trkpt>
      <trkpt lat="41.125583" lon="-3.759550">
        <ele>2102.0</ele>
        <time>2018-07-22T13:38:52Z</time>
      </trkpt>
      <trkpt lat="41.125667" lon="-3.759400">
        <ele>2100.0</ele>
        <time>2018-07-22T13:38:53Z</time>
      </trkpt>
      <trkpt lat="41.125750" lon="-3.759267">
        <ele>2100.0</ele>
        <time>2018-07-22T13:38:54Z</time>
      </trkpt>
      <trkpt lat="41.125833" lon="-3.759133">
        <ele>2100.0</ele>
        <time>2018-07-22T13:38:55Z</time>
      </trkpt>
      <trkpt lat="41.125900" lon="-3.759000">
        <ele>2100.0</ele>
        <time>2018-07-22T13:38:56Z</time>
      </trkpt>
      <trkpt lat="41.125950" lon="-3.758883">
        <ele>2099.0</ele>
        <time>2018-07-22T13:38:57Z</time>
      </trkpt>
      <trkpt lat="41.126000" lon="-3.758767">
        <ele>2097.0</ele>
        <time>2018-07-22T13:38:58Z</time>
      </trkpt>
      <trkpt lat="41.126067" lon="-3.758650">
        <ele>2094.0</ele>
        <time>2018-07-22T13:38:59Z</time>
      </trkpt>
      <trkpt lat="41.126133" lon="-3.758533">
        <ele>2091.0</ele>
        <time>2018-07-22T13:39:00Z</time>
      </trkpt>
      <trkpt lat="41.126200" lon="-3.758417">
        <ele>2087.0</ele>
        <time>2018-07-22T13:39:01Z</time>
      </trkpt>
      <trkpt lat="41.126267" lon="-3.758283">
        <ele>2084.0</ele>
        <time>2018-07-22T13:39:02Z</time>
      </trkpt>
      <trkpt lat="41.126350" lon="-3.758133">
        <ele>2080.0</ele>
        <time>2018-07-22T13:39:03Z</time>
      </trkpt>
      <trkpt lat="41.126417" lon="-3.758000">
        <ele>2077.0</ele>
        <time>2018-07-22T13:39:04Z</time>
      </trkpt>
      <trkpt lat="41.126483" lon="-3.757850">
        <ele>2074.0</ele>
        <time>2018-07-22T13:39:05Z</time>
      </trkpt>
      <trkpt lat="41.126567" lon="-3.757700">
        <ele>2072.0</ele>
        <time>2018-07-22T13:39:06Z</time>
      </trkpt>
      <trkpt lat="41.126633" lon="-3.757550">
        <ele>2070.0</ele>
        <time>2018-07-22T13:39:07Z</time>
      </trkpt>
      <trkpt lat="41.126700" lon="-3.757400">
        <ele>2069.0</ele>
        <time>2018-07-22T13:39:08Z</time>
      </trkpt>
      <trkpt lat="41.126767" lon="-3.757250">
        <ele>2069.0</ele>
        <time>2018-07-22T13:39:09Z</time>
      </trkpt>
      <trkpt lat="41.126833" lon="-3.757117">
        <ele>2068.0</ele>
        <time>2018-07-22T13:39:10Z</time>
      </trkpt>
      <trkpt lat="41.126883" lon="-3.756983">
        <ele>2067.0</ele>
        <time>2018-07-22T13:39:11Z</time>
      </trkpt>
      <trkpt lat="41.126933" lon="-3.756850">
        <ele>2066.0</ele>
        <time>2018-07-22T13:39:12Z</time>
      </trkpt>
      <trkpt lat="41.127000" lon="-3.756717">
        <ele>2063.0</ele>
        <time>2018-07-22T13:39:13Z</time>
      </trkpt>
      <trkpt lat="41.127050" lon="-3.756583">
        <ele>2061.0</ele>
        <time>2018-07-22T13:39:14Z</time>
      </trkpt>
      <trkpt lat="41.127133" lon="-3.756467">
        <ele>2059.0</ele>
        <time>2018-07-22T13:39:15Z</time>
      </trkpt>
      <trkpt lat="41.127200" lon="-3.756333">
        <ele>2058.0</ele>
        <time>2018-07-22T13:39:16Z</time>
      </trkpt>
      <trkpt lat="41.127283" lon="-3.756217">
        <ele>2056.0</ele>
        <time>2018-07-22T13:39:17Z</time>
      </trkpt>
      <trkpt lat="41.127383" lon="-3.756117">
        <ele>2055.0</ele>
        <time>2018-07-22T13:39:18Z</time>
      </trkpt>
      <trkpt lat="41.127483" lon="-3.756033">
        <ele>2054.0</ele>
        <time>2018-07-22T13:39:19Z</time>
      </trkpt>
      <trkpt lat="41.127567" lon="-3.755933">
        <ele>2053.0</ele>
        <time>2018-07-22T13:39:20Z</time>
      </trkpt>
      <trkpt lat="41.127683" lon="-3.755850">
        <ele>2052.0</ele>
        <time>2018-07-22T13:39:21Z</time>
      </trkpt>
      <trkpt lat="41.127767" lon="-3.755750">
        <ele>2053.0</ele>
        <time>2018-07-22T13:39:22Z</time>
      </trkpt>
      <trkpt lat="41.127850" lon="-3.755650">
        <ele>2053.0</ele>
        <time>2018-07-22T13:39:23Z</time>
      </trkpt>
      <trkpt lat="41.127933" lon="-3.755550">
        <ele>2053.0</ele>
        <time>2018-07-22T13:39:24Z</time>
      </trkpt>
      <trkpt lat="41.128017" lon="-3.755450">
        <ele>2051.0</ele>
        <time>2018-07-22T13:39:25Z</time>
      </trkpt>
      <trkpt lat="41.128100" lon="-3.755367">
        <ele>2049.0</ele>
        <time>2018-07-22T13:39:26Z</time>
      </trkpt>
      <trkpt lat="41.128200" lon="-3.755283">
        <ele>2046.0</ele>
        <time>2018-07-22T13:39:27Z</time>
      </trkpt>
      <trkpt lat="41.128283" lon="-3.755183">
        <ele>2043.0</ele>
        <time>2018-07-22T13:39:28Z</time>
      </trkpt>
      <trkpt lat="41.128383" lon="-3.755083">
        <ele>2041.0</ele>
        <time>2018-07-22T13:39:29Z</time>
      </trkpt>
      <trkpt lat="41.128483" lon="-3.754983">
        <ele>2039.0</ele>
        <time>2018-07-22T13:39:30Z</time>
      </trkpt>
      <trkpt lat="41.128567" lon="-3.754883">
        <ele>2037.0</ele>
        <time>2018-07-22T13:39:31Z</time>
      </trkpt>
      <trkpt lat="41.128650" lon="-3.754783">
        <ele>2035.0</ele>
        <time>2018-07-22T13:39:32Z</time>
      </trkpt>
      <trkpt lat="41.128733" lon="-3.754683">
        <ele>2031.0</ele>
        <time>2018-07-22T13:39:33Z</time>
      </trkpt>
      <trkpt lat="41.128833" lon="-3.754583">
        <ele>2028.0</ele>
        <time>2018-07-22T13:39:34Z</time>
      </trkpt>
      <trkpt lat="41.128917" lon="-3.754483">
        <ele>2024.0</ele>
        <time>2018-07-22T13:39:35Z</time>
      </trkpt>
      <trkpt lat="41.129017" lon="-3.754367">
        <ele>2021.0</ele>
        <time>2018-07-22T13:39:36Z</time>
      </trkpt>
      <trkpt lat="41.129100" lon="-3.754233">
        <ele>2018.0</ele>
        <time>2018-07-22T13:39:37Z</time>
      </trkpt>
      <trkpt lat="41.129200" lon="-3.754117">
        <ele>2015.0</ele>
        <time>2018-07-22T13:39:38Z</time>
      </trkpt>
      <trkpt lat="41.129300" lon="-3.754000">
        <ele>2013.0</ele>
        <time>2018-07-22T13:39:39Z</time>
      </trkpt>
      <trkpt lat="41.129400" lon="-3.753867">
        <ele>2011.0</ele>
        <time>2018-07-22T13:39:40Z</time>
      </trkpt>
      <trkpt lat="41.129483" lon="-3.753733">
        <ele>2010.0</ele>
        <time>2018-07-22T13:39:41Z</time>
      </trkpt>
      <trkpt lat="41.129567" lon="-3.753583">
        <ele>2008.0</ele>
        <time>2018-07-22T13:39:42Z</time>
      </trkpt>
      <trkpt lat="41.129633" lon="-3.753433">
        <ele>2007.0</ele>
        <time>2018-07-22T13:39:43Z</time>
      </trkpt>
      <trkpt lat="41.129700" lon="-3.753283">
        <ele>2005.0</ele>
        <time>2018-07-22T13:39:44Z</time>
      </trkpt>
      <trkpt lat="41.129767" lon="-3.753150">
        <ele>2003.0</ele>
        <time>2018-07-22T13:39:45Z</time>
      </trkpt>
      <trkpt lat="41.129833" lon="-3.753000">
        <ele>2001.0</ele>
        <time>2018-07-22T13:39:46Z</time>
      </trkpt>
      <trkpt lat="41.129900" lon="-3.752850">
        <ele>1999.0</ele>
        <time>2018-07-22T13:39:47Z</time>
      </trkpt>
      <trkpt lat="41.129967" lon="-3.752700">
        <ele>1996.0</ele>
        <time>2018-07-22T13:39:48Z</time>
      </trkpt>
      <trkpt lat="41.130050" lon="-3.752567">
        <ele>1993.0</ele>
        <time>2018-07-22T13:39:49Z</time>
      </trkpt>
      <trkpt lat="41.130133" lon="-3.752433">
        <ele>1990.0</ele>
        <time>2018-07-22T13:39:50Z</time>
      </trkpt>
      <trkpt lat="41.130217" lon="-3.752300">
        <ele>1987.0</ele>
        <time>2018-07-22T13:39:51Z</time>
      </trkpt>
      <trkpt lat="41.130300" lon="-3.752150">
        <ele>1984.0</ele>
        <time>2018-07-22T13:39:52Z</time>
      </trkpt>
      <trkpt lat="41.130383" lon="-3.752017">
        <ele>1981.0</ele>
        <time>2018-07-22T13:39:53Z</time>
      </trkpt>
      <trkpt lat="41.130467" lon="-3.751900">
        <ele>1979.0</ele>
        <time>2018-07-22T13:39:54Z</time>
      </trkpt>
      <trkpt lat="41.130550" lon="-3.751783">
        <ele>1977.0</ele>
        <time>2018-07-22T13:39:55Z</time>
      </trkpt>
      <trkpt lat="41.130617" lon="-3.751667">
        <ele>1973.0</ele>
        <time>2018-07-22T13:39:56Z</time>
      </trkpt>
      <trkpt lat="41.130700" lon="-3.751567">
        <ele>1969.0</ele>
        <time>2018-07-22T13:39:57Z</time>
      </trkpt>
      <trkpt lat="41.130783" lon="-3.751467">
        <ele>1963.0</ele>
        <time>2018-07-22T13:39:58Z</time>
      </trkpt>
      <trkpt lat="41.130850" lon="-3.751333">
        <ele>1958.0</ele>
        <time>2018-07-22T13:39:59Z</time>
      </trkpt>
      <trkpt lat="41.130917" lon="-3.751183">
        <ele>1952.0</ele>
        <time>2018-07-22T13:40:00Z</time>
      </trkpt>
      <trkpt lat="41.130983" lon="-3.751017">
        <ele>1949.0</ele>
        <time>2018-07-22T13:40:01Z</time>
      </trkpt>
      <trkpt lat="41.131050" lon="-3.750833">
        <ele>1946.0</ele>
        <time>2018-07-22T13:40:02Z</time>
      </trkpt>
      <trkpt lat="41.131100" lon="-3.750683">
        <ele>1943.0</ele>
        <time>2018-07-22T13:40:03Z</time>
      </trkpt>
      <trkpt lat="41.131167" lon="-3.750517">
        <ele>1941.0</ele>
        <time>2018-07-22T13:40:04Z</time>
      </trkpt>
      <trkpt lat="41.131217" lon="-3.750367">
        <ele>1938.0</ele>
        <time>2018-07-22T13:40:05Z</time>
      </trkpt>
      <trkpt lat="41.131283" lon="-3.750217">
        <ele>1936.0</ele>
        <time>2018-07-22T13:40:06Z</time>
      </trkpt>
      <trkpt lat="41.131350" lon="-3.750067">
        <ele>1933.0</ele>
        <time>2018-07-22T13:40:07Z</time>
      </trkpt>
      <trkpt lat="41.131417" lon="-3.749933">
        <ele>1931.0</ele>
        <time>2018-07-22T13:40:08Z</time>
      </trkpt>
      <trkpt lat="41.131483" lon="-3.749817">
        <ele>1927.0</ele>
        <time>2018-07-22T13:40:09Z</time>
      </trkpt>
      <trkpt lat="41.131567" lon="-3.749700">
        <ele>1923.0</ele>
        <time>2018-07-22T13:40:10Z</time>
      </trkpt>
      <trkpt lat="41.131633" lon="-3.749583">
        <ele>1919.0</ele>
        <time>2018-07-22T13:40:11Z</time>
      </trkpt>
      <trkpt lat="41.131717" lon="-3.749433">
        <ele>1914.0</ele>
        <time>2018-07-22T13:40:12Z</time>
      </trkpt>
      <trkpt lat="41.131817" lon="-3.749283">
        <ele>1909.0</ele>
        <time>2018-07-22T13:40:13Z</time>
      </trkpt>
      <trkpt lat="41.131900" lon="-3.749133">
        <ele>1906.0</ele>
        <time>2018-07-22T13:40:14Z</time>
      </trkpt>
      <trkpt lat="41.131967" lon="-3.748983">
        <ele>1904.0</ele>
        <time>2018-07-22T13:40:15Z</time>
      </trkpt>
      <trkpt lat="41.132050" lon="-3.748833">
        <ele>1902.0</ele>
        <time>2018-07-22T13:40:16Z</time>
      </trkpt>
      <trkpt lat="41.132117" lon="-3.748683">
        <ele>1899.0</ele>
        <time>2018-07-22T13:40:17Z</time>
      </trkpt>
      <trkpt lat="41.132183" lon="-3.748533">
        <ele>1895.0</ele>
        <time>2018-07-22T13:40:18Z</time>
      </trkpt>
      <trkpt lat="41.132250" lon="-3.748367">
        <ele>1892.0</ele>
        <time>2018-07-22T13:40:19Z</time>
      </trkpt>
      <trkpt lat="41.132317" lon="-3.748200">
        <ele>1888.0</ele>
        <time>2018-07-22T13:40:20Z</time>
      </trkpt>
      <trkpt lat="41.132383" lon="-3.748017">
        <ele>1886.0</ele>
        <time>2018-07-22T13:40:21Z</time>
      </trkpt>
      <trkpt lat="41.132450" lon="-3.747867">
        <ele>1884.0</ele>
        <time>2018-07-22T13:40:22Z</time>
      </trkpt>
      <trkpt lat="41.132517" lon="-3.747700">
        <ele>1882.0</ele>
        <time>2018-07-22T13:40:23Z</time>
      </trkpt>
      <trkpt lat="41.132583" lon="-3.747550">
        <ele>1879.0</ele>
        <time>2018-07-22T13:40:24Z</time>
      </trkpt>
      <trkpt lat="41.132650" lon="-3.747400">
        <ele>1876.0</ele>
        <time>2018-07-22T13:40:25Z</time>
      </trkpt>
      <trkpt lat="41.132717" lon="-3.747250">
        <ele>1873.0</ele>
        <time>2018-07-22T13:40:26Z</time>
      </trkpt>
      <trkpt lat="41.132800" lon="-3.747100">
        <ele>1870.0</ele>
        <time>2018-07-22T13:40:27Z</time>
      </trkpt>
      <trkpt lat="41.132883" lon="-3.746950">
        <ele>1867.0</ele>
        <time>2018-07-22T13:40:28Z</time>
      </trkpt>
      <trkpt lat="41.132950" lon="-3.746783">
        <ele>1865.0</ele>
        <time>2018-07-22T13:40:29Z</time>
      </trkpt>
      <trkpt lat="41.133000" lon="-3.746633">
        <ele>1863.0</ele>
        <time>2018-07-22T13:40:30Z</time>
      </trkpt>
      <trkpt lat="41.133033" lon="-3.746450">
        <ele>1860.0</ele>
        <time>2018-07-22T13:40:31Z</time>
      </trkpt>
      <trkpt lat="41.133050" lon="-3.746283">
        <ele>1857.0</ele>
        <time>2018-07-22T13:40:32Z</time>
      </trkpt>
      <trkpt lat="41.133050" lon="-3.746117">
        <ele>1854.0</ele>
        <time>2018-07-22T13:40:33Z</time>
      </trkpt>
      <trkpt lat="41.133033" lon="-3.745933">
        <ele>1850.0</ele>
        <time>2018-07-22T13:40:34Z</time>
      </trkpt>
      <trkpt lat="41.133017" lon="-3.745767">
        <ele>1848.0</ele>
        <time>2018-07-22T13:40:35Z</time>
      </trkpt>
      <trkpt lat="41.133000" lon="-3.745583">
        <ele>1846.0</ele>
        <time>2018-07-22T13:40:36Z</time>
      </trkpt>
      <trkpt lat="41.133000" lon="-3.745417">
        <ele>1844.0</ele>
        <time>2018-07-22T13:40:37Z</time>
      </trkpt>
      <trkpt lat="41.133000" lon="-3.745250">
        <ele>1841.0</ele>
        <time>2018-07-22T13:40:38Z</time>
      </trkpt>
      <trkpt lat="41.132983" lon="-3.745083">
        <ele>1839.0</ele>
        <time>2018-07-22T13:40:39Z</time>
      </trkpt>
      <trkpt lat="41.132967" lon="-3.744917">
        <ele>1835.0</ele>
        <time>2018-07-22T13:40:40Z</time>
      </trkpt>
      <trkpt lat="41.132933" lon="-3.744733">
        <ele>1832.0</ele>
        <time>2018-07-22T13:40:41Z</time>
      </trkpt>
      <trkpt lat="41.132900" lon="-3.744567">
        <ele>1829.0</ele>
        <time>2018-07-22T13:40:42Z</time>
      </trkpt>
      <trkpt lat="41.132867" lon="-3.744400">
        <ele>1827.0</ele>
        <time>2018-07-22T13:40:43Z</time>
      </trkpt>
      <trkpt lat="41.132817" lon="-3.744233">
        <ele>1824.0</ele>
        <time>2018-07-22T13:40:44Z</time>
      </trkpt>
      <trkpt lat="41.132750" lon="-3.744083">
        <ele>1821.0</ele>
        <time>2018-07-22T13:40:45Z</time>
      </trkpt>
      <trkpt lat="41.132667" lon="-3.743967">
        <ele>1818.0</ele>
        <time>2018-07-22T13:40:46Z</time>
      </trkpt>
      <trkpt lat="41.132583" lon="-3.743850">
        <ele>1815.0</ele>
        <time>2018-07-22T13:40:47Z</time>
      </trkpt>
      <trkpt lat="41.132483" lon="-3.743750">
        <ele>1813.0</ele>
        <time>2018-07-22T13:40:48Z</time>
      </trkpt>
      <trkpt lat="41.132400" lon="-3.743633">
        <ele>1811.0</ele>
        <time>2018-07-22T13:40:49Z</time>
      </trkpt>
      <trkpt lat="41.132300" lon="-3.743533">
        <ele>1809.0</ele>
        <time>2018-07-22T13:40:50Z</time>
      </trkpt>
      <trkpt lat="41.132217" lon="-3.743433">
        <ele>1807.0</ele>
        <time>2018-07-22T13:40:51Z</time>
      </trkpt>
      <trkpt lat="41.132133" lon="-3.743333">
        <ele>1803.0</ele>
        <time>2018-07-22T13:40:52Z</time>
      </trkpt>
      <trkpt lat="41.132033" lon="-3.743233">
        <ele>1799.0</ele>
        <time>2018-07-22T13:40:53Z</time>
      </trkpt>
      <trkpt lat="41.131917" lon="-3.743117">
        <ele>1795.0</ele>
        <time>2018-07-22T13:40:54Z</time>
      </trkpt>
      <trkpt lat="41.131800" lon="-3.743017">
        <ele>1793.0</ele>
        <time>2018-07-22T13:40:55Z</time>
      </trkpt>
      <trkpt lat="41.131683" lon="-3.742950">
        <ele>1791.0</ele>
        <time>2018-07-22T13:40:56Z</time>
      </trkpt>
      <trkpt lat="41.131567" lon="-3.742900">
        <ele>1790.0</ele>
        <time>2018-07-22T13:40:57Z</time>
      </trkpt>
      <trkpt lat="41.131467" lon="-3.742850">
        <ele>1790.0</ele>
        <time>2018-07-22T13:40:58Z</time>
      </trkpt>
      <trkpt lat="41.131350" lon="-3.742817">
        <ele>1788.0</ele>
        <time>2018-07-22T13:40:59Z</time>
      </trkpt>
      <trkpt lat="41.131250" lon="-3.742783">
        <ele>1786.0</ele>
        <time>2018-07-22T13:41:00Z</time>
      </trkpt>
      <trkpt lat="41.131133" lon="-3.742733">
        <ele>1783.0</ele>
        <time>2018-07-22T13:41:01Z</time>
      </trkpt>
      <trkpt lat="41.131017" lon="-3.742700">
        <ele>1781.0</ele>
        <time>2018-07-22T13:41:02Z</time>
      </trkpt>
      <trkpt lat="41.130900" lon="-3.742667">
        <ele>1779.0</ele>
        <time>2018-07-22T13:41:03Z</time>
      </trkpt>
      <trkpt lat="41.130800" lon="-3.742633">
        <ele>1777.0</ele>
        <time>2018-07-22T13:41:04Z</time>
      </trkpt>
      <trkpt lat="41.130683" lon="-3.742600">
        <ele>1776.0</ele>
        <time>2018-07-22T13:41:05Z</time>
      </trkpt>
      <trkpt lat="41.130583" lon="-3.742567">
        <ele>1774.0</ele>
        <time>2018-07-22T13:41:06Z</time>
      </trkpt>
      <trkpt lat="41.130483" lon="-3.742533">
        <ele>1772.0</ele>
        <time>2018-07-22T13:41:07Z</time>
      </trkpt>
      <trkpt lat="41.130367" lon="-3.742500">
        <ele>1770.0</ele>
        <time>2018-07-22T13:41:08Z</time>
      </trkpt>
      <trkpt lat="41.130250" lon="-3.742467">
        <ele>1768.0</ele>
        <time>2018-07-22T13:41:09Z</time>
      </trkpt>
      <trkpt lat="41.130150" lon="-3.742433">
        <ele>1766.0</ele>
        <time>2018-07-22T13:41:10Z</time>
      </trkpt>
      <trkpt lat="41.130033" lon="-3.742383">
        <ele>1764.0</ele>
        <time>2018-07-22T13:41:11Z</time>
      </trkpt>
      <trkpt lat="41.129917" lon="-3.742350">
        <ele>1762.0</ele>
        <time>2018-07-22T13:41:12Z</time>
      </trkpt>
      <trkpt lat="41.129800" lon="-3.742300">
        <ele>1760.0</ele>
        <time>2018-07-22T13:41:13Z</time>
      </trkpt>
      <trkpt lat="41.129700" lon="-3.742267">
        <ele>1758.0</ele>
        <time>2018-07-22T13:41:14Z</time>
      </trkpt>
      <trkpt lat="41.129583" lon="-3.742217">
        <ele>1756.0</ele>
        <time>2018-07-22T13:41:15Z</time>
      </trkpt>
      <trkpt lat="41.129467" lon="-3.742183">
        <ele>1754.0</ele>
        <time>2018-07-22T13:41:16Z</time>
      </trkpt>
      <trkpt lat="41.129350" lon="-3.742150">
        <ele>1752.0</ele>
        <time>2018-07-22T13:41:17Z</time>
      </trkpt>
      <trkpt lat="41.129250" lon="-3.742100">
        <ele>1750.0</ele>
        <time>2018-07-22T13:41:18Z</time>
      </trkpt>
      <trkpt lat="41.129133" lon="-3.742050">
        <ele>1748.0</ele>
        <time>2018-07-22T13:41:19Z</time>
      </trkpt>
      <trkpt lat="41.129017" lon="-3.742017">
        <ele>1745.0</ele>
        <time>2018-07-22T13:41:20Z</time>
      </trkpt>
      <trkpt lat="41.128900" lon="-3.742000">
        <ele>1743.0</ele>
        <time>2018-07-22T13:41:21Z</time>
      </trkpt>
      <trkpt lat="41.128783" lon="-3.741967">
        <ele>1740.0</ele>
        <time>2018-07-22T13:41:22Z</time>
      </trkpt>
      <trkpt lat="41.128667" lon="-3.741933">
        <ele>1738.0</ele>
        <time>2018-07-22T13:41:23Z</time>
      </trkpt>
      <trkpt lat="41.128550" lon="-3.741917">
        <ele>1736.0</ele>
        <time>2018-07-22T13:41:24Z</time>
      </trkpt>
      <trkpt lat="41.128433" lon="-3.741883">
        <ele>1734.0</ele>
        <time>2018-07-22T13:41:25Z</time>
      </trkpt>
      <trkpt lat="41.128317" lon="-3.741883">
        <ele>1732.0</ele>
        <time>2018-07-22T13:41:26Z</time>
      </trkpt>
      <trkpt lat="41.128200" lon="-3.741867">
        <ele>1731.0</ele>
        <time>2018-07-22T13:41:27Z</time>
      </trkpt>
      <trkpt lat="41.128083" lon="-3.741850">
        <ele>1729.0</ele>
        <time>2018-07-22T13:41:28Z</time>
      </trkpt>
      <trkpt lat="41.127983" lon="-3.741817">
        <ele>1727.0</ele>
        <time>2018-07-22T13:41:29Z</time>
      </trkpt>
      <trkpt lat="41.127867" lon="-3.741783">
        <ele>1724.0</ele>
        <time>2018-07-22T13:41:30Z</time>
      </trkpt>
      <trkpt lat="41.127750" lon="-3.741750">
        <ele>1722.0</ele>
        <time>2018-07-22T13:41:31Z</time>
      </trkpt>
      <trkpt lat="41.127633" lon="-3.741717">
        <ele>1718.0</ele>
        <time>2018-07-22T13:41:32Z</time>
      </trkpt>
      <trkpt lat="41.127517" lon="-3.741683">
        <ele>1715.0</ele>
        <time>2018-07-22T13:41:33Z</time>
      </trkpt>
      <trkpt lat="41.127400" lon="-3.741650">
        <ele>1712.0</ele>
        <time>2018-07-22T13:41:34Z</time>
      </trkpt>
      <trkpt lat="41.127267" lon="-3.741617">
        <ele>1710.0</ele>
        <time>2018-07-22T13:41:35Z</time>
      </trkpt>
      <trkpt lat="41.127150" lon="-3.741567">
        <ele>1707.0</ele>
        <time>2018-07-22T13:41:36Z</time>
      </trkpt>
      <trkpt lat="41.127033" lon="-3.741533">
        <ele>1706.0</ele>
        <time>2018-07-22T13:41:37Z</time>
      </trkpt>
      <trkpt lat="41.126917" lon="-3.741500">
        <ele>1704.0</ele>
        <time>2018-07-22T13:41:38Z</time>
      </trkpt>
      <trkpt lat="41.126817" lon="-3.741467">
        <ele>1701.0</ele>
        <time>2018-07-22T13:41:39Z</time>
      </trkpt>
      <trkpt lat="41.126700" lon="-3.741433">
        <ele>1697.0</ele>
        <time>2018-07-22T13:41:40Z</time>
      </trkpt>
      <trkpt lat="41.126567" lon="-3.741383">
        <ele>1694.0</ele>
        <time>2018-07-22T13:41:41Z</time>
      </trkpt>
      <trkpt lat="41.126450" lon="-3.741333">
        <ele>1690.0</ele>
        <time>2018-07-22T13:41:42Z</time>
      </trkpt>
      <trkpt lat="41.126317" lon="-3.741300">
        <ele>1688.0</ele>
        <time>2018-07-22T13:41:43Z</time>
      </trkpt>
      <trkpt lat="41.126200" lon="-3.741267">
        <ele>1685.0</ele>
        <time>2018-07-22T13:41:44Z</time>
      </trkpt>
      <trkpt lat="41.126083" lon="-3.741233">
        <ele>1682.0</ele>
        <time>2018-07-22T13:41:45Z</time>
      </trkpt>
      <trkpt lat="41.125967" lon="-3.741200">
        <ele>1679.0</ele>
        <time>2018-07-22T13:41:46Z</time>
      </trkpt>
      <trkpt lat="41.125850" lon="-3.741150">
        <ele>1675.0</ele>
        <time>2018-07-22T13:41:47Z</time>
      </trkpt>
      <trkpt lat="41.125717" lon="-3.741100">
        <ele>1671.0</ele>
        <time>2018-07-22T13:41:48Z</time>
      </trkpt>
      <trkpt lat="41.125600" lon="-3.741050">
        <ele>1668.0</ele>
        <time>2018-07-22T13:41:49Z</time>
      </trkpt>
      <trkpt lat="41.125467" lon="-3.741000">
        <ele>1665.0</ele>
        <time>2018-07-22T13:41:50Z</time>
      </trkpt>
      <trkpt lat="41.125350" lon="-3.740950">
        <ele>1662.0</ele>
        <time>2018-07-22T13:41:51Z</time>
      </trkpt>
      <trkpt lat="41.125217" lon="-3.740900">
        <ele>1659.0</ele>
        <time>2018-07-22T13:41:52Z</time>
      </trkpt>
      <trkpt lat="41.125100" lon="-3.740867">
        <ele>1655.0</ele>
        <time>2018-07-22T13:41:53Z</time>
      </trkpt>
      <trkpt lat="41.124967" lon="-3.740833">
        <ele>1652.0</ele>
        <time>2018-07-22T13:41:54Z</time>
      </trkpt>
      <trkpt lat="41.124833" lon="-3.740783">
        <ele>1649.0</ele>
        <time>2018-07-22T13:41:55Z</time>
      </trkpt>
      <trkpt lat="41.124700" lon="-3.740733">
        <ele>1647.0</ele>
        <time>2018-07-22T13:41:56Z</time>
      </trkpt>
      <trkpt lat="41.124567" lon="-3.740717">
        <ele>1645.0</ele>
        <time>2018-07-22T13:41:57Z</time>
      </trkpt>
      <trkpt lat="41.124450" lon="-3.740700">
        <ele>1643.0</ele>
        <time>2018-07-22T13:41:58Z</time>
      </trkpt>
      <trkpt lat="41.124333" lon="-3.740700">
        <ele>1640.0</ele>
        <time>2018-07-22T13:41:59Z</time>
      </trkpt>
      <trkpt lat="41.124200" lon="-3.740700">
        <ele>1637.0</ele>
        <time>2018-07-22T13:42:00Z</time>
      </trkpt>
      <trkpt lat="41.124050" lon="-3.740717">
        <ele>1633.0</ele>
        <time>2018-07-22T13:42:01Z</time>
      </trkpt>
      <trkpt lat="41.123917" lon="-3.740733">
        <ele>1631.0</ele>
        <time>2018-07-22T13:42:02Z</time>
      </trkpt>
      <trkpt lat="41.123783" lon="-3.740733">
        <ele>1630.0</ele>
        <time>2018-07-22T13:42:03Z</time>
      </trkpt>
      <trkpt lat="41.123667" lon="-3.740717">
        <ele>1629.0</ele>
        <time>2018-07-22T13:42:04Z</time>
      </trkpt>
      <trkpt lat="41.123550" lon="-3.740683">
        <ele>1628.0</ele>
        <time>2018-07-22T13:42:05Z</time>
      </trkpt>
      <trkpt lat="41.123433" lon="-3.740633">
        <ele>1625.0</ele>
        <time>2018-07-22T13:42:06Z</time>
      </trkpt>
      <trkpt lat="41.123300" lon="-3.740567">
        <ele>1622.0</ele>
        <time>2018-07-22T13:42:07Z</time>
      </trkpt>
      <trkpt lat="41.123183" lon="-3.740483">
        <ele>1620.0</ele>
        <time>2018-07-22T13:42:08Z</time>
      </trkpt>
      <trkpt lat="41.123067" lon="-3.740400">
        <ele>1618.0</ele>
        <time>2018-07-22T13:42:09Z</time>
      </trkpt>
      <trkpt lat="41.122950" lon="-3.740317">
        <ele>1616.0</ele>
        <time>2018-07-22T13:42:10Z</time>
      </trkpt>
      <trkpt lat="41.122850" lon="-3.740217">
        <ele>1615.0</ele>
        <time>2018-07-22T13:42:11Z</time>
      </trkpt>
      <trkpt lat="41.122767" lon="-3.740117">
        <ele>1614.0</ele>
        <time>2018-07-22T13:42:12Z</time>
      </trkpt>
      <trkpt lat="41.122683" lon="-3.740000">
        <ele>1611.0</ele>
        <time>2018-07-22T13:42:13Z</time>
      </trkpt>
      <trkpt lat="41.122600" lon="-3.739867">
        <ele>1608.0</ele>
        <time>2018-07-22T13:42:14Z</time>
      </trkpt>
      <trkpt lat="41.122533" lon="-3.739717">
        <ele>1604.0</ele>
        <time>2018-07-22T13:42:15Z</time>
      </trkpt>
      <trkpt lat="41.122450" lon="-3.739533">
        <ele>1601.0</ele>
        <time>2018-07-22T13:42:16Z</time>
      </trkpt>
      <trkpt lat="41.122383" lon="-3.739367">
        <ele>1600.0</ele>
        <time>2018-07-22T13:42:17Z</time>
      </trkpt>
      <trkpt lat="41.122300" lon="-3.739200">
        <ele>1600.0</ele>
        <time>2018-07-22T13:42:18Z</time>
      </trkpt>
      <trkpt lat="41.122233" lon="-3.739083">
        <ele>1601.0</ele>
        <time>2018-07-22T13:42:19Z</time>
      </trkpt>
      <trkpt lat="41.122150" lon="-3.738967">
        <ele>1602.0</ele>
        <time>2018-07-22T13:42:20Z</time>
      </trkpt>
      <trkpt lat="41.122100" lon="-3.738850">
        <ele>1602.0</ele>
        <time>2018-07-22T13:42:21Z</time>
      </trkpt>
      <trkpt lat="41.122050" lon="-3.738733">
        <ele>1601.0</ele>
        <time>2018-07-22T13:42:22Z</time>
      </trkpt>
      <trkpt lat="41.122017" lon="-3.738617">
        <ele>1599.0</ele>
        <time>2018-07-22T13:42:23Z</time>
      </trkpt>
      <trkpt lat="41.122000" lon="-3.738483">
        <ele>1598.0</ele>
        <time>2018-07-22T13:42:24Z</time>
      </trkpt>
      <trkpt lat="41.121983" lon="-3.738367">
        <ele>1597.0</ele>
        <time>2018-07-22T13:42:25Z</time>
      </trkpt>
      <trkpt lat="41.121967" lon="-3.738250">
        <ele>1597.0</ele>
        <time>2018-07-22T13:42:26Z</time>
      </trkpt>
      <trkpt lat="41.121933" lon="-3.738133">
        <ele>1596.0</ele>
        <time>2018-07-22T13:42:27Z</time>
      </trkpt>
      <trkpt lat="41.121900" lon="-3.738017">
        <ele>1594.0</ele>
        <time>2018-07-22T13:42:28Z</time>
      </trkpt>
      <trkpt lat="41.121867" lon="-3.737900">
        <ele>1592.0</ele>
        <time>2018-07-22T13:42:29Z</time>
      </trkpt>
      <trkpt lat="41.121833" lon="-3.737767">
        <ele>1591.0</ele>
        <time>2018-07-22T13:42:30Z</time>
      </trkpt>
      <trkpt lat="41.121817" lon="-3.737633">
        <ele>1590.0</ele>
        <time>2018-07-22T13:42:31Z</time>
      </trkpt>
      <trkpt lat="41.121817" lon="-3.737483">
        <ele>1589.0</ele>
        <time>2018-07-22T13:42:32Z</time>
      </trkpt>
      <trkpt lat="41.121800" lon="-3.737350">
        <ele>1590.0</ele>
        <time>2018-07-22T13:42:33Z</time>
      </trkpt>
      <trkpt lat="41.121767" lon="-3.737200">
        <ele>1590.0</ele>
        <time>2018-07-22T13:42:34Z</time>
      </trkpt>
      <trkpt lat="41.121733" lon="-3.737067">
        <ele>1590.0</ele>
        <time>2018-07-22T13:42:35Z</time>
      </trkpt>
      <trkpt lat="41.121717" lon="-3.736933">
        <ele>1590.0</ele>
        <time>2018-07-22T13:42:36Z</time>
      </trkpt>
      <trkpt lat="41.121683" lon="-3.736800">
        <ele>1590.0</ele>
        <time>2018-07-22T13:42:37Z</time>
      </trkpt>
      <trkpt lat="41.121650" lon="-3.736683">
        <ele>1589.0</ele>
        <time>2018-07-22T13:42:38Z</time>
      </trkpt>
      <trkpt lat="41.121617" lon="-3.736550">
        <ele>1587.0</ele>
        <time>2018-07-22T13:42:39Z</time>
      </trkpt>
      <trkpt lat="41.121550" lon="-3.736417">
        <ele>1585.0</ele>
        <time>2018-07-22T13:42:40Z</time>
      </trkpt>
      <trkpt lat="41.121500" lon="-3.736300">
        <ele>1583.0</ele>
        <time>2018-07-22T13:42:41Z</time>
      </trkpt>
      <trkpt lat="41.121433" lon="-3.736167">
        <ele>1582.0</ele>
        <time>2018-07-22T13:42:42Z</time>
      </trkpt>
      <trkpt lat="41.121383" lon="-3.736050">
        <ele>1580.0</ele>
        <time>2018-07-22T13:42:43Z</time>
      </trkpt>
      <trkpt lat="41.121317" lon="-3.735933">
        <ele>1578.0</ele>
        <time>2018-07-22T13:42:44Z</time>
      </trkpt>
      <trkpt lat="41.121267" lon="-3.735817">
        <ele>1576.0</ele>
        <time>2018-07-22T13:42:45Z</time>
      </trkpt>
      <trkpt lat="41.121200" lon="-3.735700">
        <ele>1572.0</ele>
        <time>2018-07-22T13:42:46Z</time>
      </trkpt>
      <trkpt lat="41.121150" lon="-3.735567">
        <ele>1569.0</ele>
        <time>2018-07-22T13:42:47Z</time>
      </trkpt>
      <trkpt lat="41.121083" lon="-3.735400">
        <ele>1566.0</ele>
        <time>2018-07-22T13:42:48Z</time>
      </trkpt>
      <trkpt lat="41.121033" lon="-3.735250">
        <ele>1564.0</ele>
        <time>2018-07-22T13:42:49Z</time>
      </trkpt>
      <trkpt lat="41.120983" lon="-3.735083">
        <ele>1563.0</ele>
        <time>2018-07-22T13:42:50Z</time>
      </trkpt>
      <trkpt lat="41.120917" lon="-3.734950">
        <ele>1562.0</ele>
        <time>2018-07-22T13:42:51Z</time>
      </trkpt>
      <trkpt lat="41.120867" lon="-3.734817">
        <ele>1562.0</ele>
        <time>2018-07-22T13:42:52Z</time>
      </trkpt>
      <trkpt lat="41.120817" lon="-3.734683">
        <ele>1561.0</ele>
        <time>2018-07-22T13:42:53Z</time>
      </trkpt>
      <trkpt lat="41.120783" lon="-3.734550">
        <ele>1559.0</ele>
        <time>2018-07-22T13:42:54Z</time>
      </trkpt>
      <trkpt lat="41.120717" lon="-3.734433">
        <ele>1557.0</ele>
        <time>2018-07-22T13:42:55Z</time>
      </trkpt>
      <trkpt lat="41.120633" lon="-3.734300">
        <ele>1554.0</ele>
        <time>2018-07-22T13:42:56Z</time>
      </trkpt>
      <trkpt lat="41.120550" lon="-3.734200">
        <ele>1552.0</ele>
        <time>2018-07-22T13:42:57Z</time>
      </trkpt>
      <trkpt lat="41.120450" lon="-3.734117">
        <ele>1550.0</ele>
        <time>2018-07-22T13:42:58Z</time>
      </trkpt>
      <trkpt lat="41.120367" lon="-3.734033">
        <ele>1548.0</ele>
        <time>2018-07-22T13:42:59Z</time>
      </trkpt>
      <trkpt lat="41.120283" lon="-3.733983">
        <ele>1546.0</ele>
        <time>2018-07-22T13:43:00Z</time>
      </trkpt>
      <trkpt lat="41.120183" lon="-3.733933">
        <ele>1543.0</ele>
        <time>2018-07-22T13:43:01Z</time>
      </trkpt>
      <trkpt lat="41.120067" lon="-3.733883">
        <ele>1539.0</ele>
        <time>2018-07-22T13:43:02Z</time>
      </trkpt>
      <trkpt lat="41.119933" lon="-3.733850">
        <ele>1537.0</ele>
        <time>2018-07-22T13:43:03Z</time>
      </trkpt>
      <trkpt lat="41.119817" lon="-3.733833">
        <ele>1536.0</ele>
        <time>2018-07-22T13:43:04Z</time>
      </trkpt>
      <trkpt lat="41.119700" lon="-3.733833">
        <ele>1536.0</ele>
        <time>2018-07-22T13:43:05Z</time>
      </trkpt>
      <trkpt lat="41.119583" lon="-3.733833">
        <ele>1537.0</ele>
        <time>2018-07-22T13:43:06Z</time>
      </trkpt>
      <trkpt lat="41.119483" lon="-3.733850">
        <ele>1536.0</ele>
        <time>2018-07-22T13:43:07Z</time>
      </trkpt>
      <trkpt lat="41.119383" lon="-3.733867">
        <ele>1536.0</ele>
        <time>2018-07-22T13:43:08Z</time>
      </trkpt>
      <trkpt lat="41.119267" lon="-3.733867">
        <ele>1536.0</ele>
        <time>2018-07-22T13:43:09Z</time>
      </trkpt>
      <trkpt lat="41.119167" lon="-3.733883">
        <ele>1537.0</ele>
        <time>2018-07-22T13:43:10Z</time>
      </trkpt>
      <trkpt lat="41.119067" lon="-3.733900">
        <ele>1537.0</ele>
        <time>2018-07-22T13:43:11Z</time>
      </trkpt>
      <trkpt lat="41.118983" lon="-3.733933">
        <ele>1536.0</ele>
        <time>2018-07-22T13:43:12Z</time>
      </trkpt>
      <trkpt lat="41.118900" lon="-3.733983">
        <ele>1536.0</ele>
        <time>2018-07-22T13:43:13Z</time>
      </trkpt>
      <trkpt lat="41.118800" lon="-3.734033">
        <ele>1535.0</ele>
        <time>2018-07-22T13:43:14Z</time>
      </trkpt>
      <trkpt lat="41.118717" lon="-3.734083">
        <ele>1535.0</ele>
        <time>2018-07-22T13:43:15Z</time>
      </trkpt>
      <trkpt lat="41.118633" lon="-3.734117">
        <ele>1534.0</ele>
        <time>2018-07-22T13:43:16Z</time>
      </trkpt>
      <trkpt lat="41.118550" lon="-3.734167">
        <ele>1533.0</ele>
        <time>2018-07-22T13:43:17Z</time>
      </trkpt>
      <trkpt lat="41.118450" lon="-3.734217">
        <ele>1531.0</ele>
        <time>2018-07-22T13:43:18Z</time>
      </trkpt>
      <trkpt lat="41.118350" lon="-3.734283">
        <ele>1529.0</ele>
        <time>2018-07-22T13:43:19Z</time>
      </trkpt>
      <trkpt lat="41.118250" lon="-3.734350">
        <ele>1530.0</ele>
        <time>2018-07-22T13:43:20Z</time>
      </trkpt>
      <trkpt lat="41.118183" lon="-3.734400">
        <ele>1533.0</ele>
        <time>2018-07-22T13:43:21Z</time>
      </trkpt>
      <trkpt lat="41.118133" lon="-3.734450">
        <ele>1535.0</ele>
        <time>2018-07-22T13:43:22Z</time>
      </trkpt>
      <trkpt lat="41.118100" lon="-3.734500">
        <ele>1537.0</ele>
        <time>2018-07-22T13:43:23Z</time>
      </trkpt>
      <trkpt lat="41.118050" lon="-3.734550">
        <ele>1538.0</ele>
        <time>2018-07-22T13:43:24Z</time>
      </trkpt>
      <trkpt lat="41.117983" lon="-3.734583">
        <ele>1539.0</ele>
        <time>2018-07-22T13:43:25Z</time>
      </trkpt>
      <trkpt lat="41.117883" lon="-3.734600">
        <ele>1539.0</ele>
        <time>2018-07-22T13:43:26Z</time>
      </trkpt>
      <trkpt lat="41.117800" lon="-3.734583">
        <ele>1540.0</ele>
        <time>2018-07-22T13:43:27Z</time>
      </trkpt>
      <trkpt lat="41.117700" lon="-3.734550">
        <ele>1540.0</ele>
        <time>2018-07-22T13:43:28Z</time>
      </trkpt>
      <trkpt lat="41.117617" lon="-3.734500">
        <ele>1540.0</ele>
        <time>2018-07-22T13:43:29Z</time>
      </trkpt>
      <trkpt lat="41.117533" lon="-3.734450">
        <ele>1540.0</ele>
        <time>2018-07-22T13:43:30Z</time>
      </trkpt>
      <trkpt lat="41.117467" lon="-3.734433">
        <ele>1539.0</ele>
        <time>2018-07-22T13:43:31Z</time>
      </trkpt>
      <trkpt lat="41.117400" lon="-3.734483">
        <ele>1537.0</ele>
        <time>2018-07-22T13:43:32Z</time>
      </trkpt>
      <trkpt lat="41.117350" lon="-3.734550">
        <ele>1536.0</ele>
        <time>2018-07-22T13:43:33Z</time>
      </trkpt>
      <trkpt lat="41.117333" lon="-3.734650">
        <ele>1536.0</ele>
        <time>2018-07-22T13:43:34Z</time>
      </trkpt>
      <trkpt lat="41.117350" lon="-3.734767">
        <ele>1536.0</ele>
        <time>2018-07-22T13:43:35Z</time>
      </trkpt>
      <trkpt lat="41.117383" lon="-3.734867">
        <ele>1536.0</ele>
        <time>2018-07-22T13:43:36Z</time>
      </trkpt>
      <trkpt lat="41.117417" lon="-3.734967">
        <ele>1537.0</ele>
        <time>2018-07-22T13:43:37Z</time>
      </trkpt>
      <trkpt lat="41.117483" lon="-3.735050">
        <ele>1538.0</ele>
        <time>2018-07-22T13:43:38Z</time>
      </trkpt>
      <trkpt lat="41.117533" lon="-3.735133">
        <ele>1539.0</ele>
        <time>2018-07-22T13:43:39Z</time>
      </trkpt>
      <trkpt lat="41.117617" lon="-3.735200">
        <ele>1541.0</ele>
        <time>2018-07-22T13:43:40Z</time>
      </trkpt>
      <trkpt lat="41.117683" lon="-3.735267">
        <ele>1541.0</ele>
        <time>2018-07-22T13:43:41Z</time>
      </trkpt>
      <trkpt lat="41.117733" lon="-3.735300">
        <ele>1542.0</ele>
        <time>2018-07-22T13:43:42Z</time>
      </trkpt>
      <trkpt lat="41.117800" lon="-3.735333">
        <ele>1542.0</ele>
        <time>2018-07-22T13:43:43Z</time>
      </trkpt>
      <trkpt lat="41.117883" lon="-3.735333">
        <ele>1541.0</ele>
        <time>2018-07-22T13:43:44Z</time>
      </trkpt>
      <trkpt lat="41.117967" lon="-3.735317">
        <ele>1540.0</ele>
        <time>2018-07-22T13:43:45Z</time>
      </trkpt>
      <trkpt lat="41.118050" lon="-3.735283">
        <ele>1539.0</ele>
        <time>2018-07-22T13:43:46Z</time>
      </trkpt>
      <trkpt lat="41.118117" lon="-3.735233">
        <ele>1539.0</ele>
        <time>2018-07-22T13:43:47Z</time>
      </trkpt>
      <trkpt lat="41.118183" lon="-3.735167">
        <ele>1539.0</ele>
        <time>2018-07-22T13:43:48Z</time>
      </trkpt>
      <trkpt lat="41.118233" lon="-3.735083">
        <ele>1539.0</ele>
        <time>2018-07-22T13:43:49Z</time>
      </trkpt>
      <trkpt lat="41.118283" lon="-3.735000">
        <ele>1538.0</ele>
        <time>2018-07-22T13:43:50Z</time>
      </trkpt>
      <trkpt lat="41.118350" lon="-3.734900">
        <ele>1538.0</ele>
        <time>2018-07-22T13:43:51Z</time>
      </trkpt>
      <trkpt lat="41.118400" lon="-3.734800">
        <ele>1540.0</ele>
        <time>2018-07-22T13:43:52Z</time>
      </trkpt>
      <trkpt lat="41.118450" lon="-3.734717">
        <ele>1542.0</ele>
        <time>2018-07-22T13:43:53Z</time>
      </trkpt>
      <trkpt lat="41.118500" lon="-3.734617">
        <ele>1544.0</ele>
        <time>2018-07-22T13:43:54Z</time>
      </trkpt>
      <trkpt lat="41.118550" lon="-3.734517">
        <ele>1547.0</ele>
        <time>2018-07-22T13:43:55Z</time>
      </trkpt>
      <trkpt lat="41.118583" lon="-3.734417">
        <ele>1549.0</ele>
        <time>2018-07-22T13:43:56Z</time>
      </trkpt>
      <trkpt lat="41.118617" lon="-3.734300">
        <ele>1551.0</ele>
        <time>2018-07-22T13:43:57Z</time>
      </trkpt>
      <trkpt lat="41.118617" lon="-3.734183">
        <ele>1552.0</ele>
        <time>2018-07-22T13:43:58Z</time>
      </trkpt>
      <trkpt lat="41.118600" lon="-3.734033">
        <ele>1552.0</ele>
        <time>2018-07-22T13:43:59Z</time>
      </trkpt>
      <trkpt lat="41.118567" lon="-3.733883">
        <ele>1552.0</ele>
        <time>2018-07-22T13:44:00Z</time>
      </trkpt>
      <trkpt lat="41.118517" lon="-3.733733">
        <ele>1551.0</ele>
        <time>2018-07-22T13:44:01Z</time>
      </trkpt>
      <trkpt lat="41.118433" lon="-3.733600">
        <ele>1551.0</ele>
        <time>2018-07-22T13:44:02Z</time>
      </trkpt>
      <trkpt lat="41.118350" lon="-3.733500">
        <ele>1551.0</ele>
        <time>2018-07-22T13:44:03Z</time>
      </trkpt>
      <trkpt lat="41.118233" lon="-3.733400">
        <ele>1551.0</ele>
        <time>2018-07-22T13:44:04Z</time>
      </trkpt>
      <trkpt lat="41.118117" lon="-3.733333">
        <ele>1551.0</ele>
        <time>2018-07-22T13:44:05Z</time>
      </trkpt>
      <trkpt lat="41.118000" lon="-3.733267">
        <ele>1551.0</ele>
        <time>2018-07-22T13:44:06Z</time>
      </trkpt>
      <trkpt lat="41.117883" lon="-3.733233">
        <ele>1550.0</ele>
        <time>2018-07-22T13:44:07Z</time>
      </trkpt>
      <trkpt lat="41.117783" lon="-3.733217">
        <ele>1549.0</ele>
        <time>2018-07-22T13:44:08Z</time>
      </trkpt>
      <trkpt lat="41.117667" lon="-3.733233">
        <ele>1548.0</ele>
        <time>2018-07-22T13:44:09Z</time>
      </trkpt>
      <trkpt lat="41.117567" lon="-3.733267">
        <ele>1546.0</ele>
        <time>2018-07-22T13:44:10Z</time>
      </trkpt>
      <trkpt lat="41.117483" lon="-3.733317">
        <ele>1547.0</ele>
        <time>2018-07-22T13:44:11Z</time>
      </trkpt>
      <trkpt lat="41.117417" lon="-3.733367">
        <ele>1548.0</ele>
        <time>2018-07-22T13:44:12Z</time>
      </trkpt>
      <trkpt lat="41.117367" lon="-3.733400">
        <ele>1547.0</ele>
        <time>2018-07-22T13:44:13Z</time>
      </trkpt>
      <trkpt lat="41.117317" lon="-3.733450">
        <ele>1546.0</ele>
        <time>2018-07-22T13:44:14Z</time>
      </trkpt>
      <trkpt lat="41.117267" lon="-3.733483">
        <ele>1544.0</ele>
        <time>2018-07-22T13:44:15Z</time>
      </trkpt>
      <trkpt lat="41.117217" lon="-3.733533">
        <ele>1541.0</ele>
        <time>2018-07-22T13:44:16Z</time>
      </trkpt>
      <trkpt lat="41.117150" lon="-3.733583">
        <ele>1539.0</ele>
        <time>2018-07-22T13:44:17Z</time>
      </trkpt>
      <trkpt lat="41.117083" lon="-3.733650">
        <ele>1536.0</ele>
        <time>2018-07-22T13:44:18Z</time>
      </trkpt>
      <trkpt lat="41.117017" lon="-3.733717">
        <ele>1534.0</ele>
        <time>2018-07-22T13:44:19Z</time>
      </trkpt>
      <trkpt lat="41.116950" lon="-3.733783">
        <ele>1533.0</ele>
        <time>2018-07-22T13:44:20Z</time>
      </trkpt>
      <trkpt lat="41.116883" lon="-3.733850">
        <ele>1533.0</ele>
        <time>2018-07-22T13:44:21Z</time>
      </trkpt>
      <trkpt lat="41.116800" lon="-3.733900">
        <ele>1534.0</ele>
        <time>2018-07-22T13:44:22Z</time>
      </trkpt>
      <trkpt lat="41.116733" lon="-3.733917">
        <ele>1536.0</ele>
        <time>2018-07-22T13:44:23Z</time>
      </trkpt>
      <trkpt lat="41.116667" lon="-3.733917">
        <ele>1538.0</ele>
        <time>2018-07-22T13:44:24Z</time>
      </trkpt>
      <trkpt lat="41.116617" lon="-3.733917">
        <ele>1538.0</ele>
        <time>2018-07-22T13:44:25Z</time>
      </trkpt>
      <trkpt lat="41.116550" lon="-3.733917">
        <ele>1537.0</ele>
        <time>2018-07-22T13:44:26Z</time>
      </trkpt>
      <trkpt lat="41.116467" lon="-3.733933">
        <ele>1535.0</ele>
        <time>2018-07-22T13:44:27Z</time>
      </trkpt>
      <trkpt lat="41.116367" lon="-3.733950">
        <ele>1534.0</ele>
        <time>2018-07-22T13:44:28Z</time>
      </trkpt>
      <trkpt lat="41.116267" lon="-3.733983">
        <ele>1534.0</ele>
        <time>2018-07-22T13:44:29Z</time>
      </trkpt>
      <trkpt lat="41.116167" lon="-3.734017">
        <ele>1536.0</ele>
        <time>2018-07-22T13:44:30Z</time>
      </trkpt>
      <trkpt lat="41.116067" lon="-3.734050">
        <ele>1537.0</ele>
        <time>2018-07-22T13:44:31Z</time>
      </trkpt>
      <trkpt lat="41.115983" lon="-3.734083">
        <ele>1538.0</ele>
        <time>2018-07-22T13:44:32Z</time>
      </trkpt>
      <trkpt lat="41.115917" lon="-3.734117">
        <ele>1539.0</ele>
        <time>2018-07-22T13:44:33Z</time>
      </trkpt>
      <trkpt lat="41.115817" lon="-3.734133">
        <ele>1539.0</ele>
        <time>2018-07-22T13:44:34Z</time>
      </trkpt>
      <trkpt lat="41.115717" lon="-3.734133">
        <ele>1538.0</ele>
        <time>2018-07-22T13:44:35Z</time>
      </trkpt>
      <trkpt lat="41.115617" lon="-3.734100">
        <ele>1537.0</ele>
        <time>2018-07-22T13:44:36Z</time>
      </trkpt>
      <trkpt lat="41.115500" lon="-3.734033">
        <ele>1538.0</ele>
        <time>2018-07-22T13:44:37Z</time>
      </trkpt>
      <trkpt lat="41.115400" lon="-3.733967">
        <ele>1539.0</ele>
        <time>2018-07-22T13:44:38Z</time>
      </trkpt>
      <trkpt lat="41.115300" lon="-3.733900">
        <ele>1541.0</ele>
        <time>2018-07-22T13:44:39Z</time>
      </trkpt>
      <trkpt lat="41.115217" lon="-3.733817">
        <ele>1541.0</ele>
        <time>2018-07-22T13:44:40Z</time>
      </trkpt>
      <trkpt lat="41.115117" lon="-3.733733">
        <ele>1542.0</ele>
        <time>2018-07-22T13:44:41Z</time>
      </trkpt>
      <trkpt lat="41.115033" lon="-3.733650">
        <ele>1542.0</ele>
        <time>2018-07-22T13:44:42Z</time>
      </trkpt>
      <trkpt lat="41.114933" lon="-3.733583">
        <ele>1541.0</ele>
        <time>2018-07-22T13:44:43Z</time>
      </trkpt>
      <trkpt lat="41.114833" lon="-3.733550">
        <ele>1540.0</ele>
        <time>2018-07-22T13:44:44Z</time>
      </trkpt>
      <trkpt lat="41.114717" lon="-3.733533">
        <ele>1540.0</ele>
        <time>2018-07-22T13:44:45Z</time>
      </trkpt>
      <trkpt lat="41.114617" lon="-3.733533">
        <ele>1539.0</ele>
        <time>2018-07-22T13:44:46Z</time>
      </trkpt>
      <trkpt lat="41.114500" lon="-3.733550">
        <ele>1540.0</ele>
        <time>2018-07-22T13:44:47Z</time>
      </trkpt>
      <trkpt lat="41.114400" lon="-3.733533">
        <ele>1540.0</ele>
        <time>2018-07-22T13:44:48Z</time>
      </trkpt>
      <trkpt lat="41.114300" lon="-3.733533">
        <ele>1540.0</ele>
        <time>2018-07-22T13:44:49Z</time>
      </trkpt>
      <trkpt lat="41.114200" lon="-3.733550">
        <ele>1540.0</ele>
        <time>2018-07-22T13:44:50Z</time>
      </trkpt>
      <trkpt lat="41.114100" lon="-3.733567">
        <ele>1540.0</ele>
        <time>2018-07-22T13:44:51Z</time>
      </trkpt>
      <trkpt lat="41.114000" lon="-3.733583">
        <ele>1540.0</ele>
        <time>2018-07-22T13:44:52Z</time>
      </trkpt>
      <trkpt lat="41.113883" lon="-3.733633">
        <ele>1541.0</ele>
        <time>2018-07-22T13:44:53Z</time>
      </trkpt>
      <trkpt lat="41.113783" lon="-3.733700">
        <ele>1541.0</ele>
        <time>2018-07-22T13:44:54Z</time>
      </trkpt>
      <trkpt lat="41.113667" lon="-3.733767">
        <ele>1540.0</ele>
        <time>2018-07-22T13:44:55Z</time>
      </trkpt>
      <trkpt lat="41.113550" lon="-3.733833">
        <ele>1540.0</ele>
        <time>2018-07-22T13:44:56Z</time>
      </trkpt>
      <trkpt lat="41.113467" lon="-3.733917">
        <ele>1540.0</ele>
        <time>2018-07-22T13:44:57Z</time>
      </trkpt>
      <trkpt lat="41.113367" lon="-3.734000">
        <ele>1540.0</ele>
        <time>2018-07-22T13:44:58Z</time>
      </trkpt>
      <trkpt lat="41.113283" lon="-3.734067">
        <ele>1539.0</ele>
        <time>2018-07-22T13:44:59Z</time>
      </trkpt>
      <trkpt lat="41.113183" lon="-3.734133">
        <ele>1537.0</ele>
        <time>2018-07-22T13:45:00Z</time>
      </trkpt>
      <trkpt lat="41.113067" lon="-3.734200">
        <ele>1534.0</ele>
        <time>2018-07-22T13:45:01Z</time>
      </trkpt>
      <trkpt lat="41.112967" lon="-3.734250">
        <ele>1531.0</ele>
        <time>2018-07-22T13:45:02Z</time>
      </trkpt>
      <trkpt lat="41.112850" lon="-3.734300">
        <ele>1529.0</ele>
        <time>2018-07-22T13:45:03Z</time>
      </trkpt>
      <trkpt lat="41.112750" lon="-3.734333">
        <ele>1527.0</ele>
        <time>2018-07-22T13:45:04Z</time>
      </trkpt>
      <trkpt lat="41.112633" lon="-3.734367">
        <ele>1525.0</ele>
        <time>2018-07-22T13:45:05Z</time>
      </trkpt>
      <trkpt lat="41.112533" lon="-3.734400">
        <ele>1522.0</ele>
        <time>2018-07-22T13:45:06Z</time>
      </trkpt>
      <trkpt lat="41.112417" lon="-3.734417">
        <ele>1520.0</ele>
        <time>2018-07-22T13:45:07Z</time>
      </trkpt>
      <trkpt lat="41.112300" lon="-3.734417">
        <ele>1517.0</ele>
        <time>2018-07-22T13:45:08Z</time>
      </trkpt>
      <trkpt lat="41.112167" lon="-3.734417">
        <ele>1516.0</ele>
        <time>2018-07-22T13:45:09Z</time>
      </trkpt>
      <trkpt lat="41.112050" lon="-3.734433">
        <ele>1514.0</ele>
        <time>2018-07-22T13:45:10Z</time>
      </trkpt>
      <trkpt lat="41.111950" lon="-3.734433">
        <ele>1513.0</ele>
        <time>2018-07-22T13:45:11Z</time>
      </trkpt>
      <trkpt lat="41.111833" lon="-3.734450">
        <ele>1511.0</ele>
        <time>2018-07-22T13:45:12Z</time>
      </trkpt>
      <trkpt lat="41.111717" lon="-3.734450">
        <ele>1509.0</ele>
        <time>2018-07-22T13:45:13Z</time>
      </trkpt>
      <trkpt lat="41.111600" lon="-3.734433">
        <ele>1506.0</ele>
        <time>2018-07-22T13:45:14Z</time>
      </trkpt>
      <trkpt lat="41.111467" lon="-3.734400">
        <ele>1505.0</ele>
        <time>2018-07-22T13:45:15Z</time>
      </trkpt>
      <trkpt lat="41.111350" lon="-3.734383">
        <ele>1505.0</ele>
        <time>2018-07-22T13:45:16Z</time>
      </trkpt>
      <trkpt lat="41.111250" lon="-3.734367">
        <ele>1504.0</ele>
        <time>2018-07-22T13:45:17Z</time>
      </trkpt>
      <trkpt lat="41.111133" lon="-3.734350">
        <ele>1504.0</ele>
        <time>2018-07-22T13:45:18Z</time>
      </trkpt>
      <trkpt lat="41.111033" lon="-3.734333">
        <ele>1503.0</ele>
        <time>2018-07-22T13:45:19Z</time>
      </trkpt>
      <trkpt lat="41.110917" lon="-3.734300">
        <ele>1501.0</ele>
        <time>2018-07-22T13:45:20Z</time>
      </trkpt>
      <trkpt lat="41.110800" lon="-3.734267">
        <ele>1500.0</ele>
        <time>2018-07-22T13:45:21Z</time>
      </trkpt>
      <trkpt lat="41.110683" lon="-3.734233">
        <ele>1499.0</ele>
        <time>2018-07-22T13:45:22Z</time>
      </trkpt>
      <trkpt lat="41.110567" lon="-3.734217">
        <ele>1498.0</ele>
        <time>2018-07-22T13:45:23Z</time>
      </trkpt>
      <trkpt lat="41.110450" lon="-3.734217">
        <ele>1497.0</ele>
        <time>2018-07-22T13:45:24Z</time>
      </trkpt>
      <trkpt lat="41.110317" lon="-3.734217">
        <ele>1497.0</ele>
        <time>2018-07-22T13:45:25Z</time>
      </trkpt>
      <trkpt lat="41.110200" lon="-3.734200">
        <ele>1496.0</ele>
        <time>2018-07-22T13:45:26Z</time>
      </trkpt>
      <trkpt lat="41.110067" lon="-3.734200">
        <ele>1497.0</ele>
        <time>2018-07-22T13:45:27Z</time>
      </trkpt>
      <trkpt lat="41.109967" lon="-3.734217">
        <ele>1498.0</ele>
        <time>2018-07-22T13:45:28Z</time>
      </trkpt>
      <trkpt lat="41.109850" lon="-3.734233">
        <ele>1499.0</ele>
        <time>2018-07-22T13:45:29Z</time>
      </trkpt>
      <trkpt lat="41.109767" lon="-3.734250">
        <ele>1500.0</ele>
        <time>2018-07-22T13:45:30Z</time>
      </trkpt>
      <trkpt lat="41.109667" lon="-3.734250">
        <ele>1499.0</ele>
        <time>2018-07-22T13:45:31Z</time>
      </trkpt>
      <trkpt lat="41.109550" lon="-3.734250">
        <ele>1498.0</ele>
        <time>2018-07-22T13:45:32Z</time>
      </trkpt>
      <trkpt lat="41.109433" lon="-3.734267">
        <ele>1497.0</ele>
        <time>2018-07-22T13:45:33Z</time>
      </trkpt>
      <trkpt lat="41.109317" lon="-3.734267">
        <ele>1497.0</ele>
        <time>2018-07-22T13:45:34Z</time>
      </trkpt>
      <trkpt lat="41.109183" lon="-3.734283">
        <ele>1499.0</ele>
        <time>2018-07-22T13:45:35Z</time>
      </trkpt>
      <trkpt lat="41.109067" lon="-3.734300">
        <ele>1502.0</ele>
        <time>2018-07-22T13:45:36Z</time>
      </trkpt>
      <trkpt lat="41.108967" lon="-3.734333">
        <ele>1506.0</ele>
        <time>2018-07-22T13:45:37Z</time>
      </trkpt>
      <trkpt lat="41.108883" lon="-3.734350">
        <ele>1509.0</ele>
        <time>2018-07-22T13:45:38Z</time>
      </trkpt>
      <trkpt lat="41.108800" lon="-3.734350">
        <ele>1510.0</ele>
        <time>2018-07-22T13:45:39Z</time>
      </trkpt>
      <trkpt lat="41.108700" lon="-3.734350">
        <ele>1511.0</ele>
        <time>2018-07-22T13:45:40Z</time>
      </trkpt>
      <trkpt lat="41.108583" lon="-3.734317">
        <ele>1509.0</ele>
        <time>2018-07-22T13:45:41Z</time>
      </trkpt>
      <trkpt lat="41.108467" lon="-3.734267">
        <ele>1508.0</ele>
        <time>2018-07-22T13:45:42Z</time>
      </trkpt>
      <trkpt lat="41.108333" lon="-3.734200">
        <ele>1509.0</ele>
        <time>2018-07-22T13:45:43Z</time>
      </trkpt>
      <trkpt lat="41.108217" lon="-3.734117">
        <ele>1510.0</ele>
        <time>2018-07-22T13:45:44Z</time>
      </trkpt>
      <trkpt lat="41.108117" lon="-3.734017">
        <ele>1511.0</ele>
        <time>2018-07-22T13:45:45Z</time>
      </trkpt>
      <trkpt lat="41.108017" lon="-3.733883">
        <ele>1510.0</ele>
        <time>2018-07-22T13:45:46Z</time>
      </trkpt>
      <trkpt lat="41.107950" lon="-3.733733">
        <ele>1509.0</ele>
        <time>2018-07-22T13:45:47Z</time>
      </trkpt>
      <trkpt lat="41.107883" lon="-3.733550">
        <ele>1508.0</ele>
        <time>2018-07-22T13:45:48Z</time>
      </trkpt>
      <trkpt lat="41.107850" lon="-3.733367">
        <ele>1507.0</ele>
        <time>2018-07-22T13:45:49Z</time>
      </trkpt>
      <trkpt lat="41.107850" lon="-3.733167">
        <ele>1508.0</ele>
        <time>2018-07-22T13:45:50Z</time>
      </trkpt>
      <trkpt lat="41.107850" lon="-3.733000">
        <ele>1508.0</ele>
        <time>2018-07-22T13:45:51Z</time>
      </trkpt>
      <trkpt lat="41.107850" lon="-3.732833">
        <ele>1509.0</ele>
        <time>2018-07-22T13:45:52Z</time>
      </trkpt>
      <trkpt lat="41.107867" lon="-3.732700">
        <ele>1509.0</ele>
        <time>2018-07-22T13:45:53Z</time>
      </trkpt>
      <trkpt lat="41.107900" lon="-3.732567">
        <ele>1507.0</ele>
        <time>2018-07-22T13:45:54Z</time>
      </trkpt>
      <trkpt lat="41.107950" lon="-3.732467">
        <ele>1505.0</ele>
        <time>2018-07-22T13:45:55Z</time>
      </trkpt>
      <trkpt lat="41.108000" lon="-3.732367">
        <ele>1502.0</ele>
        <time>2018-07-22T13:45:56Z</time>
      </trkpt>
      <trkpt lat="41.108083" lon="-3.732283">
        <ele>1499.0</ele>
        <time>2018-07-22T13:45:57Z</time>
      </trkpt>
      <trkpt lat="41.108150" lon="-3.732250">
        <ele>1497.0</ele>
        <time>2018-07-22T13:45:58Z</time>
      </trkpt>
      <trkpt lat="41.108233" lon="-3.732233">
        <ele>1495.0</ele>
        <time>2018-07-22T13:45:59Z</time>
      </trkpt>
      <trkpt lat="41.108300" lon="-3.732250">
        <ele>1494.0</ele>
        <time>2018-07-22T13:46:00Z</time>
      </trkpt>
      <trkpt lat="41.108367" lon="-3.732283">
        <ele>1493.0</ele>
        <time>2018-07-22T13:46:01Z</time>
      </trkpt>
      <trkpt lat="41.108433" lon="-3.732317">
        <ele>1493.0</ele>
        <time>2018-07-22T13:46:02Z</time>
      </trkpt>
      <trkpt lat="41.108483" lon="-3.732350">
        <ele>1494.0</ele>
        <time>2018-07-22T13:46:03Z</time>
      </trkpt>
      <trkpt lat="41.108533" lon="-3.732400">
        <ele>1494.0</ele>
        <time>2018-07-22T13:46:04Z</time>
      </trkpt>
      <trkpt lat="41.108583" lon="-3.732450">
        <ele>1494.0</ele>
        <time>2018-07-22T13:46:05Z</time>
      </trkpt>
      <trkpt lat="41.108633" lon="-3.732500">
        <ele>1494.0</ele>
        <time>2018-07-22T13:46:06Z</time>
      </trkpt>
      <trkpt lat="41.108683" lon="-3.732550">
        <ele>1494.0</ele>
        <time>2018-07-22T13:46:07Z</time>
      </trkpt>
      <trkpt lat="41.108733" lon="-3.732600">
        <ele>1495.0</ele>
        <time>2018-07-22T13:46:08Z</time>
      </trkpt>
      <trkpt lat="41.108783" lon="-3.732633">
        <ele>1496.0</ele>
        <time>2018-07-22T13:46:09Z</time>
      </trkpt>
      <trkpt lat="41.108833" lon="-3.732667">
        <ele>1496.0</ele>
        <time>2018-07-22T13:46:10Z</time>
      </trkpt>
      <trkpt lat="41.108867" lon="-3.732700">
        <ele>1496.0</ele>
        <time>2018-07-22T13:46:11Z</time>
      </trkpt>
      <trkpt lat="41.108883" lon="-3.732767">
        <ele>1495.0</ele>
        <time>2018-07-22T13:46:12Z</time>
      </trkpt>
      <trkpt lat="41.108917" lon="-3.732850">
        <ele>1493.0</ele>
        <time>2018-07-22T13:46:13Z</time>
      </trkpt>
      <trkpt lat="41.108917" lon="-3.732933">
        <ele>1492.0</ele>
        <time>2018-07-22T13:46:14Z</time>
      </trkpt>
      <trkpt lat="41.108933" lon="-3.733017">
        <ele>1493.0</ele>
        <time>2018-07-22T13:46:15Z</time>
      </trkpt>
      <trkpt lat="41.108933" lon="-3.733100">
        <ele>1494.0</ele>
        <time>2018-07-22T13:46:16Z</time>
      </trkpt>
      <trkpt lat="41.108933" lon="-3.733183">
        <ele>1495.0</ele>
        <time>2018-07-22T13:46:17Z</time>
      </trkpt>
      <trkpt lat="41.108917" lon="-3.733267">
        <ele>1496.0</ele>
        <time>2018-07-22T13:46:18Z</time>
      </trkpt>
      <trkpt lat="41.108917" lon="-3.733350">
        <ele>1497.0</ele>
        <time>2018-07-22T13:46:19Z</time>
      </trkpt>
      <trkpt lat="41.108900" lon="-3.733433">
        <ele>1497.0</ele>
        <time>2018-07-22T13:46:20Z</time>
      </trkpt>
      <trkpt lat="41.108933" lon="-3.733500">
        <ele>1497.0</ele>
        <time>2018-07-22T13:46:21Z</time>
      </trkpt>
      <trkpt lat="41.108967" lon="-3.733567">
        <ele>1497.0</ele>
        <time>2018-07-22T13:46:22Z</time>
      </trkpt>
      <trkpt lat="41.109017" lon="-3.733633">
        <ele>1497.0</ele>
        <time>2018-07-22T13:46:23Z</time>
      </trkpt>
      <trkpt lat="41.109050" lon="-3.733717">
        <ele>1498.0</ele>
        <time>2018-07-22T13:46:24Z</time>
      </trkpt>
      <trkpt lat="41.109083" lon="-3.733800">
        <ele>1500.0</ele>
        <time>2018-07-22T13:46:25Z</time>
      </trkpt>
      <trkpt lat="41.109133" lon="-3.733867">
        <ele>1501.0</ele>
        <time>2018-07-22T13:46:26Z</time>
      </trkpt>
      <trkpt lat="41.109200" lon="-3.733883">
        <ele>1501.0</ele>
        <time>2018-07-22T13:46:27Z</time>
      </trkpt>
      <trkpt lat="41.109283" lon="-3.733867">
        <ele>1500.0</ele>
        <time>2018-07-22T13:46:28Z</time>
      </trkpt>
      <trkpt lat="41.109383" lon="-3.733817">
        <ele>1501.0</ele>
        <time>2018-07-22T13:46:29Z</time>
      </trkpt>
      <trkpt lat="41.109483" lon="-3.733750">
        <ele>1502.0</ele>
        <time>2018-07-22T13:46:30Z</time>
      </trkpt>
      <trkpt lat="41.109567" lon="-3.733650">
        <ele>1505.0</ele>
        <time>2018-07-22T13:46:31Z</time>
      </trkpt>
      <trkpt lat="41.109617" lon="-3.733550">
        <ele>1508.0</ele>
        <time>2018-07-22T13:46:32Z</time>
      </trkpt>
      <trkpt lat="41.109650" lon="-3.733417">
        <ele>1510.0</ele>
        <time>2018-07-22T13:46:33Z</time>
      </trkpt>
      <trkpt lat="41.109633" lon="-3.733300">
        <ele>1512.0</ele>
        <time>2018-07-22T13:46:34Z</time>
      </trkpt>
      <trkpt lat="41.109617" lon="-3.733167">
        <ele>1511.0</ele>
        <time>2018-07-22T13:46:35Z</time>
      </trkpt>
      <trkpt lat="41.109583" lon="-3.733017">
        <ele>1509.0</ele>
        <time>2018-07-22T13:46:36Z</time>
      </trkpt>
      <trkpt lat="41.109517" lon="-3.732883">
        <ele>1507.0</ele>
        <time>2018-07-22T13:46:37Z</time>
      </trkpt>
      <trkpt lat="41.109417" lon="-3.732767">
        <ele>1504.0</ele>
        <time>2018-07-22T13:46:38Z</time>
      </trkpt>
      <trkpt lat="41.109300" lon="-3.732700">
        <ele>1503.0</ele>
        <time>2018-07-22T13:46:39Z</time>
      </trkpt>
      <trkpt lat="41.109167" lon="-3.732683">
        <ele>1502.0</ele>
        <time>2018-07-22T13:46:40Z</time>
      </trkpt>
      <trkpt lat="41.109050" lon="-3.732717">
        <ele>1501.0</ele>
        <time>2018-07-22T13:46:41Z</time>
      </trkpt>
      <trkpt lat="41.108950" lon="-3.732783">
        <ele>1500.0</ele>
        <time>2018-07-22T13:46:42Z</time>
      </trkpt>
      <trkpt lat="41.108883" lon="-3.732867">
        <ele>1500.0</ele>
        <time>2018-07-22T13:46:43Z</time>
      </trkpt>
      <trkpt lat="41.108833" lon="-3.732967">
        <ele>1499.0</ele>
        <time>2018-07-22T13:46:44Z</time>
      </trkpt>
      <trkpt lat="41.108817" lon="-3.733067">
        <ele>1498.0</ele>
        <time>2018-07-22T13:46:45Z</time>
      </trkpt>
      <trkpt lat="41.108817" lon="-3.733167">
        <ele>1497.0</ele>
        <time>2018-07-22T13:46:46Z</time>
      </trkpt>
      <trkpt lat="41.108850" lon="-3.733267">
        <ele>1497.0</ele>
        <time>2018-07-22T13:46:47Z</time>
      </trkpt>
      <trkpt lat="41.108900" lon="-3.733317">
        <ele>1497.0</ele>
        <time>2018-07-22T13:46:48Z</time>
      </trkpt>
      <trkpt lat="41.108983" lon="-3.733333">
        <ele>1498.0</ele>
        <time>2018-07-22T13:46:49Z</time>
      </trkpt>
      <trkpt lat="41.109067" lon="-3.733317">
        <ele>1498.0</ele>
        <time>2018-07-22T13:46:50Z</time>
      </trkpt>
      <trkpt lat="41.109150" lon="-3.733283">
        <ele>1498.0</ele>
        <time>2018-07-22T13:46:51Z</time>
      </trkpt>
      <trkpt lat="41.109233" lon="-3.733250">
        <ele>1497.0</ele>
        <time>2018-07-22T13:46:52Z</time>
      </trkpt>
      <trkpt lat="41.109333" lon="-3.733217">
        <ele>1498.0</ele>
        <time>2018-07-22T13:46:53Z</time>
      </trkpt>
      <trkpt lat="41.109417" lon="-3.733183">
        <ele>1499.0</ele>
        <time>2018-07-22T13:46:54Z</time>
      </trkpt>
      <trkpt lat="41.109483" lon="-3.733150">
        <ele>1501.0</ele>
        <time>2018-07-22T13:46:55Z</time>
      </trkpt>
      <trkpt lat="41.109567" lon="-3.733100">
        <ele>1503.0</ele>
        <time>2018-07-22T13:46:56Z</time>
      </trkpt>
      <trkpt lat="41.109633" lon="-3.733033">
        <ele>1506.0</ele>
        <time>2018-07-22T13:46:57Z</time>
      </trkpt>
      <trkpt lat="41.109683" lon="-3.733000">
        <ele>1507.0</ele>
        <time>2018-07-22T13:46:58Z</time>
      </trkpt>
      <trkpt lat="41.109750" lon="-3.732983">
        <ele>1508.0</ele>
        <time>2018-07-22T13:46:59Z</time>
      </trkpt>
      <trkpt lat="41.109800" lon="-3.732967">
        <ele>1507.0</ele>
        <time>2018-07-22T13:47:00Z</time>
      </trkpt>
      <trkpt lat="41.109867" lon="-3.732917">
        <ele>1507.0</ele>
        <time>2018-07-22T13:47:01Z</time>
      </trkpt>
      <trkpt lat="41.109933" lon="-3.732833">
        <ele>1505.0</ele>
        <time>2018-07-22T13:47:02Z</time>
      </trkpt>
      <trkpt lat="41.109967" lon="-3.732683">
        <ele>1503.0</ele>
        <time>2018-07-22T13:47:03Z</time>
      </trkpt>
      <trkpt lat="41.109967" lon="-3.732517">
        <ele>1502.0</ele>
        <time>2018-07-22T13:47:04Z</time>
      </trkpt>
      <trkpt lat="41.109967" lon="-3.732367">
        <ele>1502.0</ele>
        <time>2018-07-22T13:47:05Z</time>
      </trkpt>
      <trkpt lat="41.109967" lon="-3.732233">
        <ele>1500.0</ele>
        <time>2018-07-22T13:47:06Z</time>
      </trkpt>
      <trkpt lat="41.109933" lon="-3.732067">
        <ele>1498.0</ele>
        <time>2018-07-22T13:47:07Z</time>
      </trkpt>
      <trkpt lat="41.109900" lon="-3.731900">
        <ele>1497.0</ele>
        <time>2018-07-22T13:47:08Z</time>
      </trkpt>
      <trkpt lat="41.109833" lon="-3.731717">
        <ele>1495.0</ele>
        <time>2018-07-22T13:47:09Z</time>
      </trkpt>
      <trkpt lat="41.109750" lon="-3.731550">
        <ele>1495.0</ele>
        <time>2018-07-22T13:47:10Z</time>
      </trkpt>
      <trkpt lat="41.109683" lon="-3.731383">
        <ele>1495.0</ele>
        <time>2018-07-22T13:47:11Z</time>
      </trkpt>
      <trkpt lat="41.109617" lon="-3.731233">
        <ele>1496.0</ele>
        <time>2018-07-22T13:47:12Z</time>
      </trkpt>
      <trkpt lat="41.109550" lon="-3.731117">
        <ele>1496.0</ele>
        <time>2018-07-22T13:47:13Z</time>
      </trkpt>
      <trkpt lat="41.109483" lon="-3.731000">
        <ele>1496.0</ele>
        <time>2018-07-22T13:47:14Z</time>
      </trkpt>
      <trkpt lat="41.109400" lon="-3.730917">
        <ele>1494.0</ele>
        <time>2018-07-22T13:47:15Z</time>
      </trkpt>
      <trkpt lat="41.109317" lon="-3.730817">
        <ele>1492.0</ele>
        <time>2018-07-22T13:47:16Z</time>
      </trkpt>
      <trkpt lat="41.109217" lon="-3.730717">
        <ele>1490.0</ele>
        <time>2018-07-22T13:47:17Z</time>
      </trkpt>
      <trkpt lat="41.109133" lon="-3.730617">
        <ele>1489.0</ele>
        <time>2018-07-22T13:47:18Z</time>
      </trkpt>
      <trkpt lat="41.109033" lon="-3.730533">
        <ele>1489.0</ele>
        <time>2018-07-22T13:47:19Z</time>
      </trkpt>
      <trkpt lat="41.108950" lon="-3.730450">
        <ele>1489.0</ele>
        <time>2018-07-22T13:47:20Z</time>
      </trkpt>
      <trkpt lat="41.108867" lon="-3.730400">
        <ele>1489.0</ele>
        <time>2018-07-22T13:47:21Z</time>
      </trkpt>
      <trkpt lat="41.108767" lon="-3.730350">
        <ele>1490.0</ele>
        <time>2018-07-22T13:47:22Z</time>
      </trkpt>
      <trkpt lat="41.108667" lon="-3.730317">
        <ele>1490.0</ele>
        <time>2018-07-22T13:47:23Z</time>
      </trkpt>
      <trkpt lat="41.108583" lon="-3.730300">
        <ele>1489.0</ele>
        <time>2018-07-22T13:47:24Z</time>
      </trkpt>
      <trkpt lat="41.108483" lon="-3.730300">
        <ele>1489.0</ele>
        <time>2018-07-22T13:47:25Z</time>
      </trkpt>
      <trkpt lat="41.108400" lon="-3.730317">
        <ele>1489.0</ele>
        <time>2018-07-22T13:47:26Z</time>
      </trkpt>
      <trkpt lat="41.108300" lon="-3.730350">
        <ele>1488.0</ele>
        <time>2018-07-22T13:47:27Z</time>
      </trkpt>
      <trkpt lat="41.108233" lon="-3.730400">
        <ele>1488.0</ele>
        <time>2018-07-22T13:47:28Z</time>
      </trkpt>
      <trkpt lat="41.108150" lon="-3.730450">
        <ele>1488.0</ele>
        <time>2018-07-22T13:47:29Z</time>
      </trkpt>
      <trkpt lat="41.108083" lon="-3.730517">
        <ele>1488.0</ele>
        <time>2018-07-22T13:47:30Z</time>
      </trkpt>
      <trkpt lat="41.108033" lon="-3.730583">
        <ele>1487.0</ele>
        <time>2018-07-22T13:47:31Z</time>
      </trkpt>
      <trkpt lat="41.107983" lon="-3.730650">
        <ele>1487.0</ele>
        <time>2018-07-22T13:47:32Z</time>
      </trkpt>
      <trkpt lat="41.107950" lon="-3.730733">
        <ele>1485.0</ele>
        <time>2018-07-22T13:47:33Z</time>
      </trkpt>
      <trkpt lat="41.107917" lon="-3.730817">
        <ele>1483.0</ele>
        <time>2018-07-22T13:47:34Z</time>
      </trkpt>
      <trkpt lat="41.107900" lon="-3.730900">
        <ele>1481.0</ele>
        <time>2018-07-22T13:47:35Z</time>
      </trkpt>
      <trkpt lat="41.107900" lon="-3.731000">
        <ele>1479.0</ele>
        <time>2018-07-22T13:47:36Z</time>
      </trkpt>
      <trkpt lat="41.107900" lon="-3.731083">
        <ele>1478.0</ele>
        <time>2018-07-22T13:47:37Z</time>
      </trkpt>
      <trkpt lat="41.107900" lon="-3.731183">
        <ele>1476.0</ele>
        <time>2018-07-22T13:47:38Z</time>
      </trkpt>
      <trkpt lat="41.107900" lon="-3.731283">
        <ele>1475.0</ele>
        <time>2018-07-22T13:47:39Z</time>
      </trkpt>
      <trkpt lat="41.107917" lon="-3.731367">
        <ele>1475.0</ele>
        <time>2018-07-22T13:47:40Z</time>
      </trkpt>
      <trkpt lat="41.107950" lon="-3.731433">
        <ele>1474.0</ele>
        <time>2018-07-22T13:47:41Z</time>
      </trkpt>
      <trkpt lat="41.108000" lon="-3.731483">
        <ele>1472.0</ele>
        <time>2018-07-22T13:47:42Z</time>
      </trkpt>
      <trkpt lat="41.108033" lon="-3.731550">
        <ele>1471.0</ele>
        <time>2018-07-22T13:47:43Z</time>
      </trkpt>
      <trkpt lat="41.108083" lon="-3.731600">
        <ele>1471.0</ele>
        <time>2018-07-22T13:47:44Z</time>
      </trkpt>
      <trkpt lat="41.108150" lon="-3.731650">
        <ele>1472.0</ele>
        <time>2018-07-22T13:47:45Z</time>
      </trkpt>
      <trkpt lat="41.108200" lon="-3.731683">
        <ele>1472.0</ele>
        <time>2018-07-22T13:47:46Z</time>
      </trkpt>
      <trkpt lat="41.108250" lon="-3.731700">
        <ele>1472.0</ele>
        <time>2018-07-22T13:47:47Z</time>
      </trkpt>
      <trkpt lat="41.108300" lon="-3.731717">
        <ele>1472.0</ele>
        <time>2018-07-22T13:47:48Z</time>
      </trkpt>
      <trkpt lat="41.108367" lon="-3.731733">
        <ele>1471.0</ele>
        <time>2018-07-22T13:47:49Z</time>
      </trkpt>
      <trkpt lat="41.108433" lon="-3.731767">
        <ele>1470.0</ele>
        <time>2018-07-22T13:47:50Z</time>
      </trkpt>
      <trkpt lat="41.108500" lon="-3.731783">
        <ele>1469.0</ele>
        <time>2018-07-22T13:47:51Z</time>
      </trkpt>
      <trkpt lat="41.108583" lon="-3.731800">
        <ele>1468.0</ele>
        <time>2018-07-22T13:47:52Z</time>
      </trkpt>
      <trkpt lat="41.108667" lon="-3.731800">
        <ele>1469.0</ele>
        <time>2018-07-22T13:47:53Z</time>
      </trkpt>
      <trkpt lat="41.108750" lon="-3.731767">
        <ele>1470.0</ele>
        <time>2018-07-22T13:47:54Z</time>
      </trkpt>
      <trkpt lat="41.108817" lon="-3.731733">
        <ele>1472.0</ele>
        <time>2018-07-22T13:47:55Z</time>
      </trkpt>
      <trkpt lat="41.108867" lon="-3.731717">
        <ele>1473.0</ele>
        <time>2018-07-22T13:47:56Z</time>
      </trkpt>
      <trkpt lat="41.108917" lon="-3.731717">
        <ele>1473.0</ele>
        <time>2018-07-22T13:47:57Z</time>
      </trkpt>
      <trkpt lat="41.108967" lon="-3.731733">
        <ele>1471.0</ele>
        <time>2018-07-22T13:47:58Z</time>
      </trkpt>
      <trkpt lat="41.109017" lon="-3.731750">
        <ele>1470.0</ele>
        <time>2018-07-22T13:47:59Z</time>
      </trkpt>
      <trkpt lat="41.109083" lon="-3.731717">
        <ele>1467.0</ele>
        <time>2018-07-22T13:48:00Z</time>
      </trkpt>
      <trkpt lat="41.109150" lon="-3.731667">
        <ele>1464.0</ele>
        <time>2018-07-22T13:48:01Z</time>
      </trkpt>
      <trkpt lat="41.109217" lon="-3.731550">
        <ele>1463.0</ele>
        <time>2018-07-22T13:48:02Z</time>
      </trkpt>
      <trkpt lat="41.109267" lon="-3.731417">
        <ele>1462.0</ele>
        <time>2018-07-22T13:48:03Z</time>
      </trkpt>
      <trkpt lat="41.109317" lon="-3.731283">
        <ele>1463.0</ele>
        <time>2018-07-22T13:48:04Z</time>
      </trkpt>
      <trkpt lat="41.109350" lon="-3.731150">
        <ele>1466.0</ele>
        <time>2018-07-22T13:48:05Z</time>
      </trkpt>
      <trkpt lat="41.109400" lon="-3.731067">
        <ele>1469.0</ele>
        <time>2018-07-22T13:48:06Z</time>
      </trkpt>
      <trkpt lat="41.109450" lon="-3.731000">
        <ele>1471.0</ele>
        <time>2018-07-22T13:48:07Z</time>
      </trkpt>
      <trkpt lat="41.109500" lon="-3.730950">
        <ele>1472.0</ele>
        <time>2018-07-22T13:48:08Z</time>
      </trkpt>
      <trkpt lat="41.109567" lon="-3.730933">
        <ele>1473.0</ele>
        <time>2018-07-22T13:48:09Z</time>
      </trkpt>
      <trkpt lat="41.109633" lon="-3.730917">
        <ele>1475.0</ele>
        <time>2018-07-22T13:48:10Z</time>
      </trkpt>
      <trkpt lat="41.109700" lon="-3.730900">
        <ele>1477.0</ele>
        <time>2018-07-22T13:48:11Z</time>
      </trkpt>
      <trkpt lat="41.109767" lon="-3.730917">
        <ele>1479.0</ele>
        <time>2018-07-22T13:48:12Z</time>
      </trkpt>
      <trkpt lat="41.109817" lon="-3.730967">
        <ele>1481.0</ele>
        <time>2018-07-22T13:48:13Z</time>
      </trkpt>
      <trkpt lat="41.109850" lon="-3.731017">
        <ele>1483.0</ele>
        <time>2018-07-22T13:48:14Z</time>
      </trkpt>
      <trkpt lat="41.109867" lon="-3.731067">
        <ele>1486.0</ele>
        <time>2018-07-22T13:48:15Z</time>
      </trkpt>
      <trkpt lat="41.109883" lon="-3.731100">
        <ele>1488.0</ele>
        <time>2018-07-22T13:48:16Z</time>
      </trkpt>
      <trkpt lat="41.109883" lon="-3.731150">
        <ele>1490.0</ele>
        <time>2018-07-22T13:48:17Z</time>
      </trkpt>
      <trkpt lat="41.109850" lon="-3.731217">
        <ele>1491.0</ele>
        <time>2018-07-22T13:48:18Z</time>
      </trkpt>
      <trkpt lat="41.109783" lon="-3.731283">
        <ele>1491.0</ele>
        <time>2018-07-22T13:48:19Z</time>
      </trkpt>
      <trkpt lat="41.109667" lon="-3.731350">
        <ele>1491.0</ele>
        <time>2018-07-22T13:48:20Z</time>
      </trkpt>
      <trkpt lat="41.109533" lon="-3.731350">
        <ele>1493.0</ele>
        <time>2018-07-22T13:48:21Z</time>
      </trkpt>
      <trkpt lat="41.109400" lon="-3.731300">
        <ele>1496.0</ele>
        <time>2018-07-22T13:48:22Z</time>
      </trkpt>
      <trkpt lat="41.109300" lon="-3.731200">
        <ele>1500.0</ele>
        <time>2018-07-22T13:48:23Z</time>
      </trkpt>
      <trkpt lat="41.109233" lon="-3.731067">
        <ele>1503.0</ele>
        <time>2018-07-22T13:48:24Z</time>
      </trkpt>
      <trkpt lat="41.109183" lon="-3.730917">
        <ele>1506.0</ele>
        <time>2018-07-22T13:48:25Z</time>
      </trkpt>
      <trkpt lat="41.109150" lon="-3.730783">
        <ele>1508.0</ele>
        <time>2018-07-22T13:48:26Z</time>
      </trkpt>
      <trkpt lat="41.109133" lon="-3.730633">
        <ele>1510.0</ele>
        <time>2018-07-22T13:48:27Z</time>
      </trkpt>
      <trkpt lat="41.109117" lon="-3.730500">
        <ele>1512.0</ele>
        <time>2018-07-22T13:48:28Z</time>
      </trkpt>
      <trkpt lat="41.109133" lon="-3.730367">
        <ele>1513.0</ele>
        <time>2018-07-22T13:48:29Z</time>
      </trkpt>
      <trkpt lat="41.109167" lon="-3.730233">
        <ele>1514.0</ele>
        <time>2018-07-22T13:48:30Z</time>
      </trkpt>
      <trkpt lat="41.109217" lon="-3.730117">
        <ele>1516.0</ele>
        <time>2018-07-22T13:48:31Z</time>
      </trkpt>
      <trkpt lat="41.109283" lon="-3.730050">
        <ele>1517.0</ele>
        <time>2018-07-22T13:48:32Z</time>
      </trkpt>
      <trkpt lat="41.109367" lon="-3.730000">
        <ele>1517.0</ele>
        <time>2018-07-22T13:48:33Z</time>
      </trkpt>
      <trkpt lat="41.109450" lon="-3.730017">
        <ele>1518.0</ele>
        <time>2018-07-22T13:48:34Z</time>
      </trkpt>
      <trkpt lat="41.109517" lon="-3.730067">
        <ele>1519.0</ele>
        <time>2018-07-22T13:48:35Z</time>
      </trkpt>
      <trkpt lat="41.109567" lon="-3.730133">
        <ele>1523.0</ele>
        <time>2018-07-22T13:48:36Z</time>
      </trkpt>
      <trkpt lat="41.109583" lon="-3.730217">
        <ele>1526.0</ele>
        <time>2018-07-22T13:48:37Z</time>
      </trkpt>
      <trkpt lat="41.109583" lon="-3.730300">
        <ele>1529.0</ele>
        <time>2018-07-22T13:48:38Z</time>
      </trkpt>
      <trkpt lat="41.109550" lon="-3.730400">
        <ele>1531.0</ele>
        <time>2018-07-22T13:48:39Z</time>
      </trkpt>
      <trkpt lat="41.109517" lon="-3.730500">
        <ele>1532.0</ele>
        <time>2018-07-22T13:48:40Z</time>
      </trkpt>
      <trkpt lat="41.109450" lon="-3.730617">
        <ele>1533.0</ele>
        <time>2018-07-22T13:48:41Z</time>
      </trkpt>
      <trkpt lat="41.109350" lon="-3.730717">
        <ele>1534.0</ele>
        <time>2018-07-22T13:48:42Z</time>
      </trkpt>
      <trkpt lat="41.109233" lon="-3.730783">
        <ele>1536.0</ele>
        <time>2018-07-22T13:48:43Z</time>
      </trkpt>
      <trkpt lat="41.109083" lon="-3.730783">
        <ele>1538.0</ele>
        <time>2018-07-22T13:48:44Z</time>
      </trkpt>
      <trkpt lat="41.108950" lon="-3.730733">
        <ele>1540.0</ele>
        <time>2018-07-22T13:48:45Z</time>
      </trkpt>
      <trkpt lat="41.108833" lon="-3.730633">
        <ele>1543.0</ele>
        <time>2018-07-22T13:48:46Z</time>
      </trkpt>
      <trkpt lat="41.108750" lon="-3.730500">
        <ele>1546.0</ele>
        <time>2018-07-22T13:48:47Z</time>
      </trkpt>
      <trkpt lat="41.108700" lon="-3.730333">
        <ele>1548.0</ele>
        <time>2018-07-22T13:48:48Z</time>
      </trkpt>
      <trkpt lat="41.108667" lon="-3.730167">
        <ele>1549.0</ele>
        <time>2018-07-22T13:48:49Z</time>
      </trkpt>
      <trkpt lat="41.108683" lon="-3.730000">
        <ele>1551.0</ele>
        <time>2018-07-22T13:48:50Z</time>
      </trkpt>
      <trkpt lat="41.108717" lon="-3.729850">
        <ele>1553.0</ele>
        <time>2018-07-22T13:48:51Z</time>
      </trkpt>
      <trkpt lat="41.108767" lon="-3.729717">
        <ele>1555.0</ele>
        <time>2018-07-22T13:48:52Z</time>
      </trkpt>
      <trkpt lat="41.108833" lon="-3.729617">
        <ele>1557.0</ele>
        <time>2018-07-22T13:48:53Z</time>
      </trkpt>
      <trkpt lat="41.108933" lon="-3.729567">
        <ele>1559.0</ele>
        <time>2018-07-22T13:48:54Z</time>
      </trkpt>
      <trkpt lat="41.109000" lon="-3.729567">
        <ele>1561.0</ele>
        <time>2018-07-22T13:48:55Z</time>
      </trkpt>
      <trkpt lat="41.109050" lon="-3.729617">
        <ele>1563.0</ele>
        <time>2018-07-22T13:48:56Z</time>
      </trkpt>
      <trkpt lat="41.109083" lon="-3.729683">
        <ele>1564.0</ele>
        <time>2018-07-22T13:48:57Z</time>
      </trkpt>
      <trkpt lat="41.109083" lon="-3.729767">
        <ele>1565.0</ele>
        <time>2018-07-22T13:48:58Z</time>
      </trkpt>
      <trkpt lat="41.109067" lon="-3.729867">
        <ele>1567.0</ele>
        <time>2018-07-22T13:48:59Z</time>
      </trkpt>
      <trkpt lat="41.109050" lon="-3.729967">
        <ele>1570.0</ele>
        <time>2018-07-22T13:49:00Z</time>
      </trkpt>
      <trkpt lat="41.109033" lon="-3.730067">
        <ele>1572.0</ele>
        <time>2018-07-22T13:49:01Z</time>
      </trkpt>
      <trkpt lat="41.109050" lon="-3.730167">
        <ele>1575.0</ele>
        <time>2018-07-22T13:49:02Z</time>
      </trkpt>
      <trkpt lat="41.109083" lon="-3.730250">
        <ele>1575.0</ele>
        <time>2018-07-22T13:49:03Z</time>
      </trkpt>
      <trkpt lat="41.109117" lon="-3.730350">
        <ele>1577.0</ele>
        <time>2018-07-22T13:49:04Z</time>
      </trkpt>
      <trkpt lat="41.109133" lon="-3.730467">
        <ele>1580.0</ele>
        <time>2018-07-22T13:49:05Z</time>
      </trkpt>
      <trkpt lat="41.109100" lon="-3.730600">
        <ele>1581.0</ele>
        <time>2018-07-22T13:49:06Z</time>
      </trkpt>
      <trkpt lat="41.109033" lon="-3.730700">
        <ele>1582.0</ele>
        <time>2018-07-22T13:49:07Z</time>
      </trkpt>
      <trkpt lat="41.108933" lon="-3.730783">
        <ele>1584.0</ele>
        <time>2018-07-22T13:49:08Z</time>
      </trkpt>
      <trkpt lat="41.108817" lon="-3.730800">
        <ele>1586.0</ele>
        <time>2018-07-22T13:49:09Z</time>
      </trkpt>
      <trkpt lat="41.108700" lon="-3.730783">
        <ele>1588.0</ele>
        <time>2018-07-22T13:49:10Z</time>
      </trkpt>
      <trkpt lat="41.108583" lon="-3.730733">
        <ele>1589.0</ele>
        <time>2018-07-22T13:49:11Z</time>
      </trkpt>
      <trkpt lat="41.108450" lon="-3.730650">
        <ele>1589.0</ele>
        <time>2018-07-22T13:49:12Z</time>
      </trkpt>
      <trkpt lat="41.108317" lon="-3.730517">
        <ele>1590.0</ele>
        <time>2018-07-22T13:49:13Z</time>
      </trkpt>
      <trkpt lat="41.108233" lon="-3.730367">
        <ele>1593.0</ele>
        <time>2018-07-22T13:49:14Z</time>
      </trkpt>
      <trkpt lat="41.108183" lon="-3.730183">
        <ele>1595.0</ele>
        <time>2018-07-22T13:49:15Z</time>
      </trkpt>
      <trkpt lat="41.108183" lon="-3.730033">
        <ele>1597.0</ele>
        <time>2018-07-22T13:49:16Z</time>
      </trkpt>
      <trkpt lat="41.108217" lon="-3.729883">
        <ele>1599.0</ele>
        <time>2018-07-22T13:49:17Z</time>
      </trkpt>
      <trkpt lat="41.108250" lon="-3.729750">
        <ele>1601.0</ele>
        <time>2018-07-22T13:49:18Z</time>
      </trkpt>
      <trkpt lat="41.108300" lon="-3.729650">
        <ele>1603.0</ele>
        <time>2018-07-22T13:49:19Z</time>
      </trkpt>
      <trkpt lat="41.108383" lon="-3.729567">
        <ele>1604.0</ele>
        <time>2018-07-22T13:49:20Z</time>
      </trkpt>
      <trkpt lat="41.108467" lon="-3.729500">
        <ele>1606.0</ele>
        <time>2018-07-22T13:49:21Z</time>
      </trkpt>
      <trkpt lat="41.108550" lon="-3.729467">
        <ele>1608.0</ele>
        <time>2018-07-22T13:49:22Z</time>
      </trkpt>
      <trkpt lat="41.108617" lon="-3.729433">
        <ele>1612.0</ele>
        <time>2018-07-22T13:49:23Z</time>
      </trkpt>
      <trkpt lat="41.108667" lon="-3.729417">
        <ele>1616.0</ele>
        <time>2018-07-22T13:49:24Z</time>
      </trkpt>
      <trkpt lat="41.108717" lon="-3.729383">
        <ele>1619.0</ele>
        <time>2018-07-22T13:49:25Z</time>
      </trkpt>
      <trkpt lat="41.108750" lon="-3.729383">
        <ele>1620.0</ele>
        <time>2018-07-22T13:49:26Z</time>
      </trkpt>
      <trkpt lat="41.108800" lon="-3.729400">
        <ele>1621.0</ele>
        <time>2018-07-22T13:49:27Z</time>
      </trkpt>
      <trkpt lat="41.108850" lon="-3.729450">
        <ele>1621.0</ele>
        <time>2018-07-22T13:49:28Z</time>
      </trkpt>
      <trkpt lat="41.108900" lon="-3.729533">
        <ele>1621.0</ele>
        <time>2018-07-22T13:49:29Z</time>
      </trkpt>
      <trkpt lat="41.108917" lon="-3.729633">
        <ele>1621.0</ele>
        <time>2018-07-22T13:49:30Z</time>
      </trkpt>
      <trkpt lat="41.108933" lon="-3.729733">
        <ele>1624.0</ele>
        <time>2018-07-22T13:49:31Z</time>
      </trkpt>
      <trkpt lat="41.108917" lon="-3.729850">
        <ele>1626.0</ele>
        <time>2018-07-22T13:49:32Z</time>
      </trkpt>
      <trkpt lat="41.108883" lon="-3.729950">
        <ele>1627.0</ele>
        <time>2018-07-22T13:49:33Z</time>
      </trkpt>
      <trkpt lat="41.108817" lon="-3.730050">
        <ele>1628.0</ele>
        <time>2018-07-22T13:49:34Z</time>
      </trkpt>
      <trkpt lat="41.108733" lon="-3.730133">
        <ele>1629.0</ele>
        <time>2018-07-22T13:49:35Z</time>
      </trkpt>
      <trkpt lat="41.108633" lon="-3.730183">
        <ele>1631.0</ele>
        <time>2018-07-22T13:49:36Z</time>
      </trkpt>
      <trkpt lat="41.108533" lon="-3.730217">
        <ele>1632.0</ele>
        <time>2018-07-22T13:49:37Z</time>
      </trkpt>
      <trkpt lat="41.108433" lon="-3.730217">
        <ele>1634.0</ele>
        <time>2018-07-22T13:49:38Z</time>
      </trkpt>
      <trkpt lat="41.108333" lon="-3.730167">
        <ele>1635.0</ele>
        <time>2018-07-22T13:49:39Z</time>
      </trkpt>
      <trkpt lat="41.108233" lon="-3.730083">
        <ele>1635.0</ele>
        <time>2018-07-22T13:49:40Z</time>
      </trkpt>
      <trkpt lat="41.108133" lon="-3.729983">
        <ele>1635.0</ele>
        <time>2018-07-22T13:49:41Z</time>
      </trkpt>
      <trkpt lat="41.108067" lon="-3.729850">
        <ele>1636.0</ele>
        <time>2018-07-22T13:49:42Z</time>
      </trkpt>
      <trkpt lat="41.108000" lon="-3.729700">
        <ele>1638.0</ele>
        <time>2018-07-22T13:49:43Z</time>
      </trkpt>
      <trkpt lat="41.107983" lon="-3.729550">
        <ele>1640.0</ele>
        <time>2018-07-22T13:49:44Z</time>
      </trkpt>
      <trkpt lat="41.107983" lon="-3.729417">
        <ele>1642.0</ele>
        <time>2018-07-22T13:49:45Z</time>
      </trkpt>
      <trkpt lat="41.108017" lon="-3.729283">
        <ele>1643.0</ele>
        <time>2018-07-22T13:49:46Z</time>
      </trkpt>
      <trkpt lat="41.108067" lon="-3.729183">
        <ele>1646.0</ele>
        <time>2018-07-22T13:49:47Z</time>
      </trkpt>
      <trkpt lat="41.108117" lon="-3.729100">
        <ele>1648.0</ele>
        <time>2018-07-22T13:49:48Z</time>
      </trkpt>
      <trkpt lat="41.108167" lon="-3.729050">
        <ele>1650.0</ele>
        <time>2018-07-22T13:49:49Z</time>
      </trkpt>
      <trkpt lat="41.108217" lon="-3.729000">
        <ele>1652.0</ele>
        <time>2018-07-22T13:49:50Z</time>
      </trkpt>
      <trkpt lat="41.108267" lon="-3.728950">
        <ele>1653.0</ele>
        <time>2018-07-22T13:49:51Z</time>
      </trkpt>
      <trkpt lat="41.108333" lon="-3.728917">
        <ele>1654.0</ele>
        <time>2018-07-22T13:49:52Z</time>
      </trkpt>
      <trkpt lat="41.108400" lon="-3.728900">
        <ele>1656.0</ele>
        <time>2018-07-22T13:49:53Z</time>
      </trkpt>
      <trkpt lat="41.108467" lon="-3.728917">
        <ele>1658.0</ele>
        <time>2018-07-22T13:49:54Z</time>
      </trkpt>
      <trkpt lat="41.108517" lon="-3.728967">
        <ele>1660.0</ele>
        <time>2018-07-22T13:49:55Z</time>
      </trkpt>
      <trkpt lat="41.108567" lon="-3.729017">
        <ele>1662.0</ele>
        <time>2018-07-22T13:49:56Z</time>
      </trkpt>
      <trkpt lat="41.108583" lon="-3.729083">
        <ele>1664.0</ele>
        <time>2018-07-22T13:49:57Z</time>
      </trkpt>
      <trkpt lat="41.108617" lon="-3.729150">
        <ele>1666.0</ele>
        <time>2018-07-22T13:49:58Z</time>
      </trkpt>
      <trkpt lat="41.108617" lon="-3.729233">
        <ele>1668.0</ele>
        <time>2018-07-22T13:49:59Z</time>
      </trkpt>
      <trkpt lat="41.108617" lon="-3.729317">
        <ele>1669.0</ele>
        <time>2018-07-22T13:50:00Z</time>
      </trkpt>
      <trkpt lat="41.108583" lon="-3.729433">
        <ele>1670.0</ele>
        <time>2018-07-22T13:50:01Z</time>
      </trkpt>
      <trkpt lat="41.108533" lon="-3.729533">
        <ele>1673.0</ele>
        <time>2018-07-22T13:50:02Z</time>
      </trkpt>
      <trkpt lat="41.108467" lon="-3.729600">
        <ele>1677.0</ele>
        <time>2018-07-22T13:50:03Z</time>
      </trkpt>
      <trkpt lat="41.108383" lon="-3.729650">
        <ele>1682.0</ele>
        <time>2018-07-22T13:50:04Z</time>
      </trkpt>
      <trkpt lat="41.108317" lon="-3.729667">
        <ele>1684.0</ele>
        <time>2018-07-22T13:50:05Z</time>
      </trkpt>
      <trkpt lat="41.108233" lon="-3.729650">
        <ele>1685.0</ele>
        <time>2018-07-22T13:50:06Z</time>
      </trkpt>
      <trkpt lat="41.108133" lon="-3.729617">
        <ele>1686.0</ele>
        <time>2018-07-22T13:50:07Z</time>
      </trkpt>
      <trkpt lat="41.108033" lon="-3.729550">
        <ele>1687.0</ele>
        <time>2018-07-22T13:50:08Z</time>
      </trkpt>
      <trkpt lat="41.107933" lon="-3.729467">
        <ele>1688.0</ele>
        <time>2018-07-22T13:50:09Z</time>
      </trkpt>
      <trkpt lat="41.107850" lon="-3.729383">
        <ele>1689.0</ele>
        <time>2018-07-22T13:50:10Z</time>
      </trkpt>
      <trkpt lat="41.107767" lon="-3.729267">
        <ele>1690.0</ele>
        <time>2018-07-22T13:50:11Z</time>
      </trkpt>
      <trkpt lat="41.107700" lon="-3.729150">
        <ele>1691.0</ele>
        <time>2018-07-22T13:50:12Z</time>
      </trkpt>
      <trkpt lat="41.107683" lon="-3.729017">
        <ele>1691.0</ele>
        <time>2018-07-22T13:50:13Z</time>
      </trkpt>
      <trkpt lat="41.107667" lon="-3.728883">
        <ele>1691.0</ele>
        <time>2018-07-22T13:50:14Z</time>
      </trkpt>
      <trkpt lat="41.107667" lon="-3.728733">
        <ele>1691.0</ele>
        <time>2018-07-22T13:50:15Z</time>
      </trkpt>
      <trkpt lat="41.107683" lon="-3.728600">
        <ele>1693.0</ele>
        <time>2018-07-22T13:50:16Z</time>
      </trkpt>
      <trkpt lat="41.107700" lon="-3.728467">
        <ele>1695.0</ele>
        <time>2018-07-22T13:50:17Z</time>
      </trkpt>
      <trkpt lat="41.107750" lon="-3.728383">
        <ele>1696.0</ele>
        <time>2018-07-22T13:50:18Z</time>
      </trkpt>
      <trkpt lat="41.107817" lon="-3.728300">
        <ele>1697.0</ele>
        <time>2018-07-22T13:50:19Z</time>
      </trkpt>
      <trkpt lat="41.107883" lon="-3.728267">
        <ele>1699.0</ele>
        <time>2018-07-22T13:50:20Z</time>
      </trkpt>
      <trkpt lat="41.107950" lon="-3.728233">
        <ele>1700.0</ele>
        <time>2018-07-22T13:50:21Z</time>
      </trkpt>
      <trkpt lat="41.108017" lon="-3.728217">
        <ele>1702.0</ele>
        <time>2018-07-22T13:50:22Z</time>
      </trkpt>
      <trkpt lat="41.108100" lon="-3.728200">
        <ele>1704.0</ele>
        <time>2018-07-22T13:50:23Z</time>
      </trkpt>
      <trkpt lat="41.108167" lon="-3.728183">
        <ele>1706.0</ele>
        <time>2018-07-22T13:50:24Z</time>
      </trkpt>
      <trkpt lat="41.108233" lon="-3.728167">
        <ele>1707.0</ele>
        <time>2018-07-22T13:50:25Z</time>
      </trkpt>
      <trkpt lat="41.108317" lon="-3.728183">
        <ele>1709.0</ele>
        <time>2018-07-22T13:50:26Z</time>
      </trkpt>
      <trkpt lat="41.108383" lon="-3.728200">
        <ele>1711.0</ele>
        <time>2018-07-22T13:50:27Z</time>
      </trkpt>
      <trkpt lat="41.108467" lon="-3.728217">
        <ele>1713.0</ele>
        <time>2018-07-22T13:50:28Z</time>
      </trkpt>
      <trkpt lat="41.108533" lon="-3.728250">
        <ele>1715.0</ele>
        <time>2018-07-22T13:50:29Z</time>
      </trkpt>
      <trkpt lat="41.108600" lon="-3.728283">
        <ele>1718.0</ele>
        <time>2018-07-22T13:50:30Z</time>
      </trkpt>
      <trkpt lat="41.108667" lon="-3.728300">
        <ele>1720.0</ele>
        <time>2018-07-22T13:50:31Z</time>
      </trkpt>
      <trkpt lat="41.108717" lon="-3.728317">
        <ele>1723.0</ele>
        <time>2018-07-22T13:50:32Z</time>
      </trkpt>
      <trkpt lat="41.108750" lon="-3.728317">
        <ele>1724.0</ele>
        <time>2018-07-22T13:50:33Z</time>
      </trkpt>
      <trkpt lat="41.108783" lon="-3.728350">
        <ele>1723.0</ele>
        <time>2018-07-22T13:50:34Z</time>
      </trkpt>
      <trkpt lat="41.108800" lon="-3.728383">
        <ele>1721.0</ele>
        <time>2018-07-22T13:50:35Z</time>
      </trkpt>
      <trkpt lat="41.108783" lon="-3.728450">
        <ele>1720.0</ele>
        <time>2018-07-22T13:50:36Z</time>
      </trkpt>
      <trkpt lat="41.108767" lon="-3.728500">
        <ele>1719.0</ele>
        <time>2018-07-22T13:50:37Z</time>
      </trkpt>
      <trkpt lat="41.108733" lon="-3.728550">
        <ele>1719.0</ele>
        <time>2018-07-22T13:50:38Z</time>
      </trkpt>
      <trkpt lat="41.108683" lon="-3.728550">
        <ele>1719.0</ele>
        <time>2018-07-22T13:50:39Z</time>
      </trkpt>
      <trkpt lat="41.108617" lon="-3.728550">
        <ele>1718.0</ele>
        <time>2018-07-22T13:50:40Z</time>
      </trkpt>
      <trkpt lat="41.108533" lon="-3.728500">
        <ele>1717.0</ele>
        <time>2018-07-22T13:50:41Z</time>
      </trkpt>
      <trkpt lat="41.108450" lon="-3.728450">
        <ele>1716.0</ele>
        <time>2018-07-22T13:50:42Z</time>
      </trkpt>
      <trkpt lat="41.108367" lon="-3.728383">
        <ele>1716.0</ele>
        <time>2018-07-22T13:50:43Z</time>
      </trkpt>
      <trkpt lat="41.108283" lon="-3.728267">
        <ele>1715.0</ele>
        <time>2018-07-22T13:50:44Z</time>
      </trkpt>
      <trkpt lat="41.108233" lon="-3.728100">
        <ele>1714.0</ele>
        <time>2018-07-22T13:50:45Z</time>
      </trkpt>
      <trkpt lat="41.108217" lon="-3.727900">
        <ele>1713.0</ele>
        <time>2018-07-22T13:50:46Z</time>
      </trkpt>
      <trkpt lat="41.108217" lon="-3.727717">
        <ele>1714.0</ele>
        <time>2018-07-22T13:50:47Z</time>
      </trkpt>
      <trkpt lat="41.108183" lon="-3.727533">
        <ele>1718.0</ele>
        <time>2018-07-22T13:50:48Z</time>
      </trkpt>
      <trkpt lat="41.108150" lon="-3.727383">
        <ele>1722.0</ele>
        <time>2018-07-22T13:50:49Z</time>
      </trkpt>
      <trkpt lat="41.108133" lon="-3.727267">
        <ele>1725.0</ele>
        <time>2018-07-22T13:50:50Z</time>
      </trkpt>
      <trkpt lat="41.108100" lon="-3.727150">
        <ele>1727.0</ele>
        <time>2018-07-22T13:50:51Z</time>
      </trkpt>
      <trkpt lat="41.108083" lon="-3.727033">
        <ele>1728.0</ele>
        <time>2018-07-22T13:50:52Z</time>
      </trkpt>
      <trkpt lat="41.108067" lon="-3.726883">
        <ele>1729.0</ele>
        <time>2018-07-22T13:50:53Z</time>
      </trkpt>
      <trkpt lat="41.108067" lon="-3.726733">
        <ele>1730.0</ele>
        <time>2018-07-22T13:50:54Z</time>
      </trkpt>
      <trkpt lat="41.108067" lon="-3.726583">
        <ele>1731.0</ele>
        <time>2018-07-22T13:50:55Z</time>
      </trkpt>
      <trkpt lat="41.108083" lon="-3.726450">
        <ele>1733.0</ele>
        <time>2018-07-22T13:50:56Z</time>
      </trkpt>
      <trkpt lat="41.108083" lon="-3.726317">
        <ele>1734.0</ele>
        <time>2018-07-22T13:50:57Z</time>
      </trkpt>
      <trkpt lat="41.108083" lon="-3.726200">
        <ele>1735.0</ele>
        <time>2018-07-22T13:50:58Z</time>
      </trkpt>
      <trkpt lat="41.108117" lon="-3.726083">
        <ele>1736.0</ele>
        <time>2018-07-22T13:50:59Z</time>
      </trkpt>
      <trkpt lat="41.108150" lon="-3.725983">
        <ele>1735.0</ele>
        <time>2018-07-22T13:51:00Z</time>
      </trkpt>
      <trkpt lat="41.108183" lon="-3.725900">
        <ele>1734.0</ele>
        <time>2018-07-22T13:51:01Z</time>
      </trkpt>
      <trkpt lat="41.108233" lon="-3.725817">
        <ele>1734.0</ele>
        <time>2018-07-22T13:51:02Z</time>
      </trkpt>
      <trkpt lat="41.108300" lon="-3.725733">
        <ele>1734.0</ele>
        <time>2018-07-22T13:51:03Z</time>
      </trkpt>
      <trkpt lat="41.108367" lon="-3.725667">
        <ele>1734.0</ele>
        <time>2018-07-22T13:51:04Z</time>
      </trkpt>
      <trkpt lat="41.108417" lon="-3.725633">
        <ele>1734.0</ele>
        <time>2018-07-22T13:51:05Z</time>
      </trkpt>
      <trkpt lat="41.108483" lon="-3.725600">
        <ele>1734.0</ele>
        <time>2018-07-22T13:51:06Z</time>
      </trkpt>
      <trkpt lat="41.108550" lon="-3.725583">
        <ele>1734.0</ele>
        <time>2018-07-22T13:51:07Z</time>
      </trkpt>
      <trkpt lat="41.108600" lon="-3.725583">
        <ele>1734.0</ele>
        <time>2018-07-22T13:51:08Z</time>
      </trkpt>
      <trkpt lat="41.108667" lon="-3.725600">
        <ele>1734.0</ele>
        <time>2018-07-22T13:51:09Z</time>
      </trkpt>
      <trkpt lat="41.108717" lon="-3.725600">
        <ele>1733.0</ele>
        <time>2018-07-22T13:51:10Z</time>
      </trkpt>
      <trkpt lat="41.108750" lon="-3.725617">
        <ele>1733.0</ele>
        <time>2018-07-22T13:51:11Z</time>
      </trkpt>
      <trkpt lat="41.108800" lon="-3.725617">
        <ele>1732.0</ele>
        <time>2018-07-22T13:51:12Z</time>
      </trkpt>
      <trkpt lat="41.108833" lon="-3.725633">
        <ele>1729.0</ele>
        <time>2018-07-22T13:51:13Z</time>
      </trkpt>
      <trkpt lat="41.108867" lon="-3.725667">
        <ele>1725.0</ele>
        <time>2018-07-22T13:51:14Z</time>
      </trkpt>
      <trkpt lat="41.108883" lon="-3.725717">
        <ele>1721.0</ele>
        <time>2018-07-22T13:51:15Z</time>
      </trkpt>
      <trkpt lat="41.108883" lon="-3.725783">
        <ele>1717.0</ele>
        <time>2018-07-22T13:51:16Z</time>
      </trkpt>
      <trkpt lat="41.108850" lon="-3.725833">
        <ele>1714.0</ele>
        <time>2018-07-22T13:51:17Z</time>
      </trkpt>
      <trkpt lat="41.108817" lon="-3.725883">
        <ele>1712.0</ele>
        <time>2018-07-22T13:51:18Z</time>
      </trkpt>
      <trkpt lat="41.108800" lon="-3.725917">
        <ele>1709.0</ele>
        <time>2018-07-22T13:51:19Z</time>
      </trkpt>
      <trkpt lat="41.108783" lon="-3.725950">
        <ele>1706.0</ele>
        <time>2018-07-22T13:51:20Z</time>
      </trkpt>
      <trkpt lat="41.108750" lon="-3.726033">
        <ele>1703.0</ele>
        <time>2018-07-22T13:51:21Z</time>
      </trkpt>
      <trkpt lat="41.108717" lon="-3.726117">
        <ele>1702.0</ele>
        <time>2018-07-22T13:51:22Z</time>
      </trkpt>
      <trkpt lat="41.108683" lon="-3.726217">
        <ele>1701.0</ele>
        <time>2018-07-22T13:51:23Z</time>
      </trkpt>
      <trkpt lat="41.108650" lon="-3.726300">
        <ele>1702.0</ele>
        <time>2018-07-22T13:51:24Z</time>
      </trkpt>
      <trkpt lat="41.108617" lon="-3.726350">
        <ele>1703.0</ele>
        <time>2018-07-22T13:51:25Z</time>
      </trkpt>
      <trkpt lat="41.108600" lon="-3.726417">
        <ele>1704.0</ele>
        <time>2018-07-22T13:51:26Z</time>
      </trkpt>
      <trkpt lat="41.108583" lon="-3.726467">
        <ele>1703.0</ele>
        <time>2018-07-22T13:51:27Z</time>
      </trkpt>
      <trkpt lat="41.108567" lon="-3.726533">
        <ele>1702.0</ele>
        <time>2018-07-22T13:51:28Z</time>
      </trkpt>
      <trkpt lat="41.108550" lon="-3.726600">
        <ele>1701.0</ele>
        <time>2018-07-22T13:51:29Z</time>
      </trkpt>
      <trkpt lat="41.108533" lon="-3.726683">
        <ele>1700.0</ele>
        <time>2018-07-22T13:51:30Z</time>
      </trkpt>
      <trkpt lat="41.108517" lon="-3.726733">
        <ele>1700.0</ele>
        <time>2018-07-22T13:51:31Z</time>
      </trkpt>
      <trkpt lat="41.108483" lon="-3.726800">
        <ele>1699.0</ele>
        <time>2018-07-22T13:51:32Z</time>
      </trkpt>
      <trkpt lat="41.108467" lon="-3.726867">
        <ele>1699.0</ele>
        <time>2018-07-22T13:51:33Z</time>
      </trkpt>
      <trkpt lat="41.108450" lon="-3.726950">
        <ele>1698.0</ele>
        <time>2018-07-22T13:51:34Z</time>
      </trkpt>
      <trkpt lat="41.108450" lon="-3.727017">
        <ele>1698.0</ele>
        <time>2018-07-22T13:51:35Z</time>
      </trkpt>
      <trkpt lat="41.108433" lon="-3.727083">
        <ele>1697.0</ele>
        <time>2018-07-22T13:51:36Z</time>
      </trkpt>
      <trkpt lat="41.108400" lon="-3.727150">
        <ele>1696.0</ele>
        <time>2018-07-22T13:51:37Z</time>
      </trkpt>
      <trkpt lat="41.108350" lon="-3.727217">
        <ele>1695.0</ele>
        <time>2018-07-22T13:51:38Z</time>
      </trkpt>
      <trkpt lat="41.108300" lon="-3.727300">
        <ele>1694.0</ele>
        <time>2018-07-22T13:51:39Z</time>
      </trkpt>
      <trkpt lat="41.108250" lon="-3.727367">
        <ele>1694.0</ele>
        <time>2018-07-22T13:51:40Z</time>
      </trkpt>
      <trkpt lat="41.108233" lon="-3.727450">
        <ele>1695.0</ele>
        <time>2018-07-22T13:51:41Z</time>
      </trkpt>
      <trkpt lat="41.108217" lon="-3.727533">
        <ele>1695.0</ele>
        <time>2018-07-22T13:51:42Z</time>
      </trkpt>
      <trkpt lat="41.108233" lon="-3.727600">
        <ele>1695.0</ele>
        <time>2018-07-22T13:51:43Z</time>
      </trkpt>
      <trkpt lat="41.108267" lon="-3.727650">
        <ele>1695.0</ele>
        <time>2018-07-22T13:51:44Z</time>
      </trkpt>
      <trkpt lat="41.108283" lon="-3.727717">
        <ele>1695.0</ele>
        <time>2018-07-22T13:51:45Z</time>
      </trkpt>
      <trkpt lat="41.108300" lon="-3.727783">
        <ele>1694.0</ele>
        <time>2018-07-22T13:51:46Z</time>
      </trkpt>
      <trkpt lat="41.108317" lon="-3.727867">
        <ele>1693.0</ele>
        <time>2018-07-22T13:51:47Z</time>
      </trkpt>
      <trkpt lat="41.108317" lon="-3.727967">
        <ele>1692.0</ele>
        <time>2018-07-22T13:51:48Z</time>
      </trkpt>
      <trkpt lat="41.108333" lon="-3.728067">
        <ele>1693.0</ele>
        <time>2018-07-22T13:51:49Z</time>
      </trkpt>
      <trkpt lat="41.108350" lon="-3.728167">
        <ele>1694.0</ele>
        <time>2018-07-22T13:51:50Z</time>
      </trkpt>
      <trkpt lat="41.108367" lon="-3.728267">
        <ele>1697.0</ele>
        <time>2018-07-22T13:51:51Z</time>
      </trkpt>
      <trkpt lat="41.108383" lon="-3.728350">
        <ele>1699.0</ele>
        <time>2018-07-22T13:51:52Z</time>
      </trkpt>
      <trkpt lat="41.108400" lon="-3.728417">
        <ele>1701.0</ele>
        <time>2018-07-22T13:51:53Z</time>
      </trkpt>
      <trkpt lat="41.108383" lon="-3.728483">
        <ele>1703.0</ele>
        <time>2018-07-22T13:51:54Z</time>
      </trkpt>
      <trkpt lat="41.108383" lon="-3.728567">
        <ele>1704.0</ele>
        <time>2018-07-22T13:51:55Z</time>
      </trkpt>
      <trkpt lat="41.108400" lon="-3.728633">
        <ele>1704.0</ele>
        <time>2018-07-22T13:51:56Z</time>
      </trkpt>
      <trkpt lat="41.108433" lon="-3.728717">
        <ele>1703.0</ele>
        <time>2018-07-22T13:51:57Z</time>
      </trkpt>
      <trkpt lat="41.108467" lon="-3.728817">
        <ele>1702.0</ele>
        <time>2018-07-22T13:51:58Z</time>
      </trkpt>
      <trkpt lat="41.108517" lon="-3.728900">
        <ele>1701.0</ele>
        <time>2018-07-22T13:51:59Z</time>
      </trkpt>
      <trkpt lat="41.108550" lon="-3.729000">
        <ele>1699.0</ele>
        <time>2018-07-22T13:52:00Z</time>
      </trkpt>
      <trkpt lat="41.108550" lon="-3.729100">
        <ele>1696.0</ele>
        <time>2018-07-22T13:52:01Z</time>
      </trkpt>
      <trkpt lat="41.108550" lon="-3.729183">
        <ele>1693.0</ele>
        <time>2018-07-22T13:52:02Z</time>
      </trkpt>
      <trkpt lat="41.108550" lon="-3.729283">
        <ele>1689.0</ele>
        <time>2018-07-22T13:52:03Z</time>
      </trkpt>
      <trkpt lat="41.108550" lon="-3.729383">
        <ele>1685.0</ele>
        <time>2018-07-22T13:52:04Z</time>
      </trkpt>
      <trkpt lat="41.108533" lon="-3.729483">
        <ele>1682.0</ele>
        <time>2018-07-22T13:52:05Z</time>
      </trkpt>
      <trkpt lat="41.108517" lon="-3.729600">
        <ele>1679.0</ele>
        <time>2018-07-22T13:52:06Z</time>
      </trkpt>
      <trkpt lat="41.108500" lon="-3.729700">
        <ele>1677.0</ele>
        <time>2018-07-22T13:52:07Z</time>
      </trkpt>
      <trkpt lat="41.108483" lon="-3.729800">
        <ele>1675.0</ele>
        <time>2018-07-22T13:52:08Z</time>
      </trkpt>
      <trkpt lat="41.108483" lon="-3.729900">
        <ele>1673.0</ele>
        <time>2018-07-22T13:52:09Z</time>
      </trkpt>
      <trkpt lat="41.108483" lon="-3.730000">
        <ele>1670.0</ele>
        <time>2018-07-22T13:52:10Z</time>
      </trkpt>
      <trkpt lat="41.108483" lon="-3.730117">
        <ele>1667.0</ele>
        <time>2018-07-22T13:52:11Z</time>
      </trkpt>
      <trkpt lat="41.108467" lon="-3.730233">
        <ele>1663.0</ele>
        <time>2018-07-22T13:52:12Z</time>
      </trkpt>
      <trkpt lat="41.108450" lon="-3.730350">
        <ele>1659.0</ele>
        <time>2018-07-22T13:52:13Z</time>
      </trkpt>
      <trkpt lat="41.108433" lon="-3.730483">
        <ele>1656.0</ele>
        <time>2018-07-22T13:52:14Z</time>
      </trkpt>
      <trkpt lat="41.108417" lon="-3.730600">
        <ele>1654.0</ele>
        <time>2018-07-22T13:52:15Z</time>
      </trkpt>
      <trkpt lat="41.108400" lon="-3.730717">
        <ele>1652.0</ele>
        <time>2018-07-22T13:52:16Z</time>
      </trkpt>
      <trkpt lat="41.108400" lon="-3.730833">
        <ele>1649.0</ele>
        <time>2018-07-22T13:52:17Z</time>
      </trkpt>
      <trkpt lat="41.108383" lon="-3.730933">
        <ele>1646.0</ele>
        <time>2018-07-22T13:52:18Z</time>
      </trkpt>
      <trkpt lat="41.108367" lon="-3.731050">
        <ele>1642.0</ele>
        <time>2018-07-22T13:52:19Z</time>
      </trkpt>
      <trkpt lat="41.108350" lon="-3.731183">
        <ele>1638.0</ele>
        <time>2018-07-22T13:52:20Z</time>
      </trkpt>
      <trkpt lat="41.108317" lon="-3.731317">
        <ele>1634.0</ele>
        <time>2018-07-22T13:52:21Z</time>
      </trkpt>
      <trkpt lat="41.108283" lon="-3.731467">
        <ele>1631.0</ele>
        <time>2018-07-22T13:52:22Z</time>
      </trkpt>
      <trkpt lat="41.108250" lon="-3.731583">
        <ele>1629.0</ele>
        <time>2018-07-22T13:52:23Z</time>
      </trkpt>
      <trkpt lat="41.108217" lon="-3.731700">
        <ele>1628.0</ele>
        <time>2018-07-22T13:52:24Z</time>
      </trkpt>
      <trkpt lat="41.108200" lon="-3.731817">
        <ele>1626.0</ele>
        <time>2018-07-22T13:52:25Z</time>
      </trkpt>
      <trkpt lat="41.108183" lon="-3.731933">
        <ele>1623.0</ele>
        <time>2018-07-22T13:52:26Z</time>
      </trkpt>
      <trkpt lat="41.108167" lon="-3.732067">
        <ele>1620.0</ele>
        <time>2018-07-22T13:52:27Z</time>
      </trkpt>
      <trkpt lat="41.108167" lon="-3.732217">
        <ele>1617.0</ele>
        <time>2018-07-22T13:52:28Z</time>
      </trkpt>
      <trkpt lat="41.108150" lon="-3.732350">
        <ele>1616.0</ele>
        <time>2018-07-22T13:52:29Z</time>
      </trkpt>
      <trkpt lat="41.108133" lon="-3.732500">
        <ele>1615.0</ele>
        <time>2018-07-22T13:52:30Z</time>
      </trkpt>
      <trkpt lat="41.108117" lon="-3.732633">
        <ele>1616.0</ele>
        <time>2018-07-22T13:52:31Z</time>
      </trkpt>
      <trkpt lat="41.108083" lon="-3.732750">
        <ele>1619.0</ele>
        <time>2018-07-22T13:52:32Z</time>
      </trkpt>
      <trkpt lat="41.108067" lon="-3.732833">
        <ele>1623.0</ele>
        <time>2018-07-22T13:52:33Z</time>
      </trkpt>
      <trkpt lat="41.108067" lon="-3.732900">
        <ele>1626.0</ele>
        <time>2018-07-22T13:52:34Z</time>
      </trkpt>
      <trkpt lat="41.108067" lon="-3.732950">
        <ele>1626.0</ele>
        <time>2018-07-22T13:52:35Z</time>
      </trkpt>
      <trkpt lat="41.108067" lon="-3.733017">
        <ele>1626.0</ele>
        <time>2018-07-22T13:52:36Z</time>
      </trkpt>
      <trkpt lat="41.108067" lon="-3.733100">
        <ele>1624.0</ele>
        <time>2018-07-22T13:52:37Z</time>
      </trkpt>
      <trkpt lat="41.108050" lon="-3.733217">
        <ele>1623.0</ele>
        <time>2018-07-22T13:52:38Z</time>
      </trkpt>
      <trkpt lat="41.108033" lon="-3.733333">
        <ele>1623.0</ele>
        <time>2018-07-22T13:52:39Z</time>
      </trkpt>
      <trkpt lat="41.108000" lon="-3.733433">
        <ele>1623.0</ele>
        <time>2018-07-22T13:52:40Z</time>
      </trkpt>
      <trkpt lat="41.107983" lon="-3.733533">
        <ele>1625.0</ele>
        <time>2018-07-22T13:52:41Z</time>
      </trkpt>
      <trkpt lat="41.107983" lon="-3.733617">
        <ele>1626.0</ele>
        <time>2018-07-22T13:52:42Z</time>
      </trkpt>
      <trkpt lat="41.107967" lon="-3.733700">
        <ele>1627.0</ele>
        <time>2018-07-22T13:52:43Z</time>
      </trkpt>
      <trkpt lat="41.107967" lon="-3.733767">
        <ele>1627.0</ele>
        <time>2018-07-22T13:52:44Z</time>
      </trkpt>
      <trkpt lat="41.107950" lon="-3.733850">
        <ele>1626.0</ele>
        <time>2018-07-22T13:52:45Z</time>
      </trkpt>
      <trkpt lat="41.107917" lon="-3.733933">
        <ele>1625.0</ele>
        <time>2018-07-22T13:52:46Z</time>
      </trkpt>
      <trkpt lat="41.107867" lon="-3.734033">
        <ele>1625.0</ele>
        <time>2018-07-22T13:52:47Z</time>
      </trkpt>
      <trkpt lat="41.107800" lon="-3.734133">
        <ele>1626.0</ele>
        <time>2018-07-22T13:52:48Z</time>
      </trkpt>
      <trkpt lat="41.107733" lon="-3.734217">
        <ele>1628.0</ele>
        <time>2018-07-22T13:52:49Z</time>
      </trkpt>
      <trkpt lat="41.107683" lon="-3.734300">
        <ele>1630.0</ele>
        <time>2018-07-22T13:52:50Z</time>
      </trkpt>
      <trkpt lat="41.107633" lon="-3.734383">
        <ele>1633.0</ele>
        <time>2018-07-22T13:52:51Z</time>
      </trkpt>
      <trkpt lat="41.107583" lon="-3.734467">
        <ele>1634.0</ele>
        <time>2018-07-22T13:52:52Z</time>
      </trkpt>
      <trkpt lat="41.107517" lon="-3.734533">
        <ele>1636.0</ele>
        <time>2018-07-22T13:52:53Z</time>
      </trkpt>
      <trkpt lat="41.107433" lon="-3.734617">
        <ele>1638.0</ele>
        <time>2018-07-22T13:52:54Z</time>
      </trkpt>
      <trkpt lat="41.107367" lon="-3.734700">
        <ele>1641.0</ele>
        <time>2018-07-22T13:52:55Z</time>
      </trkpt>
      <trkpt lat="41.107283" lon="-3.734767">
        <ele>1644.0</ele>
        <time>2018-07-22T13:52:56Z</time>
      </trkpt>
      <trkpt lat="41.107183" lon="-3.734783">
        <ele>1646.0</ele>
        <time>2018-07-22T13:52:57Z</time>
      </trkpt>
      <trkpt lat="41.107100" lon="-3.734767">
        <ele>1647.0</ele>
        <time>2018-07-22T13:52:58Z</time>
      </trkpt>
      <trkpt lat="41.107000" lon="-3.734700">
        <ele>1648.0</ele>
        <time>2018-07-22T13:52:59Z</time>
      </trkpt>
      <trkpt lat="41.106933" lon="-3.734633">
        <ele>1650.0</ele>
        <time>2018-07-22T13:53:00Z</time>
      </trkpt>
      <trkpt lat="41.106867" lon="-3.734533">
        <ele>1651.0</ele>
        <time>2018-07-22T13:53:01Z</time>
      </trkpt>
      <trkpt lat="41.106850" lon="-3.734417">
        <ele>1652.0</ele>
        <time>2018-07-22T13:53:02Z</time>
      </trkpt>
      <trkpt lat="41.106867" lon="-3.734283">
        <ele>1652.0</ele>
        <time>2018-07-22T13:53:03Z</time>
      </trkpt>
      <trkpt lat="41.106900" lon="-3.734150">
        <ele>1653.0</ele>
        <time>2018-07-22T13:53:04Z</time>
      </trkpt>
      <trkpt lat="41.106967" lon="-3.734033">
        <ele>1655.0</ele>
        <time>2018-07-22T13:53:05Z</time>
      </trkpt>
      <trkpt lat="41.107050" lon="-3.733950">
        <ele>1658.0</ele>
        <time>2018-07-22T13:53:06Z</time>
      </trkpt>
      <trkpt lat="41.107133" lon="-3.733917">
        <ele>1660.0</ele>
        <time>2018-07-22T13:53:07Z</time>
      </trkpt>
      <trkpt lat="41.107217" lon="-3.733900">
        <ele>1661.0</ele>
        <time>2018-07-22T13:53:08Z</time>
      </trkpt>
      <trkpt lat="41.107300" lon="-3.733933">
        <ele>1662.0</ele>
        <time>2018-07-22T13:53:09Z</time>
      </trkpt>
      <trkpt lat="41.107383" lon="-3.733983">
        <ele>1663.0</ele>
        <time>2018-07-22T13:53:10Z</time>
      </trkpt>
      <trkpt lat="41.107467" lon="-3.734033">
        <ele>1666.0</ele>
        <time>2018-07-22T13:53:11Z</time>
      </trkpt>
      <trkpt lat="41.107550" lon="-3.734100">
        <ele>1669.0</ele>
        <time>2018-07-22T13:53:12Z</time>
      </trkpt>
      <trkpt lat="41.107617" lon="-3.734150">
        <ele>1672.0</ele>
        <time>2018-07-22T13:53:13Z</time>
      </trkpt>
      <trkpt lat="41.107683" lon="-3.734233">
        <ele>1675.0</ele>
        <time>2018-07-22T13:53:14Z</time>
      </trkpt>
      <trkpt lat="41.107733" lon="-3.734317">
        <ele>1677.0</ele>
        <time>2018-07-22T13:53:15Z</time>
      </trkpt>
      <trkpt lat="41.107800" lon="-3.734417">
        <ele>1679.0</ele>
        <time>2018-07-22T13:53:16Z</time>
      </trkpt>
      <trkpt lat="41.107867" lon="-3.734517">
        <ele>1681.0</ele>
        <time>2018-07-22T13:53:17Z</time>
      </trkpt>
      <trkpt lat="41.107933" lon="-3.734617">
        <ele>1684.0</ele>
        <time>2018-07-22T13:53:18Z</time>
      </trkpt>
      <trkpt lat="41.108017" lon="-3.734700">
        <ele>1687.0</ele>
        <time>2018-07-22T13:53:19Z</time>
      </trkpt>
      <trkpt lat="41.108067" lon="-3.734783">
        <ele>1689.0</ele>
        <time>2018-07-22T13:53:20Z</time>
      </trkpt>
      <trkpt lat="41.108117" lon="-3.734883">
        <ele>1691.0</ele>
        <time>2018-07-22T13:53:21Z</time>
      </trkpt>
      <trkpt lat="41.108150" lon="-3.735000">
        <ele>1692.0</ele>
        <time>2018-07-22T13:53:22Z</time>
      </trkpt>
      <trkpt lat="41.108133" lon="-3.735133">
        <ele>1694.0</ele>
        <time>2018-07-22T13:53:23Z</time>
      </trkpt>
      <trkpt lat="41.108100" lon="-3.735267">
        <ele>1697.0</ele>
        <time>2018-07-22T13:53:24Z</time>
      </trkpt>
      <trkpt lat="41.108050" lon="-3.735367">
        <ele>1701.0</ele>
        <time>2018-07-22T13:53:25Z</time>
      </trkpt>
      <trkpt lat="41.107967" lon="-3.735433">
        <ele>1706.0</ele>
        <time>2018-07-22T13:53:26Z</time>
      </trkpt>
      <trkpt lat="41.107883" lon="-3.735483">
        <ele>1710.0</ele>
        <time>2018-07-22T13:53:27Z</time>
      </trkpt>
      <trkpt lat="41.107800" lon="-3.735500">
        <ele>1713.0</ele>
        <time>2018-07-22T13:53:28Z</time>
      </trkpt>
      <trkpt lat="41.107717" lon="-3.735467">
        <ele>1715.0</ele>
        <time>2018-07-22T13:53:29Z</time>
      </trkpt>
      <trkpt lat="41.107633" lon="-3.735417">
        <ele>1717.0</ele>
        <time>2018-07-22T13:53:30Z</time>
      </trkpt>
      <trkpt lat="41.107567" lon="-3.735333">
        <ele>1719.0</ele>
        <time>2018-07-22T13:53:31Z</time>
      </trkpt>
      <trkpt lat="41.107517" lon="-3.735200">
        <ele>1721.0</ele>
        <time>2018-07-22T13:53:32Z</time>
      </trkpt>
      <trkpt lat="41.107483" lon="-3.735050">
        <ele>1725.0</ele>
        <time>2018-07-22T13:53:33Z</time>
      </trkpt>
      <trkpt lat="41.107483" lon="-3.734883">
        <ele>1729.0</ele>
        <time>2018-07-22T13:53:34Z</time>
      </trkpt>
      <trkpt lat="41.107500" lon="-3.734733">
        <ele>1734.0</ele>
        <time>2018-07-22T13:53:35Z</time>
      </trkpt>
      <trkpt lat="41.107550" lon="-3.734617">
        <ele>1737.0</ele>
        <time>2018-07-22T13:53:36Z</time>
      </trkpt>
      <trkpt lat="41.107617" lon="-3.734517">
        <ele>1739.0</ele>
        <time>2018-07-22T13:53:37Z</time>
      </trkpt>
      <trkpt lat="41.107717" lon="-3.734483">
        <ele>1741.0</ele>
        <time>2018-07-22T13:53:38Z</time>
      </trkpt>
      <trkpt lat="41.107833" lon="-3.734467">
        <ele>1745.0</ele>
        <time>2018-07-22T13:53:39Z</time>
      </trkpt>
      <trkpt lat="41.107917" lon="-3.734500">
        <ele>1750.0</ele>
        <time>2018-07-22T13:53:40Z</time>
      </trkpt>
      <trkpt lat="41.107967" lon="-3.734550">
        <ele>1755.0</ele>
        <time>2018-07-22T13:53:41Z</time>
      </trkpt>
      <trkpt lat="41.108000" lon="-3.734617">
        <ele>1758.0</ele>
        <time>2018-07-22T13:53:42Z</time>
      </trkpt>
      <trkpt lat="41.108050" lon="-3.734700">
        <ele>1760.0</ele>
        <time>2018-07-22T13:53:43Z</time>
      </trkpt>
      <trkpt lat="41.108100" lon="-3.734800">
        <ele>1762.0</ele>
        <time>2018-07-22T13:53:44Z</time>
      </trkpt>
      <trkpt lat="41.108150" lon="-3.734900">
        <ele>1765.0</ele>
        <time>2018-07-22T13:53:45Z</time>
      </trkpt>
      <trkpt lat="41.108183" lon="-3.735033">
        <ele>1768.0</ele>
        <time>2018-07-22T13:53:46Z</time>
      </trkpt>
      <trkpt lat="41.108183" lon="-3.735167">
        <ele>1770.0</ele>
        <time>2018-07-22T13:53:47Z</time>
      </trkpt>
      <trkpt lat="41.108167" lon="-3.735283">
        <ele>1773.0</ele>
        <time>2018-07-22T13:53:48Z</time>
      </trkpt>
      <trkpt lat="41.108117" lon="-3.735383">
        <ele>1776.0</ele>
        <time>2018-07-22T13:53:49Z</time>
      </trkpt>
      <trkpt lat="41.108050" lon="-3.735450">
        <ele>1779.0</ele>
        <time>2018-07-22T13:53:50Z</time>
      </trkpt>
      <trkpt lat="41.107983" lon="-3.735500">
        <ele>1782.0</ele>
        <time>2018-07-22T13:53:51Z</time>
      </trkpt>
      <trkpt lat="41.107900" lon="-3.735517">
        <ele>1785.0</ele>
        <time>2018-07-22T13:53:52Z</time>
      </trkpt>
      <trkpt lat="41.107817" lon="-3.735533">
        <ele>1788.0</ele>
        <time>2018-07-22T13:53:53Z</time>
      </trkpt>
      <trkpt lat="41.107733" lon="-3.735500">
        <ele>1789.0</ele>
        <time>2018-07-22T13:53:54Z</time>
      </trkpt>
      <trkpt lat="41.107650" lon="-3.735450">
        <ele>1790.0</ele>
        <time>2018-07-22T13:53:55Z</time>
      </trkpt>
      <trkpt lat="41.107567" lon="-3.735367">
        <ele>1791.0</ele>
        <time>2018-07-22T13:53:56Z</time>
      </trkpt>
      <trkpt lat="41.107483" lon="-3.735250">
        <ele>1793.0</ele>
        <time>2018-07-22T13:53:57Z</time>
      </trkpt>
      <trkpt lat="41.107433" lon="-3.735117">
        <ele>1795.0</ele>
        <time>2018-07-22T13:53:58Z</time>
      </trkpt>
      <trkpt lat="41.107417" lon="-3.734967">
        <ele>1797.0</ele>
        <time>2018-07-22T13:53:59Z</time>
      </trkpt>
      <trkpt lat="41.107433" lon="-3.734800">
        <ele>1798.0</ele>
        <time>2018-07-22T13:54:00Z</time>
      </trkpt>
      <trkpt lat="41.107467" lon="-3.734633">
        <ele>1800.0</ele>
        <time>2018-07-22T13:54:01Z</time>
      </trkpt>
      <trkpt lat="41.107533" lon="-3.734483">
        <ele>1804.0</ele>
        <time>2018-07-22T13:54:02Z</time>
      </trkpt>
      <trkpt lat="41.107600" lon="-3.734333">
        <ele>1808.0</ele>
        <time>2018-07-22T13:54:03Z</time>
      </trkpt>
      <trkpt lat="41.107667" lon="-3.734217">
        <ele>1812.0</ele>
        <time>2018-07-22T13:54:04Z</time>
      </trkpt>
      <trkpt lat="41.107750" lon="-3.734133">
        <ele>1816.0</ele>
        <time>2018-07-22T13:54:05Z</time>
      </trkpt>
      <trkpt lat="41.107850" lon="-3.734067">
        <ele>1819.0</ele>
        <time>2018-07-22T13:54:06Z</time>
      </trkpt>
      <trkpt lat="41.107950" lon="-3.734017">
        <ele>1822.0</ele>
        <time>2018-07-22T13:54:07Z</time>
      </trkpt>
      <trkpt lat="41.108067" lon="-3.734000">
        <ele>1825.0</ele>
        <time>2018-07-22T13:54:08Z</time>
      </trkpt>
      <trkpt lat="41.108167" lon="-3.734000">
        <ele>1829.0</ele>
        <time>2018-07-22T13:54:09Z</time>
      </trkpt>
      <trkpt lat="41.108267" lon="-3.734033">
        <ele>1834.0</ele>
        <time>2018-07-22T13:54:10Z</time>
      </trkpt>
      <trkpt lat="41.108333" lon="-3.734067">
        <ele>1838.0</ele>
        <time>2018-07-22T13:54:11Z</time>
      </trkpt>
      <trkpt lat="41.108400" lon="-3.734133">
        <ele>1842.0</ele>
        <time>2018-07-22T13:54:12Z</time>
      </trkpt>
      <trkpt lat="41.108433" lon="-3.734183">
        <ele>1845.0</ele>
        <time>2018-07-22T13:54:13Z</time>
      </trkpt>
      <trkpt lat="41.108467" lon="-3.734233">
        <ele>1846.0</ele>
        <time>2018-07-22T13:54:14Z</time>
      </trkpt>
      <trkpt lat="41.108483" lon="-3.734300">
        <ele>1847.0</ele>
        <time>2018-07-22T13:54:15Z</time>
      </trkpt>
      <trkpt lat="41.108467" lon="-3.734400">
        <ele>1847.0</ele>
        <time>2018-07-22T13:54:16Z</time>
      </trkpt>
      <trkpt lat="41.108450" lon="-3.734500">
        <ele>1847.0</ele>
        <time>2018-07-22T13:54:17Z</time>
      </trkpt>
      <trkpt lat="41.108383" lon="-3.734617">
        <ele>1849.0</ele>
        <time>2018-07-22T13:54:18Z</time>
      </trkpt>
      <trkpt lat="41.108333" lon="-3.734700">
        <ele>1853.0</ele>
        <time>2018-07-22T13:54:19Z</time>
      </trkpt>
      <trkpt lat="41.108250" lon="-3.734750">
        <ele>1858.0</ele>
        <time>2018-07-22T13:54:20Z</time>
      </trkpt>
      <trkpt lat="41.108183" lon="-3.734783">
        <ele>1861.0</ele>
        <time>2018-07-22T13:54:21Z</time>
      </trkpt>
      <trkpt lat="41.108100" lon="-3.734800">
        <ele>1864.0</ele>
        <time>2018-07-22T13:54:22Z</time>
      </trkpt>
      <trkpt lat="41.108017" lon="-3.734783">
        <ele>1865.0</ele>
        <time>2018-07-22T13:54:23Z</time>
      </trkpt>
      <trkpt lat="41.107933" lon="-3.734733">
        <ele>1866.0</ele>
        <time>2018-07-22T13:54:24Z</time>
      </trkpt>
      <trkpt lat="41.107833" lon="-3.734650">
        <ele>1866.0</ele>
        <time>2018-07-22T13:54:25Z</time>
      </trkpt>
      <trkpt lat="41.107750" lon="-3.734533">
        <ele>1868.0</ele>
        <time>2018-07-22T13:54:26Z</time>
      </trkpt>
      <trkpt lat="41.107700" lon="-3.734383">
        <ele>1871.0</ele>
        <time>2018-07-22T13:54:27Z</time>
      </trkpt>
      <trkpt lat="41.107683" lon="-3.734217">
        <ele>1874.0</ele>
        <time>2018-07-22T13:54:28Z</time>
      </trkpt>
      <trkpt lat="41.107683" lon="-3.734050">
        <ele>1876.0</ele>
        <time>2018-07-22T13:54:29Z</time>
      </trkpt>
      <trkpt lat="41.107733" lon="-3.733900">
        <ele>1879.0</ele>
        <time>2018-07-22T13:54:30Z</time>
      </trkpt>
      <trkpt lat="41.107783" lon="-3.733733">
        <ele>1883.0</ele>
        <time>2018-07-22T13:54:31Z</time>
      </trkpt>
      <trkpt lat="41.107850" lon="-3.733600">
        <ele>1888.0</ele>
        <time>2018-07-22T13:54:32Z</time>
      </trkpt>
      <trkpt lat="41.107917" lon="-3.733483">
        <ele>1893.0</ele>
        <time>2018-07-22T13:54:33Z</time>
      </trkpt>
      <trkpt lat="41.107967" lon="-3.733383">
        <ele>1897.0</ele>
        <time>2018-07-22T13:54:34Z</time>
      </trkpt>
      <trkpt lat="41.108017" lon="-3.733267">
        <ele>1900.0</ele>
        <time>2018-07-22T13:54:35Z</time>
      </trkpt>
      <trkpt lat="41.108067" lon="-3.733183">
        <ele>1902.0</ele>
        <time>2018-07-22T13:54:36Z</time>
      </trkpt>
      <trkpt lat="41.108167" lon="-3.733100">
        <ele>1903.0</ele>
        <time>2018-07-22T13:54:37Z</time>
      </trkpt>
      <trkpt lat="41.108267" lon="-3.733050">
        <ele>1905.0</ele>
        <time>2018-07-22T13:54:38Z</time>
      </trkpt>
      <trkpt lat="41.108367" lon="-3.733017">
        <ele>1907.0</ele>
        <time>2018-07-22T13:54:39Z</time>
      </trkpt>
      <trkpt lat="41.108467" lon="-3.733000">
        <ele>1910.0</ele>
        <time>2018-07-22T13:54:40Z</time>
      </trkpt>
      <trkpt lat="41.108550" lon="-3.732983">
        <ele>1913.0</ele>
        <time>2018-07-22T13:54:41Z</time>
      </trkpt>
      <trkpt lat="41.108633" lon="-3.732983">
        <ele>1915.0</ele>
        <time>2018-07-22T13:54:42Z</time>
      </trkpt>
      <trkpt lat="41.108683" lon="-3.733017">
        <ele>1916.0</ele>
        <time>2018-07-22T13:54:43Z</time>
      </trkpt>
      <trkpt lat="41.108750" lon="-3.733083">
        <ele>1917.0</ele>
        <time>2018-07-22T13:54:44Z</time>
      </trkpt>
      <trkpt lat="41.108800" lon="-3.733167">
        <ele>1918.0</ele>
        <time>2018-07-22T13:54:45Z</time>
      </trkpt>
      <trkpt lat="41.108833" lon="-3.733250">
        <ele>1919.0</ele>
        <time>2018-07-22T13:54:46Z</time>
      </trkpt>
      <trkpt lat="41.108850" lon="-3.733350">
        <ele>1922.0</ele>
        <time>2018-07-22T13:54:47Z</time>
      </trkpt>
      <trkpt lat="41.108833" lon="-3.733450">
        <ele>1924.0</ele>
        <time>2018-07-22T13:54:48Z</time>
      </trkpt>
      <trkpt lat="41.108817" lon="-3.733533">
        <ele>1927.0</ele>
        <time>2018-07-22T13:54:49Z</time>
      </trkpt>
      <trkpt lat="41.108783" lon="-3.733617">
        <ele>1929.0</ele>
        <time>2018-07-22T13:54:50Z</time>
      </trkpt>
      <trkpt lat="41.108733" lon="-3.733683">
        <ele>1931.0</ele>
        <time>2018-07-22T13:54:51Z</time>
      </trkpt>
      <trkpt lat="41.108667" lon="-3.733750">
        <ele>1933.0</ele>
        <time>2018-07-22T13:54:52Z</time>
      </trkpt>
      <trkpt lat="41.108600" lon="-3.733800">
        <ele>1936.0</ele>
        <time>2018-07-22T13:54:53Z</time>
      </trkpt>
      <trkpt lat="41.108533" lon="-3.733867">
        <ele>1939.0</ele>
        <time>2018-07-22T13:54:54Z</time>
      </trkpt>
      <trkpt lat="41.108467" lon="-3.733933">
        <ele>1943.0</ele>
        <time>2018-07-22T13:54:55Z</time>
      </trkpt>
      <trkpt lat="41.108417" lon="-3.734000">
        <ele>1946.0</ele>
        <time>2018-07-22T13:54:56Z</time>
      </trkpt>
      <trkpt lat="41.108350" lon="-3.734050">
        <ele>1948.0</ele>
        <time>2018-07-22T13:54:57Z</time>
      </trkpt>
      <trkpt lat="41.108267" lon="-3.734100">
        <ele>1951.0</ele>
        <time>2018-07-22T13:54:58Z</time>
      </trkpt>
      <trkpt lat="41.108200" lon="-3.734117">
        <ele>1954.0</ele>
        <time>2018-07-22T13:54:59Z</time>
      </trkpt>
      <trkpt lat="41.108117" lon="-3.734100">
        <ele>1956.0</ele>
        <time>2018-07-22T13:55:00Z</time>
      </trkpt>
      <trkpt lat="41.108033" lon="-3.734033">
        <ele>1958.0</ele>
        <time>2018-07-22T13:55:01Z</time>
      </trkpt>
      <trkpt lat="41.107950" lon="-3.733933">
        <ele>1960.0</ele>
        <time>2018-07-22T13:55:02Z</time>
      </trkpt>
      <trkpt lat="41.107883" lon="-3.733800">
        <ele>1961.0</ele>
        <time>2018-07-22T13:55:03Z</time>
      </trkpt>
      <trkpt lat="41.107850" lon="-3.733650">
        <ele>1963.0</ele>
        <time>2018-07-22T13:55:04Z</time>
      </trkpt>
      <trkpt lat="41.107833" lon="-3.733483">
        <ele>1966.0</ele>
        <time>2018-07-22T13:55:05Z</time>
      </trkpt>
      <trkpt lat="41.107867" lon="-3.733317">
        <ele>1969.0</ele>
        <time>2018-07-22T13:55:06Z</time>
      </trkpt>
      <trkpt lat="41.107917" lon="-3.733167">
        <ele>1973.0</ele>
        <time>2018-07-22T13:55:07Z</time>
      </trkpt>
      <trkpt lat="41.108000" lon="-3.733067">
        <ele>1977.0</ele>
        <time>2018-07-22T13:55:08Z</time>
      </trkpt>
      <trkpt lat="41.108067" lon="-3.732983">
        <ele>1981.0</ele>
        <time>2018-07-22T13:55:09Z</time>
      </trkpt>
      <trkpt lat="41.108150" lon="-3.732917">
        <ele>1984.0</ele>
        <time>2018-07-22T13:55:10Z</time>
      </trkpt>
      <trkpt lat="41.108250" lon="-3.732850">
        <ele>1987.0</ele>
        <time>2018-07-22T13:55:11Z</time>
      </trkpt>
      <trkpt lat="41.108350" lon="-3.732817">
        <ele>1989.0</ele>
        <time>2018-07-22T13:55:12Z</time>
      </trkpt>
      <trkpt lat="41.108467" lon="-3.732800">
        <ele>1991.0</ele>
        <time>2018-07-22T13:55:13Z</time>
      </trkpt>
      <trkpt lat="41.108583" lon="-3.732817">
        <ele>1994.0</ele>
        <time>2018-07-22T13:55:14Z</time>
      </trkpt>
      <trkpt lat="41.108683" lon="-3.732867">
        <ele>1997.0</ele>
        <time>2018-07-22T13:55:15Z</time>
      </trkpt>
      <trkpt lat="41.108783" lon="-3.732933">
        <ele>2000.0</ele>
        <time>2018-07-22T13:55:16Z</time>
      </trkpt>
      <trkpt lat="41.108833" lon="-3.733033">
        <ele>2002.0</ele>
        <time>2018-07-22T13:55:17Z</time>
      </trkpt>
      <trkpt lat="41.108867" lon="-3.733133">
        <ele>2004.0</ele>
        <time>2018-07-22T13:55:18Z</time>
      </trkpt>
      <trkpt lat="41.108883" lon="-3.733233">
        <ele>2006.0</ele>
        <time>2018-07-22T13:55:19Z</time>
      </trkpt>
      <trkpt lat="41.108867" lon="-3.733333">
        <ele>2009.0</ele>
        <time>2018-07-22T13:55:20Z</time>
      </trkpt>
      <trkpt lat="41.108850" lon="-3.733433">
        <ele>2012.0</ele>
        <time>2018-07-22T13:55:21Z</time>
      </trkpt>
      <trkpt lat="41.108817" lon="-3.733517">
        <ele>2014.0</ele>
        <time>2018-07-22T13:55:22Z</time>
      </trkpt>
      <trkpt lat="41.108750" lon="-3.733567">
        <ele>2017.0</ele>
        <time>2018-07-22T13:55:23Z</time>
      </trkpt>
      <trkpt lat="41.108683" lon="-3.733600">
        <ele>2018.0</ele>
        <time>2018-07-22T13:55:24Z</time>
      </trkpt>
      <trkpt lat="41.108600" lon="-3.733600">
        <ele>2019.0</ele>
        <time>2018-07-22T13:55:25Z</time>
      </trkpt>
      <trkpt lat="41.108517" lon="-3.733567">
        <ele>2020.0</ele>
        <time>2018-07-22T13:55:26Z</time>
      </trkpt>
      <trkpt lat="41.108433" lon="-3.733483">
        <ele>2021.0</ele>
        <time>2018-07-22T13:55:27Z</time>
      </trkpt>
      <trkpt lat="41.108350" lon="-3.733367">
        <ele>2023.0</ele>
        <time>2018-07-22T13:55:28Z</time>
      </trkpt>
      <trkpt lat="41.108300" lon="-3.733233">
        <ele>2025.0</ele>
        <time>2018-07-22T13:55:29Z</time>
      </trkpt>
      <trkpt lat="41.108267" lon="-3.733067">
        <ele>2028.0</ele>
        <time>2018-07-22T13:55:30Z</time>
      </trkpt>
      <trkpt lat="41.108267" lon="-3.732917">
        <ele>2030.0</ele>
        <time>2018-07-22T13:55:31Z</time>
      </trkpt>
      <trkpt lat="41.108283" lon="-3.732767">
        <ele>2032.0</ele>
        <time>2018-07-22T13:55:32Z</time>
      </trkpt>
      <trkpt lat="41.108300" lon="-3.732600">
        <ele>2035.0</ele>
        <time>2018-07-22T13:55:33Z</time>
      </trkpt>
      <trkpt lat="41.108333" lon="-3.732433">
        <ele>2037.0</ele>
        <time>2018-07-22T13:55:34Z</time>
      </trkpt>
      <trkpt lat="41.108367" lon="-3.732283">
        <ele>2039.0</ele>
        <time>2018-07-22T13:55:35Z</time>
      </trkpt>
      <trkpt lat="41.108417" lon="-3.732117">
        <ele>2043.0</ele>
        <time>2018-07-22T13:55:36Z</time>
      </trkpt>
      <trkpt lat="41.108450" lon="-3.731967">
        <ele>2047.0</ele>
        <time>2018-07-22T13:55:37Z</time>
      </trkpt>
      <trkpt lat="41.108483" lon="-3.731817">
        <ele>2051.0</ele>
        <time>2018-07-22T13:55:38Z</time>
      </trkpt>
      <trkpt lat="41.108517" lon="-3.731667">
        <ele>2054.0</ele>
        <time>2018-07-22T13:55:39Z</time>
      </trkpt>
      <trkpt lat="41.108533" lon="-3.731533">
        <ele>2057.0</ele>
        <time>2018-07-22T13:55:40Z</time>
      </trkpt>
      <trkpt lat="41.108600" lon="-3.731400">
        <ele>2059.0</ele>
        <time>2018-07-22T13:55:41Z</time>
      </trkpt>
      <trkpt lat="41.108667" lon="-3.731283">
        <ele>2060.0</ele>
        <time>2018-07-22T13:55:42Z</time>
      </trkpt>
      <trkpt lat="41.108767" lon="-3.731200">
        <ele>2060.0</ele>
        <time>2018-07-22T13:55:43Z</time>
      </trkpt>
      <trkpt lat="41.108850" lon="-3.731117">
        <ele>2061.0</ele>
        <time>2018-07-22T13:55:44Z</time>
      </trkpt>
      <trkpt lat="41.108950" lon="-3.731067">
        <ele>2061.0</ele>
        <time>2018-07-22T13:55:45Z</time>
      </trkpt>
      <trkpt lat="41.109050" lon="-3.731033">
        <ele>2062.0</ele>
        <time>2018-07-22T13:55:46Z</time>
      </trkpt>
      <trkpt lat="41.109150" lon="-3.731017">
        <ele>2063.0</ele>
        <time>2018-07-22T13:55:47Z</time>
      </trkpt>
      <trkpt lat="41.109250" lon="-3.731017">
        <ele>2063.0</ele>
        <time>2018-07-22T13:55:48Z</time>
      </trkpt>
      <trkpt lat="41.109367" lon="-3.731050">
        <ele>2064.0</ele>
        <time>2018-07-22T13:55:49Z</time>
      </trkpt>
      <trkpt lat="41.109467" lon="-3.731067">
        <ele>2066.0</ele>
        <time>2018-07-22T13:55:50Z</time>
      </trkpt>
      <trkpt lat="41.109550" lon="-3.731100">
        <ele>2067.0</ele>
        <time>2018-07-22T13:55:51Z</time>
      </trkpt>
      <trkpt lat="41.109633" lon="-3.731150">
        <ele>2068.0</ele>
        <time>2018-07-22T13:55:52Z</time>
      </trkpt>
      <trkpt lat="41.109717" lon="-3.731217">
        <ele>2069.0</ele>
        <time>2018-07-22T13:55:53Z</time>
      </trkpt>
      <trkpt lat="41.109783" lon="-3.731283">
        <ele>2070.0</ele>
        <time>2018-07-22T13:55:54Z</time>
      </trkpt>
      <trkpt lat="41.109833" lon="-3.731350">
        <ele>2072.0</ele>
        <time>2018-07-22T13:55:55Z</time>
      </trkpt>
      <trkpt lat="41.109883" lon="-3.731433">
        <ele>2073.0</ele>
        <time>2018-07-22T13:55:56Z</time>
      </trkpt>
      <trkpt lat="41.109933" lon="-3.731517">
        <ele>2075.0</ele>
        <time>2018-07-22T13:55:57Z</time>
      </trkpt>
      <trkpt lat="41.109950" lon="-3.731600">
        <ele>2076.0</ele>
        <time>2018-07-22T13:55:58Z</time>
      </trkpt>
      <trkpt lat="41.109967" lon="-3.731700">
        <ele>2077.0</ele>
        <time>2018-07-22T13:55:59Z</time>
      </trkpt>
      <trkpt lat="41.109967" lon="-3.731800">
        <ele>2078.0</ele>
        <time>2018-07-22T13:56:00Z</time>
      </trkpt>
      <trkpt lat="41.109967" lon="-3.731883">
        <ele>2080.0</ele>
        <time>2018-07-22T13:56:01Z</time>
      </trkpt>
      <trkpt lat="41.109950" lon="-3.731933">
        <ele>2081.0</ele>
        <time>2018-07-22T13:56:02Z</time>
      </trkpt>
      <trkpt lat="41.109917" lon="-3.731983">
        <ele>2082.0</ele>
        <time>2018-07-22T13:56:03Z</time>
      </trkpt>
      <trkpt lat="41.109867" lon="-3.732033">
        <ele>2082.0</ele>
        <time>2018-07-22T13:56:04Z</time>
      </trkpt>
      <trkpt lat="41.109800" lon="-3.732050">
        <ele>2082.0</ele>
        <time>2018-07-22T13:56:05Z</time>
      </trkpt>
      <trkpt lat="41.109733" lon="-3.732050">
        <ele>2083.0</ele>
        <time>2018-07-22T13:56:06Z</time>
      </trkpt>
      <trkpt lat="41.109667" lon="-3.732033">
        <ele>2083.0</ele>
        <time>2018-07-22T13:56:07Z</time>
      </trkpt>
      <trkpt lat="41.109583" lon="-3.731983">
        <ele>2083.0</ele>
        <time>2018-07-22T13:56:08Z</time>
      </trkpt>
      <trkpt lat="41.109517" lon="-3.731917">
        <ele>2082.0</ele>
        <time>2018-07-22T13:56:09Z</time>
      </trkpt>
      <trkpt lat="41.109433" lon="-3.731800">
        <ele>2082.0</ele>
        <time>2018-07-22T13:56:10Z</time>
      </trkpt>
      <trkpt lat="41.109367" lon="-3.731667">
        <ele>2081.0</ele>
        <time>2018-07-22T13:56:11Z</time>
      </trkpt>
      <trkpt lat="41.109317" lon="-3.731517">
        <ele>2083.0</ele>
        <time>2018-07-22T13:56:12Z</time>
      </trkpt>
      <trkpt lat="41.109267" lon="-3.731367">
        <ele>2085.0</ele>
        <time>2018-07-22T13:56:13Z</time>
      </trkpt>
      <trkpt lat="41.109233" lon="-3.731217">
        <ele>2088.0</ele>
        <time>2018-07-22T13:56:14Z</time>
      </trkpt>
      <trkpt lat="41.109200" lon="-3.731067">
        <ele>2091.0</ele>
        <time>2018-07-22T13:56:15Z</time>
      </trkpt>
      <trkpt lat="41.109167" lon="-3.730933">
        <ele>2094.0</ele>
        <time>2018-07-22T13:56:16Z</time>
      </trkpt>
      <trkpt lat="41.109133" lon="-3.730833">
        <ele>2096.0</ele>
        <time>2018-07-22T13:56:17Z</time>
      </trkpt>
      <trkpt lat="41.109083" lon="-3.730717">
        <ele>2099.0</ele>
        <time>2018-07-22T13:56:18Z</time>
      </trkpt>
      <trkpt lat="41.109033" lon="-3.730617">
        <ele>2100.0</ele>
        <time>2018-07-22T13:56:19Z</time>
      </trkpt>
      <trkpt lat="41.109000" lon="-3.730500">
        <ele>2101.0</ele>
        <time>2018-07-22T13:56:20Z</time>
      </trkpt>
      <trkpt lat="41.109000" lon="-3.730383">
        <ele>2100.0</ele>
        <time>2018-07-22T13:56:21Z</time>
      </trkpt>
      <trkpt lat="41.109000" lon="-3.730233">
        <ele>2100.0</ele>
        <time>2018-07-22T13:56:22Z</time>
      </trkpt>
      <trkpt lat="41.109033" lon="-3.730083">
        <ele>2099.0</ele>
        <time>2018-07-22T13:56:23Z</time>
      </trkpt>
      <trkpt lat="41.109083" lon="-3.729933">
        <ele>2100.0</ele>
        <time>2018-07-22T13:56:24Z</time>
      </trkpt>
      <trkpt lat="41.109133" lon="-3.729800">
        <ele>2102.0</ele>
        <time>2018-07-22T13:56:25Z</time>
      </trkpt>
      <trkpt lat="41.109183" lon="-3.729683">
        <ele>2103.0</ele>
        <time>2018-07-22T13:56:26Z</time>
      </trkpt>
      <trkpt lat="41.109250" lon="-3.729583">
        <ele>2104.0</ele>
        <time>2018-07-22T13:56:27Z</time>
      </trkpt>
      <trkpt lat="41.109350" lon="-3.729500">
        <ele>2103.0</ele>
        <time>2018-07-22T13:56:28Z</time>
      </trkpt>
      <trkpt lat="41.109450" lon="-3.729450">
        <ele>2102.0</ele>
        <time>2018-07-22T13:56:29Z</time>
      </trkpt>
      <trkpt lat="41.109550" lon="-3.729417">
        <ele>2101.0</ele>
        <time>2018-07-22T13:56:30Z</time>
      </trkpt>
      <trkpt lat="41.109667" lon="-3.729400">
        <ele>2101.0</ele>
        <time>2018-07-22T13:56:31Z</time>
      </trkpt>
      <trkpt lat="41.109767" lon="-3.729400">
        <ele>2102.0</ele>
        <time>2018-07-22T13:56:32Z</time>
      </trkpt>
      <trkpt lat="41.109850" lon="-3.729433">
        <ele>2103.0</ele>
        <time>2018-07-22T13:56:33Z</time>
      </trkpt>
      <trkpt lat="41.109933" lon="-3.729483">
        <ele>2103.0</ele>
        <time>2018-07-22T13:56:34Z</time>
      </trkpt>
      <trkpt lat="41.110000" lon="-3.729567">
        <ele>2103.0</ele>
        <time>2018-07-22T13:56:35Z</time>
      </trkpt>
      <trkpt lat="41.110050" lon="-3.729650">
        <ele>2103.0</ele>
        <time>2018-07-22T13:56:36Z</time>
      </trkpt>
      <trkpt lat="41.110083" lon="-3.729750">
        <ele>2103.0</ele>
        <time>2018-07-22T13:56:37Z</time>
      </trkpt>
      <trkpt lat="41.110117" lon="-3.729850">
        <ele>2104.0</ele>
        <time>2018-07-22T13:56:38Z</time>
      </trkpt>
      <trkpt lat="41.110167" lon="-3.729933">
        <ele>2106.0</ele>
        <time>2018-07-22T13:56:39Z</time>
      </trkpt>
      <trkpt lat="41.110200" lon="-3.730033">
        <ele>2108.0</ele>
        <time>2018-07-22T13:56:40Z</time>
      </trkpt>
      <trkpt lat="41.110250" lon="-3.730117">
        <ele>2110.0</ele>
        <time>2018-07-22T13:56:41Z</time>
      </trkpt>
      <trkpt lat="41.110317" lon="-3.730200">
        <ele>2112.0</ele>
        <time>2018-07-22T13:56:42Z</time>
      </trkpt>
      <trkpt lat="41.110367" lon="-3.730267">
        <ele>2113.0</ele>
        <time>2018-07-22T13:56:43Z</time>
      </trkpt>
      <trkpt lat="41.110417" lon="-3.730333">
        <ele>2114.0</ele>
        <time>2018-07-22T13:56:44Z</time>
      </trkpt>
      <trkpt lat="41.110450" lon="-3.730400">
        <ele>2114.0</ele>
        <time>2018-07-22T13:56:45Z</time>
      </trkpt>
      <trkpt lat="41.110450" lon="-3.730467">
        <ele>2114.0</ele>
        <time>2018-07-22T13:56:46Z</time>
      </trkpt>
      <trkpt lat="41.110450" lon="-3.730533">
        <ele>2114.0</ele>
        <time>2018-07-22T13:56:47Z</time>
      </trkpt>
      <trkpt lat="41.110417" lon="-3.730600">
        <ele>2115.0</ele>
        <time>2018-07-22T13:56:48Z</time>
      </trkpt>
      <trkpt lat="41.110367" lon="-3.730650">
        <ele>2116.0</ele>
        <time>2018-07-22T13:56:49Z</time>
      </trkpt>
      <trkpt lat="41.110300" lon="-3.730667">
        <ele>2117.0</ele>
        <time>2018-07-22T13:56:50Z</time>
      </trkpt>
      <trkpt lat="41.110233" lon="-3.730667">
        <ele>2118.0</ele>
        <time>2018-07-22T13:56:51Z</time>
      </trkpt>
      <trkpt lat="41.110167" lon="-3.730633">
        <ele>2118.0</ele>
        <time>2018-07-22T13:56:52Z</time>
      </trkpt>
      <trkpt lat="41.110100" lon="-3.730583">
        <ele>2119.0</ele>
        <time>2018-07-22T13:56:53Z</time>
      </trkpt>
      <trkpt lat="41.110017" lon="-3.730533">
        <ele>2119.0</ele>
        <time>2018-07-22T13:56:54Z</time>
      </trkpt>
      <trkpt lat="41.109950" lon="-3.730450">
        <ele>2121.0</ele>
        <time>2018-07-22T13:56:55Z</time>
      </trkpt>
      <trkpt lat="41.109883" lon="-3.730383">
        <ele>2122.0</ele>
        <time>2018-07-22T13:56:56Z</time>
      </trkpt>
      <trkpt lat="41.109833" lon="-3.730300">
        <ele>2124.0</ele>
        <time>2018-07-22T13:56:57Z</time>
      </trkpt>
      <trkpt lat="41.109767" lon="-3.730200">
        <ele>2124.0</ele>
        <time>2018-07-22T13:56:58Z</time>
      </trkpt>
      <trkpt lat="41.109717" lon="-3.730117">
        <ele>2125.0</ele>
        <time>2018-07-22T13:56:59Z</time>
      </trkpt>
      <trkpt lat="41.109633" lon="-3.730017">
        <ele>2125.0</ele>
        <time>2018-07-22T13:57:00Z</time>
      </trkpt>
      <trkpt lat="41.109567" lon="-3.729917">
        <ele>2126.0</ele>
        <time>2018-07-22T13:57:01Z</time>
      </trkpt>
      <trkpt lat="41.109500" lon="-3.729833">
        <ele>2127.0</ele>
        <time>2018-07-22T13:57:02Z</time>
      </trkpt>
      <trkpt lat="41.109417" lon="-3.729750">
        <ele>2129.0</ele>
        <time>2018-07-22T13:57:03Z</time>
      </trkpt>
      <trkpt lat="41.109350" lon="-3.729667">
        <ele>2131.0</ele>
        <time>2018-07-22T13:57:04Z</time>
      </trkpt>
      <trkpt lat="41.109267" lon="-3.729617">
        <ele>2133.0</ele>
        <time>2018-07-22T13:57:05Z</time>
      </trkpt>
      <trkpt lat="41.109200" lon="-3.729550">
        <ele>2134.0</ele>
        <time>2018-07-22T13:57:06Z</time>
      </trkpt>
      <trkpt lat="41.109117" lon="-3.729500">
        <ele>2134.0</ele>
        <time>2018-07-22T13:57:07Z</time>
      </trkpt>
      <trkpt lat="41.109033" lon="-3.729433">
        <ele>2135.0</ele>
        <time>2018-07-22T13:57:08Z</time>
      </trkpt>
      <trkpt lat="41.108950" lon="-3.729350">
        <ele>2135.0</ele>
        <time>2018-07-22T13:57:09Z</time>
      </trkpt>
      <trkpt lat="41.108867" lon="-3.729283">
        <ele>2135.0</ele>
        <time>2018-07-22T13:57:10Z</time>
      </trkpt>
      <trkpt lat="41.108767" lon="-3.729200">
        <ele>2136.0</ele>
        <time>2018-07-22T13:57:11Z</time>
      </trkpt>
      <trkpt lat="41.108667" lon="-3.729133">
        <ele>2139.0</ele>
        <time>2018-07-22T13:57:12Z</time>
      </trkpt>
      <trkpt lat="41.108583" lon="-3.729067">
        <ele>2141.0</ele>
        <time>2018-07-22T13:57:13Z</time>
      </trkpt>
      <trkpt lat="41.108500" lon="-3.729017">
        <ele>2143.0</ele>
        <time>2018-07-22T13:57:14Z</time>
      </trkpt>
      <trkpt lat="41.108417" lon="-3.728967">
        <ele>2144.0</ele>
        <time>2018-07-22T13:57:15Z</time>
      </trkpt>
      <trkpt lat="41.108350" lon="-3.728900">
        <ele>2144.0</ele>
        <time>2018-07-22T13:57:16Z</time>
      </trkpt>
      <trkpt lat="41.108267" lon="-3.728833">
        <ele>2144.0</ele>
        <time>2018-07-22T13:57:17Z</time>
      </trkpt>
      <trkpt lat="41.108167" lon="-3.728750">
        <ele>2144.0</ele>
        <time>2018-07-22T13:57:18Z</time>
      </trkpt>
      <trkpt lat="41.108100" lon="-3.728633">
        <ele>2145.0</ele>
        <time>2018-07-22T13:57:19Z</time>
      </trkpt>
      <trkpt lat="41.108033" lon="-3.728517">
        <ele>2145.0</ele>
        <time>2018-07-22T13:57:20Z</time>
      </trkpt>
      <trkpt lat="41.108000" lon="-3.728367">
        <ele>2146.0</ele>
        <time>2018-07-22T13:57:21Z</time>
      </trkpt>
      <trkpt lat="41.107967" lon="-3.728217">
        <ele>2148.0</ele>
        <time>2018-07-22T13:57:22Z</time>
      </trkpt>
      <trkpt lat="41.107967" lon="-3.728067">
        <ele>2149.0</ele>
        <time>2018-07-22T13:57:23Z</time>
      </trkpt>
      <trkpt lat="41.107983" lon="-3.727950">
        <ele>2151.0</ele>
        <time>2018-07-22T13:57:24Z</time>
      </trkpt>
      <trkpt lat="41.108000" lon="-3.727833">
        <ele>2151.0</ele>
        <time>2018-07-22T13:57:25Z</time>
      </trkpt>
      <trkpt lat="41.108033" lon="-3.727700">
        <ele>2150.0</ele>
        <time>2018-07-22T13:57:26Z</time>
      </trkpt>
      <trkpt lat="41.108100" lon="-3.727583">
        <ele>2148.0</ele>
        <time>2018-07-22T13:57:27Z</time>
      </trkpt>
      <trkpt lat="41.108167" lon="-3.727483">
        <ele>2148.0</ele>
        <time>2018-07-22T13:57:28Z</time>
      </trkpt>
      <trkpt lat="41.108267" lon="-3.727400">
        <ele>2147.0</ele>
        <time>2018-07-22T13:57:29Z</time>
      </trkpt>
      <trkpt lat="41.108367" lon="-3.727367">
        <ele>2148.0</ele>
        <time>2018-07-22T13:57:30Z</time>
      </trkpt>
      <trkpt lat="41.108483" lon="-3.727350">
        <ele>2148.0</ele>
        <time>2018-07-22T13:57:31Z</time>
      </trkpt>
      <trkpt lat="41.108567" lon="-3.727367">
        <ele>2149.0</ele>
        <time>2018-07-22T13:57:32Z</time>
      </trkpt>
      <trkpt lat="41.108650" lon="-3.727417">
        <ele>2150.0</ele>
        <time>2018-07-22T13:57:33Z</time>
      </trkpt>
      <trkpt lat="41.108733" lon="-3.727500">
        <ele>2151.0</ele>
        <time>2018-07-22T13:57:34Z</time>
      </trkpt>
      <trkpt lat="41.108783" lon="-3.727583">
        <ele>2152.0</ele>
        <time>2018-07-22T13:57:35Z</time>
      </trkpt>
      <trkpt lat="41.108817" lon="-3.727683">
        <ele>2153.0</ele>
        <time>2018-07-22T13:57:36Z</time>
      </trkpt>
      <trkpt lat="41.108850" lon="-3.727783">
        <ele>2154.0</ele>
        <time>2018-07-22T13:57:37Z</time>
      </trkpt>
      <trkpt lat="41.108850" lon="-3.727883">
        <ele>2154.0</ele>
        <time>2018-07-22T13:57:38Z</time>
      </trkpt>
      <trkpt lat="41.108850" lon="-3.728000">
        <ele>2154.0</ele>
        <time>2018-07-22T13:57:39Z</time>
      </trkpt>
      <trkpt lat="41.108833" lon="-3.728100">
        <ele>2155.0</ele>
        <time>2018-07-22T13:57:40Z</time>
      </trkpt>
      <trkpt lat="41.108783" lon="-3.728217">
        <ele>2156.0</ele>
        <time>2018-07-22T13:57:41Z</time>
      </trkpt>
      <trkpt lat="41.108750" lon="-3.728300">
        <ele>2157.0</ele>
        <time>2018-07-22T13:57:42Z</time>
      </trkpt>
      <trkpt lat="41.108683" lon="-3.728367">
        <ele>2159.0</ele>
        <time>2018-07-22T13:57:43Z</time>
      </trkpt>
      <trkpt lat="41.108633" lon="-3.728433">
        <ele>2160.0</ele>
        <time>2018-07-22T13:57:44Z</time>
      </trkpt>
      <trkpt lat="41.108567" lon="-3.728483">
        <ele>2161.0</ele>
        <time>2018-07-22T13:57:45Z</time>
      </trkpt>
      <trkpt lat="41.108483" lon="-3.728533">
        <ele>2162.0</ele>
        <time>2018-07-22T13:57:46Z</time>
      </trkpt>
      <trkpt lat="41.108400" lon="-3.728583">
        <ele>2163.0</ele>
        <time>2018-07-22T13:57:47Z</time>
      </trkpt>
      <trkpt lat="41.108317" lon="-3.728617">
        <ele>2164.0</ele>
        <time>2018-07-22T13:57:48Z</time>
      </trkpt>
      <trkpt lat="41.108233" lon="-3.728650">
        <ele>2166.0</ele>
        <time>2018-07-22T13:57:49Z</time>
      </trkpt>
      <trkpt lat="41.108150" lon="-3.728667">
        <ele>2167.0</ele>
        <time>2018-07-22T13:57:50Z</time>
      </trkpt>
      <trkpt lat="41.108050" lon="-3.728667">
        <ele>2169.0</ele>
        <time>2018-07-22T13:57:51Z</time>
      </trkpt>
      <trkpt lat="41.107967" lon="-3.728667">
        <ele>2170.0</ele>
        <time>2018-07-22T13:57:52Z</time>
      </trkpt>
      <trkpt lat="41.107883" lon="-3.728667">
        <ele>2171.0</ele>
        <time>2018-07-22T13:57:53Z</time>
      </trkpt>
      <trkpt lat="41.107800" lon="-3.728650">
        <ele>2171.0</ele>
        <time>2018-07-22T13:57:54Z</time>
      </trkpt>
      <trkpt lat="41.107700" lon="-3.728633">
        <ele>2172.0</ele>
        <time>2018-07-22T13:57:55Z</time>
      </trkpt>
      <trkpt lat="41.107617" lon="-3.728600">
        <ele>2173.0</ele>
        <time>2018-07-22T13:57:56Z</time>
      </trkpt>
      <trkpt lat="41.107517" lon="-3.728533">
        <ele>2174.0</ele>
        <time>2018-07-22T13:57:57Z</time>
      </trkpt>
      <trkpt lat="41.107433" lon="-3.728467">
        <ele>2176.0</ele>
        <time>2018-07-22T13:57:58Z</time>
      </trkpt>
      <trkpt lat="41.107350" lon="-3.728400">
        <ele>2177.0</ele>
        <time>2018-07-22T13:57:59Z</time>
      </trkpt>
      <trkpt lat="41.107267" lon="-3.728300">
        <ele>2178.0</ele>
        <time>2018-07-22T13:58:00Z</time>
      </trkpt>
      <trkpt lat="41.107200" lon="-3.728200">
        <ele>2179.0</ele>
        <time>2018-07-22T13:58:01Z</time>
      </trkpt>
      <trkpt lat="41.107133" lon="-3.728083">
        <ele>2181.0</ele>
        <time>2018-07-22T13:58:02Z</time>
      </trkpt>
      <trkpt lat="41.107067" lon="-3.727983">
        <ele>2182.0</ele>
        <time>2018-07-22T13:58:03Z</time>
      </trkpt>
      <trkpt lat="41.107000" lon="-3.727867">
        <ele>2184.0</ele>
        <time>2018-07-22T13:58:04Z</time>
      </trkpt>
      <trkpt lat="41.106933" lon="-3.727750">
        <ele>2186.0</ele>
        <time>2018-07-22T13:58:05Z</time>
      </trkpt>
      <trkpt lat="41.106867" lon="-3.727633">
        <ele>2188.0</ele>
        <time>2018-07-22T13:58:06Z</time>
      </trkpt>
      <trkpt lat="41.106800" lon="-3.727517">
        <ele>2190.0</ele>
        <time>2018-07-22T13:58:07Z</time>
      </trkpt>
      <trkpt lat="41.106717" lon="-3.727400">
        <ele>2192.0</ele>
        <time>2018-07-22T13:58:08Z</time>
      </trkpt>
      <trkpt lat="41.106650" lon="-3.727300">
        <ele>2193.0</ele>
        <time>2018-07-22T13:58:09Z</time>
      </trkpt>
      <trkpt lat="41.106583" lon="-3.727217">
        <ele>2193.0</ele>
        <time>2018-07-22T13:58:10Z</time>
      </trkpt>
      <trkpt lat="41.106517" lon="-3.727133">
        <ele>2194.0</ele>
        <time>2018-07-22T13:58:11Z</time>
      </trkpt>
      <trkpt lat="41.106450" lon="-3.727017">
        <ele>2194.0</ele>
        <time>2018-07-22T13:58:12Z</time>
      </trkpt>
      <trkpt lat="41.106417" lon="-3.726900">
        <ele>2193.0</ele>
        <time>2018-07-22T13:58:13Z</time>
      </trkpt>
      <trkpt lat="41.106383" lon="-3.726750">
        <ele>2192.0</ele>
        <time>2018-07-22T13:58:14Z</time>
      </trkpt>
      <trkpt lat="41.106383" lon="-3.726583">
        <ele>2192.0</ele>
        <time>2018-07-22T13:58:15Z</time>
      </trkpt>
      <trkpt lat="41.106400" lon="-3.726417">
        <ele>2192.0</ele>
        <time>2018-07-22T13:58:16Z</time>
      </trkpt>
      <trkpt lat="41.106417" lon="-3.726250">
        <ele>2193.0</ele>
        <time>2018-07-22T13:58:17Z</time>
      </trkpt>
      <trkpt lat="41.106450" lon="-3.726100">
        <ele>2194.0</ele>
        <time>2018-07-22T13:58:18Z</time>
      </trkpt>
      <trkpt lat="41.106500" lon="-3.725933">
        <ele>2195.0</ele>
        <time>2018-07-22T13:58:19Z</time>
      </trkpt>
      <trkpt lat="41.106567" lon="-3.725800">
        <ele>2197.0</ele>
        <time>2018-07-22T13:58:20Z</time>
      </trkpt>
      <trkpt lat="41.106633" lon="-3.725667">
        <ele>2199.0</ele>
        <time>2018-07-22T13:58:21Z</time>
      </trkpt>
      <trkpt lat="41.106700" lon="-3.725533">
        <ele>2201.0</ele>
        <time>2018-07-22T13:58:22Z</time>
      </trkpt>
      <trkpt lat="41.106750" lon="-3.725417">
        <ele>2202.0</ele>
        <time>2018-07-22T13:58:23Z</time>
      </trkpt>
      <trkpt lat="41.106817" lon="-3.725300">
        <ele>2203.0</ele>
        <time>2018-07-22T13:58:24Z</time>
      </trkpt>
      <trkpt lat="41.106883" lon="-3.725183">
        <ele>2203.0</ele>
        <time>2018-07-22T13:58:25Z</time>
      </trkpt>
      <trkpt lat="41.106967" lon="-3.725100">
        <ele>2203.0</ele>
        <time>2018-07-22T13:58:26Z</time>
      </trkpt>
      <trkpt lat="41.107067" lon="-3.725033">
        <ele>2202.0</ele>
        <time>2018-07-22T13:58:27Z</time>
      </trkpt>
      <trkpt lat="41.107183" lon="-3.725000">
        <ele>2202.0</ele>
        <time>2018-07-22T13:58:28Z</time>
      </trkpt>
      <trkpt lat="41.107317" lon="-3.724967">
        <ele>2204.0</ele>
        <time>2018-07-22T13:58:29Z</time>
      </trkpt>
      <trkpt lat="41.107433" lon="-3.724917">
        <ele>2206.0</ele>
        <time>2018-07-22T13:58:30Z</time>
      </trkpt>
      <trkpt lat="41.107517" lon="-3.724850">
        <ele>2209.0</ele>
        <time>2018-07-22T13:58:31Z</time>
      </trkpt>
      <trkpt lat="41.107600" lon="-3.724783">
        <ele>2210.0</ele>
        <time>2018-07-22T13:58:32Z</time>
      </trkpt>
      <trkpt lat="41.107683" lon="-3.724733">
        <ele>2210.0</ele>
        <time>2018-07-22T13:58:33Z</time>
      </trkpt>
      <trkpt lat="41.107783" lon="-3.724700">
        <ele>2210.0</ele>
        <time>2018-07-22T13:58:34Z</time>
      </trkpt>
      <trkpt lat="41.107900" lon="-3.724683">
        <ele>2208.0</ele>
        <time>2018-07-22T13:58:35Z</time>
      </trkpt>
      <trkpt lat="41.108017" lon="-3.724733">
        <ele>2208.0</ele>
        <time>2018-07-22T13:58:36Z</time>
      </trkpt>
      <trkpt lat="41.108150" lon="-3.724767">
        <ele>2209.0</ele>
        <time>2018-07-22T13:58:37Z</time>
      </trkpt>
      <trkpt lat="41.108250" lon="-3.724800">
        <ele>2211.0</ele>
        <time>2018-07-22T13:58:38Z</time>
      </trkpt>
      <trkpt lat="41.108350" lon="-3.724817">
        <ele>2213.0</ele>
        <time>2018-07-22T13:58:39Z</time>
      </trkpt>
      <trkpt lat="41.108450" lon="-3.724833">
        <ele>2214.0</ele>
        <time>2018-07-22T13:58:40Z</time>
      </trkpt>
      <trkpt lat="41.108550" lon="-3.724850">
        <ele>2214.0</ele>
        <time>2018-07-22T13:58:41Z</time>
      </trkpt>
      <trkpt lat="41.108633" lon="-3.724900">
        <ele>2214.0</ele>
        <time>2018-07-22T13:58:42Z</time>
      </trkpt>
      <trkpt lat="41.108700" lon="-3.724983">
        <ele>2213.0</ele>
        <time>2018-07-22T13:58:43Z</time>
      </trkpt>
      <trkpt lat="41.108750" lon="-3.725100">
        <ele>2212.0</ele>
        <time>2018-07-22T13:58:44Z</time>
      </trkpt>
      <trkpt lat="41.108783" lon="-3.725217">
        <ele>2212.0</ele>
        <time>2018-07-22T13:58:45Z</time>
      </trkpt>
      <trkpt lat="41.108817" lon="-3.725317">
        <ele>2212.0</ele>
        <time>2018-07-22T13:58:46Z</time>
      </trkpt>
      <trkpt lat="41.108833" lon="-3.725400">
        <ele>2213.0</ele>
        <time>2018-07-22T13:58:47Z</time>
      </trkpt>
      <trkpt lat="41.108850" lon="-3.725483">
        <ele>2213.0</ele>
        <time>2018-07-22T13:58:48Z</time>
      </trkpt>
      <trkpt lat="41.108867" lon="-3.725567">
        <ele>2213.0</ele>
        <time>2018-07-22T13:58:49Z</time>
      </trkpt>
      <trkpt lat="41.108850" lon="-3.725633">
        <ele>2212.0</ele>
        <time>2018-07-22T13:58:50Z</time>
      </trkpt>
      <trkpt lat="41.108833" lon="-3.725717">
        <ele>2210.0</ele>
        <time>2018-07-22T13:58:51Z</time>
      </trkpt>
      <trkpt lat="41.108800" lon="-3.725800">
        <ele>2209.0</ele>
        <time>2018-07-22T13:58:52Z</time>
      </trkpt>
      <trkpt lat="41.108750" lon="-3.725883">
        <ele>2209.0</ele>
        <time>2018-07-22T13:58:53Z</time>
      </trkpt>
      <trkpt lat="41.108700" lon="-3.725950">
        <ele>2209.0</ele>
        <time>2018-07-22T13:58:54Z</time>
      </trkpt>
      <trkpt lat="41.108650" lon="-3.726017">
        <ele>2209.0</ele>
        <time>2018-07-22T13:58:55Z</time>
      </trkpt>
      <trkpt lat="41.108600" lon="-3.726050">
        <ele>2209.0</ele>
        <time>2018-07-22T13:58:56Z</time>
      </trkpt>
      <trkpt lat="41.108533" lon="-3.726100">
        <ele>2208.0</ele>
        <time>2018-07-22T13:58:57Z</time>
      </trkpt>
      <trkpt lat="41.108450" lon="-3.726117">
        <ele>2206.0</ele>
        <time>2018-07-22T13:58:58Z</time>
      </trkpt>
      <trkpt lat="41.108367" lon="-3.726133">
        <ele>2205.0</ele>
        <time>2018-07-22T13:58:59Z</time>
      </trkpt>
      <trkpt lat="41.108267" lon="-3.726133">
        <ele>2205.0</ele>
        <time>2018-07-22T13:59:00Z</time>
      </trkpt>
      <trkpt lat="41.108183" lon="-3.726133">
        <ele>2205.0</ele>
        <time>2018-07-22T13:59:01Z</time>
      </trkpt>
      <trkpt lat="41.108083" lon="-3.726117">
        <ele>2205.0</ele>
        <time>2018-07-22T13:59:02Z</time>
      </trkpt>
      <trkpt lat="41.108000" lon="-3.726117">
        <ele>2205.0</ele>
        <time>2018-07-22T13:59:03Z</time>
      </trkpt>
      <trkpt lat="41.107917" lon="-3.726100">
        <ele>2205.0</ele>
        <time>2018-07-22T13:59:04Z</time>
      </trkpt>
      <trkpt lat="41.107833" lon="-3.726083">
        <ele>2205.0</ele>
        <time>2018-07-22T13:59:05Z</time>
      </trkpt>
      <trkpt lat="41.107750" lon="-3.726033">
        <ele>2204.0</ele>
        <time>2018-07-22T13:59:06Z</time>
      </trkpt>
      <trkpt lat="41.107667" lon="-3.725950">
        <ele>2203.0</ele>
        <time>2018-07-22T13:59:07Z</time>
      </trkpt>
      <trkpt lat="41.107583" lon="-3.725850">
        <ele>2201.0</ele>
        <time>2018-07-22T13:59:08Z</time>
      </trkpt>
      <trkpt lat="41.107500" lon="-3.725717">
        <ele>2202.0</ele>
        <time>2018-07-22T13:59:09Z</time>
      </trkpt>
      <trkpt lat="41.107417" lon="-3.725617">
        <ele>2205.0</ele>
        <time>2018-07-22T13:59:10Z</time>
      </trkpt>
      <trkpt lat="41.107333" lon="-3.725517">
        <ele>2209.0</ele>
        <time>2018-07-22T13:59:11Z</time>
      </trkpt>
      <trkpt lat="41.107250" lon="-3.725450">
        <ele>2213.0</ele>
        <time>2018-07-22T13:59:12Z</time>
      </trkpt>
      <trkpt lat="41.107167" lon="-3.725383">
        <ele>2216.0</ele>
        <time>2018-07-22T13:59:13Z</time>
      </trkpt>
      <trkpt lat="41.107083" lon="-3.725350">
        <ele>2220.0</ele>
        <time>2018-07-22T13:59:14Z</time>
      </trkpt>
      <trkpt lat="41.106983" lon="-3.725317">
        <ele>2223.0</ele>
        <time>2018-07-22T13:59:15Z</time>
      </trkpt>
      <trkpt lat="41.106900" lon="-3.725300">
        <ele>2227.0</ele>
        <time>2018-07-22T13:59:16Z</time>
      </trkpt>
      <trkpt lat="41.106817" lon="-3.725283">
        <ele>2230.0</ele>
        <time>2018-07-22T13:59:17Z</time>
      </trkpt>
      <trkpt lat="41.106733" lon="-3.725233">
        <ele>2233.0</ele>
        <time>2018-07-22T13:59:18Z</time>
      </trkpt>
      <trkpt lat="41.106683" lon="-3.725150">
        <ele>2235.0</ele>
        <time>2018-07-22T13:59:19Z</time>
      </trkpt>
      <trkpt lat="41.106650" lon="-3.725017">
        <ele>2236.0</ele>
        <time>2018-07-22T13:59:20Z</time>
      </trkpt>
      <trkpt lat="41.106633" lon="-3.724850">
        <ele>2237.0</ele>
        <time>2018-07-22T13:59:21Z</time>
      </trkpt>
      <trkpt lat="41.106633" lon="-3.724683">
        <ele>2240.0</ele>
        <time>2018-07-22T13:59:22Z</time>
      </trkpt>
      <trkpt lat="41.106650" lon="-3.724550">
        <ele>2244.0</ele>
        <time>2018-07-22T13:59:23Z</time>
      </trkpt>
      <trkpt lat="41.106700" lon="-3.724417">
        <ele>2248.0</ele>
        <time>2018-07-22T13:59:24Z</time>
      </trkpt>
      <trkpt lat="41.106783" lon="-3.724333">
        <ele>2251.0</ele>
        <time>2018-07-22T13:59:25Z</time>
      </trkpt>
      <trkpt lat="41.106867" lon="-3.724267">
        <ele>2253.0</ele>
        <time>2018-07-22T13:59:26Z</time>
      </trkpt>
      <trkpt lat="41.106967" lon="-3.724217">
        <ele>2254.0</ele>
        <time>2018-07-22T13:59:27Z</time>
      </trkpt>
      <trkpt lat="41.107067" lon="-3.724200">
        <ele>2255.0</ele>
        <time>2018-07-22T13:59:28Z</time>
      </trkpt>
      <trkpt lat="41.107167" lon="-3.724200">
        <ele>2257.0</ele>
        <time>2018-07-22T13:59:29Z</time>
      </trkpt>
      <trkpt lat="41.107250" lon="-3.724250">
        <ele>2259.0</ele>
        <time>2018-07-22T13:59:30Z</time>
      </trkpt>
      <trkpt lat="41.107300" lon="-3.724300">
        <ele>2260.0</ele>
        <time>2018-07-22T13:59:31Z</time>
      </trkpt>
      <trkpt lat="41.107350" lon="-3.724383">
        <ele>2261.0</ele>
        <time>2018-07-22T13:59:32Z</time>
      </trkpt>
      <trkpt lat="41.107350" lon="-3.724483">
        <ele>2264.0</ele>
        <time>2018-07-22T13:59:33Z</time>
      </trkpt>
      <trkpt lat="41.107333" lon="-3.724583">
        <ele>2266.0</ele>
        <time>2018-07-22T13:59:34Z</time>
      </trkpt>
      <trkpt lat="41.107300" lon="-3.724667">
        <ele>2270.0</ele>
        <time>2018-07-22T13:59:35Z</time>
      </trkpt>
      <trkpt lat="41.107267" lon="-3.724733">
        <ele>2274.0</ele>
        <time>2018-07-22T13:59:36Z</time>
      </trkpt>
      <trkpt lat="41.107217" lon="-3.724800">
        <ele>2279.0</ele>
        <time>2018-07-22T13:59:37Z</time>
      </trkpt>
      <trkpt lat="41.107183" lon="-3.724867">
        <ele>2282.0</ele>
        <time>2018-07-22T13:59:38Z</time>
      </trkpt>
      <trkpt lat="41.107133" lon="-3.724917">
        <ele>2285.0</ele>
        <time>2018-07-22T13:59:39Z</time>
      </trkpt>
      <trkpt lat="41.107083" lon="-3.724983">
        <ele>2288.0</ele>
        <time>2018-07-22T13:59:40Z</time>
      </trkpt>
      <trkpt lat="41.107017" lon="-3.725033">
        <ele>2289.0</ele>
        <time>2018-07-22T13:59:41Z</time>
      </trkpt>
      <trkpt lat="41.106933" lon="-3.725083">
        <ele>2291.0</ele>
        <time>2018-07-22T13:59:42Z</time>
      </trkpt>
      <trkpt lat="41.106850" lon="-3.725100">
        <ele>2293.0</ele>
        <time>2018-07-22T13:59:43Z</time>
      </trkpt>
      <trkpt lat="41.106767" lon="-3.725083">
        <ele>2296.0</ele>
        <time>2018-07-22T13:59:44Z</time>
      </trkpt>
      <trkpt lat="41.106683" lon="-3.725033">
        <ele>2299.0</ele>
        <time>2018-07-22T13:59:45Z</time>
      </trkpt>
      <trkpt lat="41.106617" lon="-3.724967">
        <ele>2302.0</ele>
        <time>2018-07-22T13:59:46Z</time>
      </trkpt>
      <trkpt lat="41.106550" lon="-3.724883">
        <ele>2304.0</ele>
        <time>2018-07-22T13:59:47Z</time>
      </trkpt>
      <trkpt lat="41.106483" lon="-3.724783">
        <ele>2306.0</ele>
        <time>2018-07-22T13:59:48Z</time>
      </trkpt>
      <trkpt lat="41.106450" lon="-3.724650">
        <ele>2307.0</ele>
        <time>2018-07-22T13:59:49Z</time>
      </trkpt>
      <trkpt lat="41.106433" lon="-3.724500">
        <ele>2309.0</ele>
        <time>2018-07-22T13:59:50Z</time>
      </trkpt>
      <trkpt lat="41.106433" lon="-3.724350">
        <ele>2310.0</ele>
        <time>2018-07-22T13:59:51Z</time>
      </trkpt>
      <trkpt lat="41.106483" lon="-3.724200">
        <ele>2312.0</ele>
        <time>2018-07-22T13:59:52Z</time>
      </trkpt>
      <trkpt lat="41.106533" lon="-3.724067">
        <ele>2314.0</ele>
        <time>2018-07-22T13:59:53Z</time>
      </trkpt>
      <trkpt lat="41.106617" lon="-3.723967">
        <ele>2317.0</ele>
        <time>2018-07-22T13:59:54Z</time>
      </trkpt>
      <trkpt lat="41.106700" lon="-3.723917">
        <ele>2319.0</ele>
        <time>2018-07-22T13:59:55Z</time>
      </trkpt>
      <trkpt lat="41.106800" lon="-3.723883">
        <ele>2320.0</ele>
        <time>2018-07-22T13:59:56Z</time>
      </trkpt>
      <trkpt lat="41.106900" lon="-3.723867">
        <ele>2321.0</ele>
        <time>2018-07-22T13:59:57Z</time>
      </trkpt>
      <trkpt lat="41.107017" lon="-3.723867">
        <ele>2323.0</ele>
        <time>2018-07-22T13:59:58Z</time>
      </trkpt>
      <trkpt lat="41.107117" lon="-3.723900">
        <ele>2324.0</ele>
        <time>2018-07-22T13:59:59Z</time>
      </trkpt>
      <trkpt lat="41.107217" lon="-3.723967">
        <ele>2326.0</ele>
        <time>2018-07-22T14:00:00Z</time>
      </trkpt>
      <trkpt lat="41.107300" lon="-3.724067">
        <ele>2328.0</ele>
        <time>2018-07-22T14:00:01Z</time>
      </trkpt>
      <trkpt lat="41.107383" lon="-3.724183">
        <ele>2332.0</ele>
        <time>2018-07-22T14:00:02Z</time>
      </trkpt>
      <trkpt lat="41.107433" lon="-3.724267">
        <ele>2335.0</ele>
        <time>2018-07-22T14:00:03Z</time>
      </trkpt>
      <trkpt lat="41.107500" lon="-3.724367">
        <ele>2339.0</ele>
        <time>2018-07-22T14:00:04Z</time>
      </trkpt>
      <trkpt lat="41.107533" lon="-3.724450">
        <ele>2343.0</ele>
        <time>2018-07-22T14:00:05Z</time>
      </trkpt>
      <trkpt lat="41.107550" lon="-3.724517">
        <ele>2346.0</ele>
        <time>2018-07-22T14:00:06Z</time>
      </trkpt>
      <trkpt lat="41.107567" lon="-3.724600">
        <ele>2347.0</ele>
        <time>2018-07-22T14:00:07Z</time>
      </trkpt>
      <trkpt lat="41.107550" lon="-3.724683">
        <ele>2347.0</ele>
        <time>2018-07-22T14:00:08Z</time>
      </trkpt>
      <trkpt lat="41.107517" lon="-3.724750">
        <ele>2348.0</ele>
        <time>2018-07-22T14:00:09Z</time>
      </trkpt>
      <trkpt lat="41.107467" lon="-3.724800">
        <ele>2348.0</ele>
        <time>2018-07-22T14:00:10Z</time>
      </trkpt>
      <trkpt lat="41.107417" lon="-3.724850">
        <ele>2347.0</ele>
        <time>2018-07-22T14:00:11Z</time>
      </trkpt>
      <trkpt lat="41.107367" lon="-3.724883">
        <ele>2347.0</ele>
        <time>2018-07-22T14:00:12Z</time>
      </trkpt>
      <trkpt lat="41.107300" lon="-3.724883">
        <ele>2347.0</ele>
        <time>2018-07-22T14:00:13Z</time>
      </trkpt>
      <trkpt lat="41.107233" lon="-3.724850">
        <ele>2346.0</ele>
        <time>2018-07-22T14:00:14Z</time>
      </trkpt>
      <trkpt lat="41.107150" lon="-3.724800">
        <ele>2345.0</ele>
        <time>2018-07-22T14:00:15Z</time>
      </trkpt>
      <trkpt lat="41.107083" lon="-3.724750">
        <ele>2345.0</ele>
        <time>2018-07-22T14:00:16Z</time>
      </trkpt>
      <trkpt lat="41.107000" lon="-3.724700">
        <ele>2344.0</ele>
        <time>2018-07-22T14:00:17Z</time>
      </trkpt>
      <trkpt lat="41.106933" lon="-3.724600">
        <ele>2344.0</ele>
        <time>2018-07-22T14:00:18Z</time>
      </trkpt>
      <trkpt lat="41.106867" lon="-3.724483">
        <ele>2345.0</ele>
        <time>2018-07-22T14:00:19Z</time>
      </trkpt>
      <trkpt lat="41.106833" lon="-3.724317">
        <ele>2347.0</ele>
        <time>2018-07-22T14:00:20Z</time>
      </trkpt>
      <trkpt lat="41.106800" lon="-3.724167">
        <ele>2351.0</ele>
        <time>2018-07-22T14:00:21Z</time>
      </trkpt>
      <trkpt lat="41.106783" lon="-3.724017">
        <ele>2355.0</ele>
        <time>2018-07-22T14:00:22Z</time>
      </trkpt>
      <trkpt lat="41.106767" lon="-3.723883">
        <ele>2359.0</ele>
        <time>2018-07-22T14:00:23Z</time>
      </trkpt>
      <trkpt lat="41.106733" lon="-3.723767">
        <ele>2362.0</ele>
        <time>2018-07-22T14:00:24Z</time>
      </trkpt>
      <trkpt lat="41.106700" lon="-3.723650">
        <ele>2366.0</ele>
        <time>2018-07-22T14:00:25Z</time>
      </trkpt>
      <trkpt lat="41.106683" lon="-3.723550">
        <ele>2368.0</ele>
        <time>2018-07-22T14:00:26Z</time>
      </trkpt>
      <trkpt lat="41.106650" lon="-3.723433">
        <ele>2371.0</ele>
        <time>2018-07-22T14:00:27Z</time>
      </trkpt>
      <trkpt lat="41.106600" lon="-3.723317">
        <ele>2372.0</ele>
        <time>2018-07-22T14:00:28Z</time>
      </trkpt>
      <trkpt lat="41.106583" lon="-3.723200">
        <ele>2374.0</ele>
        <time>2018-07-22T14:00:29Z</time>
      </trkpt>
      <trkpt lat="41.106583" lon="-3.723050">
        <ele>2376.0</ele>
        <time>2018-07-22T14:00:30Z</time>
      </trkpt>
      <trkpt lat="41.106600" lon="-3.722900">
        <ele>2378.0</ele>
        <time>2018-07-22T14:00:31Z</time>
      </trkpt>
      <trkpt lat="41.106617" lon="-3.722750">
        <ele>2381.0</ele>
        <time>2018-07-22T14:00:32Z</time>
      </trkpt>
      <trkpt lat="41.106633" lon="-3.722633">
        <ele>2384.0</ele>
        <time>2018-07-22T14:00:33Z</time>
      </trkpt>
      <trkpt lat="41.106650" lon="-3.722533">
        <ele>2385.0</ele>
        <time>2018-07-22T14:00:34Z</time>
      </trkpt>
      <trkpt lat="41.106683" lon="-3.722400">
        <ele>2385.0</ele>
        <time>2018-07-22T14:00:35Z</time>
      </trkpt>
      <trkpt lat="41.106733" lon="-3.722283">
        <ele>2383.0</ele>
        <time>2018-07-22T14:00:36Z</time>
      </trkpt>
      <trkpt lat="41.106817" lon="-3.722150">
        <ele>2383.0</ele>
        <time>2018-07-22T14:00:37Z</time>
      </trkpt>
      <trkpt lat="41.106900" lon="-3.722033">
        <ele>2384.0</ele>
        <time>2018-07-22T14:00:38Z</time>
      </trkpt>
      <trkpt lat="41.107000" lon="-3.721933">
        <ele>2387.0</ele>
        <time>2018-07-22T14:00:39Z</time>
      </trkpt>
      <trkpt lat="41.107083" lon="-3.721850">
        <ele>2390.0</ele>
        <time>2018-07-22T14:00:40Z</time>
      </trkpt>
      <trkpt lat="41.107150" lon="-3.721750">
        <ele>2393.0</ele>
        <time>2018-07-22T14:00:41Z</time>
      </trkpt>
      <trkpt lat="41.107217" lon="-3.721650">
        <ele>2394.0</ele>
        <time>2018-07-22T14:00:42Z</time>
      </trkpt>
      <trkpt lat="41.107283" lon="-3.721550">
        <ele>2395.0</ele>
        <time>2018-07-22T14:00:43Z</time>
      </trkpt>
      <trkpt lat="41.107367" lon="-3.721467">
        <ele>2396.0</ele>
        <time>2018-07-22T14:00:44Z</time>
      </trkpt>
      <trkpt lat="41.107450" lon="-3.721417">
        <ele>2397.0</ele>
        <time>2018-07-22T14:00:45Z</time>
      </trkpt>
      <trkpt lat="41.107550" lon="-3.721367">
        <ele>2397.0</ele>
        <time>2018-07-22T14:00:46Z</time>
      </trkpt>
      <trkpt lat="41.107667" lon="-3.721350">
        <ele>2398.0</ele>
        <time>2018-07-22T14:00:47Z</time>
      </trkpt>
      <trkpt lat="41.107783" lon="-3.721317">
        <ele>2400.0</ele>
        <time>2018-07-22T14:00:48Z</time>
      </trkpt>
      <trkpt lat="41.107883" lon="-3.721300">
        <ele>2401.0</ele>
        <time>2018-07-22T14:00:49Z</time>
      </trkpt>
      <trkpt lat="41.107983" lon="-3.721300">
        <ele>2403.0</ele>
        <time>2018-07-22T14:00:50Z</time>
      </trkpt>
      <trkpt lat="41.108100" lon="-3.721300">
        <ele>2403.0</ele>
        <time>2018-07-22T14:00:51Z</time>
      </trkpt>
      <trkpt lat="41.108217" lon="-3.721317">
        <ele>2405.0</ele>
        <time>2018-07-22T14:00:52Z</time>
      </trkpt>
      <trkpt lat="41.108333" lon="-3.721333">
        <ele>2406.0</ele>
        <time>2018-07-22T14:00:53Z</time>
      </trkpt>
      <trkpt lat="41.108450" lon="-3.721367">
        <ele>2408.0</ele>
        <time>2018-07-22T14:00:54Z</time>
      </trkpt>
      <trkpt lat="41.108550" lon="-3.721400">
        <ele>2410.0</ele>
        <time>2018-07-22T14:00:55Z</time>
      </trkpt>
      <trkpt lat="41.108650" lon="-3.721450">
        <ele>2413.0</ele>
        <time>2018-07-22T14:00:56Z</time>
      </trkpt>
      <trkpt lat="41.108750" lon="-3.721500">
        <ele>2415.0</ele>
        <time>2018-07-22T14:00:57Z</time>
      </trkpt>
      <trkpt lat="41.108833" lon="-3.721583">
        <ele>2417.0</ele>
        <time>2018-07-22T14:00:58Z</time>
      </trkpt>
      <trkpt lat="41.108900" lon="-3.721667">
        <ele>2420.0</ele>
        <time>2018-07-22T14:00:59Z</time>
      </trkpt>
      <trkpt lat="41.108950" lon="-3.721767">
        <ele>2422.0</ele>
        <time>2018-07-22T14:01:00Z</time>
      </trkpt>
      <trkpt lat="41.108967" lon="-3.721883">
        <ele>2424.0</ele>
        <time>2018-07-22T14:01:01Z</time>
      </trkpt>
      <trkpt lat="41.108967" lon="-3.721983">
        <ele>2427.0</ele>
        <time>2018-07-22T14:01:02Z</time>
      </trkpt>
      <trkpt lat="41.108967" lon="-3.722083">
        <ele>2430.0</ele>
        <time>2018-07-22T14:01:03Z</time>
      </trkpt>
      <trkpt lat="41.108933" lon="-3.722150">
        <ele>2433.0</ele>
        <time>2018-07-22T14:01:04Z</time>
      </trkpt>
      <trkpt lat="41.108900" lon="-3.722200">
        <ele>2434.0</ele>
        <time>2018-07-22T14:01:05Z</time>
      </trkpt>
      <trkpt lat="41.108833" lon="-3.722200">
        <ele>2436.0</ele>
        <time>2018-07-22T14:01:06Z</time>
      </trkpt>
      <trkpt lat="41.108767" lon="-3.722200">
        <ele>2437.0</ele>
        <time>2018-07-22T14:01:07Z</time>
      </trkpt>
      <trkpt lat="41.108683" lon="-3.722150">
        <ele>2439.0</ele>
        <time>2018-07-22T14:01:08Z</time>
      </trkpt>
      <trkpt lat="41.108617" lon="-3.722083">
        <ele>2441.0</ele>
        <time>2018-07-22T14:01:09Z</time>
      </trkpt>
      <trkpt lat="41.108550" lon="-3.722017">
        <ele>2444.0</ele>
        <time>2018-07-22T14:01:10Z</time>
      </trkpt>
      <trkpt lat="41.108517" lon="-3.721917">
        <ele>2447.0</ele>
        <time>2018-07-22T14:01:11Z</time>
      </trkpt>
      <trkpt lat="41.108483" lon="-3.721817">
        <ele>2449.0</ele>
        <time>2018-07-22T14:01:12Z</time>
      </trkpt>
      <trkpt lat="41.108483" lon="-3.721683">
        <ele>2451.0</ele>
        <time>2018-07-22T14:01:13Z</time>
      </trkpt>
      <trkpt lat="41.108500" lon="-3.721550">
        <ele>2452.0</ele>
        <time>2018-07-22T14:01:14Z</time>
      </trkpt>
      <trkpt lat="41.108533" lon="-3.721417">
        <ele>2454.0</ele>
        <time>2018-07-22T14:01:15Z</time>
      </trkpt>
      <trkpt lat="41.108600" lon="-3.721283">
        <ele>2456.0</ele>
        <time>2018-07-22T14:01:16Z</time>
      </trkpt>
      <trkpt lat="41.108700" lon="-3.721183">
        <ele>2458.0</ele>
        <time>2018-07-22T14:01:17Z</time>
      </trkpt>
      <trkpt lat="41.108800" lon="-3.721100">
        <ele>2460.0</ele>
        <time>2018-07-22T14:01:18Z</time>
      </trkpt>
      <trkpt lat="41.108917" lon="-3.721050">
        <ele>2462.0</ele>
        <time>2018-07-22T14:01:19Z</time>
      </trkpt>
      <trkpt lat="41.109033" lon="-3.721033">
        <ele>2464.0</ele>
        <time>2018-07-22T14:01:20Z</time>
      </trkpt>
      <trkpt lat="41.109167" lon="-3.721033">
        <ele>2466.0</ele>
        <time>2018-07-22T14:01:21Z</time>
      </trkpt>
      <trkpt lat="41.109283" lon="-3.721067">
        <ele>2468.0</ele>
        <time>2018-07-22T14:01:22Z</time>
      </trkpt>
      <trkpt lat="41.109383" lon="-3.721117">
        <ele>2470.0</ele>
        <time>2018-07-22T14:01:23Z</time>
      </trkpt>
      <trkpt lat="41.109467" lon="-3.721183">
        <ele>2472.0</ele>
        <time>2018-07-22T14:01:24Z</time>
      </trkpt>
      <trkpt lat="41.109533" lon="-3.721283">
        <ele>2473.0</ele>
        <time>2018-07-22T14:01:25Z</time>
      </trkpt>
      <trkpt lat="41.109567" lon="-3.721367">
        <ele>2475.0</ele>
        <time>2018-07-22T14:01:26Z</time>
      </trkpt>
      <trkpt lat="41.109583" lon="-3.721467">
        <ele>2476.0</ele>
        <time>2018-07-22T14:01:27Z</time>
      </trkpt>
      <trkpt lat="41.109583" lon="-3.721550">
        <ele>2478.0</ele>
        <time>2018-07-22T14:01:28Z</time>
      </trkpt>
      <trkpt lat="41.109550" lon="-3.721617">
        <ele>2479.0</ele>
        <time>2018-07-22T14:01:29Z</time>
      </trkpt>
      <trkpt lat="41.109517" lon="-3.721650">
        <ele>2481.0</ele>
        <time>2018-07-22T14:01:30Z</time>
      </trkpt>
      <trkpt lat="41.109450" lon="-3.721683">
        <ele>2482.0</ele>
        <time>2018-07-22T14:01:31Z</time>
      </trkpt>
      <trkpt lat="41.109400" lon="-3.721683">
        <ele>2483.0</ele>
        <time>2018-07-22T14:01:32Z</time>
      </trkpt>
      <trkpt lat="41.109333" lon="-3.721667">
        <ele>2485.0</ele>
        <time>2018-07-22T14:01:33Z</time>
      </trkpt>
      <trkpt lat="41.109267" lon="-3.721617">
        <ele>2487.0</ele>
        <time>2018-07-22T14:01:34Z</time>
      </trkpt>
      <trkpt lat="41.109217" lon="-3.721550">
        <ele>2489.0</ele>
        <time>2018-07-22T14:01:35Z</time>
      </trkpt>
      <trkpt lat="41.109167" lon="-3.721467">
        <ele>2491.0</ele>
        <time>2018-07-22T14:01:36Z</time>
      </trkpt>
      <trkpt lat="41.109133" lon="-3.721350">
        <ele>2493.0</ele>
        <time>2018-07-22T14:01:37Z</time>
      </trkpt>
      <trkpt lat="41.109133" lon="-3.721200">
        <ele>2494.0</ele>
        <time>2018-07-22T14:01:38Z</time>
      </trkpt>
      <trkpt lat="41.109167" lon="-3.721050">
        <ele>2495.0</ele>
        <time>2018-07-22T14:01:39Z</time>
      </trkpt>
      <trkpt lat="41.109233" lon="-3.720900">
        <ele>2496.0</ele>
        <time>2018-07-22T14:01:40Z</time>
      </trkpt>
      <trkpt lat="41.109317" lon="-3.720767">
        <ele>2498.0</ele>
        <time>2018-07-22T14:01:41Z</time>
      </trkpt>
      <trkpt lat="41.109417" lon="-3.720667">
        <ele>2502.0</ele>
        <time>2018-07-22T14:01:42Z</time>
      </trkpt>
      <trkpt lat="41.109517" lon="-3.720600">
        <ele>2505.0</ele>
        <time>2018-07-22T14:01:43Z</time>
      </trkpt>
      <trkpt lat="41.109617" lon="-3.720550">
        <ele>2508.0</ele>
        <time>2018-07-22T14:01:44Z</time>
      </trkpt>
      <trkpt lat="41.109717" lon="-3.720483">
        <ele>2509.0</ele>
        <time>2018-07-22T14:01:45Z</time>
      </trkpt>
      <trkpt lat="41.109833" lon="-3.720417">
        <ele>2509.0</ele>
        <time>2018-07-22T14:01:46Z</time>
      </trkpt>
      <trkpt lat="41.109950" lon="-3.720333">
        <ele>2509.0</ele>
        <time>2018-07-22T14:01:47Z</time>
      </trkpt>
      <trkpt lat="41.110083" lon="-3.720250">
        <ele>2511.0</ele>
        <time>2018-07-22T14:01:48Z</time>
      </trkpt>
      <trkpt lat="41.110200" lon="-3.720167">
        <ele>2513.0</ele>
        <time>2018-07-22T14:01:49Z</time>
      </trkpt>
      <trkpt lat="41.110300" lon="-3.720067">
        <ele>2516.0</ele>
        <time>2018-07-22T14:01:50Z</time>
      </trkpt>
      <trkpt lat="41.110400" lon="-3.719967">
        <ele>2517.0</ele>
        <time>2018-07-22T14:01:51Z</time>
      </trkpt>
      <trkpt lat="41.110500" lon="-3.719867">
        <ele>2518.0</ele>
        <time>2018-07-22T14:01:52Z</time>
      </trkpt>
      <trkpt lat="41.110600" lon="-3.719750">
        <ele>2519.0</ele>
        <time>2018-07-22T14:01:53Z</time>
      </trkpt>
      <trkpt lat="41.110683" lon="-3.719667">
        <ele>2518.0</ele>
        <time>2018-07-22T14:01:54Z</time>
      </trkpt>
      <trkpt lat="41.110767" lon="-3.719567">
        <ele>2515.0</ele>
        <time>2018-07-22T14:01:55Z</time>
      </trkpt>
      <trkpt lat="41.110867" lon="-3.719467">
        <ele>2511.0</ele>
        <time>2018-07-22T14:01:56Z</time>
      </trkpt>
      <trkpt lat="41.110967" lon="-3.719333">
        <ele>2506.0</ele>
        <time>2018-07-22T14:01:57Z</time>
      </trkpt>
      <trkpt lat="41.111083" lon="-3.719217">
        <ele>2503.0</ele>
        <time>2018-07-22T14:01:58Z</time>
      </trkpt>
      <trkpt lat="41.111167" lon="-3.719100">
        <ele>2501.0</ele>
        <time>2018-07-22T14:01:59Z</time>
      </trkpt>
      <trkpt lat="41.111250" lon="-3.719000">
        <ele>2500.0</ele>
        <time>2018-07-22T14:02:00Z</time>
      </trkpt>
      <trkpt lat="41.111333" lon="-3.718917">
        <ele>2498.0</ele>
        <time>2018-07-22T14:02:01Z</time>
      </trkpt>
      <trkpt lat="41.111433" lon="-3.718833">
        <ele>2495.0</ele>
        <time>2018-07-22T14:02:02Z</time>
      </trkpt>
      <trkpt lat="41.111533" lon="-3.718750">
        <ele>2491.0</ele>
        <time>2018-07-22T14:02:03Z</time>
      </trkpt>
      <trkpt lat="41.111650" lon="-3.718650">
        <ele>2486.0</ele>
        <time>2018-07-22T14:02:04Z</time>
      </trkpt>
      <trkpt lat="41.111783" lon="-3.718550">
        <ele>2482.0</ele>
        <time>2018-07-22T14:02:05Z</time>
      </trkpt>
      <trkpt lat="41.111900" lon="-3.718433">
        <ele>2478.0</ele>
        <time>2018-07-22T14:02:06Z</time>
      </trkpt>
      <trkpt lat="41.112017" lon="-3.718317">
        <ele>2476.0</ele>
        <time>2018-07-22T14:02:07Z</time>
      </trkpt>
      <trkpt lat="41.112117" lon="-3.718200">
        <ele>2472.0</ele>
        <time>2018-07-22T14:02:08Z</time>
      </trkpt>
      <trkpt lat="41.112233" lon="-3.718083">
        <ele>2468.0</ele>
        <time>2018-07-22T14:02:09Z</time>
      </trkpt>
      <trkpt lat="41.112350" lon="-3.717950">
        <ele>2465.0</ele>
        <time>2018-07-22T14:02:10Z</time>
      </trkpt>
      <trkpt lat="41.112467" lon="-3.717833">
        <ele>2461.0</ele>
        <time>2018-07-22T14:02:11Z</time>
      </trkpt>
      <trkpt lat="41.112567" lon="-3.717683">
        <ele>2458.0</ele>
        <time>2018-07-22T14:02:12Z</time>
      </trkpt>
      <trkpt lat="41.112667" lon="-3.717533">
        <ele>2455.0</ele>
        <time>2018-07-22T14:02:13Z</time>
      </trkpt>
      <trkpt lat="41.112750" lon="-3.717400">
        <ele>2454.0</ele>
        <time>2018-07-22T14:02:14Z</time>
      </trkpt>
      <trkpt lat="41.112850" lon="-3.717267">
        <ele>2451.0</ele>
        <time>2018-07-22T14:02:15Z</time>
      </trkpt>
      <trkpt lat="41.112950" lon="-3.717150">
        <ele>2449.0</ele>
        <time>2018-07-22T14:02:16Z</time>
      </trkpt>
      <trkpt lat="41.113033" lon="-3.717017">
        <ele>2446.0</ele>
        <time>2018-07-22T14:02:17Z</time>
      </trkpt>
      <trkpt lat="41.113133" lon="-3.716883">
        <ele>2443.0</ele>
        <time>2018-07-22T14:02:18Z</time>
      </trkpt>
      <trkpt lat="41.113217" lon="-3.716733">
        <ele>2441.0</ele>
        <time>2018-07-22T14:02:19Z</time>
      </trkpt>
      <trkpt lat="41.113300" lon="-3.716583">
        <ele>2439.0</ele>
        <time>2018-07-22T14:02:20Z</time>
      </trkpt>
      <trkpt lat="41.113367" lon="-3.716450">
        <ele>2438.0</ele>
        <time>2018-07-22T14:02:21Z</time>
      </trkpt>
      <trkpt lat="41.113450" lon="-3.716317">
        <ele>2436.0</ele>
        <time>2018-07-22T14:02:22Z</time>
      </trkpt>
      <trkpt lat="41.113533" lon="-3.716200">
        <ele>2433.0</ele>
        <time>2018-07-22T14:02:23Z</time>
      </trkpt>
      <trkpt lat="41.113617" lon="-3.716067">
        <ele>2429.0</ele>
        <time>2018-07-22T14:02:24Z</time>
      </trkpt>
      <trkpt lat="41.113700" lon="-3.715950">
        <ele>2424.0</ele>
        <time>2018-07-22T14:02:25Z</time>
      </trkpt>
      <trkpt lat="41.113783" lon="-3.715817">
        <ele>2419.0</ele>
        <time>2018-07-22T14:02:26Z</time>
      </trkpt>
      <trkpt lat="41.113883" lon="-3.715683">
        <ele>2415.0</ele>
        <time>2018-07-22T14:02:27Z</time>
      </trkpt>
      <trkpt lat="41.113983" lon="-3.715550">
        <ele>2413.0</ele>
        <time>2018-07-22T14:02:28Z</time>
      </trkpt>
      <trkpt lat="41.114067" lon="-3.715400">
        <ele>2411.0</ele>
        <time>2018-07-22T14:02:29Z</time>
      </trkpt>
      <trkpt lat="41.114150" lon="-3.715283">
        <ele>2410.0</ele>
        <time>2018-07-22T14:02:30Z</time>
      </trkpt>
      <trkpt lat="41.114250" lon="-3.715167">
        <ele>2408.0</ele>
        <time>2018-07-22T14:02:31Z</time>
      </trkpt>
      <trkpt lat="41.114333" lon="-3.715033">
        <ele>2405.0</ele>
        <time>2018-07-22T14:02:32Z</time>
      </trkpt>
      <trkpt lat="41.114417" lon="-3.714917">
        <ele>2402.0</ele>
        <time>2018-07-22T14:02:33Z</time>
      </trkpt>
      <trkpt lat="41.114483" lon="-3.714783">
        <ele>2400.0</ele>
        <time>2018-07-22T14:02:34Z</time>
      </trkpt>
      <trkpt lat="41.114567" lon="-3.714650">
        <ele>2398.0</ele>
        <time>2018-07-22T14:02:35Z</time>
      </trkpt>
      <trkpt lat="41.114650" lon="-3.714533">
        <ele>2397.0</ele>
        <time>2018-07-22T14:02:36Z</time>
      </trkpt>
      <trkpt lat="41.114733" lon="-3.714417">
        <ele>2395.0</ele>
        <time>2018-07-22T14:02:37Z</time>
      </trkpt>
      <trkpt lat="41.114833" lon="-3.714317">
        <ele>2393.0</ele>
        <time>2018-07-22T14:02:38Z</time>
      </trkpt>
      <trkpt lat="41.114917" lon="-3.714200">
        <ele>2390.0</ele>
        <time>2018-07-22T14:02:39Z</time>
      </trkpt>
      <trkpt lat="41.115017" lon="-3.714100">
        <ele>2388.0</ele>
        <time>2018-07-22T14:02:40Z</time>
      </trkpt>
      <trkpt lat="41.115117" lon="-3.713967">
        <ele>2385.0</ele>
        <time>2018-07-22T14:02:41Z</time>
      </trkpt>
      <trkpt lat="41.115217" lon="-3.713850">
        <ele>2383.0</ele>
        <time>2018-07-22T14:02:42Z</time>
      </trkpt>
      <trkpt lat="41.115300" lon="-3.713717">
        <ele>2381.0</ele>
        <time>2018-07-22T14:02:43Z</time>
      </trkpt>
      <trkpt lat="41.115383" lon="-3.713583">
        <ele>2379.0</ele>
        <time>2018-07-22T14:02:44Z</time>
      </trkpt>
      <trkpt lat="41.115483" lon="-3.713433">
        <ele>2377.0</ele>
        <time>2018-07-22T14:02:45Z</time>
      </trkpt>
      <trkpt lat="41.115567" lon="-3.713300">
        <ele>2375.0</ele>
        <time>2018-07-22T14:02:46Z</time>
      </trkpt>
      <trkpt lat="41.115650" lon="-3.713183">
        <ele>2373.0</ele>
        <time>2018-07-22T14:02:47Z</time>
      </trkpt>
      <trkpt lat="41.115733" lon="-3.713067">
        <ele>2371.0</ele>
        <time>2018-07-22T14:02:48Z</time>
      </trkpt>
      <trkpt lat="41.115817" lon="-3.712933">
        <ele>2369.0</ele>
        <time>2018-07-22T14:02:49Z</time>
      </trkpt>
      <trkpt lat="41.115900" lon="-3.712817">
        <ele>2367.0</ele>
        <time>2018-07-22T14:02:50Z</time>
      </trkpt>
      <trkpt lat="41.115983" lon="-3.712683">
        <ele>2365.0</ele>
        <time>2018-07-22T14:02:51Z</time>
      </trkpt>
      <trkpt lat="41.116067" lon="-3.712567">
        <ele>2363.0</ele>
        <time>2018-07-22T14:02:52Z</time>
      </trkpt>
      <trkpt lat="41.116150" lon="-3.712450">
        <ele>2361.0</ele>
        <time>2018-07-22T14:02:53Z</time>
      </trkpt>
      <trkpt lat="41.116233" lon="-3.712333">
        <ele>2358.0</ele>
        <time>2018-07-22T14:02:54Z</time>
      </trkpt>
      <trkpt lat="41.116317" lon="-3.712217">
        <ele>2356.0</ele>
        <time>2018-07-22T14:02:55Z</time>
      </trkpt>
      <trkpt lat="41.116417" lon="-3.712100">
        <ele>2353.0</ele>
        <time>2018-07-22T14:02:56Z</time>
      </trkpt>
      <trkpt lat="41.116500" lon="-3.711983">
        <ele>2350.0</ele>
        <time>2018-07-22T14:02:57Z</time>
      </trkpt>
      <trkpt lat="41.116583" lon="-3.711867">
        <ele>2347.0</ele>
        <time>2018-07-22T14:02:58Z</time>
      </trkpt>
      <trkpt lat="41.116667" lon="-3.711733">
        <ele>2343.0</ele>
        <time>2018-07-22T14:02:59Z</time>
      </trkpt>
      <trkpt lat="41.116750" lon="-3.711617">
        <ele>2341.0</ele>
        <time>2018-07-22T14:03:00Z</time>
      </trkpt>
      <trkpt lat="41.116833" lon="-3.711517">
        <ele>2339.0</ele>
        <time>2018-07-22T14:03:01Z</time>
      </trkpt>
      <trkpt lat="41.116900" lon="-3.711400">
        <ele>2337.0</ele>
        <time>2018-07-22T14:03:02Z</time>
      </trkpt>
      <trkpt lat="41.116967" lon="-3.711283">
        <ele>2334.0</ele>
        <time>2018-07-22T14:03:03Z</time>
      </trkpt>
      <trkpt lat="41.117017" lon="-3.711183">
        <ele>2331.0</ele>
        <time>2018-07-22T14:03:04Z</time>
      </trkpt>
      <trkpt lat="41.117100" lon="-3.711067">
        <ele>2327.0</ele>
        <time>2018-07-22T14:03:05Z</time>
      </trkpt>
      <trkpt lat="41.117167" lon="-3.710950">
        <ele>2323.0</ele>
        <time>2018-07-22T14:03:06Z</time>
      </trkpt>
      <trkpt lat="41.117250" lon="-3.710817">
        <ele>2320.0</ele>
        <time>2018-07-22T14:03:07Z</time>
      </trkpt>
      <trkpt lat="41.117333" lon="-3.710700">
        <ele>2318.0</ele>
        <time>2018-07-22T14:03:08Z</time>
      </trkpt>
      <trkpt lat="41.117417" lon="-3.710567">
        <ele>2318.0</ele>
        <time>2018-07-22T14:03:09Z</time>
      </trkpt>
      <trkpt lat="41.117483" lon="-3.710467">
        <ele>2318.0</ele>
        <time>2018-07-22T14:03:10Z</time>
      </trkpt>
      <trkpt lat="41.117533" lon="-3.710383">
        <ele>2318.0</ele>
        <time>2018-07-22T14:03:11Z</time>
      </trkpt>
      <trkpt lat="41.117583" lon="-3.710300">
        <ele>2316.0</ele>
        <time>2018-07-22T14:03:12Z</time>
      </trkpt>
      <trkpt lat="41.117650" lon="-3.710200">
        <ele>2312.0</ele>
        <time>2018-07-22T14:03:13Z</time>
      </trkpt>
      <trkpt lat="41.117700" lon="-3.710100">
        <ele>2308.0</ele>
        <time>2018-07-22T14:03:14Z</time>
      </trkpt>
      <trkpt lat="41.117767" lon="-3.709983">
        <ele>2303.0</ele>
        <time>2018-07-22T14:03:15Z</time>
      </trkpt>
      <trkpt lat="41.117833" lon="-3.709867">
        <ele>2299.0</ele>
        <time>2018-07-22T14:03:16Z</time>
      </trkpt>
      <trkpt lat="41.117917" lon="-3.709783">
        <ele>2296.0</ele>
        <time>2018-07-22T14:03:17Z</time>
      </trkpt>
      <trkpt lat="41.118000" lon="-3.709700">
        <ele>2292.0</ele>
        <time>2018-07-22T14:03:18Z</time>
      </trkpt>
      <trkpt lat="41.118100" lon="-3.709667">
        <ele>2289.0</ele>
        <time>2018-07-22T14:03:19Z</time>
      </trkpt>
      <trkpt lat="41.118183" lon="-3.709617">
        <ele>2286.0</ele>
        <time>2018-07-22T14:03:20Z</time>
      </trkpt>
      <trkpt lat="41.118267" lon="-3.709550">
        <ele>2283.0</ele>
        <time>2018-07-22T14:03:21Z</time>
      </trkpt>
      <trkpt lat="41.118333" lon="-3.709483">
        <ele>2280.0</ele>
        <time>2018-07-22T14:03:22Z</time>
      </trkpt>
      <trkpt lat="41.118400" lon="-3.709417">
        <ele>2277.0</ele>
        <time>2018-07-22T14:03:23Z</time>
      </trkpt>
      <trkpt lat="41.118483" lon="-3.709367">
        <ele>2273.0</ele>
        <time>2018-07-22T14:03:24Z</time>
      </trkpt>
      <trkpt lat="41.118583" lon="-3.709333">
        <ele>2269.0</ele>
        <time>2018-07-22T14:03:25Z</time>
      </trkpt>
      <trkpt lat="41.118667" lon="-3.709283">
        <ele>2266.0</ele>
        <time>2018-07-22T14:03:26Z</time>
      </trkpt>
      <trkpt lat="41.118750" lon="-3.709217">
        <ele>2263.0</ele>
        <time>2018-07-22T14:03:27Z</time>
      </trkpt>
      <trkpt lat="41.118833" lon="-3.709133">
        <ele>2260.0</ele>
        <time>2018-07-22T14:03:28Z</time>
      </trkpt>
      <trkpt lat="41.118917" lon="-3.709050">
        <ele>2258.0</ele>
        <time>2018-07-22T14:03:29Z</time>
      </trkpt>
      <trkpt lat="41.118983" lon="-3.708967">
        <ele>2256.0</ele>
        <time>2018-07-22T14:03:30Z</time>
      </trkpt>
      <trkpt lat="41.119067" lon="-3.708917">
        <ele>2253.0</ele>
        <time>2018-07-22T14:03:31Z</time>
      </trkpt>
      <trkpt lat="41.119133" lon="-3.708833">
        <ele>2251.0</ele>
        <time>2018-07-22T14:03:32Z</time>
      </trkpt>
      <trkpt lat="41.119200" lon="-3.708750">
        <ele>2248.0</ele>
        <time>2018-07-22T14:03:33Z</time>
      </trkpt>
      <trkpt lat="41.119267" lon="-3.708650">
        <ele>2244.0</ele>
        <time>2018-07-22T14:03:34Z</time>
      </trkpt>
      <trkpt lat="41.119317" lon="-3.708533">
        <ele>2241.0</ele>
        <time>2018-07-22T14:03:35Z</time>
      </trkpt>
      <trkpt lat="41.119383" lon="-3.708433">
        <ele>2238.0</ele>
        <time>2018-07-22T14:03:36Z</time>
      </trkpt>
      <trkpt lat="41.119450" lon="-3.708333">
        <ele>2236.0</ele>
        <time>2018-07-22T14:03:37Z</time>
      </trkpt>
      <trkpt lat="41.119533" lon="-3.708250">
        <ele>2233.0</ele>
        <time>2018-07-22T14:03:38Z</time>
      </trkpt>
      <trkpt lat="41.119600" lon="-3.708150">
        <ele>2230.0</ele>
        <time>2018-07-22T14:03:39Z</time>
      </trkpt>
      <trkpt lat="41.119667" lon="-3.708050">
        <ele>2227.0</ele>
        <time>2018-07-22T14:03:40Z</time>
      </trkpt>
      <trkpt lat="41.119733" lon="-3.707933">
        <ele>2224.0</ele>
        <time>2018-07-22T14:03:41Z</time>
      </trkpt>
      <trkpt lat="41.119800" lon="-3.707817">
        <ele>2221.0</ele>
        <time>2018-07-22T14:03:42Z</time>
      </trkpt>
      <trkpt lat="41.119867" lon="-3.707717">
        <ele>2219.0</ele>
        <time>2018-07-22T14:03:43Z</time>
      </trkpt>
      <trkpt lat="41.119933" lon="-3.707600">
        <ele>2217.0</ele>
        <time>2018-07-22T14:03:44Z</time>
      </trkpt>
      <trkpt lat="41.119983" lon="-3.707483">
        <ele>2213.0</ele>
        <time>2018-07-22T14:03:45Z</time>
      </trkpt>
      <trkpt lat="41.120017" lon="-3.707350">
        <ele>2209.0</ele>
        <time>2018-07-22T14:03:46Z</time>
      </trkpt>
      <trkpt lat="41.120067" lon="-3.707200">
        <ele>2204.0</ele>
        <time>2018-07-22T14:03:47Z</time>
      </trkpt>
      <trkpt lat="41.120133" lon="-3.707067">
        <ele>2201.0</ele>
        <time>2018-07-22T14:03:48Z</time>
      </trkpt>
      <trkpt lat="41.120217" lon="-3.706933">
        <ele>2198.0</ele>
        <time>2018-07-22T14:03:49Z</time>
      </trkpt>
      <trkpt lat="41.120267" lon="-3.706817">
        <ele>2196.0</ele>
        <time>2018-07-22T14:03:50Z</time>
      </trkpt>
      <trkpt lat="41.120300" lon="-3.706700">
        <ele>2194.0</ele>
        <time>2018-07-22T14:03:51Z</time>
      </trkpt>
      <trkpt lat="41.120333" lon="-3.706567">
        <ele>2190.0</ele>
        <time>2018-07-22T14:03:52Z</time>
      </trkpt>
      <trkpt lat="41.120367" lon="-3.706433">
        <ele>2185.0</ele>
        <time>2018-07-22T14:03:53Z</time>
      </trkpt>
      <trkpt lat="41.120400" lon="-3.706300">
        <ele>2180.0</ele>
        <time>2018-07-22T14:03:54Z</time>
      </trkpt>
      <trkpt lat="41.120450" lon="-3.706133">
        <ele>2175.0</ele>
        <time>2018-07-22T14:03:55Z</time>
      </trkpt>
      <trkpt lat="41.120483" lon="-3.705967">
        <ele>2172.0</ele>
        <time>2018-07-22T14:03:56Z</time>
      </trkpt>
      <trkpt lat="41.120517" lon="-3.705817">
        <ele>2169.0</ele>
        <time>2018-07-22T14:03:57Z</time>
      </trkpt>
      <trkpt lat="41.120550" lon="-3.705683">
        <ele>2167.0</ele>
        <time>2018-07-22T14:03:58Z</time>
      </trkpt>
      <trkpt lat="41.120600" lon="-3.705567">
        <ele>2163.0</ele>
        <time>2018-07-22T14:03:59Z</time>
      </trkpt>
      <trkpt lat="41.120633" lon="-3.705450">
        <ele>2159.0</ele>
        <time>2018-07-22T14:04:00Z</time>
      </trkpt>
      <trkpt lat="41.120683" lon="-3.705317">
        <ele>2155.0</ele>
        <time>2018-07-22T14:04:01Z</time>
      </trkpt>
      <trkpt lat="41.120750" lon="-3.705167">
        <ele>2151.0</ele>
        <time>2018-07-22T14:04:02Z</time>
      </trkpt>
      <trkpt lat="41.120800" lon="-3.705017">
        <ele>2148.0</ele>
        <time>2018-07-22T14:04:03Z</time>
      </trkpt>
      <trkpt lat="41.120867" lon="-3.704883">
        <ele>2146.0</ele>
        <time>2018-07-22T14:04:04Z</time>
      </trkpt>
      <trkpt lat="41.120933" lon="-3.704783">
        <ele>2143.0</ele>
        <time>2018-07-22T14:04:05Z</time>
      </trkpt>
      <trkpt lat="41.121000" lon="-3.704667">
        <ele>2141.0</ele>
        <time>2018-07-22T14:04:06Z</time>
      </trkpt>
      <trkpt lat="41.121050" lon="-3.704550">
        <ele>2138.0</ele>
        <time>2018-07-22T14:04:07Z</time>
      </trkpt>
      <trkpt lat="41.121100" lon="-3.704417">
        <ele>2134.0</ele>
        <time>2018-07-22T14:04:08Z</time>
      </trkpt>
      <trkpt lat="41.121167" lon="-3.704267">
        <ele>2130.0</ele>
        <time>2018-07-22T14:04:09Z</time>
      </trkpt>
      <trkpt lat="41.121233" lon="-3.704150">
        <ele>2126.0</ele>
        <time>2018-07-22T14:04:10Z</time>
      </trkpt>
      <trkpt lat="41.121300" lon="-3.704017">
        <ele>2124.0</ele>
        <time>2018-07-22T14:04:11Z</time>
      </trkpt>
      <trkpt lat="41.121367" lon="-3.703900">
        <ele>2123.0</ele>
        <time>2018-07-22T14:04:12Z</time>
      </trkpt>
      <trkpt lat="41.121417" lon="-3.703767">
        <ele>2122.0</ele>
        <time>2018-07-22T14:04:13Z</time>
      </trkpt>
      <trkpt lat="41.121467" lon="-3.703633">
        <ele>2120.0</ele>
        <time>2018-07-22T14:04:14Z</time>
      </trkpt>
      <trkpt lat="41.121517" lon="-3.703500">
        <ele>2118.0</ele>
        <time>2018-07-22T14:04:15Z</time>
      </trkpt>
      <trkpt lat="41.121567" lon="-3.703350">
        <ele>2115.0</ele>
        <time>2018-07-22T14:04:16Z</time>
      </trkpt>
      <trkpt lat="41.121633" lon="-3.703200">
        <ele>2112.0</ele>
        <time>2018-07-22T14:04:17Z</time>
      </trkpt>
      <trkpt lat="41.121683" lon="-3.703033">
        <ele>2111.0</ele>
        <time>2018-07-22T14:04:18Z</time>
      </trkpt>
      <trkpt lat="41.121733" lon="-3.702883">
        <ele>2110.0</ele>
        <time>2018-07-22T14:04:19Z</time>
      </trkpt>
      <trkpt lat="41.121767" lon="-3.702717">
        <ele>2108.0</ele>
        <time>2018-07-22T14:04:20Z</time>
      </trkpt>
      <trkpt lat="41.121800" lon="-3.702567">
        <ele>2106.0</ele>
        <time>2018-07-22T14:04:21Z</time>
      </trkpt>
      <trkpt lat="41.121867" lon="-3.702433">
        <ele>2103.0</ele>
        <time>2018-07-22T14:04:22Z</time>
      </trkpt>
      <trkpt lat="41.121933" lon="-3.702283">
        <ele>2100.0</ele>
        <time>2018-07-22T14:04:23Z</time>
      </trkpt>
      <trkpt lat="41.122000" lon="-3.702167">
        <ele>2098.0</ele>
        <time>2018-07-22T14:04:24Z</time>
      </trkpt>
      <trkpt lat="41.122067" lon="-3.702033">
        <ele>2097.0</ele>
        <time>2018-07-22T14:04:25Z</time>
      </trkpt>
      <trkpt lat="41.122150" lon="-3.701933">
        <ele>2095.0</ele>
        <time>2018-07-22T14:04:26Z</time>
      </trkpt>
      <trkpt lat="41.122217" lon="-3.701817">
        <ele>2094.0</ele>
        <time>2018-07-22T14:04:27Z</time>
      </trkpt>
      <trkpt lat="41.122283" lon="-3.701717">
        <ele>2091.0</ele>
        <time>2018-07-22T14:04:28Z</time>
      </trkpt>
      <trkpt lat="41.122350" lon="-3.701600">
        <ele>2088.0</ele>
        <time>2018-07-22T14:04:29Z</time>
      </trkpt>
      <trkpt lat="41.122417" lon="-3.701483">
        <ele>2085.0</ele>
        <time>2018-07-22T14:04:30Z</time>
      </trkpt>
      <trkpt lat="41.122483" lon="-3.701367">
        <ele>2082.0</ele>
        <time>2018-07-22T14:04:31Z</time>
      </trkpt>
      <trkpt lat="41.122567" lon="-3.701250">
        <ele>2079.0</ele>
        <time>2018-07-22T14:04:32Z</time>
      </trkpt>
      <trkpt lat="41.122633" lon="-3.701133">
        <ele>2076.0</ele>
        <time>2018-07-22T14:04:33Z</time>
      </trkpt>
      <trkpt lat="41.122717" lon="-3.701017">
        <ele>2073.0</ele>
        <time>2018-07-22T14:04:34Z</time>
      </trkpt>
      <trkpt lat="41.122783" lon="-3.700917">
        <ele>2070.0</ele>
        <time>2018-07-22T14:04:35Z</time>
      </trkpt>
      <trkpt lat="41.122867" lon="-3.700800">
        <ele>2067.0</ele>
        <time>2018-07-22T14:04:36Z</time>
      </trkpt>
      <trkpt lat="41.122950" lon="-3.700700">
        <ele>2064.0</ele>
        <time>2018-07-22T14:04:37Z</time>
      </trkpt>
      <trkpt lat="41.123033" lon="-3.700600">
        <ele>2061.0</ele>
        <time>2018-07-22T14:04:38Z</time>
      </trkpt>
      <trkpt lat="41.123117" lon="-3.700500">
        <ele>2059.0</ele>
        <time>2018-07-22T14:04:39Z</time>
      </trkpt>
      <trkpt lat="41.123183" lon="-3.700400">
        <ele>2057.0</ele>
        <time>2018-07-22T14:04:40Z</time>
      </trkpt>
      <trkpt lat="41.123267" lon="-3.700300">
        <ele>2054.0</ele>
        <time>2018-07-22T14:04:41Z</time>
      </trkpt>
      <trkpt lat="41.123333" lon="-3.700183">
        <ele>2050.0</ele>
        <time>2018-07-22T14:04:42Z</time>
      </trkpt>
      <trkpt lat="41.123417" lon="-3.700067">
        <ele>2047.0</ele>
        <time>2018-07-22T14:04:43Z</time>
      </trkpt>
      <trkpt lat="41.123500" lon="-3.699950">
        <ele>2044.0</ele>
        <time>2018-07-22T14:04:44Z</time>
      </trkpt>
      <trkpt lat="41.123567" lon="-3.699833">
        <ele>2041.0</ele>
        <time>2018-07-22T14:04:45Z</time>
      </trkpt>
      <trkpt lat="41.123650" lon="-3.699733">
        <ele>2038.0</ele>
        <time>2018-07-22T14:04:46Z</time>
      </trkpt>
      <trkpt lat="41.123717" lon="-3.699600">
        <ele>2035.0</ele>
        <time>2018-07-22T14:04:47Z</time>
      </trkpt>
      <trkpt lat="41.123783" lon="-3.699483">
        <ele>2031.0</ele>
        <time>2018-07-22T14:04:48Z</time>
      </trkpt>
      <trkpt lat="41.123867" lon="-3.699367">
        <ele>2028.0</ele>
        <time>2018-07-22T14:04:49Z</time>
      </trkpt>
      <trkpt lat="41.123950" lon="-3.699250">
        <ele>2024.0</ele>
        <time>2018-07-22T14:04:50Z</time>
      </trkpt>
      <trkpt lat="41.124033" lon="-3.699133">
        <ele>2021.0</ele>
        <time>2018-07-22T14:04:51Z</time>
      </trkpt>
      <trkpt lat="41.124117" lon="-3.699017">
        <ele>2017.0</ele>
        <time>2018-07-22T14:04:52Z</time>
      </trkpt>
      <trkpt lat="41.124200" lon="-3.698883">
        <ele>2013.0</ele>
        <time>2018-07-22T14:04:53Z</time>
      </trkpt>
      <trkpt lat="41.124283" lon="-3.698750">
        <ele>2009.0</ele>
        <time>2018-07-22T14:04:54Z</time>
      </trkpt>
      <trkpt lat="41.124367" lon="-3.698617">
        <ele>2005.0</ele>
        <time>2018-07-22T14:04:55Z</time>
      </trkpt>
      <trkpt lat="41.124467" lon="-3.698500">
        <ele>2002.0</ele>
        <time>2018-07-22T14:04:56Z</time>
      </trkpt>
      <trkpt lat="41.124550" lon="-3.698383">
        <ele>1999.0</ele>
        <time>2018-07-22T14:04:57Z</time>
      </trkpt>
      <trkpt lat="41.124633" lon="-3.698267">
        <ele>1995.0</ele>
        <time>2018-07-22T14:04:58Z</time>
      </trkpt>
      <trkpt lat="41.124717" lon="-3.698150">
        <ele>1992.0</ele>
        <time>2018-07-22T14:04:59Z</time>
      </trkpt>
      <trkpt lat="41.124800" lon="-3.698050">
        <ele>1988.0</ele>
        <time>2018-07-22T14:05:00Z</time>
      </trkpt>
      <trkpt lat="41.124883" lon="-3.697933">
        <ele>1984.0</ele>
        <time>2018-07-22T14:05:01Z</time>
      </trkpt>
      <trkpt lat="41.124967" lon="-3.697800">
        <ele>1979.0</ele>
        <time>2018-07-22T14:05:02Z</time>
      </trkpt>
      <trkpt lat="41.125067" lon="-3.697683">
        <ele>1975.0</ele>
        <time>2018-07-22T14:05:03Z</time>
      </trkpt>
      <trkpt lat="41.125150" lon="-3.697567">
        <ele>1971.0</ele>
        <time>2018-07-22T14:05:04Z</time>
      </trkpt>
      <trkpt lat="41.125250" lon="-3.697433">
        <ele>1967.0</ele>
        <time>2018-07-22T14:05:05Z</time>
      </trkpt>
      <trkpt lat="41.125333" lon="-3.697317">
        <ele>1964.0</ele>
        <time>2018-07-22T14:05:06Z</time>
      </trkpt>
      <trkpt lat="41.125417" lon="-3.697200">
        <ele>1961.0</ele>
        <time>2018-07-22T14:05:07Z</time>
      </trkpt>
      <trkpt lat="41.125500" lon="-3.697100">
        <ele>1957.0</ele>
        <time>2018-07-22T14:05:08Z</time>
      </trkpt>
      <trkpt lat="41.125600" lon="-3.697000">
        <ele>1954.0</ele>
        <time>2018-07-22T14:05:09Z</time>
      </trkpt>
      <trkpt lat="41.125683" lon="-3.696900">
        <ele>1950.0</ele>
        <time>2018-07-22T14:05:10Z</time>
      </trkpt>
      <trkpt lat="41.125783" lon="-3.696817">
        <ele>1946.0</ele>
        <time>2018-07-22T14:05:11Z</time>
      </trkpt>
      <trkpt lat="41.125883" lon="-3.696717">
        <ele>1943.0</ele>
        <time>2018-07-22T14:05:12Z</time>
      </trkpt>
      <trkpt lat="41.125983" lon="-3.696600">
        <ele>1939.0</ele>
        <time>2018-07-22T14:05:13Z</time>
      </trkpt>
      <trkpt lat="41.126067" lon="-3.696500">
        <ele>1936.0</ele>
        <time>2018-07-22T14:05:14Z</time>
      </trkpt>
      <trkpt lat="41.126150" lon="-3.696383">
        <ele>1933.0</ele>
        <time>2018-07-22T14:05:15Z</time>
      </trkpt>
      <trkpt lat="41.126233" lon="-3.696267">
        <ele>1929.0</ele>
        <time>2018-07-22T14:05:16Z</time>
      </trkpt>
      <trkpt lat="41.126317" lon="-3.696150">
        <ele>1926.0</ele>
        <time>2018-07-22T14:05:17Z</time>
      </trkpt>
      <trkpt lat="41.126400" lon="-3.696033">
        <ele>1922.0</ele>
        <time>2018-07-22T14:05:18Z</time>
      </trkpt>
      <trkpt lat="41.126483" lon="-3.695900">
        <ele>1919.0</ele>
        <time>2018-07-22T14:05:19Z</time>
      </trkpt>
      <trkpt lat="41.126567" lon="-3.695783">
        <ele>1916.0</ele>
        <time>2018-07-22T14:05:20Z</time>
      </trkpt>
      <trkpt lat="41.126650" lon="-3.695667">
        <ele>1914.0</ele>
        <time>2018-07-22T14:05:21Z</time>
      </trkpt>
      <trkpt lat="41.126733" lon="-3.695550">
        <ele>1911.0</ele>
        <time>2018-07-22T14:05:22Z</time>
      </trkpt>
      <trkpt lat="41.126817" lon="-3.695433">
        <ele>1909.0</ele>
        <time>2018-07-22T14:05:23Z</time>
      </trkpt>
      <trkpt lat="41.126917" lon="-3.695350">
        <ele>1907.0</ele>
        <time>2018-07-22T14:05:24Z</time>
      </trkpt>
      <trkpt lat="41.127000" lon="-3.695250">
        <ele>1904.0</ele>
        <time>2018-07-22T14:05:25Z</time>
      </trkpt>
      <trkpt lat="41.127083" lon="-3.695167">
        <ele>1901.0</ele>
        <time>2018-07-22T14:05:26Z</time>
      </trkpt>
      <trkpt lat="41.127183" lon="-3.695067">
        <ele>1897.0</ele>
        <time>2018-07-22T14:05:27Z</time>
      </trkpt>
      <trkpt lat="41.127283" lon="-3.694967">
        <ele>1893.0</ele>
        <time>2018-07-22T14:05:28Z</time>
      </trkpt>
      <trkpt lat="41.127383" lon="-3.694867">
        <ele>1890.0</ele>
        <time>2018-07-22T14:05:29Z</time>
      </trkpt>
      <trkpt lat="41.127500" lon="-3.694767">
        <ele>1888.0</ele>
        <time>2018-07-22T14:05:30Z</time>
      </trkpt>
      <trkpt lat="41.127600" lon="-3.694667">
        <ele>1887.0</ele>
        <time>2018-07-22T14:05:31Z</time>
      </trkpt>
      <trkpt lat="41.127683" lon="-3.694583">
        <ele>1885.0</ele>
        <time>2018-07-22T14:05:32Z</time>
      </trkpt>
      <trkpt lat="41.127767" lon="-3.694500">
        <ele>1882.0</ele>
        <time>2018-07-22T14:05:33Z</time>
      </trkpt>
      <trkpt lat="41.127850" lon="-3.694400">
        <ele>1878.0</ele>
        <time>2018-07-22T14:05:34Z</time>
      </trkpt>
      <trkpt lat="41.127933" lon="-3.694317">
        <ele>1874.0</ele>
        <time>2018-07-22T14:05:35Z</time>
      </trkpt>
      <trkpt lat="41.128033" lon="-3.694217">
        <ele>1870.0</ele>
        <time>2018-07-22T14:05:36Z</time>
      </trkpt>
      <trkpt lat="41.128133" lon="-3.694117">
        <ele>1865.0</ele>
        <time>2018-07-22T14:05:37Z</time>
      </trkpt>
      <trkpt lat="41.128233" lon="-3.694017">
        <ele>1861.0</ele>
        <time>2018-07-22T14:05:38Z</time>
      </trkpt>
      <trkpt lat="41.128317" lon="-3.693900">
        <ele>1858.0</ele>
        <time>2018-07-22T14:05:39Z</time>
      </trkpt>
      <trkpt lat="41.128417" lon="-3.693783">
        <ele>1855.0</ele>
        <time>2018-07-22T14:05:40Z</time>
      </trkpt>
      <trkpt lat="41.128517" lon="-3.693667">
        <ele>1853.0</ele>
        <time>2018-07-22T14:05:41Z</time>
      </trkpt>
      <trkpt lat="41.128600" lon="-3.693567">
        <ele>1851.0</ele>
        <time>2018-07-22T14:05:42Z</time>
      </trkpt>
      <trkpt lat="41.128683" lon="-3.693467">
        <ele>1847.0</ele>
        <time>2018-07-22T14:05:43Z</time>
      </trkpt>
      <trkpt lat="41.128767" lon="-3.693367">
        <ele>1843.0</ele>
        <time>2018-07-22T14:05:44Z</time>
      </trkpt>
      <trkpt lat="41.128850" lon="-3.693283">
        <ele>1839.0</ele>
        <time>2018-07-22T14:05:45Z</time>
      </trkpt>
      <trkpt lat="41.128950" lon="-3.693183">
        <ele>1835.0</ele>
        <time>2018-07-22T14:05:46Z</time>
      </trkpt>
      <trkpt lat="41.129050" lon="-3.693100">
        <ele>1833.0</ele>
        <time>2018-07-22T14:05:47Z</time>
      </trkpt>
      <trkpt lat="41.129150" lon="-3.693017">
        <ele>1831.0</ele>
        <time>2018-07-22T14:05:48Z</time>
      </trkpt>
      <trkpt lat="41.129233" lon="-3.692933">
        <ele>1828.0</ele>
        <time>2018-07-22T14:05:49Z</time>
      </trkpt>
      <trkpt lat="41.129317" lon="-3.692850">
        <ele>1825.0</ele>
        <time>2018-07-22T14:05:50Z</time>
      </trkpt>
      <trkpt lat="41.129400" lon="-3.692783">
        <ele>1824.0</ele>
        <time>2018-07-22T14:05:51Z</time>
      </trkpt>
      <trkpt lat="41.129500" lon="-3.692700">
        <ele>1821.0</ele>
        <time>2018-07-22T14:05:52Z</time>
      </trkpt>
      <trkpt lat="41.129583" lon="-3.692617">
        <ele>1820.0</ele>
        <time>2018-07-22T14:05:53Z</time>
      </trkpt>
      <trkpt lat="41.129667" lon="-3.692517">
        <ele>1817.0</ele>
        <time>2018-07-22T14:05:54Z</time>
      </trkpt>
      <trkpt lat="41.129750" lon="-3.692417">
        <ele>1816.0</ele>
        <time>2018-07-22T14:05:55Z</time>
      </trkpt>
      <trkpt lat="41.129833" lon="-3.692300">
        <ele>1813.0</ele>
        <time>2018-07-22T14:05:56Z</time>
      </trkpt>
      <trkpt lat="41.129933" lon="-3.692183">
        <ele>1811.0</ele>
        <time>2018-07-22T14:05:57Z</time>
      </trkpt>
      <trkpt lat="41.130017" lon="-3.692067">
        <ele>1810.0</ele>
        <time>2018-07-22T14:05:58Z</time>
      </trkpt>
      <trkpt lat="41.130100" lon="-3.691917">
        <ele>1809.0</ele>
        <time>2018-07-22T14:05:59Z</time>
      </trkpt>
      <trkpt lat="41.130183" lon="-3.691783">
        <ele>1808.0</ele>
        <time>2018-07-22T14:06:00Z</time>
      </trkpt>
      <trkpt lat="41.130267" lon="-3.691650">
        <ele>1808.0</ele>
        <time>2018-07-22T14:06:01Z</time>
      </trkpt>
      <trkpt lat="41.130333" lon="-3.691517">
        <ele>1807.0</ele>
        <time>2018-07-22T14:06:02Z</time>
      </trkpt>
      <trkpt lat="41.130417" lon="-3.691383">
        <ele>1806.0</ele>
        <time>2018-07-22T14:06:03Z</time>
      </trkpt>
      <trkpt lat="41.130500" lon="-3.691283">
        <ele>1805.0</ele>
        <time>2018-07-22T14:06:04Z</time>
      </trkpt>
      <trkpt lat="41.130583" lon="-3.691183">
        <ele>1802.0</ele>
        <time>2018-07-22T14:06:05Z</time>
      </trkpt>
      <trkpt lat="41.130667" lon="-3.691083">
        <ele>1801.0</ele>
        <time>2018-07-22T14:06:06Z</time>
      </trkpt>
      <trkpt lat="41.130750" lon="-3.690983">
        <ele>1798.0</ele>
        <time>2018-07-22T14:06:07Z</time>
      </trkpt>
      <trkpt lat="41.130833" lon="-3.690900">
        <ele>1796.0</ele>
        <time>2018-07-22T14:06:08Z</time>
      </trkpt>
      <trkpt lat="41.130933" lon="-3.690800">
        <ele>1794.0</ele>
        <time>2018-07-22T14:06:09Z</time>
      </trkpt>
      <trkpt lat="41.131033" lon="-3.690700">
        <ele>1793.0</ele>
        <time>2018-07-22T14:06:10Z</time>
      </trkpt>
      <trkpt lat="41.131133" lon="-3.690600">
        <ele>1793.0</ele>
        <time>2018-07-22T14:06:11Z</time>
      </trkpt>
      <trkpt lat="41.131217" lon="-3.690500">
        <ele>1794.0</ele>
        <time>2018-07-22T14:06:12Z</time>
      </trkpt>
      <trkpt lat="41.131300" lon="-3.690400">
        <ele>1794.0</ele>
        <time>2018-07-22T14:06:13Z</time>
      </trkpt>
      <trkpt lat="41.131383" lon="-3.690300">
        <ele>1795.0</ele>
        <time>2018-07-22T14:06:14Z</time>
      </trkpt>
      <trkpt lat="41.131467" lon="-3.690217">
        <ele>1795.0</ele>
        <time>2018-07-22T14:06:15Z</time>
      </trkpt>
      <trkpt lat="41.131550" lon="-3.690133">
        <ele>1795.0</ele>
        <time>2018-07-22T14:06:16Z</time>
      </trkpt>
      <trkpt lat="41.131633" lon="-3.690050">
        <ele>1796.0</ele>
        <time>2018-07-22T14:06:17Z</time>
      </trkpt>
      <trkpt lat="41.131700" lon="-3.689967">
        <ele>1796.0</ele>
        <time>2018-07-22T14:06:18Z</time>
      </trkpt>
      <trkpt lat="41.131767" lon="-3.689850">
        <ele>1795.0</ele>
        <time>2018-07-22T14:06:19Z</time>
      </trkpt>
      <trkpt lat="41.131833" lon="-3.689717">
        <ele>1795.0</ele>
        <time>2018-07-22T14:06:20Z</time>
      </trkpt>
      <trkpt lat="41.131900" lon="-3.689600">
        <ele>1795.0</ele>
        <time>2018-07-22T14:06:21Z</time>
      </trkpt>
      <trkpt lat="41.131983" lon="-3.689483">
        <ele>1794.0</ele>
        <time>2018-07-22T14:06:22Z</time>
      </trkpt>
      <trkpt lat="41.132067" lon="-3.689400">
        <ele>1794.0</ele>
        <time>2018-07-22T14:06:23Z</time>
      </trkpt>
      <trkpt lat="41.132167" lon="-3.689317">
        <ele>1796.0</ele>
        <time>2018-07-22T14:06:24Z</time>
      </trkpt>
      <trkpt lat="41.132233" lon="-3.689217">
        <ele>1798.0</ele>
        <time>2018-07-22T14:06:25Z</time>
      </trkpt>
      <trkpt lat="41.132317" lon="-3.689133">
        <ele>1799.0</ele>
        <time>2018-07-22T14:06:26Z</time>
      </trkpt>
      <trkpt lat="41.132400" lon="-3.689017">
        <ele>1800.0</ele>
        <time>2018-07-22T14:06:27Z</time>
      </trkpt>
      <trkpt lat="41.132467" lon="-3.688917">
        <ele>1801.0</ele>
        <time>2018-07-22T14:06:28Z</time>
      </trkpt>
      <trkpt lat="41.132550" lon="-3.688817">
        <ele>1802.0</ele>
        <time>2018-07-22T14:06:29Z</time>
      </trkpt>
      <trkpt lat="41.132617" lon="-3.688700">
        <ele>1804.0</ele>
        <time>2018-07-22T14:06:30Z</time>
      </trkpt>
      <trkpt lat="41.132667" lon="-3.688583">
        <ele>1806.0</ele>
        <time>2018-07-22T14:06:31Z</time>
      </trkpt>
      <trkpt lat="41.132733" lon="-3.688450">
        <ele>1808.0</ele>
        <time>2018-07-22T14:06:32Z</time>
      </trkpt>
      <trkpt lat="41.132817" lon="-3.688333">
        <ele>1810.0</ele>
        <time>2018-07-22T14:06:33Z</time>
      </trkpt>
      <trkpt lat="41.132883" lon="-3.688233">
        <ele>1813.0</ele>
        <time>2018-07-22T14:06:34Z</time>
      </trkpt>
      <trkpt lat="41.132950" lon="-3.688133">
        <ele>1817.0</ele>
        <time>2018-07-22T14:06:35Z</time>
      </trkpt>
      <trkpt lat="41.133017" lon="-3.688033">
        <ele>1820.0</ele>
        <time>2018-07-22T14:06:36Z</time>
      </trkpt>
      <trkpt lat="41.133067" lon="-3.687917">
        <ele>1822.0</ele>
        <time>2018-07-22T14:06:37Z</time>
      </trkpt>
      <trkpt lat="41.133133" lon="-3.687817">
        <ele>1824.0</ele>
        <time>2018-07-22T14:06:38Z</time>
      </trkpt>
      <trkpt lat="41.133200" lon="-3.687733">
        <ele>1825.0</ele>
        <time>2018-07-22T14:06:39Z</time>
      </trkpt>
      <trkpt lat="41.133300" lon="-3.687667">
        <ele>1826.0</ele>
        <time>2018-07-22T14:06:40Z</time>
      </trkpt>
      <trkpt lat="41.133400" lon="-3.687600">
        <ele>1827.0</ele>
        <time>2018-07-22T14:06:41Z</time>
      </trkpt>
      <trkpt lat="41.133517" lon="-3.687567">
        <ele>1830.0</ele>
        <time>2018-07-22T14:06:42Z</time>
      </trkpt>
      <trkpt lat="41.133617" lon="-3.687533">
        <ele>1833.0</ele>
        <time>2018-07-22T14:06:43Z</time>
      </trkpt>
      <trkpt lat="41.133700" lon="-3.687517">
        <ele>1836.0</ele>
        <time>2018-07-22T14:06:44Z</time>
      </trkpt>
      <trkpt lat="41.133800" lon="-3.687517">
        <ele>1838.0</ele>
        <time>2018-07-22T14:06:45Z</time>
      </trkpt>
      <trkpt lat="41.133883" lon="-3.687517">
        <ele>1841.0</ele>
        <time>2018-07-22T14:06:46Z</time>
      </trkpt>
      <trkpt lat="41.133983" lon="-3.687500">
        <ele>1844.0</ele>
        <time>2018-07-22T14:06:47Z</time>
      </trkpt>
      <trkpt lat="41.134067" lon="-3.687467">
        <ele>1846.0</ele>
        <time>2018-07-22T14:06:48Z</time>
      </trkpt>
      <trkpt lat="41.134167" lon="-3.687433">
        <ele>1848.0</ele>
        <time>2018-07-22T14:06:49Z</time>
      </trkpt>
      <trkpt lat="41.134267" lon="-3.687417">
        <ele>1851.0</ele>
        <time>2018-07-22T14:06:50Z</time>
      </trkpt>
      <trkpt lat="41.134350" lon="-3.687400">
        <ele>1854.0</ele>
        <time>2018-07-22T14:06:51Z</time>
      </trkpt>
      <trkpt lat="41.134433" lon="-3.687400">
        <ele>1858.0</ele>
        <time>2018-07-22T14:06:52Z</time>
      </trkpt>
      <trkpt lat="41.134517" lon="-3.687400">
        <ele>1860.0</ele>
        <time>2018-07-22T14:06:53Z</time>
      </trkpt>
      <trkpt lat="41.134617" lon="-3.687383">
        <ele>1862.0</ele>
        <time>2018-07-22T14:06:54Z</time>
      </trkpt>
      <trkpt lat="41.134700" lon="-3.687383">
        <ele>1864.0</ele>
        <time>2018-07-22T14:06:55Z</time>
      </trkpt>
      <trkpt lat="41.134800" lon="-3.687383">
        <ele>1867.0</ele>
        <time>2018-07-22T14:06:56Z</time>
      </trkpt>
      <trkpt lat="41.134883" lon="-3.687400">
        <ele>1870.0</ele>
        <time>2018-07-22T14:06:57Z</time>
      </trkpt>
      <trkpt lat="41.134950" lon="-3.687433">
        <ele>1873.0</ele>
        <time>2018-07-22T14:06:58Z</time>
      </trkpt>
      <trkpt lat="41.135033" lon="-3.687450">
        <ele>1876.0</ele>
        <time>2018-07-22T14:06:59Z</time>
      </trkpt>
      <trkpt lat="41.135117" lon="-3.687483">
        <ele>1878.0</ele>
        <time>2018-07-22T14:07:00Z</time>
      </trkpt>
      <trkpt lat="41.135200" lon="-3.687483">
        <ele>1881.0</ele>
        <time>2018-07-22T14:07:01Z</time>
      </trkpt>
      <trkpt lat="41.135300" lon="-3.687483">
        <ele>1885.0</ele>
        <time>2018-07-22T14:07:02Z</time>
      </trkpt>
      <trkpt lat="41.135383" lon="-3.687467">
        <ele>1888.0</ele>
        <time>2018-07-22T14:07:03Z</time>
      </trkpt>
      <trkpt lat="41.135450" lon="-3.687450">
        <ele>1890.0</ele>
        <time>2018-07-22T14:07:04Z</time>
      </trkpt>
      <trkpt lat="41.135517" lon="-3.687450">
        <ele>1892.0</ele>
        <time>2018-07-22T14:07:05Z</time>
      </trkpt>
      <trkpt lat="41.135567" lon="-3.687467">
        <ele>1891.0</ele>
        <time>2018-07-22T14:07:06Z</time>
      </trkpt>
      <trkpt lat="41.135617" lon="-3.687517">
        <ele>1890.0</ele>
        <time>2018-07-22T14:07:07Z</time>
      </trkpt>
      <trkpt lat="41.135650" lon="-3.687583">
        <ele>1890.0</ele>
        <time>2018-07-22T14:07:08Z</time>
      </trkpt>
      <trkpt lat="41.135650" lon="-3.687667">
        <ele>1890.0</ele>
        <time>2018-07-22T14:07:09Z</time>
      </trkpt>
      <trkpt lat="41.135633" lon="-3.687733">
        <ele>1890.0</ele>
        <time>2018-07-22T14:07:10Z</time>
      </trkpt>
      <trkpt lat="41.135583" lon="-3.687800">
        <ele>1890.0</ele>
        <time>2018-07-22T14:07:11Z</time>
      </trkpt>
      <trkpt lat="41.135517" lon="-3.687833">
        <ele>1890.0</ele>
        <time>2018-07-22T14:07:12Z</time>
      </trkpt>
      <trkpt lat="41.135433" lon="-3.687833">
        <ele>1890.0</ele>
        <time>2018-07-22T14:07:13Z</time>
      </trkpt>
      <trkpt lat="41.135350" lon="-3.687800">
        <ele>1890.0</ele>
        <time>2018-07-22T14:07:14Z</time>
      </trkpt>
      <trkpt lat="41.135250" lon="-3.687733">
        <ele>1890.0</ele>
        <time>2018-07-22T14:07:15Z</time>
      </trkpt>
      <trkpt lat="41.135167" lon="-3.687667">
        <ele>1891.0</ele>
        <time>2018-07-22T14:07:16Z</time>
      </trkpt>
      <trkpt lat="41.135083" lon="-3.687583">
        <ele>1892.0</ele>
        <time>2018-07-22T14:07:17Z</time>
      </trkpt>
      <trkpt lat="41.135000" lon="-3.687500">
        <ele>1894.0</ele>
        <time>2018-07-22T14:07:18Z</time>
      </trkpt>
      <trkpt lat="41.134933" lon="-3.687383">
        <ele>1896.0</ele>
        <time>2018-07-22T14:07:19Z</time>
      </trkpt>
      <trkpt lat="41.134883" lon="-3.687250">
        <ele>1897.0</ele>
        <time>2018-07-22T14:07:20Z</time>
      </trkpt>
      <trkpt lat="41.134833" lon="-3.687100">
        <ele>1900.0</ele>
        <time>2018-07-22T14:07:21Z</time>
      </trkpt>
      <trkpt lat="41.134800" lon="-3.686950">
        <ele>1903.0</ele>
        <time>2018-07-22T14:07:22Z</time>
      </trkpt>
      <trkpt lat="41.134767" lon="-3.686783">
        <ele>1906.0</ele>
        <time>2018-07-22T14:07:23Z</time>
      </trkpt>
      <trkpt lat="41.134750" lon="-3.686633">
        <ele>1910.0</ele>
        <time>2018-07-22T14:07:24Z</time>
      </trkpt>
      <trkpt lat="41.134733" lon="-3.686483">
        <ele>1913.0</ele>
        <time>2018-07-22T14:07:25Z</time>
      </trkpt>
      <trkpt lat="41.134700" lon="-3.686350">
        <ele>1915.0</ele>
        <time>2018-07-22T14:07:26Z</time>
      </trkpt>
      <trkpt lat="41.134667" lon="-3.686217">
        <ele>1917.0</ele>
        <time>2018-07-22T14:07:27Z</time>
      </trkpt>
      <trkpt lat="41.134650" lon="-3.686083">
        <ele>1919.0</ele>
        <time>2018-07-22T14:07:28Z</time>
      </trkpt>
      <trkpt lat="41.134650" lon="-3.685950">
        <ele>1920.0</ele>
        <time>2018-07-22T14:07:29Z</time>
      </trkpt>
      <trkpt lat="41.134683" lon="-3.685817">
        <ele>1920.0</ele>
        <time>2018-07-22T14:07:30Z</time>
      </trkpt>
      <trkpt lat="41.134733" lon="-3.685683">
        <ele>1921.0</ele>
        <time>2018-07-22T14:07:31Z</time>
      </trkpt>
      <trkpt lat="41.134783" lon="-3.685550">
        <ele>1923.0</ele>
        <time>2018-07-22T14:07:32Z</time>
      </trkpt>
      <trkpt lat="41.134850" lon="-3.685433">
        <ele>1925.0</ele>
        <time>2018-07-22T14:07:33Z</time>
      </trkpt>
      <trkpt lat="41.134900" lon="-3.685333">
        <ele>1927.0</ele>
        <time>2018-07-22T14:07:34Z</time>
      </trkpt>
      <trkpt lat="41.134967" lon="-3.685217">
        <ele>1929.0</ele>
        <time>2018-07-22T14:07:35Z</time>
      </trkpt>
      <trkpt lat="41.135033" lon="-3.685100">
        <ele>1931.0</ele>
        <time>2018-07-22T14:07:36Z</time>
      </trkpt>
      <trkpt lat="41.135100" lon="-3.685000">
        <ele>1933.0</ele>
        <time>2018-07-22T14:07:37Z</time>
      </trkpt>
      <trkpt lat="41.135183" lon="-3.684900">
        <ele>1935.0</ele>
        <time>2018-07-22T14:07:38Z</time>
      </trkpt>
      <trkpt lat="41.135250" lon="-3.684817">
        <ele>1938.0</ele>
        <time>2018-07-22T14:07:39Z</time>
      </trkpt>
      <trkpt lat="41.135333" lon="-3.684717">
        <ele>1940.0</ele>
        <time>2018-07-22T14:07:40Z</time>
      </trkpt>
      <trkpt lat="41.135400" lon="-3.684633">
        <ele>1942.0</ele>
        <time>2018-07-22T14:07:41Z</time>
      </trkpt>
      <trkpt lat="41.135483" lon="-3.684567">
        <ele>1944.0</ele>
        <time>2018-07-22T14:07:42Z</time>
      </trkpt>
      <trkpt lat="41.135567" lon="-3.684517">
        <ele>1946.0</ele>
        <time>2018-07-22T14:07:43Z</time>
      </trkpt>
      <trkpt lat="41.135650" lon="-3.684467">
        <ele>1949.0</ele>
        <time>2018-07-22T14:07:44Z</time>
      </trkpt>
      <trkpt lat="41.135717" lon="-3.684433">
        <ele>1954.0</ele>
        <time>2018-07-22T14:07:45Z</time>
      </trkpt>
      <trkpt lat="41.135783" lon="-3.684383">
        <ele>1957.0</ele>
        <time>2018-07-22T14:07:46Z</time>
      </trkpt>
      <trkpt lat="41.135833" lon="-3.684350">
        <ele>1960.0</ele>
        <time>2018-07-22T14:07:47Z</time>
      </trkpt>
      <trkpt lat="41.135900" lon="-3.684317">
        <ele>1961.0</ele>
        <time>2018-07-22T14:07:48Z</time>
      </trkpt>
      <trkpt lat="41.135950" lon="-3.684317">
        <ele>1961.0</ele>
        <time>2018-07-22T14:07:49Z</time>
      </trkpt>
      <trkpt lat="41.136017" lon="-3.684350">
        <ele>1961.0</ele>
        <time>2018-07-22T14:07:50Z</time>
      </trkpt>
      <trkpt lat="41.136083" lon="-3.684400">
        <ele>1962.0</ele>
        <time>2018-07-22T14:07:51Z</time>
      </trkpt>
      <trkpt lat="41.136133" lon="-3.684483">
        <ele>1963.0</ele>
        <time>2018-07-22T14:07:52Z</time>
      </trkpt>
      <trkpt lat="41.136150" lon="-3.684567">
        <ele>1965.0</ele>
        <time>2018-07-22T14:07:53Z</time>
      </trkpt>
      <trkpt lat="41.136150" lon="-3.684650">
        <ele>1968.0</ele>
        <time>2018-07-22T14:07:54Z</time>
      </trkpt>
      <trkpt lat="41.136150" lon="-3.684733">
        <ele>1971.0</ele>
        <time>2018-07-22T14:07:55Z</time>
      </trkpt>
      <trkpt lat="41.136117" lon="-3.684800">
        <ele>1974.0</ele>
        <time>2018-07-22T14:07:56Z</time>
      </trkpt>
      <trkpt lat="41.136100" lon="-3.684850">
        <ele>1977.0</ele>
        <time>2018-07-22T14:07:57Z</time>
      </trkpt>
      <trkpt lat="41.136050" lon="-3.684883">
        <ele>1979.0</ele>
        <time>2018-07-22T14:07:58Z</time>
      </trkpt>
      <trkpt lat="41.135983" lon="-3.684900">
        <ele>1979.0</ele>
        <time>2018-07-22T14:07:59Z</time>
      </trkpt>
      <trkpt lat="41.135900" lon="-3.684917">
        <ele>1979.0</ele>
        <time>2018-07-22T14:08:00Z</time>
      </trkpt>
      <trkpt lat="41.135800" lon="-3.684917">
        <ele>1979.0</ele>
        <time>2018-07-22T14:08:01Z</time>
      </trkpt>
      <trkpt lat="41.135700" lon="-3.684883">
        <ele>1981.0</ele>
        <time>2018-07-22T14:08:02Z</time>
      </trkpt>
      <trkpt lat="41.135583" lon="-3.684817">
        <ele>1983.0</ele>
        <time>2018-07-22T14:08:03Z</time>
      </trkpt>
      <trkpt lat="41.135500" lon="-3.684733">
        <ele>1987.0</ele>
        <time>2018-07-22T14:08:04Z</time>
      </trkpt>
      <trkpt lat="41.135417" lon="-3.684617">
        <ele>1990.0</ele>
        <time>2018-07-22T14:08:05Z</time>
      </trkpt>
      <trkpt lat="41.135350" lon="-3.684483">
        <ele>1993.0</ele>
        <time>2018-07-22T14:08:06Z</time>
      </trkpt>
      <trkpt lat="41.135317" lon="-3.684333">
        <ele>1996.0</ele>
        <time>2018-07-22T14:08:07Z</time>
      </trkpt>
      <trkpt lat="41.135283" lon="-3.684167">
        <ele>1998.0</ele>
        <time>2018-07-22T14:08:08Z</time>
      </trkpt>
      <trkpt lat="41.135300" lon="-3.683983">
        <ele>2000.0</ele>
        <time>2018-07-22T14:08:09Z</time>
      </trkpt>
      <trkpt lat="41.135317" lon="-3.683833">
        <ele>2002.0</ele>
        <time>2018-07-22T14:08:10Z</time>
      </trkpt>
      <trkpt lat="41.135367" lon="-3.683683">
        <ele>2005.0</ele>
        <time>2018-07-22T14:08:11Z</time>
      </trkpt>
      <trkpt lat="41.135433" lon="-3.683567">
        <ele>2008.0</ele>
        <time>2018-07-22T14:08:12Z</time>
      </trkpt>
      <trkpt lat="41.135500" lon="-3.683467">
        <ele>2010.0</ele>
        <time>2018-07-22T14:08:13Z</time>
      </trkpt>
      <trkpt lat="41.135583" lon="-3.683383">
        <ele>2013.0</ele>
        <time>2018-07-22T14:08:14Z</time>
      </trkpt>
      <trkpt lat="41.135650" lon="-3.683333">
        <ele>2015.0</ele>
        <time>2018-07-22T14:08:15Z</time>
      </trkpt>
      <trkpt lat="41.135717" lon="-3.683300">
        <ele>2015.0</ele>
        <time>2018-07-22T14:08:16Z</time>
      </trkpt>
      <trkpt lat="41.135800" lon="-3.683283">
        <ele>2016.0</ele>
        <time>2018-07-22T14:08:17Z</time>
      </trkpt>
      <trkpt lat="41.135883" lon="-3.683317">
        <ele>2016.0</ele>
        <time>2018-07-22T14:08:18Z</time>
      </trkpt>
      <trkpt lat="41.135950" lon="-3.683367">
        <ele>2017.0</ele>
        <time>2018-07-22T14:08:19Z</time>
      </trkpt>
      <trkpt lat="41.136017" lon="-3.683417">
        <ele>2018.0</ele>
        <time>2018-07-22T14:08:20Z</time>
      </trkpt>
      <trkpt lat="41.136067" lon="-3.683483">
        <ele>2020.0</ele>
        <time>2018-07-22T14:08:21Z</time>
      </trkpt>
      <trkpt lat="41.136117" lon="-3.683550">
        <ele>2022.0</ele>
        <time>2018-07-22T14:08:22Z</time>
      </trkpt>
      <trkpt lat="41.136150" lon="-3.683617">
        <ele>2024.0</ele>
        <time>2018-07-22T14:08:23Z</time>
      </trkpt>
      <trkpt lat="41.136200" lon="-3.683683">
        <ele>2024.0</ele>
        <time>2018-07-22T14:08:24Z</time>
      </trkpt>
      <trkpt lat="41.136233" lon="-3.683750">
        <ele>2025.0</ele>
        <time>2018-07-22T14:08:25Z</time>
      </trkpt>
      <trkpt lat="41.136267" lon="-3.683833">
        <ele>2026.0</ele>
        <time>2018-07-22T14:08:26Z</time>
      </trkpt>
      <trkpt lat="41.136283" lon="-3.683917">
        <ele>2028.0</ele>
        <time>2018-07-22T14:08:27Z</time>
      </trkpt>
      <trkpt lat="41.136300" lon="-3.684000">
        <ele>2030.0</ele>
        <time>2018-07-22T14:08:28Z</time>
      </trkpt>
      <trkpt lat="41.136300" lon="-3.684067">
        <ele>2032.0</ele>
        <time>2018-07-22T14:08:29Z</time>
      </trkpt>
      <trkpt lat="41.136283" lon="-3.684133">
        <ele>2034.0</ele>
        <time>2018-07-22T14:08:30Z</time>
      </trkpt>
      <trkpt lat="41.136250" lon="-3.684183">
        <ele>2035.0</ele>
        <time>2018-07-22T14:08:31Z</time>
      </trkpt>
      <trkpt lat="41.136183" lon="-3.684250">
        <ele>2036.0</ele>
        <time>2018-07-22T14:08:32Z</time>
      </trkpt>
      <trkpt lat="41.136117" lon="-3.684283">
        <ele>2036.0</ele>
        <time>2018-07-22T14:08:33Z</time>
      </trkpt>
      <trkpt lat="41.136050" lon="-3.684283">
        <ele>2037.0</ele>
        <time>2018-07-22T14:08:34Z</time>
      </trkpt>
      <trkpt lat="41.135967" lon="-3.684267">
        <ele>2037.0</ele>
        <time>2018-07-22T14:08:35Z</time>
      </trkpt>
      <trkpt lat="41.135883" lon="-3.684233">
        <ele>2037.0</ele>
        <time>2018-07-22T14:08:36Z</time>
      </trkpt>
      <trkpt lat="41.135800" lon="-3.684183">
        <ele>2038.0</ele>
        <time>2018-07-22T14:08:37Z</time>
      </trkpt>
      <trkpt lat="41.135700" lon="-3.684117">
        <ele>2039.0</ele>
        <time>2018-07-22T14:08:38Z</time>
      </trkpt>
      <trkpt lat="41.135617" lon="-3.684017">
        <ele>2040.0</ele>
        <time>2018-07-22T14:08:39Z</time>
      </trkpt>
      <trkpt lat="41.135533" lon="-3.683900">
        <ele>2042.0</ele>
        <time>2018-07-22T14:08:40Z</time>
      </trkpt>
      <trkpt lat="41.135467" lon="-3.683767">
        <ele>2045.0</ele>
        <time>2018-07-22T14:08:41Z</time>
      </trkpt>
      <trkpt lat="41.135400" lon="-3.683633">
        <ele>2047.0</ele>
        <time>2018-07-22T14:08:42Z</time>
      </trkpt>
      <trkpt lat="41.135350" lon="-3.683467">
        <ele>2049.0</ele>
        <time>2018-07-22T14:08:43Z</time>
      </trkpt>
      <trkpt lat="41.135333" lon="-3.683317">
        <ele>2052.0</ele>
        <time>2018-07-22T14:08:44Z</time>
      </trkpt>
      <trkpt lat="41.135300" lon="-3.683150">
        <ele>2055.0</ele>
        <time>2018-07-22T14:08:45Z</time>
      </trkpt>
      <trkpt lat="41.135300" lon="-3.683000">
        <ele>2057.0</ele>
        <time>2018-07-22T14:08:46Z</time>
      </trkpt>
      <trkpt lat="41.135300" lon="-3.682850">
        <ele>2059.0</ele>
        <time>2018-07-22T14:08:47Z</time>
      </trkpt>
      <trkpt lat="41.135317" lon="-3.682683">
        <ele>2060.0</ele>
        <time>2018-07-22T14:08:48Z</time>
      </trkpt>
      <trkpt lat="41.135333" lon="-3.682517">
        <ele>2061.0</ele>
        <time>2018-07-22T14:08:49Z</time>
      </trkpt>
      <trkpt lat="41.135383" lon="-3.682367">
        <ele>2063.0</ele>
        <time>2018-07-22T14:08:50Z</time>
      </trkpt>
      <trkpt lat="41.135433" lon="-3.682217">
        <ele>2066.0</ele>
        <time>2018-07-22T14:08:51Z</time>
      </trkpt>
      <trkpt lat="41.135500" lon="-3.682067">
        <ele>2068.0</ele>
        <time>2018-07-22T14:08:52Z</time>
      </trkpt>
      <trkpt lat="41.135550" lon="-3.681950">
        <ele>2070.0</ele>
        <time>2018-07-22T14:08:53Z</time>
      </trkpt>
      <trkpt lat="41.135617" lon="-3.681817">
        <ele>2072.0</ele>
        <time>2018-07-22T14:08:54Z</time>
      </trkpt>
      <trkpt lat="41.135667" lon="-3.681717">
        <ele>2074.0</ele>
        <time>2018-07-22T14:08:55Z</time>
      </trkpt>
      <trkpt lat="41.135733" lon="-3.681600">
        <ele>2076.0</ele>
        <time>2018-07-22T14:08:56Z</time>
      </trkpt>
      <trkpt lat="41.135800" lon="-3.681500">
        <ele>2077.0</ele>
        <time>2018-07-22T14:08:57Z</time>
      </trkpt>
      <trkpt lat="41.135867" lon="-3.681383">
        <ele>2080.0</ele>
        <time>2018-07-22T14:08:58Z</time>
      </trkpt>
      <trkpt lat="41.135917" lon="-3.681283">
        <ele>2082.0</ele>
        <time>2018-07-22T14:08:59Z</time>
      </trkpt>
      <trkpt lat="41.135950" lon="-3.681167">
        <ele>2084.0</ele>
        <time>2018-07-22T14:09:00Z</time>
      </trkpt>
      <trkpt lat="41.135983" lon="-3.681067">
        <ele>2084.0</ele>
        <time>2018-07-22T14:09:01Z</time>
      </trkpt>
      <trkpt lat="41.136033" lon="-3.680967">
        <ele>2084.0</ele>
        <time>2018-07-22T14:09:02Z</time>
      </trkpt>
      <trkpt lat="41.136083" lon="-3.680867">
        <ele>2084.0</ele>
        <time>2018-07-22T14:09:03Z</time>
      </trkpt>
      <trkpt lat="41.136167" lon="-3.680767">
        <ele>2082.0</ele>
        <time>2018-07-22T14:09:04Z</time>
      </trkpt>
      <trkpt lat="41.136250" lon="-3.680700">
        <ele>2082.0</ele>
        <time>2018-07-22T14:09:05Z</time>
      </trkpt>
      <trkpt lat="41.136333" lon="-3.680683">
        <ele>2082.0</ele>
        <time>2018-07-22T14:09:06Z</time>
      </trkpt>
      <trkpt lat="41.136417" lon="-3.680683">
        <ele>2084.0</ele>
        <time>2018-07-22T14:09:07Z</time>
      </trkpt>
      <trkpt lat="41.136500" lon="-3.680700">
        <ele>2085.0</ele>
        <time>2018-07-22T14:09:08Z</time>
      </trkpt>
      <trkpt lat="41.136550" lon="-3.680717">
        <ele>2086.0</ele>
        <time>2018-07-22T14:09:09Z</time>
      </trkpt>
      <trkpt lat="41.136600" lon="-3.680750">
        <ele>2087.0</ele>
        <time>2018-07-22T14:09:10Z</time>
      </trkpt>
      <trkpt lat="41.136650" lon="-3.680800">
        <ele>2087.0</ele>
        <time>2018-07-22T14:09:11Z</time>
      </trkpt>
      <trkpt lat="41.136683" lon="-3.680850">
        <ele>2087.0</ele>
        <time>2018-07-22T14:09:12Z</time>
      </trkpt>
      <trkpt lat="41.136733" lon="-3.680917">
        <ele>2087.0</ele>
        <time>2018-07-22T14:09:13Z</time>
      </trkpt>
      <trkpt lat="41.136767" lon="-3.681000">
        <ele>2087.0</ele>
        <time>2018-07-22T14:09:14Z</time>
      </trkpt>
      <trkpt lat="41.136783" lon="-3.681067">
        <ele>2088.0</ele>
        <time>2018-07-22T14:09:15Z</time>
      </trkpt>
      <trkpt lat="41.136817" lon="-3.681133">
        <ele>2090.0</ele>
        <time>2018-07-22T14:09:16Z</time>
      </trkpt>
      <trkpt lat="41.136867" lon="-3.681200">
        <ele>2091.0</ele>
        <time>2018-07-22T14:09:17Z</time>
      </trkpt>
      <trkpt lat="41.136917" lon="-3.681250">
        <ele>2092.0</ele>
        <time>2018-07-22T14:09:18Z</time>
      </trkpt>
      <trkpt lat="41.136967" lon="-3.681300">
        <ele>2093.0</ele>
        <time>2018-07-22T14:09:19Z</time>
      </trkpt>
      <trkpt lat="41.137000" lon="-3.681367">
        <ele>2094.0</ele>
        <time>2018-07-22T14:09:20Z</time>
      </trkpt>
      <trkpt lat="41.137050" lon="-3.681433">
        <ele>2094.0</ele>
        <time>2018-07-22T14:09:21Z</time>
      </trkpt>
      <trkpt lat="41.137083" lon="-3.681500">
        <ele>2095.0</ele>
        <time>2018-07-22T14:09:22Z</time>
      </trkpt>
      <trkpt lat="41.137133" lon="-3.681567">
        <ele>2095.0</ele>
        <time>2018-07-22T14:09:23Z</time>
      </trkpt>
      <trkpt lat="41.137200" lon="-3.681617">
        <ele>2096.0</ele>
        <time>2018-07-22T14:09:24Z</time>
      </trkpt>
      <trkpt lat="41.137250" lon="-3.681667">
        <ele>2097.0</ele>
        <time>2018-07-22T14:09:25Z</time>
      </trkpt>
      <trkpt lat="41.137333" lon="-3.681717">
        <ele>2098.0</ele>
        <time>2018-07-22T14:09:26Z</time>
      </trkpt>
      <trkpt lat="41.137400" lon="-3.681733">
        <ele>2098.0</ele>
        <time>2018-07-22T14:09:27Z</time>
      </trkpt>
      <trkpt lat="41.137467" lon="-3.681767">
        <ele>2098.0</ele>
        <time>2018-07-22T14:09:28Z</time>
      </trkpt>
      <trkpt lat="41.137533" lon="-3.681800">
        <ele>2098.0</ele>
        <time>2018-07-22T14:09:29Z</time>
      </trkpt>
      <trkpt lat="41.137583" lon="-3.681867">
        <ele>2098.0</ele>
        <time>2018-07-22T14:09:30Z</time>
      </trkpt>
      <trkpt lat="41.137633" lon="-3.681933">
        <ele>2097.0</ele>
        <time>2018-07-22T14:09:31Z</time>
      </trkpt>
      <trkpt lat="41.137683" lon="-3.682000">
        <ele>2097.0</ele>
        <time>2018-07-22T14:09:32Z</time>
      </trkpt>
      <trkpt lat="41.137717" lon="-3.682083">
        <ele>2097.0</ele>
        <time>2018-07-22T14:09:33Z</time>
      </trkpt>
      <trkpt lat="41.137750" lon="-3.682167">
        <ele>2098.0</ele>
        <time>2018-07-22T14:09:34Z</time>
      </trkpt>
      <trkpt lat="41.137733" lon="-3.682250">
        <ele>2099.0</ele>
        <time>2018-07-22T14:09:35Z</time>
      </trkpt>
      <trkpt lat="41.137717" lon="-3.682317">
        <ele>2098.0</ele>
        <time>2018-07-22T14:09:36Z</time>
      </trkpt>
      <trkpt lat="41.137683" lon="-3.682400">
        <ele>2097.0</ele>
        <time>2018-07-22T14:09:37Z</time>
      </trkpt>
      <trkpt lat="41.137633" lon="-3.682467">
        <ele>2097.0</ele>
        <time>2018-07-22T14:09:38Z</time>
      </trkpt>
      <trkpt lat="41.137567" lon="-3.682533">
        <ele>2096.0</ele>
        <time>2018-07-22T14:09:39Z</time>
      </trkpt>
      <trkpt lat="41.137483" lon="-3.682583">
        <ele>2095.0</ele>
        <time>2018-07-22T14:09:40Z</time>
      </trkpt>
      <trkpt lat="41.137400" lon="-3.682617">
        <ele>2094.0</ele>
        <time>2018-07-22T14:09:41Z</time>
      </trkpt>
      <trkpt lat="41.137300" lon="-3.682617">
        <ele>2093.0</ele>
        <time>2018-07-22T14:09:42Z</time>
      </trkpt>
      <trkpt lat="41.137200" lon="-3.682583">
        <ele>2092.0</ele>
        <time>2018-07-22T14:09:43Z</time>
      </trkpt>
      <trkpt lat="41.137100" lon="-3.682517">
        <ele>2090.0</ele>
        <time>2018-07-22T14:09:44Z</time>
      </trkpt>
      <trkpt lat="41.137000" lon="-3.682433">
        <ele>2089.0</ele>
        <time>2018-07-22T14:09:45Z</time>
      </trkpt>
      <trkpt lat="41.136917" lon="-3.682317">
        <ele>2089.0</ele>
        <time>2018-07-22T14:09:46Z</time>
      </trkpt>
      <trkpt lat="41.136850" lon="-3.682183">
        <ele>2089.0</ele>
        <time>2018-07-22T14:09:47Z</time>
      </trkpt>
      <trkpt lat="41.136783" lon="-3.682050">
        <ele>2089.0</ele>
        <time>2018-07-22T14:09:48Z</time>
      </trkpt>
      <trkpt lat="41.136733" lon="-3.681917">
        <ele>2087.0</ele>
        <time>2018-07-22T14:09:49Z</time>
      </trkpt>
      <trkpt lat="41.136700" lon="-3.681767">
        <ele>2086.0</ele>
        <time>2018-07-22T14:09:50Z</time>
      </trkpt>
      <trkpt lat="41.136683" lon="-3.681633">
        <ele>2084.0</ele>
        <time>2018-07-22T14:09:51Z</time>
      </trkpt>
      <trkpt lat="41.136667" lon="-3.681467">
        <ele>2081.0</ele>
        <time>2018-07-22T14:09:52Z</time>
      </trkpt>
      <trkpt lat="41.136683" lon="-3.681300">
        <ele>2078.0</ele>
        <time>2018-07-22T14:09:53Z</time>
      </trkpt>
      <trkpt lat="41.136717" lon="-3.681133">
        <ele>2076.0</ele>
        <time>2018-07-22T14:09:54Z</time>
      </trkpt>
      <trkpt lat="41.136767" lon="-3.680983">
        <ele>2074.0</ele>
        <time>2018-07-22T14:09:55Z</time>
      </trkpt>
      <trkpt lat="41.136850" lon="-3.680867">
        <ele>2073.0</ele>
        <time>2018-07-22T14:09:56Z</time>
      </trkpt>
      <trkpt lat="41.136933" lon="-3.680767">
        <ele>2072.0</ele>
        <time>2018-07-22T14:09:57Z</time>
      </trkpt>
      <trkpt lat="41.137017" lon="-3.680683">
        <ele>2072.0</ele>
        <time>2018-07-22T14:09:58Z</time>
      </trkpt>
      <trkpt lat="41.137100" lon="-3.680617">
        <ele>2071.0</ele>
        <time>2018-07-22T14:09:59Z</time>
      </trkpt>
      <trkpt lat="41.137183" lon="-3.680533">
        <ele>2071.0</ele>
        <time>2018-07-22T14:10:00Z</time>
      </trkpt>
      <trkpt lat="41.137267" lon="-3.680467">
        <ele>2071.0</ele>
        <time>2018-07-22T14:10:01Z</time>
      </trkpt>
      <trkpt lat="41.137367" lon="-3.680383">
        <ele>2070.0</ele>
        <time>2018-07-22T14:10:02Z</time>
      </trkpt>
      <trkpt lat="41.137450" lon="-3.680317">
        <ele>2069.0</ele>
        <time>2018-07-22T14:10:03Z</time>
      </trkpt>
      <trkpt lat="41.137533" lon="-3.680250">
        <ele>2070.0</ele>
        <time>2018-07-22T14:10:04Z</time>
      </trkpt>
      <trkpt lat="41.137633" lon="-3.680167">
        <ele>2071.0</ele>
        <time>2018-07-22T14:10:05Z</time>
      </trkpt>
      <trkpt lat="41.137717" lon="-3.680100">
        <ele>2072.0</ele>
        <time>2018-07-22T14:10:06Z</time>
      </trkpt>
      <trkpt lat="41.137783" lon="-3.680033">
        <ele>2073.0</ele>
        <time>2018-07-22T14:10:07Z</time>
      </trkpt>
      <trkpt lat="41.137867" lon="-3.679950">
        <ele>2073.0</ele>
        <time>2018-07-22T14:10:08Z</time>
      </trkpt>
      <trkpt lat="41.137933" lon="-3.679867">
        <ele>2074.0</ele>
        <time>2018-07-22T14:10:09Z</time>
      </trkpt>
      <trkpt lat="41.138000" lon="-3.679783">
        <ele>2074.0</ele>
        <time>2018-07-22T14:10:10Z</time>
      </trkpt>
      <trkpt lat="41.138067" lon="-3.679700">
        <ele>2073.0</ele>
        <time>2018-07-22T14:10:11Z</time>
      </trkpt>
      <trkpt lat="41.138117" lon="-3.679617">
        <ele>2073.0</ele>
        <time>2018-07-22T14:10:12Z</time>
      </trkpt>
      <trkpt lat="41.138183" lon="-3.679517">
        <ele>2072.0</ele>
        <time>2018-07-22T14:10:13Z</time>
      </trkpt>
      <trkpt lat="41.138250" lon="-3.679433">
        <ele>2070.0</ele>
        <time>2018-07-22T14:10:14Z</time>
      </trkpt>
      <trkpt lat="41.138317" lon="-3.679333">
        <ele>2068.0</ele>
        <time>2018-07-22T14:10:15Z</time>
      </trkpt>
      <trkpt lat="41.138383" lon="-3.679233">
        <ele>2066.0</ele>
        <time>2018-07-22T14:10:16Z</time>
      </trkpt>
      <trkpt lat="41.138450" lon="-3.679133">
        <ele>2064.0</ele>
        <time>2018-07-22T14:10:17Z</time>
      </trkpt>
      <trkpt lat="41.138517" lon="-3.679033">
        <ele>2062.0</ele>
        <time>2018-07-22T14:10:18Z</time>
      </trkpt>
      <trkpt lat="41.138600" lon="-3.678950">
        <ele>2059.0</ele>
        <time>2018-07-22T14:10:19Z</time>
      </trkpt>
      <trkpt lat="41.138667" lon="-3.678850">
        <ele>2056.0</ele>
        <time>2018-07-22T14:10:20Z</time>
      </trkpt>
      <trkpt lat="41.138717" lon="-3.678750">
        <ele>2054.0</ele>
        <time>2018-07-22T14:10:21Z</time>
      </trkpt>
      <trkpt lat="41.138783" lon="-3.678650">
        <ele>2052.0</ele>
        <time>2018-07-22T14:10:22Z</time>
      </trkpt>
      <trkpt lat="41.138867" lon="-3.678550">
        <ele>2050.0</ele>
        <time>2018-07-22T14:10:23Z</time>
      </trkpt>
      <trkpt lat="41.138933" lon="-3.678483">
        <ele>2048.0</ele>
        <time>2018-07-22T14:10:24Z</time>
      </trkpt>
      <trkpt lat="41.139000" lon="-3.678417">
        <ele>2047.0</ele>
        <time>2018-07-22T14:10:25Z</time>
      </trkpt>
      <trkpt lat="41.139067" lon="-3.678333">
        <ele>2045.0</ele>
        <time>2018-07-22T14:10:26Z</time>
      </trkpt>
      <trkpt lat="41.139133" lon="-3.678267">
        <ele>2043.0</ele>
        <time>2018-07-22T14:10:27Z</time>
      </trkpt>
      <trkpt lat="41.139200" lon="-3.678183">
        <ele>2041.0</ele>
        <time>2018-07-22T14:10:28Z</time>
      </trkpt>
      <trkpt lat="41.139267" lon="-3.678133">
        <ele>2040.0</ele>
        <time>2018-07-22T14:10:29Z</time>
      </trkpt>
      <trkpt lat="41.139350" lon="-3.678067">
        <ele>2038.0</ele>
        <time>2018-07-22T14:10:30Z</time>
      </trkpt>
      <trkpt lat="41.139417" lon="-3.678017">
        <ele>2038.0</ele>
        <time>2018-07-22T14:10:31Z</time>
      </trkpt>
      <trkpt lat="41.139483" lon="-3.677933">
        <ele>2037.0</ele>
        <time>2018-07-22T14:10:32Z</time>
      </trkpt>
      <trkpt lat="41.139567" lon="-3.677850">
        <ele>2036.0</ele>
        <time>2018-07-22T14:10:33Z</time>
      </trkpt>
      <trkpt lat="41.139617" lon="-3.677783">
        <ele>2034.0</ele>
        <time>2018-07-22T14:10:34Z</time>
      </trkpt>
      <trkpt lat="41.139667" lon="-3.677700">
        <ele>2032.0</ele>
        <time>2018-07-22T14:10:35Z</time>
      </trkpt>
      <trkpt lat="41.139733" lon="-3.677633">
        <ele>2030.0</ele>
        <time>2018-07-22T14:10:36Z</time>
      </trkpt>
      <trkpt lat="41.139783" lon="-3.677567">
        <ele>2027.0</ele>
        <time>2018-07-22T14:10:37Z</time>
      </trkpt>
      <trkpt lat="41.139833" lon="-3.677483">
        <ele>2024.0</ele>
        <time>2018-07-22T14:10:38Z</time>
      </trkpt>
      <trkpt lat="41.139900" lon="-3.677400">
        <ele>2020.0</ele>
        <time>2018-07-22T14:10:39Z</time>
      </trkpt>
      <trkpt lat="41.139967" lon="-3.677317">
        <ele>2017.0</ele>
        <time>2018-07-22T14:10:40Z</time>
      </trkpt>
      <trkpt lat="41.140050" lon="-3.677267">
        <ele>2013.0</ele>
        <time>2018-07-22T14:10:41Z</time>
      </trkpt>
      <trkpt lat="41.140133" lon="-3.677233">
        <ele>2011.0</ele>
        <time>2018-07-22T14:10:42Z</time>
      </trkpt>
      <trkpt lat="41.140200" lon="-3.677233">
        <ele>2010.0</ele>
        <time>2018-07-22T14:10:43Z</time>
      </trkpt>
      <trkpt lat="41.140250" lon="-3.677267">
        <ele>2009.0</ele>
        <time>2018-07-22T14:10:44Z</time>
      </trkpt>
      <trkpt lat="41.140267" lon="-3.677317">
        <ele>2009.0</ele>
        <time>2018-07-22T14:10:45Z</time>
      </trkpt>
      <trkpt lat="41.140267" lon="-3.677350">
        <ele>2009.0</ele>
        <time>2018-07-22T14:10:46Z</time>
      </trkpt>
      <trkpt lat="41.140250" lon="-3.677383">
        <ele>2007.0</ele>
        <time>2018-07-22T14:10:47Z</time>
      </trkpt>
      <trkpt lat="41.140217" lon="-3.677417">
        <ele>2004.0</ele>
        <time>2018-07-22T14:10:48Z</time>
      </trkpt>
      <trkpt lat="41.140167" lon="-3.677467">
        <ele>2000.0</ele>
        <time>2018-07-22T14:10:49Z</time>
      </trkpt>
      <trkpt lat="41.140100" lon="-3.677533">
        <ele>1996.0</ele>
        <time>2018-07-22T14:10:50Z</time>
      </trkpt>
      <trkpt lat="41.140033" lon="-3.677600">
        <ele>1992.0</ele>
        <time>2018-07-22T14:10:51Z</time>
      </trkpt>
      <trkpt lat="41.139967" lon="-3.677650">
        <ele>1990.0</ele>
        <time>2018-07-22T14:10:52Z</time>
      </trkpt>
      <trkpt lat="41.139917" lon="-3.677717">
        <ele>1987.0</ele>
        <time>2018-07-22T14:10:53Z</time>
      </trkpt>
      <trkpt lat="41.139883" lon="-3.677767">
        <ele>1984.0</ele>
        <time>2018-07-22T14:10:54Z</time>
      </trkpt>
      <trkpt lat="41.139833" lon="-3.677833">
        <ele>1979.0</ele>
        <time>2018-07-22T14:10:55Z</time>
      </trkpt>
      <trkpt lat="41.139767" lon="-3.677917">
        <ele>1973.0</ele>
        <time>2018-07-22T14:10:56Z</time>
      </trkpt>
      <trkpt lat="41.139700" lon="-3.678000">
        <ele>1969.0</ele>
        <time>2018-07-22T14:10:57Z</time>
      </trkpt>
      <trkpt lat="41.139650" lon="-3.678100">
        <ele>1967.0</ele>
        <time>2018-07-22T14:10:58Z</time>
      </trkpt>
      <trkpt lat="41.139583" lon="-3.678167">
        <ele>1967.0</ele>
        <time>2018-07-22T14:10:59Z</time>
      </trkpt>
      <trkpt lat="41.139550" lon="-3.678233">
        <ele>1966.0</ele>
        <time>2018-07-22T14:11:00Z</time>
      </trkpt>
      <trkpt lat="41.139517" lon="-3.678267">
        <ele>1963.0</ele>
        <time>2018-07-22T14:11:01Z</time>
      </trkpt>
      <trkpt lat="41.139467" lon="-3.678333">
        <ele>1958.0</ele>
        <time>2018-07-22T14:11:02Z</time>
      </trkpt>
      <trkpt lat="41.139417" lon="-3.678400">
        <ele>1953.0</ele>
        <time>2018-07-22T14:11:03Z</time>
      </trkpt>
      <trkpt lat="41.139367" lon="-3.678483">
        <ele>1949.0</ele>
        <time>2018-07-22T14:11:04Z</time>
      </trkpt>
      <trkpt lat="41.139317" lon="-3.678583">
        <ele>1946.0</ele>
        <time>2018-07-22T14:11:05Z</time>
      </trkpt>
      <trkpt lat="41.139283" lon="-3.678667">
        <ele>1944.0</ele>
        <time>2018-07-22T14:11:06Z</time>
      </trkpt>
      <trkpt lat="41.139250" lon="-3.678767">
        <ele>1943.0</ele>
        <time>2018-07-22T14:11:07Z</time>
      </trkpt>
      <trkpt lat="41.139217" lon="-3.678850">
        <ele>1943.0</ele>
        <time>2018-07-22T14:11:08Z</time>
      </trkpt>
      <trkpt lat="41.139200" lon="-3.678917">
        <ele>1942.0</ele>
        <time>2018-07-22T14:11:09Z</time>
      </trkpt>
      <trkpt lat="41.139183" lon="-3.679000">
        <ele>1941.0</ele>
        <time>2018-07-22T14:11:10Z</time>
      </trkpt>
      <trkpt lat="41.139183" lon="-3.679067">
        <ele>1940.0</ele>
        <time>2018-07-22T14:11:11Z</time>
      </trkpt>
      <trkpt lat="41.139183" lon="-3.679133">
        <ele>1937.0</ele>
        <time>2018-07-22T14:11:12Z</time>
      </trkpt>
      <trkpt lat="41.139183" lon="-3.679217">
        <ele>1935.0</ele>
        <time>2018-07-22T14:11:13Z</time>
      </trkpt>
      <trkpt lat="41.139150" lon="-3.679317">
        <ele>1931.0</ele>
        <time>2018-07-22T14:11:14Z</time>
      </trkpt>
      <trkpt lat="41.139100" lon="-3.679400">
        <ele>1928.0</ele>
        <time>2018-07-22T14:11:15Z</time>
      </trkpt>
      <trkpt lat="41.139033" lon="-3.679500">
        <ele>1926.0</ele>
        <time>2018-07-22T14:11:16Z</time>
      </trkpt>
      <trkpt lat="41.138983" lon="-3.679583">
        <ele>1924.0</ele>
        <time>2018-07-22T14:11:17Z</time>
      </trkpt>
      <trkpt lat="41.138917" lon="-3.679650">
        <ele>1923.0</ele>
        <time>2018-07-22T14:11:18Z</time>
      </trkpt>
      <trkpt lat="41.138850" lon="-3.679717">
        <ele>1922.0</ele>
        <time>2018-07-22T14:11:19Z</time>
      </trkpt>
      <trkpt lat="41.138800" lon="-3.679783">
        <ele>1921.0</ele>
        <time>2018-07-22T14:11:20Z</time>
      </trkpt>
      <trkpt lat="41.138733" lon="-3.679833">
        <ele>1919.0</ele>
        <time>2018-07-22T14:11:21Z</time>
      </trkpt>
      <trkpt lat="41.138683" lon="-3.679883">
        <ele>1916.0</ele>
        <time>2018-07-22T14:11:22Z</time>
      </trkpt>
      <trkpt lat="41.138617" lon="-3.679933">
        <ele>1913.0</ele>
        <time>2018-07-22T14:11:23Z</time>
      </trkpt>
      <trkpt lat="41.138567" lon="-3.680000">
        <ele>1909.0</ele>
        <time>2018-07-22T14:11:24Z</time>
      </trkpt>
      <trkpt lat="41.138500" lon="-3.680067">
        <ele>1905.0</ele>
        <time>2018-07-22T14:11:25Z</time>
      </trkpt>
      <trkpt lat="41.138433" lon="-3.680150">
        <ele>1902.0</ele>
        <time>2018-07-22T14:11:26Z</time>
      </trkpt>
      <trkpt lat="41.138383" lon="-3.680233">
        <ele>1900.0</ele>
        <time>2018-07-22T14:11:27Z</time>
      </trkpt>
      <trkpt lat="41.138333" lon="-3.680300">
        <ele>1898.0</ele>
        <time>2018-07-22T14:11:28Z</time>
      </trkpt>
      <trkpt lat="41.138283" lon="-3.680367">
        <ele>1896.0</ele>
        <time>2018-07-22T14:11:29Z</time>
      </trkpt>
      <trkpt lat="41.138250" lon="-3.680433">
        <ele>1892.0</ele>
        <time>2018-07-22T14:11:30Z</time>
      </trkpt>
      <trkpt lat="41.138200" lon="-3.680517">
        <ele>1889.0</ele>
        <time>2018-07-22T14:11:31Z</time>
      </trkpt>
      <trkpt lat="41.138150" lon="-3.680600">
        <ele>1886.0</ele>
        <time>2018-07-22T14:11:32Z</time>
      </trkpt>
      <trkpt lat="41.138100" lon="-3.680667">
        <ele>1884.0</ele>
        <time>2018-07-22T14:11:33Z</time>
      </trkpt>
      <trkpt lat="41.138050" lon="-3.680733">
        <ele>1882.0</ele>
        <time>2018-07-22T14:11:34Z</time>
      </trkpt>
      <trkpt lat="41.138000" lon="-3.680800">
        <ele>1881.0</ele>
        <time>2018-07-22T14:11:35Z</time>
      </trkpt>
      <trkpt lat="41.137967" lon="-3.680867">
        <ele>1880.0</ele>
        <time>2018-07-22T14:11:36Z</time>
      </trkpt>
      <trkpt lat="41.137933" lon="-3.680917">
        <ele>1879.0</ele>
        <time>2018-07-22T14:11:37Z</time>
      </trkpt>
      <trkpt lat="41.137900" lon="-3.680983">
        <ele>1877.0</ele>
        <time>2018-07-22T14:11:38Z</time>
      </trkpt>
      <trkpt lat="41.137850" lon="-3.681017">
        <ele>1874.0</ele>
        <time>2018-07-22T14:11:39Z</time>
      </trkpt>
      <trkpt lat="41.137783" lon="-3.681067">
        <ele>1871.0</ele>
        <time>2018-07-22T14:11:40Z</time>
      </trkpt>
      <trkpt lat="41.137700" lon="-3.681083">
        <ele>1867.0</ele>
        <time>2018-07-22T14:11:41Z</time>
      </trkpt>
      <trkpt lat="41.137600" lon="-3.681083">
        <ele>1866.0</ele>
        <time>2018-07-22T14:11:42Z</time>
      </trkpt>
      <trkpt lat="41.137500" lon="-3.681083">
        <ele>1865.0</ele>
        <time>2018-07-22T14:11:43Z</time>
      </trkpt>
      <trkpt lat="41.137417" lon="-3.681083">
        <ele>1866.0</ele>
        <time>2018-07-22T14:11:44Z</time>
      </trkpt>
      <trkpt lat="41.137350" lon="-3.681083">
        <ele>1866.0</ele>
        <time>2018-07-22T14:11:45Z</time>
      </trkpt>
      <trkpt lat="41.137283" lon="-3.681100">
        <ele>1865.0</ele>
        <time>2018-07-22T14:11:46Z</time>
      </trkpt>
      <trkpt lat="41.137233" lon="-3.681117">
        <ele>1863.0</ele>
        <time>2018-07-22T14:11:47Z</time>
      </trkpt>
      <trkpt lat="41.137167" lon="-3.681133">
        <ele>1861.0</ele>
        <time>2018-07-22T14:11:48Z</time>
      </trkpt>
      <trkpt lat="41.137100" lon="-3.681150">
        <ele>1858.0</ele>
        <time>2018-07-22T14:11:49Z</time>
      </trkpt>
      <trkpt lat="41.137017" lon="-3.681167">
        <ele>1855.0</ele>
        <time>2018-07-22T14:11:50Z</time>
      </trkpt>
      <trkpt lat="41.136933" lon="-3.681183">
        <ele>1854.0</ele>
        <time>2018-07-22T14:11:51Z</time>
      </trkpt>
      <trkpt lat="41.136867" lon="-3.681200">
        <ele>1854.0</ele>
        <time>2018-07-22T14:11:52Z</time>
      </trkpt>
      <trkpt lat="41.136783" lon="-3.681200">
        <ele>1854.0</ele>
        <time>2018-07-22T14:11:53Z</time>
      </trkpt>
      <trkpt lat="41.136733" lon="-3.681217">
        <ele>1854.0</ele>
        <time>2018-07-22T14:11:54Z</time>
      </trkpt>
      <trkpt lat="41.136667" lon="-3.681217">
        <ele>1854.0</ele>
        <time>2018-07-22T14:11:55Z</time>
      </trkpt>
      <trkpt lat="41.136600" lon="-3.681200">
        <ele>1853.0</ele>
        <time>2018-07-22T14:11:56Z</time>
      </trkpt>
      <trkpt lat="41.136533" lon="-3.681200">
        <ele>1851.0</ele>
        <time>2018-07-22T14:11:57Z</time>
      </trkpt>
      <trkpt lat="41.136467" lon="-3.681167">
        <ele>1850.0</ele>
        <time>2018-07-22T14:11:58Z</time>
      </trkpt>
      <trkpt lat="41.136383" lon="-3.681133">
        <ele>1848.0</ele>
        <time>2018-07-22T14:11:59Z</time>
      </trkpt>
      <trkpt lat="41.136300" lon="-3.681117">
        <ele>1845.0</ele>
        <time>2018-07-22T14:12:00Z</time>
      </trkpt>
      <trkpt lat="41.136217" lon="-3.681083">
        <ele>1842.0</ele>
        <time>2018-07-22T14:12:01Z</time>
      </trkpt>
      <trkpt lat="41.136117" lon="-3.681067">
        <ele>1840.0</ele>
        <time>2018-07-22T14:12:02Z</time>
      </trkpt>
      <trkpt lat="41.136017" lon="-3.681050">
        <ele>1839.0</ele>
        <time>2018-07-22T14:12:03Z</time>
      </trkpt>
      <trkpt lat="41.135917" lon="-3.681050">
        <ele>1839.0</ele>
        <time>2018-07-22T14:12:04Z</time>
      </trkpt>
      <trkpt lat="41.135833" lon="-3.681050">
        <ele>1839.0</ele>
        <time>2018-07-22T14:12:05Z</time>
      </trkpt>
      <trkpt lat="41.135767" lon="-3.681100">
        <ele>1839.0</ele>
        <time>2018-07-22T14:12:06Z</time>
      </trkpt>
      <trkpt lat="41.135700" lon="-3.681167">
        <ele>1838.0</ele>
        <time>2018-07-22T14:12:07Z</time>
      </trkpt>
      <trkpt lat="41.135667" lon="-3.681233">
        <ele>1836.0</ele>
        <time>2018-07-22T14:12:08Z</time>
      </trkpt>
      <trkpt lat="41.135617" lon="-3.681317">
        <ele>1835.0</ele>
        <time>2018-07-22T14:12:09Z</time>
      </trkpt>
      <trkpt lat="41.135600" lon="-3.681400">
        <ele>1835.0</ele>
        <time>2018-07-22T14:12:10Z</time>
      </trkpt>
      <trkpt lat="41.135567" lon="-3.681483">
        <ele>1835.0</ele>
        <time>2018-07-22T14:12:11Z</time>
      </trkpt>
      <trkpt lat="41.135533" lon="-3.681583">
        <ele>1835.0</ele>
        <time>2018-07-22T14:12:12Z</time>
      </trkpt>
      <trkpt lat="41.135517" lon="-3.681683">
        <ele>1836.0</ele>
        <time>2018-07-22T14:12:13Z</time>
      </trkpt>
      <trkpt lat="41.135483" lon="-3.681783">
        <ele>1837.0</ele>
        <time>2018-07-22T14:12:14Z</time>
      </trkpt>
      <trkpt lat="41.135467" lon="-3.681867">
        <ele>1839.0</ele>
        <time>2018-07-22T14:12:15Z</time>
      </trkpt>
      <trkpt lat="41.135450" lon="-3.681933">
        <ele>1840.0</ele>
        <time>2018-07-22T14:12:16Z</time>
      </trkpt>
      <trkpt lat="41.135417" lon="-3.682017">
        <ele>1840.0</ele>
        <time>2018-07-22T14:12:17Z</time>
      </trkpt>
      <trkpt lat="41.135383" lon="-3.682100">
        <ele>1839.0</ele>
        <time>2018-07-22T14:12:18Z</time>
      </trkpt>
      <trkpt lat="41.135367" lon="-3.682183">
        <ele>1838.0</ele>
        <time>2018-07-22T14:12:19Z</time>
      </trkpt>
      <trkpt lat="41.135350" lon="-3.682267">
        <ele>1837.0</ele>
        <time>2018-07-22T14:12:20Z</time>
      </trkpt>
      <trkpt lat="41.135350" lon="-3.682350">
        <ele>1837.0</ele>
        <time>2018-07-22T14:12:21Z</time>
      </trkpt>
      <trkpt lat="41.135383" lon="-3.682433">
        <ele>1836.0</ele>
        <time>2018-07-22T14:12:22Z</time>
      </trkpt>
      <trkpt lat="41.135433" lon="-3.682500">
        <ele>1835.0</ele>
        <time>2018-07-22T14:12:23Z</time>
      </trkpt>
      <trkpt lat="41.135517" lon="-3.682550">
        <ele>1833.0</ele>
        <time>2018-07-22T14:12:24Z</time>
      </trkpt>
      <trkpt lat="41.135617" lon="-3.682583">
        <ele>1833.0</ele>
        <time>2018-07-22T14:12:25Z</time>
      </trkpt>
      <trkpt lat="41.135717" lon="-3.682617">
        <ele>1832.0</ele>
        <time>2018-07-22T14:12:26Z</time>
      </trkpt>
      <trkpt lat="41.135817" lon="-3.682617">
        <ele>1832.0</ele>
        <time>2018-07-22T14:12:27Z</time>
      </trkpt>
      <trkpt lat="41.135917" lon="-3.682617">
        <ele>1831.0</ele>
        <time>2018-07-22T14:12:28Z</time>
      </trkpt>
      <trkpt lat="41.136033" lon="-3.682583">
        <ele>1829.0</ele>
        <time>2018-07-22T14:12:29Z</time>
      </trkpt>
      <trkpt lat="41.136133" lon="-3.682567">
        <ele>1827.0</ele>
        <time>2018-07-22T14:12:30Z</time>
      </trkpt>
      <trkpt lat="41.136250" lon="-3.682550">
        <ele>1826.0</ele>
        <time>2018-07-22T14:12:31Z</time>
      </trkpt>
      <trkpt lat="41.136367" lon="-3.682517">
        <ele>1826.0</ele>
        <time>2018-07-22T14:12:32Z</time>
      </trkpt>
      <trkpt lat="41.136467" lon="-3.682467">
        <ele>1826.0</ele>
        <time>2018-07-22T14:12:33Z</time>
      </trkpt>
      <trkpt lat="41.136567" lon="-3.682367">
        <ele>1825.0</ele>
        <time>2018-07-22T14:12:34Z</time>
      </trkpt>
      <trkpt lat="41.136667" lon="-3.682233">
        <ele>1824.0</ele>
        <time>2018-07-22T14:12:35Z</time>
      </trkpt>
      <trkpt lat="41.136733" lon="-3.682067">
        <ele>1822.0</ele>
        <time>2018-07-22T14:12:36Z</time>
      </trkpt>
      <trkpt lat="41.136783" lon="-3.681917">
        <ele>1822.0</ele>
        <time>2018-07-22T14:12:37Z</time>
      </trkpt>
      <trkpt lat="41.136817" lon="-3.681750">
        <ele>1821.0</ele>
        <time>2018-07-22T14:12:38Z</time>
      </trkpt>
      <trkpt lat="41.136833" lon="-3.681600">
        <ele>1819.0</ele>
        <time>2018-07-22T14:12:39Z</time>
      </trkpt>
      <trkpt lat="41.136833" lon="-3.681450">
        <ele>1815.0</ele>
        <time>2018-07-22T14:12:40Z</time>
      </trkpt>
      <trkpt lat="41.136833" lon="-3.681300">
        <ele>1811.0</ele>
        <time>2018-07-22T14:12:41Z</time>
      </trkpt>
      <trkpt lat="41.136817" lon="-3.681150">
        <ele>1807.0</ele>
        <time>2018-07-22T14:12:42Z</time>
      </trkpt>
      <trkpt lat="41.136800" lon="-3.681000">
        <ele>1802.0</ele>
        <time>2018-07-22T14:12:43Z</time>
      </trkpt>
      <trkpt lat="41.136767" lon="-3.680833">
        <ele>1798.0</ele>
        <time>2018-07-22T14:12:44Z</time>
      </trkpt>
      <trkpt lat="41.136717" lon="-3.680683">
        <ele>1792.0</ele>
        <time>2018-07-22T14:12:45Z</time>
      </trkpt>
      <trkpt lat="41.136650" lon="-3.680533">
        <ele>1788.0</ele>
        <time>2018-07-22T14:12:46Z</time>
      </trkpt>
      <trkpt lat="41.136567" lon="-3.680400">
        <ele>1785.0</ele>
        <time>2018-07-22T14:12:47Z</time>
      </trkpt>
      <trkpt lat="41.136483" lon="-3.680317">
        <ele>1785.0</ele>
        <time>2018-07-22T14:12:48Z</time>
      </trkpt>
      <trkpt lat="41.136417" lon="-3.680267">
        <ele>1785.0</ele>
        <time>2018-07-22T14:12:49Z</time>
      </trkpt>
      <trkpt lat="41.136350" lon="-3.680233">
        <ele>1784.0</ele>
        <time>2018-07-22T14:12:50Z</time>
      </trkpt>
      <trkpt lat="41.136267" lon="-3.680233">
        <ele>1783.0</ele>
        <time>2018-07-22T14:12:51Z</time>
      </trkpt>
      <trkpt lat="41.136183" lon="-3.680200">
        <ele>1782.0</ele>
        <time>2018-07-22T14:12:52Z</time>
      </trkpt>
      <trkpt lat="41.136100" lon="-3.680150">
        <ele>1780.0</ele>
        <time>2018-07-22T14:12:53Z</time>
      </trkpt>
      <trkpt lat="41.136000" lon="-3.680067">
        <ele>1780.0</ele>
        <time>2018-07-22T14:12:54Z</time>
      </trkpt>
      <trkpt lat="41.135917" lon="-3.680000">
        <ele>1779.0</ele>
        <time>2018-07-22T14:12:55Z</time>
      </trkpt>
      <trkpt lat="41.135850" lon="-3.679917">
        <ele>1779.0</ele>
        <time>2018-07-22T14:12:56Z</time>
      </trkpt>
      <trkpt lat="41.135767" lon="-3.679867">
        <ele>1778.0</ele>
        <time>2018-07-22T14:12:57Z</time>
      </trkpt>
      <trkpt lat="41.135700" lon="-3.679817">
        <ele>1777.0</ele>
        <time>2018-07-22T14:12:58Z</time>
      </trkpt>
      <trkpt lat="41.135600" lon="-3.679783">
        <ele>1775.0</ele>
        <time>2018-07-22T14:12:59Z</time>
      </trkpt>
      <trkpt lat="41.135517" lon="-3.679750">
        <ele>1773.0</ele>
        <time>2018-07-22T14:13:00Z</time>
      </trkpt>
      <trkpt lat="41.135417" lon="-3.679717">
        <ele>1772.0</ele>
        <time>2018-07-22T14:13:01Z</time>
      </trkpt>
      <trkpt lat="41.135300" lon="-3.679700">
        <ele>1772.0</ele>
        <time>2018-07-22T14:13:02Z</time>
      </trkpt>
      <trkpt lat="41.135217" lon="-3.679700">
        <ele>1772.0</ele>
        <time>2018-07-22T14:13:03Z</time>
      </trkpt>
      <trkpt lat="41.135133" lon="-3.679717">
        <ele>1772.0</ele>
        <time>2018-07-22T14:13:04Z</time>
      </trkpt>
      <trkpt lat="41.135050" lon="-3.679733">
        <ele>1771.0</ele>
        <time>2018-07-22T14:13:05Z</time>
      </trkpt>
      <trkpt lat="41.134950" lon="-3.679750">
        <ele>1771.0</ele>
        <time>2018-07-22T14:13:06Z</time>
      </trkpt>
      <trkpt lat="41.134867" lon="-3.679767">
        <ele>1771.0</ele>
        <time>2018-07-22T14:13:07Z</time>
      </trkpt>
      <trkpt lat="41.134767" lon="-3.679767">
        <ele>1772.0</ele>
        <time>2018-07-22T14:13:08Z</time>
      </trkpt>
      <trkpt lat="41.134667" lon="-3.679767">
        <ele>1773.0</ele>
        <time>2018-07-22T14:13:09Z</time>
      </trkpt>
      <trkpt lat="41.134583" lon="-3.679733">
        <ele>1775.0</ele>
        <time>2018-07-22T14:13:10Z</time>
      </trkpt>
      <trkpt lat="41.134500" lon="-3.679683">
        <ele>1775.0</ele>
        <time>2018-07-22T14:13:11Z</time>
      </trkpt>
      <trkpt lat="41.134400" lon="-3.679633">
        <ele>1775.0</ele>
        <time>2018-07-22T14:13:12Z</time>
      </trkpt>
      <trkpt lat="41.134300" lon="-3.679550">
        <ele>1776.0</ele>
        <time>2018-07-22T14:13:13Z</time>
      </trkpt>
      <trkpt lat="41.134217" lon="-3.679450">
        <ele>1778.0</ele>
        <time>2018-07-22T14:13:14Z</time>
      </trkpt>
      <trkpt lat="41.134133" lon="-3.679350">
        <ele>1779.0</ele>
        <time>2018-07-22T14:13:15Z</time>
      </trkpt>
      <trkpt lat="41.134050" lon="-3.679250">
        <ele>1780.0</ele>
        <time>2018-07-22T14:13:16Z</time>
      </trkpt>
      <trkpt lat="41.133967" lon="-3.679167">
        <ele>1782.0</ele>
        <time>2018-07-22T14:13:17Z</time>
      </trkpt>
      <trkpt lat="41.133883" lon="-3.679083">
        <ele>1783.0</ele>
        <time>2018-07-22T14:13:18Z</time>
      </trkpt>
      <trkpt lat="41.133800" lon="-3.678983">
        <ele>1785.0</ele>
        <time>2018-07-22T14:13:19Z</time>
      </trkpt>
      <trkpt lat="41.133717" lon="-3.678883">
        <ele>1787.0</ele>
        <time>2018-07-22T14:13:20Z</time>
      </trkpt>
      <trkpt lat="41.133650" lon="-3.678783">
        <ele>1789.0</ele>
        <time>2018-07-22T14:13:21Z</time>
      </trkpt>
      <trkpt lat="41.133583" lon="-3.678683">
        <ele>1790.0</ele>
        <time>2018-07-22T14:13:22Z</time>
      </trkpt>
      <trkpt lat="41.133517" lon="-3.678617">
        <ele>1791.0</ele>
        <time>2018-07-22T14:13:23Z</time>
      </trkpt>
      <trkpt lat="41.133433" lon="-3.678583">
        <ele>1791.0</ele>
        <time>2018-07-22T14:13:24Z</time>
      </trkpt>
      <trkpt lat="41.133317" lon="-3.678583">
        <ele>1791.0</ele>
        <time>2018-07-22T14:13:25Z</time>
      </trkpt>
      <trkpt lat="41.133217" lon="-3.678617">
        <ele>1790.0</ele>
        <time>2018-07-22T14:13:26Z</time>
      </trkpt>
      <trkpt lat="41.133117" lon="-3.678700">
        <ele>1791.0</ele>
        <time>2018-07-22T14:13:27Z</time>
      </trkpt>
      <trkpt lat="41.133033" lon="-3.678783">
        <ele>1792.0</ele>
        <time>2018-07-22T14:13:28Z</time>
      </trkpt>
      <trkpt lat="41.132950" lon="-3.678867">
        <ele>1794.0</ele>
        <time>2018-07-22T14:13:29Z</time>
      </trkpt>
      <trkpt lat="41.132900" lon="-3.678950">
        <ele>1795.0</ele>
        <time>2018-07-22T14:13:30Z</time>
      </trkpt>
      <trkpt lat="41.132850" lon="-3.679050">
        <ele>1794.0</ele>
        <time>2018-07-22T14:13:31Z</time>
      </trkpt>
      <trkpt lat="41.132800" lon="-3.679183">
        <ele>1794.0</ele>
        <time>2018-07-22T14:13:32Z</time>
      </trkpt>
      <trkpt lat="41.132767" lon="-3.679317">
        <ele>1794.0</ele>
        <time>2018-07-22T14:13:33Z</time>
      </trkpt>
      <trkpt lat="41.132750" lon="-3.679450">
        <ele>1794.0</ele>
        <time>2018-07-22T14:13:34Z</time>
      </trkpt>
      <trkpt lat="41.132750" lon="-3.679583">
        <ele>1796.0</ele>
        <time>2018-07-22T14:13:35Z</time>
      </trkpt>
      <trkpt lat="41.132767" lon="-3.679717">
        <ele>1797.0</ele>
        <time>2018-07-22T14:13:36Z</time>
      </trkpt>
      <trkpt lat="41.132800" lon="-3.679833">
        <ele>1798.0</ele>
        <time>2018-07-22T14:13:37Z</time>
      </trkpt>
      <trkpt lat="41.132833" lon="-3.679950">
        <ele>1798.0</ele>
        <time>2018-07-22T14:13:38Z</time>
      </trkpt>
      <trkpt lat="41.132883" lon="-3.680067">
        <ele>1799.0</ele>
        <time>2018-07-22T14:13:39Z</time>
      </trkpt>
      <trkpt lat="41.132933" lon="-3.680183">
        <ele>1801.0</ele>
        <time>2018-07-22T14:13:40Z</time>
      </trkpt>
      <trkpt lat="41.132983" lon="-3.680283">
        <ele>1802.0</ele>
        <time>2018-07-22T14:13:41Z</time>
      </trkpt>
      <trkpt lat="41.133033" lon="-3.680400">
        <ele>1802.0</ele>
        <time>2018-07-22T14:13:42Z</time>
      </trkpt>
      <trkpt lat="41.133100" lon="-3.680500">
        <ele>1803.0</ele>
        <time>2018-07-22T14:13:43Z</time>
      </trkpt>
      <trkpt lat="41.133183" lon="-3.680583">
        <ele>1803.0</ele>
        <time>2018-07-22T14:13:44Z</time>
      </trkpt>
      <trkpt lat="41.133283" lon="-3.680650">
        <ele>1804.0</ele>
        <time>2018-07-22T14:13:45Z</time>
      </trkpt>
      <trkpt lat="41.133383" lon="-3.680717">
        <ele>1806.0</ele>
        <time>2018-07-22T14:13:46Z</time>
      </trkpt>
      <trkpt lat="41.133483" lon="-3.680733">
        <ele>1808.0</ele>
        <time>2018-07-22T14:13:47Z</time>
      </trkpt>
      <trkpt lat="41.133567" lon="-3.680750">
        <ele>1809.0</ele>
        <time>2018-07-22T14:13:48Z</time>
      </trkpt>
      <trkpt lat="41.133650" lon="-3.680750">
        <ele>1810.0</ele>
        <time>2018-07-22T14:13:49Z</time>
      </trkpt>
      <trkpt lat="41.133733" lon="-3.680733">
        <ele>1810.0</ele>
        <time>2018-07-22T14:13:50Z</time>
      </trkpt>
      <trkpt lat="41.133833" lon="-3.680700">
        <ele>1810.0</ele>
        <time>2018-07-22T14:13:51Z</time>
      </trkpt>
      <trkpt lat="41.133933" lon="-3.680650">
        <ele>1809.0</ele>
        <time>2018-07-22T14:13:52Z</time>
      </trkpt>
      <trkpt lat="41.134033" lon="-3.680567">
        <ele>1810.0</ele>
        <time>2018-07-22T14:13:53Z</time>
      </trkpt>
      <trkpt lat="41.134100" lon="-3.680467">
        <ele>1811.0</ele>
        <time>2018-07-22T14:13:54Z</time>
      </trkpt>
      <trkpt lat="41.134150" lon="-3.680350">
        <ele>1812.0</ele>
        <time>2018-07-22T14:13:55Z</time>
      </trkpt>
      <trkpt lat="41.134183" lon="-3.680233">
        <ele>1812.0</ele>
        <time>2018-07-22T14:13:56Z</time>
      </trkpt>
      <trkpt lat="41.134183" lon="-3.680100">
        <ele>1812.0</ele>
        <time>2018-07-22T14:13:57Z</time>
      </trkpt>
      <trkpt lat="41.134183" lon="-3.679983">
        <ele>1812.0</ele>
        <time>2018-07-22T14:13:58Z</time>
      </trkpt>
      <trkpt lat="41.134167" lon="-3.679867">
        <ele>1812.0</ele>
        <time>2018-07-22T14:13:59Z</time>
      </trkpt>
      <trkpt lat="41.134117" lon="-3.679750">
        <ele>1812.0</ele>
        <time>2018-07-22T14:14:00Z</time>
      </trkpt>
      <trkpt lat="41.134067" lon="-3.679650">
        <ele>1813.0</ele>
        <time>2018-07-22T14:14:01Z</time>
      </trkpt>
      <trkpt lat="41.134000" lon="-3.679550">
        <ele>1813.0</ele>
        <time>2018-07-22T14:14:02Z</time>
      </trkpt>
      <trkpt lat="41.133933" lon="-3.679467">
        <ele>1813.0</ele>
        <time>2018-07-22T14:14:03Z</time>
      </trkpt>
      <trkpt lat="41.133867" lon="-3.679383">
        <ele>1814.0</ele>
        <time>2018-07-22T14:14:04Z</time>
      </trkpt>
      <trkpt lat="41.133783" lon="-3.679300">
        <ele>1815.0</ele>
        <time>2018-07-22T14:14:05Z</time>
      </trkpt>
      <trkpt lat="41.133700" lon="-3.679250">
        <ele>1815.0</ele>
        <time>2018-07-22T14:14:06Z</time>
      </trkpt>
      <trkpt lat="41.133617" lon="-3.679200">
        <ele>1816.0</ele>
        <time>2018-07-22T14:14:07Z</time>
      </trkpt>
      <trkpt lat="41.133550" lon="-3.679150">
        <ele>1817.0</ele>
        <time>2018-07-22T14:14:08Z</time>
      </trkpt>
      <trkpt lat="41.133467" lon="-3.679117">
        <ele>1817.0</ele>
        <time>2018-07-22T14:14:09Z</time>
      </trkpt>
      <trkpt lat="41.133400" lon="-3.679083">
        <ele>1816.0</ele>
        <time>2018-07-22T14:14:10Z</time>
      </trkpt>
      <trkpt lat="41.133317" lon="-3.679067">
        <ele>1815.0</ele>
        <time>2018-07-22T14:14:11Z</time>
      </trkpt>
      <trkpt lat="41.133233" lon="-3.679067">
        <ele>1813.0</ele>
        <time>2018-07-22T14:14:12Z</time>
      </trkpt>
      <trkpt lat="41.133150" lon="-3.679100">
        <ele>1812.0</ele>
        <time>2018-07-22T14:14:13Z</time>
      </trkpt>
      <trkpt lat="41.133050" lon="-3.679167">
        <ele>1811.0</ele>
        <time>2018-07-22T14:14:14Z</time>
      </trkpt>
      <trkpt lat="41.132967" lon="-3.679250">
        <ele>1812.0</ele>
        <time>2018-07-22T14:14:15Z</time>
      </trkpt>
      <trkpt lat="41.132900" lon="-3.679350">
        <ele>1812.0</ele>
        <time>2018-07-22T14:14:16Z</time>
      </trkpt>
      <trkpt lat="41.132850" lon="-3.679433">
        <ele>1813.0</ele>
        <time>2018-07-22T14:14:17Z</time>
      </trkpt>
      <trkpt lat="41.132783" lon="-3.679533">
        <ele>1813.0</ele>
        <time>2018-07-22T14:14:18Z</time>
      </trkpt>
      <trkpt lat="41.132733" lon="-3.679617">
        <ele>1813.0</ele>
        <time>2018-07-22T14:14:19Z</time>
      </trkpt>
      <trkpt lat="41.132667" lon="-3.679700">
        <ele>1814.0</ele>
        <time>2018-07-22T14:14:20Z</time>
      </trkpt>
      <trkpt lat="41.132600" lon="-3.679800">
        <ele>1814.0</ele>
        <time>2018-07-22T14:14:21Z</time>
      </trkpt>
      <trkpt lat="41.132533" lon="-3.679900">
        <ele>1815.0</ele>
        <time>2018-07-22T14:14:22Z</time>
      </trkpt>
      <trkpt lat="41.132467" lon="-3.680000">
        <ele>1817.0</ele>
        <time>2018-07-22T14:14:23Z</time>
      </trkpt>
      <trkpt lat="41.132400" lon="-3.680083">
        <ele>1820.0</ele>
        <time>2018-07-22T14:14:24Z</time>
      </trkpt>
      <trkpt lat="41.132317" lon="-3.680150">
        <ele>1823.0</ele>
        <time>2018-07-22T14:14:25Z</time>
      </trkpt>
      <trkpt lat="41.132233" lon="-3.680217">
        <ele>1825.0</ele>
        <time>2018-07-22T14:14:26Z</time>
      </trkpt>
      <trkpt lat="41.132167" lon="-3.680267">
        <ele>1826.0</ele>
        <time>2018-07-22T14:14:27Z</time>
      </trkpt>
      <trkpt lat="41.132100" lon="-3.680317">
        <ele>1827.0</ele>
        <time>2018-07-22T14:14:28Z</time>
      </trkpt>
      <trkpt lat="41.132017" lon="-3.680383">
        <ele>1827.0</ele>
        <time>2018-07-22T14:14:29Z</time>
      </trkpt>
      <trkpt lat="41.131950" lon="-3.680467">
        <ele>1827.0</ele>
        <time>2018-07-22T14:14:30Z</time>
      </trkpt>
      <trkpt lat="41.131883" lon="-3.680550">
        <ele>1827.0</ele>
        <time>2018-07-22T14:14:31Z</time>
      </trkpt>
      <trkpt lat="41.131833" lon="-3.680633">
        <ele>1827.0</ele>
        <time>2018-07-22T14:14:32Z</time>
      </trkpt>
      <trkpt lat="41.131783" lon="-3.680717">
        <ele>1829.0</ele>
        <time>2018-07-22T14:14:33Z</time>
      </trkpt>
      <trkpt lat="41.131733" lon="-3.680783">
        <ele>1829.0</ele>
        <time>2018-07-22T14:14:34Z</time>
      </trkpt>
      <trkpt lat="41.131700" lon="-3.680833">
        <ele>1829.0</ele>
        <time>2018-07-22T14:14:35Z</time>
      </trkpt>
      <trkpt lat="41.131683" lon="-3.680900">
        <ele>1828.0</ele>
        <time>2018-07-22T14:14:36Z</time>
      </trkpt>
      <trkpt lat="41.131667" lon="-3.680950">
        <ele>1826.0</ele>
        <time>2018-07-22T14:14:37Z</time>
      </trkpt>
      <trkpt lat="41.131667" lon="-3.681017">
        <ele>1824.0</ele>
        <time>2018-07-22T14:14:38Z</time>
      </trkpt>
      <trkpt lat="41.131700" lon="-3.681083">
        <ele>1822.0</ele>
        <time>2018-07-22T14:14:39Z</time>
      </trkpt>
      <trkpt lat="41.131717" lon="-3.681150">
        <ele>1820.0</ele>
        <time>2018-07-22T14:14:40Z</time>
      </trkpt>
      <trkpt lat="41.131767" lon="-3.681233">
        <ele>1819.0</ele>
        <time>2018-07-22T14:14:41Z</time>
      </trkpt>
      <trkpt lat="41.131817" lon="-3.681317">
        <ele>1819.0</ele>
        <time>2018-07-22T14:14:42Z</time>
      </trkpt>
      <trkpt lat="41.131883" lon="-3.681367">
        <ele>1818.0</ele>
        <time>2018-07-22T14:14:43Z</time>
      </trkpt>
      <trkpt lat="41.131950" lon="-3.681400">
        <ele>1817.0</ele>
        <time>2018-07-22T14:14:44Z</time>
      </trkpt>
      <trkpt lat="41.132033" lon="-3.681400">
        <ele>1816.0</ele>
        <time>2018-07-22T14:14:45Z</time>
      </trkpt>
      <trkpt lat="41.132133" lon="-3.681367">
        <ele>1814.0</ele>
        <time>2018-07-22T14:14:46Z</time>
      </trkpt>
      <trkpt lat="41.132217" lon="-3.681317">
        <ele>1813.0</ele>
        <time>2018-07-22T14:14:47Z</time>
      </trkpt>
      <trkpt lat="41.132283" lon="-3.681250">
        <ele>1811.0</ele>
        <time>2018-07-22T14:14:48Z</time>
      </trkpt>
      <trkpt lat="41.132350" lon="-3.681150">
        <ele>1809.0</ele>
        <time>2018-07-22T14:14:49Z</time>
      </trkpt>
      <trkpt lat="41.132417" lon="-3.681050">
        <ele>1807.0</ele>
        <time>2018-07-22T14:14:50Z</time>
      </trkpt>
      <trkpt lat="41.132467" lon="-3.680933">
        <ele>1805.0</ele>
        <time>2018-07-22T14:14:51Z</time>
      </trkpt>
      <trkpt lat="41.132517" lon="-3.680800">
        <ele>1804.0</ele>
        <time>2018-07-22T14:14:52Z</time>
      </trkpt>
      <trkpt lat="41.132550" lon="-3.680650">
        <ele>1804.0</ele>
        <time>2018-07-22T14:14:53Z</time>
      </trkpt>
      <trkpt lat="41.132567" lon="-3.680500">
        <ele>1805.0</ele>
        <time>2018-07-22T14:14:54Z</time>
      </trkpt>
      <trkpt lat="41.132567" lon="-3.680367">
        <ele>1805.0</ele>
        <time>2018-07-22T14:14:55Z</time>
      </trkpt>
      <trkpt lat="41.132550" lon="-3.680217">
        <ele>1805.0</ele>
        <time>2018-07-22T14:14:56Z</time>
      </trkpt>
      <trkpt lat="41.132533" lon="-3.680083">
        <ele>1805.0</ele>
        <time>2018-07-22T14:14:57Z</time>
      </trkpt>
      <trkpt lat="41.132500" lon="-3.679950">
        <ele>1804.0</ele>
        <time>2018-07-22T14:14:58Z</time>
      </trkpt>
      <trkpt lat="41.132450" lon="-3.679817">
        <ele>1804.0</ele>
        <time>2018-07-22T14:14:59Z</time>
      </trkpt>
      <trkpt lat="41.132400" lon="-3.679683">
        <ele>1805.0</ele>
        <time>2018-07-22T14:15:00Z</time>
      </trkpt>
      <trkpt lat="41.132350" lon="-3.679583">
        <ele>1807.0</ele>
        <time>2018-07-22T14:15:01Z</time>
      </trkpt>
      <trkpt lat="41.132283" lon="-3.679467">
        <ele>1807.0</ele>
        <time>2018-07-22T14:15:02Z</time>
      </trkpt>
      <trkpt lat="41.132217" lon="-3.679383">
        <ele>1808.0</ele>
        <time>2018-07-22T14:15:03Z</time>
      </trkpt>
      <trkpt lat="41.132133" lon="-3.679300">
        <ele>1809.0</ele>
        <time>2018-07-22T14:15:04Z</time>
      </trkpt>
      <trkpt lat="41.132050" lon="-3.679217">
        <ele>1813.0</ele>
        <time>2018-07-22T14:15:05Z</time>
      </trkpt>
      <trkpt lat="41.131967" lon="-3.679133">
        <ele>1817.0</ele>
        <time>2018-07-22T14:15:06Z</time>
      </trkpt>
      <trkpt lat="41.131900" lon="-3.679067">
        <ele>1821.0</ele>
        <time>2018-07-22T14:15:07Z</time>
      </trkpt>
      <trkpt lat="41.131817" lon="-3.678983">
        <ele>1824.0</ele>
        <time>2018-07-22T14:15:08Z</time>
      </trkpt>
      <trkpt lat="41.131750" lon="-3.678917">
        <ele>1827.0</ele>
        <time>2018-07-22T14:15:09Z</time>
      </trkpt>
      <trkpt lat="41.131700" lon="-3.678817">
        <ele>1829.0</ele>
        <time>2018-07-22T14:15:10Z</time>
      </trkpt>
      <trkpt lat="41.131633" lon="-3.678700">
        <ele>1831.0</ele>
        <time>2018-07-22T14:15:11Z</time>
      </trkpt>
      <trkpt lat="41.131600" lon="-3.678583">
        <ele>1834.0</ele>
        <time>2018-07-22T14:15:12Z</time>
      </trkpt>
      <trkpt lat="41.131567" lon="-3.678450">
        <ele>1837.0</ele>
        <time>2018-07-22T14:15:13Z</time>
      </trkpt>
      <trkpt lat="41.131533" lon="-3.678300">
        <ele>1840.0</ele>
        <time>2018-07-22T14:15:14Z</time>
      </trkpt>
      <trkpt lat="41.131533" lon="-3.678150">
        <ele>1842.0</ele>
        <time>2018-07-22T14:15:15Z</time>
      </trkpt>
      <trkpt lat="41.131567" lon="-3.678017">
        <ele>1845.0</ele>
        <time>2018-07-22T14:15:16Z</time>
      </trkpt>
      <trkpt lat="41.131633" lon="-3.677883">
        <ele>1846.0</ele>
        <time>2018-07-22T14:15:17Z</time>
      </trkpt>
      <trkpt lat="41.131717" lon="-3.677783">
        <ele>1847.0</ele>
        <time>2018-07-22T14:15:18Z</time>
      </trkpt>
      <trkpt lat="41.131817" lon="-3.677717">
        <ele>1848.0</ele>
        <time>2018-07-22T14:15:19Z</time>
      </trkpt>
      <trkpt lat="41.131933" lon="-3.677700">
        <ele>1850.0</ele>
        <time>2018-07-22T14:15:20Z</time>
      </trkpt>
      <trkpt lat="41.132033" lon="-3.677733">
        <ele>1851.0</ele>
        <time>2018-07-22T14:15:21Z</time>
      </trkpt>
      <trkpt lat="41.132117" lon="-3.677817">
        <ele>1852.0</ele>
        <time>2018-07-22T14:15:22Z</time>
      </trkpt>
      <trkpt lat="41.132167" lon="-3.677950">
        <ele>1852.0</ele>
        <time>2018-07-22T14:15:23Z</time>
      </trkpt>
      <trkpt lat="41.132183" lon="-3.678083">
        <ele>1853.0</ele>
        <time>2018-07-22T14:15:24Z</time>
      </trkpt>
      <trkpt lat="41.132150" lon="-3.678233">
        <ele>1854.0</ele>
        <time>2018-07-22T14:15:25Z</time>
      </trkpt>
      <trkpt lat="41.132083" lon="-3.678350">
        <ele>1857.0</ele>
        <time>2018-07-22T14:15:26Z</time>
      </trkpt>
      <trkpt lat="41.132000" lon="-3.678433">
        <ele>1859.0</ele>
        <time>2018-07-22T14:15:27Z</time>
      </trkpt>
      <trkpt lat="41.131900" lon="-3.678517">
        <ele>1861.0</ele>
        <time>2018-07-22T14:15:28Z</time>
      </trkpt>
      <trkpt lat="41.131800" lon="-3.678567">
        <ele>1864.0</ele>
        <time>2018-07-22T14:15:29Z</time>
      </trkpt>
      <trkpt lat="41.131700" lon="-3.678617">
        <ele>1866.0</ele>
        <time>2018-07-22T14:15:30Z</time>
      </trkpt>
      <trkpt lat="41.131583" lon="-3.678650">
        <ele>1867.0</ele>
        <time>2018-07-22T14:15:31Z</time>
      </trkpt>
      <trkpt lat="41.131450" lon="-3.678650">
        <ele>1869.0</ele>
        <time>2018-07-22T14:15:32Z</time>
      </trkpt>
      <trkpt lat="41.131333" lon="-3.678567">
        <ele>1869.0</ele>
        <time>2018-07-22T14:15:33Z</time>
      </trkpt>
      <trkpt lat="41.131233" lon="-3.678400">
        <ele>1869.0</ele>
        <time>2018-07-22T14:15:34Z</time>
      </trkpt>
      <trkpt lat="41.131217" lon="-3.678183">
        <ele>1869.0</ele>
        <time>2018-07-22T14:15:35Z</time>
      </trkpt>
      <trkpt lat="41.131217" lon="-3.677983">
        <ele>1871.0</ele>
        <time>2018-07-22T14:15:36Z</time>
      </trkpt>
      <trkpt lat="41.131250" lon="-3.677817">
        <ele>1874.0</ele>
        <time>2018-07-22T14:15:37Z</time>
      </trkpt>
      <trkpt lat="41.131267" lon="-3.677667">
        <ele>1878.0</ele>
        <time>2018-07-22T14:15:38Z</time>
      </trkpt>
      <trkpt lat="41.131300" lon="-3.677517">
        <ele>1880.0</ele>
        <time>2018-07-22T14:15:39Z</time>
      </trkpt>
      <trkpt lat="41.131333" lon="-3.677383">
        <ele>1882.0</ele>
        <time>2018-07-22T14:15:40Z</time>
      </trkpt>
      <trkpt lat="41.131400" lon="-3.677267">
        <ele>1883.0</ele>
        <time>2018-07-22T14:15:41Z</time>
      </trkpt>
      <trkpt lat="41.131483" lon="-3.677150">
        <ele>1885.0</ele>
        <time>2018-07-22T14:15:42Z</time>
      </trkpt>
      <trkpt lat="41.131583" lon="-3.677050">
        <ele>1888.0</ele>
        <time>2018-07-22T14:15:43Z</time>
      </trkpt>
      <trkpt lat="41.131667" lon="-3.676967">
        <ele>1892.0</ele>
        <time>2018-07-22T14:15:44Z</time>
      </trkpt>
      <trkpt lat="41.131750" lon="-3.676867">
        <ele>1897.0</ele>
        <time>2018-07-22T14:15:45Z</time>
      </trkpt>
      <trkpt lat="41.131817" lon="-3.676767">
        <ele>1901.0</ele>
        <time>2018-07-22T14:15:46Z</time>
      </trkpt>
      <trkpt lat="41.131867" lon="-3.676667">
        <ele>1903.0</ele>
        <time>2018-07-22T14:15:47Z</time>
      </trkpt>
      <trkpt lat="41.131933" lon="-3.676583">
        <ele>1905.0</ele>
        <time>2018-07-22T14:15:48Z</time>
      </trkpt>
      <trkpt lat="41.132017" lon="-3.676500">
        <ele>1905.0</ele>
        <time>2018-07-22T14:15:49Z</time>
      </trkpt>
      <trkpt lat="41.132133" lon="-3.676483">
        <ele>1904.0</ele>
        <time>2018-07-22T14:15:50Z</time>
      </trkpt>
      <trkpt lat="41.132250" lon="-3.676483">
        <ele>1905.0</ele>
        <time>2018-07-22T14:15:51Z</time>
      </trkpt>
      <trkpt lat="41.132350" lon="-3.676533">
        <ele>1906.0</ele>
        <time>2018-07-22T14:15:52Z</time>
      </trkpt>
      <trkpt lat="41.132417" lon="-3.676617">
        <ele>1908.0</ele>
        <time>2018-07-22T14:15:53Z</time>
      </trkpt>
      <trkpt lat="41.132467" lon="-3.676717">
        <ele>1910.0</ele>
        <time>2018-07-22T14:15:54Z</time>
      </trkpt>
      <trkpt lat="41.132500" lon="-3.676817">
        <ele>1911.0</ele>
        <time>2018-07-22T14:15:55Z</time>
      </trkpt>
      <trkpt lat="41.132500" lon="-3.676933">
        <ele>1912.0</ele>
        <time>2018-07-22T14:15:56Z</time>
      </trkpt>
      <trkpt lat="41.132467" lon="-3.677033">
        <ele>1914.0</ele>
        <time>2018-07-22T14:15:57Z</time>
      </trkpt>
      <trkpt lat="41.132417" lon="-3.677117">
        <ele>1915.0</ele>
        <time>2018-07-22T14:15:58Z</time>
      </trkpt>
      <trkpt lat="41.132333" lon="-3.677183">
        <ele>1917.0</ele>
        <time>2018-07-22T14:15:59Z</time>
      </trkpt>
      <trkpt lat="41.132250" lon="-3.677217">
        <ele>1918.0</ele>
        <time>2018-07-22T14:16:00Z</time>
      </trkpt>
      <trkpt lat="41.132150" lon="-3.677217">
        <ele>1919.0</ele>
        <time>2018-07-22T14:16:01Z</time>
      </trkpt>
      <trkpt lat="41.132050" lon="-3.677183">
        <ele>1920.0</ele>
        <time>2018-07-22T14:16:02Z</time>
      </trkpt>
      <trkpt lat="41.131950" lon="-3.677117">
        <ele>1922.0</ele>
        <time>2018-07-22T14:16:03Z</time>
      </trkpt>
      <trkpt lat="41.131867" lon="-3.677017">
        <ele>1923.0</ele>
        <time>2018-07-22T14:16:04Z</time>
      </trkpt>
      <trkpt lat="41.131783" lon="-3.676900">
        <ele>1924.0</ele>
        <time>2018-07-22T14:16:05Z</time>
      </trkpt>
      <trkpt lat="41.131717" lon="-3.676767">
        <ele>1927.0</ele>
        <time>2018-07-22T14:16:06Z</time>
      </trkpt>
      <trkpt lat="41.131683" lon="-3.676617">
        <ele>1932.0</ele>
        <time>2018-07-22T14:16:07Z</time>
      </trkpt>
      <trkpt lat="41.131650" lon="-3.676483">
        <ele>1936.0</ele>
        <time>2018-07-22T14:16:08Z</time>
      </trkpt>
      <trkpt lat="41.131633" lon="-3.676333">
        <ele>1940.0</ele>
        <time>2018-07-22T14:16:09Z</time>
      </trkpt>
      <trkpt lat="41.131617" lon="-3.676200">
        <ele>1943.0</ele>
        <time>2018-07-22T14:16:10Z</time>
      </trkpt>
      <trkpt lat="41.131600" lon="-3.676050">
        <ele>1946.0</ele>
        <time>2018-07-22T14:16:11Z</time>
      </trkpt>
      <trkpt lat="41.131583" lon="-3.675917">
        <ele>1950.0</ele>
        <time>2018-07-22T14:16:12Z</time>
      </trkpt>
      <trkpt lat="41.131567" lon="-3.675783">
        <ele>1953.0</ele>
        <time>2018-07-22T14:16:13Z</time>
      </trkpt>
      <trkpt lat="41.131567" lon="-3.675650">
        <ele>1955.0</ele>
        <time>2018-07-22T14:16:14Z</time>
      </trkpt>
      <trkpt lat="41.131550" lon="-3.675517">
        <ele>1957.0</ele>
        <time>2018-07-22T14:16:15Z</time>
      </trkpt>
      <trkpt lat="41.131533" lon="-3.675383">
        <ele>1959.0</ele>
        <time>2018-07-22T14:16:16Z</time>
      </trkpt>
      <trkpt lat="41.131500" lon="-3.675267">
        <ele>1960.0</ele>
        <time>2018-07-22T14:16:17Z</time>
      </trkpt>
      <trkpt lat="41.131483" lon="-3.675133">
        <ele>1961.0</ele>
        <time>2018-07-22T14:16:18Z</time>
      </trkpt>
      <trkpt lat="41.131467" lon="-3.675017">
        <ele>1961.0</ele>
        <time>2018-07-22T14:16:19Z</time>
      </trkpt>
      <trkpt lat="41.131483" lon="-3.674900">
        <ele>1962.0</ele>
        <time>2018-07-22T14:16:20Z</time>
      </trkpt>
      <trkpt lat="41.131517" lon="-3.674783">
        <ele>1961.0</ele>
        <time>2018-07-22T14:16:21Z</time>
      </trkpt>
      <trkpt lat="41.131583" lon="-3.674683">
        <ele>1961.0</ele>
        <time>2018-07-22T14:16:22Z</time>
      </trkpt>
      <trkpt lat="41.131683" lon="-3.674600">
        <ele>1961.0</ele>
        <time>2018-07-22T14:16:23Z</time>
      </trkpt>
      <trkpt lat="41.131767" lon="-3.674567">
        <ele>1962.0</ele>
        <time>2018-07-22T14:16:24Z</time>
      </trkpt>
      <trkpt lat="41.131850" lon="-3.674550">
        <ele>1965.0</ele>
        <time>2018-07-22T14:16:25Z</time>
      </trkpt>
      <trkpt lat="41.131917" lon="-3.674567">
        <ele>1967.0</ele>
        <time>2018-07-22T14:16:26Z</time>
      </trkpt>
      <trkpt lat="41.131983" lon="-3.674600">
        <ele>1969.0</ele>
        <time>2018-07-22T14:16:27Z</time>
      </trkpt>
      <trkpt lat="41.132033" lon="-3.674650">
        <ele>1970.0</ele>
        <time>2018-07-22T14:16:28Z</time>
      </trkpt>
      <trkpt lat="41.132100" lon="-3.674717">
        <ele>1971.0</ele>
        <time>2018-07-22T14:16:29Z</time>
      </trkpt>
      <trkpt lat="41.132150" lon="-3.674817">
        <ele>1972.0</ele>
        <time>2018-07-22T14:16:30Z</time>
      </trkpt>
      <trkpt lat="41.132200" lon="-3.674917">
        <ele>1974.0</ele>
        <time>2018-07-22T14:16:31Z</time>
      </trkpt>
      <trkpt lat="41.132217" lon="-3.675033">
        <ele>1975.0</ele>
        <time>2018-07-22T14:16:32Z</time>
      </trkpt>
      <trkpt lat="41.132200" lon="-3.675150">
        <ele>1976.0</ele>
        <time>2018-07-22T14:16:33Z</time>
      </trkpt>
      <trkpt lat="41.132167" lon="-3.675233">
        <ele>1977.0</ele>
        <time>2018-07-22T14:16:34Z</time>
      </trkpt>
      <trkpt lat="41.132117" lon="-3.675317">
        <ele>1976.0</ele>
        <time>2018-07-22T14:16:35Z</time>
      </trkpt>
      <trkpt lat="41.132067" lon="-3.675383">
        <ele>1975.0</ele>
        <time>2018-07-22T14:16:36Z</time>
      </trkpt>
      <trkpt lat="41.131983" lon="-3.675417">
        <ele>1974.0</ele>
        <time>2018-07-22T14:16:37Z</time>
      </trkpt>
      <trkpt lat="41.131883" lon="-3.675433">
        <ele>1974.0</ele>
        <time>2018-07-22T14:16:38Z</time>
      </trkpt>
      <trkpt lat="41.131783" lon="-3.675417">
        <ele>1974.0</ele>
        <time>2018-07-22T14:16:39Z</time>
      </trkpt>
      <trkpt lat="41.131683" lon="-3.675367">
        <ele>1976.0</ele>
        <time>2018-07-22T14:16:40Z</time>
      </trkpt>
      <trkpt lat="41.131600" lon="-3.675317">
        <ele>1978.0</ele>
        <time>2018-07-22T14:16:41Z</time>
      </trkpt>
      <trkpt lat="41.131517" lon="-3.675267">
        <ele>1979.0</ele>
        <time>2018-07-22T14:16:42Z</time>
      </trkpt>
      <trkpt lat="41.131433" lon="-3.675200">
        <ele>1981.0</ele>
        <time>2018-07-22T14:16:43Z</time>
      </trkpt>
      <trkpt lat="41.131333" lon="-3.675117">
        <ele>1981.0</ele>
        <time>2018-07-22T14:16:44Z</time>
      </trkpt>
      <trkpt lat="41.131250" lon="-3.675033">
        <ele>1982.0</ele>
        <time>2018-07-22T14:16:45Z</time>
      </trkpt>
      <trkpt lat="41.131150" lon="-3.674950">
        <ele>1984.0</ele>
        <time>2018-07-22T14:16:46Z</time>
      </trkpt>
      <trkpt lat="41.131050" lon="-3.674867">
        <ele>1986.0</ele>
        <time>2018-07-22T14:16:47Z</time>
      </trkpt>
      <trkpt lat="41.130950" lon="-3.674783">
        <ele>1988.0</ele>
        <time>2018-07-22T14:16:48Z</time>
      </trkpt>
      <trkpt lat="41.130867" lon="-3.674700">
        <ele>1991.0</ele>
        <time>2018-07-22T14:16:49Z</time>
      </trkpt>
      <trkpt lat="41.130767" lon="-3.674633">
        <ele>1994.0</ele>
        <time>2018-07-22T14:16:50Z</time>
      </trkpt>
      <trkpt lat="41.130683" lon="-3.674550">
        <ele>1996.0</ele>
        <time>2018-07-22T14:16:51Z</time>
      </trkpt>
      <trkpt lat="41.130583" lon="-3.674467">
        <ele>1999.0</ele>
        <time>2018-07-22T14:16:52Z</time>
      </trkpt>
      <trkpt lat="41.130483" lon="-3.674400">
        <ele>2001.0</ele>
        <time>2018-07-22T14:16:53Z</time>
      </trkpt>
      <trkpt lat="41.130383" lon="-3.674350">
        <ele>2003.0</ele>
        <time>2018-07-22T14:16:54Z</time>
      </trkpt>
      <trkpt lat="41.130283" lon="-3.674300">
        <ele>2005.0</ele>
        <time>2018-07-22T14:16:55Z</time>
      </trkpt>
      <trkpt lat="41.130183" lon="-3.674250">
        <ele>2007.0</ele>
        <time>2018-07-22T14:16:56Z</time>
      </trkpt>
      <trkpt lat="41.130083" lon="-3.674200">
        <ele>2009.0</ele>
        <time>2018-07-22T14:16:57Z</time>
      </trkpt>
      <trkpt lat="41.130000" lon="-3.674117">
        <ele>2011.0</ele>
        <time>2018-07-22T14:16:58Z</time>
      </trkpt>
      <trkpt lat="41.129933" lon="-3.674000">
        <ele>2012.0</ele>
        <time>2018-07-22T14:16:59Z</time>
      </trkpt>
      <trkpt lat="41.129867" lon="-3.673867">
        <ele>2013.0</ele>
        <time>2018-07-22T14:17:00Z</time>
      </trkpt>
      <trkpt lat="41.129833" lon="-3.673733">
        <ele>2015.0</ele>
        <time>2018-07-22T14:17:01Z</time>
      </trkpt>
      <trkpt lat="41.129817" lon="-3.673600">
        <ele>2017.0</ele>
        <time>2018-07-22T14:17:02Z</time>
      </trkpt>
      <trkpt lat="41.129817" lon="-3.673467">
        <ele>2019.0</ele>
        <time>2018-07-22T14:17:03Z</time>
      </trkpt>
      <trkpt lat="41.129833" lon="-3.673333">
        <ele>2019.0</ele>
        <time>2018-07-22T14:17:04Z</time>
      </trkpt>
      <trkpt lat="41.129867" lon="-3.673200">
        <ele>2020.0</ele>
        <time>2018-07-22T14:17:05Z</time>
      </trkpt>
      <trkpt lat="41.129900" lon="-3.673067">
        <ele>2020.0</ele>
        <time>2018-07-22T14:17:06Z</time>
      </trkpt>
      <trkpt lat="41.129967" lon="-3.672933">
        <ele>2020.0</ele>
        <time>2018-07-22T14:17:07Z</time>
      </trkpt>
      <trkpt lat="41.130033" lon="-3.672833">
        <ele>2021.0</ele>
        <time>2018-07-22T14:17:08Z</time>
      </trkpt>
      <trkpt lat="41.130133" lon="-3.672783">
        <ele>2021.0</ele>
        <time>2018-07-22T14:17:09Z</time>
      </trkpt>
      <trkpt lat="41.130217" lon="-3.672767">
        <ele>2020.0</ele>
        <time>2018-07-22T14:17:10Z</time>
      </trkpt>
      <trkpt lat="41.130317" lon="-3.672817">
        <ele>2019.0</ele>
        <time>2018-07-22T14:17:11Z</time>
      </trkpt>
      <trkpt lat="41.130383" lon="-3.672900">
        <ele>2019.0</ele>
        <time>2018-07-22T14:17:12Z</time>
      </trkpt>
      <trkpt lat="41.130400" lon="-3.673000">
        <ele>2021.0</ele>
        <time>2018-07-22T14:17:13Z</time>
      </trkpt>
      <trkpt lat="41.130417" lon="-3.673083">
        <ele>2022.0</ele>
        <time>2018-07-22T14:17:14Z</time>
      </trkpt>
      <trkpt lat="41.130383" lon="-3.673167">
        <ele>2023.0</ele>
        <time>2018-07-22T14:17:15Z</time>
      </trkpt>
      <trkpt lat="41.130333" lon="-3.673233">
        <ele>2022.0</ele>
        <time>2018-07-22T14:17:16Z</time>
      </trkpt>
      <trkpt lat="41.130267" lon="-3.673300">
        <ele>2022.0</ele>
        <time>2018-07-22T14:17:17Z</time>
      </trkpt>
      <trkpt lat="41.130167" lon="-3.673350">
        <ele>2022.0</ele>
        <time>2018-07-22T14:17:18Z</time>
      </trkpt>
      <trkpt lat="41.130067" lon="-3.673383">
        <ele>2023.0</ele>
        <time>2018-07-22T14:17:19Z</time>
      </trkpt>
      <trkpt lat="41.129967" lon="-3.673400">
        <ele>2025.0</ele>
        <time>2018-07-22T14:17:20Z</time>
      </trkpt>
      <trkpt lat="41.129867" lon="-3.673400">
        <ele>2028.0</ele>
        <time>2018-07-22T14:17:21Z</time>
      </trkpt>
      <trkpt lat="41.129767" lon="-3.673400">
        <ele>2030.0</ele>
        <time>2018-07-22T14:17:22Z</time>
      </trkpt>
      <trkpt lat="41.129650" lon="-3.673383">
        <ele>2031.0</ele>
        <time>2018-07-22T14:17:23Z</time>
      </trkpt>
      <trkpt lat="41.129533" lon="-3.673383">
        <ele>2032.0</ele>
        <time>2018-07-22T14:17:24Z</time>
      </trkpt>
      <trkpt lat="41.129433" lon="-3.673400">
        <ele>2034.0</ele>
        <time>2018-07-22T14:17:25Z</time>
      </trkpt>
      <trkpt lat="41.129317" lon="-3.673400">
        <ele>2036.0</ele>
        <time>2018-07-22T14:17:26Z</time>
      </trkpt>
      <trkpt lat="41.129217" lon="-3.673400">
        <ele>2039.0</ele>
        <time>2018-07-22T14:17:27Z</time>
      </trkpt>
      <trkpt lat="41.129117" lon="-3.673383">
        <ele>2041.0</ele>
        <time>2018-07-22T14:17:28Z</time>
      </trkpt>
      <trkpt lat="41.129017" lon="-3.673367">
        <ele>2045.0</ele>
        <time>2018-07-22T14:17:29Z</time>
      </trkpt>
      <trkpt lat="41.128917" lon="-3.673333">
        <ele>2047.0</ele>
        <time>2018-07-22T14:17:30Z</time>
      </trkpt>
      <trkpt lat="41.128817" lon="-3.673283">
        <ele>2049.0</ele>
        <time>2018-07-22T14:17:31Z</time>
      </trkpt>
      <trkpt lat="41.128700" lon="-3.673250">
        <ele>2051.0</ele>
        <time>2018-07-22T14:17:32Z</time>
      </trkpt>
      <trkpt lat="41.128600" lon="-3.673217">
        <ele>2052.0</ele>
        <time>2018-07-22T14:17:33Z</time>
      </trkpt>
      <trkpt lat="41.128467" lon="-3.673183">
        <ele>2053.0</ele>
        <time>2018-07-22T14:17:34Z</time>
      </trkpt>
      <trkpt lat="41.128350" lon="-3.673117">
        <ele>2056.0</ele>
        <time>2018-07-22T14:17:35Z</time>
      </trkpt>
      <trkpt lat="41.128233" lon="-3.673033">
        <ele>2059.0</ele>
        <time>2018-07-22T14:17:36Z</time>
      </trkpt>
      <trkpt lat="41.128150" lon="-3.672917">
        <ele>2061.0</ele>
        <time>2018-07-22T14:17:37Z</time>
      </trkpt>
      <trkpt lat="41.128083" lon="-3.672783">
        <ele>2063.0</ele>
        <time>2018-07-22T14:17:38Z</time>
      </trkpt>
      <trkpt lat="41.128033" lon="-3.672633">
        <ele>2065.0</ele>
        <time>2018-07-22T14:17:39Z</time>
      </trkpt>
      <trkpt lat="41.128017" lon="-3.672467">
        <ele>2068.0</ele>
        <time>2018-07-22T14:17:40Z</time>
      </trkpt>
      <trkpt lat="41.128033" lon="-3.672333">
        <ele>2071.0</ele>
        <time>2018-07-22T14:17:41Z</time>
      </trkpt>
      <trkpt lat="41.128050" lon="-3.672233">
        <ele>2072.0</ele>
        <time>2018-07-22T14:17:42Z</time>
      </trkpt>
      <trkpt lat="41.128083" lon="-3.672150">
        <ele>2072.0</ele>
        <time>2018-07-22T14:17:43Z</time>
      </trkpt>
      <trkpt lat="41.128133" lon="-3.672067">
        <ele>2072.0</ele>
        <time>2018-07-22T14:17:44Z</time>
      </trkpt>
      <trkpt lat="41.128183" lon="-3.672000">
        <ele>2070.0</ele>
        <time>2018-07-22T14:17:45Z</time>
      </trkpt>
      <trkpt lat="41.128267" lon="-3.671950">
        <ele>2070.0</ele>
        <time>2018-07-22T14:17:46Z</time>
      </trkpt>
      <trkpt lat="41.128333" lon="-3.671933">
        <ele>2071.0</ele>
        <time>2018-07-22T14:17:47Z</time>
      </trkpt>
      <trkpt lat="41.128400" lon="-3.671967">
        <ele>2072.0</ele>
        <time>2018-07-22T14:17:48Z</time>
      </trkpt>
      <trkpt lat="41.128450" lon="-3.672033">
        <ele>2073.0</ele>
        <time>2018-07-22T14:17:49Z</time>
      </trkpt>
      <trkpt lat="41.128483" lon="-3.672100">
        <ele>2073.0</ele>
        <time>2018-07-22T14:17:50Z</time>
      </trkpt>
      <trkpt lat="41.128500" lon="-3.672183">
        <ele>2073.0</ele>
        <time>2018-07-22T14:17:51Z</time>
      </trkpt>
      <trkpt lat="41.128500" lon="-3.672300">
        <ele>2073.0</ele>
        <time>2018-07-22T14:17:52Z</time>
      </trkpt>
      <trkpt lat="41.128483" lon="-3.672433">
        <ele>2074.0</ele>
        <time>2018-07-22T14:17:53Z</time>
      </trkpt>
      <trkpt lat="41.128483" lon="-3.672550">
        <ele>2077.0</ele>
        <time>2018-07-22T14:17:54Z</time>
      </trkpt>
      <trkpt lat="41.128467" lon="-3.672667">
        <ele>2082.0</ele>
        <time>2018-07-22T14:17:55Z</time>
      </trkpt>
      <trkpt lat="41.128467" lon="-3.672750">
        <ele>2085.0</ele>
        <time>2018-07-22T14:17:56Z</time>
      </trkpt>
      <trkpt lat="41.128467" lon="-3.672833">
        <ele>2089.0</ele>
        <time>2018-07-22T14:17:57Z</time>
      </trkpt>
      <trkpt lat="41.128467" lon="-3.672933">
        <ele>2090.0</ele>
        <time>2018-07-22T14:17:58Z</time>
      </trkpt>
      <trkpt lat="41.128433" lon="-3.673033">
        <ele>2091.0</ele>
        <time>2018-07-22T14:17:59Z</time>
      </trkpt>
      <trkpt lat="41.128383" lon="-3.673150">
        <ele>2091.0</ele>
        <time>2018-07-22T14:18:00Z</time>
      </trkpt>
      <trkpt lat="41.128317" lon="-3.673267">
        <ele>2093.0</ele>
        <time>2018-07-22T14:18:01Z</time>
      </trkpt>
      <trkpt lat="41.128233" lon="-3.673367">
        <ele>2096.0</ele>
        <time>2018-07-22T14:18:02Z</time>
      </trkpt>
      <trkpt lat="41.128183" lon="-3.673467">
        <ele>2099.0</ele>
        <time>2018-07-22T14:18:03Z</time>
      </trkpt>
      <trkpt lat="41.128117" lon="-3.673550">
        <ele>2101.0</ele>
        <time>2018-07-22T14:18:04Z</time>
      </trkpt>
      <trkpt lat="41.128050" lon="-3.673633">
        <ele>2103.0</ele>
        <time>2018-07-22T14:18:05Z</time>
      </trkpt>
      <trkpt lat="41.127950" lon="-3.673700">
        <ele>2103.0</ele>
        <time>2018-07-22T14:18:06Z</time>
      </trkpt>
      <trkpt lat="41.127850" lon="-3.673767">
        <ele>2103.0</ele>
        <time>2018-07-22T14:18:07Z</time>
      </trkpt>
      <trkpt lat="41.127750" lon="-3.673817">
        <ele>2104.0</ele>
        <time>2018-07-22T14:18:08Z</time>
      </trkpt>
      <trkpt lat="41.127633" lon="-3.673850">
        <ele>2106.0</ele>
        <time>2018-07-22T14:18:09Z</time>
      </trkpt>
      <trkpt lat="41.127533" lon="-3.673900">
        <ele>2108.0</ele>
        <time>2018-07-22T14:18:10Z</time>
      </trkpt>
      <trkpt lat="41.127417" lon="-3.673933">
        <ele>2110.0</ele>
        <time>2018-07-22T14:18:11Z</time>
      </trkpt>
      <trkpt lat="41.127317" lon="-3.673983">
        <ele>2111.0</ele>
        <time>2018-07-22T14:18:12Z</time>
      </trkpt>
      <trkpt lat="41.127233" lon="-3.674017">
        <ele>2113.0</ele>
        <time>2018-07-22T14:18:13Z</time>
      </trkpt>
      <trkpt lat="41.127133" lon="-3.674050">
        <ele>2113.0</ele>
        <time>2018-07-22T14:18:14Z</time>
      </trkpt>
      <trkpt lat="41.127050" lon="-3.674067">
        <ele>2113.0</ele>
        <time>2018-07-22T14:18:15Z</time>
      </trkpt>
      <trkpt lat="41.126950" lon="-3.674067">
        <ele>2112.0</ele>
        <time>2018-07-22T14:18:16Z</time>
      </trkpt>
      <trkpt lat="41.126850" lon="-3.674050">
        <ele>2111.0</ele>
        <time>2018-07-22T14:18:17Z</time>
      </trkpt>
      <trkpt lat="41.126750" lon="-3.674000">
        <ele>2109.0</ele>
        <time>2018-07-22T14:18:18Z</time>
      </trkpt>
      <trkpt lat="41.126650" lon="-3.673933">
        <ele>2109.0</ele>
        <time>2018-07-22T14:18:19Z</time>
      </trkpt>
      <trkpt lat="41.126567" lon="-3.673833">
        <ele>2109.0</ele>
        <time>2018-07-22T14:18:20Z</time>
      </trkpt>
      <trkpt lat="41.126517" lon="-3.673700">
        <ele>2108.0</ele>
        <time>2018-07-22T14:18:21Z</time>
      </trkpt>
      <trkpt lat="41.126500" lon="-3.673583">
        <ele>2108.0</ele>
        <time>2018-07-22T14:18:22Z</time>
      </trkpt>
      <trkpt lat="41.126483" lon="-3.673450">
        <ele>2107.0</ele>
        <time>2018-07-22T14:18:23Z</time>
      </trkpt>
      <trkpt lat="41.126483" lon="-3.673317">
        <ele>2105.0</ele>
        <time>2018-07-22T14:18:24Z</time>
      </trkpt>
      <trkpt lat="41.126517" lon="-3.673200">
        <ele>2103.0</ele>
        <time>2018-07-22T14:18:25Z</time>
      </trkpt>
      <trkpt lat="41.126550" lon="-3.673083">
        <ele>2101.0</ele>
        <time>2018-07-22T14:18:26Z</time>
      </trkpt>
      <trkpt lat="41.126617" lon="-3.672967">
        <ele>2100.0</ele>
        <time>2018-07-22T14:18:27Z</time>
      </trkpt>
      <trkpt lat="41.126683" lon="-3.672900">
        <ele>2100.0</ele>
        <time>2018-07-22T14:18:28Z</time>
      </trkpt>
      <trkpt lat="41.126750" lon="-3.672850">
        <ele>2100.0</ele>
        <time>2018-07-22T14:18:29Z</time>
      </trkpt>
      <trkpt lat="41.126833" lon="-3.672833">
        <ele>2099.0</ele>
        <time>2018-07-22T14:18:30Z</time>
      </trkpt>
      <trkpt lat="41.126900" lon="-3.672850">
        <ele>2099.0</ele>
        <time>2018-07-22T14:18:31Z</time>
      </trkpt>
      <trkpt lat="41.126967" lon="-3.672900">
        <ele>2100.0</ele>
        <time>2018-07-22T14:18:32Z</time>
      </trkpt>
      <trkpt lat="41.127017" lon="-3.672967">
        <ele>2101.0</ele>
        <time>2018-07-22T14:18:33Z</time>
      </trkpt>
      <trkpt lat="41.127067" lon="-3.673067">
        <ele>2103.0</ele>
        <time>2018-07-22T14:18:34Z</time>
      </trkpt>
      <trkpt lat="41.127083" lon="-3.673150">
        <ele>2105.0</ele>
        <time>2018-07-22T14:18:35Z</time>
      </trkpt>
      <trkpt lat="41.127083" lon="-3.673233">
        <ele>2106.0</ele>
        <time>2018-07-22T14:18:36Z</time>
      </trkpt>
      <trkpt lat="41.127083" lon="-3.673333">
        <ele>2106.0</ele>
        <time>2018-07-22T14:18:37Z</time>
      </trkpt>
      <trkpt lat="41.127067" lon="-3.673417">
        <ele>2106.0</ele>
        <time>2018-07-22T14:18:38Z</time>
      </trkpt>
      <trkpt lat="41.127050" lon="-3.673517">
        <ele>2105.0</ele>
        <time>2018-07-22T14:18:39Z</time>
      </trkpt>
      <trkpt lat="41.127017" lon="-3.673617">
        <ele>2104.0</ele>
        <time>2018-07-22T14:18:40Z</time>
      </trkpt>
      <trkpt lat="41.126967" lon="-3.673717">
        <ele>2103.0</ele>
        <time>2018-07-22T14:18:41Z</time>
      </trkpt>
      <trkpt lat="41.126900" lon="-3.673783">
        <ele>2103.0</ele>
        <time>2018-07-22T14:18:42Z</time>
      </trkpt>
      <trkpt lat="41.126817" lon="-3.673833">
        <ele>2102.0</ele>
        <time>2018-07-22T14:18:43Z</time>
      </trkpt>
      <trkpt lat="41.126733" lon="-3.673867">
        <ele>2101.0</ele>
        <time>2018-07-22T14:18:44Z</time>
      </trkpt>
      <trkpt lat="41.126650" lon="-3.673917">
        <ele>2100.0</ele>
        <time>2018-07-22T14:18:45Z</time>
      </trkpt>
      <trkpt lat="41.126567" lon="-3.673933">
        <ele>2098.0</ele>
        <time>2018-07-22T14:18:46Z</time>
      </trkpt>
      <trkpt lat="41.126467" lon="-3.673950">
        <ele>2096.0</ele>
        <time>2018-07-22T14:18:47Z</time>
      </trkpt>
      <trkpt lat="41.126367" lon="-3.673933">
        <ele>2094.0</ele>
        <time>2018-07-22T14:18:48Z</time>
      </trkpt>
      <trkpt lat="41.126267" lon="-3.673883">
        <ele>2092.0</ele>
        <time>2018-07-22T14:18:49Z</time>
      </trkpt>
      <trkpt lat="41.126183" lon="-3.673800">
        <ele>2090.0</ele>
        <time>2018-07-22T14:18:50Z</time>
      </trkpt>
      <trkpt lat="41.126117" lon="-3.673700">
        <ele>2089.0</ele>
        <time>2018-07-22T14:18:51Z</time>
      </trkpt>
      <trkpt lat="41.126050" lon="-3.673583">
        <ele>2087.0</ele>
        <time>2018-07-22T14:18:52Z</time>
      </trkpt>
      <trkpt lat="41.126017" lon="-3.673450">
        <ele>2086.0</ele>
        <time>2018-07-22T14:18:53Z</time>
      </trkpt>
      <trkpt lat="41.125967" lon="-3.673333">
        <ele>2085.0</ele>
        <time>2018-07-22T14:18:54Z</time>
      </trkpt>
      <trkpt lat="41.125917" lon="-3.673217">
        <ele>2084.0</ele>
        <time>2018-07-22T14:18:55Z</time>
      </trkpt>
      <trkpt lat="41.125867" lon="-3.673100">
        <ele>2083.0</ele>
        <time>2018-07-22T14:18:56Z</time>
      </trkpt>
      <trkpt lat="41.125833" lon="-3.672983">
        <ele>2082.0</ele>
        <time>2018-07-22T14:18:57Z</time>
      </trkpt>
      <trkpt lat="41.125817" lon="-3.672867">
        <ele>2081.0</ele>
        <time>2018-07-22T14:18:58Z</time>
      </trkpt>
      <trkpt lat="41.125800" lon="-3.672750">
        <ele>2080.0</ele>
        <time>2018-07-22T14:18:59Z</time>
      </trkpt>
      <trkpt lat="41.125783" lon="-3.672617">
        <ele>2079.0</ele>
        <time>2018-07-22T14:19:00Z</time>
      </trkpt>
      <trkpt lat="41.125750" lon="-3.672483">
        <ele>2078.0</ele>
        <time>2018-07-22T14:19:01Z</time>
      </trkpt>
      <trkpt lat="41.125717" lon="-3.672333">
        <ele>2076.0</ele>
        <time>2018-07-22T14:19:02Z</time>
      </trkpt>
      <trkpt lat="41.125667" lon="-3.672200">
        <ele>2075.0</ele>
        <time>2018-07-22T14:19:03Z</time>
      </trkpt>
      <trkpt lat="41.125617" lon="-3.672067">
        <ele>2074.0</ele>
        <time>2018-07-22T14:19:04Z</time>
      </trkpt>
      <trkpt lat="41.125550" lon="-3.671950">
        <ele>2074.0</ele>
        <time>2018-07-22T14:19:05Z</time>
      </trkpt>
      <trkpt lat="41.125450" lon="-3.671850">
        <ele>2074.0</ele>
        <time>2018-07-22T14:19:06Z</time>
      </trkpt>
      <trkpt lat="41.125350" lon="-3.671767">
        <ele>2074.0</ele>
        <time>2018-07-22T14:19:07Z</time>
      </trkpt>
      <trkpt lat="41.125250" lon="-3.671683">
        <ele>2075.0</ele>
        <time>2018-07-22T14:19:08Z</time>
      </trkpt>
      <trkpt lat="41.125133" lon="-3.671633">
        <ele>2076.0</ele>
        <time>2018-07-22T14:19:09Z</time>
      </trkpt>
      <trkpt lat="41.125017" lon="-3.671567">
        <ele>2077.0</ele>
        <time>2018-07-22T14:19:10Z</time>
      </trkpt>
      <trkpt lat="41.124900" lon="-3.671533">
        <ele>2079.0</ele>
        <time>2018-07-22T14:19:11Z</time>
      </trkpt>
      <trkpt lat="41.124783" lon="-3.671500">
        <ele>2081.0</ele>
        <time>2018-07-22T14:19:12Z</time>
      </trkpt>
      <trkpt lat="41.124667" lon="-3.671467">
        <ele>2082.0</ele>
        <time>2018-07-22T14:19:13Z</time>
      </trkpt>
      <trkpt lat="41.124567" lon="-3.671450">
        <ele>2082.0</ele>
        <time>2018-07-22T14:19:14Z</time>
      </trkpt>
      <trkpt lat="41.124467" lon="-3.671433">
        <ele>2082.0</ele>
        <time>2018-07-22T14:19:15Z</time>
      </trkpt>
      <trkpt lat="41.124350" lon="-3.671433">
        <ele>2081.0</ele>
        <time>2018-07-22T14:19:16Z</time>
      </trkpt>
      <trkpt lat="41.124250" lon="-3.671417">
        <ele>2080.0</ele>
        <time>2018-07-22T14:19:17Z</time>
      </trkpt>
      <trkpt lat="41.124117" lon="-3.671400">
        <ele>2079.0</ele>
        <time>2018-07-22T14:19:18Z</time>
      </trkpt>
      <trkpt lat="41.124000" lon="-3.671383">
        <ele>2079.0</ele>
        <time>2018-07-22T14:19:19Z</time>
      </trkpt>
      <trkpt lat="41.123883" lon="-3.671367">
        <ele>2080.0</ele>
        <time>2018-07-22T14:19:20Z</time>
      </trkpt>
      <trkpt lat="41.123767" lon="-3.671333">
        <ele>2081.0</ele>
        <time>2018-07-22T14:19:21Z</time>
      </trkpt>
      <trkpt lat="41.123667" lon="-3.671317">
        <ele>2082.0</ele>
        <time>2018-07-22T14:19:22Z</time>
      </trkpt>
      <trkpt lat="41.123550" lon="-3.671317">
        <ele>2082.0</ele>
        <time>2018-07-22T14:19:23Z</time>
      </trkpt>
      <trkpt lat="41.123450" lon="-3.671300">
        <ele>2083.0</ele>
        <time>2018-07-22T14:19:24Z</time>
      </trkpt>
      <trkpt lat="41.123333" lon="-3.671300">
        <ele>2084.0</ele>
        <time>2018-07-22T14:19:25Z</time>
      </trkpt>
      <trkpt lat="41.123217" lon="-3.671267">
        <ele>2084.0</ele>
        <time>2018-07-22T14:19:26Z</time>
      </trkpt>
      <trkpt lat="41.123100" lon="-3.671233">
        <ele>2084.0</ele>
        <time>2018-07-22T14:19:27Z</time>
      </trkpt>
      <trkpt lat="41.122983" lon="-3.671167">
        <ele>2085.0</ele>
        <time>2018-07-22T14:19:28Z</time>
      </trkpt>
      <trkpt lat="41.122867" lon="-3.671100">
        <ele>2086.0</ele>
        <time>2018-07-22T14:19:29Z</time>
      </trkpt>
      <trkpt lat="41.122750" lon="-3.671033">
        <ele>2086.0</ele>
        <time>2018-07-22T14:19:30Z</time>
      </trkpt>
      <trkpt lat="41.122633" lon="-3.671000">
        <ele>2088.0</ele>
        <time>2018-07-22T14:19:31Z</time>
      </trkpt>
      <trkpt lat="41.122500" lon="-3.671000">
        <ele>2088.0</ele>
        <time>2018-07-22T14:19:32Z</time>
      </trkpt>
      <trkpt lat="41.122383" lon="-3.671050">
        <ele>2087.0</ele>
        <time>2018-07-22T14:19:33Z</time>
      </trkpt>
      <trkpt lat="41.122283" lon="-3.671117">
        <ele>2086.0</ele>
        <time>2018-07-22T14:19:34Z</time>
      </trkpt>
      <trkpt lat="41.122217" lon="-3.671200">
        <ele>2085.0</ele>
        <time>2018-07-22T14:19:35Z</time>
      </trkpt>
      <trkpt lat="41.122183" lon="-3.671300">
        <ele>2083.0</ele>
        <time>2018-07-22T14:19:36Z</time>
      </trkpt>
      <trkpt lat="41.122167" lon="-3.671400">
        <ele>2080.0</ele>
        <time>2018-07-22T14:19:37Z</time>
      </trkpt>
      <trkpt lat="41.122167" lon="-3.671500">
        <ele>2077.0</ele>
        <time>2018-07-22T14:19:38Z</time>
      </trkpt>
      <trkpt lat="41.122217" lon="-3.671600">
        <ele>2074.0</ele>
        <time>2018-07-22T14:19:39Z</time>
      </trkpt>
      <trkpt lat="41.122283" lon="-3.671667">
        <ele>2072.0</ele>
        <time>2018-07-22T14:19:40Z</time>
      </trkpt>
      <trkpt lat="41.122350" lon="-3.671700">
        <ele>2071.0</ele>
        <time>2018-07-22T14:19:41Z</time>
      </trkpt>
      <trkpt lat="41.122417" lon="-3.671733">
        <ele>2070.0</ele>
        <time>2018-07-22T14:19:42Z</time>
      </trkpt>
      <trkpt lat="41.122483" lon="-3.671750">
        <ele>2069.0</ele>
        <time>2018-07-22T14:19:43Z</time>
      </trkpt>
      <trkpt lat="41.122550" lon="-3.671750">
        <ele>2068.0</ele>
        <time>2018-07-22T14:19:44Z</time>
      </trkpt>
      <trkpt lat="41.122600" lon="-3.671717">
        <ele>2065.0</ele>
        <time>2018-07-22T14:19:45Z</time>
      </trkpt>
      <trkpt lat="41.122667" lon="-3.671667">
        <ele>2062.0</ele>
        <time>2018-07-22T14:19:46Z</time>
      </trkpt>
      <trkpt lat="41.122733" lon="-3.671600">
        <ele>2060.0</ele>
        <time>2018-07-22T14:19:47Z</time>
      </trkpt>
      <trkpt lat="41.122783" lon="-3.671483">
        <ele>2058.0</ele>
        <time>2018-07-22T14:19:48Z</time>
      </trkpt>
      <trkpt lat="41.122817" lon="-3.671350">
        <ele>2055.0</ele>
        <time>2018-07-22T14:19:49Z</time>
      </trkpt>
      <trkpt lat="41.122850" lon="-3.671217">
        <ele>2054.0</ele>
        <time>2018-07-22T14:19:50Z</time>
      </trkpt>
      <trkpt lat="41.122883" lon="-3.671067">
        <ele>2053.0</ele>
        <time>2018-07-22T14:19:51Z</time>
      </trkpt>
      <trkpt lat="41.122917" lon="-3.670917">
        <ele>2055.0</ele>
        <time>2018-07-22T14:19:52Z</time>
      </trkpt>
      <trkpt lat="41.122933" lon="-3.670767">
        <ele>2056.0</ele>
        <time>2018-07-22T14:19:53Z</time>
      </trkpt>
      <trkpt lat="41.122917" lon="-3.670617">
        <ele>2057.0</ele>
        <time>2018-07-22T14:19:54Z</time>
      </trkpt>
      <trkpt lat="41.122867" lon="-3.670467">
        <ele>2058.0</ele>
        <time>2018-07-22T14:19:55Z</time>
      </trkpt>
      <trkpt lat="41.122800" lon="-3.670333">
        <ele>2058.0</ele>
        <time>2018-07-22T14:19:56Z</time>
      </trkpt>
      <trkpt lat="41.122733" lon="-3.670200">
        <ele>2059.0</ele>
        <time>2018-07-22T14:19:57Z</time>
      </trkpt>
      <trkpt lat="41.122667" lon="-3.670083">
        <ele>2060.0</ele>
        <time>2018-07-22T14:19:58Z</time>
      </trkpt>
      <trkpt lat="41.122600" lon="-3.669950">
        <ele>2061.0</ele>
        <time>2018-07-22T14:19:59Z</time>
      </trkpt>
      <trkpt lat="41.122517" lon="-3.669833">
        <ele>2062.0</ele>
        <time>2018-07-22T14:20:00Z</time>
      </trkpt>
      <trkpt lat="41.122417" lon="-3.669717">
        <ele>2063.0</ele>
        <time>2018-07-22T14:20:01Z</time>
      </trkpt>
      <trkpt lat="41.122333" lon="-3.669617">
        <ele>2063.0</ele>
        <time>2018-07-22T14:20:02Z</time>
      </trkpt>
      <trkpt lat="41.122283" lon="-3.669500">
        <ele>2064.0</ele>
        <time>2018-07-22T14:20:03Z</time>
      </trkpt>
      <trkpt lat="41.122233" lon="-3.669383">
        <ele>2064.0</ele>
        <time>2018-07-22T14:20:04Z</time>
      </trkpt>
      <trkpt lat="41.122200" lon="-3.669267">
        <ele>2063.0</ele>
        <time>2018-07-22T14:20:05Z</time>
      </trkpt>
      <trkpt lat="41.122167" lon="-3.669133">
        <ele>2061.0</ele>
        <time>2018-07-22T14:20:06Z</time>
      </trkpt>
      <trkpt lat="41.122117" lon="-3.669017">
        <ele>2059.0</ele>
        <time>2018-07-22T14:20:07Z</time>
      </trkpt>
      <trkpt lat="41.122050" lon="-3.668883">
        <ele>2057.0</ele>
        <time>2018-07-22T14:20:08Z</time>
      </trkpt>
      <trkpt lat="41.121983" lon="-3.668767">
        <ele>2054.0</ele>
        <time>2018-07-22T14:20:09Z</time>
      </trkpt>
      <trkpt lat="41.121917" lon="-3.668650">
        <ele>2053.0</ele>
        <time>2018-07-22T14:20:10Z</time>
      </trkpt>
      <trkpt lat="41.121850" lon="-3.668533">
        <ele>2051.0</ele>
        <time>2018-07-22T14:20:11Z</time>
      </trkpt>
      <trkpt lat="41.121767" lon="-3.668433">
        <ele>2048.0</ele>
        <time>2018-07-22T14:20:12Z</time>
      </trkpt>
      <trkpt lat="41.121683" lon="-3.668367">
        <ele>2046.0</ele>
        <time>2018-07-22T14:20:13Z</time>
      </trkpt>
      <trkpt lat="41.121583" lon="-3.668317">
        <ele>2042.0</ele>
        <time>2018-07-22T14:20:14Z</time>
      </trkpt>
      <trkpt lat="41.121483" lon="-3.668267">
        <ele>2039.0</ele>
        <time>2018-07-22T14:20:15Z</time>
      </trkpt>
      <trkpt lat="41.121383" lon="-3.668217">
        <ele>2035.0</ele>
        <time>2018-07-22T14:20:16Z</time>
      </trkpt>
      <trkpt lat="41.121283" lon="-3.668133">
        <ele>2031.0</ele>
        <time>2018-07-22T14:20:17Z</time>
      </trkpt>
      <trkpt lat="41.121183" lon="-3.668033">
        <ele>2027.0</ele>
        <time>2018-07-22T14:20:18Z</time>
      </trkpt>
      <trkpt lat="41.121100" lon="-3.667933">
        <ele>2023.0</ele>
        <time>2018-07-22T14:20:19Z</time>
      </trkpt>
      <trkpt lat="41.121017" lon="-3.667833">
        <ele>2019.0</ele>
        <time>2018-07-22T14:20:20Z</time>
      </trkpt>
      <trkpt lat="41.120917" lon="-3.667717">
        <ele>2017.0</ele>
        <time>2018-07-22T14:20:21Z</time>
      </trkpt>
      <trkpt lat="41.120833" lon="-3.667617">
        <ele>2014.0</ele>
        <time>2018-07-22T14:20:22Z</time>
      </trkpt>
      <trkpt lat="41.120767" lon="-3.667500">
        <ele>2011.0</ele>
        <time>2018-07-22T14:20:23Z</time>
      </trkpt>
      <trkpt lat="41.120667" lon="-3.667400">
        <ele>2006.0</ele>
        <time>2018-07-22T14:20:24Z</time>
      </trkpt>
      <trkpt lat="41.120567" lon="-3.667283">
        <ele>2001.0</ele>
        <time>2018-07-22T14:20:25Z</time>
      </trkpt>
      <trkpt lat="41.120467" lon="-3.667167">
        <ele>1998.0</ele>
        <time>2018-07-22T14:20:26Z</time>
      </trkpt>
      <trkpt lat="41.120367" lon="-3.667050">
        <ele>1995.0</ele>
        <time>2018-07-22T14:20:27Z</time>
      </trkpt>
      <trkpt lat="41.120283" lon="-3.666933">
        <ele>1993.0</ele>
        <time>2018-07-22T14:20:28Z</time>
      </trkpt>
      <trkpt lat="41.120200" lon="-3.666833">
        <ele>1990.0</ele>
        <time>2018-07-22T14:20:29Z</time>
      </trkpt>
      <trkpt lat="41.120117" lon="-3.666717">
        <ele>1986.0</ele>
        <time>2018-07-22T14:20:30Z</time>
      </trkpt>
      <trkpt lat="41.120017" lon="-3.666617">
        <ele>1982.0</ele>
        <time>2018-07-22T14:20:31Z</time>
      </trkpt>
      <trkpt lat="41.119933" lon="-3.666500">
        <ele>1977.0</ele>
        <time>2018-07-22T14:20:32Z</time>
      </trkpt>
      <trkpt lat="41.119833" lon="-3.666367">
        <ele>1972.0</ele>
        <time>2018-07-22T14:20:33Z</time>
      </trkpt>
      <trkpt lat="41.119733" lon="-3.666233">
        <ele>1969.0</ele>
        <time>2018-07-22T14:20:34Z</time>
      </trkpt>
      <trkpt lat="41.119633" lon="-3.666100">
        <ele>1966.0</ele>
        <time>2018-07-22T14:20:35Z</time>
      </trkpt>
      <trkpt lat="41.119550" lon="-3.665967">
        <ele>1962.0</ele>
        <time>2018-07-22T14:20:36Z</time>
      </trkpt>
      <trkpt lat="41.119467" lon="-3.665833">
        <ele>1958.0</ele>
        <time>2018-07-22T14:20:37Z</time>
      </trkpt>
      <trkpt lat="41.119400" lon="-3.665667">
        <ele>1954.0</ele>
        <time>2018-07-22T14:20:38Z</time>
      </trkpt>
      <trkpt lat="41.119317" lon="-3.665517">
        <ele>1950.0</ele>
        <time>2018-07-22T14:20:39Z</time>
      </trkpt>
      <trkpt lat="41.119250" lon="-3.665367">
        <ele>1946.0</ele>
        <time>2018-07-22T14:20:40Z</time>
      </trkpt>
      <trkpt lat="41.119183" lon="-3.665217">
        <ele>1943.0</ele>
        <time>2018-07-22T14:20:41Z</time>
      </trkpt>
      <trkpt lat="41.119100" lon="-3.665050">
        <ele>1939.0</ele>
        <time>2018-07-22T14:20:42Z</time>
      </trkpt>
      <trkpt lat="41.119017" lon="-3.664900">
        <ele>1935.0</ele>
        <time>2018-07-22T14:20:43Z</time>
      </trkpt>
      <trkpt lat="41.118917" lon="-3.664767">
        <ele>1932.0</ele>
        <time>2018-07-22T14:20:44Z</time>
      </trkpt>
      <trkpt lat="41.118833" lon="-3.664617">
        <ele>1930.0</ele>
        <time>2018-07-22T14:20:45Z</time>
      </trkpt>
      <trkpt lat="41.118733" lon="-3.664467">
        <ele>1928.0</ele>
        <time>2018-07-22T14:20:46Z</time>
      </trkpt>
      <trkpt lat="41.118650" lon="-3.664317">
        <ele>1926.0</ele>
        <time>2018-07-22T14:20:47Z</time>
      </trkpt>
      <trkpt lat="41.118550" lon="-3.664150">
        <ele>1925.0</ele>
        <time>2018-07-22T14:20:48Z</time>
      </trkpt>
      <trkpt lat="41.118467" lon="-3.664000">
        <ele>1924.0</ele>
        <time>2018-07-22T14:20:49Z</time>
      </trkpt>
      <trkpt lat="41.118367" lon="-3.663850">
        <ele>1923.0</ele>
        <time>2018-07-22T14:20:50Z</time>
      </trkpt>
      <trkpt lat="41.118283" lon="-3.663700">
        <ele>1922.0</ele>
        <time>2018-07-22T14:20:51Z</time>
      </trkpt>
      <trkpt lat="41.118183" lon="-3.663567">
        <ele>1922.0</ele>
        <time>2018-07-22T14:20:52Z</time>
      </trkpt>
      <trkpt lat="41.118100" lon="-3.663433">
        <ele>1922.0</ele>
        <time>2018-07-22T14:20:53Z</time>
      </trkpt>
      <trkpt lat="41.118033" lon="-3.663300">
        <ele>1920.0</ele>
        <time>2018-07-22T14:20:54Z</time>
      </trkpt>
      <trkpt lat="41.117967" lon="-3.663150">
        <ele>1918.0</ele>
        <time>2018-07-22T14:20:55Z</time>
      </trkpt>
      <trkpt lat="41.117900" lon="-3.662983">
        <ele>1917.0</ele>
        <time>2018-07-22T14:20:56Z</time>
      </trkpt>
      <trkpt lat="41.117833" lon="-3.662833">
        <ele>1916.0</ele>
        <time>2018-07-22T14:20:57Z</time>
      </trkpt>
      <trkpt lat="41.117750" lon="-3.662700">
        <ele>1916.0</ele>
        <time>2018-07-22T14:20:58Z</time>
      </trkpt>
      <trkpt lat="41.117683" lon="-3.662583">
        <ele>1917.0</ele>
        <time>2018-07-22T14:20:59Z</time>
      </trkpt>
      <trkpt lat="41.117617" lon="-3.662450">
        <ele>1918.0</ele>
        <time>2018-07-22T14:21:00Z</time>
      </trkpt>
      <trkpt lat="41.117567" lon="-3.662333">
        <ele>1918.0</ele>
        <time>2018-07-22T14:21:01Z</time>
      </trkpt>
      <trkpt lat="41.117500" lon="-3.662200">
        <ele>1917.0</ele>
        <time>2018-07-22T14:21:02Z</time>
      </trkpt>
      <trkpt lat="41.117433" lon="-3.662067">
        <ele>1915.0</ele>
        <time>2018-07-22T14:21:03Z</time>
      </trkpt>
      <trkpt lat="41.117367" lon="-3.661933">
        <ele>1913.0</ele>
        <time>2018-07-22T14:21:04Z</time>
      </trkpt>
      <trkpt lat="41.117283" lon="-3.661783">
        <ele>1911.0</ele>
        <time>2018-07-22T14:21:05Z</time>
      </trkpt>
      <trkpt lat="41.117200" lon="-3.661633">
        <ele>1910.0</ele>
        <time>2018-07-22T14:21:06Z</time>
      </trkpt>
      <trkpt lat="41.117100" lon="-3.661500">
        <ele>1910.0</ele>
        <time>2018-07-22T14:21:07Z</time>
      </trkpt>
      <trkpt lat="41.117017" lon="-3.661383">
        <ele>1909.0</ele>
        <time>2018-07-22T14:21:08Z</time>
      </trkpt>
      <trkpt lat="41.116933" lon="-3.661267">
        <ele>1908.0</ele>
        <time>2018-07-22T14:21:09Z</time>
      </trkpt>
      <trkpt lat="41.116833" lon="-3.661133">
        <ele>1905.0</ele>
        <time>2018-07-22T14:21:10Z</time>
      </trkpt>
      <trkpt lat="41.116750" lon="-3.661017">
        <ele>1902.0</ele>
        <time>2018-07-22T14:21:11Z</time>
      </trkpt>
      <trkpt lat="41.116650" lon="-3.660883">
        <ele>1900.0</ele>
        <time>2018-07-22T14:21:12Z</time>
      </trkpt>
      <trkpt lat="41.116567" lon="-3.660783">
        <ele>1898.0</ele>
        <time>2018-07-22T14:21:13Z</time>
      </trkpt>
      <trkpt lat="41.116483" lon="-3.660667">
        <ele>1896.0</ele>
        <time>2018-07-22T14:21:14Z</time>
      </trkpt>
      <trkpt lat="41.116383" lon="-3.660567">
        <ele>1893.0</ele>
        <time>2018-07-22T14:21:15Z</time>
      </trkpt>
      <trkpt lat="41.116300" lon="-3.660467">
        <ele>1890.0</ele>
        <time>2018-07-22T14:21:16Z</time>
      </trkpt>
      <trkpt lat="41.116217" lon="-3.660350">
        <ele>1887.0</ele>
        <time>2018-07-22T14:21:17Z</time>
      </trkpt>
      <trkpt lat="41.116117" lon="-3.660233">
        <ele>1883.0</ele>
        <time>2018-07-22T14:21:18Z</time>
      </trkpt>
      <trkpt lat="41.116033" lon="-3.660133">
        <ele>1880.0</ele>
        <time>2018-07-22T14:21:19Z</time>
      </trkpt>
      <trkpt lat="41.115933" lon="-3.660017">
        <ele>1878.0</ele>
        <time>2018-07-22T14:21:20Z</time>
      </trkpt>
      <trkpt lat="41.115833" lon="-3.659933">
        <ele>1875.0</ele>
        <time>2018-07-22T14:21:21Z</time>
      </trkpt>
      <trkpt lat="41.115733" lon="-3.659833">
        <ele>1872.0</ele>
        <time>2018-07-22T14:21:22Z</time>
      </trkpt>
      <trkpt lat="41.115617" lon="-3.659750">
        <ele>1870.0</ele>
        <time>2018-07-22T14:21:23Z</time>
      </trkpt>
      <trkpt lat="41.115500" lon="-3.659667">
        <ele>1868.0</ele>
        <time>2018-07-22T14:21:24Z</time>
      </trkpt>
      <trkpt lat="41.115383" lon="-3.659583">
        <ele>1866.0</ele>
        <time>2018-07-22T14:21:25Z</time>
      </trkpt>
      <trkpt lat="41.115283" lon="-3.659467">
        <ele>1866.0</ele>
        <time>2018-07-22T14:21:26Z</time>
      </trkpt>
      <trkpt lat="41.115183" lon="-3.659350">
        <ele>1865.0</ele>
        <time>2018-07-22T14:21:27Z</time>
      </trkpt>
      <trkpt lat="41.115100" lon="-3.659233">
        <ele>1864.0</ele>
        <time>2018-07-22T14:21:28Z</time>
      </trkpt>
      <trkpt lat="41.115017" lon="-3.659083">
        <ele>1864.0</ele>
        <time>2018-07-22T14:21:29Z</time>
      </trkpt>
      <trkpt lat="41.114933" lon="-3.658933">
        <ele>1864.0</ele>
        <time>2018-07-22T14:21:30Z</time>
      </trkpt>
      <trkpt lat="41.114850" lon="-3.658783">
        <ele>1865.0</ele>
        <time>2018-07-22T14:21:31Z</time>
      </trkpt>
      <trkpt lat="41.114783" lon="-3.658617">
        <ele>1866.0</ele>
        <time>2018-07-22T14:21:32Z</time>
      </trkpt>
      <trkpt lat="41.114733" lon="-3.658450">
        <ele>1868.0</ele>
        <time>2018-07-22T14:21:33Z</time>
      </trkpt>
      <trkpt lat="41.114700" lon="-3.658283">
        <ele>1869.0</ele>
        <time>2018-07-22T14:21:34Z</time>
      </trkpt>
      <trkpt lat="41.114683" lon="-3.658117">
        <ele>1870.0</ele>
        <time>2018-07-22T14:21:35Z</time>
      </trkpt>
      <trkpt lat="41.114650" lon="-3.657933">
        <ele>1871.0</ele>
        <time>2018-07-22T14:21:36Z</time>
      </trkpt>
      <trkpt lat="41.114633" lon="-3.657767">
        <ele>1873.0</ele>
        <time>2018-07-22T14:21:37Z</time>
      </trkpt>
      <trkpt lat="41.114633" lon="-3.657617">
        <ele>1875.0</ele>
        <time>2018-07-22T14:21:38Z</time>
      </trkpt>
      <trkpt lat="41.114667" lon="-3.657483">
        <ele>1876.0</ele>
        <time>2018-07-22T14:21:39Z</time>
      </trkpt>
      <trkpt lat="41.114717" lon="-3.657367">
        <ele>1876.0</ele>
        <time>2018-07-22T14:21:40Z</time>
      </trkpt>
      <trkpt lat="41.114783" lon="-3.657267">
        <ele>1876.0</ele>
        <time>2018-07-22T14:21:41Z</time>
      </trkpt>
      <trkpt lat="41.114867" lon="-3.657200">
        <ele>1877.0</ele>
        <time>2018-07-22T14:21:42Z</time>
      </trkpt>
      <trkpt lat="41.114950" lon="-3.657150">
        <ele>1878.0</ele>
        <time>2018-07-22T14:21:43Z</time>
      </trkpt>
      <trkpt lat="41.115033" lon="-3.657133">
        <ele>1879.0</ele>
        <time>2018-07-22T14:21:44Z</time>
      </trkpt>
      <trkpt lat="41.115100" lon="-3.657150">
        <ele>1881.0</ele>
        <time>2018-07-22T14:21:45Z</time>
      </trkpt>
      <trkpt lat="41.115150" lon="-3.657200">
        <ele>1884.0</ele>
        <time>2018-07-22T14:21:46Z</time>
      </trkpt>
      <trkpt lat="41.115183" lon="-3.657267">
        <ele>1886.0</ele>
        <time>2018-07-22T14:21:47Z</time>
      </trkpt>
      <trkpt lat="41.115200" lon="-3.657350">
        <ele>1888.0</ele>
        <time>2018-07-22T14:21:48Z</time>
      </trkpt>
      <trkpt lat="41.115183" lon="-3.657433">
        <ele>1890.0</ele>
        <time>2018-07-22T14:21:49Z</time>
      </trkpt>
      <trkpt lat="41.115133" lon="-3.657517">
        <ele>1891.0</ele>
        <time>2018-07-22T14:21:50Z</time>
      </trkpt>
      <trkpt lat="41.115067" lon="-3.657583">
        <ele>1891.0</ele>
        <time>2018-07-22T14:21:51Z</time>
      </trkpt>
      <trkpt lat="41.114967" lon="-3.657617">
        <ele>1891.0</ele>
        <time>2018-07-22T14:21:52Z</time>
      </trkpt>
      <trkpt lat="41.114850" lon="-3.657617">
        <ele>1890.0</ele>
        <time>2018-07-22T14:21:53Z</time>
      </trkpt>
      <trkpt lat="41.114733" lon="-3.657567">
        <ele>1889.0</ele>
        <time>2018-07-22T14:21:54Z</time>
      </trkpt>
      <trkpt lat="41.114633" lon="-3.657467">
        <ele>1889.0</ele>
        <time>2018-07-22T14:21:55Z</time>
      </trkpt>
      <trkpt lat="41.114533" lon="-3.657333">
        <ele>1890.0</ele>
        <time>2018-07-22T14:21:56Z</time>
      </trkpt>
      <trkpt lat="41.114450" lon="-3.657183">
        <ele>1892.0</ele>
        <time>2018-07-22T14:21:57Z</time>
      </trkpt>
      <trkpt lat="41.114400" lon="-3.657017">
        <ele>1894.0</ele>
        <time>2018-07-22T14:21:58Z</time>
      </trkpt>
      <trkpt lat="41.114367" lon="-3.656850">
        <ele>1895.0</ele>
        <time>2018-07-22T14:21:59Z</time>
      </trkpt>
      <trkpt lat="41.114350" lon="-3.656700">
        <ele>1897.0</ele>
        <time>2018-07-22T14:22:00Z</time>
      </trkpt>
      <trkpt lat="41.114367" lon="-3.656567">
        <ele>1898.0</ele>
        <time>2018-07-22T14:22:01Z</time>
      </trkpt>
      <trkpt lat="41.114383" lon="-3.656417">
        <ele>1898.0</ele>
        <time>2018-07-22T14:22:02Z</time>
      </trkpt>
      <trkpt lat="41.114417" lon="-3.656283">
        <ele>1899.0</ele>
        <time>2018-07-22T14:22:03Z</time>
      </trkpt>
      <trkpt lat="41.114467" lon="-3.656150">
        <ele>1899.0</ele>
        <time>2018-07-22T14:22:04Z</time>
      </trkpt>
      <trkpt lat="41.114533" lon="-3.656000">
        <ele>1901.0</ele>
        <time>2018-07-22T14:22:05Z</time>
      </trkpt>
      <trkpt lat="41.114583" lon="-3.655867">
        <ele>1903.0</ele>
        <time>2018-07-22T14:22:06Z</time>
      </trkpt>
      <trkpt lat="41.114633" lon="-3.655733">
        <ele>1906.0</ele>
        <time>2018-07-22T14:22:07Z</time>
      </trkpt>
      <trkpt lat="41.114700" lon="-3.655617">
        <ele>1909.0</ele>
        <time>2018-07-22T14:22:08Z</time>
      </trkpt>
      <trkpt lat="41.114750" lon="-3.655500">
        <ele>1911.0</ele>
        <time>2018-07-22T14:22:09Z</time>
      </trkpt>
      <trkpt lat="41.114800" lon="-3.655400">
        <ele>1912.0</ele>
        <time>2018-07-22T14:22:10Z</time>
      </trkpt>
      <trkpt lat="41.114867" lon="-3.655317">
        <ele>1913.0</ele>
        <time>2018-07-22T14:22:11Z</time>
      </trkpt>
      <trkpt lat="41.114950" lon="-3.655250">
        <ele>1914.0</ele>
        <time>2018-07-22T14:22:12Z</time>
      </trkpt>
      <trkpt lat="41.115033" lon="-3.655217">
        <ele>1915.0</ele>
        <time>2018-07-22T14:22:13Z</time>
      </trkpt>
      <trkpt lat="41.115133" lon="-3.655200">
        <ele>1918.0</ele>
        <time>2018-07-22T14:22:14Z</time>
      </trkpt>
      <trkpt lat="41.115200" lon="-3.655200">
        <ele>1921.0</ele>
        <time>2018-07-22T14:22:15Z</time>
      </trkpt>
      <trkpt lat="41.115283" lon="-3.655183">
        <ele>1924.0</ele>
        <time>2018-07-22T14:22:16Z</time>
      </trkpt>
      <trkpt lat="41.115367" lon="-3.655150">
        <ele>1925.0</ele>
        <time>2018-07-22T14:22:17Z</time>
      </trkpt>
      <trkpt lat="41.115450" lon="-3.655117">
        <ele>1927.0</ele>
        <time>2018-07-22T14:22:18Z</time>
      </trkpt>
      <trkpt lat="41.115550" lon="-3.655100">
        <ele>1929.0</ele>
        <time>2018-07-22T14:22:19Z</time>
      </trkpt>
      <trkpt lat="41.115633" lon="-3.655100">
        <ele>1932.0</ele>
        <time>2018-07-22T14:22:20Z</time>
      </trkpt>
      <trkpt lat="41.115700" lon="-3.655133">
        <ele>1936.0</ele>
        <time>2018-07-22T14:22:21Z</time>
      </trkpt>
      <trkpt lat="41.115733" lon="-3.655183">
        <ele>1940.0</ele>
        <time>2018-07-22T14:22:22Z</time>
      </trkpt>
      <trkpt lat="41.115767" lon="-3.655250">
        <ele>1943.0</ele>
        <time>2018-07-22T14:22:23Z</time>
      </trkpt>
      <trkpt lat="41.115767" lon="-3.655333">
        <ele>1946.0</ele>
        <time>2018-07-22T14:22:24Z</time>
      </trkpt>
      <trkpt lat="41.115750" lon="-3.655417">
        <ele>1948.0</ele>
        <time>2018-07-22T14:22:25Z</time>
      </trkpt>
      <trkpt lat="41.115700" lon="-3.655500">
        <ele>1950.0</ele>
        <time>2018-07-22T14:22:26Z</time>
      </trkpt>
      <trkpt lat="41.115633" lon="-3.655550">
        <ele>1951.0</ele>
        <time>2018-07-22T14:22:27Z</time>
      </trkpt>
      <trkpt lat="41.115533" lon="-3.655583">
        <ele>1952.0</ele>
        <time>2018-07-22T14:22:28Z</time>
      </trkpt>
      <trkpt lat="41.115417" lon="-3.655550">
        <ele>1952.0</ele>
        <time>2018-07-22T14:22:29Z</time>
      </trkpt>
      <trkpt lat="41.115283" lon="-3.655483">
        <ele>1953.0</ele>
        <time>2018-07-22T14:22:30Z</time>
      </trkpt>
      <trkpt lat="41.115183" lon="-3.655367">
        <ele>1955.0</ele>
        <time>2018-07-22T14:22:31Z</time>
      </trkpt>
      <trkpt lat="41.115100" lon="-3.655217">
        <ele>1958.0</ele>
        <time>2018-07-22T14:22:32Z</time>
      </trkpt>
      <trkpt lat="41.115067" lon="-3.655050">
        <ele>1960.0</ele>
        <time>2018-07-22T14:22:33Z</time>
      </trkpt>
      <trkpt lat="41.115067" lon="-3.654900">
        <ele>1963.0</ele>
        <time>2018-07-22T14:22:34Z</time>
      </trkpt>
      <trkpt lat="41.115083" lon="-3.654750">
        <ele>1966.0</ele>
        <time>2018-07-22T14:22:35Z</time>
      </trkpt>
      <trkpt lat="41.115133" lon="-3.654617">
        <ele>1968.0</ele>
        <time>2018-07-22T14:22:36Z</time>
      </trkpt>
      <trkpt lat="41.115200" lon="-3.654517">
        <ele>1970.0</ele>
        <time>2018-07-22T14:22:37Z</time>
      </trkpt>
      <trkpt lat="41.115283" lon="-3.654450">
        <ele>1972.0</ele>
        <time>2018-07-22T14:22:38Z</time>
      </trkpt>
      <trkpt lat="41.115383" lon="-3.654417">
        <ele>1975.0</ele>
        <time>2018-07-22T14:22:39Z</time>
      </trkpt>
      <trkpt lat="41.115467" lon="-3.654417">
        <ele>1978.0</ele>
        <time>2018-07-22T14:22:40Z</time>
      </trkpt>
      <trkpt lat="41.115533" lon="-3.654467">
        <ele>1982.0</ele>
        <time>2018-07-22T14:22:41Z</time>
      </trkpt>
      <trkpt lat="41.115600" lon="-3.654517">
        <ele>1985.0</ele>
        <time>2018-07-22T14:22:42Z</time>
      </trkpt>
      <trkpt lat="41.115633" lon="-3.654583">
        <ele>1988.0</ele>
        <time>2018-07-22T14:22:43Z</time>
      </trkpt>
      <trkpt lat="41.115667" lon="-3.654667">
        <ele>1991.0</ele>
        <time>2018-07-22T14:22:44Z</time>
      </trkpt>
      <trkpt lat="41.115667" lon="-3.654750">
        <ele>1993.0</ele>
        <time>2018-07-22T14:22:45Z</time>
      </trkpt>
      <trkpt lat="41.115650" lon="-3.654850">
        <ele>1995.0</ele>
        <time>2018-07-22T14:22:46Z</time>
      </trkpt>
      <trkpt lat="41.115583" lon="-3.654933">
        <ele>1998.0</ele>
        <time>2018-07-22T14:22:47Z</time>
      </trkpt>
      <trkpt lat="41.115500" lon="-3.654983">
        <ele>1999.0</ele>
        <time>2018-07-22T14:22:48Z</time>
      </trkpt>
      <trkpt lat="41.115383" lon="-3.655000">
        <ele>2000.0</ele>
        <time>2018-07-22T14:22:49Z</time>
      </trkpt>
      <trkpt lat="41.115267" lon="-3.654950">
        <ele>2002.0</ele>
        <time>2018-07-22T14:22:50Z</time>
      </trkpt>
      <trkpt lat="41.115167" lon="-3.654867">
        <ele>2004.0</ele>
        <time>2018-07-22T14:22:51Z</time>
      </trkpt>
      <trkpt lat="41.115083" lon="-3.654733">
        <ele>2006.0</ele>
        <time>2018-07-22T14:22:52Z</time>
      </trkpt>
      <trkpt lat="41.115033" lon="-3.654583">
        <ele>2008.0</ele>
        <time>2018-07-22T14:22:53Z</time>
      </trkpt>
      <trkpt lat="41.115017" lon="-3.654417">
        <ele>2010.0</ele>
        <time>2018-07-22T14:22:54Z</time>
      </trkpt>
      <trkpt lat="41.115033" lon="-3.654250">
        <ele>2012.0</ele>
        <time>2018-07-22T14:22:55Z</time>
      </trkpt>
      <trkpt lat="41.115083" lon="-3.654117">
        <ele>2014.0</ele>
        <time>2018-07-22T14:22:56Z</time>
      </trkpt>
      <trkpt lat="41.115150" lon="-3.654000">
        <ele>2016.0</ele>
        <time>2018-07-22T14:22:57Z</time>
      </trkpt>
      <trkpt lat="41.115250" lon="-3.653917">
        <ele>2018.0</ele>
        <time>2018-07-22T14:22:58Z</time>
      </trkpt>
      <trkpt lat="41.115333" lon="-3.653867">
        <ele>2022.0</ele>
        <time>2018-07-22T14:22:59Z</time>
      </trkpt>
      <trkpt lat="41.115417" lon="-3.653850">
        <ele>2027.0</ele>
        <time>2018-07-22T14:23:00Z</time>
      </trkpt>
      <trkpt lat="41.115467" lon="-3.653850">
        <ele>2031.0</ele>
        <time>2018-07-22T14:23:01Z</time>
      </trkpt>
      <trkpt lat="41.115517" lon="-3.653850">
        <ele>2033.0</ele>
        <time>2018-07-22T14:23:02Z</time>
      </trkpt>
      <trkpt lat="41.115567" lon="-3.653867">
        <ele>2035.0</ele>
        <time>2018-07-22T14:23:03Z</time>
      </trkpt>
      <trkpt lat="41.115617" lon="-3.653900">
        <ele>2035.0</ele>
        <time>2018-07-22T14:23:04Z</time>
      </trkpt>
      <trkpt lat="41.115683" lon="-3.653950">
        <ele>2036.0</ele>
        <time>2018-07-22T14:23:05Z</time>
      </trkpt>
      <trkpt lat="41.115717" lon="-3.654033">
        <ele>2037.0</ele>
        <time>2018-07-22T14:23:06Z</time>
      </trkpt>
      <trkpt lat="41.115733" lon="-3.654133">
        <ele>2037.0</ele>
        <time>2018-07-22T14:23:07Z</time>
      </trkpt>
      <trkpt lat="41.115700" lon="-3.654250">
        <ele>2038.0</ele>
        <time>2018-07-22T14:23:08Z</time>
      </trkpt>
      <trkpt lat="41.115683" lon="-3.654367">
        <ele>2041.0</ele>
        <time>2018-07-22T14:23:09Z</time>
      </trkpt>
      <trkpt lat="41.115650" lon="-3.654483">
        <ele>2044.0</ele>
        <time>2018-07-22T14:23:10Z</time>
      </trkpt>
      <trkpt lat="41.115617" lon="-3.654583">
        <ele>2048.0</ele>
        <time>2018-07-22T14:23:11Z</time>
      </trkpt>
      <trkpt lat="41.115583" lon="-3.654683">
        <ele>2051.0</ele>
        <time>2018-07-22T14:23:12Z</time>
      </trkpt>
      <trkpt lat="41.115533" lon="-3.654783">
        <ele>2054.0</ele>
        <time>2018-07-22T14:23:13Z</time>
      </trkpt>
      <trkpt lat="41.115500" lon="-3.654883">
        <ele>2055.0</ele>
        <time>2018-07-22T14:23:14Z</time>
      </trkpt>
      <trkpt lat="41.115450" lon="-3.654967">
        <ele>2056.0</ele>
        <time>2018-07-22T14:23:15Z</time>
      </trkpt>
      <trkpt lat="41.115383" lon="-3.655033">
        <ele>2056.0</ele>
        <time>2018-07-22T14:23:16Z</time>
      </trkpt>
      <trkpt lat="41.115283" lon="-3.655067">
        <ele>2055.0</ele>
        <time>2018-07-22T14:23:17Z</time>
      </trkpt>
      <trkpt lat="41.115183" lon="-3.655067">
        <ele>2051.0</ele>
        <time>2018-07-22T14:23:18Z</time>
      </trkpt>
      <trkpt lat="41.115050" lon="-3.655033">
        <ele>2049.0</ele>
        <time>2018-07-22T14:23:19Z</time>
      </trkpt>
      <trkpt lat="41.114917" lon="-3.654967">
        <ele>2047.0</ele>
        <time>2018-07-22T14:23:20Z</time>
      </trkpt>
      <trkpt lat="41.114817" lon="-3.654850">
        <ele>2045.0</ele>
        <time>2018-07-22T14:23:21Z</time>
      </trkpt>
      <trkpt lat="41.114733" lon="-3.654700">
        <ele>2045.0</ele>
        <time>2018-07-22T14:23:22Z</time>
      </trkpt>
      <trkpt lat="41.114683" lon="-3.654533">
        <ele>2044.0</ele>
        <time>2018-07-22T14:23:23Z</time>
      </trkpt>
      <trkpt lat="41.114683" lon="-3.654367">
        <ele>2045.0</ele>
        <time>2018-07-22T14:23:24Z</time>
      </trkpt>
      <trkpt lat="41.114717" lon="-3.654200">
        <ele>2046.0</ele>
        <time>2018-07-22T14:23:25Z</time>
      </trkpt>
      <trkpt lat="41.114750" lon="-3.654050">
        <ele>2048.0</ele>
        <time>2018-07-22T14:23:26Z</time>
      </trkpt>
      <trkpt lat="41.114783" lon="-3.653883">
        <ele>2051.0</ele>
        <time>2018-07-22T14:23:27Z</time>
      </trkpt>
      <trkpt lat="41.114800" lon="-3.653733">
        <ele>2053.0</ele>
        <time>2018-07-22T14:23:28Z</time>
      </trkpt>
      <trkpt lat="41.114833" lon="-3.653583">
        <ele>2057.0</ele>
        <time>2018-07-22T14:23:29Z</time>
      </trkpt>
      <trkpt lat="41.114867" lon="-3.653433">
        <ele>2060.0</ele>
        <time>2018-07-22T14:23:30Z</time>
      </trkpt>
      <trkpt lat="41.114900" lon="-3.653300">
        <ele>2063.0</ele>
        <time>2018-07-22T14:23:31Z</time>
      </trkpt>
      <trkpt lat="41.114917" lon="-3.653183">
        <ele>2067.0</ele>
        <time>2018-07-22T14:23:32Z</time>
      </trkpt>
      <trkpt lat="41.114933" lon="-3.653050">
        <ele>2069.0</ele>
        <time>2018-07-22T14:23:33Z</time>
      </trkpt>
      <trkpt lat="41.114933" lon="-3.652917">
        <ele>2071.0</ele>
        <time>2018-07-22T14:23:34Z</time>
      </trkpt>
      <trkpt lat="41.114950" lon="-3.652783">
        <ele>2073.0</ele>
        <time>2018-07-22T14:23:35Z</time>
      </trkpt>
      <trkpt lat="41.114967" lon="-3.652667">
        <ele>2075.0</ele>
        <time>2018-07-22T14:23:36Z</time>
      </trkpt>
      <trkpt lat="41.115000" lon="-3.652550">
        <ele>2078.0</ele>
        <time>2018-07-22T14:23:37Z</time>
      </trkpt>
      <trkpt lat="41.115067" lon="-3.652467">
        <ele>2080.0</ele>
        <time>2018-07-22T14:23:38Z</time>
      </trkpt>
      <trkpt lat="41.115133" lon="-3.652400">
        <ele>2082.0</ele>
        <time>2018-07-22T14:23:39Z</time>
      </trkpt>
      <trkpt lat="41.115217" lon="-3.652367">
        <ele>2085.0</ele>
        <time>2018-07-22T14:23:40Z</time>
      </trkpt>
      <trkpt lat="41.115300" lon="-3.652350">
        <ele>2089.0</ele>
        <time>2018-07-22T14:23:41Z</time>
      </trkpt>
      <trkpt lat="41.115350" lon="-3.652367">
        <ele>2094.0</ele>
        <time>2018-07-22T14:23:42Z</time>
      </trkpt>
      <trkpt lat="41.115367" lon="-3.652417">
        <ele>2098.0</ele>
        <time>2018-07-22T14:23:43Z</time>
      </trkpt>
      <trkpt lat="41.115383" lon="-3.652483">
        <ele>2101.0</ele>
        <time>2018-07-22T14:23:44Z</time>
      </trkpt>
      <trkpt lat="41.115383" lon="-3.652550">
        <ele>2103.0</ele>
        <time>2018-07-22T14:23:45Z</time>
      </trkpt>
      <trkpt lat="41.115367" lon="-3.652650">
        <ele>2105.0</ele>
        <time>2018-07-22T14:23:46Z</time>
      </trkpt>
      <trkpt lat="41.115333" lon="-3.652750">
        <ele>2108.0</ele>
        <time>2018-07-22T14:23:47Z</time>
      </trkpt>
      <trkpt lat="41.115267" lon="-3.652817">
        <ele>2112.0</ele>
        <time>2018-07-22T14:23:48Z</time>
      </trkpt>
      <trkpt lat="41.115150" lon="-3.652850">
        <ele>2115.0</ele>
        <time>2018-07-22T14:23:49Z</time>
      </trkpt>
      <trkpt lat="41.115050" lon="-3.652800">
        <ele>2117.0</ele>
        <time>2018-07-22T14:23:50Z</time>
      </trkpt>
      <trkpt lat="41.114933" lon="-3.652717">
        <ele>2119.0</ele>
        <time>2018-07-22T14:23:51Z</time>
      </trkpt>
      <trkpt lat="41.114833" lon="-3.652600">
        <ele>2122.0</ele>
        <time>2018-07-22T14:23:52Z</time>
      </trkpt>
      <trkpt lat="41.114767" lon="-3.652467">
        <ele>2125.0</ele>
        <time>2018-07-22T14:23:53Z</time>
      </trkpt>
      <trkpt lat="41.114700" lon="-3.652333">
        <ele>2127.0</ele>
        <time>2018-07-22T14:23:54Z</time>
      </trkpt>
      <trkpt lat="41.114667" lon="-3.652167">
        <ele>2128.0</ele>
        <time>2018-07-22T14:23:55Z</time>
      </trkpt>
      <trkpt lat="41.114667" lon="-3.652000">
        <ele>2130.0</ele>
        <time>2018-07-22T14:23:56Z</time>
      </trkpt>
      <trkpt lat="41.114683" lon="-3.651833">
        <ele>2132.0</ele>
        <time>2018-07-22T14:23:57Z</time>
      </trkpt>
      <trkpt lat="41.114750" lon="-3.651700">
        <ele>2134.0</ele>
        <time>2018-07-22T14:23:58Z</time>
      </trkpt>
      <trkpt lat="41.114817" lon="-3.651617">
        <ele>2137.0</ele>
        <time>2018-07-22T14:23:59Z</time>
      </trkpt>
      <trkpt lat="41.114917" lon="-3.651600">
        <ele>2139.0</ele>
        <time>2018-07-22T14:24:00Z</time>
      </trkpt>
      <trkpt lat="41.115017" lon="-3.651600">
        <ele>2142.0</ele>
        <time>2018-07-22T14:24:01Z</time>
      </trkpt>
      <trkpt lat="41.115100" lon="-3.651633">
        <ele>2148.0</ele>
        <time>2018-07-22T14:24:02Z</time>
      </trkpt>
      <trkpt lat="41.115150" lon="-3.651650">
        <ele>2153.0</ele>
        <time>2018-07-22T14:24:03Z</time>
      </trkpt>
      <trkpt lat="41.115167" lon="-3.651683">
        <ele>2156.0</ele>
        <time>2018-07-22T14:24:04Z</time>
      </trkpt>
      <trkpt lat="41.115183" lon="-3.651750">
        <ele>2159.0</ele>
        <time>2018-07-22T14:24:05Z</time>
      </trkpt>
      <trkpt lat="41.115167" lon="-3.651817">
        <ele>2160.0</ele>
        <time>2018-07-22T14:24:06Z</time>
      </trkpt>
      <trkpt lat="41.115117" lon="-3.651883">
        <ele>2161.0</ele>
        <time>2018-07-22T14:24:07Z</time>
      </trkpt>
      <trkpt lat="41.115050" lon="-3.651950">
        <ele>2162.0</ele>
        <time>2018-07-22T14:24:08Z</time>
      </trkpt>
      <trkpt lat="41.114933" lon="-3.652000">
        <ele>2164.0</ele>
        <time>2018-07-22T14:24:09Z</time>
      </trkpt>
      <trkpt lat="41.114817" lon="-3.652017">
        <ele>2168.0</ele>
        <time>2018-07-22T14:24:10Z</time>
      </trkpt>
      <trkpt lat="41.114683" lon="-3.651983">
        <ele>2172.0</ele>
        <time>2018-07-22T14:24:11Z</time>
      </trkpt>
      <trkpt lat="41.114583" lon="-3.651917">
        <ele>2176.0</ele>
        <time>2018-07-22T14:24:12Z</time>
      </trkpt>
      <trkpt lat="41.114500" lon="-3.651800">
        <ele>2180.0</ele>
        <time>2018-07-22T14:24:13Z</time>
      </trkpt>
      <trkpt lat="41.114417" lon="-3.651683">
        <ele>2182.0</ele>
        <time>2018-07-22T14:24:14Z</time>
      </trkpt>
      <trkpt lat="41.114350" lon="-3.651550">
        <ele>2183.0</ele>
        <time>2018-07-22T14:24:15Z</time>
      </trkpt>
      <trkpt lat="41.114283" lon="-3.651400">
        <ele>2184.0</ele>
        <time>2018-07-22T14:24:16Z</time>
      </trkpt>
      <trkpt lat="41.114250" lon="-3.651217">
        <ele>2185.0</ele>
        <time>2018-07-22T14:24:17Z</time>
      </trkpt>
      <trkpt lat="41.114233" lon="-3.651033">
        <ele>2186.0</ele>
        <time>2018-07-22T14:24:18Z</time>
      </trkpt>
      <trkpt lat="41.114267" lon="-3.650850">
        <ele>2188.0</ele>
        <time>2018-07-22T14:24:19Z</time>
      </trkpt>
      <trkpt lat="41.114317" lon="-3.650717">
        <ele>2190.0</ele>
        <time>2018-07-22T14:24:20Z</time>
      </trkpt>
      <trkpt lat="41.114417" lon="-3.650650">
        <ele>2192.0</ele>
        <time>2018-07-22T14:24:21Z</time>
      </trkpt>
      <trkpt lat="41.114500" lon="-3.650617">
        <ele>2193.0</ele>
        <time>2018-07-22T14:24:22Z</time>
      </trkpt>
      <trkpt lat="41.114583" lon="-3.650633">
        <ele>2196.0</ele>
        <time>2018-07-22T14:24:23Z</time>
      </trkpt>
      <trkpt lat="41.114650" lon="-3.650683">
        <ele>2198.0</ele>
        <time>2018-07-22T14:24:24Z</time>
      </trkpt>
      <trkpt lat="41.114683" lon="-3.650767">
        <ele>2201.0</ele>
        <time>2018-07-22T14:24:25Z</time>
      </trkpt>
      <trkpt lat="41.114700" lon="-3.650850">
        <ele>2202.0</ele>
        <time>2018-07-22T14:24:26Z</time>
      </trkpt>
      <trkpt lat="41.114667" lon="-3.650933">
        <ele>2204.0</ele>
        <time>2018-07-22T14:24:27Z</time>
      </trkpt>
      <trkpt lat="41.114600" lon="-3.651000">
        <ele>2204.0</ele>
        <time>2018-07-22T14:24:28Z</time>
      </trkpt>
      <trkpt lat="41.114517" lon="-3.651067">
        <ele>2205.0</ele>
        <time>2018-07-22T14:24:29Z</time>
      </trkpt>
      <trkpt lat="41.114400" lon="-3.651100">
        <ele>2208.0</ele>
        <time>2018-07-22T14:24:30Z</time>
      </trkpt>
      <trkpt lat="41.114267" lon="-3.651083">
        <ele>2211.0</ele>
        <time>2018-07-22T14:24:31Z</time>
      </trkpt>
      <trkpt lat="41.114150" lon="-3.651033">
        <ele>2214.0</ele>
        <time>2018-07-22T14:24:32Z</time>
      </trkpt>
      <trkpt lat="41.114050" lon="-3.650933">
        <ele>2216.0</ele>
        <time>2018-07-22T14:24:33Z</time>
      </trkpt>
      <trkpt lat="41.113950" lon="-3.650817">
        <ele>2218.0</ele>
        <time>2018-07-22T14:24:34Z</time>
      </trkpt>
      <trkpt lat="41.113867" lon="-3.650650">
        <ele>2219.0</ele>
        <time>2018-07-22T14:24:35Z</time>
      </trkpt>
      <trkpt lat="41.113817" lon="-3.650467">
        <ele>2221.0</ele>
        <time>2018-07-22T14:24:36Z</time>
      </trkpt>
      <trkpt lat="41.113800" lon="-3.650267">
        <ele>2223.0</ele>
        <time>2018-07-22T14:24:37Z</time>
      </trkpt>
      <trkpt lat="41.113817" lon="-3.650117">
        <ele>2226.0</ele>
        <time>2018-07-22T14:24:38Z</time>
      </trkpt>
      <trkpt lat="41.113833" lon="-3.649983">
        <ele>2229.0</ele>
        <time>2018-07-22T14:24:39Z</time>
      </trkpt>
      <trkpt lat="41.113867" lon="-3.649867">
        <ele>2231.0</ele>
        <time>2018-07-22T14:24:40Z</time>
      </trkpt>
      <trkpt lat="41.113917" lon="-3.649767">
        <ele>2231.0</ele>
        <time>2018-07-22T14:24:41Z</time>
      </trkpt>
      <trkpt lat="41.113983" lon="-3.649667">
        <ele>2230.0</ele>
        <time>2018-07-22T14:24:42Z</time>
      </trkpt>
      <trkpt lat="41.114067" lon="-3.649583">
        <ele>2230.0</ele>
        <time>2018-07-22T14:24:43Z</time>
      </trkpt>
      <trkpt lat="41.114167" lon="-3.649533">
        <ele>2230.0</ele>
        <time>2018-07-22T14:24:44Z</time>
      </trkpt>
      <trkpt lat="41.114267" lon="-3.649517">
        <ele>2232.0</ele>
        <time>2018-07-22T14:24:45Z</time>
      </trkpt>
      <trkpt lat="41.114333" lon="-3.649500">
        <ele>2235.0</ele>
        <time>2018-07-22T14:24:46Z</time>
      </trkpt>
      <trkpt lat="41.114400" lon="-3.649517">
        <ele>2237.0</ele>
        <time>2018-07-22T14:24:47Z</time>
      </trkpt>
      <trkpt lat="41.114450" lon="-3.649517">
        <ele>2239.0</ele>
        <time>2018-07-22T14:24:48Z</time>
      </trkpt>
      <trkpt lat="41.114483" lon="-3.649533">
        <ele>2240.0</ele>
        <time>2018-07-22T14:24:49Z</time>
      </trkpt>
      <trkpt lat="41.114517" lon="-3.649567">
        <ele>2240.0</ele>
        <time>2018-07-22T14:24:50Z</time>
      </trkpt>
      <trkpt lat="41.114533" lon="-3.649633">
        <ele>2241.0</ele>
        <time>2018-07-22T14:24:51Z</time>
      </trkpt>
      <trkpt lat="41.114550" lon="-3.649700">
        <ele>2241.0</ele>
        <time>2018-07-22T14:24:52Z</time>
      </trkpt>
      <trkpt lat="41.114567" lon="-3.649783">
        <ele>2242.0</ele>
        <time>2018-07-22T14:24:53Z</time>
      </trkpt>
      <trkpt lat="41.114583" lon="-3.649850">
        <ele>2245.0</ele>
        <time>2018-07-22T14:24:54Z</time>
      </trkpt>
      <trkpt lat="41.114617" lon="-3.649900">
        <ele>2247.0</ele>
        <time>2018-07-22T14:24:55Z</time>
      </trkpt>
      <trkpt lat="41.114650" lon="-3.649950">
        <ele>2250.0</ele>
        <time>2018-07-22T14:24:56Z</time>
      </trkpt>
      <trkpt lat="41.114683" lon="-3.649967">
        <ele>2251.0</ele>
        <time>2018-07-22T14:24:57Z</time>
      </trkpt>
      <trkpt lat="41.114717" lon="-3.650000">
        <ele>2253.0</ele>
        <time>2018-07-22T14:24:58Z</time>
      </trkpt>
      <trkpt lat="41.114717" lon="-3.650050">
        <ele>2253.0</ele>
        <time>2018-07-22T14:24:59Z</time>
      </trkpt>
      <trkpt lat="41.114700" lon="-3.650117">
        <ele>2253.0</ele>
        <time>2018-07-22T14:25:00Z</time>
      </trkpt>
      <trkpt lat="41.114667" lon="-3.650167">
        <ele>2253.0</ele>
        <time>2018-07-22T14:25:01Z</time>
      </trkpt>
      <trkpt lat="41.114617" lon="-3.650217">
        <ele>2254.0</ele>
        <time>2018-07-22T14:25:02Z</time>
      </trkpt>
      <trkpt lat="41.114533" lon="-3.650267">
        <ele>2254.0</ele>
        <time>2018-07-22T14:25:03Z</time>
      </trkpt>
      <trkpt lat="41.114467" lon="-3.650300">
        <ele>2254.0</ele>
        <time>2018-07-22T14:25:04Z</time>
      </trkpt>
      <trkpt lat="41.114383" lon="-3.650333">
        <ele>2254.0</ele>
        <time>2018-07-22T14:25:05Z</time>
      </trkpt>
      <trkpt lat="41.114283" lon="-3.650317">
        <ele>2255.0</ele>
        <time>2018-07-22T14:25:06Z</time>
      </trkpt>
      <trkpt lat="41.114167" lon="-3.650267">
        <ele>2254.0</ele>
        <time>2018-07-22T14:25:07Z</time>
      </trkpt>
      <trkpt lat="41.114050" lon="-3.650183">
        <ele>2254.0</ele>
        <time>2018-07-22T14:25:08Z</time>
      </trkpt>
      <trkpt lat="41.113950" lon="-3.650050">
        <ele>2255.0</ele>
        <time>2018-07-22T14:25:09Z</time>
      </trkpt>
      <trkpt lat="41.113850" lon="-3.649900">
        <ele>2256.0</ele>
        <time>2018-07-22T14:25:10Z</time>
      </trkpt>
      <trkpt lat="41.113783" lon="-3.649733">
        <ele>2258.0</ele>
        <time>2018-07-22T14:25:11Z</time>
      </trkpt>
      <trkpt lat="41.113750" lon="-3.649567">
        <ele>2260.0</ele>
        <time>2018-07-22T14:25:12Z</time>
      </trkpt>
      <trkpt lat="41.113733" lon="-3.649400">
        <ele>2262.0</ele>
        <time>2018-07-22T14:25:13Z</time>
      </trkpt>
      <trkpt lat="41.113733" lon="-3.649250">
        <ele>2263.0</ele>
        <time>2018-07-22T14:25:14Z</time>
      </trkpt>
      <trkpt lat="41.113767" lon="-3.649117">
        <ele>2263.0</ele>
        <time>2018-07-22T14:25:15Z</time>
      </trkpt>
      <trkpt lat="41.113833" lon="-3.649000">
        <ele>2262.0</ele>
        <time>2018-07-22T14:25:16Z</time>
      </trkpt>
      <trkpt lat="41.113917" lon="-3.648900">
        <ele>2261.0</ele>
        <time>2018-07-22T14:25:17Z</time>
      </trkpt>
      <trkpt lat="41.114000" lon="-3.648833">
        <ele>2261.0</ele>
        <time>2018-07-22T14:25:18Z</time>
      </trkpt>
      <trkpt lat="41.114083" lon="-3.648817">
        <ele>2261.0</ele>
        <time>2018-07-22T14:25:19Z</time>
      </trkpt>
      <trkpt lat="41.114150" lon="-3.648833">
        <ele>2261.0</ele>
        <time>2018-07-22T14:25:20Z</time>
      </trkpt>
      <trkpt lat="41.114217" lon="-3.648867">
        <ele>2261.0</ele>
        <time>2018-07-22T14:25:21Z</time>
      </trkpt>
      <trkpt lat="41.114250" lon="-3.648917">
        <ele>2261.0</ele>
        <time>2018-07-22T14:25:22Z</time>
      </trkpt>
      <trkpt lat="41.114283" lon="-3.648967">
        <ele>2261.0</ele>
        <time>2018-07-22T14:25:23Z</time>
      </trkpt>
      <trkpt lat="41.114283" lon="-3.649033">
        <ele>2261.0</ele>
        <time>2018-07-22T14:25:24Z</time>
      </trkpt>
      <trkpt lat="41.114283" lon="-3.649133">
        <ele>2262.0</ele>
        <time>2018-07-22T14:25:25Z</time>
      </trkpt>
      <trkpt lat="41.114267" lon="-3.649217">
        <ele>2262.0</ele>
        <time>2018-07-22T14:25:26Z</time>
      </trkpt>
      <trkpt lat="41.114267" lon="-3.649300">
        <ele>2264.0</ele>
        <time>2018-07-22T14:25:27Z</time>
      </trkpt>
      <trkpt lat="41.114250" lon="-3.649367">
        <ele>2267.0</ele>
        <time>2018-07-22T14:25:28Z</time>
      </trkpt>
      <trkpt lat="41.114267" lon="-3.649433">
        <ele>2268.0</ele>
        <time>2018-07-22T14:25:29Z</time>
      </trkpt>
      <trkpt lat="41.114283" lon="-3.649500">
        <ele>2269.0</ele>
        <time>2018-07-22T14:25:30Z</time>
      </trkpt>
      <trkpt lat="41.114283" lon="-3.649567">
        <ele>2270.0</ele>
        <time>2018-07-22T14:25:31Z</time>
      </trkpt>
      <trkpt lat="41.114283" lon="-3.649633">
        <ele>2271.0</ele>
        <time>2018-07-22T14:25:32Z</time>
      </trkpt>
      <trkpt lat="41.114267" lon="-3.649717">
        <ele>2272.0</ele>
        <time>2018-07-22T14:25:33Z</time>
      </trkpt>
      <trkpt lat="41.114233" lon="-3.649800">
        <ele>2273.0</ele>
        <time>2018-07-22T14:25:34Z</time>
      </trkpt>
      <trkpt lat="41.114200" lon="-3.649867">
        <ele>2275.0</ele>
        <time>2018-07-22T14:25:35Z</time>
      </trkpt>
      <trkpt lat="41.114150" lon="-3.649917">
        <ele>2277.0</ele>
        <time>2018-07-22T14:25:36Z</time>
      </trkpt>
      <trkpt lat="41.114067" lon="-3.649950">
        <ele>2277.0</ele>
        <time>2018-07-22T14:25:37Z</time>
      </trkpt>
      <trkpt lat="41.113950" lon="-3.649933">
        <ele>2276.0</ele>
        <time>2018-07-22T14:25:38Z</time>
      </trkpt>
      <trkpt lat="41.113850" lon="-3.649883">
        <ele>2275.0</ele>
        <time>2018-07-22T14:25:39Z</time>
      </trkpt>
      <trkpt lat="41.113733" lon="-3.649767">
        <ele>2275.0</ele>
        <time>2018-07-22T14:25:40Z</time>
      </trkpt>
      <trkpt lat="41.113650" lon="-3.649633">
        <ele>2276.0</ele>
        <time>2018-07-22T14:25:41Z</time>
      </trkpt>
      <trkpt lat="41.113600" lon="-3.649467">
        <ele>2277.0</ele>
        <time>2018-07-22T14:25:42Z</time>
      </trkpt>
      <trkpt lat="41.113600" lon="-3.649283">
        <ele>2277.0</ele>
        <time>2018-07-22T14:25:43Z</time>
      </trkpt>
      <trkpt lat="41.113633" lon="-3.649133">
        <ele>2277.0</ele>
        <time>2018-07-22T14:25:44Z</time>
      </trkpt>
      <trkpt lat="41.113683" lon="-3.648983">
        <ele>2277.0</ele>
        <time>2018-07-22T14:25:45Z</time>
      </trkpt>
      <trkpt lat="41.113767" lon="-3.648883">
        <ele>2277.0</ele>
        <time>2018-07-22T14:25:46Z</time>
      </trkpt>
      <trkpt lat="41.113850" lon="-3.648817">
        <ele>2278.0</ele>
        <time>2018-07-22T14:25:47Z</time>
      </trkpt>
      <trkpt lat="41.113933" lon="-3.648767">
        <ele>2278.0</ele>
        <time>2018-07-22T14:25:48Z</time>
      </trkpt>
      <trkpt lat="41.114017" lon="-3.648767">
        <ele>2279.0</ele>
        <time>2018-07-22T14:25:49Z</time>
      </trkpt>
      <trkpt lat="41.114100" lon="-3.648783">
        <ele>2280.0</ele>
        <time>2018-07-22T14:25:50Z</time>
      </trkpt>
      <trkpt lat="41.114167" lon="-3.648817">
        <ele>2281.0</ele>
        <time>2018-07-22T14:25:51Z</time>
      </trkpt>
      <trkpt lat="41.114233" lon="-3.648867">
        <ele>2281.0</ele>
        <time>2018-07-22T14:25:52Z</time>
      </trkpt>
      <trkpt lat="41.114283" lon="-3.648933">
        <ele>2282.0</ele>
        <time>2018-07-22T14:25:53Z</time>
      </trkpt>
      <trkpt lat="41.114300" lon="-3.649017">
        <ele>2283.0</ele>
        <time>2018-07-22T14:25:54Z</time>
      </trkpt>
      <trkpt lat="41.114317" lon="-3.649083">
        <ele>2285.0</ele>
        <time>2018-07-22T14:25:55Z</time>
      </trkpt>
      <trkpt lat="41.114333" lon="-3.649167">
        <ele>2287.0</ele>
        <time>2018-07-22T14:25:56Z</time>
      </trkpt>
      <trkpt lat="41.114350" lon="-3.649217">
        <ele>2289.0</ele>
        <time>2018-07-22T14:25:57Z</time>
      </trkpt>
      <trkpt lat="41.114367" lon="-3.649267">
        <ele>2291.0</ele>
        <time>2018-07-22T14:25:58Z</time>
      </trkpt>
      <trkpt lat="41.114383" lon="-3.649317">
        <ele>2291.0</ele>
        <time>2018-07-22T14:25:59Z</time>
      </trkpt>
      <trkpt lat="41.114417" lon="-3.649383">
        <ele>2291.0</ele>
        <time>2018-07-22T14:26:00Z</time>
      </trkpt>
      <trkpt lat="41.114450" lon="-3.649433">
        <ele>2292.0</ele>
        <time>2018-07-22T14:26:01Z</time>
      </trkpt>
      <trkpt lat="41.114500" lon="-3.649500">
        <ele>2293.0</ele>
        <time>2018-07-22T14:26:02Z</time>
      </trkpt>
      <trkpt lat="41.114550" lon="-3.649550">
        <ele>2294.0</ele>
        <time>2018-07-22T14:26:03Z</time>
      </trkpt>
      <trkpt lat="41.114617" lon="-3.649600">
        <ele>2296.0</ele>
        <time>2018-07-22T14:26:04Z</time>
      </trkpt>
      <trkpt lat="41.114683" lon="-3.649633">
        <ele>2297.0</ele>
        <time>2018-07-22T14:26:05Z</time>
      </trkpt>
      <trkpt lat="41.114733" lon="-3.649667">
        <ele>2299.0</ele>
        <time>2018-07-22T14:26:06Z</time>
      </trkpt>
      <trkpt lat="41.114800" lon="-3.649700">
        <ele>2300.0</ele>
        <time>2018-07-22T14:26:07Z</time>
      </trkpt>
      <trkpt lat="41.114850" lon="-3.649750">
        <ele>2301.0</ele>
        <time>2018-07-22T14:26:08Z</time>
      </trkpt>
      <trkpt lat="41.114917" lon="-3.649783">
        <ele>2302.0</ele>
        <time>2018-07-22T14:26:09Z</time>
      </trkpt>
      <trkpt lat="41.114983" lon="-3.649800">
        <ele>2304.0</ele>
        <time>2018-07-22T14:26:10Z</time>
      </trkpt>
      <trkpt lat="41.115067" lon="-3.649783">
        <ele>2306.0</ele>
        <time>2018-07-22T14:26:11Z</time>
      </trkpt>
      <trkpt lat="41.115150" lon="-3.649733">
        <ele>2307.0</ele>
        <time>2018-07-22T14:26:12Z</time>
      </trkpt>
      <trkpt lat="41.115233" lon="-3.649667">
        <ele>2309.0</ele>
        <time>2018-07-22T14:26:13Z</time>
      </trkpt>
      <trkpt lat="41.115300" lon="-3.649550">
        <ele>2310.0</ele>
        <time>2018-07-22T14:26:14Z</time>
      </trkpt>
      <trkpt lat="41.115350" lon="-3.649400">
        <ele>2312.0</ele>
        <time>2018-07-22T14:26:15Z</time>
      </trkpt>
      <trkpt lat="41.115383" lon="-3.649233">
        <ele>2315.0</ele>
        <time>2018-07-22T14:26:16Z</time>
      </trkpt>
      <trkpt lat="41.115367" lon="-3.649067">
        <ele>2317.0</ele>
        <time>2018-07-22T14:26:17Z</time>
      </trkpt>
      <trkpt lat="41.115317" lon="-3.648900">
        <ele>2320.0</ele>
        <time>2018-07-22T14:26:18Z</time>
      </trkpt>
      <trkpt lat="41.115250" lon="-3.648750">
        <ele>2323.0</ele>
        <time>2018-07-22T14:26:19Z</time>
      </trkpt>
      <trkpt lat="41.115150" lon="-3.648633">
        <ele>2327.0</ele>
        <time>2018-07-22T14:26:20Z</time>
      </trkpt>
      <trkpt lat="41.115050" lon="-3.648533">
        <ele>2330.0</ele>
        <time>2018-07-22T14:26:21Z</time>
      </trkpt>
      <trkpt lat="41.114933" lon="-3.648467">
        <ele>2333.0</ele>
        <time>2018-07-22T14:26:22Z</time>
      </trkpt>
      <trkpt lat="41.114833" lon="-3.648417">
        <ele>2336.0</ele>
        <time>2018-07-22T14:26:23Z</time>
      </trkpt>
      <trkpt lat="41.114750" lon="-3.648383">
        <ele>2338.0</ele>
        <time>2018-07-22T14:26:24Z</time>
      </trkpt>
      <trkpt lat="41.114650" lon="-3.648400">
        <ele>2339.0</ele>
        <time>2018-07-22T14:26:25Z</time>
      </trkpt>
      <trkpt lat="41.114567" lon="-3.648417">
        <ele>2339.0</ele>
        <time>2018-07-22T14:26:26Z</time>
      </trkpt>
      <trkpt lat="41.114500" lon="-3.648467">
        <ele>2340.0</ele>
        <time>2018-07-22T14:26:27Z</time>
      </trkpt>
      <trkpt lat="41.114433" lon="-3.648533">
        <ele>2341.0</ele>
        <time>2018-07-22T14:26:28Z</time>
      </trkpt>
      <trkpt lat="41.114383" lon="-3.648600">
        <ele>2342.0</ele>
        <time>2018-07-22T14:26:29Z</time>
      </trkpt>
      <trkpt lat="41.114367" lon="-3.648683">
        <ele>2343.0</ele>
        <time>2018-07-22T14:26:30Z</time>
      </trkpt>
      <trkpt lat="41.114367" lon="-3.648767">
        <ele>2343.0</ele>
        <time>2018-07-22T14:26:31Z</time>
      </trkpt>
      <trkpt lat="41.114383" lon="-3.648850">
        <ele>2343.0</ele>
        <time>2018-07-22T14:26:32Z</time>
      </trkpt>
      <trkpt lat="41.114433" lon="-3.648917">
        <ele>2344.0</ele>
        <time>2018-07-22T14:26:33Z</time>
      </trkpt>
      <trkpt lat="41.114467" lon="-3.648967">
        <ele>2345.0</ele>
        <time>2018-07-22T14:26:34Z</time>
      </trkpt>
      <trkpt lat="41.114533" lon="-3.649017">
        <ele>2346.0</ele>
        <time>2018-07-22T14:26:35Z</time>
      </trkpt>
      <trkpt lat="41.114583" lon="-3.649067">
        <ele>2346.0</ele>
        <time>2018-07-22T14:26:36Z</time>
      </trkpt>
      <trkpt lat="41.114667" lon="-3.649100">
        <ele>2346.0</ele>
        <time>2018-07-22T14:26:37Z</time>
      </trkpt>
      <trkpt lat="41.114750" lon="-3.649117">
        <ele>2346.0</ele>
        <time>2018-07-22T14:26:38Z</time>
      </trkpt>
      <trkpt lat="41.114850" lon="-3.649117">
        <ele>2347.0</ele>
        <time>2018-07-22T14:26:39Z</time>
      </trkpt>
      <trkpt lat="41.114933" lon="-3.649083">
        <ele>2350.0</ele>
        <time>2018-07-22T14:26:40Z</time>
      </trkpt>
      <trkpt lat="41.115000" lon="-3.649050">
        <ele>2352.0</ele>
        <time>2018-07-22T14:26:41Z</time>
      </trkpt>
      <trkpt lat="41.115083" lon="-3.649000">
        <ele>2354.0</ele>
        <time>2018-07-22T14:26:42Z</time>
      </trkpt>
      <trkpt lat="41.115150" lon="-3.648933">
        <ele>2355.0</ele>
        <time>2018-07-22T14:26:43Z</time>
      </trkpt>
      <trkpt lat="41.115217" lon="-3.648867">
        <ele>2356.0</ele>
        <time>2018-07-22T14:26:44Z</time>
      </trkpt>
      <trkpt lat="41.115267" lon="-3.648783">
        <ele>2357.0</ele>
        <time>2018-07-22T14:26:45Z</time>
      </trkpt>
      <trkpt lat="41.115333" lon="-3.648667">
        <ele>2357.0</ele>
        <time>2018-07-22T14:26:46Z</time>
      </trkpt>
      <trkpt lat="41.115383" lon="-3.648533">
        <ele>2358.0</ele>
        <time>2018-07-22T14:26:47Z</time>
      </trkpt>
      <trkpt lat="41.115433" lon="-3.648383">
        <ele>2360.0</ele>
        <time>2018-07-22T14:26:48Z</time>
      </trkpt>
      <trkpt lat="41.115450" lon="-3.648233">
        <ele>2362.0</ele>
        <time>2018-07-22T14:26:49Z</time>
      </trkpt>
      <trkpt lat="41.115433" lon="-3.648067">
        <ele>2363.0</ele>
        <time>2018-07-22T14:26:50Z</time>
      </trkpt>
      <trkpt lat="41.115417" lon="-3.647900">
        <ele>2364.0</ele>
        <time>2018-07-22T14:26:51Z</time>
      </trkpt>
      <trkpt lat="41.115367" lon="-3.647717">
        <ele>2365.0</ele>
        <time>2018-07-22T14:26:52Z</time>
      </trkpt>
      <trkpt lat="41.115283" lon="-3.647550">
        <ele>2366.0</ele>
        <time>2018-07-22T14:26:53Z</time>
      </trkpt>
      <trkpt lat="41.115200" lon="-3.647417">
        <ele>2368.0</ele>
        <time>2018-07-22T14:26:54Z</time>
      </trkpt>
      <trkpt lat="41.115100" lon="-3.647283">
        <ele>2370.0</ele>
        <time>2018-07-22T14:26:55Z</time>
      </trkpt>
      <trkpt lat="41.114983" lon="-3.647183">
        <ele>2371.0</ele>
        <time>2018-07-22T14:26:56Z</time>
      </trkpt>
      <trkpt lat="41.114850" lon="-3.647117">
        <ele>2373.0</ele>
        <time>2018-07-22T14:26:57Z</time>
      </trkpt>
      <trkpt lat="41.114733" lon="-3.647067">
        <ele>2374.0</ele>
        <time>2018-07-22T14:26:58Z</time>
      </trkpt>
      <trkpt lat="41.114617" lon="-3.647033">
        <ele>2376.0</ele>
        <time>2018-07-22T14:26:59Z</time>
      </trkpt>
      <trkpt lat="41.114500" lon="-3.647050">
        <ele>2378.0</ele>
        <time>2018-07-22T14:27:00Z</time>
      </trkpt>
      <trkpt lat="41.114400" lon="-3.647083">
        <ele>2379.0</ele>
        <time>2018-07-22T14:27:01Z</time>
      </trkpt>
      <trkpt lat="41.114300" lon="-3.647117">
        <ele>2381.0</ele>
        <time>2018-07-22T14:27:02Z</time>
      </trkpt>
      <trkpt lat="41.114217" lon="-3.647167">
        <ele>2383.0</ele>
        <time>2018-07-22T14:27:03Z</time>
      </trkpt>
      <trkpt lat="41.114150" lon="-3.647233">
        <ele>2385.0</ele>
        <time>2018-07-22T14:27:04Z</time>
      </trkpt>
      <trkpt lat="41.114100" lon="-3.647300">
        <ele>2387.0</ele>
        <time>2018-07-22T14:27:05Z</time>
      </trkpt>
      <trkpt lat="41.114067" lon="-3.647367">
        <ele>2387.0</ele>
        <time>2018-07-22T14:27:06Z</time>
      </trkpt>
      <trkpt lat="41.114067" lon="-3.647433">
        <ele>2387.0</ele>
        <time>2018-07-22T14:27:07Z</time>
      </trkpt>
      <trkpt lat="41.114067" lon="-3.647517">
        <ele>2387.0</ele>
        <time>2018-07-22T14:27:08Z</time>
      </trkpt>
      <trkpt lat="41.114083" lon="-3.647600">
        <ele>2386.0</ele>
        <time>2018-07-22T14:27:09Z</time>
      </trkpt>
      <trkpt lat="41.114117" lon="-3.647667">
        <ele>2387.0</ele>
        <time>2018-07-22T14:27:10Z</time>
      </trkpt>
      <trkpt lat="41.114150" lon="-3.647750">
        <ele>2387.0</ele>
        <time>2018-07-22T14:27:11Z</time>
      </trkpt>
      <trkpt lat="41.114217" lon="-3.647800">
        <ele>2388.0</ele>
        <time>2018-07-22T14:27:12Z</time>
      </trkpt>
      <trkpt lat="41.114267" lon="-3.647850">
        <ele>2389.0</ele>
        <time>2018-07-22T14:27:13Z</time>
      </trkpt>
      <trkpt lat="41.114350" lon="-3.647867">
        <ele>2390.0</ele>
        <time>2018-07-22T14:27:14Z</time>
      </trkpt>
      <trkpt lat="41.114417" lon="-3.647900">
        <ele>2391.0</ele>
        <time>2018-07-22T14:27:15Z</time>
      </trkpt>
      <trkpt lat="41.114483" lon="-3.647917">
        <ele>2392.0</ele>
        <time>2018-07-22T14:27:16Z</time>
      </trkpt>
      <trkpt lat="41.114550" lon="-3.647917">
        <ele>2393.0</ele>
        <time>2018-07-22T14:27:17Z</time>
      </trkpt>
      <trkpt lat="41.114633" lon="-3.647917">
        <ele>2393.0</ele>
        <time>2018-07-22T14:27:18Z</time>
      </trkpt>
      <trkpt lat="41.114700" lon="-3.647933">
        <ele>2393.0</ele>
        <time>2018-07-22T14:27:19Z</time>
      </trkpt>
      <trkpt lat="41.114767" lon="-3.647933">
        <ele>2393.0</ele>
        <time>2018-07-22T14:27:20Z</time>
      </trkpt>
      <trkpt lat="41.114850" lon="-3.647933">
        <ele>2392.0</ele>
        <time>2018-07-22T14:27:21Z</time>
      </trkpt>
      <trkpt lat="41.114950" lon="-3.647933">
        <ele>2391.0</ele>
        <time>2018-07-22T14:27:22Z</time>
      </trkpt>
      <trkpt lat="41.115033" lon="-3.647900">
        <ele>2390.0</ele>
        <time>2018-07-22T14:27:23Z</time>
      </trkpt>
      <trkpt lat="41.115133" lon="-3.647883">
        <ele>2390.0</ele>
        <time>2018-07-22T14:27:24Z</time>
      </trkpt>
      <trkpt lat="41.115217" lon="-3.647833">
        <ele>2390.0</ele>
        <time>2018-07-22T14:27:25Z</time>
      </trkpt>
      <trkpt lat="41.115300" lon="-3.647800">
        <ele>2391.0</ele>
        <time>2018-07-22T14:27:26Z</time>
      </trkpt>
      <trkpt lat="41.115367" lon="-3.647750">
        <ele>2391.0</ele>
        <time>2018-07-22T14:27:27Z</time>
      </trkpt>
      <trkpt lat="41.115433" lon="-3.647700">
        <ele>2390.0</ele>
        <time>2018-07-22T14:27:28Z</time>
      </trkpt>
      <trkpt lat="41.115500" lon="-3.647650">
        <ele>2390.0</ele>
        <time>2018-07-22T14:27:29Z</time>
      </trkpt>
      <trkpt lat="41.115567" lon="-3.647583">
        <ele>2389.0</ele>
        <time>2018-07-22T14:27:30Z</time>
      </trkpt>
      <trkpt lat="41.115650" lon="-3.647533">
        <ele>2388.0</ele>
        <time>2018-07-22T14:27:31Z</time>
      </trkpt>
      <trkpt lat="41.115717" lon="-3.647467">
        <ele>2387.0</ele>
        <time>2018-07-22T14:27:32Z</time>
      </trkpt>
      <trkpt lat="41.115800" lon="-3.647400">
        <ele>2386.0</ele>
        <time>2018-07-22T14:27:33Z</time>
      </trkpt>
      <trkpt lat="41.115883" lon="-3.647350">
        <ele>2386.0</ele>
        <time>2018-07-22T14:27:34Z</time>
      </trkpt>
      <trkpt lat="41.115950" lon="-3.647300">
        <ele>2385.0</ele>
        <time>2018-07-22T14:27:35Z</time>
      </trkpt>
      <trkpt lat="41.116033" lon="-3.647267">
        <ele>2385.0</ele>
        <time>2018-07-22T14:27:36Z</time>
      </trkpt>
      <trkpt lat="41.116100" lon="-3.647217">
        <ele>2385.0</ele>
        <time>2018-07-22T14:27:37Z</time>
      </trkpt>
      <trkpt lat="41.116183" lon="-3.647150">
        <ele>2384.0</ele>
        <time>2018-07-22T14:27:38Z</time>
      </trkpt>
      <trkpt lat="41.116250" lon="-3.647083">
        <ele>2383.0</ele>
        <time>2018-07-22T14:27:39Z</time>
      </trkpt>
      <trkpt lat="41.116333" lon="-3.647000">
        <ele>2384.0</ele>
        <time>2018-07-22T14:27:40Z</time>
      </trkpt>
      <trkpt lat="41.116400" lon="-3.646933">
        <ele>2386.0</ele>
        <time>2018-07-22T14:27:41Z</time>
      </trkpt>
      <trkpt lat="41.116467" lon="-3.646900">
        <ele>2387.0</ele>
        <time>2018-07-22T14:27:42Z</time>
      </trkpt>
      <trkpt lat="41.116517" lon="-3.646867">
        <ele>2388.0</ele>
        <time>2018-07-22T14:27:43Z</time>
      </trkpt>
      <trkpt lat="41.116583" lon="-3.646833">
        <ele>2388.0</ele>
        <time>2018-07-22T14:27:44Z</time>
      </trkpt>
      <trkpt lat="41.116667" lon="-3.646800">
        <ele>2389.0</ele>
        <time>2018-07-22T14:27:45Z</time>
      </trkpt>
      <trkpt lat="41.116733" lon="-3.646767">
        <ele>2390.0</ele>
        <time>2018-07-22T14:27:46Z</time>
      </trkpt>
      <trkpt lat="41.116817" lon="-3.646733">
        <ele>2390.0</ele>
        <time>2018-07-22T14:27:47Z</time>
      </trkpt>
      <trkpt lat="41.116900" lon="-3.646683">
        <ele>2392.0</ele>
        <time>2018-07-22T14:27:48Z</time>
      </trkpt>
      <trkpt lat="41.116983" lon="-3.646650">
        <ele>2392.0</ele>
        <time>2018-07-22T14:27:49Z</time>
      </trkpt>
      <trkpt lat="41.117067" lon="-3.646617">
        <ele>2393.0</ele>
        <time>2018-07-22T14:27:50Z</time>
      </trkpt>
      <trkpt lat="41.117150" lon="-3.646600">
        <ele>2395.0</ele>
        <time>2018-07-22T14:27:51Z</time>
      </trkpt>
      <trkpt lat="41.117217" lon="-3.646583">
        <ele>2395.0</ele>
        <time>2018-07-22T14:27:52Z</time>
      </trkpt>
      <trkpt lat="41.117283" lon="-3.646567">
        <ele>2395.0</ele>
        <time>2018-07-22T14:27:53Z</time>
      </trkpt>
      <trkpt lat="41.117350" lon="-3.646550">
        <ele>2394.0</ele>
        <time>2018-07-22T14:27:54Z</time>
      </trkpt>
      <trkpt lat="41.117417" lon="-3.646533">
        <ele>2393.0</ele>
        <time>2018-07-22T14:27:55Z</time>
      </trkpt>
      <trkpt lat="41.117500" lon="-3.646500">
        <ele>2392.0</ele>
        <time>2018-07-22T14:27:56Z</time>
      </trkpt>
      <trkpt lat="41.117600" lon="-3.646467">
        <ele>2392.0</ele>
        <time>2018-07-22T14:27:57Z</time>
      </trkpt>
      <trkpt lat="41.117683" lon="-3.646433">
        <ele>2392.0</ele>
        <time>2018-07-22T14:27:58Z</time>
      </trkpt>
      <trkpt lat="41.117767" lon="-3.646383">
        <ele>2392.0</ele>
        <time>2018-07-22T14:27:59Z</time>
      </trkpt>
      <trkpt lat="41.117850" lon="-3.646350">
        <ele>2391.0</ele>
        <time>2018-07-22T14:28:00Z</time>
      </trkpt>
      <trkpt lat="41.117933" lon="-3.646300">
        <ele>2390.0</ele>
        <time>2018-07-22T14:28:01Z</time>
      </trkpt>
      <trkpt lat="41.118017" lon="-3.646267">
        <ele>2389.0</ele>
        <time>2018-07-22T14:28:02Z</time>
      </trkpt>
      <trkpt lat="41.118117" lon="-3.646217">
        <ele>2388.0</ele>
        <time>2018-07-22T14:28:03Z</time>
      </trkpt>
      <trkpt lat="41.118200" lon="-3.646150">
        <ele>2388.0</ele>
        <time>2018-07-22T14:28:04Z</time>
      </trkpt>
      <trkpt lat="41.118267" lon="-3.646100">
        <ele>2388.0</ele>
        <time>2018-07-22T14:28:05Z</time>
      </trkpt>
      <trkpt lat="41.118333" lon="-3.646033">
        <ele>2387.0</ele>
        <time>2018-07-22T14:28:06Z</time>
      </trkpt>
      <trkpt lat="41.118417" lon="-3.645983">
        <ele>2385.0</ele>
        <time>2018-07-22T14:28:07Z</time>
      </trkpt>
      <trkpt lat="41.118483" lon="-3.645917">
        <ele>2383.0</ele>
        <time>2018-07-22T14:28:08Z</time>
      </trkpt>
      <trkpt lat="41.118567" lon="-3.645867">
        <ele>2381.0</ele>
        <time>2018-07-22T14:28:09Z</time>
      </trkpt>
      <trkpt lat="41.118667" lon="-3.645817">
        <ele>2380.0</ele>
        <time>2018-07-22T14:28:10Z</time>
      </trkpt>
      <trkpt lat="41.118750" lon="-3.645750">
        <ele>2379.0</ele>
        <time>2018-07-22T14:28:11Z</time>
      </trkpt>
      <trkpt lat="41.118833" lon="-3.645717">
        <ele>2380.0</ele>
        <time>2018-07-22T14:28:12Z</time>
      </trkpt>
      <trkpt lat="41.118917" lon="-3.645667">
        <ele>2380.0</ele>
        <time>2018-07-22T14:28:13Z</time>
      </trkpt>
      <trkpt lat="41.118983" lon="-3.645633">
        <ele>2378.0</ele>
        <time>2018-07-22T14:28:14Z</time>
      </trkpt>
      <trkpt lat="41.119067" lon="-3.645600">
        <ele>2376.0</ele>
        <time>2018-07-22T14:28:15Z</time>
      </trkpt>
      <trkpt lat="41.119167" lon="-3.645550">
        <ele>2372.0</ele>
        <time>2018-07-22T14:28:16Z</time>
      </trkpt>
      <trkpt lat="41.119267" lon="-3.645483">
        <ele>2368.0</ele>
        <time>2018-07-22T14:28:17Z</time>
      </trkpt>
      <trkpt lat="41.119383" lon="-3.645417">
        <ele>2364.0</ele>
        <time>2018-07-22T14:28:18Z</time>
      </trkpt>
      <trkpt lat="41.119500" lon="-3.645367">
        <ele>2362.0</ele>
        <time>2018-07-22T14:28:19Z</time>
      </trkpt>
      <trkpt lat="41.119617" lon="-3.645317">
        <ele>2361.0</ele>
        <time>2018-07-22T14:28:20Z</time>
      </trkpt>
      <trkpt lat="41.119733" lon="-3.645267">
        <ele>2362.0</ele>
        <time>2018-07-22T14:28:21Z</time>
      </trkpt>
      <trkpt lat="41.119817" lon="-3.645217">
        <ele>2364.0</ele>
        <time>2018-07-22T14:28:22Z</time>
      </trkpt>
      <trkpt lat="41.119883" lon="-3.645167">
        <ele>2365.0</ele>
        <time>2018-07-22T14:28:23Z</time>
      </trkpt>
      <trkpt lat="41.119950" lon="-3.645100">
        <ele>2364.0</ele>
        <time>2018-07-22T14:28:24Z</time>
      </trkpt>
      <trkpt lat="41.120017" lon="-3.645050">
        <ele>2362.0</ele>
        <time>2018-07-22T14:28:25Z</time>
      </trkpt>
      <trkpt lat="41.120117" lon="-3.644983">
        <ele>2359.0</ele>
        <time>2018-07-22T14:28:26Z</time>
      </trkpt>
      <trkpt lat="41.120200" lon="-3.644917">
        <ele>2357.0</ele>
        <time>2018-07-22T14:28:27Z</time>
      </trkpt>
      <trkpt lat="41.120300" lon="-3.644867">
        <ele>2355.0</ele>
        <time>2018-07-22T14:28:28Z</time>
      </trkpt>
      <trkpt lat="41.120400" lon="-3.644817">
        <ele>2352.0</ele>
        <time>2018-07-22T14:28:29Z</time>
      </trkpt>
      <trkpt lat="41.120483" lon="-3.644767">
        <ele>2350.0</ele>
        <time>2018-07-22T14:28:30Z</time>
      </trkpt>
      <trkpt lat="41.120583" lon="-3.644700">
        <ele>2347.0</ele>
        <time>2018-07-22T14:28:31Z</time>
      </trkpt>
      <trkpt lat="41.120667" lon="-3.644633">
        <ele>2345.0</ele>
        <time>2018-07-22T14:28:32Z</time>
      </trkpt>
      <trkpt lat="41.120750" lon="-3.644583">
        <ele>2343.0</ele>
        <time>2018-07-22T14:28:33Z</time>
      </trkpt>
      <trkpt lat="41.120833" lon="-3.644517">
        <ele>2340.0</ele>
        <time>2018-07-22T14:28:34Z</time>
      </trkpt>
      <trkpt lat="41.120933" lon="-3.644467">
        <ele>2337.0</ele>
        <time>2018-07-22T14:28:35Z</time>
      </trkpt>
      <trkpt lat="41.121033" lon="-3.644400">
        <ele>2334.0</ele>
        <time>2018-07-22T14:28:36Z</time>
      </trkpt>
      <trkpt lat="41.121133" lon="-3.644333">
        <ele>2331.0</ele>
        <time>2018-07-22T14:28:37Z</time>
      </trkpt>
      <trkpt lat="41.121233" lon="-3.644250">
        <ele>2329.0</ele>
        <time>2018-07-22T14:28:38Z</time>
      </trkpt>
      <trkpt lat="41.121333" lon="-3.644183">
        <ele>2327.0</ele>
        <time>2018-07-22T14:28:39Z</time>
      </trkpt>
      <trkpt lat="41.121433" lon="-3.644100">
        <ele>2325.0</ele>
        <time>2018-07-22T14:28:40Z</time>
      </trkpt>
      <trkpt lat="41.121517" lon="-3.644050">
        <ele>2322.0</ele>
        <time>2018-07-22T14:28:41Z</time>
      </trkpt>
      <trkpt lat="41.121617" lon="-3.644000">
        <ele>2320.0</ele>
        <time>2018-07-22T14:28:42Z</time>
      </trkpt>
      <trkpt lat="41.121717" lon="-3.643950">
        <ele>2317.0</ele>
        <time>2018-07-22T14:28:43Z</time>
      </trkpt>
      <trkpt lat="41.121817" lon="-3.643917">
        <ele>2314.0</ele>
        <time>2018-07-22T14:28:44Z</time>
      </trkpt>
      <trkpt lat="41.121917" lon="-3.643883">
        <ele>2312.0</ele>
        <time>2018-07-22T14:28:45Z</time>
      </trkpt>
      <trkpt lat="41.122017" lon="-3.643833">
        <ele>2310.0</ele>
        <time>2018-07-22T14:28:46Z</time>
      </trkpt>
      <trkpt lat="41.122117" lon="-3.643783">
        <ele>2308.0</ele>
        <time>2018-07-22T14:28:47Z</time>
      </trkpt>
      <trkpt lat="41.122217" lon="-3.643750">
        <ele>2306.0</ele>
        <time>2018-07-22T14:28:48Z</time>
      </trkpt>
      <trkpt lat="41.122317" lon="-3.643717">
        <ele>2304.0</ele>
        <time>2018-07-22T14:28:49Z</time>
      </trkpt>
      <trkpt lat="41.122417" lon="-3.643683">
        <ele>2302.0</ele>
        <time>2018-07-22T14:28:50Z</time>
      </trkpt>
      <trkpt lat="41.122500" lon="-3.643683">
        <ele>2300.0</ele>
        <time>2018-07-22T14:28:51Z</time>
      </trkpt>
      <trkpt lat="41.122600" lon="-3.643667">
        <ele>2298.0</ele>
        <time>2018-07-22T14:28:52Z</time>
      </trkpt>
      <trkpt lat="41.122700" lon="-3.643667">
        <ele>2296.0</ele>
        <time>2018-07-22T14:28:53Z</time>
      </trkpt>
      <trkpt lat="41.122800" lon="-3.643633">
        <ele>2294.0</ele>
        <time>2018-07-22T14:28:54Z</time>
      </trkpt>
      <trkpt lat="41.122917" lon="-3.643583">
        <ele>2292.0</ele>
        <time>2018-07-22T14:28:55Z</time>
      </trkpt>
      <trkpt lat="41.123017" lon="-3.643550">
        <ele>2291.0</ele>
        <time>2018-07-22T14:28:56Z</time>
      </trkpt>
      <trkpt lat="41.123100" lon="-3.643500">
        <ele>2290.0</ele>
        <time>2018-07-22T14:28:57Z</time>
      </trkpt>
      <trkpt lat="41.123200" lon="-3.643467">
        <ele>2291.0</ele>
        <time>2018-07-22T14:28:58Z</time>
      </trkpt>
      <trkpt lat="41.123300" lon="-3.643450">
        <ele>2291.0</ele>
        <time>2018-07-22T14:28:59Z</time>
      </trkpt>
      <trkpt lat="41.123383" lon="-3.643450">
        <ele>2291.0</ele>
        <time>2018-07-22T14:29:00Z</time>
      </trkpt>
      <trkpt lat="41.123483" lon="-3.643433">
        <ele>2291.0</ele>
        <time>2018-07-22T14:29:01Z</time>
      </trkpt>
      <trkpt lat="41.123583" lon="-3.643400">
        <ele>2292.0</ele>
        <time>2018-07-22T14:29:02Z</time>
      </trkpt>
      <trkpt lat="41.123683" lon="-3.643383">
        <ele>2294.0</ele>
        <time>2018-07-22T14:29:03Z</time>
      </trkpt>
      <trkpt lat="41.123767" lon="-3.643383">
        <ele>2296.0</ele>
        <time>2018-07-22T14:29:04Z</time>
      </trkpt>
      <trkpt lat="41.123833" lon="-3.643383">
        <ele>2297.0</ele>
        <time>2018-07-22T14:29:05Z</time>
      </trkpt>
      <trkpt lat="41.123917" lon="-3.643383">
        <ele>2297.0</ele>
        <time>2018-07-22T14:29:06Z</time>
      </trkpt>
      <trkpt lat="41.124000" lon="-3.643367">
        <ele>2298.0</ele>
        <time>2018-07-22T14:29:07Z</time>
      </trkpt>
      <trkpt lat="41.124100" lon="-3.643317">
        <ele>2299.0</ele>
        <time>2018-07-22T14:29:08Z</time>
      </trkpt>
      <trkpt lat="41.124217" lon="-3.643267">
        <ele>2300.0</ele>
        <time>2018-07-22T14:29:09Z</time>
      </trkpt>
      <trkpt lat="41.124333" lon="-3.643217">
        <ele>2303.0</ele>
        <time>2018-07-22T14:29:10Z</time>
      </trkpt>
      <trkpt lat="41.124433" lon="-3.643183">
        <ele>2308.0</ele>
        <time>2018-07-22T14:29:11Z</time>
      </trkpt>
      <trkpt lat="41.124533" lon="-3.643150">
        <ele>2312.0</ele>
        <time>2018-07-22T14:29:12Z</time>
      </trkpt>
      <trkpt lat="41.124633" lon="-3.643133">
        <ele>2316.0</ele>
        <time>2018-07-22T14:29:13Z</time>
      </trkpt>
      <trkpt lat="41.124733" lon="-3.643133">
        <ele>2320.0</ele>
        <time>2018-07-22T14:29:14Z</time>
      </trkpt>
      <trkpt lat="41.124833" lon="-3.643117">
        <ele>2324.0</ele>
        <time>2018-07-22T14:29:15Z</time>
      </trkpt>
      <trkpt lat="41.124917" lon="-3.643083">
        <ele>2328.0</ele>
        <time>2018-07-22T14:29:16Z</time>
      </trkpt>
      <trkpt lat="41.125000" lon="-3.643000">
        <ele>2331.0</ele>
        <time>2018-07-22T14:29:17Z</time>
      </trkpt>
      <trkpt lat="41.125083" lon="-3.642883">
        <ele>2333.0</ele>
        <time>2018-07-22T14:29:18Z</time>
      </trkpt>
      <trkpt lat="41.125117" lon="-3.642717">
        <ele>2335.0</ele>
        <time>2018-07-22T14:29:19Z</time>
      </trkpt>
      <trkpt lat="41.125133" lon="-3.642550">
        <ele>2338.0</ele>
        <time>2018-07-22T14:29:20Z</time>
      </trkpt>
      <trkpt lat="41.125117" lon="-3.642383">
        <ele>2341.0</ele>
        <time>2018-07-22T14:29:21Z</time>
      </trkpt>
      <trkpt lat="41.125067" lon="-3.642250">
        <ele>2344.0</ele>
        <time>2018-07-22T14:29:22Z</time>
      </trkpt>
      <trkpt lat="41.125000" lon="-3.642133">
        <ele>2346.0</ele>
        <time>2018-07-22T14:29:23Z</time>
      </trkpt>
      <trkpt lat="41.124917" lon="-3.642067">
        <ele>2349.0</ele>
        <time>2018-07-22T14:29:24Z</time>
      </trkpt>
      <trkpt lat="41.124817" lon="-3.642033">
        <ele>2352.0</ele>
        <time>2018-07-22T14:29:25Z</time>
      </trkpt>
      <trkpt lat="41.124717" lon="-3.642050">
        <ele>2354.0</ele>
        <time>2018-07-22T14:29:26Z</time>
      </trkpt>
      <trkpt lat="41.124633" lon="-3.642117">
        <ele>2357.0</ele>
        <time>2018-07-22T14:29:27Z</time>
      </trkpt>
      <trkpt lat="41.124583" lon="-3.642200">
        <ele>2361.0</ele>
        <time>2018-07-22T14:29:28Z</time>
      </trkpt>
      <trkpt lat="41.124533" lon="-3.642283">
        <ele>2367.0</ele>
        <time>2018-07-22T14:29:29Z</time>
      </trkpt>
      <trkpt lat="41.124500" lon="-3.642350">
        <ele>2372.0</ele>
        <time>2018-07-22T14:29:30Z</time>
      </trkpt>
      <trkpt lat="41.124467" lon="-3.642400">
        <ele>2377.0</ele>
        <time>2018-07-22T14:29:31Z</time>
      </trkpt>
      <trkpt lat="41.124433" lon="-3.642467">
        <ele>2380.0</ele>
        <time>2018-07-22T14:29:32Z</time>
      </trkpt>
      <trkpt lat="41.124417" lon="-3.642550">
        <ele>2383.0</ele>
        <time>2018-07-22T14:29:33Z</time>
      </trkpt>
      <trkpt lat="41.124417" lon="-3.642633">
        <ele>2384.0</ele>
        <time>2018-07-22T14:29:34Z</time>
      </trkpt>
      <trkpt lat="41.124433" lon="-3.642717">
        <ele>2386.0</ele>
        <time>2018-07-22T14:29:35Z</time>
      </trkpt>
      <trkpt lat="41.124483" lon="-3.642783">
        <ele>2387.0</ele>
        <time>2018-07-22T14:29:36Z</time>
      </trkpt>
      <trkpt lat="41.124550" lon="-3.642833">
        <ele>2388.0</ele>
        <time>2018-07-22T14:29:37Z</time>
      </trkpt>
      <trkpt lat="41.124650" lon="-3.642867">
        <ele>2390.0</ele>
        <time>2018-07-22T14:29:38Z</time>
      </trkpt>
      <trkpt lat="41.124733" lon="-3.642900">
        <ele>2392.0</ele>
        <time>2018-07-22T14:29:39Z</time>
      </trkpt>
      <trkpt lat="41.124817" lon="-3.642900">
        <ele>2394.0</ele>
        <time>2018-07-22T14:29:40Z</time>
      </trkpt>
      <trkpt lat="41.124917" lon="-3.642883">
        <ele>2395.0</ele>
        <time>2018-07-22T14:29:41Z</time>
      </trkpt>
      <trkpt lat="41.125033" lon="-3.642850">
        <ele>2397.0</ele>
        <time>2018-07-22T14:29:42Z</time>
      </trkpt>
      <trkpt lat="41.125133" lon="-3.642817">
        <ele>2398.0</ele>
        <time>2018-07-22T14:29:43Z</time>
      </trkpt>
      <trkpt lat="41.125250" lon="-3.642767">
        <ele>2400.0</ele>
        <time>2018-07-22T14:29:44Z</time>
      </trkpt>
      <trkpt lat="41.125350" lon="-3.642700">
        <ele>2402.0</ele>
        <time>2018-07-22T14:29:45Z</time>
      </trkpt>
      <trkpt lat="41.125433" lon="-3.642617">
        <ele>2404.0</ele>
        <time>2018-07-22T14:29:46Z</time>
      </trkpt>
      <trkpt lat="41.125533" lon="-3.642483">
        <ele>2405.0</ele>
        <time>2018-07-22T14:29:47Z</time>
      </trkpt>
      <trkpt lat="41.125617" lon="-3.642350">
        <ele>2406.0</ele>
        <time>2018-07-22T14:29:48Z</time>
      </trkpt>
      <trkpt lat="41.125700" lon="-3.642183">
        <ele>2407.0</ele>
        <time>2018-07-22T14:29:49Z</time>
      </trkpt>
      <trkpt lat="41.125750" lon="-3.642000">
        <ele>2408.0</ele>
        <time>2018-07-22T14:29:50Z</time>
      </trkpt>
      <trkpt lat="41.125783" lon="-3.641817">
        <ele>2410.0</ele>
        <time>2018-07-22T14:29:51Z</time>
      </trkpt>
      <trkpt lat="41.125783" lon="-3.641617">
        <ele>2411.0</ele>
        <time>2018-07-22T14:29:52Z</time>
      </trkpt>
      <trkpt lat="41.125750" lon="-3.641450">
        <ele>2412.0</ele>
        <time>2018-07-22T14:29:53Z</time>
      </trkpt>
      <trkpt lat="41.125700" lon="-3.641283">
        <ele>2415.0</ele>
        <time>2018-07-22T14:29:54Z</time>
      </trkpt>
      <trkpt lat="41.125633" lon="-3.641167">
        <ele>2418.0</ele>
        <time>2018-07-22T14:29:55Z</time>
      </trkpt>
      <trkpt lat="41.125533" lon="-3.641067">
        <ele>2422.0</ele>
        <time>2018-07-22T14:29:56Z</time>
      </trkpt>
      <trkpt lat="41.125450" lon="-3.640983">
        <ele>2427.0</ele>
        <time>2018-07-22T14:29:57Z</time>
      </trkpt>
      <trkpt lat="41.125367" lon="-3.640933">
        <ele>2431.0</ele>
        <time>2018-07-22T14:29:58Z</time>
      </trkpt>
      <trkpt lat="41.125283" lon="-3.640867">
        <ele>2436.0</ele>
        <time>2018-07-22T14:29:59Z</time>
      </trkpt>
      <trkpt lat="41.125217" lon="-3.640800">
        <ele>2440.0</ele>
        <time>2018-07-22T14:30:00Z</time>
      </trkpt>
      <trkpt lat="41.125150" lon="-3.640733">
        <ele>2445.0</ele>
        <time>2018-07-22T14:30:01Z</time>
      </trkpt>
      <trkpt lat="41.125067" lon="-3.640667">
        <ele>2449.0</ele>
        <time>2018-07-22T14:30:02Z</time>
      </trkpt>
      <trkpt lat="41.125000" lon="-3.640617">
        <ele>2453.0</ele>
        <time>2018-07-22T14:30:03Z</time>
      </trkpt>
      <trkpt lat="41.124933" lon="-3.640567">
        <ele>2457.0</ele>
        <time>2018-07-22T14:30:04Z</time>
      </trkpt>
      <trkpt lat="41.124867" lon="-3.640533">
        <ele>2460.0</ele>
        <time>2018-07-22T14:30:05Z</time>
      </trkpt>
      <trkpt lat="41.124800" lon="-3.640517">
        <ele>2462.0</ele>
        <time>2018-07-22T14:30:06Z</time>
      </trkpt>
      <trkpt lat="41.124733" lon="-3.640533">
        <ele>2465.0</ele>
        <time>2018-07-22T14:30:07Z</time>
      </trkpt>
      <trkpt lat="41.124683" lon="-3.640567">
        <ele>2467.0</ele>
        <time>2018-07-22T14:30:08Z</time>
      </trkpt>
      <trkpt lat="41.124633" lon="-3.640617">
        <ele>2471.0</ele>
        <time>2018-07-22T14:30:09Z</time>
      </trkpt>
      <trkpt lat="41.124583" lon="-3.640667">
        <ele>2474.0</ele>
        <time>2018-07-22T14:30:10Z</time>
      </trkpt>
      <trkpt lat="41.124533" lon="-3.640700">
        <ele>2477.0</ele>
        <time>2018-07-22T14:30:11Z</time>
      </trkpt>
      <trkpt lat="41.124500" lon="-3.640750">
        <ele>2480.0</ele>
        <time>2018-07-22T14:30:12Z</time>
      </trkpt>
      <trkpt lat="41.124483" lon="-3.640783">
        <ele>2482.0</ele>
        <time>2018-07-22T14:30:13Z</time>
      </trkpt>
      <trkpt lat="41.124467" lon="-3.640833">
        <ele>2484.0</ele>
        <time>2018-07-22T14:30:14Z</time>
      </trkpt>
      <trkpt lat="41.124450" lon="-3.640883">
        <ele>2486.0</ele>
        <time>2018-07-22T14:30:15Z</time>
      </trkpt>
      <trkpt lat="41.124467" lon="-3.640933">
        <ele>2487.0</ele>
        <time>2018-07-22T14:30:16Z</time>
      </trkpt>
      <trkpt lat="41.124500" lon="-3.640983">
        <ele>2488.0</ele>
        <time>2018-07-22T14:30:17Z</time>
      </trkpt>
      <trkpt lat="41.124533" lon="-3.641017">
        <ele>2489.0</ele>
        <time>2018-07-22T14:30:18Z</time>
      </trkpt>
      <trkpt lat="41.124583" lon="-3.641067">
        <ele>2491.0</ele>
        <time>2018-07-22T14:30:19Z</time>
      </trkpt>
      <trkpt lat="41.124667" lon="-3.641100">
        <ele>2493.0</ele>
        <time>2018-07-22T14:30:20Z</time>
      </trkpt>
      <trkpt lat="41.124750" lon="-3.641117">
        <ele>2495.0</ele>
        <time>2018-07-22T14:30:21Z</time>
      </trkpt>
      <trkpt lat="41.124850" lon="-3.641117">
        <ele>2498.0</ele>
        <time>2018-07-22T14:30:22Z</time>
      </trkpt>
      <trkpt lat="41.124950" lon="-3.641100">
        <ele>2502.0</ele>
        <time>2018-07-22T14:30:23Z</time>
      </trkpt>
      <trkpt lat="41.125033" lon="-3.641067">
        <ele>2505.0</ele>
        <time>2018-07-22T14:30:24Z</time>
      </trkpt>
      <trkpt lat="41.125133" lon="-3.641033">
        <ele>2508.0</ele>
        <time>2018-07-22T14:30:25Z</time>
      </trkpt>
      <trkpt lat="41.125217" lon="-3.640983">
        <ele>2510.0</ele>
        <time>2018-07-22T14:30:26Z</time>
      </trkpt>
      <trkpt lat="41.125317" lon="-3.640950">
        <ele>2512.0</ele>
        <time>2018-07-22T14:30:27Z</time>
      </trkpt>
      <trkpt lat="41.125433" lon="-3.640900">
        <ele>2514.0</ele>
        <time>2018-07-22T14:30:28Z</time>
      </trkpt>
      <trkpt lat="41.125533" lon="-3.640850">
        <ele>2516.0</ele>
        <time>2018-07-22T14:30:29Z</time>
      </trkpt>
      <trkpt lat="41.125650" lon="-3.640817">
        <ele>2518.0</ele>
        <time>2018-07-22T14:30:30Z</time>
      </trkpt>
      <trkpt lat="41.125750" lon="-3.640767">
        <ele>2520.0</ele>
        <time>2018-07-22T14:30:31Z</time>
      </trkpt>
      <trkpt lat="41.125850" lon="-3.640733">
        <ele>2523.0</ele>
        <time>2018-07-22T14:30:32Z</time>
      </trkpt>
      <trkpt lat="41.125933" lon="-3.640683">
        <ele>2525.0</ele>
        <time>2018-07-22T14:30:33Z</time>
      </trkpt>
      <trkpt lat="41.126033" lon="-3.640633">
        <ele>2526.0</ele>
        <time>2018-07-22T14:30:34Z</time>
      </trkpt>
      <trkpt lat="41.126150" lon="-3.640583">
        <ele>2527.0</ele>
        <time>2018-07-22T14:30:35Z</time>
      </trkpt>
      <trkpt lat="41.126267" lon="-3.640533">
        <ele>2529.0</ele>
        <time>2018-07-22T14:30:36Z</time>
      </trkpt>
      <trkpt lat="41.126367" lon="-3.640467">
        <ele>2532.0</ele>
        <time>2018-07-22T14:30:37Z</time>
      </trkpt>
      <trkpt lat="41.126483" lon="-3.640417">
        <ele>2535.0</ele>
        <time>2018-07-22T14:30:38Z</time>
      </trkpt>
      <trkpt lat="41.126583" lon="-3.640350">
        <ele>2539.0</ele>
        <time>2018-07-22T14:30:39Z</time>
      </trkpt>
      <trkpt lat="41.126667" lon="-3.640283">
        <ele>2541.0</ele>
        <time>2018-07-22T14:30:40Z</time>
      </trkpt>
      <trkpt lat="41.126767" lon="-3.640217">
        <ele>2542.0</ele>
        <time>2018-07-22T14:30:41Z</time>
      </trkpt>
      <trkpt lat="41.126867" lon="-3.640133">
        <ele>2542.0</ele>
        <time>2018-07-22T14:30:42Z</time>
      </trkpt>
      <trkpt lat="41.126983" lon="-3.640050">
        <ele>2541.0</ele>
        <time>2018-07-22T14:30:43Z</time>
      </trkpt>
      <trkpt lat="41.127100" lon="-3.639967">
        <ele>2541.0</ele>
        <time>2018-07-22T14:30:44Z</time>
      </trkpt>
      <trkpt lat="41.127233" lon="-3.639883">
        <ele>2542.0</ele>
        <time>2018-07-22T14:30:45Z</time>
      </trkpt>
      <trkpt lat="41.127350" lon="-3.639800">
        <ele>2543.0</ele>
        <time>2018-07-22T14:30:46Z</time>
      </trkpt>
      <trkpt lat="41.127450" lon="-3.639700">
        <ele>2545.0</ele>
        <time>2018-07-22T14:30:47Z</time>
      </trkpt>
      <trkpt lat="41.127567" lon="-3.639600">
        <ele>2547.0</ele>
        <time>2018-07-22T14:30:48Z</time>
      </trkpt>
      <trkpt lat="41.127667" lon="-3.639517">
        <ele>2548.0</ele>
        <time>2018-07-22T14:30:49Z</time>
      </trkpt>
      <trkpt lat="41.127783" lon="-3.639433">
        <ele>2549.0</ele>
        <time>2018-07-22T14:30:50Z</time>
      </trkpt>
      <trkpt lat="41.127900" lon="-3.639333">
        <ele>2550.0</ele>
        <time>2018-07-22T14:30:51Z</time>
      </trkpt>
      <trkpt lat="41.128000" lon="-3.639233">
        <ele>2551.0</ele>
        <time>2018-07-22T14:30:52Z</time>
      </trkpt>
      <trkpt lat="41.128100" lon="-3.639150">
        <ele>2553.0</ele>
        <time>2018-07-22T14:30:53Z</time>
      </trkpt>
      <trkpt lat="41.128200" lon="-3.639083">
        <ele>2553.0</ele>
        <time>2018-07-22T14:30:54Z</time>
      </trkpt>
      <trkpt lat="41.128300" lon="-3.639017">
        <ele>2553.0</ele>
        <time>2018-07-22T14:30:55Z</time>
      </trkpt>
      <trkpt lat="41.128417" lon="-3.638950">
        <ele>2552.0</ele>
        <time>2018-07-22T14:30:56Z</time>
      </trkpt>
      <trkpt lat="41.128517" lon="-3.638867">
        <ele>2551.0</ele>
        <time>2018-07-22T14:30:57Z</time>
      </trkpt>
      <trkpt lat="41.128633" lon="-3.638783">
        <ele>2549.0</ele>
        <time>2018-07-22T14:30:58Z</time>
      </trkpt>
      <trkpt lat="41.128750" lon="-3.638717">
        <ele>2549.0</ele>
        <time>2018-07-22T14:30:59Z</time>
      </trkpt>
      <trkpt lat="41.128883" lon="-3.638633">
        <ele>2549.0</ele>
        <time>2018-07-22T14:31:00Z</time>
      </trkpt>
      <trkpt lat="41.128983" lon="-3.638583">
        <ele>2550.0</ele>
        <time>2018-07-22T14:31:01Z</time>
      </trkpt>
      <trkpt lat="41.129100" lon="-3.638517">
        <ele>2551.0</ele>
        <time>2018-07-22T14:31:02Z</time>
      </trkpt>
      <trkpt lat="41.129200" lon="-3.638450">
        <ele>2551.0</ele>
        <time>2018-07-22T14:31:03Z</time>
      </trkpt>
      <trkpt lat="41.129317" lon="-3.638367">
        <ele>2551.0</ele>
        <time>2018-07-22T14:31:04Z</time>
      </trkpt>
      <trkpt lat="41.129400" lon="-3.638317">
        <ele>2552.0</ele>
        <time>2018-07-22T14:31:05Z</time>
      </trkpt>
      <trkpt lat="41.129500" lon="-3.638267">
        <ele>2551.0</ele>
        <time>2018-07-22T14:31:06Z</time>
      </trkpt>
      <trkpt lat="41.129583" lon="-3.638217">
        <ele>2550.0</ele>
        <time>2018-07-22T14:31:07Z</time>
      </trkpt>
      <trkpt lat="41.129683" lon="-3.638167">
        <ele>2548.0</ele>
        <time>2018-07-22T14:31:08Z</time>
      </trkpt>
      <trkpt lat="41.129767" lon="-3.638100">
        <ele>2546.0</ele>
        <time>2018-07-22T14:31:09Z</time>
      </trkpt>
      <trkpt lat="41.129850" lon="-3.638050">
        <ele>2546.0</ele>
        <time>2018-07-22T14:31:10Z</time>
      </trkpt>
      <trkpt lat="41.129933" lon="-3.637983">
        <ele>2544.0</ele>
        <time>2018-07-22T14:31:11Z</time>
      </trkpt>
      <trkpt lat="41.130017" lon="-3.637933">
        <ele>2543.0</ele>
        <time>2018-07-22T14:31:12Z</time>
      </trkpt>
      <trkpt lat="41.130117" lon="-3.637867">
        <ele>2541.0</ele>
        <time>2018-07-22T14:31:13Z</time>
      </trkpt>
      <trkpt lat="41.130200" lon="-3.637800">
        <ele>2538.0</ele>
        <time>2018-07-22T14:31:14Z</time>
      </trkpt>
      <trkpt lat="41.130300" lon="-3.637733">
        <ele>2536.0</ele>
        <time>2018-07-22T14:31:15Z</time>
      </trkpt>
      <trkpt lat="41.130383" lon="-3.637667">
        <ele>2534.0</ele>
        <time>2018-07-22T14:31:16Z</time>
      </trkpt>
      <trkpt lat="41.130483" lon="-3.637583">
        <ele>2532.0</ele>
        <time>2018-07-22T14:31:17Z</time>
      </trkpt>
      <trkpt lat="41.130567" lon="-3.637500">
        <ele>2531.0</ele>
        <time>2018-07-22T14:31:18Z</time>
      </trkpt>
      <trkpt lat="41.130667" lon="-3.637417">
        <ele>2529.0</ele>
        <time>2018-07-22T14:31:19Z</time>
      </trkpt>
      <trkpt lat="41.130750" lon="-3.637333">
        <ele>2528.0</ele>
        <time>2018-07-22T14:31:20Z</time>
      </trkpt>
      <trkpt lat="41.130850" lon="-3.637233">
        <ele>2527.0</ele>
        <time>2018-07-22T14:31:21Z</time>
      </trkpt>
      <trkpt lat="41.130933" lon="-3.637117">
        <ele>2526.0</ele>
        <time>2018-07-22T14:31:22Z</time>
      </trkpt>
      <trkpt lat="41.131000" lon="-3.637000">
        <ele>2525.0</ele>
        <time>2018-07-22T14:31:23Z</time>
      </trkpt>
      <trkpt lat="41.131083" lon="-3.636883">
        <ele>2524.0</ele>
        <time>2018-07-22T14:31:24Z</time>
      </trkpt>
      <trkpt lat="41.131150" lon="-3.636750">
        <ele>2524.0</ele>
        <time>2018-07-22T14:31:25Z</time>
      </trkpt>
      <trkpt lat="41.131233" lon="-3.636633">
        <ele>2525.0</ele>
        <time>2018-07-22T14:31:26Z</time>
      </trkpt>
      <trkpt lat="41.131300" lon="-3.636517">
        <ele>2525.0</ele>
        <time>2018-07-22T14:31:27Z</time>
      </trkpt>
      <trkpt lat="41.131383" lon="-3.636417">
        <ele>2525.0</ele>
        <time>2018-07-22T14:31:28Z</time>
      </trkpt>
      <trkpt lat="41.131467" lon="-3.636350">
        <ele>2526.0</ele>
        <time>2018-07-22T14:31:29Z</time>
      </trkpt>
      <trkpt lat="41.131550" lon="-3.636283">
        <ele>2529.0</ele>
        <time>2018-07-22T14:31:30Z</time>
      </trkpt>
      <trkpt lat="41.131617" lon="-3.636217">
        <ele>2531.0</ele>
        <time>2018-07-22T14:31:31Z</time>
      </trkpt>
      <trkpt lat="41.131683" lon="-3.636133">
        <ele>2533.0</ele>
        <time>2018-07-22T14:31:32Z</time>
      </trkpt>
      <trkpt lat="41.131750" lon="-3.636050">
        <ele>2533.0</ele>
        <time>2018-07-22T14:31:33Z</time>
      </trkpt>
      <trkpt lat="41.131833" lon="-3.635967">
        <ele>2532.0</ele>
        <time>2018-07-22T14:31:34Z</time>
      </trkpt>
      <trkpt lat="41.131917" lon="-3.635883">
        <ele>2531.0</ele>
        <time>2018-07-22T14:31:35Z</time>
      </trkpt>
      <trkpt lat="41.132017" lon="-3.635800">
        <ele>2531.0</ele>
        <time>2018-07-22T14:31:36Z</time>
      </trkpt>
      <trkpt lat="41.132100" lon="-3.635700">
        <ele>2531.0</ele>
        <time>2018-07-22T14:31:37Z</time>
      </trkpt>
      <trkpt lat="41.132183" lon="-3.635600">
        <ele>2530.0</ele>
        <time>2018-07-22T14:31:38Z</time>
      </trkpt>
      <trkpt lat="41.132250" lon="-3.635500">
        <ele>2529.0</ele>
        <time>2018-07-22T14:31:39Z</time>
      </trkpt>
      <trkpt lat="41.132350" lon="-3.635400">
        <ele>2526.0</ele>
        <time>2018-07-22T14:31:40Z</time>
      </trkpt>
      <trkpt lat="41.132433" lon="-3.635283">
        <ele>2524.0</ele>
        <time>2018-07-22T14:31:41Z</time>
      </trkpt>
      <trkpt lat="41.132533" lon="-3.635183">
        <ele>2521.0</ele>
        <time>2018-07-22T14:31:42Z</time>
      </trkpt>
      <trkpt lat="41.132650" lon="-3.635083">
        <ele>2520.0</ele>
        <time>2018-07-22T14:31:43Z</time>
      </trkpt>
      <trkpt lat="41.132750" lon="-3.634967">
        <ele>2520.0</ele>
        <time>2018-07-22T14:31:44Z</time>
      </trkpt>
      <trkpt lat="41.132850" lon="-3.634850">
        <ele>2520.0</ele>
        <time>2018-07-22T14:31:45Z</time>
      </trkpt>
      <trkpt lat="41.132933" lon="-3.634733">
        <ele>2521.0</ele>
        <time>2018-07-22T14:31:46Z</time>
      </trkpt>
      <trkpt lat="41.133017" lon="-3.634633">
        <ele>2522.0</ele>
        <time>2018-07-22T14:31:47Z</time>
      </trkpt>
      <trkpt lat="41.133100" lon="-3.634533">
        <ele>2522.0</ele>
        <time>2018-07-22T14:31:48Z</time>
      </trkpt>
      <trkpt lat="41.133200" lon="-3.634433">
        <ele>2521.0</ele>
        <time>2018-07-22T14:31:49Z</time>
      </trkpt>
      <trkpt lat="41.133300" lon="-3.634333">
        <ele>2520.0</ele>
        <time>2018-07-22T14:31:50Z</time>
      </trkpt>
      <trkpt lat="41.133383" lon="-3.634233">
        <ele>2520.0</ele>
        <time>2018-07-22T14:31:51Z</time>
      </trkpt>
      <trkpt lat="41.133483" lon="-3.634133">
        <ele>2521.0</ele>
        <time>2018-07-22T14:31:52Z</time>
      </trkpt>
      <trkpt lat="41.133583" lon="-3.634067">
        <ele>2524.0</ele>
        <time>2018-07-22T14:31:53Z</time>
      </trkpt>
      <trkpt lat="41.133667" lon="-3.634000">
        <ele>2527.0</ele>
        <time>2018-07-22T14:31:54Z</time>
      </trkpt>
      <trkpt lat="41.133733" lon="-3.633917">
        <ele>2531.0</ele>
        <time>2018-07-22T14:31:55Z</time>
      </trkpt>
      <trkpt lat="41.133817" lon="-3.633817">
        <ele>2533.0</ele>
        <time>2018-07-22T14:31:56Z</time>
      </trkpt>
      <trkpt lat="41.133900" lon="-3.633717">
        <ele>2534.0</ele>
        <time>2018-07-22T14:31:57Z</time>
      </trkpt>
      <trkpt lat="41.134000" lon="-3.633600">
        <ele>2536.0</ele>
        <time>2018-07-22T14:31:58Z</time>
      </trkpt>
      <trkpt lat="41.134100" lon="-3.633500">
        <ele>2540.0</ele>
        <time>2018-07-22T14:31:59Z</time>
      </trkpt>
      <trkpt lat="41.134200" lon="-3.633417">
        <ele>2543.0</ele>
        <time>2018-07-22T14:32:00Z</time>
      </trkpt>
      <trkpt lat="41.134283" lon="-3.633317">
        <ele>2545.0</ele>
        <time>2018-07-22T14:32:01Z</time>
      </trkpt>
      <trkpt lat="41.134367" lon="-3.633217">
        <ele>2546.0</ele>
        <time>2018-07-22T14:32:02Z</time>
      </trkpt>
      <trkpt lat="41.134467" lon="-3.633083">
        <ele>2546.0</ele>
        <time>2018-07-22T14:32:03Z</time>
      </trkpt>
      <trkpt lat="41.134567" lon="-3.632967">
        <ele>2546.0</ele>
        <time>2018-07-22T14:32:04Z</time>
      </trkpt>
      <trkpt lat="41.134667" lon="-3.632850">
        <ele>2546.0</ele>
        <time>2018-07-22T14:32:05Z</time>
      </trkpt>
      <trkpt lat="41.134767" lon="-3.632767">
        <ele>2547.0</ele>
        <time>2018-07-22T14:32:06Z</time>
      </trkpt>
      <trkpt lat="41.134867" lon="-3.632667">
        <ele>2547.0</ele>
        <time>2018-07-22T14:32:07Z</time>
      </trkpt>
      <trkpt lat="41.134967" lon="-3.632567">
        <ele>2546.0</ele>
        <time>2018-07-22T14:32:08Z</time>
      </trkpt>
      <trkpt lat="41.135067" lon="-3.632450">
        <ele>2546.0</ele>
        <time>2018-07-22T14:32:09Z</time>
      </trkpt>
      <trkpt lat="41.135150" lon="-3.632317">
        <ele>2545.0</ele>
        <time>2018-07-22T14:32:10Z</time>
      </trkpt>
      <trkpt lat="41.135250" lon="-3.632200">
        <ele>2546.0</ele>
        <time>2018-07-22T14:32:11Z</time>
      </trkpt>
      <trkpt lat="41.135333" lon="-3.632117">
        <ele>2546.0</ele>
        <time>2018-07-22T14:32:12Z</time>
      </trkpt>
      <trkpt lat="41.135433" lon="-3.632033">
        <ele>2546.0</ele>
        <time>2018-07-22T14:32:13Z</time>
      </trkpt>
      <trkpt lat="41.135533" lon="-3.631967">
        <ele>2545.0</ele>
        <time>2018-07-22T14:32:14Z</time>
      </trkpt>
      <trkpt lat="41.135617" lon="-3.631900">
        <ele>2544.0</ele>
        <time>2018-07-22T14:32:15Z</time>
      </trkpt>
      <trkpt lat="41.135717" lon="-3.631817">
        <ele>2543.0</ele>
        <time>2018-07-22T14:32:16Z</time>
      </trkpt>
      <trkpt lat="41.135817" lon="-3.631750">
        <ele>2542.0</ele>
        <time>2018-07-22T14:32:17Z</time>
      </trkpt>
      <trkpt lat="41.135917" lon="-3.631717">
        <ele>2541.0</ele>
        <time>2018-07-22T14:32:18Z</time>
      </trkpt>
      <trkpt lat="41.136033" lon="-3.631683">
        <ele>2540.0</ele>
        <time>2018-07-22T14:32:19Z</time>
      </trkpt>
      <trkpt lat="41.136133" lon="-3.631633">
        <ele>2540.0</ele>
        <time>2018-07-22T14:32:20Z</time>
      </trkpt>
      <trkpt lat="41.136233" lon="-3.631600">
        <ele>2540.0</ele>
        <time>2018-07-22T14:32:21Z</time>
      </trkpt>
      <trkpt lat="41.136333" lon="-3.631550">
        <ele>2541.0</ele>
        <time>2018-07-22T14:32:22Z</time>
      </trkpt>
      <trkpt lat="41.136417" lon="-3.631500">
        <ele>2540.0</ele>
        <time>2018-07-22T14:32:23Z</time>
      </trkpt>
      <trkpt lat="41.136500" lon="-3.631450">
        <ele>2540.0</ele>
        <time>2018-07-22T14:32:24Z</time>
      </trkpt>
      <trkpt lat="41.136600" lon="-3.631400">
        <ele>2538.0</ele>
        <time>2018-07-22T14:32:25Z</time>
      </trkpt>
      <trkpt lat="41.136700" lon="-3.631333">
        <ele>2535.0</ele>
        <time>2018-07-22T14:32:26Z</time>
      </trkpt>
      <trkpt lat="41.136800" lon="-3.631267">
        <ele>2533.0</ele>
        <time>2018-07-22T14:32:27Z</time>
      </trkpt>
      <trkpt lat="41.136900" lon="-3.631200">
        <ele>2531.0</ele>
        <time>2018-07-22T14:32:28Z</time>
      </trkpt>
      <trkpt lat="41.137000" lon="-3.631117">
        <ele>2529.0</ele>
        <time>2018-07-22T14:32:29Z</time>
      </trkpt>
      <trkpt lat="41.137100" lon="-3.631050">
        <ele>2527.0</ele>
        <time>2018-07-22T14:32:30Z</time>
      </trkpt>
      <trkpt lat="41.137183" lon="-3.630967">
        <ele>2525.0</ele>
        <time>2018-07-22T14:32:31Z</time>
      </trkpt>
      <trkpt lat="41.137283" lon="-3.630883">
        <ele>2522.0</ele>
        <time>2018-07-22T14:32:32Z</time>
      </trkpt>
      <trkpt lat="41.137383" lon="-3.630817">
        <ele>2519.0</ele>
        <time>2018-07-22T14:32:33Z</time>
      </trkpt>
      <trkpt lat="41.137483" lon="-3.630750">
        <ele>2515.0</ele>
        <time>2018-07-22T14:32:34Z</time>
      </trkpt>
      <trkpt lat="41.137583" lon="-3.630700">
        <ele>2512.0</ele>
        <time>2018-07-22T14:32:35Z</time>
      </trkpt>
      <trkpt lat="41.137683" lon="-3.630650">
        <ele>2507.0</ele>
        <time>2018-07-22T14:32:36Z</time>
      </trkpt>
      <trkpt lat="41.137800" lon="-3.630583">
        <ele>2502.0</ele>
        <time>2018-07-22T14:32:37Z</time>
      </trkpt>
      <trkpt lat="41.137900" lon="-3.630533">
        <ele>2497.0</ele>
        <time>2018-07-22T14:32:38Z</time>
      </trkpt>
      <trkpt lat="41.138017" lon="-3.630483">
        <ele>2492.0</ele>
        <time>2018-07-22T14:32:39Z</time>
      </trkpt>
      <trkpt lat="41.138117" lon="-3.630433">
        <ele>2488.0</ele>
        <time>2018-07-22T14:32:40Z</time>
      </trkpt>
      <trkpt lat="41.138217" lon="-3.630383">
        <ele>2483.0</ele>
        <time>2018-07-22T14:32:41Z</time>
      </trkpt>
      <trkpt lat="41.138317" lon="-3.630367">
        <ele>2478.0</ele>
        <time>2018-07-22T14:32:42Z</time>
      </trkpt>
      <trkpt lat="41.138417" lon="-3.630350">
        <ele>2473.0</ele>
        <time>2018-07-22T14:32:43Z</time>
      </trkpt>
      <trkpt lat="41.138533" lon="-3.630350">
        <ele>2467.0</ele>
        <time>2018-07-22T14:32:44Z</time>
      </trkpt>
      <trkpt lat="41.138650" lon="-3.630350">
        <ele>2462.0</ele>
        <time>2018-07-22T14:32:45Z</time>
      </trkpt>
      <trkpt lat="41.138767" lon="-3.630367">
        <ele>2457.0</ele>
        <time>2018-07-22T14:32:46Z</time>
      </trkpt>
      <trkpt lat="41.138867" lon="-3.630350">
        <ele>2453.0</ele>
        <time>2018-07-22T14:32:47Z</time>
      </trkpt>
      <trkpt lat="41.138967" lon="-3.630333">
        <ele>2449.0</ele>
        <time>2018-07-22T14:32:48Z</time>
      </trkpt>
      <trkpt lat="41.139067" lon="-3.630317">
        <ele>2444.0</ele>
        <time>2018-07-22T14:32:49Z</time>
      </trkpt>
      <trkpt lat="41.139167" lon="-3.630300">
        <ele>2439.0</ele>
        <time>2018-07-22T14:32:50Z</time>
      </trkpt>
      <trkpt lat="41.139267" lon="-3.630300">
        <ele>2434.0</ele>
        <time>2018-07-22T14:32:51Z</time>
      </trkpt>
      <trkpt lat="41.139367" lon="-3.630283">
        <ele>2428.0</ele>
        <time>2018-07-22T14:32:52Z</time>
      </trkpt>
      <trkpt lat="41.139483" lon="-3.630283">
        <ele>2423.0</ele>
        <time>2018-07-22T14:32:53Z</time>
      </trkpt>
      <trkpt lat="41.139583" lon="-3.630267">
        <ele>2418.0</ele>
        <time>2018-07-22T14:32:54Z</time>
      </trkpt>
      <trkpt lat="41.139683" lon="-3.630267">
        <ele>2413.0</ele>
        <time>2018-07-22T14:32:55Z</time>
      </trkpt>
      <trkpt lat="41.139783" lon="-3.630250">
        <ele>2408.0</ele>
        <time>2018-07-22T14:32:56Z</time>
      </trkpt>
      <trkpt lat="41.139883" lon="-3.630233">
        <ele>2403.0</ele>
        <time>2018-07-22T14:32:57Z</time>
      </trkpt>
      <trkpt lat="41.139983" lon="-3.630217">
        <ele>2399.0</ele>
        <time>2018-07-22T14:32:58Z</time>
      </trkpt>
      <trkpt lat="41.140083" lon="-3.630200">
        <ele>2396.0</ele>
        <time>2018-07-22T14:32:59Z</time>
      </trkpt>
      <trkpt lat="41.140183" lon="-3.630167">
        <ele>2393.0</ele>
        <time>2018-07-22T14:33:00Z</time>
      </trkpt>
      <trkpt lat="41.140283" lon="-3.630133">
        <ele>2390.0</ele>
        <time>2018-07-22T14:33:01Z</time>
      </trkpt>
      <trkpt lat="41.140383" lon="-3.630100">
        <ele>2387.0</ele>
        <time>2018-07-22T14:33:02Z</time>
      </trkpt>
      <trkpt lat="41.140483" lon="-3.630083">
        <ele>2383.0</ele>
        <time>2018-07-22T14:33:03Z</time>
      </trkpt>
      <trkpt lat="41.140583" lon="-3.630067">
        <ele>2379.0</ele>
        <time>2018-07-22T14:33:04Z</time>
      </trkpt>
      <trkpt lat="41.140700" lon="-3.630033">
        <ele>2375.0</ele>
        <time>2018-07-22T14:33:05Z</time>
      </trkpt>
      <trkpt lat="41.140800" lon="-3.629983">
        <ele>2372.0</ele>
        <time>2018-07-22T14:33:06Z</time>
      </trkpt>
      <trkpt lat="41.140900" lon="-3.629950">
        <ele>2371.0</ele>
        <time>2018-07-22T14:33:07Z</time>
      </trkpt>
      <trkpt lat="41.140983" lon="-3.629917">
        <ele>2370.0</ele>
        <time>2018-07-22T14:33:08Z</time>
      </trkpt>
      <trkpt lat="41.141050" lon="-3.629900">
        <ele>2368.0</ele>
        <time>2018-07-22T14:33:09Z</time>
      </trkpt>
      <trkpt lat="41.141133" lon="-3.629883">
        <ele>2365.0</ele>
        <time>2018-07-22T14:33:10Z</time>
      </trkpt>
      <trkpt lat="41.141217" lon="-3.629883">
        <ele>2362.0</ele>
        <time>2018-07-22T14:33:11Z</time>
      </trkpt>
      <trkpt lat="41.141300" lon="-3.629850">
        <ele>2358.0</ele>
        <time>2018-07-22T14:33:12Z</time>
      </trkpt>
      <trkpt lat="41.141383" lon="-3.629817">
        <ele>2355.0</ele>
        <time>2018-07-22T14:33:13Z</time>
      </trkpt>
      <trkpt lat="41.141467" lon="-3.629767">
        <ele>2352.0</ele>
        <time>2018-07-22T14:33:14Z</time>
      </trkpt>
      <trkpt lat="41.141567" lon="-3.629717">
        <ele>2348.0</ele>
        <time>2018-07-22T14:33:15Z</time>
      </trkpt>
      <trkpt lat="41.141650" lon="-3.629667">
        <ele>2345.0</ele>
        <time>2018-07-22T14:33:16Z</time>
      </trkpt>
      <trkpt lat="41.141733" lon="-3.629600">
        <ele>2342.0</ele>
        <time>2018-07-22T14:33:17Z</time>
      </trkpt>
      <trkpt lat="41.141817" lon="-3.629550">
        <ele>2339.0</ele>
        <time>2018-07-22T14:33:18Z</time>
      </trkpt>
      <trkpt lat="41.141900" lon="-3.629500">
        <ele>2336.0</ele>
        <time>2018-07-22T14:33:19Z</time>
      </trkpt>
      <trkpt lat="41.141967" lon="-3.629433">
        <ele>2331.0</ele>
        <time>2018-07-22T14:33:20Z</time>
      </trkpt>
      <trkpt lat="41.142050" lon="-3.629350">
        <ele>2327.0</ele>
        <time>2018-07-22T14:33:21Z</time>
      </trkpt>
      <trkpt lat="41.142133" lon="-3.629267">
        <ele>2323.0</ele>
        <time>2018-07-22T14:33:22Z</time>
      </trkpt>
      <trkpt lat="41.142217" lon="-3.629183">
        <ele>2320.0</ele>
        <time>2018-07-22T14:33:23Z</time>
      </trkpt>
      <trkpt lat="41.142283" lon="-3.629100">
        <ele>2317.0</ele>
        <time>2018-07-22T14:33:24Z</time>
      </trkpt>
      <trkpt lat="41.142367" lon="-3.629033">
        <ele>2314.0</ele>
        <time>2018-07-22T14:33:25Z</time>
      </trkpt>
      <trkpt lat="41.142433" lon="-3.628967">
        <ele>2311.0</ele>
        <time>2018-07-22T14:33:26Z</time>
      </trkpt>
      <trkpt lat="41.142517" lon="-3.628900">
        <ele>2307.0</ele>
        <time>2018-07-22T14:33:27Z</time>
      </trkpt>
      <trkpt lat="41.142600" lon="-3.628833">
        <ele>2303.0</ele>
        <time>2018-07-22T14:33:28Z</time>
      </trkpt>
      <trkpt lat="41.142683" lon="-3.628750">
        <ele>2300.0</ele>
        <time>2018-07-22T14:33:29Z</time>
      </trkpt>
      <trkpt lat="41.142783" lon="-3.628683">
        <ele>2298.0</ele>
        <time>2018-07-22T14:33:30Z</time>
      </trkpt>
      <trkpt lat="41.142867" lon="-3.628600">
        <ele>2296.0</ele>
        <time>2018-07-22T14:33:31Z</time>
      </trkpt>
      <trkpt lat="41.142950" lon="-3.628533">
        <ele>2294.0</ele>
        <time>2018-07-22T14:33:32Z</time>
      </trkpt>
      <trkpt lat="41.143017" lon="-3.628467">
        <ele>2292.0</ele>
        <time>2018-07-22T14:33:33Z</time>
      </trkpt>
      <trkpt lat="41.143100" lon="-3.628383">
        <ele>2291.0</ele>
        <time>2018-07-22T14:33:34Z</time>
      </trkpt>
      <trkpt lat="41.143183" lon="-3.628283">
        <ele>2290.0</ele>
        <time>2018-07-22T14:33:35Z</time>
      </trkpt>
      <trkpt lat="41.143250" lon="-3.628200">
        <ele>2289.0</ele>
        <time>2018-07-22T14:33:36Z</time>
      </trkpt>
      <trkpt lat="41.143317" lon="-3.628100">
        <ele>2289.0</ele>
        <time>2018-07-22T14:33:37Z</time>
      </trkpt>
      <trkpt lat="41.143383" lon="-3.628050">
        <ele>2289.0</ele>
        <time>2018-07-22T14:33:38Z</time>
      </trkpt>
      <trkpt lat="41.143450" lon="-3.628017">
        <ele>2289.0</ele>
        <time>2018-07-22T14:33:39Z</time>
      </trkpt>
      <trkpt lat="41.143500" lon="-3.627983">
        <ele>2289.0</ele>
        <time>2018-07-22T14:33:40Z</time>
      </trkpt>
      <trkpt lat="41.143583" lon="-3.627950">
        <ele>2288.0</ele>
        <time>2018-07-22T14:33:41Z</time>
      </trkpt>
      <trkpt lat="41.143650" lon="-3.627900">
        <ele>2287.0</ele>
        <time>2018-07-22T14:33:42Z</time>
      </trkpt>
      <trkpt lat="41.143717" lon="-3.627867">
        <ele>2286.0</ele>
        <time>2018-07-22T14:33:43Z</time>
      </trkpt>
      <trkpt lat="41.143783" lon="-3.627833">
        <ele>2286.0</ele>
        <time>2018-07-22T14:33:44Z</time>
      </trkpt>
      <trkpt lat="41.143850" lon="-3.627800">
        <ele>2287.0</ele>
        <time>2018-07-22T14:33:45Z</time>
      </trkpt>
      <trkpt lat="41.143933" lon="-3.627767">
        <ele>2288.0</ele>
        <time>2018-07-22T14:33:46Z</time>
      </trkpt>
      <trkpt lat="41.144000" lon="-3.627717">
        <ele>2290.0</ele>
        <time>2018-07-22T14:33:47Z</time>
      </trkpt>
      <trkpt lat="41.144083" lon="-3.627667">
        <ele>2292.0</ele>
        <time>2018-07-22T14:33:48Z</time>
      </trkpt>
      <trkpt lat="41.144167" lon="-3.627633">
        <ele>2295.0</ele>
        <time>2018-07-22T14:33:49Z</time>
      </trkpt>
      <trkpt lat="41.144283" lon="-3.627617">
        <ele>2298.0</ele>
        <time>2018-07-22T14:33:50Z</time>
      </trkpt>
      <trkpt lat="41.144383" lon="-3.627617">
        <ele>2302.0</ele>
        <time>2018-07-22T14:33:51Z</time>
      </trkpt>
      <trkpt lat="41.144483" lon="-3.627583">
        <ele>2307.0</ele>
        <time>2018-07-22T14:33:52Z</time>
      </trkpt>
      <trkpt lat="41.144567" lon="-3.627533">
        <ele>2310.0</ele>
        <time>2018-07-22T14:33:53Z</time>
      </trkpt>
      <trkpt lat="41.144633" lon="-3.627467">
        <ele>2313.0</ele>
        <time>2018-07-22T14:33:54Z</time>
      </trkpt>
      <trkpt lat="41.144717" lon="-3.627433">
        <ele>2316.0</ele>
        <time>2018-07-22T14:33:55Z</time>
      </trkpt>
      <trkpt lat="41.144817" lon="-3.627433">
        <ele>2317.0</ele>
        <time>2018-07-22T14:33:56Z</time>
      </trkpt>
      <trkpt lat="41.144933" lon="-3.627467">
        <ele>2318.0</ele>
        <time>2018-07-22T14:33:57Z</time>
      </trkpt>
      <trkpt lat="41.145033" lon="-3.627567">
        <ele>2319.0</ele>
        <time>2018-07-22T14:33:58Z</time>
      </trkpt>
      <trkpt lat="41.145100" lon="-3.627683">
        <ele>2322.0</ele>
        <time>2018-07-22T14:33:59Z</time>
      </trkpt>
      <trkpt lat="41.145133" lon="-3.627833">
        <ele>2325.0</ele>
        <time>2018-07-22T14:34:00Z</time>
      </trkpt>
      <trkpt lat="41.145117" lon="-3.627983">
        <ele>2329.0</ele>
        <time>2018-07-22T14:34:01Z</time>
      </trkpt>
      <trkpt lat="41.145067" lon="-3.628100">
        <ele>2332.0</ele>
        <time>2018-07-22T14:34:02Z</time>
      </trkpt>
      <trkpt lat="41.145000" lon="-3.628167">
        <ele>2334.0</ele>
        <time>2018-07-22T14:34:03Z</time>
      </trkpt>
      <trkpt lat="41.144900" lon="-3.628167">
        <ele>2334.0</ele>
        <time>2018-07-22T14:34:04Z</time>
      </trkpt>
      <trkpt lat="41.144817" lon="-3.628117">
        <ele>2334.0</ele>
        <time>2018-07-22T14:34:05Z</time>
      </trkpt>
      <trkpt lat="41.144767" lon="-3.628017">
        <ele>2335.0</ele>
        <time>2018-07-22T14:34:06Z</time>
      </trkpt>
      <trkpt lat="41.144733" lon="-3.627900">
        <ele>2338.0</ele>
        <time>2018-07-22T14:34:07Z</time>
      </trkpt>
      <trkpt lat="41.144733" lon="-3.627767">
        <ele>2341.0</ele>
        <time>2018-07-22T14:34:08Z</time>
      </trkpt>
      <trkpt lat="41.144733" lon="-3.627650">
        <ele>2345.0</ele>
        <time>2018-07-22T14:34:09Z</time>
      </trkpt>
      <trkpt lat="41.144750" lon="-3.627550">
        <ele>2348.0</ele>
        <time>2018-07-22T14:34:10Z</time>
      </trkpt>
      <trkpt lat="41.144783" lon="-3.627433">
        <ele>2350.0</ele>
        <time>2018-07-22T14:34:11Z</time>
      </trkpt>
      <trkpt lat="41.144800" lon="-3.627333">
        <ele>2352.0</ele>
        <time>2018-07-22T14:34:12Z</time>
      </trkpt>
      <trkpt lat="41.144833" lon="-3.627217">
        <ele>2353.0</ele>
        <time>2018-07-22T14:34:13Z</time>
      </trkpt>
      <trkpt lat="41.144867" lon="-3.627117">
        <ele>2353.0</ele>
        <time>2018-07-22T14:34:14Z</time>
      </trkpt>
      <trkpt lat="41.144933" lon="-3.627033">
        <ele>2351.0</ele>
        <time>2018-07-22T14:34:15Z</time>
      </trkpt>
      <trkpt lat="41.145017" lon="-3.627000">
        <ele>2349.0</ele>
        <time>2018-07-22T14:34:16Z</time>
      </trkpt>
      <trkpt lat="41.145117" lon="-3.627000">
        <ele>2346.0</ele>
        <time>2018-07-22T14:34:17Z</time>
      </trkpt>
      <trkpt lat="41.145217" lon="-3.627017">
        <ele>2346.0</ele>
        <time>2018-07-22T14:34:18Z</time>
      </trkpt>
      <trkpt lat="41.145300" lon="-3.627067">
        <ele>2346.0</ele>
        <time>2018-07-22T14:34:19Z</time>
      </trkpt>
      <trkpt lat="41.145383" lon="-3.627117">
        <ele>2347.0</ele>
        <time>2018-07-22T14:34:20Z</time>
      </trkpt>
      <trkpt lat="41.145483" lon="-3.627150">
        <ele>2348.0</ele>
        <time>2018-07-22T14:34:21Z</time>
      </trkpt>
      <trkpt lat="41.145583" lon="-3.627150">
        <ele>2350.0</ele>
        <time>2018-07-22T14:34:22Z</time>
      </trkpt>
      <trkpt lat="41.145683" lon="-3.627167">
        <ele>2353.0</ele>
        <time>2018-07-22T14:34:23Z</time>
      </trkpt>
      <trkpt lat="41.145783" lon="-3.627167">
        <ele>2356.0</ele>
        <time>2018-07-22T14:34:24Z</time>
      </trkpt>
      <trkpt lat="41.145883" lon="-3.627150">
        <ele>2360.0</ele>
        <time>2018-07-22T14:34:25Z</time>
      </trkpt>
      <trkpt lat="41.145967" lon="-3.627117">
        <ele>2363.0</ele>
        <time>2018-07-22T14:34:26Z</time>
      </trkpt>
      <trkpt lat="41.146050" lon="-3.627067">
        <ele>2364.0</ele>
        <time>2018-07-22T14:34:27Z</time>
      </trkpt>
      <trkpt lat="41.146150" lon="-3.627000">
        <ele>2365.0</ele>
        <time>2018-07-22T14:34:28Z</time>
      </trkpt>
      <trkpt lat="41.146233" lon="-3.626917">
        <ele>2365.0</ele>
        <time>2018-07-22T14:34:29Z</time>
      </trkpt>
      <trkpt lat="41.146333" lon="-3.626833">
        <ele>2365.0</ele>
        <time>2018-07-22T14:34:30Z</time>
      </trkpt>
      <trkpt lat="41.146417" lon="-3.626733">
        <ele>2365.0</ele>
        <time>2018-07-22T14:34:31Z</time>
      </trkpt>
      <trkpt lat="41.146517" lon="-3.626600">
        <ele>2365.0</ele>
        <time>2018-07-22T14:34:32Z</time>
      </trkpt>
      <trkpt lat="41.146600" lon="-3.626467">
        <ele>2366.0</ele>
        <time>2018-07-22T14:34:33Z</time>
      </trkpt>
      <trkpt lat="41.146683" lon="-3.626333">
        <ele>2368.0</ele>
        <time>2018-07-22T14:34:34Z</time>
      </trkpt>
      <trkpt lat="41.146767" lon="-3.626200">
        <ele>2370.0</ele>
        <time>2018-07-22T14:34:35Z</time>
      </trkpt>
      <trkpt lat="41.146833" lon="-3.626083">
        <ele>2370.0</ele>
        <time>2018-07-22T14:34:36Z</time>
      </trkpt>
      <trkpt lat="41.146900" lon="-3.625967">
        <ele>2370.0</ele>
        <time>2018-07-22T14:34:37Z</time>
      </trkpt>
      <trkpt lat="41.146967" lon="-3.625850">
        <ele>2368.0</ele>
        <time>2018-07-22T14:34:38Z</time>
      </trkpt>
      <trkpt lat="41.147033" lon="-3.625717">
        <ele>2365.0</ele>
        <time>2018-07-22T14:34:39Z</time>
      </trkpt>
      <trkpt lat="41.147100" lon="-3.625567">
        <ele>2363.0</ele>
        <time>2018-07-22T14:34:40Z</time>
      </trkpt>
      <trkpt lat="41.147183" lon="-3.625433">
        <ele>2361.0</ele>
        <time>2018-07-22T14:34:41Z</time>
      </trkpt>
      <trkpt lat="41.147283" lon="-3.625283">
        <ele>2359.0</ele>
        <time>2018-07-22T14:34:42Z</time>
      </trkpt>
      <trkpt lat="41.147367" lon="-3.625167">
        <ele>2357.0</ele>
        <time>2018-07-22T14:34:43Z</time>
      </trkpt>
      <trkpt lat="41.147483" lon="-3.625050">
        <ele>2356.0</ele>
        <time>2018-07-22T14:34:44Z</time>
      </trkpt>
      <trkpt lat="41.147583" lon="-3.624950">
        <ele>2355.0</ele>
        <time>2018-07-22T14:34:45Z</time>
      </trkpt>
      <trkpt lat="41.147683" lon="-3.624850">
        <ele>2356.0</ele>
        <time>2018-07-22T14:34:46Z</time>
      </trkpt>
      <trkpt lat="41.147783" lon="-3.624733">
        <ele>2357.0</ele>
        <time>2018-07-22T14:34:47Z</time>
      </trkpt>
      <trkpt lat="41.147883" lon="-3.624633">
        <ele>2361.0</ele>
        <time>2018-07-22T14:34:48Z</time>
      </trkpt>
      <trkpt lat="41.147983" lon="-3.624533">
        <ele>2365.0</ele>
        <time>2018-07-22T14:34:49Z</time>
      </trkpt>
      <trkpt lat="41.148050" lon="-3.624450">
        <ele>2370.0</ele>
        <time>2018-07-22T14:34:50Z</time>
      </trkpt>
      <trkpt lat="41.148117" lon="-3.624367">
        <ele>2374.0</ele>
        <time>2018-07-22T14:34:51Z</time>
      </trkpt>
      <trkpt lat="41.148183" lon="-3.624283">
        <ele>2377.0</ele>
        <time>2018-07-22T14:34:52Z</time>
      </trkpt>
      <trkpt lat="41.148250" lon="-3.624200">
        <ele>2379.0</ele>
        <time>2018-07-22T14:34:53Z</time>
      </trkpt>
      <trkpt lat="41.148333" lon="-3.624117">
        <ele>2380.0</ele>
        <time>2018-07-22T14:34:54Z</time>
      </trkpt>
      <trkpt lat="41.148433" lon="-3.624083">
        <ele>2381.0</ele>
        <time>2018-07-22T14:34:55Z</time>
      </trkpt>
      <trkpt lat="41.148533" lon="-3.624083">
        <ele>2383.0</ele>
        <time>2018-07-22T14:34:56Z</time>
      </trkpt>
      <trkpt lat="41.148633" lon="-3.624133">
        <ele>2384.0</ele>
        <time>2018-07-22T14:34:57Z</time>
      </trkpt>
      <trkpt lat="41.148700" lon="-3.624233">
        <ele>2385.0</ele>
        <time>2018-07-22T14:34:58Z</time>
      </trkpt>
      <trkpt lat="41.148733" lon="-3.624350">
        <ele>2386.0</ele>
        <time>2018-07-22T14:34:59Z</time>
      </trkpt>
      <trkpt lat="41.148733" lon="-3.624467">
        <ele>2388.0</ele>
        <time>2018-07-22T14:35:00Z</time>
      </trkpt>
      <trkpt lat="41.148700" lon="-3.624567">
        <ele>2390.0</ele>
        <time>2018-07-22T14:35:01Z</time>
      </trkpt>
      <trkpt lat="41.148650" lon="-3.624633">
        <ele>2392.0</ele>
        <time>2018-07-22T14:35:02Z</time>
      </trkpt>
      <trkpt lat="41.148600" lon="-3.624667">
        <ele>2393.0</ele>
        <time>2018-07-22T14:35:03Z</time>
      </trkpt>
      <trkpt lat="41.148533" lon="-3.624650">
        <ele>2394.0</ele>
        <time>2018-07-22T14:35:04Z</time>
      </trkpt>
      <trkpt lat="41.148467" lon="-3.624617">
        <ele>2395.0</ele>
        <time>2018-07-22T14:35:05Z</time>
      </trkpt>
      <trkpt lat="41.148383" lon="-3.624550">
        <ele>2395.0</ele>
        <time>2018-07-22T14:35:06Z</time>
      </trkpt>
      <trkpt lat="41.148317" lon="-3.624467">
        <ele>2395.0</ele>
        <time>2018-07-22T14:35:07Z</time>
      </trkpt>
      <trkpt lat="41.148267" lon="-3.624350">
        <ele>2395.0</ele>
        <time>2018-07-22T14:35:08Z</time>
      </trkpt>
      <trkpt lat="41.148267" lon="-3.624200">
        <ele>2396.0</ele>
        <time>2018-07-22T14:35:09Z</time>
      </trkpt>
      <trkpt lat="41.148283" lon="-3.624033">
        <ele>2397.0</ele>
        <time>2018-07-22T14:35:10Z</time>
      </trkpt>
      <trkpt lat="41.148317" lon="-3.623900">
        <ele>2399.0</ele>
        <time>2018-07-22T14:35:11Z</time>
      </trkpt>
      <trkpt lat="41.148383" lon="-3.623783">
        <ele>2402.0</ele>
        <time>2018-07-22T14:35:12Z</time>
      </trkpt>
      <trkpt lat="41.148450" lon="-3.623700">
        <ele>2405.0</ele>
        <time>2018-07-22T14:35:13Z</time>
      </trkpt>
      <trkpt lat="41.148517" lon="-3.623617">
        <ele>2407.0</ele>
        <time>2018-07-22T14:35:14Z</time>
      </trkpt>
      <trkpt lat="41.148567" lon="-3.623533">
        <ele>2408.0</ele>
        <time>2018-07-22T14:35:15Z</time>
      </trkpt>
      <trkpt lat="41.148633" lon="-3.623433">
        <ele>2409.0</ele>
        <time>2018-07-22T14:35:16Z</time>
      </trkpt>
      <trkpt lat="41.148700" lon="-3.623367">
        <ele>2409.0</ele>
        <time>2018-07-22T14:35:17Z</time>
      </trkpt>
      <trkpt lat="41.148800" lon="-3.623317">
        <ele>2409.0</ele>
        <time>2018-07-22T14:35:18Z</time>
      </trkpt>
      <trkpt lat="41.148917" lon="-3.623300">
        <ele>2409.0</ele>
        <time>2018-07-22T14:35:19Z</time>
      </trkpt>
      <trkpt lat="41.149017" lon="-3.623317">
        <ele>2410.0</ele>
        <time>2018-07-22T14:35:20Z</time>
      </trkpt>
      <trkpt lat="41.149117" lon="-3.623350">
        <ele>2414.0</ele>
        <time>2018-07-22T14:35:21Z</time>
      </trkpt>
      <trkpt lat="41.149183" lon="-3.623383">
        <ele>2418.0</ele>
        <time>2018-07-22T14:35:22Z</time>
      </trkpt>
      <trkpt lat="41.149267" lon="-3.623383">
        <ele>2421.0</ele>
        <time>2018-07-22T14:35:23Z</time>
      </trkpt>
      <trkpt lat="41.149333" lon="-3.623400">
        <ele>2422.0</ele>
        <time>2018-07-22T14:35:24Z</time>
      </trkpt>
      <trkpt lat="41.149417" lon="-3.623400">
        <ele>2423.0</ele>
        <time>2018-07-22T14:35:25Z</time>
      </trkpt>
      <trkpt lat="41.149500" lon="-3.623417">
        <ele>2424.0</ele>
        <time>2018-07-22T14:35:26Z</time>
      </trkpt>
      <trkpt lat="41.149600" lon="-3.623400">
        <ele>2424.0</ele>
        <time>2018-07-22T14:35:27Z</time>
      </trkpt>
      <trkpt lat="41.149700" lon="-3.623367">
        <ele>2425.0</ele>
        <time>2018-07-22T14:35:28Z</time>
      </trkpt>
      <trkpt lat="41.149800" lon="-3.623300">
        <ele>2426.0</ele>
        <time>2018-07-22T14:35:29Z</time>
      </trkpt>
      <trkpt lat="41.149900" lon="-3.623233">
        <ele>2428.0</ele>
        <time>2018-07-22T14:35:30Z</time>
      </trkpt>
      <trkpt lat="41.149983" lon="-3.623133">
        <ele>2430.0</ele>
        <time>2018-07-22T14:35:31Z</time>
      </trkpt>
      <trkpt lat="41.150050" lon="-3.623033">
        <ele>2431.0</ele>
        <time>2018-07-22T14:35:32Z</time>
      </trkpt>
      <trkpt lat="41.150117" lon="-3.622917">
        <ele>2433.0</ele>
        <time>2018-07-22T14:35:33Z</time>
      </trkpt>
      <trkpt lat="41.150167" lon="-3.622783">
        <ele>2433.0</ele>
        <time>2018-07-22T14:35:34Z</time>
      </trkpt>
      <trkpt lat="41.150217" lon="-3.622650">
        <ele>2433.0</ele>
        <time>2018-07-22T14:35:35Z</time>
      </trkpt>
      <trkpt lat="41.150250" lon="-3.622483">
        <ele>2434.0</ele>
        <time>2018-07-22T14:35:36Z</time>
      </trkpt>
      <trkpt lat="41.150267" lon="-3.622333">
        <ele>2436.0</ele>
        <time>2018-07-22T14:35:37Z</time>
      </trkpt>
      <trkpt lat="41.150250" lon="-3.622167">
        <ele>2438.0</ele>
        <time>2018-07-22T14:35:38Z</time>
      </trkpt>
      <trkpt lat="41.150217" lon="-3.622017">
        <ele>2441.0</ele>
        <time>2018-07-22T14:35:39Z</time>
      </trkpt>
      <trkpt lat="41.150167" lon="-3.621883">
        <ele>2443.0</ele>
        <time>2018-07-22T14:35:40Z</time>
      </trkpt>
      <trkpt lat="41.150100" lon="-3.621767">
        <ele>2445.0</ele>
        <time>2018-07-22T14:35:41Z</time>
      </trkpt>
      <trkpt lat="41.150017" lon="-3.621650">
        <ele>2447.0</ele>
        <time>2018-07-22T14:35:42Z</time>
      </trkpt>
      <trkpt lat="41.149933" lon="-3.621567">
        <ele>2449.0</ele>
        <time>2018-07-22T14:35:43Z</time>
      </trkpt>
      <trkpt lat="41.149850" lon="-3.621517">
        <ele>2451.0</ele>
        <time>2018-07-22T14:35:44Z</time>
      </trkpt>
      <trkpt lat="41.149750" lon="-3.621500">
        <ele>2453.0</ele>
        <time>2018-07-22T14:35:45Z</time>
      </trkpt>
      <trkpt lat="41.149667" lon="-3.621500">
        <ele>2455.0</ele>
        <time>2018-07-22T14:35:46Z</time>
      </trkpt>
      <trkpt lat="41.149583" lon="-3.621533">
        <ele>2457.0</ele>
        <time>2018-07-22T14:35:47Z</time>
      </trkpt>
      <trkpt lat="41.149517" lon="-3.621583">
        <ele>2458.0</ele>
        <time>2018-07-22T14:35:48Z</time>
      </trkpt>
      <trkpt lat="41.149467" lon="-3.621667">
        <ele>2459.0</ele>
        <time>2018-07-22T14:35:49Z</time>
      </trkpt>
      <trkpt lat="41.149433" lon="-3.621783">
        <ele>2459.0</ele>
        <time>2018-07-22T14:35:50Z</time>
      </trkpt>
      <trkpt lat="41.149433" lon="-3.621883">
        <ele>2460.0</ele>
        <time>2018-07-22T14:35:51Z</time>
      </trkpt>
      <trkpt lat="41.149450" lon="-3.621983">
        <ele>2461.0</ele>
        <time>2018-07-22T14:35:52Z</time>
      </trkpt>
      <trkpt lat="41.149467" lon="-3.622100">
        <ele>2461.0</ele>
        <time>2018-07-22T14:35:53Z</time>
      </trkpt>
      <trkpt lat="41.149500" lon="-3.622200">
        <ele>2462.0</ele>
        <time>2018-07-22T14:35:54Z</time>
      </trkpt>
      <trkpt lat="41.149550" lon="-3.622300">
        <ele>2463.0</ele>
        <time>2018-07-22T14:35:55Z</time>
      </trkpt>
      <trkpt lat="41.149617" lon="-3.622383">
        <ele>2465.0</ele>
        <time>2018-07-22T14:35:56Z</time>
      </trkpt>
      <trkpt lat="41.149683" lon="-3.622433">
        <ele>2468.0</ele>
        <time>2018-07-22T14:35:57Z</time>
      </trkpt>
      <trkpt lat="41.149733" lon="-3.622450">
        <ele>2470.0</ele>
        <time>2018-07-22T14:35:58Z</time>
      </trkpt>
      <trkpt lat="41.149800" lon="-3.622467">
        <ele>2472.0</ele>
        <time>2018-07-22T14:35:59Z</time>
      </trkpt>
      <trkpt lat="41.149867" lon="-3.622483">
        <ele>2472.0</ele>
        <time>2018-07-22T14:36:00Z</time>
      </trkpt>
      <trkpt lat="41.149950" lon="-3.622517">
        <ele>2472.0</ele>
        <time>2018-07-22T14:36:01Z</time>
      </trkpt>
      <trkpt lat="41.150050" lon="-3.622550">
        <ele>2472.0</ele>
        <time>2018-07-22T14:36:02Z</time>
      </trkpt>
      <trkpt lat="41.150150" lon="-3.622567">
        <ele>2473.0</ele>
        <time>2018-07-22T14:36:03Z</time>
      </trkpt>
      <trkpt lat="41.150250" lon="-3.622550">
        <ele>2473.0</ele>
        <time>2018-07-22T14:36:04Z</time>
      </trkpt>
      <trkpt lat="41.150367" lon="-3.622517">
        <ele>2474.0</ele>
        <time>2018-07-22T14:36:05Z</time>
      </trkpt>
      <trkpt lat="41.150483" lon="-3.622467">
        <ele>2476.0</ele>
        <time>2018-07-22T14:36:06Z</time>
      </trkpt>
      <trkpt lat="41.150567" lon="-3.622400">
        <ele>2479.0</ele>
        <time>2018-07-22T14:36:07Z</time>
      </trkpt>
      <trkpt lat="41.150633" lon="-3.622333">
        <ele>2483.0</ele>
        <time>2018-07-22T14:36:08Z</time>
      </trkpt>
      <trkpt lat="41.150683" lon="-3.622267">
        <ele>2486.0</ele>
        <time>2018-07-22T14:36:09Z</time>
      </trkpt>
      <trkpt lat="41.150717" lon="-3.622200">
        <ele>2489.0</ele>
        <time>2018-07-22T14:36:10Z</time>
      </trkpt>
      <trkpt lat="41.150767" lon="-3.622133">
        <ele>2490.0</ele>
        <time>2018-07-22T14:36:11Z</time>
      </trkpt>
      <trkpt lat="41.150833" lon="-3.622067">
        <ele>2491.0</ele>
        <time>2018-07-22T14:36:12Z</time>
      </trkpt>
      <trkpt lat="41.150900" lon="-3.622000">
        <ele>2493.0</ele>
        <time>2018-07-22T14:36:13Z</time>
      </trkpt>
      <trkpt lat="41.150967" lon="-3.621900">
        <ele>2495.0</ele>
        <time>2018-07-22T14:36:14Z</time>
      </trkpt>
      <trkpt lat="41.151017" lon="-3.621767">
        <ele>2497.0</ele>
        <time>2018-07-22T14:36:15Z</time>
      </trkpt>
      <trkpt lat="41.151033" lon="-3.621617">
        <ele>2499.0</ele>
        <time>2018-07-22T14:36:16Z</time>
      </trkpt>
      <trkpt lat="41.151033" lon="-3.621467">
        <ele>2501.0</ele>
        <time>2018-07-22T14:36:17Z</time>
      </trkpt>
      <trkpt lat="41.151033" lon="-3.621300">
        <ele>2504.0</ele>
        <time>2018-07-22T14:36:18Z</time>
      </trkpt>
      <trkpt lat="41.151000" lon="-3.621167">
        <ele>2506.0</ele>
        <time>2018-07-22T14:36:19Z</time>
      </trkpt>
      <trkpt lat="41.150933" lon="-3.621033">
        <ele>2507.0</ele>
        <time>2018-07-22T14:36:20Z</time>
      </trkpt>
      <trkpt lat="41.150867" lon="-3.620917">
        <ele>2507.0</ele>
        <time>2018-07-22T14:36:21Z</time>
      </trkpt>
      <trkpt lat="41.150767" lon="-3.620833">
        <ele>2507.0</ele>
        <time>2018-07-22T14:36:22Z</time>
      </trkpt>
      <trkpt lat="41.150650" lon="-3.620767">
        <ele>2507.0</ele>
        <time>2018-07-22T14:36:23Z</time>
      </trkpt>
      <trkpt lat="41.150533" lon="-3.620733">
        <ele>2509.0</ele>
        <time>2018-07-22T14:36:24Z</time>
      </trkpt>
      <trkpt lat="41.150433" lon="-3.620733">
        <ele>2511.0</ele>
        <time>2018-07-22T14:36:25Z</time>
      </trkpt>
      <trkpt lat="41.150333" lon="-3.620767">
        <ele>2512.0</ele>
        <time>2018-07-22T14:36:26Z</time>
      </trkpt>
      <trkpt lat="41.150250" lon="-3.620800">
        <ele>2513.0</ele>
        <time>2018-07-22T14:36:27Z</time>
      </trkpt>
      <trkpt lat="41.150183" lon="-3.620850">
        <ele>2515.0</ele>
        <time>2018-07-22T14:36:28Z</time>
      </trkpt>
      <trkpt lat="41.150117" lon="-3.620933">
        <ele>2516.0</ele>
        <time>2018-07-22T14:36:29Z</time>
      </trkpt>
      <trkpt lat="41.150067" lon="-3.621033">
        <ele>2517.0</ele>
        <time>2018-07-22T14:36:30Z</time>
      </trkpt>
      <trkpt lat="41.150050" lon="-3.621133">
        <ele>2518.0</ele>
        <time>2018-07-22T14:36:31Z</time>
      </trkpt>
      <trkpt lat="41.150050" lon="-3.621250">
        <ele>2520.0</ele>
        <time>2018-07-22T14:36:32Z</time>
      </trkpt>
      <trkpt lat="41.150083" lon="-3.621367">
        <ele>2521.0</ele>
        <time>2018-07-22T14:36:33Z</time>
      </trkpt>
      <trkpt lat="41.150100" lon="-3.621467">
        <ele>2524.0</ele>
        <time>2018-07-22T14:36:34Z</time>
      </trkpt>
      <trkpt lat="41.150133" lon="-3.621567">
        <ele>2526.0</ele>
        <time>2018-07-22T14:36:35Z</time>
      </trkpt>
      <trkpt lat="41.150183" lon="-3.621650">
        <ele>2528.0</ele>
        <time>2018-07-22T14:36:36Z</time>
      </trkpt>
      <trkpt lat="41.150233" lon="-3.621717">
        <ele>2529.0</ele>
        <time>2018-07-22T14:36:37Z</time>
      </trkpt>
      <trkpt lat="41.150317" lon="-3.621767">
        <ele>2529.0</ele>
        <time>2018-07-22T14:36:38Z</time>
      </trkpt>
      <trkpt lat="41.150400" lon="-3.621800">
        <ele>2530.0</ele>
        <time>2018-07-22T14:36:39Z</time>
      </trkpt>
      <trkpt lat="41.150483" lon="-3.621817">
        <ele>2531.0</ele>
        <time>2018-07-22T14:36:40Z</time>
      </trkpt>
      <trkpt lat="41.150567" lon="-3.621800">
        <ele>2533.0</ele>
        <time>2018-07-22T14:36:41Z</time>
      </trkpt>
      <trkpt lat="41.150633" lon="-3.621767">
        <ele>2535.0</ele>
        <time>2018-07-22T14:36:42Z</time>
      </trkpt>
      <trkpt lat="41.150700" lon="-3.621717">
        <ele>2536.0</ele>
        <time>2018-07-22T14:36:43Z</time>
      </trkpt>
      <trkpt lat="41.150783" lon="-3.621683">
        <ele>2536.0</ele>
        <time>2018-07-22T14:36:44Z</time>
      </trkpt>
      <trkpt lat="41.150867" lon="-3.621650">
        <ele>2536.0</ele>
        <time>2018-07-22T14:36:45Z</time>
      </trkpt>
      <trkpt lat="41.150967" lon="-3.621617">
        <ele>2536.0</ele>
        <time>2018-07-22T14:36:46Z</time>
      </trkpt>
      <trkpt lat="41.151067" lon="-3.621583">
        <ele>2538.0</ele>
        <time>2018-07-22T14:36:47Z</time>
      </trkpt>
      <trkpt lat="41.151150" lon="-3.621533">
        <ele>2540.0</ele>
        <time>2018-07-22T14:36:48Z</time>
      </trkpt>
      <trkpt lat="41.151233" lon="-3.621483">
        <ele>2542.0</ele>
        <time>2018-07-22T14:36:49Z</time>
      </trkpt>
      <trkpt lat="41.151317" lon="-3.621433">
        <ele>2543.0</ele>
        <time>2018-07-22T14:36:50Z</time>
      </trkpt>
      <trkpt lat="41.151383" lon="-3.621400">
        <ele>2543.0</ele>
        <time>2018-07-22T14:36:51Z</time>
      </trkpt>
      <trkpt lat="41.151483" lon="-3.621350">
        <ele>2542.0</ele>
        <time>2018-07-22T14:36:52Z</time>
      </trkpt>
      <trkpt lat="41.151567" lon="-3.621317">
        <ele>2540.0</ele>
        <time>2018-07-22T14:36:53Z</time>
      </trkpt>
      <trkpt lat="41.151683" lon="-3.621283">
        <ele>2538.0</ele>
        <time>2018-07-22T14:36:54Z</time>
      </trkpt>
      <trkpt lat="41.151767" lon="-3.621233">
        <ele>2538.0</ele>
        <time>2018-07-22T14:36:55Z</time>
      </trkpt>
      <trkpt lat="41.151867" lon="-3.621200">
        <ele>2538.0</ele>
        <time>2018-07-22T14:36:56Z</time>
      </trkpt>
      <trkpt lat="41.151950" lon="-3.621150">
        <ele>2538.0</ele>
        <time>2018-07-22T14:36:57Z</time>
      </trkpt>
      <trkpt lat="41.152033" lon="-3.621117">
        <ele>2537.0</ele>
        <time>2018-07-22T14:36:58Z</time>
      </trkpt>
      <trkpt lat="41.152117" lon="-3.621083">
        <ele>2536.0</ele>
        <time>2018-07-22T14:36:59Z</time>
      </trkpt>
      <trkpt lat="41.152217" lon="-3.621017">
        <ele>2535.0</ele>
        <time>2018-07-22T14:37:00Z</time>
      </trkpt>
      <trkpt lat="41.152300" lon="-3.620950">
        <ele>2533.0</ele>
        <time>2018-07-22T14:37:01Z</time>
      </trkpt>
      <trkpt lat="41.152400" lon="-3.620883">
        <ele>2533.0</ele>
        <time>2018-07-22T14:37:02Z</time>
      </trkpt>
      <trkpt lat="41.152500" lon="-3.620817">
        <ele>2533.0</ele>
        <time>2018-07-22T14:37:03Z</time>
      </trkpt>
      <trkpt lat="41.152600" lon="-3.620767">
        <ele>2533.0</ele>
        <time>2018-07-22T14:37:04Z</time>
      </trkpt>
      <trkpt lat="41.152700" lon="-3.620700">
        <ele>2534.0</ele>
        <time>2018-07-22T14:37:05Z</time>
      </trkpt>
      <trkpt lat="41.152800" lon="-3.620617">
        <ele>2534.0</ele>
        <time>2018-07-22T14:37:06Z</time>
      </trkpt>
      <trkpt lat="41.152883" lon="-3.620533">
        <ele>2536.0</ele>
        <time>2018-07-22T14:37:07Z</time>
      </trkpt>
      <trkpt lat="41.152967" lon="-3.620450">
        <ele>2537.0</ele>
        <time>2018-07-22T14:37:08Z</time>
      </trkpt>
      <trkpt lat="41.153067" lon="-3.620367">
        <ele>2538.0</ele>
        <time>2018-07-22T14:37:09Z</time>
      </trkpt>
      <trkpt lat="41.153150" lon="-3.620283">
        <ele>2538.0</ele>
        <time>2018-07-22T14:37:10Z</time>
      </trkpt>
      <trkpt lat="41.153233" lon="-3.620200">
        <ele>2538.0</ele>
        <time>2018-07-22T14:37:11Z</time>
      </trkpt>
      <trkpt lat="41.153333" lon="-3.620117">
        <ele>2538.0</ele>
        <time>2018-07-22T14:37:12Z</time>
      </trkpt>
      <trkpt lat="41.153417" lon="-3.620017">
        <ele>2538.0</ele>
        <time>2018-07-22T14:37:13Z</time>
      </trkpt>
      <trkpt lat="41.153517" lon="-3.619933">
        <ele>2538.0</ele>
        <time>2018-07-22T14:37:14Z</time>
      </trkpt>
      <trkpt lat="41.153600" lon="-3.619850">
        <ele>2538.0</ele>
        <time>2018-07-22T14:37:15Z</time>
      </trkpt>
      <trkpt lat="41.153683" lon="-3.619767">
        <ele>2538.0</ele>
        <time>2018-07-22T14:37:16Z</time>
      </trkpt>
      <trkpt lat="41.153767" lon="-3.619683">
        <ele>2539.0</ele>
        <time>2018-07-22T14:37:17Z</time>
      </trkpt>
      <trkpt lat="41.153850" lon="-3.619583">
        <ele>2539.0</ele>
        <time>2018-07-22T14:37:18Z</time>
      </trkpt>
      <trkpt lat="41.153950" lon="-3.619500">
        <ele>2538.0</ele>
        <time>2018-07-22T14:37:19Z</time>
      </trkpt>
      <trkpt lat="41.154033" lon="-3.619417">
        <ele>2539.0</ele>
        <time>2018-07-22T14:37:20Z</time>
      </trkpt>
      <trkpt lat="41.154117" lon="-3.619350">
        <ele>2538.0</ele>
        <time>2018-07-22T14:37:21Z</time>
      </trkpt>
      <trkpt lat="41.154183" lon="-3.619283">
        <ele>2537.0</ele>
        <time>2018-07-22T14:37:22Z</time>
      </trkpt>
      <trkpt lat="41.154283" lon="-3.619217">
        <ele>2536.0</ele>
        <time>2018-07-22T14:37:23Z</time>
      </trkpt>
      <trkpt lat="41.154383" lon="-3.619150">
        <ele>2535.0</ele>
        <time>2018-07-22T14:37:24Z</time>
      </trkpt>
      <trkpt lat="41.154483" lon="-3.619067">
        <ele>2534.0</ele>
        <time>2018-07-22T14:37:25Z</time>
      </trkpt>
      <trkpt lat="41.154583" lon="-3.619000">
        <ele>2533.0</ele>
        <time>2018-07-22T14:37:26Z</time>
      </trkpt>
      <trkpt lat="41.154683" lon="-3.618950">
        <ele>2532.0</ele>
        <time>2018-07-22T14:37:27Z</time>
      </trkpt>
      <trkpt lat="41.154783" lon="-3.618883">
        <ele>2530.0</ele>
        <time>2018-07-22T14:37:28Z</time>
      </trkpt>
      <trkpt lat="41.154883" lon="-3.618817">
        <ele>2528.0</ele>
        <time>2018-07-22T14:37:29Z</time>
      </trkpt>
      <trkpt lat="41.155000" lon="-3.618750">
        <ele>2526.0</ele>
        <time>2018-07-22T14:37:30Z</time>
      </trkpt>
      <trkpt lat="41.155117" lon="-3.618683">
        <ele>2526.0</ele>
        <time>2018-07-22T14:37:31Z</time>
      </trkpt>
      <trkpt lat="41.155217" lon="-3.618617">
        <ele>2527.0</ele>
        <time>2018-07-22T14:37:32Z</time>
      </trkpt>
      <trkpt lat="41.155300" lon="-3.618550">
        <ele>2529.0</ele>
        <time>2018-07-22T14:37:33Z</time>
      </trkpt>
      <trkpt lat="41.155383" lon="-3.618483">
        <ele>2530.0</ele>
        <time>2018-07-22T14:37:34Z</time>
      </trkpt>
      <trkpt lat="41.155467" lon="-3.618417">
        <ele>2529.0</ele>
        <time>2018-07-22T14:37:35Z</time>
      </trkpt>
      <trkpt lat="41.155550" lon="-3.618367">
        <ele>2526.0</ele>
        <time>2018-07-22T14:37:36Z</time>
      </trkpt>
      <trkpt lat="41.155633" lon="-3.618317">
        <ele>2525.0</ele>
        <time>2018-07-22T14:37:37Z</time>
      </trkpt>
      <trkpt lat="41.155717" lon="-3.618233">
        <ele>2525.0</ele>
        <time>2018-07-22T14:37:38Z</time>
      </trkpt>
      <trkpt lat="41.155800" lon="-3.618150">
        <ele>2525.0</ele>
        <time>2018-07-22T14:37:39Z</time>
      </trkpt>
      <trkpt lat="41.155883" lon="-3.618067">
        <ele>2527.0</ele>
        <time>2018-07-22T14:37:40Z</time>
      </trkpt>
      <trkpt lat="41.155967" lon="-3.618000">
        <ele>2529.0</ele>
        <time>2018-07-22T14:37:41Z</time>
      </trkpt>
      <trkpt lat="41.156033" lon="-3.617933">
        <ele>2530.0</ele>
        <time>2018-07-22T14:37:42Z</time>
      </trkpt>
      <trkpt lat="41.156117" lon="-3.617883">
        <ele>2529.0</ele>
        <time>2018-07-22T14:37:43Z</time>
      </trkpt>
      <trkpt lat="41.156200" lon="-3.617817">
        <ele>2528.0</ele>
        <time>2018-07-22T14:37:44Z</time>
      </trkpt>
      <trkpt lat="41.156300" lon="-3.617750">
        <ele>2527.0</ele>
        <time>2018-07-22T14:37:45Z</time>
      </trkpt>
      <trkpt lat="41.156383" lon="-3.617667">
        <ele>2527.0</ele>
        <time>2018-07-22T14:37:46Z</time>
      </trkpt>
      <trkpt lat="41.156483" lon="-3.617600">
        <ele>2528.0</ele>
        <time>2018-07-22T14:37:47Z</time>
      </trkpt>
      <trkpt lat="41.156567" lon="-3.617533">
        <ele>2530.0</ele>
        <time>2018-07-22T14:37:48Z</time>
      </trkpt>
      <trkpt lat="41.156650" lon="-3.617483">
        <ele>2532.0</ele>
        <time>2018-07-22T14:37:49Z</time>
      </trkpt>
      <trkpt lat="41.156733" lon="-3.617450">
        <ele>2534.0</ele>
        <time>2018-07-22T14:37:50Z</time>
      </trkpt>
      <trkpt lat="41.156817" lon="-3.617400">
        <ele>2535.0</ele>
        <time>2018-07-22T14:37:51Z</time>
      </trkpt>
      <trkpt lat="41.156900" lon="-3.617350">
        <ele>2535.0</ele>
        <time>2018-07-22T14:37:52Z</time>
      </trkpt>
      <trkpt lat="41.157000" lon="-3.617300">
        <ele>2535.0</ele>
        <time>2018-07-22T14:37:53Z</time>
      </trkpt>
      <trkpt lat="41.157083" lon="-3.617217">
        <ele>2536.0</ele>
        <time>2018-07-22T14:37:54Z</time>
      </trkpt>
      <trkpt lat="41.157150" lon="-3.617133">
        <ele>2536.0</ele>
        <time>2018-07-22T14:37:55Z</time>
      </trkpt>
      <trkpt lat="41.157233" lon="-3.617050">
        <ele>2538.0</ele>
        <time>2018-07-22T14:37:56Z</time>
      </trkpt>
      <trkpt lat="41.157300" lon="-3.616983">
        <ele>2538.0</ele>
        <time>2018-07-22T14:37:57Z</time>
      </trkpt>
      <trkpt lat="41.157383" lon="-3.616933">
        <ele>2538.0</ele>
        <time>2018-07-22T14:37:58Z</time>
      </trkpt>
      <trkpt lat="41.157467" lon="-3.616867">
        <ele>2538.0</ele>
        <time>2018-07-22T14:37:59Z</time>
      </trkpt>
      <trkpt lat="41.157550" lon="-3.616800">
        <ele>2537.0</ele>
        <time>2018-07-22T14:38:00Z</time>
      </trkpt>
      <trkpt lat="41.157633" lon="-3.616717">
        <ele>2537.0</ele>
        <time>2018-07-22T14:38:01Z</time>
      </trkpt>
      <trkpt lat="41.157733" lon="-3.616667">
        <ele>2537.0</ele>
        <time>2018-07-22T14:38:02Z</time>
      </trkpt>
      <trkpt lat="41.157833" lon="-3.616600">
        <ele>2537.0</ele>
        <time>2018-07-22T14:38:03Z</time>
      </trkpt>
      <trkpt lat="41.157917" lon="-3.616550">
        <ele>2536.0</ele>
        <time>2018-07-22T14:38:04Z</time>
      </trkpt>
      <trkpt lat="41.158017" lon="-3.616483">
        <ele>2535.0</ele>
        <time>2018-07-22T14:38:05Z</time>
      </trkpt>
      <trkpt lat="41.158117" lon="-3.616400">
        <ele>2534.0</ele>
        <time>2018-07-22T14:38:06Z</time>
      </trkpt>
      <trkpt lat="41.158217" lon="-3.616333">
        <ele>2533.0</ele>
        <time>2018-07-22T14:38:07Z</time>
      </trkpt>
      <trkpt lat="41.158300" lon="-3.616267">
        <ele>2533.0</ele>
        <time>2018-07-22T14:38:08Z</time>
      </trkpt>
      <trkpt lat="41.158400" lon="-3.616217">
        <ele>2532.0</ele>
        <time>2018-07-22T14:38:09Z</time>
      </trkpt>
      <trkpt lat="41.158500" lon="-3.616167">
        <ele>2533.0</ele>
        <time>2018-07-22T14:38:10Z</time>
      </trkpt>
      <trkpt lat="41.158583" lon="-3.616100">
        <ele>2534.0</ele>
        <time>2018-07-22T14:38:11Z</time>
      </trkpt>
      <trkpt lat="41.158667" lon="-3.616050">
        <ele>2535.0</ele>
        <time>2018-07-22T14:38:12Z</time>
      </trkpt>
      <trkpt lat="41.158733" lon="-3.616017">
        <ele>2535.0</ele>
        <time>2018-07-22T14:38:13Z</time>
      </trkpt>
      <trkpt lat="41.158800" lon="-3.615967">
        <ele>2534.0</ele>
        <time>2018-07-22T14:38:14Z</time>
      </trkpt>
      <trkpt lat="41.158867" lon="-3.615933">
        <ele>2532.0</ele>
        <time>2018-07-22T14:38:15Z</time>
      </trkpt>
      <trkpt lat="41.158967" lon="-3.615900">
        <ele>2529.0</ele>
        <time>2018-07-22T14:38:16Z</time>
      </trkpt>
      <trkpt lat="41.159067" lon="-3.615850">
        <ele>2527.0</ele>
        <time>2018-07-22T14:38:17Z</time>
      </trkpt>
      <trkpt lat="41.159183" lon="-3.615817">
        <ele>2528.0</ele>
        <time>2018-07-22T14:38:18Z</time>
      </trkpt>
      <trkpt lat="41.159283" lon="-3.615767">
        <ele>2530.0</ele>
        <time>2018-07-22T14:38:19Z</time>
      </trkpt>
      <trkpt lat="41.159367" lon="-3.615700">
        <ele>2531.0</ele>
        <time>2018-07-22T14:38:20Z</time>
      </trkpt>
      <trkpt lat="41.159433" lon="-3.615633">
        <ele>2532.0</ele>
        <time>2018-07-22T14:38:21Z</time>
      </trkpt>
      <trkpt lat="41.159517" lon="-3.615567">
        <ele>2532.0</ele>
        <time>2018-07-22T14:38:22Z</time>
      </trkpt>
      <trkpt lat="41.159600" lon="-3.615483">
        <ele>2531.0</ele>
        <time>2018-07-22T14:38:23Z</time>
      </trkpt>
      <trkpt lat="41.159683" lon="-3.615400">
        <ele>2530.0</ele>
        <time>2018-07-22T14:38:24Z</time>
      </trkpt>
      <trkpt lat="41.159783" lon="-3.615317">
        <ele>2531.0</ele>
        <time>2018-07-22T14:38:25Z</time>
      </trkpt>
      <trkpt lat="41.159867" lon="-3.615250">
        <ele>2533.0</ele>
        <time>2018-07-22T14:38:26Z</time>
      </trkpt>
      <trkpt lat="41.159950" lon="-3.615183">
        <ele>2534.0</ele>
        <time>2018-07-22T14:38:27Z</time>
      </trkpt>
      <trkpt lat="41.160033" lon="-3.615117">
        <ele>2536.0</ele>
        <time>2018-07-22T14:38:28Z</time>
      </trkpt>
      <trkpt lat="41.160117" lon="-3.615050">
        <ele>2538.0</ele>
        <time>2018-07-22T14:38:29Z</time>
      </trkpt>
      <trkpt lat="41.160200" lon="-3.615000">
        <ele>2539.0</ele>
        <time>2018-07-22T14:38:30Z</time>
      </trkpt>
      <trkpt lat="41.160283" lon="-3.614933">
        <ele>2541.0</ele>
        <time>2018-07-22T14:38:31Z</time>
      </trkpt>
      <trkpt lat="41.160367" lon="-3.614883">
        <ele>2540.0</ele>
        <time>2018-07-22T14:38:32Z</time>
      </trkpt>
      <trkpt lat="41.160450" lon="-3.614817">
        <ele>2539.0</ele>
        <time>2018-07-22T14:38:33Z</time>
      </trkpt>
      <trkpt lat="41.160550" lon="-3.614750">
        <ele>2537.0</ele>
        <time>2018-07-22T14:38:34Z</time>
      </trkpt>
      <trkpt lat="41.160650" lon="-3.614683">
        <ele>2535.0</ele>
        <time>2018-07-22T14:38:35Z</time>
      </trkpt>
      <trkpt lat="41.160750" lon="-3.614600">
        <ele>2535.0</ele>
        <time>2018-07-22T14:38:36Z</time>
      </trkpt>
      <trkpt lat="41.160833" lon="-3.614533">
        <ele>2535.0</ele>
        <time>2018-07-22T14:38:37Z</time>
      </trkpt>
      <trkpt lat="41.160933" lon="-3.614450">
        <ele>2536.0</ele>
        <time>2018-07-22T14:38:38Z</time>
      </trkpt>
      <trkpt lat="41.161000" lon="-3.614383">
        <ele>2536.0</ele>
        <time>2018-07-22T14:38:39Z</time>
      </trkpt>
      <trkpt lat="41.161067" lon="-3.614317">
        <ele>2537.0</ele>
        <time>2018-07-22T14:38:40Z</time>
      </trkpt>
      <trkpt lat="41.161133" lon="-3.614233">
        <ele>2536.0</ele>
        <time>2018-07-22T14:38:41Z</time>
      </trkpt>
      <trkpt lat="41.161200" lon="-3.614167">
        <ele>2535.0</ele>
        <time>2018-07-22T14:38:42Z</time>
      </trkpt>
      <trkpt lat="41.161267" lon="-3.614083">
        <ele>2532.0</ele>
        <time>2018-07-22T14:38:43Z</time>
      </trkpt>
      <trkpt lat="41.161333" lon="-3.614000">
        <ele>2529.0</ele>
        <time>2018-07-22T14:38:44Z</time>
      </trkpt>
      <trkpt lat="41.161433" lon="-3.613933">
        <ele>2528.0</ele>
        <time>2018-07-22T14:38:45Z</time>
      </trkpt>
      <trkpt lat="41.161517" lon="-3.613867">
        <ele>2527.0</ele>
        <time>2018-07-22T14:38:46Z</time>
      </trkpt>
      <trkpt lat="41.161600" lon="-3.613817">
        <ele>2525.0</ele>
        <time>2018-07-22T14:38:47Z</time>
      </trkpt>
      <trkpt lat="41.161683" lon="-3.613783">
        <ele>2524.0</ele>
        <time>2018-07-22T14:38:48Z</time>
      </trkpt>
      <trkpt lat="41.161750" lon="-3.613733">
        <ele>2521.0</ele>
        <time>2018-07-22T14:38:49Z</time>
      </trkpt>
      <trkpt lat="41.161817" lon="-3.613700">
        <ele>2517.0</ele>
        <time>2018-07-22T14:38:50Z</time>
      </trkpt>
      <trkpt lat="41.161917" lon="-3.613667">
        <ele>2512.0</ele>
        <time>2018-07-22T14:38:51Z</time>
      </trkpt>
      <trkpt lat="41.162000" lon="-3.613633">
        <ele>2508.0</ele>
        <time>2018-07-22T14:38:52Z</time>
      </trkpt>
      <trkpt lat="41.162100" lon="-3.613617">
        <ele>2505.0</ele>
        <time>2018-07-22T14:38:53Z</time>
      </trkpt>
      <trkpt lat="41.162200" lon="-3.613600">
        <ele>2502.0</ele>
        <time>2018-07-22T14:38:54Z</time>
      </trkpt>
      <trkpt lat="41.162300" lon="-3.613583">
        <ele>2500.0</ele>
        <time>2018-07-22T14:38:55Z</time>
      </trkpt>
      <trkpt lat="41.162400" lon="-3.613567">
        <ele>2498.0</ele>
        <time>2018-07-22T14:38:56Z</time>
      </trkpt>
      <trkpt lat="41.162500" lon="-3.613517">
        <ele>2496.0</ele>
        <time>2018-07-22T14:38:57Z</time>
      </trkpt>
      <trkpt lat="41.162583" lon="-3.613483">
        <ele>2494.0</ele>
        <time>2018-07-22T14:38:58Z</time>
      </trkpt>
      <trkpt lat="41.162683" lon="-3.613417">
        <ele>2492.0</ele>
        <time>2018-07-22T14:38:59Z</time>
      </trkpt>
      <trkpt lat="41.162767" lon="-3.613350">
        <ele>2490.0</ele>
        <time>2018-07-22T14:39:00Z</time>
      </trkpt>
      <trkpt lat="41.162850" lon="-3.613300">
        <ele>2488.0</ele>
        <time>2018-07-22T14:39:01Z</time>
      </trkpt>
      <trkpt lat="41.162917" lon="-3.613250">
        <ele>2485.0</ele>
        <time>2018-07-22T14:39:02Z</time>
      </trkpt>
      <trkpt lat="41.163000" lon="-3.613217">
        <ele>2482.0</ele>
        <time>2018-07-22T14:39:03Z</time>
      </trkpt>
      <trkpt lat="41.163067" lon="-3.613167">
        <ele>2478.0</ele>
        <time>2018-07-22T14:39:04Z</time>
      </trkpt>
      <trkpt lat="41.163133" lon="-3.613117">
        <ele>2474.0</ele>
        <time>2018-07-22T14:39:05Z</time>
      </trkpt>
      <trkpt lat="41.163217" lon="-3.613067">
        <ele>2470.0</ele>
        <time>2018-07-22T14:39:06Z</time>
      </trkpt>
      <trkpt lat="41.163300" lon="-3.613017">
        <ele>2466.0</ele>
        <time>2018-07-22T14:39:07Z</time>
      </trkpt>
      <trkpt lat="41.163383" lon="-3.612950">
        <ele>2462.0</ele>
        <time>2018-07-22T14:39:08Z</time>
      </trkpt>
      <trkpt lat="41.163450" lon="-3.612883">
        <ele>2458.0</ele>
        <time>2018-07-22T14:39:09Z</time>
      </trkpt>
      <trkpt lat="41.163517" lon="-3.612800">
        <ele>2456.0</ele>
        <time>2018-07-22T14:39:10Z</time>
      </trkpt>
      <trkpt lat="41.163567" lon="-3.612717">
        <ele>2452.0</ele>
        <time>2018-07-22T14:39:11Z</time>
      </trkpt>
      <trkpt lat="41.163633" lon="-3.612633">
        <ele>2449.0</ele>
        <time>2018-07-22T14:39:12Z</time>
      </trkpt>
      <trkpt lat="41.163700" lon="-3.612533">
        <ele>2444.0</ele>
        <time>2018-07-22T14:39:13Z</time>
      </trkpt>
      <trkpt lat="41.163767" lon="-3.612433">
        <ele>2441.0</ele>
        <time>2018-07-22T14:39:14Z</time>
      </trkpt>
      <trkpt lat="41.163833" lon="-3.612333">
        <ele>2437.0</ele>
        <time>2018-07-22T14:39:15Z</time>
      </trkpt>
      <trkpt lat="41.163917" lon="-3.612233">
        <ele>2434.0</ele>
        <time>2018-07-22T14:39:16Z</time>
      </trkpt>
      <trkpt lat="41.163967" lon="-3.612150">
        <ele>2431.0</ele>
        <time>2018-07-22T14:39:17Z</time>
      </trkpt>
      <trkpt lat="41.164033" lon="-3.612033">
        <ele>2428.0</ele>
        <time>2018-07-22T14:39:18Z</time>
      </trkpt>
      <trkpt lat="41.164083" lon="-3.611917">
        <ele>2425.0</ele>
        <time>2018-07-22T14:39:19Z</time>
      </trkpt>
      <trkpt lat="41.164133" lon="-3.611783">
        <ele>2422.0</ele>
        <time>2018-07-22T14:39:20Z</time>
      </trkpt>
      <trkpt lat="41.164183" lon="-3.611667">
        <ele>2420.0</ele>
        <time>2018-07-22T14:39:21Z</time>
      </trkpt>
      <trkpt lat="41.164250" lon="-3.611567">
        <ele>2417.0</ele>
        <time>2018-07-22T14:39:22Z</time>
      </trkpt>
      <trkpt lat="41.164300" lon="-3.611450">
        <ele>2415.0</ele>
        <time>2018-07-22T14:39:23Z</time>
      </trkpt>
      <trkpt lat="41.164367" lon="-3.611317">
        <ele>2413.0</ele>
        <time>2018-07-22T14:39:24Z</time>
      </trkpt>
      <trkpt lat="41.164417" lon="-3.611183">
        <ele>2412.0</ele>
        <time>2018-07-22T14:39:25Z</time>
      </trkpt>
      <trkpt lat="41.164483" lon="-3.611050">
        <ele>2411.0</ele>
        <time>2018-07-22T14:39:26Z</time>
      </trkpt>
      <trkpt lat="41.164533" lon="-3.610917">
        <ele>2411.0</ele>
        <time>2018-07-22T14:39:27Z</time>
      </trkpt>
      <trkpt lat="41.164600" lon="-3.610800">
        <ele>2412.0</ele>
        <time>2018-07-22T14:39:28Z</time>
      </trkpt>
      <trkpt lat="41.164650" lon="-3.610683">
        <ele>2414.0</ele>
        <time>2018-07-22T14:39:29Z</time>
      </trkpt>
      <trkpt lat="41.164717" lon="-3.610583">
        <ele>2416.0</ele>
        <time>2018-07-22T14:39:30Z</time>
      </trkpt>
      <trkpt lat="41.164783" lon="-3.610483">
        <ele>2418.0</ele>
        <time>2018-07-22T14:39:31Z</time>
      </trkpt>
      <trkpt lat="41.164850" lon="-3.610383">
        <ele>2419.0</ele>
        <time>2018-07-22T14:39:32Z</time>
      </trkpt>
      <trkpt lat="41.164933" lon="-3.610317">
        <ele>2420.0</ele>
        <time>2018-07-22T14:39:33Z</time>
      </trkpt>
      <trkpt lat="41.165017" lon="-3.610250">
        <ele>2422.0</ele>
        <time>2018-07-22T14:39:34Z</time>
      </trkpt>
      <trkpt lat="41.165083" lon="-3.610200">
        <ele>2424.0</ele>
        <time>2018-07-22T14:39:35Z</time>
      </trkpt>
      <trkpt lat="41.165167" lon="-3.610133">
        <ele>2426.0</ele>
        <time>2018-07-22T14:39:36Z</time>
      </trkpt>
      <trkpt lat="41.165233" lon="-3.610083">
        <ele>2427.0</ele>
        <time>2018-07-22T14:39:37Z</time>
      </trkpt>
      <trkpt lat="41.165300" lon="-3.610017">
        <ele>2427.0</ele>
        <time>2018-07-22T14:39:38Z</time>
      </trkpt>
      <trkpt lat="41.165383" lon="-3.609950">
        <ele>2428.0</ele>
        <time>2018-07-22T14:39:39Z</time>
      </trkpt>
      <trkpt lat="41.165467" lon="-3.609867">
        <ele>2429.0</ele>
        <time>2018-07-22T14:39:40Z</time>
      </trkpt>
      <trkpt lat="41.165550" lon="-3.609817">
        <ele>2429.0</ele>
        <time>2018-07-22T14:39:41Z</time>
      </trkpt>
      <trkpt lat="41.165617" lon="-3.609750">
        <ele>2430.0</ele>
        <time>2018-07-22T14:39:42Z</time>
      </trkpt>
      <trkpt lat="41.165683" lon="-3.609683">
        <ele>2429.0</ele>
        <time>2018-07-22T14:39:43Z</time>
      </trkpt>
      <trkpt lat="41.165750" lon="-3.609617">
        <ele>2428.0</ele>
        <time>2018-07-22T14:39:44Z</time>
      </trkpt>
      <trkpt lat="41.165833" lon="-3.609550">
        <ele>2427.0</ele>
        <time>2018-07-22T14:39:45Z</time>
      </trkpt>
      <trkpt lat="41.165917" lon="-3.609467">
        <ele>2426.0</ele>
        <time>2018-07-22T14:39:46Z</time>
      </trkpt>
      <trkpt lat="41.166000" lon="-3.609383">
        <ele>2425.0</ele>
        <time>2018-07-22T14:39:47Z</time>
      </trkpt>
      <trkpt lat="41.166100" lon="-3.609317">
        <ele>2425.0</ele>
        <time>2018-07-22T14:39:48Z</time>
      </trkpt>
      <trkpt lat="41.166183" lon="-3.609233">
        <ele>2426.0</ele>
        <time>2018-07-22T14:39:49Z</time>
      </trkpt>
      <trkpt lat="41.166267" lon="-3.609183">
        <ele>2428.0</ele>
        <time>2018-07-22T14:39:50Z</time>
      </trkpt>
      <trkpt lat="41.166333" lon="-3.609100">
        <ele>2428.0</ele>
        <time>2018-07-22T14:39:51Z</time>
      </trkpt>
      <trkpt lat="41.166383" lon="-3.609033">
        <ele>2427.0</ele>
        <time>2018-07-22T14:39:52Z</time>
      </trkpt>
      <trkpt lat="41.166450" lon="-3.608950">
        <ele>2426.0</ele>
        <time>2018-07-22T14:39:53Z</time>
      </trkpt>
      <trkpt lat="41.166517" lon="-3.608867">
        <ele>2425.0</ele>
        <time>2018-07-22T14:39:54Z</time>
      </trkpt>
      <trkpt lat="41.166600" lon="-3.608800">
        <ele>2424.0</ele>
        <time>2018-07-22T14:39:55Z</time>
      </trkpt>
      <trkpt lat="41.166683" lon="-3.608733">
        <ele>2424.0</ele>
        <time>2018-07-22T14:39:56Z</time>
      </trkpt>
      <trkpt lat="41.166750" lon="-3.608667">
        <ele>2424.0</ele>
        <time>2018-07-22T14:39:57Z</time>
      </trkpt>
      <trkpt lat="41.166817" lon="-3.608583">
        <ele>2425.0</ele>
        <time>2018-07-22T14:39:58Z</time>
      </trkpt>
      <trkpt lat="41.166867" lon="-3.608517">
        <ele>2426.0</ele>
        <time>2018-07-22T14:39:59Z</time>
      </trkpt>
      <trkpt lat="41.166933" lon="-3.608433">
        <ele>2426.0</ele>
        <time>2018-07-22T14:40:00Z</time>
      </trkpt>
      <trkpt lat="41.167000" lon="-3.608367">
        <ele>2425.0</ele>
        <time>2018-07-22T14:40:01Z</time>
      </trkpt>
      <trkpt lat="41.167083" lon="-3.608317">
        <ele>2425.0</ele>
        <time>2018-07-22T14:40:02Z</time>
      </trkpt>
      <trkpt lat="41.167167" lon="-3.608283">
        <ele>2426.0</ele>
        <time>2018-07-22T14:40:03Z</time>
      </trkpt>
      <trkpt lat="41.167250" lon="-3.608250">
        <ele>2427.0</ele>
        <time>2018-07-22T14:40:04Z</time>
      </trkpt>
      <trkpt lat="41.167317" lon="-3.608217">
        <ele>2429.0</ele>
        <time>2018-07-22T14:40:05Z</time>
      </trkpt>
      <trkpt lat="41.167383" lon="-3.608167">
        <ele>2430.0</ele>
        <time>2018-07-22T14:40:06Z</time>
      </trkpt>
      <trkpt lat="41.167450" lon="-3.608117">
        <ele>2431.0</ele>
        <time>2018-07-22T14:40:07Z</time>
      </trkpt>
      <trkpt lat="41.167517" lon="-3.608067">
        <ele>2431.0</ele>
        <time>2018-07-22T14:40:08Z</time>
      </trkpt>
      <trkpt lat="41.167567" lon="-3.608017">
        <ele>2433.0</ele>
        <time>2018-07-22T14:40:09Z</time>
      </trkpt>
      <trkpt lat="41.167633" lon="-3.607967">
        <ele>2434.0</ele>
        <time>2018-07-22T14:40:10Z</time>
      </trkpt>
      <trkpt lat="41.167700" lon="-3.607950">
        <ele>2436.0</ele>
        <time>2018-07-22T14:40:11Z</time>
      </trkpt>
      <trkpt lat="41.167750" lon="-3.607917">
        <ele>2437.0</ele>
        <time>2018-07-22T14:40:12Z</time>
      </trkpt>
      <trkpt lat="41.167833" lon="-3.607883">
        <ele>2438.0</ele>
        <time>2018-07-22T14:40:13Z</time>
      </trkpt>
      <trkpt lat="41.167900" lon="-3.607833">
        <ele>2440.0</ele>
        <time>2018-07-22T14:40:14Z</time>
      </trkpt>
      <trkpt lat="41.167967" lon="-3.607783">
        <ele>2442.0</ele>
        <time>2018-07-22T14:40:15Z</time>
      </trkpt>
      <trkpt lat="41.168033" lon="-3.607733">
        <ele>2444.0</ele>
        <time>2018-07-22T14:40:16Z</time>
      </trkpt>
      <trkpt lat="41.168100" lon="-3.607683">
        <ele>2444.0</ele>
        <time>2018-07-22T14:40:17Z</time>
      </trkpt>
      <trkpt lat="41.168183" lon="-3.607633">
        <ele>2445.0</ele>
        <time>2018-07-22T14:40:18Z</time>
      </trkpt>
      <trkpt lat="41.168250" lon="-3.607550">
        <ele>2445.0</ele>
        <time>2018-07-22T14:40:19Z</time>
      </trkpt>
      <trkpt lat="41.168333" lon="-3.607483">
        <ele>2446.0</ele>
        <time>2018-07-22T14:40:20Z</time>
      </trkpt>
      <trkpt lat="41.168400" lon="-3.607383">
        <ele>2447.0</ele>
        <time>2018-07-22T14:40:21Z</time>
      </trkpt>
      <trkpt lat="41.168483" lon="-3.607300">
        <ele>2450.0</ele>
        <time>2018-07-22T14:40:22Z</time>
      </trkpt>
      <trkpt lat="41.168533" lon="-3.607217">
        <ele>2453.0</ele>
        <time>2018-07-22T14:40:23Z</time>
      </trkpt>
      <trkpt lat="41.168600" lon="-3.607133">
        <ele>2456.0</ele>
        <time>2018-07-22T14:40:24Z</time>
      </trkpt>
      <trkpt lat="41.168650" lon="-3.607067">
        <ele>2457.0</ele>
        <time>2018-07-22T14:40:25Z</time>
      </trkpt>
      <trkpt lat="41.168700" lon="-3.607000">
        <ele>2458.0</ele>
        <time>2018-07-22T14:40:26Z</time>
      </trkpt>
      <trkpt lat="41.168767" lon="-3.606900">
        <ele>2459.0</ele>
        <time>2018-07-22T14:40:27Z</time>
      </trkpt>
      <trkpt lat="41.168800" lon="-3.606783">
        <ele>2459.0</ele>
        <time>2018-07-22T14:40:28Z</time>
      </trkpt>
      <trkpt lat="41.168817" lon="-3.606617">
        <ele>2457.0</ele>
        <time>2018-07-22T14:40:29Z</time>
      </trkpt>
      <trkpt lat="41.168800" lon="-3.606433">
        <ele>2457.0</ele>
        <time>2018-07-22T14:40:30Z</time>
      </trkpt>
      <trkpt lat="41.168750" lon="-3.606267">
        <ele>2457.0</ele>
        <time>2018-07-22T14:40:31Z</time>
      </trkpt>
      <trkpt lat="41.168650" lon="-3.606117">
        <ele>2458.0</ele>
        <time>2018-07-22T14:40:32Z</time>
      </trkpt>
      <trkpt lat="41.168567" lon="-3.606000">
        <ele>2460.0</ele>
        <time>2018-07-22T14:40:33Z</time>
      </trkpt>
      <trkpt lat="41.168450" lon="-3.605900">
        <ele>2460.0</ele>
        <time>2018-07-22T14:40:34Z</time>
      </trkpt>
      <trkpt lat="41.168333" lon="-3.605833">
        <ele>2460.0</ele>
        <time>2018-07-22T14:40:35Z</time>
      </trkpt>
      <trkpt lat="41.168217" lon="-3.605800">
        <ele>2459.0</ele>
        <time>2018-07-22T14:40:36Z</time>
      </trkpt>
      <trkpt lat="41.168083" lon="-3.605817">
        <ele>2459.0</ele>
        <time>2018-07-22T14:40:37Z</time>
      </trkpt>
      <trkpt lat="41.167983" lon="-3.605850">
        <ele>2459.0</ele>
        <time>2018-07-22T14:40:38Z</time>
      </trkpt>
      <trkpt lat="41.167883" lon="-3.605933">
        <ele>2459.0</ele>
        <time>2018-07-22T14:40:39Z</time>
      </trkpt>
      <trkpt lat="41.167817" lon="-3.606000">
        <ele>2460.0</ele>
        <time>2018-07-22T14:40:40Z</time>
      </trkpt>
      <trkpt lat="41.167750" lon="-3.606083">
        <ele>2461.0</ele>
        <time>2018-07-22T14:40:41Z</time>
      </trkpt>
      <trkpt lat="41.167717" lon="-3.606183">
        <ele>2461.0</ele>
        <time>2018-07-22T14:40:42Z</time>
      </trkpt>
      <trkpt lat="41.167683" lon="-3.606267">
        <ele>2462.0</ele>
        <time>2018-07-22T14:40:43Z</time>
      </trkpt>
      <trkpt lat="41.167667" lon="-3.606350">
        <ele>2463.0</ele>
        <time>2018-07-22T14:40:44Z</time>
      </trkpt>
      <trkpt lat="41.167683" lon="-3.606433">
        <ele>2464.0</ele>
        <time>2018-07-22T14:40:45Z</time>
      </trkpt>
      <trkpt lat="41.167700" lon="-3.606517">
        <ele>2466.0</ele>
        <time>2018-07-22T14:40:46Z</time>
      </trkpt>
      <trkpt lat="41.167733" lon="-3.606583">
        <ele>2468.0</ele>
        <time>2018-07-22T14:40:47Z</time>
      </trkpt>
      <trkpt lat="41.167767" lon="-3.606650">
        <ele>2471.0</ele>
        <time>2018-07-22T14:40:48Z</time>
      </trkpt>
      <trkpt lat="41.167800" lon="-3.606717">
        <ele>2474.0</ele>
        <time>2018-07-22T14:40:49Z</time>
      </trkpt>
      <trkpt lat="41.167817" lon="-3.606767">
        <ele>2476.0</ele>
        <time>2018-07-22T14:40:50Z</time>
      </trkpt>
      <trkpt lat="41.167833" lon="-3.606817">
        <ele>2477.0</ele>
        <time>2018-07-22T14:40:51Z</time>
      </trkpt>
      <trkpt lat="41.167867" lon="-3.606867">
        <ele>2478.0</ele>
        <time>2018-07-22T14:40:52Z</time>
      </trkpt>
      <trkpt lat="41.167900" lon="-3.606900">
        <ele>2477.0</ele>
        <time>2018-07-22T14:40:53Z</time>
      </trkpt>
      <trkpt lat="41.167950" lon="-3.606917">
        <ele>2477.0</ele>
        <time>2018-07-22T14:40:54Z</time>
      </trkpt>
      <trkpt lat="41.168017" lon="-3.606933">
        <ele>2477.0</ele>
        <time>2018-07-22T14:40:55Z</time>
      </trkpt>
      <trkpt lat="41.168100" lon="-3.606933">
        <ele>2478.0</ele>
        <time>2018-07-22T14:40:56Z</time>
      </trkpt>
      <trkpt lat="41.168183" lon="-3.606900">
        <ele>2479.0</ele>
        <time>2018-07-22T14:40:57Z</time>
      </trkpt>
      <trkpt lat="41.168250" lon="-3.606883">
        <ele>2480.0</ele>
        <time>2018-07-22T14:40:58Z</time>
      </trkpt>
      <trkpt lat="41.168317" lon="-3.606867">
        <ele>2481.0</ele>
        <time>2018-07-22T14:40:59Z</time>
      </trkpt>
      <trkpt lat="41.168400" lon="-3.606850">
        <ele>2481.0</ele>
        <time>2018-07-22T14:41:00Z</time>
      </trkpt>
      <trkpt lat="41.168467" lon="-3.606833">
        <ele>2481.0</ele>
        <time>2018-07-22T14:41:01Z</time>
      </trkpt>
      <trkpt lat="41.168550" lon="-3.606817">
        <ele>2481.0</ele>
        <time>2018-07-22T14:41:02Z</time>
      </trkpt>
      <trkpt lat="41.168633" lon="-3.606783">
        <ele>2481.0</ele>
        <time>2018-07-22T14:41:03Z</time>
      </trkpt>
      <trkpt lat="41.168717" lon="-3.606733">
        <ele>2482.0</ele>
        <time>2018-07-22T14:41:04Z</time>
      </trkpt>
      <trkpt lat="41.168800" lon="-3.606667">
        <ele>2483.0</ele>
        <time>2018-07-22T14:41:05Z</time>
      </trkpt>
      <trkpt lat="41.168883" lon="-3.606600">
        <ele>2484.0</ele>
        <time>2018-07-22T14:41:06Z</time>
      </trkpt>
      <trkpt lat="41.168967" lon="-3.606533">
        <ele>2487.0</ele>
        <time>2018-07-22T14:41:07Z</time>
      </trkpt>
      <trkpt lat="41.169033" lon="-3.606450">
        <ele>2490.0</ele>
        <time>2018-07-22T14:41:08Z</time>
      </trkpt>
      <trkpt lat="41.169083" lon="-3.606383">
        <ele>2494.0</ele>
        <time>2018-07-22T14:41:09Z</time>
      </trkpt>
      <trkpt lat="41.169133" lon="-3.606317">
        <ele>2496.0</ele>
        <time>2018-07-22T14:41:10Z</time>
      </trkpt>
      <trkpt lat="41.169167" lon="-3.606250">
        <ele>2497.0</ele>
        <time>2018-07-22T14:41:11Z</time>
      </trkpt>
      <trkpt lat="41.169217" lon="-3.606183">
        <ele>2498.0</ele>
        <time>2018-07-22T14:41:12Z</time>
      </trkpt>
      <trkpt lat="41.169267" lon="-3.606117">
        <ele>2498.0</ele>
        <time>2018-07-22T14:41:13Z</time>
      </trkpt>
      <trkpt lat="41.169317" lon="-3.606033">
        <ele>2498.0</ele>
        <time>2018-07-22T14:41:14Z</time>
      </trkpt>
      <trkpt lat="41.169383" lon="-3.605933">
        <ele>2499.0</ele>
        <time>2018-07-22T14:41:15Z</time>
      </trkpt>
      <trkpt lat="41.169433" lon="-3.605833">
        <ele>2500.0</ele>
        <time>2018-07-22T14:41:16Z</time>
      </trkpt>
      <trkpt lat="41.169483" lon="-3.605767">
        <ele>2501.0</ele>
        <time>2018-07-22T14:41:17Z</time>
      </trkpt>
      <trkpt lat="41.169533" lon="-3.605700">
        <ele>2503.0</ele>
        <time>2018-07-22T14:41:18Z</time>
      </trkpt>
      <trkpt lat="41.169583" lon="-3.605633">
        <ele>2504.0</ele>
        <time>2018-07-22T14:41:19Z</time>
      </trkpt>
      <trkpt lat="41.169633" lon="-3.605583">
        <ele>2504.0</ele>
        <time>2018-07-22T14:41:20Z</time>
      </trkpt>
      <trkpt lat="41.169700" lon="-3.605550">
        <ele>2505.0</ele>
        <time>2018-07-22T14:41:21Z</time>
      </trkpt>
      <trkpt lat="41.169783" lon="-3.605517">
        <ele>2506.0</ele>
        <time>2018-07-22T14:41:22Z</time>
      </trkpt>
      <trkpt lat="41.169867" lon="-3.605483">
        <ele>2508.0</ele>
        <time>2018-07-22T14:41:23Z</time>
      </trkpt>
      <trkpt lat="41.169950" lon="-3.605450">
        <ele>2510.0</ele>
        <time>2018-07-22T14:41:24Z</time>
      </trkpt>
      <trkpt lat="41.170017" lon="-3.605400">
        <ele>2514.0</ele>
        <time>2018-07-22T14:41:25Z</time>
      </trkpt>
      <trkpt lat="41.170083" lon="-3.605333">
        <ele>2517.0</ele>
        <time>2018-07-22T14:41:26Z</time>
      </trkpt>
      <trkpt lat="41.170167" lon="-3.605267">
        <ele>2519.0</ele>
        <time>2018-07-22T14:41:27Z</time>
      </trkpt>
      <trkpt lat="41.170233" lon="-3.605217">
        <ele>2519.0</ele>
        <time>2018-07-22T14:41:28Z</time>
      </trkpt>
      <trkpt lat="41.170317" lon="-3.605150">
        <ele>2518.0</ele>
        <time>2018-07-22T14:41:29Z</time>
      </trkpt>
      <trkpt lat="41.170400" lon="-3.605100">
        <ele>2518.0</ele>
        <time>2018-07-22T14:41:30Z</time>
      </trkpt>
      <trkpt lat="41.170483" lon="-3.605033">
        <ele>2517.0</ele>
        <time>2018-07-22T14:41:31Z</time>
      </trkpt>
      <trkpt lat="41.170567" lon="-3.604933">
        <ele>2517.0</ele>
        <time>2018-07-22T14:41:32Z</time>
      </trkpt>
      <trkpt lat="41.170633" lon="-3.604817">
        <ele>2518.0</ele>
        <time>2018-07-22T14:41:33Z</time>
      </trkpt>
      <trkpt lat="41.170700" lon="-3.604700">
        <ele>2519.0</ele>
        <time>2018-07-22T14:41:34Z</time>
      </trkpt>
      <trkpt lat="41.170767" lon="-3.604617">
        <ele>2518.0</ele>
        <time>2018-07-22T14:41:35Z</time>
      </trkpt>
      <trkpt lat="41.170833" lon="-3.604533">
        <ele>2517.0</ele>
        <time>2018-07-22T14:41:36Z</time>
      </trkpt>
      <trkpt lat="41.170900" lon="-3.604467">
        <ele>2514.0</ele>
        <time>2018-07-22T14:41:37Z</time>
      </trkpt>
      <trkpt lat="41.170983" lon="-3.604400">
        <ele>2512.0</ele>
        <time>2018-07-22T14:41:38Z</time>
      </trkpt>
      <trkpt lat="41.171067" lon="-3.604350">
        <ele>2511.0</ele>
        <time>2018-07-22T14:41:39Z</time>
      </trkpt>
      <trkpt lat="41.171167" lon="-3.604283">
        <ele>2510.0</ele>
        <time>2018-07-22T14:41:40Z</time>
      </trkpt>
      <trkpt lat="41.171267" lon="-3.604233">
        <ele>2510.0</ele>
        <time>2018-07-22T14:41:41Z</time>
      </trkpt>
      <trkpt lat="41.171367" lon="-3.604167">
        <ele>2510.0</ele>
        <time>2018-07-22T14:41:42Z</time>
      </trkpt>
      <trkpt lat="41.171450" lon="-3.604083">
        <ele>2512.0</ele>
        <time>2018-07-22T14:41:43Z</time>
      </trkpt>
      <trkpt lat="41.171550" lon="-3.604000">
        <ele>2513.0</ele>
        <time>2018-07-22T14:41:44Z</time>
      </trkpt>
      <trkpt lat="41.171617" lon="-3.603917">
        <ele>2516.0</ele>
        <time>2018-07-22T14:41:45Z</time>
      </trkpt>
      <trkpt lat="41.171683" lon="-3.603833">
        <ele>2517.0</ele>
        <time>2018-07-22T14:41:46Z</time>
      </trkpt>
      <trkpt lat="41.171750" lon="-3.603767">
        <ele>2517.0</ele>
        <time>2018-07-22T14:41:47Z</time>
      </trkpt>
      <trkpt lat="41.171833" lon="-3.603683">
        <ele>2517.0</ele>
        <time>2018-07-22T14:41:48Z</time>
      </trkpt>
      <trkpt lat="41.171917" lon="-3.603600">
        <ele>2516.0</ele>
        <time>2018-07-22T14:41:49Z</time>
      </trkpt>
      <trkpt lat="41.172000" lon="-3.603517">
        <ele>2515.0</ele>
        <time>2018-07-22T14:41:50Z</time>
      </trkpt>
      <trkpt lat="41.172083" lon="-3.603417">
        <ele>2515.0</ele>
        <time>2018-07-22T14:41:51Z</time>
      </trkpt>
      <trkpt lat="41.172183" lon="-3.603317">
        <ele>2516.0</ele>
        <time>2018-07-22T14:41:52Z</time>
      </trkpt>
      <trkpt lat="41.172267" lon="-3.603233">
        <ele>2517.0</ele>
        <time>2018-07-22T14:41:53Z</time>
      </trkpt>
      <trkpt lat="41.172350" lon="-3.603167">
        <ele>2519.0</ele>
        <time>2018-07-22T14:41:54Z</time>
      </trkpt>
      <trkpt lat="41.172450" lon="-3.603083">
        <ele>2520.0</ele>
        <time>2018-07-22T14:41:55Z</time>
      </trkpt>
      <trkpt lat="41.172533" lon="-3.603000">
        <ele>2521.0</ele>
        <time>2018-07-22T14:41:56Z</time>
      </trkpt>
      <trkpt lat="41.172617" lon="-3.602917">
        <ele>2522.0</ele>
        <time>2018-07-22T14:41:57Z</time>
      </trkpt>
      <trkpt lat="41.172700" lon="-3.602833">
        <ele>2523.0</ele>
        <time>2018-07-22T14:41:58Z</time>
      </trkpt>
      <trkpt lat="41.172783" lon="-3.602767">
        <ele>2524.0</ele>
        <time>2018-07-22T14:41:59Z</time>
      </trkpt>
      <trkpt lat="41.172867" lon="-3.602700">
        <ele>2525.0</ele>
        <time>2018-07-22T14:42:00Z</time>
      </trkpt>
      <trkpt lat="41.172950" lon="-3.602633">
        <ele>2525.0</ele>
        <time>2018-07-22T14:42:01Z</time>
      </trkpt>
      <trkpt lat="41.173050" lon="-3.602567">
        <ele>2525.0</ele>
        <time>2018-07-22T14:42:02Z</time>
      </trkpt>
      <trkpt lat="41.173150" lon="-3.602500">
        <ele>2526.0</ele>
        <time>2018-07-22T14:42:03Z</time>
      </trkpt>
      <trkpt lat="41.173233" lon="-3.602433">
        <ele>2526.0</ele>
        <time>2018-07-22T14:42:04Z</time>
      </trkpt>
      <trkpt lat="41.173333" lon="-3.602350">
        <ele>2527.0</ele>
        <time>2018-07-22T14:42:05Z</time>
      </trkpt>
      <trkpt lat="41.173433" lon="-3.602267">
        <ele>2526.0</ele>
        <time>2018-07-22T14:42:06Z</time>
      </trkpt>
      <trkpt lat="41.173517" lon="-3.602167">
        <ele>2526.0</ele>
        <time>2018-07-22T14:42:07Z</time>
      </trkpt>
      <trkpt lat="41.173600" lon="-3.602067">
        <ele>2526.0</ele>
        <time>2018-07-22T14:42:08Z</time>
      </trkpt>
      <trkpt lat="41.173650" lon="-3.601967">
        <ele>2527.0</ele>
        <time>2018-07-22T14:42:09Z</time>
      </trkpt>
      <trkpt lat="41.173717" lon="-3.601850">
        <ele>2526.0</ele>
        <time>2018-07-22T14:42:10Z</time>
      </trkpt>
      <trkpt lat="41.173783" lon="-3.601733">
        <ele>2525.0</ele>
        <time>2018-07-22T14:42:11Z</time>
      </trkpt>
      <trkpt lat="41.173850" lon="-3.601633">
        <ele>2523.0</ele>
        <time>2018-07-22T14:42:12Z</time>
      </trkpt>
      <trkpt lat="41.173917" lon="-3.601533">
        <ele>2522.0</ele>
        <time>2018-07-22T14:42:13Z</time>
      </trkpt>
      <trkpt lat="41.173983" lon="-3.601450">
        <ele>2520.0</ele>
        <time>2018-07-22T14:42:14Z</time>
      </trkpt>
      <trkpt lat="41.174050" lon="-3.601367">
        <ele>2518.0</ele>
        <time>2018-07-22T14:42:15Z</time>
      </trkpt>
      <trkpt lat="41.174133" lon="-3.601300">
        <ele>2515.0</ele>
        <time>2018-07-22T14:42:16Z</time>
      </trkpt>
      <trkpt lat="41.174217" lon="-3.601233">
        <ele>2512.0</ele>
        <time>2018-07-22T14:42:17Z</time>
      </trkpt>
      <trkpt lat="41.174300" lon="-3.601167">
        <ele>2510.0</ele>
        <time>2018-07-22T14:42:18Z</time>
      </trkpt>
      <trkpt lat="41.174383" lon="-3.601100">
        <ele>2510.0</ele>
        <time>2018-07-22T14:42:19Z</time>
      </trkpt>
      <trkpt lat="41.174467" lon="-3.601017">
        <ele>2510.0</ele>
        <time>2018-07-22T14:42:20Z</time>
      </trkpt>
      <trkpt lat="41.174550" lon="-3.600967">
        <ele>2510.0</ele>
        <time>2018-07-22T14:42:21Z</time>
      </trkpt>
      <trkpt lat="41.174617" lon="-3.600900">
        <ele>2509.0</ele>
        <time>2018-07-22T14:42:22Z</time>
      </trkpt>
      <trkpt lat="41.174717" lon="-3.600867">
        <ele>2508.0</ele>
        <time>2018-07-22T14:42:23Z</time>
      </trkpt>
      <trkpt lat="41.174800" lon="-3.600800">
        <ele>2508.0</ele>
        <time>2018-07-22T14:42:24Z</time>
      </trkpt>
      <trkpt lat="41.174900" lon="-3.600733">
        <ele>2508.0</ele>
        <time>2018-07-22T14:42:25Z</time>
      </trkpt>
      <trkpt lat="41.174983" lon="-3.600650">
        <ele>2510.0</ele>
        <time>2018-07-22T14:42:26Z</time>
      </trkpt>
      <trkpt lat="41.175067" lon="-3.600583">
        <ele>2512.0</ele>
        <time>2018-07-22T14:42:27Z</time>
      </trkpt>
      <trkpt lat="41.175167" lon="-3.600517">
        <ele>2514.0</ele>
        <time>2018-07-22T14:42:28Z</time>
      </trkpt>
      <trkpt lat="41.175267" lon="-3.600467">
        <ele>2515.0</ele>
        <time>2018-07-22T14:42:29Z</time>
      </trkpt>
      <trkpt lat="41.175367" lon="-3.600433">
        <ele>2516.0</ele>
        <time>2018-07-22T14:42:30Z</time>
      </trkpt>
      <trkpt lat="41.175467" lon="-3.600383">
        <ele>2518.0</ele>
        <time>2018-07-22T14:42:31Z</time>
      </trkpt>
      <trkpt lat="41.175550" lon="-3.600317">
        <ele>2520.0</ele>
        <time>2018-07-22T14:42:32Z</time>
      </trkpt>
      <trkpt lat="41.175650" lon="-3.600250">
        <ele>2522.0</ele>
        <time>2018-07-22T14:42:33Z</time>
      </trkpt>
      <trkpt lat="41.175750" lon="-3.600200">
        <ele>2524.0</ele>
        <time>2018-07-22T14:42:34Z</time>
      </trkpt>
      <trkpt lat="41.175833" lon="-3.600167">
        <ele>2526.0</ele>
        <time>2018-07-22T14:42:35Z</time>
      </trkpt>
      <trkpt lat="41.175917" lon="-3.600100">
        <ele>2527.0</ele>
        <time>2018-07-22T14:42:36Z</time>
      </trkpt>
      <trkpt lat="41.176000" lon="-3.600050">
        <ele>2528.0</ele>
        <time>2018-07-22T14:42:37Z</time>
      </trkpt>
      <trkpt lat="41.176083" lon="-3.599983">
        <ele>2529.0</ele>
        <time>2018-07-22T14:42:38Z</time>
      </trkpt>
      <trkpt lat="41.176167" lon="-3.599933">
        <ele>2529.0</ele>
        <time>2018-07-22T14:42:39Z</time>
      </trkpt>
      <trkpt lat="41.176250" lon="-3.599900">
        <ele>2529.0</ele>
        <time>2018-07-22T14:42:40Z</time>
      </trkpt>
      <trkpt lat="41.176350" lon="-3.599883">
        <ele>2530.0</ele>
        <time>2018-07-22T14:42:41Z</time>
      </trkpt>
      <trkpt lat="41.176433" lon="-3.599833">
        <ele>2531.0</ele>
        <time>2018-07-22T14:42:42Z</time>
      </trkpt>
      <trkpt lat="41.176517" lon="-3.599783">
        <ele>2533.0</ele>
        <time>2018-07-22T14:42:43Z</time>
      </trkpt>
      <trkpt lat="41.176600" lon="-3.599733">
        <ele>2535.0</ele>
        <time>2018-07-22T14:42:44Z</time>
      </trkpt>
      <trkpt lat="41.176667" lon="-3.599667">
        <ele>2537.0</ele>
        <time>2018-07-22T14:42:45Z</time>
      </trkpt>
      <trkpt lat="41.176733" lon="-3.599617">
        <ele>2537.0</ele>
        <time>2018-07-22T14:42:46Z</time>
      </trkpt>
      <trkpt lat="41.176800" lon="-3.599583">
        <ele>2537.0</ele>
        <time>2018-07-22T14:42:47Z</time>
      </trkpt>
      <trkpt lat="41.176883" lon="-3.599550">
        <ele>2536.0</ele>
        <time>2018-07-22T14:42:48Z</time>
      </trkpt>
      <trkpt lat="41.176983" lon="-3.599517">
        <ele>2535.0</ele>
        <time>2018-07-22T14:42:49Z</time>
      </trkpt>
      <trkpt lat="41.177067" lon="-3.599483">
        <ele>2536.0</ele>
        <time>2018-07-22T14:42:50Z</time>
      </trkpt>
      <trkpt lat="41.177150" lon="-3.599433">
        <ele>2538.0</ele>
        <time>2018-07-22T14:42:51Z</time>
      </trkpt>
      <trkpt lat="41.177233" lon="-3.599400">
        <ele>2541.0</ele>
        <time>2018-07-22T14:42:52Z</time>
      </trkpt>
      <trkpt lat="41.177300" lon="-3.599350">
        <ele>2543.0</ele>
        <time>2018-07-22T14:42:53Z</time>
      </trkpt>
      <trkpt lat="41.177367" lon="-3.599300">
        <ele>2545.0</ele>
        <time>2018-07-22T14:42:54Z</time>
      </trkpt>
      <trkpt lat="41.177450" lon="-3.599267">
        <ele>2547.0</ele>
        <time>2018-07-22T14:42:55Z</time>
      </trkpt>
      <trkpt lat="41.177533" lon="-3.599217">
        <ele>2549.0</ele>
        <time>2018-07-22T14:42:56Z</time>
      </trkpt>
      <trkpt lat="41.177617" lon="-3.599217">
        <ele>2551.0</ele>
        <time>2018-07-22T14:42:57Z</time>
      </trkpt>
      <trkpt lat="41.177683" lon="-3.599200">
        <ele>2553.0</ele>
        <time>2018-07-22T14:42:58Z</time>
      </trkpt>
      <trkpt lat="41.177767" lon="-3.599183">
        <ele>2556.0</ele>
        <time>2018-07-22T14:42:59Z</time>
      </trkpt>
      <trkpt lat="41.177833" lon="-3.599167">
        <ele>2558.0</ele>
        <time>2018-07-22T14:43:00Z</time>
      </trkpt>
      <trkpt lat="41.177917" lon="-3.599133">
        <ele>2560.0</ele>
        <time>2018-07-22T14:43:01Z</time>
      </trkpt>
      <trkpt lat="41.177983" lon="-3.599100">
        <ele>2561.0</ele>
        <time>2018-07-22T14:43:02Z</time>
      </trkpt>
      <trkpt lat="41.178067" lon="-3.599067">
        <ele>2561.0</ele>
        <time>2018-07-22T14:43:03Z</time>
      </trkpt>
      <trkpt lat="41.178150" lon="-3.599050">
        <ele>2562.0</ele>
        <time>2018-07-22T14:43:04Z</time>
      </trkpt>
      <trkpt lat="41.178233" lon="-3.599017">
        <ele>2562.0</ele>
        <time>2018-07-22T14:43:05Z</time>
      </trkpt>
      <trkpt lat="41.178317" lon="-3.598983">
        <ele>2562.0</ele>
        <time>2018-07-22T14:43:06Z</time>
      </trkpt>
      <trkpt lat="41.178400" lon="-3.598950">
        <ele>2562.0</ele>
        <time>2018-07-22T14:43:07Z</time>
      </trkpt>
      <trkpt lat="41.178483" lon="-3.598900">
        <ele>2562.0</ele>
        <time>2018-07-22T14:43:08Z</time>
      </trkpt>
      <trkpt lat="41.178583" lon="-3.598850">
        <ele>2562.0</ele>
        <time>2018-07-22T14:43:09Z</time>
      </trkpt>
      <trkpt lat="41.178667" lon="-3.598817">
        <ele>2563.0</ele>
        <time>2018-07-22T14:43:10Z</time>
      </trkpt>
      <trkpt lat="41.178750" lon="-3.598767">
        <ele>2565.0</ele>
        <time>2018-07-22T14:43:11Z</time>
      </trkpt>
      <trkpt lat="41.178833" lon="-3.598733">
        <ele>2565.0</ele>
        <time>2018-07-22T14:43:12Z</time>
      </trkpt>
      <trkpt lat="41.178933" lon="-3.598700">
        <ele>2564.0</ele>
        <time>2018-07-22T14:43:13Z</time>
      </trkpt>
      <trkpt lat="41.179033" lon="-3.598650">
        <ele>2563.0</ele>
        <time>2018-07-22T14:43:14Z</time>
      </trkpt>
      <trkpt lat="41.179133" lon="-3.598600">
        <ele>2562.0</ele>
        <time>2018-07-22T14:43:15Z</time>
      </trkpt>
      <trkpt lat="41.179250" lon="-3.598533">
        <ele>2562.0</ele>
        <time>2018-07-22T14:43:16Z</time>
      </trkpt>
      <trkpt lat="41.179333" lon="-3.598467">
        <ele>2563.0</ele>
        <time>2018-07-22T14:43:17Z</time>
      </trkpt>
      <trkpt lat="41.179433" lon="-3.598417">
        <ele>2562.0</ele>
        <time>2018-07-22T14:43:18Z</time>
      </trkpt>
      <trkpt lat="41.179533" lon="-3.598383">
        <ele>2562.0</ele>
        <time>2018-07-22T14:43:19Z</time>
      </trkpt>
      <trkpt lat="41.179617" lon="-3.598333">
        <ele>2561.0</ele>
        <time>2018-07-22T14:43:20Z</time>
      </trkpt>
      <trkpt lat="41.179717" lon="-3.598283">
        <ele>2560.0</ele>
        <time>2018-07-22T14:43:21Z</time>
      </trkpt>
      <trkpt lat="41.179817" lon="-3.598217">
        <ele>2559.0</ele>
        <time>2018-07-22T14:43:22Z</time>
      </trkpt>
      <trkpt lat="41.179917" lon="-3.598167">
        <ele>2559.0</ele>
        <time>2018-07-22T14:43:23Z</time>
      </trkpt>
      <trkpt lat="41.180017" lon="-3.598117">
        <ele>2559.0</ele>
        <time>2018-07-22T14:43:24Z</time>
      </trkpt>
      <trkpt lat="41.180133" lon="-3.598067">
        <ele>2559.0</ele>
        <time>2018-07-22T14:43:25Z</time>
      </trkpt>
      <trkpt lat="41.180233" lon="-3.598017">
        <ele>2561.0</ele>
        <time>2018-07-22T14:43:26Z</time>
      </trkpt>
      <trkpt lat="41.180317" lon="-3.597983">
        <ele>2564.0</ele>
        <time>2018-07-22T14:43:27Z</time>
      </trkpt>
      <trkpt lat="41.180400" lon="-3.597933">
        <ele>2567.0</ele>
        <time>2018-07-22T14:43:28Z</time>
      </trkpt>
      <trkpt lat="41.180483" lon="-3.597900">
        <ele>2570.0</ele>
        <time>2018-07-22T14:43:29Z</time>
      </trkpt>
      <trkpt lat="41.180567" lon="-3.597867">
        <ele>2572.0</ele>
        <time>2018-07-22T14:43:30Z</time>
      </trkpt>
      <trkpt lat="41.180667" lon="-3.597833">
        <ele>2573.0</ele>
        <time>2018-07-22T14:43:31Z</time>
      </trkpt>
      <trkpt lat="41.180750" lon="-3.597800">
        <ele>2575.0</ele>
        <time>2018-07-22T14:43:32Z</time>
      </trkpt>
      <trkpt lat="41.180833" lon="-3.597767">
        <ele>2576.0</ele>
        <time>2018-07-22T14:43:33Z</time>
      </trkpt>
      <trkpt lat="41.180917" lon="-3.597733">
        <ele>2578.0</ele>
        <time>2018-07-22T14:43:34Z</time>
      </trkpt>
      <trkpt lat="41.181000" lon="-3.597700">
        <ele>2579.0</ele>
        <time>2018-07-22T14:43:35Z</time>
      </trkpt>
      <trkpt lat="41.181083" lon="-3.597667">
        <ele>2580.0</ele>
        <time>2018-07-22T14:43:36Z</time>
      </trkpt>
      <trkpt lat="41.181167" lon="-3.597617">
        <ele>2579.0</ele>
        <time>2018-07-22T14:43:37Z</time>
      </trkpt>
      <trkpt lat="41.181267" lon="-3.597583">
        <ele>2579.0</ele>
        <time>2018-07-22T14:43:38Z</time>
      </trkpt>
      <trkpt lat="41.181350" lon="-3.597533">
        <ele>2578.0</ele>
        <time>2018-07-22T14:43:39Z</time>
      </trkpt>
      <trkpt lat="41.181433" lon="-3.597467">
        <ele>2576.0</ele>
        <time>2018-07-22T14:43:40Z</time>
      </trkpt>
      <trkpt lat="41.181533" lon="-3.597417">
        <ele>2575.0</ele>
        <time>2018-07-22T14:43:41Z</time>
      </trkpt>
      <trkpt lat="41.181633" lon="-3.597350">
        <ele>2573.0</ele>
        <time>2018-07-22T14:43:42Z</time>
      </trkpt>
      <trkpt lat="41.181733" lon="-3.597300">
        <ele>2572.0</ele>
        <time>2018-07-22T14:43:43Z</time>
      </trkpt>
      <trkpt lat="41.181833" lon="-3.597233">
        <ele>2572.0</ele>
        <time>2018-07-22T14:43:44Z</time>
      </trkpt>
      <trkpt lat="41.181933" lon="-3.597167">
        <ele>2572.0</ele>
        <time>2018-07-22T14:43:45Z</time>
      </trkpt>
      <trkpt lat="41.182033" lon="-3.597100">
        <ele>2572.0</ele>
        <time>2018-07-22T14:43:46Z</time>
      </trkpt>
      <trkpt lat="41.182133" lon="-3.597033">
        <ele>2572.0</ele>
        <time>2018-07-22T14:43:47Z</time>
      </trkpt>
      <trkpt lat="41.182233" lon="-3.596967">
        <ele>2572.0</ele>
        <time>2018-07-22T14:43:48Z</time>
      </trkpt>
      <trkpt lat="41.182350" lon="-3.596900">
        <ele>2571.0</ele>
        <time>2018-07-22T14:43:49Z</time>
      </trkpt>
      <trkpt lat="41.182450" lon="-3.596833">
        <ele>2571.0</ele>
        <time>2018-07-22T14:43:50Z</time>
      </trkpt>
      <trkpt lat="41.182550" lon="-3.596750">
        <ele>2571.0</ele>
        <time>2018-07-22T14:43:51Z</time>
      </trkpt>
      <trkpt lat="41.182650" lon="-3.596667">
        <ele>2572.0</ele>
        <time>2018-07-22T14:43:52Z</time>
      </trkpt>
      <trkpt lat="41.182733" lon="-3.596600">
        <ele>2572.0</ele>
        <time>2018-07-22T14:43:53Z</time>
      </trkpt>
      <trkpt lat="41.182817" lon="-3.596533">
        <ele>2572.0</ele>
        <time>2018-07-22T14:43:54Z</time>
      </trkpt>
      <trkpt lat="41.182917" lon="-3.596433">
        <ele>2572.0</ele>
        <time>2018-07-22T14:43:55Z</time>
      </trkpt>
      <trkpt lat="41.183017" lon="-3.596333">
        <ele>2572.0</ele>
        <time>2018-07-22T14:43:56Z</time>
      </trkpt>
      <trkpt lat="41.183117" lon="-3.596217">
        <ele>2571.0</ele>
        <time>2018-07-22T14:43:57Z</time>
      </trkpt>
      <trkpt lat="41.183217" lon="-3.596117">
        <ele>2572.0</ele>
        <time>2018-07-22T14:43:58Z</time>
      </trkpt>
      <trkpt lat="41.183300" lon="-3.596017">
        <ele>2571.0</ele>
        <time>2018-07-22T14:43:59Z</time>
      </trkpt>
      <trkpt lat="41.183383" lon="-3.595950">
        <ele>2569.0</ele>
        <time>2018-07-22T14:44:00Z</time>
      </trkpt>
      <trkpt lat="41.183467" lon="-3.595883">
        <ele>2565.0</ele>
        <time>2018-07-22T14:44:01Z</time>
      </trkpt>
      <trkpt lat="41.183550" lon="-3.595800">
        <ele>2561.0</ele>
        <time>2018-07-22T14:44:02Z</time>
      </trkpt>
      <trkpt lat="41.183633" lon="-3.595717">
        <ele>2557.0</ele>
        <time>2018-07-22T14:44:03Z</time>
      </trkpt>
      <trkpt lat="41.183733" lon="-3.595633">
        <ele>2553.0</ele>
        <time>2018-07-22T14:44:04Z</time>
      </trkpt>
      <trkpt lat="41.183817" lon="-3.595567">
        <ele>2549.0</ele>
        <time>2018-07-22T14:44:05Z</time>
      </trkpt>
      <trkpt lat="41.183917" lon="-3.595517">
        <ele>2546.0</ele>
        <time>2018-07-22T14:44:06Z</time>
      </trkpt>
      <trkpt lat="41.184000" lon="-3.595483">
        <ele>2542.0</ele>
        <time>2018-07-22T14:44:07Z</time>
      </trkpt>
      <trkpt lat="41.184083" lon="-3.595417">
        <ele>2538.0</ele>
        <time>2018-07-22T14:44:08Z</time>
      </trkpt>
      <trkpt lat="41.184183" lon="-3.595367">
        <ele>2534.0</ele>
        <time>2018-07-22T14:44:09Z</time>
      </trkpt>
      <trkpt lat="41.184283" lon="-3.595300">
        <ele>2530.0</ele>
        <time>2018-07-22T14:44:10Z</time>
      </trkpt>
      <trkpt lat="41.184367" lon="-3.595267">
        <ele>2527.0</ele>
        <time>2018-07-22T14:44:11Z</time>
      </trkpt>
      <trkpt lat="41.184450" lon="-3.595267">
        <ele>2526.0</ele>
        <time>2018-07-22T14:44:12Z</time>
      </trkpt>
      <trkpt lat="41.184517" lon="-3.595250">
        <ele>2525.0</ele>
        <time>2018-07-22T14:44:13Z</time>
      </trkpt>
      <trkpt lat="41.184583" lon="-3.595250">
        <ele>2524.0</ele>
        <time>2018-07-22T14:44:14Z</time>
      </trkpt>
      <trkpt lat="41.184650" lon="-3.595250">
        <ele>2523.0</ele>
        <time>2018-07-22T14:44:15Z</time>
      </trkpt>
      <trkpt lat="41.184733" lon="-3.595250">
        <ele>2522.0</ele>
        <time>2018-07-22T14:44:16Z</time>
      </trkpt>
      <trkpt lat="41.184817" lon="-3.595250">
        <ele>2522.0</ele>
        <time>2018-07-22T14:44:17Z</time>
      </trkpt>
      <trkpt lat="41.184917" lon="-3.595233">
        <ele>2522.0</ele>
        <time>2018-07-22T14:44:18Z</time>
      </trkpt>
      <trkpt lat="41.185000" lon="-3.595200">
        <ele>2524.0</ele>
        <time>2018-07-22T14:44:19Z</time>
      </trkpt>
      <trkpt lat="41.185067" lon="-3.595150">
        <ele>2524.0</ele>
        <time>2018-07-22T14:44:20Z</time>
      </trkpt>
      <trkpt lat="41.185133" lon="-3.595083">
        <ele>2524.0</ele>
        <time>2018-07-22T14:44:21Z</time>
      </trkpt>
      <trkpt lat="41.185183" lon="-3.595017">
        <ele>2523.0</ele>
        <time>2018-07-22T14:44:22Z</time>
      </trkpt>
      <trkpt lat="41.185250" lon="-3.594950">
        <ele>2521.0</ele>
        <time>2018-07-22T14:44:23Z</time>
      </trkpt>
      <trkpt lat="41.185333" lon="-3.594850">
        <ele>2519.0</ele>
        <time>2018-07-22T14:44:24Z</time>
      </trkpt>
      <trkpt lat="41.185417" lon="-3.594767">
        <ele>2516.0</ele>
        <time>2018-07-22T14:44:25Z</time>
      </trkpt>
      <trkpt lat="41.185500" lon="-3.594667">
        <ele>2514.0</ele>
        <time>2018-07-22T14:44:26Z</time>
      </trkpt>
      <trkpt lat="41.185583" lon="-3.594583">
        <ele>2513.0</ele>
        <time>2018-07-22T14:44:27Z</time>
      </trkpt>
      <trkpt lat="41.185683" lon="-3.594500">
        <ele>2513.0</ele>
        <time>2018-07-22T14:44:28Z</time>
      </trkpt>
      <trkpt lat="41.185767" lon="-3.594400">
        <ele>2513.0</ele>
        <time>2018-07-22T14:44:29Z</time>
      </trkpt>
      <trkpt lat="41.185850" lon="-3.594300">
        <ele>2512.0</ele>
        <time>2018-07-22T14:44:30Z</time>
      </trkpt>
      <trkpt lat="41.185933" lon="-3.594217">
        <ele>2511.0</ele>
        <time>2018-07-22T14:44:31Z</time>
      </trkpt>
      <trkpt lat="41.186017" lon="-3.594133">
        <ele>2511.0</ele>
        <time>2018-07-22T14:44:32Z</time>
      </trkpt>
      <trkpt lat="41.186117" lon="-3.594033">
        <ele>2511.0</ele>
        <time>2018-07-22T14:44:33Z</time>
      </trkpt>
      <trkpt lat="41.186217" lon="-3.593950">
        <ele>2511.0</ele>
        <time>2018-07-22T14:44:34Z</time>
      </trkpt>
      <trkpt lat="41.186317" lon="-3.593833">
        <ele>2511.0</ele>
        <time>2018-07-22T14:44:35Z</time>
      </trkpt>
      <trkpt lat="41.186417" lon="-3.593733">
        <ele>2512.0</ele>
        <time>2018-07-22T14:44:36Z</time>
      </trkpt>
      <trkpt lat="41.186500" lon="-3.593650">
        <ele>2512.0</ele>
        <time>2018-07-22T14:44:37Z</time>
      </trkpt>
      <trkpt lat="41.186600" lon="-3.593550">
        <ele>2513.0</ele>
        <time>2018-07-22T14:44:38Z</time>
      </trkpt>
      <trkpt lat="41.186683" lon="-3.593450">
        <ele>2512.0</ele>
        <time>2018-07-22T14:44:39Z</time>
      </trkpt>
      <trkpt lat="41.186767" lon="-3.593350">
        <ele>2512.0</ele>
        <time>2018-07-22T14:44:40Z</time>
      </trkpt>
      <trkpt lat="41.186850" lon="-3.593233">
        <ele>2510.0</ele>
        <time>2018-07-22T14:44:41Z</time>
      </trkpt>
      <trkpt lat="41.186933" lon="-3.593133">
        <ele>2508.0</ele>
        <time>2018-07-22T14:44:42Z</time>
      </trkpt>
      <trkpt lat="41.187033" lon="-3.593017">
        <ele>2505.0</ele>
        <time>2018-07-22T14:44:43Z</time>
      </trkpt>
      <trkpt lat="41.187117" lon="-3.592917">
        <ele>2502.0</ele>
        <time>2018-07-22T14:44:44Z</time>
      </trkpt>
      <trkpt lat="41.187217" lon="-3.592833">
        <ele>2500.0</ele>
        <time>2018-07-22T14:44:45Z</time>
      </trkpt>
      <trkpt lat="41.187317" lon="-3.592733">
        <ele>2497.0</ele>
        <time>2018-07-22T14:44:46Z</time>
      </trkpt>
      <trkpt lat="41.187417" lon="-3.592650">
        <ele>2495.0</ele>
        <time>2018-07-22T14:44:47Z</time>
      </trkpt>
      <trkpt lat="41.187517" lon="-3.592550">
        <ele>2494.0</ele>
        <time>2018-07-22T14:44:48Z</time>
      </trkpt>
      <trkpt lat="41.187600" lon="-3.592467">
        <ele>2494.0</ele>
        <time>2018-07-22T14:44:49Z</time>
      </trkpt>
      <trkpt lat="41.187683" lon="-3.592383">
        <ele>2494.0</ele>
        <time>2018-07-22T14:44:50Z</time>
      </trkpt>
      <trkpt lat="41.187750" lon="-3.592317">
        <ele>2494.0</ele>
        <time>2018-07-22T14:44:51Z</time>
      </trkpt>
      <trkpt lat="41.187817" lon="-3.592233">
        <ele>2492.0</ele>
        <time>2018-07-22T14:44:52Z</time>
      </trkpt>
      <trkpt lat="41.187883" lon="-3.592167">
        <ele>2490.0</ele>
        <time>2018-07-22T14:44:53Z</time>
      </trkpt>
      <trkpt lat="41.187967" lon="-3.592083">
        <ele>2488.0</ele>
        <time>2018-07-22T14:44:54Z</time>
      </trkpt>
      <trkpt lat="41.188050" lon="-3.592017">
        <ele>2486.0</ele>
        <time>2018-07-22T14:44:55Z</time>
      </trkpt>
      <trkpt lat="41.188150" lon="-3.591967">
        <ele>2485.0</ele>
        <time>2018-07-22T14:44:56Z</time>
      </trkpt>
      <trkpt lat="41.188250" lon="-3.591933">
        <ele>2483.0</ele>
        <time>2018-07-22T14:44:57Z</time>
      </trkpt>
      <trkpt lat="41.188350" lon="-3.591867">
        <ele>2481.0</ele>
        <time>2018-07-22T14:44:58Z</time>
      </trkpt>
      <trkpt lat="41.188433" lon="-3.591800">
        <ele>2478.0</ele>
        <time>2018-07-22T14:44:59Z</time>
      </trkpt>
      <trkpt lat="41.188533" lon="-3.591733">
        <ele>2474.0</ele>
        <time>2018-07-22T14:45:00Z</time>
      </trkpt>
      <trkpt lat="41.188617" lon="-3.591667">
        <ele>2470.0</ele>
        <time>2018-07-22T14:45:01Z</time>
      </trkpt>
      <trkpt lat="41.188700" lon="-3.591583">
        <ele>2467.0</ele>
        <time>2018-07-22T14:45:02Z</time>
      </trkpt>
      <trkpt lat="41.188783" lon="-3.591500">
        <ele>2465.0</ele>
        <time>2018-07-22T14:45:03Z</time>
      </trkpt>
      <trkpt lat="41.188850" lon="-3.591417">
        <ele>2462.0</ele>
        <time>2018-07-22T14:45:04Z</time>
      </trkpt>
      <trkpt lat="41.188917" lon="-3.591317">
        <ele>2459.0</ele>
        <time>2018-07-22T14:45:05Z</time>
      </trkpt>
      <trkpt lat="41.188983" lon="-3.591233">
        <ele>2456.0</ele>
        <time>2018-07-22T14:45:06Z</time>
      </trkpt>
      <trkpt lat="41.189083" lon="-3.591133">
        <ele>2453.0</ele>
        <time>2018-07-22T14:45:07Z</time>
      </trkpt>
      <trkpt lat="41.189167" lon="-3.591050">
        <ele>2451.0</ele>
        <time>2018-07-22T14:45:08Z</time>
      </trkpt>
      <trkpt lat="41.189267" lon="-3.590967">
        <ele>2449.0</ele>
        <time>2018-07-22T14:45:09Z</time>
      </trkpt>
      <trkpt lat="41.189350" lon="-3.590900">
        <ele>2448.0</ele>
        <time>2018-07-22T14:45:10Z</time>
      </trkpt>
      <trkpt lat="41.189433" lon="-3.590833">
        <ele>2448.0</ele>
        <time>2018-07-22T14:45:11Z</time>
      </trkpt>
      <trkpt lat="41.189517" lon="-3.590767">
        <ele>2447.0</ele>
        <time>2018-07-22T14:45:12Z</time>
      </trkpt>
      <trkpt lat="41.189583" lon="-3.590700">
        <ele>2445.0</ele>
        <time>2018-07-22T14:45:13Z</time>
      </trkpt>
      <trkpt lat="41.189667" lon="-3.590633">
        <ele>2442.0</ele>
        <time>2018-07-22T14:45:14Z</time>
      </trkpt>
      <trkpt lat="41.189750" lon="-3.590550">
        <ele>2438.0</ele>
        <time>2018-07-22T14:45:15Z</time>
      </trkpt>
      <trkpt lat="41.189833" lon="-3.590483">
        <ele>2434.0</ele>
        <time>2018-07-22T14:45:16Z</time>
      </trkpt>
      <trkpt lat="41.189933" lon="-3.590383">
        <ele>2431.0</ele>
        <time>2018-07-22T14:45:17Z</time>
      </trkpt>
      <trkpt lat="41.190017" lon="-3.590300">
        <ele>2429.0</ele>
        <time>2018-07-22T14:45:18Z</time>
      </trkpt>
      <trkpt lat="41.190100" lon="-3.590217">
        <ele>2427.0</ele>
        <time>2018-07-22T14:45:19Z</time>
      </trkpt>
      <trkpt lat="41.190183" lon="-3.590117">
        <ele>2426.0</ele>
        <time>2018-07-22T14:45:20Z</time>
      </trkpt>
      <trkpt lat="41.190250" lon="-3.590033">
        <ele>2423.0</ele>
        <time>2018-07-22T14:45:21Z</time>
      </trkpt>
      <trkpt lat="41.190350" lon="-3.589950">
        <ele>2420.0</ele>
        <time>2018-07-22T14:45:22Z</time>
      </trkpt>
      <trkpt lat="41.190433" lon="-3.589867">
        <ele>2417.0</ele>
        <time>2018-07-22T14:45:23Z</time>
      </trkpt>
      <trkpt lat="41.190533" lon="-3.589783">
        <ele>2414.0</ele>
        <time>2018-07-22T14:45:24Z</time>
      </trkpt>
      <trkpt lat="41.190617" lon="-3.589700">
        <ele>2411.0</ele>
        <time>2018-07-22T14:45:25Z</time>
      </trkpt>
      <trkpt lat="41.190700" lon="-3.589617">
        <ele>2409.0</ele>
        <time>2018-07-22T14:45:26Z</time>
      </trkpt>
      <trkpt lat="41.190783" lon="-3.589550">
        <ele>2407.0</ele>
        <time>2018-07-22T14:45:27Z</time>
      </trkpt>
      <trkpt lat="41.190867" lon="-3.589483">
        <ele>2404.0</ele>
        <time>2018-07-22T14:45:28Z</time>
      </trkpt>
      <trkpt lat="41.190950" lon="-3.589400">
        <ele>2401.0</ele>
        <time>2018-07-22T14:45:29Z</time>
      </trkpt>
      <trkpt lat="41.191033" lon="-3.589317">
        <ele>2398.0</ele>
        <time>2018-07-22T14:45:30Z</time>
      </trkpt>
      <trkpt lat="41.191117" lon="-3.589217">
        <ele>2396.0</ele>
        <time>2018-07-22T14:45:31Z</time>
      </trkpt>
      <trkpt lat="41.191200" lon="-3.589117">
        <ele>2394.0</ele>
        <time>2018-07-22T14:45:32Z</time>
      </trkpt>
      <trkpt lat="41.191283" lon="-3.589033">
        <ele>2392.0</ele>
        <time>2018-07-22T14:45:33Z</time>
      </trkpt>
      <trkpt lat="41.191367" lon="-3.588967">
        <ele>2390.0</ele>
        <time>2018-07-22T14:45:34Z</time>
      </trkpt>
      <trkpt lat="41.191467" lon="-3.588900">
        <ele>2387.0</ele>
        <time>2018-07-22T14:45:35Z</time>
      </trkpt>
      <trkpt lat="41.191567" lon="-3.588833">
        <ele>2384.0</ele>
        <time>2018-07-22T14:45:36Z</time>
      </trkpt>
      <trkpt lat="41.191667" lon="-3.588750">
        <ele>2382.0</ele>
        <time>2018-07-22T14:45:37Z</time>
      </trkpt>
      <trkpt lat="41.191767" lon="-3.588667">
        <ele>2380.0</ele>
        <time>2018-07-22T14:45:38Z</time>
      </trkpt>
      <trkpt lat="41.191883" lon="-3.588583">
        <ele>2379.0</ele>
        <time>2018-07-22T14:45:39Z</time>
      </trkpt>
      <trkpt lat="41.191983" lon="-3.588483">
        <ele>2379.0</ele>
        <time>2018-07-22T14:45:40Z</time>
      </trkpt>
      <trkpt lat="41.192067" lon="-3.588367">
        <ele>2381.0</ele>
        <time>2018-07-22T14:45:41Z</time>
      </trkpt>
      <trkpt lat="41.192133" lon="-3.588267">
        <ele>2383.0</ele>
        <time>2018-07-22T14:45:42Z</time>
      </trkpt>
      <trkpt lat="41.192200" lon="-3.588167">
        <ele>2385.0</ele>
        <time>2018-07-22T14:45:43Z</time>
      </trkpt>
      <trkpt lat="41.192250" lon="-3.588083">
        <ele>2386.0</ele>
        <time>2018-07-22T14:45:44Z</time>
      </trkpt>
      <trkpt lat="41.192300" lon="-3.587983">
        <ele>2385.0</ele>
        <time>2018-07-22T14:45:45Z</time>
      </trkpt>
      <trkpt lat="41.192367" lon="-3.587917">
        <ele>2385.0</ele>
        <time>2018-07-22T14:45:46Z</time>
      </trkpt>
      <trkpt lat="41.192450" lon="-3.587850">
        <ele>2384.0</ele>
        <time>2018-07-22T14:45:47Z</time>
      </trkpt>
      <trkpt lat="41.192533" lon="-3.587783">
        <ele>2383.0</ele>
        <time>2018-07-22T14:45:48Z</time>
      </trkpt>
      <trkpt lat="41.192600" lon="-3.587717">
        <ele>2384.0</ele>
        <time>2018-07-22T14:45:49Z</time>
      </trkpt>
      <trkpt lat="41.192667" lon="-3.587633">
        <ele>2386.0</ele>
        <time>2018-07-22T14:45:50Z</time>
      </trkpt>
      <trkpt lat="41.192750" lon="-3.587567">
        <ele>2387.0</ele>
        <time>2018-07-22T14:45:51Z</time>
      </trkpt>
      <trkpt lat="41.192833" lon="-3.587500">
        <ele>2387.0</ele>
        <time>2018-07-22T14:45:52Z</time>
      </trkpt>
      <trkpt lat="41.192917" lon="-3.587467">
        <ele>2387.0</ele>
        <time>2018-07-22T14:45:53Z</time>
      </trkpt>
      <trkpt lat="41.193017" lon="-3.587417">
        <ele>2386.0</ele>
        <time>2018-07-22T14:45:54Z</time>
      </trkpt>
      <trkpt lat="41.193117" lon="-3.587350">
        <ele>2385.0</ele>
        <time>2018-07-22T14:45:55Z</time>
      </trkpt>
      <trkpt lat="41.193217" lon="-3.587300">
        <ele>2386.0</ele>
        <time>2018-07-22T14:45:56Z</time>
      </trkpt>
      <trkpt lat="41.193283" lon="-3.587250">
        <ele>2389.0</ele>
        <time>2018-07-22T14:45:57Z</time>
      </trkpt>
      <trkpt lat="41.193350" lon="-3.587217">
        <ele>2390.0</ele>
        <time>2018-07-22T14:45:58Z</time>
      </trkpt>
      <trkpt lat="41.193417" lon="-3.587167">
        <ele>2390.0</ele>
        <time>2018-07-22T14:45:59Z</time>
      </trkpt>
      <trkpt lat="41.193483" lon="-3.587117">
        <ele>2388.0</ele>
        <time>2018-07-22T14:46:00Z</time>
      </trkpt>
      <trkpt lat="41.193567" lon="-3.587033">
        <ele>2387.0</ele>
        <time>2018-07-22T14:46:01Z</time>
      </trkpt>
      <trkpt lat="41.193667" lon="-3.586933">
        <ele>2387.0</ele>
        <time>2018-07-22T14:46:02Z</time>
      </trkpt>
      <trkpt lat="41.193750" lon="-3.586867">
        <ele>2390.0</ele>
        <time>2018-07-22T14:46:03Z</time>
      </trkpt>
      <trkpt lat="41.193833" lon="-3.586800">
        <ele>2393.0</ele>
        <time>2018-07-22T14:46:04Z</time>
      </trkpt>
      <trkpt lat="41.193883" lon="-3.586767">
        <ele>2397.0</ele>
        <time>2018-07-22T14:46:05Z</time>
      </trkpt>
      <trkpt lat="41.193950" lon="-3.586717">
        <ele>2399.0</ele>
        <time>2018-07-22T14:46:06Z</time>
      </trkpt>
      <trkpt lat="41.194017" lon="-3.586667">
        <ele>2400.0</ele>
        <time>2018-07-22T14:46:07Z</time>
      </trkpt>
      <trkpt lat="41.194067" lon="-3.586600">
        <ele>2400.0</ele>
        <time>2018-07-22T14:46:08Z</time>
      </trkpt>
      <trkpt lat="41.194133" lon="-3.586517">
        <ele>2400.0</ele>
        <time>2018-07-22T14:46:09Z</time>
      </trkpt>
      <trkpt lat="41.194183" lon="-3.586433">
        <ele>2401.0</ele>
        <time>2018-07-22T14:46:10Z</time>
      </trkpt>
      <trkpt lat="41.194250" lon="-3.586333">
        <ele>2401.0</ele>
        <time>2018-07-22T14:46:11Z</time>
      </trkpt>
      <trkpt lat="41.194317" lon="-3.586233">
        <ele>2403.0</ele>
        <time>2018-07-22T14:46:12Z</time>
      </trkpt>
      <trkpt lat="41.194383" lon="-3.586150">
        <ele>2405.0</ele>
        <time>2018-07-22T14:46:13Z</time>
      </trkpt>
      <trkpt lat="41.194450" lon="-3.586067">
        <ele>2406.0</ele>
        <time>2018-07-22T14:46:14Z</time>
      </trkpt>
      <trkpt lat="41.194517" lon="-3.585983">
        <ele>2408.0</ele>
        <time>2018-07-22T14:46:15Z</time>
      </trkpt>
      <trkpt lat="41.194600" lon="-3.585917">
        <ele>2409.0</ele>
        <time>2018-07-22T14:46:16Z</time>
      </trkpt>
      <trkpt lat="41.194667" lon="-3.585833">
        <ele>2410.0</ele>
        <time>2018-07-22T14:46:17Z</time>
      </trkpt>
      <trkpt lat="41.194750" lon="-3.585733">
        <ele>2412.0</ele>
        <time>2018-07-22T14:46:18Z</time>
      </trkpt>
      <trkpt lat="41.194833" lon="-3.585650">
        <ele>2414.0</ele>
        <time>2018-07-22T14:46:19Z</time>
      </trkpt>
      <trkpt lat="41.194900" lon="-3.585567">
        <ele>2417.0</ele>
        <time>2018-07-22T14:46:20Z</time>
      </trkpt>
      <trkpt lat="41.194983" lon="-3.585517">
        <ele>2419.0</ele>
        <time>2018-07-22T14:46:21Z</time>
      </trkpt>
      <trkpt lat="41.195050" lon="-3.585500">
        <ele>2420.0</ele>
        <time>2018-07-22T14:46:22Z</time>
      </trkpt>
      <trkpt lat="41.195100" lon="-3.585517">
        <ele>2421.0</ele>
        <time>2018-07-22T14:46:23Z</time>
      </trkpt>
      <trkpt lat="41.195150" lon="-3.585583">
        <ele>2422.0</ele>
        <time>2018-07-22T14:46:24Z</time>
      </trkpt>
      <trkpt lat="41.195167" lon="-3.585650">
        <ele>2423.0</ele>
        <time>2018-07-22T14:46:25Z</time>
      </trkpt>
      <trkpt lat="41.195133" lon="-3.585750">
        <ele>2424.0</ele>
        <time>2018-07-22T14:46:26Z</time>
      </trkpt>
      <trkpt lat="41.195067" lon="-3.585817">
        <ele>2425.0</ele>
        <time>2018-07-22T14:46:27Z</time>
      </trkpt>
      <trkpt lat="41.194983" lon="-3.585867">
        <ele>2427.0</ele>
        <time>2018-07-22T14:46:28Z</time>
      </trkpt>
      <trkpt lat="41.194867" lon="-3.585883">
        <ele>2429.0</ele>
        <time>2018-07-22T14:46:29Z</time>
      </trkpt>
      <trkpt lat="41.194767" lon="-3.585850">
        <ele>2431.0</ele>
        <time>2018-07-22T14:46:30Z</time>
      </trkpt>
      <trkpt lat="41.194650" lon="-3.585767">
        <ele>2433.0</ele>
        <time>2018-07-22T14:46:31Z</time>
      </trkpt>
      <trkpt lat="41.194533" lon="-3.585650">
        <ele>2436.0</ele>
        <time>2018-07-22T14:46:32Z</time>
      </trkpt>
      <trkpt lat="41.194467" lon="-3.585517">
        <ele>2438.0</ele>
        <time>2018-07-22T14:46:33Z</time>
      </trkpt>
      <trkpt lat="41.194417" lon="-3.585367">
        <ele>2441.0</ele>
        <time>2018-07-22T14:46:34Z</time>
      </trkpt>
      <trkpt lat="41.194383" lon="-3.585200">
        <ele>2443.0</ele>
        <time>2018-07-22T14:46:35Z</time>
      </trkpt>
      <trkpt lat="41.194400" lon="-3.585033">
        <ele>2445.0</ele>
        <time>2018-07-22T14:46:36Z</time>
      </trkpt>
      <trkpt lat="41.194433" lon="-3.584900">
        <ele>2447.0</ele>
        <time>2018-07-22T14:46:37Z</time>
      </trkpt>
      <trkpt lat="41.194483" lon="-3.584767">
        <ele>2449.0</ele>
        <time>2018-07-22T14:46:38Z</time>
      </trkpt>
      <trkpt lat="41.194550" lon="-3.584683">
        <ele>2449.0</ele>
        <time>2018-07-22T14:46:39Z</time>
      </trkpt>
      <trkpt lat="41.194633" lon="-3.584650">
        <ele>2449.0</ele>
        <time>2018-07-22T14:46:40Z</time>
      </trkpt>
      <trkpt lat="41.194700" lon="-3.584650">
        <ele>2449.0</ele>
        <time>2018-07-22T14:46:41Z</time>
      </trkpt>
      <trkpt lat="41.194750" lon="-3.584700">
        <ele>2449.0</ele>
        <time>2018-07-22T14:46:42Z</time>
      </trkpt>
      <trkpt lat="41.194767" lon="-3.584767">
        <ele>2449.0</ele>
        <time>2018-07-22T14:46:43Z</time>
      </trkpt>
      <trkpt lat="41.194750" lon="-3.584850">
        <ele>2449.0</ele>
        <time>2018-07-22T14:46:44Z</time>
      </trkpt>
      <trkpt lat="41.194683" lon="-3.584950">
        <ele>2450.0</ele>
        <time>2018-07-22T14:46:45Z</time>
      </trkpt>
      <trkpt lat="41.194600" lon="-3.585017">
        <ele>2451.0</ele>
        <time>2018-07-22T14:46:46Z</time>
      </trkpt>
      <trkpt lat="41.194500" lon="-3.585050">
        <ele>2454.0</ele>
        <time>2018-07-22T14:46:47Z</time>
      </trkpt>
      <trkpt lat="41.194400" lon="-3.585050">
        <ele>2456.0</ele>
        <time>2018-07-22T14:46:48Z</time>
      </trkpt>
      <trkpt lat="41.194300" lon="-3.585000">
        <ele>2458.0</ele>
        <time>2018-07-22T14:46:49Z</time>
      </trkpt>
      <trkpt lat="41.194200" lon="-3.584933">
        <ele>2460.0</ele>
        <time>2018-07-22T14:46:50Z</time>
      </trkpt>
      <trkpt lat="41.194117" lon="-3.584833">
        <ele>2461.0</ele>
        <time>2018-07-22T14:46:51Z</time>
      </trkpt>
      <trkpt lat="41.194050" lon="-3.584717">
        <ele>2463.0</ele>
        <time>2018-07-22T14:46:52Z</time>
      </trkpt>
      <trkpt lat="41.194017" lon="-3.584583">
        <ele>2464.0</ele>
        <time>2018-07-22T14:46:53Z</time>
      </trkpt>
      <trkpt lat="41.193983" lon="-3.584417">
        <ele>2464.0</ele>
        <time>2018-07-22T14:46:54Z</time>
      </trkpt>
      <trkpt lat="41.193983" lon="-3.584267">
        <ele>2465.0</ele>
        <time>2018-07-22T14:46:55Z</time>
      </trkpt>
      <trkpt lat="41.194000" lon="-3.584117">
        <ele>2467.0</ele>
        <time>2018-07-22T14:46:56Z</time>
      </trkpt>
      <trkpt lat="41.194033" lon="-3.583967">
        <ele>2468.0</ele>
        <time>2018-07-22T14:46:57Z</time>
      </trkpt>
      <trkpt lat="41.194083" lon="-3.583833">
        <ele>2469.0</ele>
        <time>2018-07-22T14:46:58Z</time>
      </trkpt>
      <trkpt lat="41.194133" lon="-3.583700">
        <ele>2470.0</ele>
        <time>2018-07-22T14:46:59Z</time>
      </trkpt>
      <trkpt lat="41.194183" lon="-3.583583">
        <ele>2471.0</ele>
        <time>2018-07-22T14:47:00Z</time>
      </trkpt>
      <trkpt lat="41.194250" lon="-3.583483">
        <ele>2473.0</ele>
        <time>2018-07-22T14:47:01Z</time>
      </trkpt>
      <trkpt lat="41.194300" lon="-3.583400">
        <ele>2474.0</ele>
        <time>2018-07-22T14:47:02Z</time>
      </trkpt>
      <trkpt lat="41.194367" lon="-3.583367">
        <ele>2475.0</ele>
        <time>2018-07-22T14:47:03Z</time>
      </trkpt>
      <trkpt lat="41.194450" lon="-3.583383">
        <ele>2474.0</ele>
        <time>2018-07-22T14:47:04Z</time>
      </trkpt>
      <trkpt lat="41.194517" lon="-3.583417">
        <ele>2475.0</ele>
        <time>2018-07-22T14:47:05Z</time>
      </trkpt>
      <trkpt lat="41.194567" lon="-3.583483">
        <ele>2476.0</ele>
        <time>2018-07-22T14:47:06Z</time>
      </trkpt>
      <trkpt lat="41.194600" lon="-3.583550">
        <ele>2477.0</ele>
        <time>2018-07-22T14:47:07Z</time>
      </trkpt>
      <trkpt lat="41.194617" lon="-3.583617">
        <ele>2478.0</ele>
        <time>2018-07-22T14:47:08Z</time>
      </trkpt>
      <trkpt lat="41.194600" lon="-3.583700">
        <ele>2478.0</ele>
        <time>2018-07-22T14:47:09Z</time>
      </trkpt>
      <trkpt lat="41.194550" lon="-3.583783">
        <ele>2477.0</ele>
        <time>2018-07-22T14:47:10Z</time>
      </trkpt>
      <trkpt lat="41.194483" lon="-3.583867">
        <ele>2476.0</ele>
        <time>2018-07-22T14:47:11Z</time>
      </trkpt>
      <trkpt lat="41.194400" lon="-3.583950">
        <ele>2478.0</ele>
        <time>2018-07-22T14:47:12Z</time>
      </trkpt>
      <trkpt lat="41.194300" lon="-3.584000">
        <ele>2481.0</ele>
        <time>2018-07-22T14:47:13Z</time>
      </trkpt>
      <trkpt lat="41.194200" lon="-3.584017">
        <ele>2485.0</ele>
        <time>2018-07-22T14:47:14Z</time>
      </trkpt>
      <trkpt lat="41.194117" lon="-3.584000">
        <ele>2488.0</ele>
        <time>2018-07-22T14:47:15Z</time>
      </trkpt>
      <trkpt lat="41.194017" lon="-3.583950">
        <ele>2490.0</ele>
        <time>2018-07-22T14:47:16Z</time>
      </trkpt>
      <trkpt lat="41.193933" lon="-3.583883">
        <ele>2491.0</ele>
        <time>2018-07-22T14:47:17Z</time>
      </trkpt>
      <trkpt lat="41.193867" lon="-3.583800">
        <ele>2492.0</ele>
        <time>2018-07-22T14:47:18Z</time>
      </trkpt>
      <trkpt lat="41.193783" lon="-3.583683">
        <ele>2492.0</ele>
        <time>2018-07-22T14:47:19Z</time>
      </trkpt>
      <trkpt lat="41.193733" lon="-3.583550">
        <ele>2493.0</ele>
        <time>2018-07-22T14:47:20Z</time>
      </trkpt>
      <trkpt lat="41.193700" lon="-3.583400">
        <ele>2495.0</ele>
        <time>2018-07-22T14:47:21Z</time>
      </trkpt>
      <trkpt lat="41.193700" lon="-3.583267">
        <ele>2497.0</ele>
        <time>2018-07-22T14:47:22Z</time>
      </trkpt>
      <trkpt lat="41.193700" lon="-3.583150">
        <ele>2498.0</ele>
        <time>2018-07-22T14:47:23Z</time>
      </trkpt>
      <trkpt lat="41.193717" lon="-3.583017">
        <ele>2498.0</ele>
        <time>2018-07-22T14:47:24Z</time>
      </trkpt>
      <trkpt lat="41.193733" lon="-3.582900">
        <ele>2498.0</ele>
        <time>2018-07-22T14:47:25Z</time>
      </trkpt>
      <trkpt lat="41.193783" lon="-3.582783">
        <ele>2497.0</ele>
        <time>2018-07-22T14:47:26Z</time>
      </trkpt>
      <trkpt lat="41.193850" lon="-3.582683">
        <ele>2496.0</ele>
        <time>2018-07-22T14:47:27Z</time>
      </trkpt>
      <trkpt lat="41.193933" lon="-3.582600">
        <ele>2495.0</ele>
        <time>2018-07-22T14:47:28Z</time>
      </trkpt>
      <trkpt lat="41.194017" lon="-3.582533">
        <ele>2495.0</ele>
        <time>2018-07-22T14:47:29Z</time>
      </trkpt>
      <trkpt lat="41.194100" lon="-3.582467">
        <ele>2495.0</ele>
        <time>2018-07-22T14:47:30Z</time>
      </trkpt>
      <trkpt lat="41.194183" lon="-3.582400">
        <ele>2496.0</ele>
        <time>2018-07-22T14:47:31Z</time>
      </trkpt>
      <trkpt lat="41.194283" lon="-3.582333">
        <ele>2497.0</ele>
        <time>2018-07-22T14:47:32Z</time>
      </trkpt>
      <trkpt lat="41.194350" lon="-3.582267">
        <ele>2498.0</ele>
        <time>2018-07-22T14:47:33Z</time>
      </trkpt>
      <trkpt lat="41.194433" lon="-3.582200">
        <ele>2499.0</ele>
        <time>2018-07-22T14:47:34Z</time>
      </trkpt>
      <trkpt lat="41.194500" lon="-3.582133">
        <ele>2499.0</ele>
        <time>2018-07-22T14:47:35Z</time>
      </trkpt>
      <trkpt lat="41.194583" lon="-3.582067">
        <ele>2498.0</ele>
        <time>2018-07-22T14:47:36Z</time>
      </trkpt>
      <trkpt lat="41.194650" lon="-3.581983">
        <ele>2497.0</ele>
        <time>2018-07-22T14:47:37Z</time>
      </trkpt>
      <trkpt lat="41.194733" lon="-3.581883">
        <ele>2497.0</ele>
        <time>2018-07-22T14:47:38Z</time>
      </trkpt>
      <trkpt lat="41.194800" lon="-3.581783">
        <ele>2498.0</ele>
        <time>2018-07-22T14:47:39Z</time>
      </trkpt>
      <trkpt lat="41.194867" lon="-3.581700">
        <ele>2499.0</ele>
        <time>2018-07-22T14:47:40Z</time>
      </trkpt>
      <trkpt lat="41.194933" lon="-3.581617">
        <ele>2500.0</ele>
        <time>2018-07-22T14:47:41Z</time>
      </trkpt>
      <trkpt lat="41.194983" lon="-3.581533">
        <ele>2500.0</ele>
        <time>2018-07-22T14:47:42Z</time>
      </trkpt>
      <trkpt lat="41.195017" lon="-3.581433">
        <ele>2500.0</ele>
        <time>2018-07-22T14:47:43Z</time>
      </trkpt>
      <trkpt lat="41.195050" lon="-3.581317">
        <ele>2500.0</ele>
        <time>2018-07-22T14:47:44Z</time>
      </trkpt>
      <trkpt lat="41.195100" lon="-3.581200">
        <ele>2500.0</ele>
        <time>2018-07-22T14:47:45Z</time>
      </trkpt>
      <trkpt lat="41.195133" lon="-3.581100">
        <ele>2501.0</ele>
        <time>2018-07-22T14:47:46Z</time>
      </trkpt>
      <trkpt lat="41.195183" lon="-3.581000">
        <ele>2502.0</ele>
        <time>2018-07-22T14:47:47Z</time>
      </trkpt>
      <trkpt lat="41.195233" lon="-3.580917">
        <ele>2503.0</ele>
        <time>2018-07-22T14:47:48Z</time>
      </trkpt>
      <trkpt lat="41.195283" lon="-3.580817">
        <ele>2503.0</ele>
        <time>2018-07-22T14:47:49Z</time>
      </trkpt>
      <trkpt lat="41.195333" lon="-3.580717">
        <ele>2504.0</ele>
        <time>2018-07-22T14:47:50Z</time>
      </trkpt>
      <trkpt lat="41.195383" lon="-3.580600">
        <ele>2504.0</ele>
        <time>2018-07-22T14:47:51Z</time>
      </trkpt>
      <trkpt lat="41.195433" lon="-3.580500">
        <ele>2504.0</ele>
        <time>2018-07-22T14:47:52Z</time>
      </trkpt>
      <trkpt lat="41.195483" lon="-3.580400">
        <ele>2504.0</ele>
        <time>2018-07-22T14:47:53Z</time>
      </trkpt>
      <trkpt lat="41.195533" lon="-3.580283">
        <ele>2504.0</ele>
        <time>2018-07-22T14:47:54Z</time>
      </trkpt>
      <trkpt lat="41.195583" lon="-3.580183">
        <ele>2503.0</ele>
        <time>2018-07-22T14:47:55Z</time>
      </trkpt>
      <trkpt lat="41.195650" lon="-3.580100">
        <ele>2501.0</ele>
        <time>2018-07-22T14:47:56Z</time>
      </trkpt>
      <trkpt lat="41.195700" lon="-3.580000">
        <ele>2499.0</ele>
        <time>2018-07-22T14:47:57Z</time>
      </trkpt>
      <trkpt lat="41.195767" lon="-3.579883">
        <ele>2497.0</ele>
        <time>2018-07-22T14:47:58Z</time>
      </trkpt>
      <trkpt lat="41.195850" lon="-3.579767">
        <ele>2496.0</ele>
        <time>2018-07-22T14:47:59Z</time>
      </trkpt>
      <trkpt lat="41.195917" lon="-3.579633">
        <ele>2496.0</ele>
        <time>2018-07-22T14:48:00Z</time>
      </trkpt>
      <trkpt lat="41.196000" lon="-3.579517">
        <ele>2496.0</ele>
        <time>2018-07-22T14:48:01Z</time>
      </trkpt>
      <trkpt lat="41.196067" lon="-3.579400">
        <ele>2498.0</ele>
        <time>2018-07-22T14:48:02Z</time>
      </trkpt>
      <trkpt lat="41.196117" lon="-3.579300">
        <ele>2500.0</ele>
        <time>2018-07-22T14:48:03Z</time>
      </trkpt>
      <trkpt lat="41.196183" lon="-3.579183">
        <ele>2501.0</ele>
        <time>2018-07-22T14:48:04Z</time>
      </trkpt>
      <trkpt lat="41.196233" lon="-3.579067">
        <ele>2502.0</ele>
        <time>2018-07-22T14:48:05Z</time>
      </trkpt>
      <trkpt lat="41.196283" lon="-3.578967">
        <ele>2503.0</ele>
        <time>2018-07-22T14:48:06Z</time>
      </trkpt>
      <trkpt lat="41.196333" lon="-3.578850">
        <ele>2504.0</ele>
        <time>2018-07-22T14:48:07Z</time>
      </trkpt>
      <trkpt lat="41.196383" lon="-3.578750">
        <ele>2504.0</ele>
        <time>2018-07-22T14:48:08Z</time>
      </trkpt>
      <trkpt lat="41.196450" lon="-3.578650">
        <ele>2503.0</ele>
        <time>2018-07-22T14:48:09Z</time>
      </trkpt>
      <trkpt lat="41.196517" lon="-3.578550">
        <ele>2502.0</ele>
        <time>2018-07-22T14:48:10Z</time>
      </trkpt>
      <trkpt lat="41.196583" lon="-3.578450">
        <ele>2502.0</ele>
        <time>2018-07-22T14:48:11Z</time>
      </trkpt>
      <trkpt lat="41.196667" lon="-3.578350">
        <ele>2502.0</ele>
        <time>2018-07-22T14:48:12Z</time>
      </trkpt>
      <trkpt lat="41.196733" lon="-3.578233">
        <ele>2502.0</ele>
        <time>2018-07-22T14:48:13Z</time>
      </trkpt>
      <trkpt lat="41.196800" lon="-3.578100">
        <ele>2504.0</ele>
        <time>2018-07-22T14:48:14Z</time>
      </trkpt>
      <trkpt lat="41.196867" lon="-3.577983">
        <ele>2505.0</ele>
        <time>2018-07-22T14:48:15Z</time>
      </trkpt>
      <trkpt lat="41.196933" lon="-3.577883">
        <ele>2506.0</ele>
        <time>2018-07-22T14:48:16Z</time>
      </trkpt>
      <trkpt lat="41.196983" lon="-3.577783">
        <ele>2507.0</ele>
        <time>2018-07-22T14:48:17Z</time>
      </trkpt>
      <trkpt lat="41.197033" lon="-3.577650">
        <ele>2509.0</ele>
        <time>2018-07-22T14:48:18Z</time>
      </trkpt>
      <trkpt lat="41.197067" lon="-3.577533">
        <ele>2510.0</ele>
        <time>2018-07-22T14:48:19Z</time>
      </trkpt>
      <trkpt lat="41.197100" lon="-3.577400">
        <ele>2511.0</ele>
        <time>2018-07-22T14:48:20Z</time>
      </trkpt>
      <trkpt lat="41.197150" lon="-3.577300">
        <ele>2512.0</ele>
        <time>2018-07-22T14:48:21Z</time>
      </trkpt>
      <trkpt lat="41.197217" lon="-3.577200">
        <ele>2513.0</ele>
        <time>2018-07-22T14:48:22Z</time>
      </trkpt>
      <trkpt lat="41.197283" lon="-3.577117">
        <ele>2514.0</ele>
        <time>2018-07-22T14:48:23Z</time>
      </trkpt>
      <trkpt lat="41.197350" lon="-3.577017">
        <ele>2514.0</ele>
        <time>2018-07-22T14:48:24Z</time>
      </trkpt>
      <trkpt lat="41.197400" lon="-3.576917">
        <ele>2515.0</ele>
        <time>2018-07-22T14:48:25Z</time>
      </trkpt>
      <trkpt lat="41.197467" lon="-3.576817">
        <ele>2516.0</ele>
        <time>2018-07-22T14:48:26Z</time>
      </trkpt>
      <trkpt lat="41.197533" lon="-3.576750">
        <ele>2516.0</ele>
        <time>2018-07-22T14:48:27Z</time>
      </trkpt>
      <trkpt lat="41.197600" lon="-3.576717">
        <ele>2516.0</ele>
        <time>2018-07-22T14:48:28Z</time>
      </trkpt>
      <trkpt lat="41.197667" lon="-3.576717">
        <ele>2515.0</ele>
        <time>2018-07-22T14:48:29Z</time>
      </trkpt>
      <trkpt lat="41.197750" lon="-3.576717">
        <ele>2515.0</ele>
        <time>2018-07-22T14:48:30Z</time>
      </trkpt>
      <trkpt lat="41.197817" lon="-3.576683">
        <ele>2516.0</ele>
        <time>2018-07-22T14:48:31Z</time>
      </trkpt>
      <trkpt lat="41.197900" lon="-3.576600">
        <ele>2516.0</ele>
        <time>2018-07-22T14:48:32Z</time>
      </trkpt>
      <trkpt lat="41.198000" lon="-3.576483">
        <ele>2517.0</ele>
        <time>2018-07-22T14:48:33Z</time>
      </trkpt>
      <trkpt lat="41.198083" lon="-3.576350">
        <ele>2519.0</ele>
        <time>2018-07-22T14:48:34Z</time>
      </trkpt>
      <trkpt lat="41.198183" lon="-3.576250">
        <ele>2525.0</ele>
        <time>2018-07-22T14:48:35Z</time>
      </trkpt>
      <trkpt lat="41.198283" lon="-3.576167">
        <ele>2534.0</ele>
        <time>2018-07-22T14:48:36Z</time>
      </trkpt>
      <trkpt lat="41.198350" lon="-3.576083">
        <ele>2542.0</ele>
        <time>2018-07-22T14:48:37Z</time>
      </trkpt>
      <trkpt lat="41.198400" lon="-3.576017">
        <ele>2548.0</ele>
        <time>2018-07-22T14:48:38Z</time>
      </trkpt>
      <trkpt lat="41.198450" lon="-3.575950">
        <ele>2551.0</ele>
        <time>2018-07-22T14:48:39Z</time>
      </trkpt>
      <trkpt lat="41.198500" lon="-3.575867">
        <ele>2553.0</ele>
        <time>2018-07-22T14:48:40Z</time>
      </trkpt>
      <trkpt lat="41.198567" lon="-3.575783">
        <ele>2554.0</ele>
        <time>2018-07-22T14:48:41Z</time>
      </trkpt>
      <trkpt lat="41.198633" lon="-3.575667">
        <ele>2555.0</ele>
        <time>2018-07-22T14:48:42Z</time>
      </trkpt>
      <trkpt lat="41.198667" lon="-3.575550">
        <ele>2556.0</ele>
        <time>2018-07-22T14:48:43Z</time>
      </trkpt>
      <trkpt lat="41.198683" lon="-3.575400">
        <ele>2558.0</ele>
        <time>2018-07-22T14:48:44Z</time>
      </trkpt>
      <trkpt lat="41.198683" lon="-3.575233">
        <ele>2561.0</ele>
        <time>2018-07-22T14:48:45Z</time>
      </trkpt>
      <trkpt lat="41.198683" lon="-3.575083">
        <ele>2565.0</ele>
        <time>2018-07-22T14:48:46Z</time>
      </trkpt>
      <trkpt lat="41.198683" lon="-3.574950">
        <ele>2570.0</ele>
        <time>2018-07-22T14:48:47Z</time>
      </trkpt>
      <trkpt lat="41.198667" lon="-3.574817">
        <ele>2574.0</ele>
        <time>2018-07-22T14:48:48Z</time>
      </trkpt>
      <trkpt lat="41.198650" lon="-3.574683">
        <ele>2578.0</ele>
        <time>2018-07-22T14:48:49Z</time>
      </trkpt>
      <trkpt lat="41.198600" lon="-3.574550">
        <ele>2581.0</ele>
        <time>2018-07-22T14:48:50Z</time>
      </trkpt>
      <trkpt lat="41.198533" lon="-3.574417">
        <ele>2584.0</ele>
        <time>2018-07-22T14:48:51Z</time>
      </trkpt>
      <trkpt lat="41.198433" lon="-3.574300">
        <ele>2588.0</ele>
        <time>2018-07-22T14:48:52Z</time>
      </trkpt>
      <trkpt lat="41.198333" lon="-3.574217">
        <ele>2592.0</ele>
        <time>2018-07-22T14:48:53Z</time>
      </trkpt>
      <trkpt lat="41.198217" lon="-3.574183">
        <ele>2596.0</ele>
        <time>2018-07-22T14:48:54Z</time>
      </trkpt>
      <trkpt lat="41.198117" lon="-3.574200">
        <ele>2599.0</ele>
        <time>2018-07-22T14:48:55Z</time>
      </trkpt>
      <trkpt lat="41.198033" lon="-3.574233">
        <ele>2603.0</ele>
        <time>2018-07-22T14:48:56Z</time>
      </trkpt>
      <trkpt lat="41.197933" lon="-3.574283">
        <ele>2607.0</ele>
        <time>2018-07-22T14:48:57Z</time>
      </trkpt>
      <trkpt lat="41.197867" lon="-3.574350">
        <ele>2611.0</ele>
        <time>2018-07-22T14:48:58Z</time>
      </trkpt>
      <trkpt lat="41.197817" lon="-3.574417">
        <ele>2615.0</ele>
        <time>2018-07-22T14:48:59Z</time>
      </trkpt>
      <trkpt lat="41.197783" lon="-3.574500">
        <ele>2618.0</ele>
        <time>2018-07-22T14:49:00Z</time>
      </trkpt>
      <trkpt lat="41.197767" lon="-3.574583">
        <ele>2622.0</ele>
        <time>2018-07-22T14:49:01Z</time>
      </trkpt>
      <trkpt lat="41.197750" lon="-3.574667">
        <ele>2626.0</ele>
        <time>2018-07-22T14:49:02Z</time>
      </trkpt>
      <trkpt lat="41.197767" lon="-3.574750">
        <ele>2631.0</ele>
        <time>2018-07-22T14:49:03Z</time>
      </trkpt>
      <trkpt lat="41.197783" lon="-3.574800">
        <ele>2635.0</ele>
        <time>2018-07-22T14:49:04Z</time>
      </trkpt>
      <trkpt lat="41.197833" lon="-3.574850">
        <ele>2639.0</ele>
        <time>2018-07-22T14:49:05Z</time>
      </trkpt>
      <trkpt lat="41.197883" lon="-3.574883">
        <ele>2641.0</ele>
        <time>2018-07-22T14:49:06Z</time>
      </trkpt>
      <trkpt lat="41.197950" lon="-3.574900">
        <ele>2644.0</ele>
        <time>2018-07-22T14:49:07Z</time>
      </trkpt>
      <trkpt lat="41.198017" lon="-3.574933">
        <ele>2647.0</ele>
        <time>2018-07-22T14:49:08Z</time>
      </trkpt>
      <trkpt lat="41.198100" lon="-3.574933">
        <ele>2650.0</ele>
        <time>2018-07-22T14:49:09Z</time>
      </trkpt>
      <trkpt lat="41.198167" lon="-3.574917">
        <ele>2651.0</ele>
        <time>2018-07-22T14:49:10Z</time>
      </trkpt>
      <trkpt lat="41.198250" lon="-3.574883">
        <ele>2652.0</ele>
        <time>2018-07-22T14:49:11Z</time>
      </trkpt>
      <trkpt lat="41.198333" lon="-3.574833">
        <ele>2653.0</ele>
        <time>2018-07-22T14:49:12Z</time>
      </trkpt>
      <trkpt lat="41.198417" lon="-3.574750">
        <ele>2655.0</ele>
        <time>2018-07-22T14:49:13Z</time>
      </trkpt>
      <trkpt lat="41.198483" lon="-3.574650">
        <ele>2657.0</ele>
        <time>2018-07-22T14:49:14Z</time>
      </trkpt>
      <trkpt lat="41.198550" lon="-3.574550">
        <ele>2660.0</ele>
        <time>2018-07-22T14:49:15Z</time>
      </trkpt>
      <trkpt lat="41.198600" lon="-3.574417">
        <ele>2664.0</ele>
        <time>2018-07-22T14:49:16Z</time>
      </trkpt>
      <trkpt lat="41.198650" lon="-3.574300">
        <ele>2668.0</ele>
        <time>2018-07-22T14:49:17Z</time>
      </trkpt>
      <trkpt lat="41.198700" lon="-3.574183">
        <ele>2673.0</ele>
        <time>2018-07-22T14:49:18Z</time>
      </trkpt>
      <trkpt lat="41.198750" lon="-3.574083">
        <ele>2677.0</ele>
        <time>2018-07-22T14:49:19Z</time>
      </trkpt>
      <trkpt lat="41.198783" lon="-3.573983">
        <ele>2681.0</ele>
        <time>2018-07-22T14:49:20Z</time>
      </trkpt>
      <trkpt lat="41.198833" lon="-3.573867">
        <ele>2684.0</ele>
        <time>2018-07-22T14:49:21Z</time>
      </trkpt>
      <trkpt lat="41.198850" lon="-3.573750">
        <ele>2686.0</ele>
        <time>2018-07-22T14:49:22Z</time>
      </trkpt>
      <trkpt lat="41.198867" lon="-3.573633">
        <ele>2687.0</ele>
        <time>2018-07-22T14:49:23Z</time>
      </trkpt>
      <trkpt lat="41.198850" lon="-3.573483">
        <ele>2688.0</ele>
        <time>2018-07-22T14:49:24Z</time>
      </trkpt>
      <trkpt lat="41.198817" lon="-3.573333">
        <ele>2689.0</ele>
        <time>2018-07-22T14:49:25Z</time>
      </trkpt>
      <trkpt lat="41.198750" lon="-3.573200">
        <ele>2690.0</ele>
        <time>2018-07-22T14:49:26Z</time>
      </trkpt>
      <trkpt lat="41.198683" lon="-3.573067">
        <ele>2692.0</ele>
        <time>2018-07-22T14:49:27Z</time>
      </trkpt>
      <trkpt lat="41.198600" lon="-3.572950">
        <ele>2694.0</ele>
        <time>2018-07-22T14:49:28Z</time>
      </trkpt>
      <trkpt lat="41.198500" lon="-3.572850">
        <ele>2697.0</ele>
        <time>2018-07-22T14:49:29Z</time>
      </trkpt>
      <trkpt lat="41.198383" lon="-3.572800">
        <ele>2700.0</ele>
        <time>2018-07-22T14:49:30Z</time>
      </trkpt>
      <trkpt lat="41.198267" lon="-3.572767">
        <ele>2702.0</ele>
        <time>2018-07-22T14:49:31Z</time>
      </trkpt>
      <trkpt lat="41.198150" lon="-3.572767">
        <ele>2706.0</ele>
        <time>2018-07-22T14:49:32Z</time>
      </trkpt>
      <trkpt lat="41.198033" lon="-3.572767">
        <ele>2712.0</ele>
        <time>2018-07-22T14:49:33Z</time>
      </trkpt>
      <trkpt lat="41.197950" lon="-3.572800">
        <ele>2717.0</ele>
        <time>2018-07-22T14:49:34Z</time>
      </trkpt>
      <trkpt lat="41.197867" lon="-3.572833">
        <ele>2721.0</ele>
        <time>2018-07-22T14:49:35Z</time>
      </trkpt>
      <trkpt lat="41.197817" lon="-3.572900">
        <ele>2723.0</ele>
        <time>2018-07-22T14:49:36Z</time>
      </trkpt>
      <trkpt lat="41.197767" lon="-3.572983">
        <ele>2726.0</ele>
        <time>2018-07-22T14:49:37Z</time>
      </trkpt>
      <trkpt lat="41.197733" lon="-3.573083">
        <ele>2730.0</ele>
        <time>2018-07-22T14:49:38Z</time>
      </trkpt>
      <trkpt lat="41.197717" lon="-3.573167">
        <ele>2735.0</ele>
        <time>2018-07-22T14:49:39Z</time>
      </trkpt>
      <trkpt lat="41.197717" lon="-3.573267">
        <ele>2739.0</ele>
        <time>2018-07-22T14:49:40Z</time>
      </trkpt>
      <trkpt lat="41.197750" lon="-3.573333">
        <ele>2744.0</ele>
        <time>2018-07-22T14:49:41Z</time>
      </trkpt>
      <trkpt lat="41.197767" lon="-3.573383">
        <ele>2748.0</ele>
        <time>2018-07-22T14:49:42Z</time>
      </trkpt>
      <trkpt lat="41.197800" lon="-3.573433">
        <ele>2751.0</ele>
        <time>2018-07-22T14:49:43Z</time>
      </trkpt>
      <trkpt lat="41.197850" lon="-3.573467">
        <ele>2752.0</ele>
        <time>2018-07-22T14:49:44Z</time>
      </trkpt>
      <trkpt lat="41.197917" lon="-3.573500">
        <ele>2753.0</ele>
        <time>2018-07-22T14:49:45Z</time>
      </trkpt>
      <trkpt lat="41.197983" lon="-3.573533">
        <ele>2755.0</ele>
        <time>2018-07-22T14:49:46Z</time>
      </trkpt>
      <trkpt lat="41.198067" lon="-3.573550">
        <ele>2757.0</ele>
        <time>2018-07-22T14:49:47Z</time>
      </trkpt>
      <trkpt lat="41.198167" lon="-3.573550">
        <ele>2759.0</ele>
        <time>2018-07-22T14:49:48Z</time>
      </trkpt>
      <trkpt lat="41.198267" lon="-3.573533">
        <ele>2763.0</ele>
        <time>2018-07-22T14:49:49Z</time>
      </trkpt>
      <trkpt lat="41.198350" lon="-3.573517">
        <ele>2767.0</ele>
        <time>2018-07-22T14:49:50Z</time>
      </trkpt>
      <trkpt lat="41.198433" lon="-3.573467">
        <ele>2770.0</ele>
        <time>2018-07-22T14:49:51Z</time>
      </trkpt>
      <trkpt lat="41.198500" lon="-3.573417">
        <ele>2773.0</ele>
        <time>2018-07-22T14:49:52Z</time>
      </trkpt>
      <trkpt lat="41.198550" lon="-3.573350">
        <ele>2775.0</ele>
        <time>2018-07-22T14:49:53Z</time>
      </trkpt>
      <trkpt lat="41.198617" lon="-3.573300">
        <ele>2776.0</ele>
        <time>2018-07-22T14:49:54Z</time>
      </trkpt>
      <trkpt lat="41.198700" lon="-3.573233">
        <ele>2777.0</ele>
        <time>2018-07-22T14:49:55Z</time>
      </trkpt>
      <trkpt lat="41.198783" lon="-3.573183">
        <ele>2778.0</ele>
        <time>2018-07-22T14:49:56Z</time>
      </trkpt>
      <trkpt lat="41.198867" lon="-3.573117">
        <ele>2779.0</ele>
        <time>2018-07-22T14:49:57Z</time>
      </trkpt>
      <trkpt lat="41.198950" lon="-3.573050">
        <ele>2779.0</ele>
        <time>2018-07-22T14:49:58Z</time>
      </trkpt>
      <trkpt lat="41.199033" lon="-3.572983">
        <ele>2780.0</ele>
        <time>2018-07-22T14:49:59Z</time>
      </trkpt>
      <trkpt lat="41.199117" lon="-3.572917">
        <ele>2780.0</ele>
        <time>2018-07-22T14:50:00Z</time>
      </trkpt>
      <trkpt lat="41.199183" lon="-3.572833">
        <ele>2779.0</ele>
        <time>2018-07-22T14:50:01Z</time>
      </trkpt>
      <trkpt lat="41.199250" lon="-3.572750">
        <ele>2779.0</ele>
        <time>2018-07-22T14:50:02Z</time>
      </trkpt>
      <trkpt lat="41.199333" lon="-3.572667">
        <ele>2778.0</ele>
        <time>2018-07-22T14:50:03Z</time>
      </trkpt>
      <trkpt lat="41.199400" lon="-3.572583">
        <ele>2777.0</ele>
        <time>2018-07-22T14:50:04Z</time>
      </trkpt>
      <trkpt lat="41.199483" lon="-3.572483">
        <ele>2778.0</ele>
        <time>2018-07-22T14:50:05Z</time>
      </trkpt>
      <trkpt lat="41.199550" lon="-3.572400">
        <ele>2779.0</ele>
        <time>2018-07-22T14:50:06Z</time>
      </trkpt>
      <trkpt lat="41.199633" lon="-3.572317">
        <ele>2781.0</ele>
        <time>2018-07-22T14:50:07Z</time>
      </trkpt>
      <trkpt lat="41.199700" lon="-3.572217">
        <ele>2783.0</ele>
        <time>2018-07-22T14:50:08Z</time>
      </trkpt>
      <trkpt lat="41.199767" lon="-3.572133">
        <ele>2785.0</ele>
        <time>2018-07-22T14:50:09Z</time>
      </trkpt>
      <trkpt lat="41.199833" lon="-3.572067">
        <ele>2787.0</ele>
        <time>2018-07-22T14:50:10Z</time>
      </trkpt>
      <trkpt lat="41.199900" lon="-3.571983">
        <ele>2789.0</ele>
        <time>2018-07-22T14:50:11Z</time>
      </trkpt>
      <trkpt lat="41.199983" lon="-3.571900">
        <ele>2791.0</ele>
        <time>2018-07-22T14:50:12Z</time>
      </trkpt>
      <trkpt lat="41.200067" lon="-3.571817">
        <ele>2792.0</ele>
        <time>2018-07-22T14:50:13Z</time>
      </trkpt>
      <trkpt lat="41.200150" lon="-3.571733">
        <ele>2794.0</ele>
        <time>2018-07-22T14:50:14Z</time>
      </trkpt>
      <trkpt lat="41.200233" lon="-3.571650">
        <ele>2796.0</ele>
        <time>2018-07-22T14:50:15Z</time>
      </trkpt>
      <trkpt lat="41.200300" lon="-3.571583">
        <ele>2799.0</ele>
        <time>2018-07-22T14:50:16Z</time>
      </trkpt>
      <trkpt lat="41.200383" lon="-3.571500">
        <ele>2800.0</ele>
        <time>2018-07-22T14:50:17Z</time>
      </trkpt>
      <trkpt lat="41.200450" lon="-3.571417">
        <ele>2801.0</ele>
        <time>2018-07-22T14:50:18Z</time>
      </trkpt>
      <trkpt lat="41.200533" lon="-3.571333">
        <ele>2801.0</ele>
        <time>2018-07-22T14:50:19Z</time>
      </trkpt>
      <trkpt lat="41.200617" lon="-3.571250">
        <ele>2800.0</ele>
        <time>2018-07-22T14:50:20Z</time>
      </trkpt>
      <trkpt lat="41.200717" lon="-3.571167">
        <ele>2799.0</ele>
        <time>2018-07-22T14:50:21Z</time>
      </trkpt>
      <trkpt lat="41.200800" lon="-3.571050">
        <ele>2799.0</ele>
        <time>2018-07-22T14:50:22Z</time>
      </trkpt>
      <trkpt lat="41.200883" lon="-3.570950">
        <ele>2799.0</ele>
        <time>2018-07-22T14:50:23Z</time>
      </trkpt>
      <trkpt lat="41.200950" lon="-3.570850">
        <ele>2800.0</ele>
        <time>2018-07-22T14:50:24Z</time>
      </trkpt>
      <trkpt lat="41.201033" lon="-3.570767">
        <ele>2801.0</ele>
        <time>2018-07-22T14:50:25Z</time>
      </trkpt>
      <trkpt lat="41.201100" lon="-3.570683">
        <ele>2801.0</ele>
        <time>2018-07-22T14:50:26Z</time>
      </trkpt>
      <trkpt lat="41.201167" lon="-3.570600">
        <ele>2800.0</ele>
        <time>2018-07-22T14:50:27Z</time>
      </trkpt>
      <trkpt lat="41.201233" lon="-3.570500">
        <ele>2800.0</ele>
        <time>2018-07-22T14:50:28Z</time>
      </trkpt>
      <trkpt lat="41.201300" lon="-3.570383">
        <ele>2799.0</ele>
        <time>2018-07-22T14:50:29Z</time>
      </trkpt>
      <trkpt lat="41.201383" lon="-3.570267">
        <ele>2799.0</ele>
        <time>2018-07-22T14:50:30Z</time>
      </trkpt>
      <trkpt lat="41.201450" lon="-3.570133">
        <ele>2800.0</ele>
        <time>2018-07-22T14:50:31Z</time>
      </trkpt>
      <trkpt lat="41.201517" lon="-3.570017">
        <ele>2803.0</ele>
        <time>2018-07-22T14:50:32Z</time>
      </trkpt>
      <trkpt lat="41.201567" lon="-3.569917">
        <ele>2805.0</ele>
        <time>2018-07-22T14:50:33Z</time>
      </trkpt>
      <trkpt lat="41.201617" lon="-3.569833">
        <ele>2806.0</ele>
        <time>2018-07-22T14:50:34Z</time>
      </trkpt>
      <trkpt lat="41.201667" lon="-3.569733">
        <ele>2806.0</ele>
        <time>2018-07-22T14:50:35Z</time>
      </trkpt>
      <trkpt lat="41.201733" lon="-3.569650">
        <ele>2804.0</ele>
        <time>2018-07-22T14:50:36Z</time>
      </trkpt>
      <trkpt lat="41.201800" lon="-3.569550">
        <ele>2802.0</ele>
        <time>2018-07-22T14:50:37Z</time>
      </trkpt>
      <trkpt lat="41.201883" lon="-3.569417">
        <ele>2799.0</ele>
        <time>2018-07-22T14:50:38Z</time>
      </trkpt>
      <trkpt lat="41.201983" lon="-3.569267">
        <ele>2798.0</ele>
        <time>2018-07-22T14:50:39Z</time>
      </trkpt>
      <trkpt lat="41.202067" lon="-3.569117">
        <ele>2800.0</ele>
        <time>2018-07-22T14:50:40Z</time>
      </trkpt>
      <trkpt lat="41.202133" lon="-3.569000">
        <ele>2804.0</ele>
        <time>2018-07-22T14:50:41Z</time>
      </trkpt>
      <trkpt lat="41.202183" lon="-3.568900">
        <ele>2807.0</ele>
        <time>2018-07-22T14:50:42Z</time>
      </trkpt>
      <trkpt lat="41.202217" lon="-3.568833">
        <ele>2809.0</ele>
        <time>2018-07-22T14:50:43Z</time>
      </trkpt>
      <trkpt lat="41.202267" lon="-3.568750">
        <ele>2808.0</ele>
        <time>2018-07-22T14:50:44Z</time>
      </trkpt>
      <trkpt lat="41.202333" lon="-3.568667">
        <ele>2805.0</ele>
        <time>2018-07-22T14:50:45Z</time>
      </trkpt>
      <trkpt lat="41.202417" lon="-3.568567">
        <ele>2803.0</ele>
        <time>2018-07-22T14:50:46Z</time>
      </trkpt>
      <trkpt lat="41.202500" lon="-3.568450">
        <ele>2803.0</ele>
        <time>2018-07-22T14:50:47Z</time>
      </trkpt>
      <trkpt lat="41.202583" lon="-3.568317">
        <ele>2805.0</ele>
        <time>2018-07-22T14:50:48Z</time>
      </trkpt>
      <trkpt lat="41.202633" lon="-3.568200">
        <ele>2808.0</ele>
        <time>2018-07-22T14:50:49Z</time>
      </trkpt>
      <trkpt lat="41.202700" lon="-3.568100">
        <ele>2811.0</ele>
        <time>2018-07-22T14:50:50Z</time>
      </trkpt>
      <trkpt lat="41.202750" lon="-3.568000">
        <ele>2814.0</ele>
        <time>2018-07-22T14:50:51Z</time>
      </trkpt>
      <trkpt lat="41.202800" lon="-3.567900">
        <ele>2816.0</ele>
        <time>2018-07-22T14:50:52Z</time>
      </trkpt>
      <trkpt lat="41.202867" lon="-3.567800">
        <ele>2817.0</ele>
        <time>2018-07-22T14:50:53Z</time>
      </trkpt>
      <trkpt lat="41.202933" lon="-3.567700">
        <ele>2818.0</ele>
        <time>2018-07-22T14:50:54Z</time>
      </trkpt>
      <trkpt lat="41.203017" lon="-3.567617">
        <ele>2820.0</ele>
        <time>2018-07-22T14:50:55Z</time>
      </trkpt>
      <trkpt lat="41.203117" lon="-3.567517">
        <ele>2822.0</ele>
        <time>2018-07-22T14:50:56Z</time>
      </trkpt>
      <trkpt lat="41.203200" lon="-3.567433">
        <ele>2826.0</ele>
        <time>2018-07-22T14:50:57Z</time>
      </trkpt>
      <trkpt lat="41.203283" lon="-3.567367">
        <ele>2831.0</ele>
        <time>2018-07-22T14:50:58Z</time>
      </trkpt>
      <trkpt lat="41.203350" lon="-3.567283">
        <ele>2836.0</ele>
        <time>2018-07-22T14:50:59Z</time>
      </trkpt>
      <trkpt lat="41.203400" lon="-3.567200">
        <ele>2839.0</ele>
        <time>2018-07-22T14:51:00Z</time>
      </trkpt>
      <trkpt lat="41.203483" lon="-3.567117">
        <ele>2842.0</ele>
        <time>2018-07-22T14:51:01Z</time>
      </trkpt>
      <trkpt lat="41.203550" lon="-3.567033">
        <ele>2843.0</ele>
        <time>2018-07-22T14:51:02Z</time>
      </trkpt>
      <trkpt lat="41.203617" lon="-3.566933">
        <ele>2844.0</ele>
        <time>2018-07-22T14:51:03Z</time>
      </trkpt>
      <trkpt lat="41.203683" lon="-3.566850">
        <ele>2847.0</ele>
        <time>2018-07-22T14:51:04Z</time>
      </trkpt>
      <trkpt lat="41.203733" lon="-3.566767">
        <ele>2850.0</ele>
        <time>2018-07-22T14:51:05Z</time>
      </trkpt>
      <trkpt lat="41.203783" lon="-3.566700">
        <ele>2852.0</ele>
        <time>2018-07-22T14:51:06Z</time>
      </trkpt>
      <trkpt lat="41.203833" lon="-3.566633">
        <ele>2852.0</ele>
        <time>2018-07-22T14:51:07Z</time>
      </trkpt>
      <trkpt lat="41.203900" lon="-3.566567">
        <ele>2852.0</ele>
        <time>2018-07-22T14:51:08Z</time>
      </trkpt>
      <trkpt lat="41.203983" lon="-3.566483">
        <ele>2851.0</ele>
        <time>2018-07-22T14:51:09Z</time>
      </trkpt>
      <trkpt lat="41.204067" lon="-3.566417">
        <ele>2850.0</ele>
        <time>2018-07-22T14:51:10Z</time>
      </trkpt>
      <trkpt lat="41.204150" lon="-3.566317">
        <ele>2851.0</ele>
        <time>2018-07-22T14:51:11Z</time>
      </trkpt>
      <trkpt lat="41.204217" lon="-3.566217">
        <ele>2854.0</ele>
        <time>2018-07-22T14:51:12Z</time>
      </trkpt>
      <trkpt lat="41.204300" lon="-3.566117">
        <ele>2857.0</ele>
        <time>2018-07-22T14:51:13Z</time>
      </trkpt>
      <trkpt lat="41.204367" lon="-3.566017">
        <ele>2860.0</ele>
        <time>2018-07-22T14:51:14Z</time>
      </trkpt>
      <trkpt lat="41.204450" lon="-3.565917">
        <ele>2862.0</ele>
        <time>2018-07-22T14:51:15Z</time>
      </trkpt>
      <trkpt lat="41.204533" lon="-3.565833">
        <ele>2863.0</ele>
        <time>2018-07-22T14:51:16Z</time>
      </trkpt>
      <trkpt lat="41.204617" lon="-3.565750">
        <ele>2864.0</ele>
        <time>2018-07-22T14:51:17Z</time>
      </trkpt>
      <trkpt lat="41.204700" lon="-3.565667">
        <ele>2865.0</ele>
        <time>2018-07-22T14:51:18Z</time>
      </trkpt>
      <trkpt lat="41.204783" lon="-3.565583">
        <ele>2867.0</ele>
        <time>2018-07-22T14:51:19Z</time>
      </trkpt>
      <trkpt lat="41.204850" lon="-3.565500">
        <ele>2868.0</ele>
        <time>2018-07-22T14:51:20Z</time>
      </trkpt>
      <trkpt lat="41.204917" lon="-3.565433">
        <ele>2870.0</ele>
        <time>2018-07-22T14:51:21Z</time>
      </trkpt>
      <trkpt lat="41.205000" lon="-3.565350">
        <ele>2870.0</ele>
        <time>2018-07-22T14:51:22Z</time>
      </trkpt>
      <trkpt lat="41.205083" lon="-3.565267">
        <ele>2870.0</ele>
        <time>2018-07-22T14:51:23Z</time>
      </trkpt>
      <trkpt lat="41.205167" lon="-3.565183">
        <ele>2870.0</ele>
        <time>2018-07-22T14:51:24Z</time>
      </trkpt>
      <trkpt lat="41.205250" lon="-3.565100">
        <ele>2872.0</ele>
        <time>2018-07-22T14:51:25Z</time>
      </trkpt>
      <trkpt lat="41.205333" lon="-3.565000">
        <ele>2873.0</ele>
        <time>2018-07-22T14:51:26Z</time>
      </trkpt>
      <trkpt lat="41.205400" lon="-3.564900">
        <ele>2874.0</ele>
        <time>2018-07-22T14:51:27Z</time>
      </trkpt>
      <trkpt lat="41.205467" lon="-3.564800">
        <ele>2876.0</ele>
        <time>2018-07-22T14:51:28Z</time>
      </trkpt>
      <trkpt lat="41.205533" lon="-3.564683">
        <ele>2877.0</ele>
        <time>2018-07-22T14:51:29Z</time>
      </trkpt>
      <trkpt lat="41.205600" lon="-3.564567">
        <ele>2878.0</ele>
        <time>2018-07-22T14:51:30Z</time>
      </trkpt>
      <trkpt lat="41.205683" lon="-3.564450">
        <ele>2879.0</ele>
        <time>2018-07-22T14:51:31Z</time>
      </trkpt>
      <trkpt lat="41.205750" lon="-3.564350">
        <ele>2880.0</ele>
        <time>2018-07-22T14:51:32Z</time>
      </trkpt>
      <trkpt lat="41.205833" lon="-3.564250">
        <ele>2881.0</ele>
        <time>2018-07-22T14:51:33Z</time>
      </trkpt>
      <trkpt lat="41.205917" lon="-3.564150">
        <ele>2882.0</ele>
        <time>2018-07-22T14:51:34Z</time>
      </trkpt>
      <trkpt lat="41.206017" lon="-3.564050">
        <ele>2883.0</ele>
        <time>2018-07-22T14:51:35Z</time>
      </trkpt>
      <trkpt lat="41.206100" lon="-3.563950">
        <ele>2884.0</ele>
        <time>2018-07-22T14:51:36Z</time>
      </trkpt>
      <trkpt lat="41.206200" lon="-3.563833">
        <ele>2885.0</ele>
        <time>2018-07-22T14:51:37Z</time>
      </trkpt>
      <trkpt lat="41.206283" lon="-3.563733">
        <ele>2887.0</ele>
        <time>2018-07-22T14:51:38Z</time>
      </trkpt>
      <trkpt lat="41.206383" lon="-3.563617">
        <ele>2890.0</ele>
        <time>2018-07-22T14:51:39Z</time>
      </trkpt>
      <trkpt lat="41.206467" lon="-3.563517">
        <ele>2893.0</ele>
        <time>2018-07-22T14:51:40Z</time>
      </trkpt>
      <trkpt lat="41.206533" lon="-3.563417">
        <ele>2895.0</ele>
        <time>2018-07-22T14:51:41Z</time>
      </trkpt>
      <trkpt lat="41.206600" lon="-3.563300">
        <ele>2896.0</ele>
        <time>2018-07-22T14:51:42Z</time>
      </trkpt>
      <trkpt lat="41.206667" lon="-3.563200">
        <ele>2896.0</ele>
        <time>2018-07-22T14:51:43Z</time>
      </trkpt>
      <trkpt lat="41.206750" lon="-3.563083">
        <ele>2896.0</ele>
        <time>2018-07-22T14:51:44Z</time>
      </trkpt>
      <trkpt lat="41.206833" lon="-3.562983">
        <ele>2894.0</ele>
        <time>2018-07-22T14:51:45Z</time>
      </trkpt>
      <trkpt lat="41.206900" lon="-3.562850">
        <ele>2892.0</ele>
        <time>2018-07-22T14:51:46Z</time>
      </trkpt>
      <trkpt lat="41.206967" lon="-3.562733">
        <ele>2890.0</ele>
        <time>2018-07-22T14:51:47Z</time>
      </trkpt>
      <trkpt lat="41.207033" lon="-3.562600">
        <ele>2887.0</ele>
        <time>2018-07-22T14:51:48Z</time>
      </trkpt>
      <trkpt lat="41.207100" lon="-3.562467">
        <ele>2885.0</ele>
        <time>2018-07-22T14:51:49Z</time>
      </trkpt>
      <trkpt lat="41.207183" lon="-3.562317">
        <ele>2883.0</ele>
        <time>2018-07-22T14:51:50Z</time>
      </trkpt>
      <trkpt lat="41.207267" lon="-3.562167">
        <ele>2882.0</ele>
        <time>2018-07-22T14:51:51Z</time>
      </trkpt>
      <trkpt lat="41.207333" lon="-3.561983">
        <ele>2881.0</ele>
        <time>2018-07-22T14:51:52Z</time>
      </trkpt>
      <trkpt lat="41.207383" lon="-3.561817">
        <ele>2881.0</ele>
        <time>2018-07-22T14:51:53Z</time>
      </trkpt>
      <trkpt lat="41.207450" lon="-3.561633">
        <ele>2881.0</ele>
        <time>2018-07-22T14:51:54Z</time>
      </trkpt>
      <trkpt lat="41.207517" lon="-3.561467">
        <ele>2881.0</ele>
        <time>2018-07-22T14:51:55Z</time>
      </trkpt>
      <trkpt lat="41.207600" lon="-3.561317">
        <ele>2882.0</ele>
        <time>2018-07-22T14:51:56Z</time>
      </trkpt>
      <trkpt lat="41.207683" lon="-3.561167">
        <ele>2883.0</ele>
        <time>2018-07-22T14:51:57Z</time>
      </trkpt>
      <trkpt lat="41.207767" lon="-3.561033">
        <ele>2885.0</ele>
        <time>2018-07-22T14:51:58Z</time>
      </trkpt>
      <trkpt lat="41.207850" lon="-3.560933">
        <ele>2886.0</ele>
        <time>2018-07-22T14:51:59Z</time>
      </trkpt>
      <trkpt lat="41.207933" lon="-3.560817">
        <ele>2886.0</ele>
        <time>2018-07-22T14:52:00Z</time>
      </trkpt>
      <trkpt lat="41.208017" lon="-3.560717">
        <ele>2886.0</ele>
        <time>2018-07-22T14:52:01Z</time>
      </trkpt>
      <trkpt lat="41.208100" lon="-3.560617">
        <ele>2885.0</ele>
        <time>2018-07-22T14:52:02Z</time>
      </trkpt>
      <trkpt lat="41.208183" lon="-3.560517">
        <ele>2884.0</ele>
        <time>2018-07-22T14:52:03Z</time>
      </trkpt>
      <trkpt lat="41.208267" lon="-3.560417">
        <ele>2884.0</ele>
        <time>2018-07-22T14:52:04Z</time>
      </trkpt>
      <trkpt lat="41.208333" lon="-3.560317">
        <ele>2882.0</ele>
        <time>2018-07-22T14:52:05Z</time>
      </trkpt>
      <trkpt lat="41.208417" lon="-3.560217">
        <ele>2879.0</ele>
        <time>2018-07-22T14:52:06Z</time>
      </trkpt>
      <trkpt lat="41.208500" lon="-3.560100">
        <ele>2875.0</ele>
        <time>2018-07-22T14:52:07Z</time>
      </trkpt>
      <trkpt lat="41.208600" lon="-3.559967">
        <ele>2870.0</ele>
        <time>2018-07-22T14:52:08Z</time>
      </trkpt>
      <trkpt lat="41.208717" lon="-3.559833">
        <ele>2866.0</ele>
        <time>2018-07-22T14:52:09Z</time>
      </trkpt>
      <trkpt lat="41.208817" lon="-3.559717">
        <ele>2864.0</ele>
        <time>2018-07-22T14:52:10Z</time>
      </trkpt>
      <trkpt lat="41.208917" lon="-3.559600">
        <ele>2862.0</ele>
        <time>2018-07-22T14:52:11Z</time>
      </trkpt>
      <trkpt lat="41.209017" lon="-3.559483">
        <ele>2859.0</ele>
        <time>2018-07-22T14:52:12Z</time>
      </trkpt>
      <trkpt lat="41.209100" lon="-3.559350">
        <ele>2856.0</ele>
        <time>2018-07-22T14:52:13Z</time>
      </trkpt>
      <trkpt lat="41.209183" lon="-3.559200">
        <ele>2854.0</ele>
        <time>2018-07-22T14:52:14Z</time>
      </trkpt>
      <trkpt lat="41.209267" lon="-3.559067">
        <ele>2852.0</ele>
        <time>2018-07-22T14:52:15Z</time>
      </trkpt>
      <trkpt lat="41.209367" lon="-3.558950">
        <ele>2851.0</ele>
        <time>2018-07-22T14:52:16Z</time>
      </trkpt>
      <trkpt lat="41.209450" lon="-3.558833">
        <ele>2851.0</ele>
        <time>2018-07-22T14:52:17Z</time>
      </trkpt>
      <trkpt lat="41.209533" lon="-3.558717">
        <ele>2852.0</ele>
        <time>2018-07-22T14:52:18Z</time>
      </trkpt>
      <trkpt lat="41.209617" lon="-3.558617">
        <ele>2852.0</ele>
        <time>2018-07-22T14:52:19Z</time>
      </trkpt>
      <trkpt lat="41.209700" lon="-3.558533">
        <ele>2853.0</ele>
        <time>2018-07-22T14:52:20Z</time>
      </trkpt>
      <trkpt lat="41.209800" lon="-3.558467">
        <ele>2853.0</ele>
        <time>2018-07-22T14:52:21Z</time>
      </trkpt>
      <trkpt lat="41.209900" lon="-3.558417">
        <ele>2852.0</ele>
        <time>2018-07-22T14:52:22Z</time>
      </trkpt>
      <trkpt lat="41.210000" lon="-3.558350">
        <ele>2852.0</ele>
        <time>2018-07-22T14:52:23Z</time>
      </trkpt>
      <trkpt lat="41.210100" lon="-3.558300">
        <ele>2850.0</ele>
        <time>2018-07-22T14:52:24Z</time>
      </trkpt>
      <trkpt lat="41.210200" lon="-3.558233">
        <ele>2847.0</ele>
        <time>2018-07-22T14:52:25Z</time>
      </trkpt>
      <trkpt lat="41.210317" lon="-3.558167">
        <ele>2845.0</ele>
        <time>2018-07-22T14:52:26Z</time>
      </trkpt>
      <trkpt lat="41.210450" lon="-3.558083">
        <ele>2844.0</ele>
        <time>2018-07-22T14:52:27Z</time>
      </trkpt>
      <trkpt lat="41.210567" lon="-3.557983">
        <ele>2843.0</ele>
        <time>2018-07-22T14:52:28Z</time>
      </trkpt>
      <trkpt lat="41.210683" lon="-3.557883">
        <ele>2842.0</ele>
        <time>2018-07-22T14:52:29Z</time>
      </trkpt>
      <trkpt lat="41.210800" lon="-3.557800">
        <ele>2842.0</ele>
        <time>2018-07-22T14:52:30Z</time>
      </trkpt>
      <trkpt lat="41.210917" lon="-3.557717">
        <ele>2841.0</ele>
        <time>2018-07-22T14:52:31Z</time>
      </trkpt>
      <trkpt lat="41.211033" lon="-3.557650">
        <ele>2840.0</ele>
        <time>2018-07-22T14:52:32Z</time>
      </trkpt>
      <trkpt lat="41.211150" lon="-3.557600">
        <ele>2838.0</ele>
        <time>2018-07-22T14:52:33Z</time>
      </trkpt>
      <trkpt lat="41.211250" lon="-3.557533">
        <ele>2836.0</ele>
        <time>2018-07-22T14:52:34Z</time>
      </trkpt>
      <trkpt lat="41.211350" lon="-3.557467">
        <ele>2832.0</ele>
        <time>2018-07-22T14:52:35Z</time>
      </trkpt>
      <trkpt lat="41.211467" lon="-3.557400">
        <ele>2828.0</ele>
        <time>2018-07-22T14:52:36Z</time>
      </trkpt>
      <trkpt lat="41.211600" lon="-3.557317">
        <ele>2823.0</ele>
        <time>2018-07-22T14:52:37Z</time>
      </trkpt>
      <trkpt lat="41.211717" lon="-3.557233">
        <ele>2820.0</ele>
        <time>2018-07-22T14:52:38Z</time>
      </trkpt>
      <trkpt lat="41.211833" lon="-3.557133">
        <ele>2817.0</ele>
        <time>2018-07-22T14:52:39Z</time>
      </trkpt>
      <trkpt lat="41.211950" lon="-3.557033">
        <ele>2815.0</ele>
        <time>2018-07-22T14:52:40Z</time>
      </trkpt>
      <trkpt lat="41.212050" lon="-3.556933">
        <ele>2814.0</ele>
        <time>2018-07-22T14:52:41Z</time>
      </trkpt>
      <trkpt lat="41.212150" lon="-3.556833">
        <ele>2811.0</ele>
        <time>2018-07-22T14:52:42Z</time>
      </trkpt>
      <trkpt lat="41.212250" lon="-3.556733">
        <ele>2808.0</ele>
        <time>2018-07-22T14:52:43Z</time>
      </trkpt>
      <trkpt lat="41.212367" lon="-3.556633">
        <ele>2805.0</ele>
        <time>2018-07-22T14:52:44Z</time>
      </trkpt>
      <trkpt lat="41.212467" lon="-3.556500">
        <ele>2801.0</ele>
        <time>2018-07-22T14:52:45Z</time>
      </trkpt>
      <trkpt lat="41.212583" lon="-3.556367">
        <ele>2799.0</ele>
        <time>2018-07-22T14:52:46Z</time>
      </trkpt>
      <trkpt lat="41.212667" lon="-3.556217">
        <ele>2798.0</ele>
        <time>2018-07-22T14:52:47Z</time>
      </trkpt>
      <trkpt lat="41.212750" lon="-3.556083">
        <ele>2797.0</ele>
        <time>2018-07-22T14:52:48Z</time>
      </trkpt>
      <trkpt lat="41.212817" lon="-3.555950">
        <ele>2796.0</ele>
        <time>2018-07-22T14:52:49Z</time>
      </trkpt>
      <trkpt lat="41.212900" lon="-3.555833">
        <ele>2794.0</ele>
        <time>2018-07-22T14:52:50Z</time>
      </trkpt>
      <trkpt lat="41.212967" lon="-3.555717">
        <ele>2790.0</ele>
        <time>2018-07-22T14:52:51Z</time>
      </trkpt>
      <trkpt lat="41.213050" lon="-3.555583">
        <ele>2787.0</ele>
        <time>2018-07-22T14:52:52Z</time>
      </trkpt>
      <trkpt lat="41.213133" lon="-3.555450">
        <ele>2782.0</ele>
        <time>2018-07-22T14:52:53Z</time>
      </trkpt>
      <trkpt lat="41.213233" lon="-3.555317">
        <ele>2779.0</ele>
        <time>2018-07-22T14:52:54Z</time>
      </trkpt>
      <trkpt lat="41.213317" lon="-3.555183">
        <ele>2776.0</ele>
        <time>2018-07-22T14:52:55Z</time>
      </trkpt>
      <trkpt lat="41.213400" lon="-3.555033">
        <ele>2775.0</ele>
        <time>2018-07-22T14:52:56Z</time>
      </trkpt>
      <trkpt lat="41.213483" lon="-3.554900">
        <ele>2773.0</ele>
        <time>2018-07-22T14:52:57Z</time>
      </trkpt>
      <trkpt lat="41.213567" lon="-3.554783">
        <ele>2771.0</ele>
        <time>2018-07-22T14:52:58Z</time>
      </trkpt>
      <trkpt lat="41.213633" lon="-3.554650">
        <ele>2770.0</ele>
        <time>2018-07-22T14:52:59Z</time>
      </trkpt>
      <trkpt lat="41.213717" lon="-3.554517">
        <ele>2767.0</ele>
        <time>2018-07-22T14:53:00Z</time>
      </trkpt>
      <trkpt lat="41.213817" lon="-3.554367">
        <ele>2764.0</ele>
        <time>2018-07-22T14:53:01Z</time>
      </trkpt>
      <trkpt lat="41.213917" lon="-3.554233">
        <ele>2762.0</ele>
        <time>2018-07-22T14:53:02Z</time>
      </trkpt>
      <trkpt lat="41.214000" lon="-3.554083">
        <ele>2760.0</ele>
        <time>2018-07-22T14:53:03Z</time>
      </trkpt>
      <trkpt lat="41.214083" lon="-3.553950">
        <ele>2759.0</ele>
        <time>2018-07-22T14:53:04Z</time>
      </trkpt>
      <trkpt lat="41.214167" lon="-3.553800">
        <ele>2758.0</ele>
        <time>2018-07-22T14:53:05Z</time>
      </trkpt>
      <trkpt lat="41.214250" lon="-3.553650">
        <ele>2756.0</ele>
        <time>2018-07-22T14:53:06Z</time>
      </trkpt>
      <trkpt lat="41.214333" lon="-3.553483">
        <ele>2755.0</ele>
        <time>2018-07-22T14:53:07Z</time>
      </trkpt>
      <trkpt lat="41.214433" lon="-3.553333">
        <ele>2753.0</ele>
        <time>2018-07-22T14:53:08Z</time>
      </trkpt>
      <trkpt lat="41.214517" lon="-3.553183">
        <ele>2753.0</ele>
        <time>2018-07-22T14:53:09Z</time>
      </trkpt>
      <trkpt lat="41.214600" lon="-3.553050">
        <ele>2753.0</ele>
        <time>2018-07-22T14:53:10Z</time>
      </trkpt>
      <trkpt lat="41.214683" lon="-3.552917">
        <ele>2752.0</ele>
        <time>2018-07-22T14:53:11Z</time>
      </trkpt>
      <trkpt lat="41.214767" lon="-3.552800">
        <ele>2750.0</ele>
        <time>2018-07-22T14:53:12Z</time>
      </trkpt>
      <trkpt lat="41.214850" lon="-3.552667">
        <ele>2748.0</ele>
        <time>2018-07-22T14:53:13Z</time>
      </trkpt>
      <trkpt lat="41.214933" lon="-3.552533">
        <ele>2745.0</ele>
        <time>2018-07-22T14:53:14Z</time>
      </trkpt>
      <trkpt lat="41.215017" lon="-3.552383">
        <ele>2743.0</ele>
        <time>2018-07-22T14:53:15Z</time>
      </trkpt>
      <trkpt lat="41.215133" lon="-3.552250">
        <ele>2740.0</ele>
        <time>2018-07-22T14:53:16Z</time>
      </trkpt>
      <trkpt lat="41.215233" lon="-3.552100">
        <ele>2738.0</ele>
        <time>2018-07-22T14:53:17Z</time>
      </trkpt>
      <trkpt lat="41.215317" lon="-3.551950">
        <ele>2737.0</ele>
        <time>2018-07-22T14:53:18Z</time>
      </trkpt>
      <trkpt lat="41.215417" lon="-3.551800">
        <ele>2736.0</ele>
        <time>2018-07-22T14:53:19Z</time>
      </trkpt>
      <trkpt lat="41.215500" lon="-3.551650">
        <ele>2735.0</ele>
        <time>2018-07-22T14:53:20Z</time>
      </trkpt>
      <trkpt lat="41.215600" lon="-3.551500">
        <ele>2733.0</ele>
        <time>2018-07-22T14:53:21Z</time>
      </trkpt>
      <trkpt lat="41.215700" lon="-3.551333">
        <ele>2731.0</ele>
        <time>2018-07-22T14:53:22Z</time>
      </trkpt>
      <trkpt lat="41.215800" lon="-3.551183">
        <ele>2730.0</ele>
        <time>2018-07-22T14:53:23Z</time>
      </trkpt>
      <trkpt lat="41.215883" lon="-3.551050">
        <ele>2729.0</ele>
        <time>2018-07-22T14:53:24Z</time>
      </trkpt>
      <trkpt lat="41.215950" lon="-3.550917">
        <ele>2728.0</ele>
        <time>2018-07-22T14:53:25Z</time>
      </trkpt>
      <trkpt lat="41.216033" lon="-3.550783">
        <ele>2726.0</ele>
        <time>2018-07-22T14:53:26Z</time>
      </trkpt>
      <trkpt lat="41.216100" lon="-3.550633">
        <ele>2723.0</ele>
        <time>2018-07-22T14:53:27Z</time>
      </trkpt>
      <trkpt lat="41.216200" lon="-3.550500">
        <ele>2720.0</ele>
        <time>2018-07-22T14:53:28Z</time>
      </trkpt>
      <trkpt lat="41.216283" lon="-3.550350">
        <ele>2719.0</ele>
        <time>2018-07-22T14:53:29Z</time>
      </trkpt>
      <trkpt lat="41.216367" lon="-3.550217">
        <ele>2717.0</ele>
        <time>2018-07-22T14:53:30Z</time>
      </trkpt>
      <trkpt lat="41.216450" lon="-3.550067">
        <ele>2716.0</ele>
        <time>2018-07-22T14:53:31Z</time>
      </trkpt>
      <trkpt lat="41.216533" lon="-3.549933">
        <ele>2714.0</ele>
        <time>2018-07-22T14:53:32Z</time>
      </trkpt>
      <trkpt lat="41.216617" lon="-3.549800">
        <ele>2712.0</ele>
        <time>2018-07-22T14:53:33Z</time>
      </trkpt>
      <trkpt lat="41.216717" lon="-3.549650">
        <ele>2710.0</ele>
        <time>2018-07-22T14:53:34Z</time>
      </trkpt>
      <trkpt lat="41.216800" lon="-3.549517">
        <ele>2709.0</ele>
        <time>2018-07-22T14:53:35Z</time>
      </trkpt>
      <trkpt lat="41.216900" lon="-3.549400">
        <ele>2707.0</ele>
        <time>2018-07-22T14:53:36Z</time>
      </trkpt>
      <trkpt lat="41.216983" lon="-3.549267">
        <ele>2706.0</ele>
        <time>2018-07-22T14:53:37Z</time>
      </trkpt>
      <trkpt lat="41.217083" lon="-3.549133">
        <ele>2704.0</ele>
        <time>2018-07-22T14:53:38Z</time>
      </trkpt>
      <trkpt lat="41.217183" lon="-3.549000">
        <ele>2703.0</ele>
        <time>2018-07-22T14:53:39Z</time>
      </trkpt>
      <trkpt lat="41.217283" lon="-3.548883">
        <ele>2702.0</ele>
        <time>2018-07-22T14:53:40Z</time>
      </trkpt>
      <trkpt lat="41.217400" lon="-3.548767">
        <ele>2701.0</ele>
        <time>2018-07-22T14:53:41Z</time>
      </trkpt>
      <trkpt lat="41.217500" lon="-3.548650">
        <ele>2701.0</ele>
        <time>2018-07-22T14:53:42Z</time>
      </trkpt>
      <trkpt lat="41.217600" lon="-3.548550">
        <ele>2699.0</ele>
        <time>2018-07-22T14:53:43Z</time>
      </trkpt>
      <trkpt lat="41.217700" lon="-3.548433">
        <ele>2695.0</ele>
        <time>2018-07-22T14:53:44Z</time>
      </trkpt>
      <trkpt lat="41.217800" lon="-3.548300">
        <ele>2691.0</ele>
        <time>2018-07-22T14:53:45Z</time>
      </trkpt>
      <trkpt lat="41.217883" lon="-3.548150">
        <ele>2687.0</ele>
        <time>2018-07-22T14:53:46Z</time>
      </trkpt>
      <trkpt lat="41.217950" lon="-3.548000">
        <ele>2683.0</ele>
        <time>2018-07-22T14:53:47Z</time>
      </trkpt>
      <trkpt lat="41.218017" lon="-3.547850">
        <ele>2679.0</ele>
        <time>2018-07-22T14:53:48Z</time>
      </trkpt>
      <trkpt lat="41.218083" lon="-3.547717">
        <ele>2676.0</ele>
        <time>2018-07-22T14:53:49Z</time>
      </trkpt>
      <trkpt lat="41.218167" lon="-3.547600">
        <ele>2671.0</ele>
        <time>2018-07-22T14:53:50Z</time>
      </trkpt>
      <trkpt lat="41.218267" lon="-3.547517">
        <ele>2667.0</ele>
        <time>2018-07-22T14:53:51Z</time>
      </trkpt>
      <trkpt lat="41.218383" lon="-3.547433">
        <ele>2662.0</ele>
        <time>2018-07-22T14:53:52Z</time>
      </trkpt>
      <trkpt lat="41.218483" lon="-3.547333">
        <ele>2658.0</ele>
        <time>2018-07-22T14:53:53Z</time>
      </trkpt>
      <trkpt lat="41.218583" lon="-3.547233">
        <ele>2654.0</ele>
        <time>2018-07-22T14:53:54Z</time>
      </trkpt>
      <trkpt lat="41.218667" lon="-3.547117">
        <ele>2651.0</ele>
        <time>2018-07-22T14:53:55Z</time>
      </trkpt>
      <trkpt lat="41.218750" lon="-3.547000">
        <ele>2648.0</ele>
        <time>2018-07-22T14:53:56Z</time>
      </trkpt>
      <trkpt lat="41.218833" lon="-3.546883">
        <ele>2644.0</ele>
        <time>2018-07-22T14:53:57Z</time>
      </trkpt>
      <trkpt lat="41.218933" lon="-3.546783">
        <ele>2641.0</ele>
        <time>2018-07-22T14:53:58Z</time>
      </trkpt>
      <trkpt lat="41.219017" lon="-3.546667">
        <ele>2637.0</ele>
        <time>2018-07-22T14:53:59Z</time>
      </trkpt>
      <trkpt lat="41.219117" lon="-3.546550">
        <ele>2634.0</ele>
        <time>2018-07-22T14:54:00Z</time>
      </trkpt>
      <trkpt lat="41.219217" lon="-3.546433">
        <ele>2630.0</ele>
        <time>2018-07-22T14:54:01Z</time>
      </trkpt>
      <trkpt lat="41.219317" lon="-3.546317">
        <ele>2626.0</ele>
        <time>2018-07-22T14:54:02Z</time>
      </trkpt>
      <trkpt lat="41.219433" lon="-3.546200">
        <ele>2623.0</ele>
        <time>2018-07-22T14:54:03Z</time>
      </trkpt>
      <trkpt lat="41.219550" lon="-3.546083">
        <ele>2620.0</ele>
        <time>2018-07-22T14:54:04Z</time>
      </trkpt>
      <trkpt lat="41.219650" lon="-3.545933">
        <ele>2618.0</ele>
        <time>2018-07-22T14:54:05Z</time>
      </trkpt>
      <trkpt lat="41.219750" lon="-3.545800">
        <ele>2615.0</ele>
        <time>2018-07-22T14:54:06Z</time>
      </trkpt>
      <trkpt lat="41.219867" lon="-3.545650">
        <ele>2613.0</ele>
        <time>2018-07-22T14:54:07Z</time>
      </trkpt>
      <trkpt lat="41.219967" lon="-3.545517">
        <ele>2612.0</ele>
        <time>2018-07-22T14:54:08Z</time>
      </trkpt>
      <trkpt lat="41.220067" lon="-3.545400">
        <ele>2611.0</ele>
        <time>2018-07-22T14:54:09Z</time>
      </trkpt>
      <trkpt lat="41.220167" lon="-3.545283">
        <ele>2609.0</ele>
        <time>2018-07-22T14:54:10Z</time>
      </trkpt>
      <trkpt lat="41.220267" lon="-3.545167">
        <ele>2607.0</ele>
        <time>2018-07-22T14:54:11Z</time>
      </trkpt>
      <trkpt lat="41.220367" lon="-3.545033">
        <ele>2605.0</ele>
        <time>2018-07-22T14:54:12Z</time>
      </trkpt>
      <trkpt lat="41.220450" lon="-3.544917">
        <ele>2603.0</ele>
        <time>2018-07-22T14:54:13Z</time>
      </trkpt>
      <trkpt lat="41.220550" lon="-3.544800">
        <ele>2600.0</ele>
        <time>2018-07-22T14:54:14Z</time>
      </trkpt>
      <trkpt lat="41.220650" lon="-3.544683">
        <ele>2598.0</ele>
        <time>2018-07-22T14:54:15Z</time>
      </trkpt>
      <trkpt lat="41.220750" lon="-3.544550">
        <ele>2595.0</ele>
        <time>2018-07-22T14:54:16Z</time>
      </trkpt>
      <trkpt lat="41.220850" lon="-3.544417">
        <ele>2592.0</ele>
        <time>2018-07-22T14:54:17Z</time>
      </trkpt>
      <trkpt lat="41.220950" lon="-3.544300">
        <ele>2590.0</ele>
        <time>2018-07-22T14:54:18Z</time>
      </trkpt>
      <trkpt lat="41.221050" lon="-3.544183">
        <ele>2587.0</ele>
        <time>2018-07-22T14:54:19Z</time>
      </trkpt>
      <trkpt lat="41.221167" lon="-3.544067">
        <ele>2584.0</ele>
        <time>2018-07-22T14:54:20Z</time>
      </trkpt>
      <trkpt lat="41.221267" lon="-3.543933">
        <ele>2580.0</ele>
        <time>2018-07-22T14:54:21Z</time>
      </trkpt>
      <trkpt lat="41.221383" lon="-3.543817">
        <ele>2577.0</ele>
        <time>2018-07-22T14:54:22Z</time>
      </trkpt>
      <trkpt lat="41.221500" lon="-3.543700">
        <ele>2574.0</ele>
        <time>2018-07-22T14:54:23Z</time>
      </trkpt>
      <trkpt lat="41.221617" lon="-3.543583">
        <ele>2571.0</ele>
        <time>2018-07-22T14:54:24Z</time>
      </trkpt>
      <trkpt lat="41.221733" lon="-3.543450">
        <ele>2567.0</ele>
        <time>2018-07-22T14:54:25Z</time>
      </trkpt>
      <trkpt lat="41.221867" lon="-3.543333">
        <ele>2563.0</ele>
        <time>2018-07-22T14:54:26Z</time>
      </trkpt>
      <trkpt lat="41.222000" lon="-3.543217">
        <ele>2559.0</ele>
        <time>2018-07-22T14:54:27Z</time>
      </trkpt>
      <trkpt lat="41.222117" lon="-3.543100">
        <ele>2557.0</ele>
        <time>2018-07-22T14:54:28Z</time>
      </trkpt>
      <trkpt lat="41.222233" lon="-3.543000">
        <ele>2555.0</ele>
        <time>2018-07-22T14:54:29Z</time>
      </trkpt>
      <trkpt lat="41.222350" lon="-3.542900">
        <ele>2552.0</ele>
        <time>2018-07-22T14:54:30Z</time>
      </trkpt>
      <trkpt lat="41.222450" lon="-3.542783">
        <ele>2548.0</ele>
        <time>2018-07-22T14:54:31Z</time>
      </trkpt>
      <trkpt lat="41.222567" lon="-3.542667">
        <ele>2545.0</ele>
        <time>2018-07-22T14:54:32Z</time>
      </trkpt>
      <trkpt lat="41.222683" lon="-3.542550">
        <ele>2541.0</ele>
        <time>2018-07-22T14:54:33Z</time>
      </trkpt>
      <trkpt lat="41.222800" lon="-3.542433">
        <ele>2538.0</ele>
        <time>2018-07-22T14:54:34Z</time>
      </trkpt>
      <trkpt lat="41.222917" lon="-3.542317">
        <ele>2536.0</ele>
        <time>2018-07-22T14:54:35Z</time>
      </trkpt>
      <trkpt lat="41.223017" lon="-3.542183">
        <ele>2534.0</ele>
        <time>2018-07-22T14:54:36Z</time>
      </trkpt>
      <trkpt lat="41.223133" lon="-3.542050">
        <ele>2532.0</ele>
        <time>2018-07-22T14:54:37Z</time>
      </trkpt>
      <trkpt lat="41.223217" lon="-3.541917">
        <ele>2529.0</ele>
        <time>2018-07-22T14:54:38Z</time>
      </trkpt>
      <trkpt lat="41.223317" lon="-3.541783">
        <ele>2525.0</ele>
        <time>2018-07-22T14:54:39Z</time>
      </trkpt>
      <trkpt lat="41.223400" lon="-3.541633">
        <ele>2521.0</ele>
        <time>2018-07-22T14:54:40Z</time>
      </trkpt>
      <trkpt lat="41.223500" lon="-3.541483">
        <ele>2517.0</ele>
        <time>2018-07-22T14:54:41Z</time>
      </trkpt>
      <trkpt lat="41.223600" lon="-3.541333">
        <ele>2513.0</ele>
        <time>2018-07-22T14:54:42Z</time>
      </trkpt>
      <trkpt lat="41.223700" lon="-3.541167">
        <ele>2510.0</ele>
        <time>2018-07-22T14:54:43Z</time>
      </trkpt>
      <trkpt lat="41.223783" lon="-3.541000">
        <ele>2506.0</ele>
        <time>2018-07-22T14:54:44Z</time>
      </trkpt>
      <trkpt lat="41.223883" lon="-3.540833">
        <ele>2504.0</ele>
        <time>2018-07-22T14:54:45Z</time>
      </trkpt>
      <trkpt lat="41.223983" lon="-3.540700">
        <ele>2502.0</ele>
        <time>2018-07-22T14:54:46Z</time>
      </trkpt>
      <trkpt lat="41.224083" lon="-3.540550">
        <ele>2500.0</ele>
        <time>2018-07-22T14:54:47Z</time>
      </trkpt>
      <trkpt lat="41.224183" lon="-3.540417">
        <ele>2498.0</ele>
        <time>2018-07-22T14:54:48Z</time>
      </trkpt>
      <trkpt lat="41.224283" lon="-3.540283">
        <ele>2495.0</ele>
        <time>2018-07-22T14:54:49Z</time>
      </trkpt>
      <trkpt lat="41.224367" lon="-3.540150">
        <ele>2493.0</ele>
        <time>2018-07-22T14:54:50Z</time>
      </trkpt>
      <trkpt lat="41.224450" lon="-3.540000">
        <ele>2491.0</ele>
        <time>2018-07-22T14:54:51Z</time>
      </trkpt>
      <trkpt lat="41.224550" lon="-3.539867">
        <ele>2488.0</ele>
        <time>2018-07-22T14:54:52Z</time>
      </trkpt>
      <trkpt lat="41.224633" lon="-3.539733">
        <ele>2485.0</ele>
        <time>2018-07-22T14:54:53Z</time>
      </trkpt>
      <trkpt lat="41.224717" lon="-3.539600">
        <ele>2482.0</ele>
        <time>2018-07-22T14:54:54Z</time>
      </trkpt>
      <trkpt lat="41.224817" lon="-3.539450">
        <ele>2480.0</ele>
        <time>2018-07-22T14:54:55Z</time>
      </trkpt>
      <trkpt lat="41.224900" lon="-3.539317">
        <ele>2477.0</ele>
        <time>2018-07-22T14:54:56Z</time>
      </trkpt>
      <trkpt lat="41.224983" lon="-3.539167">
        <ele>2475.0</ele>
        <time>2018-07-22T14:54:57Z</time>
      </trkpt>
      <trkpt lat="41.225067" lon="-3.539017">
        <ele>2472.0</ele>
        <time>2018-07-22T14:54:58Z</time>
      </trkpt>
      <trkpt lat="41.225150" lon="-3.538883">
        <ele>2470.0</ele>
        <time>2018-07-22T14:54:59Z</time>
      </trkpt>
      <trkpt lat="41.225250" lon="-3.538750">
        <ele>2468.0</ele>
        <time>2018-07-22T14:55:00Z</time>
      </trkpt>
      <trkpt lat="41.225333" lon="-3.538600">
        <ele>2465.0</ele>
        <time>2018-07-22T14:55:01Z</time>
      </trkpt>
      <trkpt lat="41.225417" lon="-3.538467">
        <ele>2463.0</ele>
        <time>2018-07-22T14:55:02Z</time>
      </trkpt>
      <trkpt lat="41.225500" lon="-3.538317">
        <ele>2460.0</ele>
        <time>2018-07-22T14:55:03Z</time>
      </trkpt>
      <trkpt lat="41.225583" lon="-3.538183">
        <ele>2456.0</ele>
        <time>2018-07-22T14:55:04Z</time>
      </trkpt>
      <trkpt lat="41.225683" lon="-3.538050">
        <ele>2453.0</ele>
        <time>2018-07-22T14:55:05Z</time>
      </trkpt>
      <trkpt lat="41.225783" lon="-3.537900">
        <ele>2450.0</ele>
        <time>2018-07-22T14:55:06Z</time>
      </trkpt>
      <trkpt lat="41.225867" lon="-3.537767">
        <ele>2448.0</ele>
        <time>2018-07-22T14:55:07Z</time>
      </trkpt>
      <trkpt lat="41.225950" lon="-3.537633">
        <ele>2446.0</ele>
        <time>2018-07-22T14:55:08Z</time>
      </trkpt>
      <trkpt lat="41.226033" lon="-3.537517">
        <ele>2444.0</ele>
        <time>2018-07-22T14:55:09Z</time>
      </trkpt>
      <trkpt lat="41.226117" lon="-3.537383">
        <ele>2442.0</ele>
        <time>2018-07-22T14:55:10Z</time>
      </trkpt>
      <trkpt lat="41.226217" lon="-3.537267">
        <ele>2438.0</ele>
        <time>2018-07-22T14:55:11Z</time>
      </trkpt>
      <trkpt lat="41.226300" lon="-3.537133">
        <ele>2435.0</ele>
        <time>2018-07-22T14:55:12Z</time>
      </trkpt>
      <trkpt lat="41.226367" lon="-3.536983">
        <ele>2433.0</ele>
        <time>2018-07-22T14:55:13Z</time>
      </trkpt>
      <trkpt lat="41.226450" lon="-3.536850">
        <ele>2430.0</ele>
        <time>2018-07-22T14:55:14Z</time>
      </trkpt>
      <trkpt lat="41.226533" lon="-3.536733">
        <ele>2428.0</ele>
        <time>2018-07-22T14:55:15Z</time>
      </trkpt>
      <trkpt lat="41.226633" lon="-3.536617">
        <ele>2426.0</ele>
        <time>2018-07-22T14:55:16Z</time>
      </trkpt>
      <trkpt lat="41.226717" lon="-3.536500">
        <ele>2424.0</ele>
        <time>2018-07-22T14:55:17Z</time>
      </trkpt>
      <trkpt lat="41.226800" lon="-3.536400">
        <ele>2422.0</ele>
        <time>2018-07-22T14:55:18Z</time>
      </trkpt>
      <trkpt lat="41.226900" lon="-3.536283">
        <ele>2419.0</ele>
        <time>2018-07-22T14:55:19Z</time>
      </trkpt>
      <trkpt lat="41.226983" lon="-3.536167">
        <ele>2417.0</ele>
        <time>2018-07-22T14:55:20Z</time>
      </trkpt>
      <trkpt lat="41.227083" lon="-3.536033">
        <ele>2414.0</ele>
        <time>2018-07-22T14:55:21Z</time>
      </trkpt>
      <trkpt lat="41.227167" lon="-3.535917">
        <ele>2412.0</ele>
        <time>2018-07-22T14:55:22Z</time>
      </trkpt>
      <trkpt lat="41.227250" lon="-3.535783">
        <ele>2410.0</ele>
        <time>2018-07-22T14:55:23Z</time>
      </trkpt>
      <trkpt lat="41.227333" lon="-3.535650">
        <ele>2409.0</ele>
        <time>2018-07-22T14:55:24Z</time>
      </trkpt>
      <trkpt lat="41.227417" lon="-3.535533">
        <ele>2408.0</ele>
        <time>2018-07-22T14:55:25Z</time>
      </trkpt>
      <trkpt lat="41.227500" lon="-3.535450">
        <ele>2408.0</ele>
        <time>2018-07-22T14:55:26Z</time>
      </trkpt>
      <trkpt lat="41.227583" lon="-3.535367">
        <ele>2407.0</ele>
        <time>2018-07-22T14:55:27Z</time>
      </trkpt>
      <trkpt lat="41.227650" lon="-3.535267">
        <ele>2405.0</ele>
        <time>2018-07-22T14:55:28Z</time>
      </trkpt>
      <trkpt lat="41.227733" lon="-3.535167">
        <ele>2403.0</ele>
        <time>2018-07-22T14:55:29Z</time>
      </trkpt>
      <trkpt lat="41.227833" lon="-3.535067">
        <ele>2402.0</ele>
        <time>2018-07-22T14:55:30Z</time>
      </trkpt>
      <trkpt lat="41.227917" lon="-3.534950">
        <ele>2402.0</ele>
        <time>2018-07-22T14:55:31Z</time>
      </trkpt>
      <trkpt lat="41.227983" lon="-3.534833">
        <ele>2402.0</ele>
        <time>2018-07-22T14:55:32Z</time>
      </trkpt>
      <trkpt lat="41.228050" lon="-3.534717">
        <ele>2403.0</ele>
        <time>2018-07-22T14:55:33Z</time>
      </trkpt>
      <trkpt lat="41.228117" lon="-3.534583">
        <ele>2402.0</ele>
        <time>2018-07-22T14:55:34Z</time>
      </trkpt>
      <trkpt lat="41.228183" lon="-3.534467">
        <ele>2401.0</ele>
        <time>2018-07-22T14:55:35Z</time>
      </trkpt>
      <trkpt lat="41.228250" lon="-3.534333">
        <ele>2400.0</ele>
        <time>2018-07-22T14:55:36Z</time>
      </trkpt>
      <trkpt lat="41.228333" lon="-3.534200">
        <ele>2398.0</ele>
        <time>2018-07-22T14:55:37Z</time>
      </trkpt>
      <trkpt lat="41.228417" lon="-3.534067">
        <ele>2398.0</ele>
        <time>2018-07-22T14:55:38Z</time>
      </trkpt>
      <trkpt lat="41.228500" lon="-3.533933">
        <ele>2400.0</ele>
        <time>2018-07-22T14:55:39Z</time>
      </trkpt>
      <trkpt lat="41.228583" lon="-3.533800">
        <ele>2401.0</ele>
        <time>2018-07-22T14:55:40Z</time>
      </trkpt>
      <trkpt lat="41.228667" lon="-3.533683">
        <ele>2403.0</ele>
        <time>2018-07-22T14:55:41Z</time>
      </trkpt>
      <trkpt lat="41.228733" lon="-3.533583">
        <ele>2404.0</ele>
        <time>2018-07-22T14:55:42Z</time>
      </trkpt>
      <trkpt lat="41.228817" lon="-3.533467">
        <ele>2406.0</ele>
        <time>2018-07-22T14:55:43Z</time>
      </trkpt>
      <trkpt lat="41.228900" lon="-3.533333">
        <ele>2407.0</ele>
        <time>2018-07-22T14:55:44Z</time>
      </trkpt>
      <trkpt lat="41.228983" lon="-3.533217">
        <ele>2409.0</ele>
        <time>2018-07-22T14:55:45Z</time>
      </trkpt>
      <trkpt lat="41.229050" lon="-3.533100">
        <ele>2411.0</ele>
        <time>2018-07-22T14:55:46Z</time>
      </trkpt>
      <trkpt lat="41.229117" lon="-3.532983">
        <ele>2413.0</ele>
        <time>2018-07-22T14:55:47Z</time>
      </trkpt>
      <trkpt lat="41.229167" lon="-3.532883">
        <ele>2414.0</ele>
        <time>2018-07-22T14:55:48Z</time>
      </trkpt>
      <trkpt lat="41.229233" lon="-3.532783">
        <ele>2416.0</ele>
        <time>2018-07-22T14:55:49Z</time>
      </trkpt>
      <trkpt lat="41.229283" lon="-3.532683">
        <ele>2417.0</ele>
        <time>2018-07-22T14:55:50Z</time>
      </trkpt>
      <trkpt lat="41.229350" lon="-3.532600">
        <ele>2417.0</ele>
        <time>2018-07-22T14:55:51Z</time>
      </trkpt>
      <trkpt lat="41.229417" lon="-3.532517">
        <ele>2417.0</ele>
        <time>2018-07-22T14:55:52Z</time>
      </trkpt>
      <trkpt lat="41.229483" lon="-3.532450">
        <ele>2418.0</ele>
        <time>2018-07-22T14:55:53Z</time>
      </trkpt>
      <trkpt lat="41.229550" lon="-3.532367">
        <ele>2418.0</ele>
        <time>2018-07-22T14:55:54Z</time>
      </trkpt>
      <trkpt lat="41.229600" lon="-3.532283">
        <ele>2418.0</ele>
        <time>2018-07-22T14:55:55Z</time>
      </trkpt>
      <trkpt lat="41.229667" lon="-3.532183">
        <ele>2417.0</ele>
        <time>2018-07-22T14:55:56Z</time>
      </trkpt>
      <trkpt lat="41.229733" lon="-3.532117">
        <ele>2416.0</ele>
        <time>2018-07-22T14:55:57Z</time>
      </trkpt>
      <trkpt lat="41.229800" lon="-3.532017">
        <ele>2414.0</ele>
        <time>2018-07-22T14:55:58Z</time>
      </trkpt>
      <trkpt lat="41.229883" lon="-3.531933">
        <ele>2412.0</ele>
        <time>2018-07-22T14:55:59Z</time>
      </trkpt>
      <trkpt lat="41.229950" lon="-3.531850">
        <ele>2409.0</ele>
        <time>2018-07-22T14:56:00Z</time>
      </trkpt>
      <trkpt lat="41.230033" lon="-3.531767">
        <ele>2408.0</ele>
        <time>2018-07-22T14:56:01Z</time>
      </trkpt>
      <trkpt lat="41.230100" lon="-3.531683">
        <ele>2407.0</ele>
        <time>2018-07-22T14:56:02Z</time>
      </trkpt>
      <trkpt lat="41.230183" lon="-3.531600">
        <ele>2405.0</ele>
        <time>2018-07-22T14:56:03Z</time>
      </trkpt>
      <trkpt lat="41.230267" lon="-3.531500">
        <ele>2404.0</ele>
        <time>2018-07-22T14:56:04Z</time>
      </trkpt>
      <trkpt lat="41.230333" lon="-3.531383">
        <ele>2402.0</ele>
        <time>2018-07-22T14:56:05Z</time>
      </trkpt>
      <trkpt lat="41.230433" lon="-3.531267">
        <ele>2402.0</ele>
        <time>2018-07-22T14:56:06Z</time>
      </trkpt>
      <trkpt lat="41.230517" lon="-3.531167">
        <ele>2403.0</ele>
        <time>2018-07-22T14:56:07Z</time>
      </trkpt>
      <trkpt lat="41.230617" lon="-3.531067">
        <ele>2405.0</ele>
        <time>2018-07-22T14:56:08Z</time>
      </trkpt>
      <trkpt lat="41.230700" lon="-3.531000">
        <ele>2407.0</ele>
        <time>2018-07-22T14:56:09Z</time>
      </trkpt>
      <trkpt lat="41.230767" lon="-3.530917">
        <ele>2409.0</ele>
        <time>2018-07-22T14:56:10Z</time>
      </trkpt>
      <trkpt lat="41.230833" lon="-3.530833">
        <ele>2409.0</ele>
        <time>2018-07-22T14:56:11Z</time>
      </trkpt>
      <trkpt lat="41.230917" lon="-3.530750">
        <ele>2409.0</ele>
        <time>2018-07-22T14:56:12Z</time>
      </trkpt>
      <trkpt lat="41.230983" lon="-3.530667">
        <ele>2408.0</ele>
        <time>2018-07-22T14:56:13Z</time>
      </trkpt>
      <trkpt lat="41.231067" lon="-3.530583">
        <ele>2408.0</ele>
        <time>2018-07-22T14:56:14Z</time>
      </trkpt>
      <trkpt lat="41.231150" lon="-3.530483">
        <ele>2408.0</ele>
        <time>2018-07-22T14:56:15Z</time>
      </trkpt>
      <trkpt lat="41.231233" lon="-3.530400">
        <ele>2408.0</ele>
        <time>2018-07-22T14:56:16Z</time>
      </trkpt>
      <trkpt lat="41.231333" lon="-3.530317">
        <ele>2409.0</ele>
        <time>2018-07-22T14:56:17Z</time>
      </trkpt>
      <trkpt lat="41.231417" lon="-3.530233">
        <ele>2410.0</ele>
        <time>2018-07-22T14:56:18Z</time>
      </trkpt>
      <trkpt lat="41.231500" lon="-3.530133">
        <ele>2411.0</ele>
        <time>2018-07-22T14:56:19Z</time>
      </trkpt>
      <trkpt lat="41.231583" lon="-3.530017">
        <ele>2411.0</ele>
        <time>2018-07-22T14:56:20Z</time>
      </trkpt>
      <trkpt lat="41.231667" lon="-3.529917">
        <ele>2413.0</ele>
        <time>2018-07-22T14:56:21Z</time>
      </trkpt>
      <trkpt lat="41.231750" lon="-3.529817">
        <ele>2413.0</ele>
        <time>2018-07-22T14:56:22Z</time>
      </trkpt>
      <trkpt lat="41.231833" lon="-3.529733">
        <ele>2414.0</ele>
        <time>2018-07-22T14:56:23Z</time>
      </trkpt>
      <trkpt lat="41.231933" lon="-3.529650">
        <ele>2414.0</ele>
        <time>2018-07-22T14:56:24Z</time>
      </trkpt>
      <trkpt lat="41.232033" lon="-3.529567">
        <ele>2413.0</ele>
        <time>2018-07-22T14:56:25Z</time>
      </trkpt>
      <trkpt lat="41.232133" lon="-3.529467">
        <ele>2413.0</ele>
        <time>2018-07-22T14:56:26Z</time>
      </trkpt>
      <trkpt lat="41.232233" lon="-3.529367">
        <ele>2412.0</ele>
        <time>2018-07-22T14:56:27Z</time>
      </trkpt>
      <trkpt lat="41.232350" lon="-3.529267">
        <ele>2413.0</ele>
        <time>2018-07-22T14:56:28Z</time>
      </trkpt>
      <trkpt lat="41.232450" lon="-3.529150">
        <ele>2415.0</ele>
        <time>2018-07-22T14:56:29Z</time>
      </trkpt>
      <trkpt lat="41.232550" lon="-3.529033">
        <ele>2418.0</ele>
        <time>2018-07-22T14:56:30Z</time>
      </trkpt>
      <trkpt lat="41.232633" lon="-3.528933">
        <ele>2421.0</ele>
        <time>2018-07-22T14:56:31Z</time>
      </trkpt>
      <trkpt lat="41.232733" lon="-3.528833">
        <ele>2423.0</ele>
        <time>2018-07-22T14:56:32Z</time>
      </trkpt>
      <trkpt lat="41.232817" lon="-3.528733">
        <ele>2424.0</ele>
        <time>2018-07-22T14:56:33Z</time>
      </trkpt>
      <trkpt lat="41.232900" lon="-3.528617">
        <ele>2426.0</ele>
        <time>2018-07-22T14:56:34Z</time>
      </trkpt>
      <trkpt lat="41.233000" lon="-3.528500">
        <ele>2428.0</ele>
        <time>2018-07-22T14:56:35Z</time>
      </trkpt>
      <trkpt lat="41.233100" lon="-3.528367">
        <ele>2431.0</ele>
        <time>2018-07-22T14:56:36Z</time>
      </trkpt>
      <trkpt lat="41.233183" lon="-3.528250">
        <ele>2434.0</ele>
        <time>2018-07-22T14:56:37Z</time>
      </trkpt>
      <trkpt lat="41.233283" lon="-3.528117">
        <ele>2438.0</ele>
        <time>2018-07-22T14:56:38Z</time>
      </trkpt>
      <trkpt lat="41.233383" lon="-3.528000">
        <ele>2442.0</ele>
        <time>2018-07-22T14:56:39Z</time>
      </trkpt>
      <trkpt lat="41.233467" lon="-3.527900">
        <ele>2445.0</ele>
        <time>2018-07-22T14:56:40Z</time>
      </trkpt>
      <trkpt lat="41.233567" lon="-3.527833">
        <ele>2448.0</ele>
        <time>2018-07-22T14:56:41Z</time>
      </trkpt>
      <trkpt lat="41.233667" lon="-3.527783">
        <ele>2449.0</ele>
        <time>2018-07-22T14:56:42Z</time>
      </trkpt>
      <trkpt lat="41.233750" lon="-3.527767">
        <ele>2451.0</ele>
        <time>2018-07-22T14:56:43Z</time>
      </trkpt>
      <trkpt lat="41.233833" lon="-3.527783">
        <ele>2452.0</ele>
        <time>2018-07-22T14:56:44Z</time>
      </trkpt>
      <trkpt lat="41.233900" lon="-3.527850">
        <ele>2453.0</ele>
        <time>2018-07-22T14:56:45Z</time>
      </trkpt>
      <trkpt lat="41.233933" lon="-3.527933">
        <ele>2454.0</ele>
        <time>2018-07-22T14:56:46Z</time>
      </trkpt>
      <trkpt lat="41.233933" lon="-3.528017">
        <ele>2456.0</ele>
        <time>2018-07-22T14:56:47Z</time>
      </trkpt>
      <trkpt lat="41.233883" lon="-3.528067">
        <ele>2459.0</ele>
        <time>2018-07-22T14:56:48Z</time>
      </trkpt>
      <trkpt lat="41.233817" lon="-3.528083">
        <ele>2462.0</ele>
        <time>2018-07-22T14:56:49Z</time>
      </trkpt>
      <trkpt lat="41.233717" lon="-3.528033">
        <ele>2464.0</ele>
        <time>2018-07-22T14:56:50Z</time>
      </trkpt>
      <trkpt lat="41.233633" lon="-3.527950">
        <ele>2465.0</ele>
        <time>2018-07-22T14:56:51Z</time>
      </trkpt>
      <trkpt lat="41.233567" lon="-3.527833">
        <ele>2468.0</ele>
        <time>2018-07-22T14:56:52Z</time>
      </trkpt>
      <trkpt lat="41.233517" lon="-3.527683">
        <ele>2470.0</ele>
        <time>2018-07-22T14:56:53Z</time>
      </trkpt>
      <trkpt lat="41.233500" lon="-3.527500">
        <ele>2472.0</ele>
        <time>2018-07-22T14:56:54Z</time>
      </trkpt>
      <trkpt lat="41.233500" lon="-3.527317">
        <ele>2474.0</ele>
        <time>2018-07-22T14:56:55Z</time>
      </trkpt>
      <trkpt lat="41.233517" lon="-3.527150">
        <ele>2476.0</ele>
        <time>2018-07-22T14:56:56Z</time>
      </trkpt>
      <trkpt lat="41.233550" lon="-3.526967">
        <ele>2479.0</ele>
        <time>2018-07-22T14:56:57Z</time>
      </trkpt>
      <trkpt lat="41.233583" lon="-3.526783">
        <ele>2482.0</ele>
        <time>2018-07-22T14:56:58Z</time>
      </trkpt>
      <trkpt lat="41.233617" lon="-3.526617">
        <ele>2484.0</ele>
        <time>2018-07-22T14:56:59Z</time>
      </trkpt>
      <trkpt lat="41.233667" lon="-3.526467">
        <ele>2485.0</ele>
        <time>2018-07-22T14:57:00Z</time>
      </trkpt>
      <trkpt lat="41.233717" lon="-3.526317">
        <ele>2487.0</ele>
        <time>2018-07-22T14:57:01Z</time>
      </trkpt>
      <trkpt lat="41.233783" lon="-3.526183">
        <ele>2488.0</ele>
        <time>2018-07-22T14:57:02Z</time>
      </trkpt>
      <trkpt lat="41.233850" lon="-3.526050">
        <ele>2489.0</ele>
        <time>2018-07-22T14:57:03Z</time>
      </trkpt>
      <trkpt lat="41.233950" lon="-3.525950">
        <ele>2490.0</ele>
        <time>2018-07-22T14:57:04Z</time>
      </trkpt>
      <trkpt lat="41.234050" lon="-3.525917">
        <ele>2491.0</ele>
        <time>2018-07-22T14:57:05Z</time>
      </trkpt>
      <trkpt lat="41.234150" lon="-3.525917">
        <ele>2492.0</ele>
        <time>2018-07-22T14:57:06Z</time>
      </trkpt>
      <trkpt lat="41.234217" lon="-3.525950">
        <ele>2494.0</ele>
        <time>2018-07-22T14:57:07Z</time>
      </trkpt>
      <trkpt lat="41.234267" lon="-3.526017">
        <ele>2496.0</ele>
        <time>2018-07-22T14:57:08Z</time>
      </trkpt>
      <trkpt lat="41.234267" lon="-3.526100">
        <ele>2498.0</ele>
        <time>2018-07-22T14:57:09Z</time>
      </trkpt>
      <trkpt lat="41.234233" lon="-3.526167">
        <ele>2499.0</ele>
        <time>2018-07-22T14:57:10Z</time>
      </trkpt>
      <trkpt lat="41.234150" lon="-3.526217">
        <ele>2500.0</ele>
        <time>2018-07-22T14:57:11Z</time>
      </trkpt>
      <trkpt lat="41.234067" lon="-3.526233">
        <ele>2502.0</ele>
        <time>2018-07-22T14:57:12Z</time>
      </trkpt>
      <trkpt lat="41.233967" lon="-3.526200">
        <ele>2505.0</ele>
        <time>2018-07-22T14:57:13Z</time>
      </trkpt>
      <trkpt lat="41.233883" lon="-3.526117">
        <ele>2508.0</ele>
        <time>2018-07-22T14:57:14Z</time>
      </trkpt>
      <trkpt lat="41.233817" lon="-3.526000">
        <ele>2510.0</ele>
        <time>2018-07-22T14:57:15Z</time>
      </trkpt>
      <trkpt lat="41.233783" lon="-3.525850">
        <ele>2511.0</ele>
        <time>2018-07-22T14:57:16Z</time>
      </trkpt>
      <trkpt lat="41.233750" lon="-3.525683">
        <ele>2513.0</ele>
        <time>2018-07-22T14:57:17Z</time>
      </trkpt>
      <trkpt lat="41.233750" lon="-3.525500">
        <ele>2514.0</ele>
        <time>2018-07-22T14:57:18Z</time>
      </trkpt>
      <trkpt lat="41.233783" lon="-3.525333">
        <ele>2516.0</ele>
        <time>2018-07-22T14:57:19Z</time>
      </trkpt>
      <trkpt lat="41.233833" lon="-3.525167">
        <ele>2517.0</ele>
        <time>2018-07-22T14:57:20Z</time>
      </trkpt>
      <trkpt lat="41.233917" lon="-3.525017">
        <ele>2518.0</ele>
        <time>2018-07-22T14:57:21Z</time>
      </trkpt>
      <trkpt lat="41.234000" lon="-3.524883">
        <ele>2519.0</ele>
        <time>2018-07-22T14:57:22Z</time>
      </trkpt>
      <trkpt lat="41.234100" lon="-3.524767">
        <ele>2521.0</ele>
        <time>2018-07-22T14:57:23Z</time>
      </trkpt>
      <trkpt lat="41.234200" lon="-3.524667">
        <ele>2523.0</ele>
        <time>2018-07-22T14:57:24Z</time>
      </trkpt>
      <trkpt lat="41.234300" lon="-3.524550">
        <ele>2525.0</ele>
        <time>2018-07-22T14:57:25Z</time>
      </trkpt>
      <trkpt lat="41.234400" lon="-3.524433">
        <ele>2528.0</ele>
        <time>2018-07-22T14:57:26Z</time>
      </trkpt>
      <trkpt lat="41.234483" lon="-3.524317">
        <ele>2530.0</ele>
        <time>2018-07-22T14:57:27Z</time>
      </trkpt>
      <trkpt lat="41.234583" lon="-3.524183">
        <ele>2533.0</ele>
        <time>2018-07-22T14:57:28Z</time>
      </trkpt>
      <trkpt lat="41.234667" lon="-3.524067">
        <ele>2535.0</ele>
        <time>2018-07-22T14:57:29Z</time>
      </trkpt>
      <trkpt lat="41.234767" lon="-3.523967">
        <ele>2537.0</ele>
        <time>2018-07-22T14:57:30Z</time>
      </trkpt>
      <trkpt lat="41.234850" lon="-3.523867">
        <ele>2538.0</ele>
        <time>2018-07-22T14:57:31Z</time>
      </trkpt>
      <trkpt lat="41.234933" lon="-3.523783">
        <ele>2539.0</ele>
        <time>2018-07-22T14:57:32Z</time>
      </trkpt>
      <trkpt lat="41.235033" lon="-3.523683">
        <ele>2540.0</ele>
        <time>2018-07-22T14:57:33Z</time>
      </trkpt>
      <trkpt lat="41.235150" lon="-3.523583">
        <ele>2540.0</ele>
        <time>2018-07-22T14:57:34Z</time>
      </trkpt>
      <trkpt lat="41.235267" lon="-3.523483">
        <ele>2542.0</ele>
        <time>2018-07-22T14:57:35Z</time>
      </trkpt>
      <trkpt lat="41.235367" lon="-3.523400">
        <ele>2544.0</ele>
        <time>2018-07-22T14:57:36Z</time>
      </trkpt>
      <trkpt lat="41.235483" lon="-3.523300">
        <ele>2546.0</ele>
        <time>2018-07-22T14:57:37Z</time>
      </trkpt>
      <trkpt lat="41.235583" lon="-3.523183">
        <ele>2548.0</ele>
        <time>2018-07-22T14:57:38Z</time>
      </trkpt>
      <trkpt lat="41.235683" lon="-3.523100">
        <ele>2550.0</ele>
        <time>2018-07-22T14:57:39Z</time>
      </trkpt>
      <trkpt lat="41.235800" lon="-3.523050">
        <ele>2550.0</ele>
        <time>2018-07-22T14:57:40Z</time>
      </trkpt>
      <trkpt lat="41.235917" lon="-3.523000">
        <ele>2550.0</ele>
        <time>2018-07-22T14:57:41Z</time>
      </trkpt>
      <trkpt lat="41.236017" lon="-3.522967">
        <ele>2551.0</ele>
        <time>2018-07-22T14:57:42Z</time>
      </trkpt>
      <trkpt lat="41.236133" lon="-3.522900">
        <ele>2552.0</ele>
        <time>2018-07-22T14:57:43Z</time>
      </trkpt>
      <trkpt lat="41.236233" lon="-3.522833">
        <ele>2552.0</ele>
        <time>2018-07-22T14:57:44Z</time>
      </trkpt>
      <trkpt lat="41.236333" lon="-3.522750">
        <ele>2553.0</ele>
        <time>2018-07-22T14:57:45Z</time>
      </trkpt>
      <trkpt lat="41.236417" lon="-3.522667">
        <ele>2554.0</ele>
        <time>2018-07-22T14:57:46Z</time>
      </trkpt>
      <trkpt lat="41.236517" lon="-3.522600">
        <ele>2554.0</ele>
        <time>2018-07-22T14:57:47Z</time>
      </trkpt>
      <trkpt lat="41.236600" lon="-3.522517">
        <ele>2554.0</ele>
        <time>2018-07-22T14:57:48Z</time>
      </trkpt>
      <trkpt lat="41.236700" lon="-3.522433">
        <ele>2554.0</ele>
        <time>2018-07-22T14:57:49Z</time>
      </trkpt>
      <trkpt lat="41.236800" lon="-3.522350">
        <ele>2554.0</ele>
        <time>2018-07-22T14:57:50Z</time>
      </trkpt>
      <trkpt lat="41.236917" lon="-3.522250">
        <ele>2554.0</ele>
        <time>2018-07-22T14:57:51Z</time>
      </trkpt>
      <trkpt lat="41.237017" lon="-3.522167">
        <ele>2554.0</ele>
        <time>2018-07-22T14:57:52Z</time>
      </trkpt>
      <trkpt lat="41.237117" lon="-3.522067">
        <ele>2556.0</ele>
        <time>2018-07-22T14:57:53Z</time>
      </trkpt>
      <trkpt lat="41.237217" lon="-3.521967">
        <ele>2557.0</ele>
        <time>2018-07-22T14:57:54Z</time>
      </trkpt>
      <trkpt lat="41.237317" lon="-3.521850">
        <ele>2558.0</ele>
        <time>2018-07-22T14:57:55Z</time>
      </trkpt>
      <trkpt lat="41.237400" lon="-3.521750">
        <ele>2560.0</ele>
        <time>2018-07-22T14:57:56Z</time>
      </trkpt>
      <trkpt lat="41.237500" lon="-3.521650">
        <ele>2561.0</ele>
        <time>2018-07-22T14:57:57Z</time>
      </trkpt>
      <trkpt lat="41.237583" lon="-3.521533">
        <ele>2561.0</ele>
        <time>2018-07-22T14:57:58Z</time>
      </trkpt>
      <trkpt lat="41.237667" lon="-3.521433">
        <ele>2561.0</ele>
        <time>2018-07-22T14:57:59Z</time>
      </trkpt>
      <trkpt lat="41.237767" lon="-3.521317">
        <ele>2560.0</ele>
        <time>2018-07-22T14:58:00Z</time>
      </trkpt>
      <trkpt lat="41.237867" lon="-3.521200">
        <ele>2559.0</ele>
        <time>2018-07-22T14:58:01Z</time>
      </trkpt>
      <trkpt lat="41.237983" lon="-3.521100">
        <ele>2559.0</ele>
        <time>2018-07-22T14:58:02Z</time>
      </trkpt>
      <trkpt lat="41.238083" lon="-3.520983">
        <ele>2559.0</ele>
        <time>2018-07-22T14:58:03Z</time>
      </trkpt>
      <trkpt lat="41.238183" lon="-3.520867">
        <ele>2560.0</ele>
        <time>2018-07-22T14:58:04Z</time>
      </trkpt>
      <trkpt lat="41.238283" lon="-3.520733">
        <ele>2561.0</ele>
        <time>2018-07-22T14:58:05Z</time>
      </trkpt>
      <trkpt lat="41.238383" lon="-3.520617">
        <ele>2561.0</ele>
        <time>2018-07-22T14:58:06Z</time>
      </trkpt>
      <trkpt lat="41.238467" lon="-3.520500">
        <ele>2560.0</ele>
        <time>2018-07-22T14:58:07Z</time>
      </trkpt>
      <trkpt lat="41.238583" lon="-3.520383">
        <ele>2559.0</ele>
        <time>2018-07-22T14:58:08Z</time>
      </trkpt>
      <trkpt lat="41.238683" lon="-3.520267">
        <ele>2558.0</ele>
        <time>2018-07-22T14:58:09Z</time>
      </trkpt>
      <trkpt lat="41.238800" lon="-3.520150">
        <ele>2558.0</ele>
        <time>2018-07-22T14:58:10Z</time>
      </trkpt>
      <trkpt lat="41.238900" lon="-3.520033">
        <ele>2558.0</ele>
        <time>2018-07-22T14:58:11Z</time>
      </trkpt>
      <trkpt lat="41.239000" lon="-3.519917">
        <ele>2558.0</ele>
        <time>2018-07-22T14:58:12Z</time>
      </trkpt>
      <trkpt lat="41.239100" lon="-3.519800">
        <ele>2558.0</ele>
        <time>2018-07-22T14:58:13Z</time>
      </trkpt>
      <trkpt lat="41.239217" lon="-3.519683">
        <ele>2557.0</ele>
        <time>2018-07-22T14:58:14Z</time>
      </trkpt>
      <trkpt lat="41.239317" lon="-3.519567">
        <ele>2557.0</ele>
        <time>2018-07-22T14:58:15Z</time>
      </trkpt>
      <trkpt lat="41.239417" lon="-3.519433">
        <ele>2556.0</ele>
        <time>2018-07-22T14:58:16Z</time>
      </trkpt>
      <trkpt lat="41.239517" lon="-3.519300">
        <ele>2556.0</ele>
        <time>2018-07-22T14:58:17Z</time>
      </trkpt>
      <trkpt lat="41.239617" lon="-3.519183">
        <ele>2556.0</ele>
        <time>2018-07-22T14:58:18Z</time>
      </trkpt>
      <trkpt lat="41.239717" lon="-3.519050">
        <ele>2555.0</ele>
        <time>2018-07-22T14:58:19Z</time>
      </trkpt>
      <trkpt lat="41.239817" lon="-3.518933">
        <ele>2554.0</ele>
        <time>2018-07-22T14:58:20Z</time>
      </trkpt>
      <trkpt lat="41.239933" lon="-3.518833">
        <ele>2554.0</ele>
        <time>2018-07-22T14:58:21Z</time>
      </trkpt>
      <trkpt lat="41.240033" lon="-3.518733">
        <ele>2553.0</ele>
        <time>2018-07-22T14:58:22Z</time>
      </trkpt>
      <trkpt lat="41.240133" lon="-3.518617">
        <ele>2552.0</ele>
        <time>2018-07-22T14:58:23Z</time>
      </trkpt>
      <trkpt lat="41.240250" lon="-3.518483">
        <ele>2551.0</ele>
        <time>2018-07-22T14:58:24Z</time>
      </trkpt>
      <trkpt lat="41.240350" lon="-3.518367">
        <ele>2550.0</ele>
        <time>2018-07-22T14:58:25Z</time>
      </trkpt>
      <trkpt lat="41.240450" lon="-3.518233">
        <ele>2549.0</ele>
        <time>2018-07-22T14:58:26Z</time>
      </trkpt>
      <trkpt lat="41.240567" lon="-3.518117">
        <ele>2547.0</ele>
        <time>2018-07-22T14:58:27Z</time>
      </trkpt>
      <trkpt lat="41.240683" lon="-3.518000">
        <ele>2546.0</ele>
        <time>2018-07-22T14:58:28Z</time>
      </trkpt>
      <trkpt lat="41.240800" lon="-3.517867">
        <ele>2544.0</ele>
        <time>2018-07-22T14:58:29Z</time>
      </trkpt>
      <trkpt lat="41.240917" lon="-3.517733">
        <ele>2543.0</ele>
        <time>2018-07-22T14:58:30Z</time>
      </trkpt>
      <trkpt lat="41.241017" lon="-3.517600">
        <ele>2542.0</ele>
        <time>2018-07-22T14:58:31Z</time>
      </trkpt>
      <trkpt lat="41.241100" lon="-3.517467">
        <ele>2541.0</ele>
        <time>2018-07-22T14:58:32Z</time>
      </trkpt>
      <trkpt lat="41.241200" lon="-3.517333">
        <ele>2539.0</ele>
        <time>2018-07-22T14:58:33Z</time>
      </trkpt>
      <trkpt lat="41.241317" lon="-3.517200">
        <ele>2537.0</ele>
        <time>2018-07-22T14:58:34Z</time>
      </trkpt>
      <trkpt lat="41.241417" lon="-3.517067">
        <ele>2535.0</ele>
        <time>2018-07-22T14:58:35Z</time>
      </trkpt>
      <trkpt lat="41.241533" lon="-3.516933">
        <ele>2534.0</ele>
        <time>2018-07-22T14:58:36Z</time>
      </trkpt>
      <trkpt lat="41.241633" lon="-3.516817">
        <ele>2533.0</ele>
        <time>2018-07-22T14:58:37Z</time>
      </trkpt>
      <trkpt lat="41.241733" lon="-3.516683">
        <ele>2531.0</ele>
        <time>2018-07-22T14:58:38Z</time>
      </trkpt>
      <trkpt lat="41.241833" lon="-3.516550">
        <ele>2529.0</ele>
        <time>2018-07-22T14:58:39Z</time>
      </trkpt>
      <trkpt lat="41.241933" lon="-3.516417">
        <ele>2526.0</ele>
        <time>2018-07-22T14:58:40Z</time>
      </trkpt>
      <trkpt lat="41.242050" lon="-3.516300">
        <ele>2523.0</ele>
        <time>2018-07-22T14:58:41Z</time>
      </trkpt>
      <trkpt lat="41.242183" lon="-3.516167">
        <ele>2521.0</ele>
        <time>2018-07-22T14:58:42Z</time>
      </trkpt>
      <trkpt lat="41.242317" lon="-3.516050">
        <ele>2521.0</ele>
        <time>2018-07-22T14:58:43Z</time>
      </trkpt>
      <trkpt lat="41.242417" lon="-3.515933">
        <ele>2521.0</ele>
        <time>2018-07-22T14:58:44Z</time>
      </trkpt>
      <trkpt lat="41.242533" lon="-3.515817">
        <ele>2521.0</ele>
        <time>2018-07-22T14:58:45Z</time>
      </trkpt>
      <trkpt lat="41.242617" lon="-3.515700">
        <ele>2520.0</ele>
        <time>2018-07-22T14:58:46Z</time>
      </trkpt>
      <trkpt lat="41.242717" lon="-3.515583">
        <ele>2519.0</ele>
        <time>2018-07-22T14:58:47Z</time>
      </trkpt>
      <trkpt lat="41.242817" lon="-3.515467">
        <ele>2518.0</ele>
        <time>2018-07-22T14:58:48Z</time>
      </trkpt>
      <trkpt lat="41.242917" lon="-3.515350">
        <ele>2515.0</ele>
        <time>2018-07-22T14:58:49Z</time>
      </trkpt>
      <trkpt lat="41.243017" lon="-3.515217">
        <ele>2514.0</ele>
        <time>2018-07-22T14:58:50Z</time>
      </trkpt>
      <trkpt lat="41.243133" lon="-3.515100">
        <ele>2512.0</ele>
        <time>2018-07-22T14:58:51Z</time>
      </trkpt>
      <trkpt lat="41.243233" lon="-3.514967">
        <ele>2512.0</ele>
        <time>2018-07-22T14:58:52Z</time>
      </trkpt>
      <trkpt lat="41.243333" lon="-3.514867">
        <ele>2512.0</ele>
        <time>2018-07-22T14:58:53Z</time>
      </trkpt>
      <trkpt lat="41.243450" lon="-3.514767">
        <ele>2512.0</ele>
        <time>2018-07-22T14:58:54Z</time>
      </trkpt>
      <trkpt lat="41.243533" lon="-3.514667">
        <ele>2512.0</ele>
        <time>2018-07-22T14:58:55Z</time>
      </trkpt>
      <trkpt lat="41.243633" lon="-3.514583">
        <ele>2511.0</ele>
        <time>2018-07-22T14:58:56Z</time>
      </trkpt>
      <trkpt lat="41.243733" lon="-3.514483">
        <ele>2509.0</ele>
        <time>2018-07-22T14:58:57Z</time>
      </trkpt>
      <trkpt lat="41.243850" lon="-3.514383">
        <ele>2507.0</ele>
        <time>2018-07-22T14:58:58Z</time>
      </trkpt>
      <trkpt lat="41.243967" lon="-3.514283">
        <ele>2505.0</ele>
        <time>2018-07-22T14:58:59Z</time>
      </trkpt>
      <trkpt lat="41.244083" lon="-3.514200">
        <ele>2504.0</ele>
        <time>2018-07-22T14:59:00Z</time>
      </trkpt>
      <trkpt lat="41.244200" lon="-3.514117">
        <ele>2503.0</ele>
        <time>2018-07-22T14:59:01Z</time>
      </trkpt>
      <trkpt lat="41.244300" lon="-3.514033">
        <ele>2502.0</ele>
        <time>2018-07-22T14:59:02Z</time>
      </trkpt>
      <trkpt lat="41.244417" lon="-3.513950">
        <ele>2501.0</ele>
        <time>2018-07-22T14:59:03Z</time>
      </trkpt>
      <trkpt lat="41.244517" lon="-3.513850">
        <ele>2499.0</ele>
        <time>2018-07-22T14:59:04Z</time>
      </trkpt>
      <trkpt lat="41.244633" lon="-3.513750">
        <ele>2497.0</ele>
        <time>2018-07-22T14:59:05Z</time>
      </trkpt>
      <trkpt lat="41.244750" lon="-3.513667">
        <ele>2496.0</ele>
        <time>2018-07-22T14:59:06Z</time>
      </trkpt>
      <trkpt lat="41.244867" lon="-3.513567">
        <ele>2495.0</ele>
        <time>2018-07-22T14:59:07Z</time>
      </trkpt>
      <trkpt lat="41.244983" lon="-3.513483">
        <ele>2495.0</ele>
        <time>2018-07-22T14:59:08Z</time>
      </trkpt>
      <trkpt lat="41.245083" lon="-3.513383">
        <ele>2493.0</ele>
        <time>2018-07-22T14:59:09Z</time>
      </trkpt>
      <trkpt lat="41.245200" lon="-3.513283">
        <ele>2492.0</ele>
        <time>2018-07-22T14:59:10Z</time>
      </trkpt>
      <trkpt lat="41.245300" lon="-3.513183">
        <ele>2490.0</ele>
        <time>2018-07-22T14:59:11Z</time>
      </trkpt>
      <trkpt lat="41.245417" lon="-3.513067">
        <ele>2488.0</ele>
        <time>2018-07-22T14:59:12Z</time>
      </trkpt>
      <trkpt lat="41.245533" lon="-3.512967">
        <ele>2487.0</ele>
        <time>2018-07-22T14:59:13Z</time>
      </trkpt>
      <trkpt lat="41.245650" lon="-3.512867">
        <ele>2486.0</ele>
        <time>2018-07-22T14:59:14Z</time>
      </trkpt>
      <trkpt lat="41.245750" lon="-3.512767">
        <ele>2484.0</ele>
        <time>2018-07-22T14:59:15Z</time>
      </trkpt>
      <trkpt lat="41.245867" lon="-3.512650">
        <ele>2482.0</ele>
        <time>2018-07-22T14:59:16Z</time>
      </trkpt>
      <trkpt lat="41.245983" lon="-3.512550">
        <ele>2480.0</ele>
        <time>2018-07-22T14:59:17Z</time>
      </trkpt>
      <trkpt lat="41.246100" lon="-3.512450">
        <ele>2478.0</ele>
        <time>2018-07-22T14:59:18Z</time>
      </trkpt>
      <trkpt lat="41.246217" lon="-3.512350">
        <ele>2476.0</ele>
        <time>2018-07-22T14:59:19Z</time>
      </trkpt>
      <trkpt lat="41.246333" lon="-3.512250">
        <ele>2474.0</ele>
        <time>2018-07-22T14:59:20Z</time>
      </trkpt>
      <trkpt lat="41.246450" lon="-3.512150">
        <ele>2473.0</ele>
        <time>2018-07-22T14:59:21Z</time>
      </trkpt>
      <trkpt lat="41.246567" lon="-3.512033">
        <ele>2471.0</ele>
        <time>2018-07-22T14:59:22Z</time>
      </trkpt>
      <trkpt lat="41.246683" lon="-3.511917">
        <ele>2469.0</ele>
        <time>2018-07-22T14:59:23Z</time>
      </trkpt>
      <trkpt lat="41.246800" lon="-3.511800">
        <ele>2467.0</ele>
        <time>2018-07-22T14:59:24Z</time>
      </trkpt>
      <trkpt lat="41.246917" lon="-3.511667">
        <ele>2465.0</ele>
        <time>2018-07-22T14:59:25Z</time>
      </trkpt>
      <trkpt lat="41.247033" lon="-3.511550">
        <ele>2464.0</ele>
        <time>2018-07-22T14:59:26Z</time>
      </trkpt>
      <trkpt lat="41.247133" lon="-3.511417">
        <ele>2463.0</ele>
        <time>2018-07-22T14:59:27Z</time>
      </trkpt>
      <trkpt lat="41.247233" lon="-3.511283">
        <ele>2462.0</ele>
        <time>2018-07-22T14:59:28Z</time>
      </trkpt>
      <trkpt lat="41.247350" lon="-3.511167">
        <ele>2461.0</ele>
        <time>2018-07-22T14:59:29Z</time>
      </trkpt>
      <trkpt lat="41.247450" lon="-3.511050">
        <ele>2459.0</ele>
        <time>2018-07-22T14:59:30Z</time>
      </trkpt>
      <trkpt lat="41.247567" lon="-3.510950">
        <ele>2458.0</ele>
        <time>2018-07-22T14:59:31Z</time>
      </trkpt>
      <trkpt lat="41.247667" lon="-3.510817">
        <ele>2456.0</ele>
        <time>2018-07-22T14:59:32Z</time>
      </trkpt>
      <trkpt lat="41.247783" lon="-3.510700">
        <ele>2454.0</ele>
        <time>2018-07-22T14:59:33Z</time>
      </trkpt>
      <trkpt lat="41.247883" lon="-3.510567">
        <ele>2452.0</ele>
        <time>2018-07-22T14:59:34Z</time>
      </trkpt>
      <trkpt lat="41.248000" lon="-3.510433">
        <ele>2449.0</ele>
        <time>2018-07-22T14:59:35Z</time>
      </trkpt>
      <trkpt lat="41.248117" lon="-3.510317">
        <ele>2448.0</ele>
        <time>2018-07-22T14:59:36Z</time>
      </trkpt>
      <trkpt lat="41.248233" lon="-3.510200">
        <ele>2446.0</ele>
        <time>2018-07-22T14:59:37Z</time>
      </trkpt>
      <trkpt lat="41.248350" lon="-3.510100">
        <ele>2445.0</ele>
        <time>2018-07-22T14:59:38Z</time>
      </trkpt>
      <trkpt lat="41.248450" lon="-3.509983">
        <ele>2444.0</ele>
        <time>2018-07-22T14:59:39Z</time>
      </trkpt>
      <trkpt lat="41.248550" lon="-3.509867">
        <ele>2442.0</ele>
        <time>2018-07-22T14:59:40Z</time>
      </trkpt>
      <trkpt lat="41.248667" lon="-3.509733">
        <ele>2439.0</ele>
        <time>2018-07-22T14:59:41Z</time>
      </trkpt>
      <trkpt lat="41.248783" lon="-3.509617">
        <ele>2437.0</ele>
        <time>2018-07-22T14:59:42Z</time>
      </trkpt>
      <trkpt lat="41.248900" lon="-3.509500">
        <ele>2435.0</ele>
        <time>2018-07-22T14:59:43Z</time>
      </trkpt>
      <trkpt lat="41.249017" lon="-3.509383">
        <ele>2434.0</ele>
        <time>2018-07-22T14:59:44Z</time>
      </trkpt>
      <trkpt lat="41.249117" lon="-3.509267">
        <ele>2433.0</ele>
        <time>2018-07-22T14:59:45Z</time>
      </trkpt>
      <trkpt lat="41.249217" lon="-3.509150">
        <ele>2432.0</ele>
        <time>2018-07-22T14:59:46Z</time>
      </trkpt>
      <trkpt lat="41.249333" lon="-3.509033">
        <ele>2430.0</ele>
        <time>2018-07-22T14:59:47Z</time>
      </trkpt>
      <trkpt lat="41.249433" lon="-3.508900">
        <ele>2427.0</ele>
        <time>2018-07-22T14:59:48Z</time>
      </trkpt>
      <trkpt lat="41.249550" lon="-3.508783">
        <ele>2425.0</ele>
        <time>2018-07-22T14:59:49Z</time>
      </trkpt>
      <trkpt lat="41.249667" lon="-3.508650">
        <ele>2422.0</ele>
        <time>2018-07-22T14:59:50Z</time>
      </trkpt>
      <trkpt lat="41.249783" lon="-3.508517">
        <ele>2421.0</ele>
        <time>2018-07-22T14:59:51Z</time>
      </trkpt>
      <trkpt lat="41.249883" lon="-3.508383">
        <ele>2419.0</ele>
        <time>2018-07-22T14:59:52Z</time>
      </trkpt>
      <trkpt lat="41.249983" lon="-3.508267">
        <ele>2418.0</ele>
        <time>2018-07-22T14:59:53Z</time>
      </trkpt>
      <trkpt lat="41.250100" lon="-3.508133">
        <ele>2415.0</ele>
        <time>2018-07-22T14:59:54Z</time>
      </trkpt>
      <trkpt lat="41.250200" lon="-3.508000">
        <ele>2412.0</ele>
        <time>2018-07-22T14:59:55Z</time>
      </trkpt>
      <trkpt lat="41.250317" lon="-3.507867">
        <ele>2409.0</ele>
        <time>2018-07-22T14:59:56Z</time>
      </trkpt>
      <trkpt lat="41.250450" lon="-3.507733">
        <ele>2407.0</ele>
        <time>2018-07-22T14:59:57Z</time>
      </trkpt>
      <trkpt lat="41.250567" lon="-3.507583">
        <ele>2406.0</ele>
        <time>2018-07-22T14:59:58Z</time>
      </trkpt>
      <trkpt lat="41.250683" lon="-3.507450">
        <ele>2405.0</ele>
        <time>2018-07-22T14:59:59Z</time>
      </trkpt>
      <trkpt lat="41.250783" lon="-3.507317">
        <ele>2404.0</ele>
        <time>2018-07-22T15:00:00Z</time>
      </trkpt>
      <trkpt lat="41.250883" lon="-3.507183">
        <ele>2402.0</ele>
        <time>2018-07-22T15:00:01Z</time>
      </trkpt>
      <trkpt lat="41.251000" lon="-3.507050">
        <ele>2400.0</ele>
        <time>2018-07-22T15:00:02Z</time>
      </trkpt>
      <trkpt lat="41.251117" lon="-3.506917">
        <ele>2398.0</ele>
        <time>2018-07-22T15:00:03Z</time>
      </trkpt>
      <trkpt lat="41.251250" lon="-3.506800">
        <ele>2396.0</ele>
        <time>2018-07-22T15:00:04Z</time>
      </trkpt>
      <trkpt lat="41.251350" lon="-3.506700">
        <ele>2396.0</ele>
        <time>2018-07-22T15:00:05Z</time>
      </trkpt>
      <trkpt lat="41.251467" lon="-3.506583">
        <ele>2395.0</ele>
        <time>2018-07-22T15:00:06Z</time>
      </trkpt>
      <trkpt lat="41.251567" lon="-3.506467">
        <ele>2393.0</ele>
        <time>2018-07-22T15:00:07Z</time>
      </trkpt>
      <trkpt lat="41.251650" lon="-3.506350">
        <ele>2391.0</ele>
        <time>2018-07-22T15:00:08Z</time>
      </trkpt>
      <trkpt lat="41.251767" lon="-3.506233">
        <ele>2387.0</ele>
        <time>2018-07-22T15:00:09Z</time>
      </trkpt>
      <trkpt lat="41.251883" lon="-3.506100">
        <ele>2384.0</ele>
        <time>2018-07-22T15:00:10Z</time>
      </trkpt>
      <trkpt lat="41.252000" lon="-3.505983">
        <ele>2381.0</ele>
        <time>2018-07-22T15:00:11Z</time>
      </trkpt>
      <trkpt lat="41.252117" lon="-3.505850">
        <ele>2380.0</ele>
        <time>2018-07-22T15:00:12Z</time>
      </trkpt>
      <trkpt lat="41.252233" lon="-3.505733">
        <ele>2379.0</ele>
        <time>2018-07-22T15:00:13Z</time>
      </trkpt>
      <trkpt lat="41.252333" lon="-3.505617">
        <ele>2378.0</ele>
        <time>2018-07-22T15:00:14Z</time>
      </trkpt>
      <trkpt lat="41.252450" lon="-3.505500">
        <ele>2376.0</ele>
        <time>2018-07-22T15:00:15Z</time>
      </trkpt>
      <trkpt lat="41.252567" lon="-3.505383">
        <ele>2375.0</ele>
        <time>2018-07-22T15:00:16Z</time>
      </trkpt>
      <trkpt lat="41.252683" lon="-3.505267">
        <ele>2374.0</ele>
        <time>2018-07-22T15:00:17Z</time>
      </trkpt>
      <trkpt lat="41.252783" lon="-3.505150">
        <ele>2373.0</ele>
        <time>2018-07-22T15:00:18Z</time>
      </trkpt>
      <trkpt lat="41.252900" lon="-3.505033">
        <ele>2373.0</ele>
        <time>2018-07-22T15:00:19Z</time>
      </trkpt>
      <trkpt lat="41.253017" lon="-3.504917">
        <ele>2372.0</ele>
        <time>2018-07-22T15:00:20Z</time>
      </trkpt>
      <trkpt lat="41.253133" lon="-3.504817">
        <ele>2371.0</ele>
        <time>2018-07-22T15:00:21Z</time>
      </trkpt>
      <trkpt lat="41.253250" lon="-3.504700">
        <ele>2369.0</ele>
        <time>2018-07-22T15:00:22Z</time>
      </trkpt>
      <trkpt lat="41.253383" lon="-3.504583">
        <ele>2368.0</ele>
        <time>2018-07-22T15:00:23Z</time>
      </trkpt>
      <trkpt lat="41.253500" lon="-3.504483">
        <ele>2367.0</ele>
        <time>2018-07-22T15:00:24Z</time>
      </trkpt>
      <trkpt lat="41.253617" lon="-3.504367">
        <ele>2365.0</ele>
        <time>2018-07-22T15:00:25Z</time>
      </trkpt>
      <trkpt lat="41.253733" lon="-3.504267">
        <ele>2364.0</ele>
        <time>2018-07-22T15:00:26Z</time>
      </trkpt>
      <trkpt lat="41.253850" lon="-3.504183">
        <ele>2362.0</ele>
        <time>2018-07-22T15:00:27Z</time>
      </trkpt>
      <trkpt lat="41.253983" lon="-3.504083">
        <ele>2360.0</ele>
        <time>2018-07-22T15:00:28Z</time>
      </trkpt>
      <trkpt lat="41.254100" lon="-3.503983">
        <ele>2359.0</ele>
        <time>2018-07-22T15:00:29Z</time>
      </trkpt>
      <trkpt lat="41.254217" lon="-3.503883">
        <ele>2358.0</ele>
        <time>2018-07-22T15:00:30Z</time>
      </trkpt>
      <trkpt lat="41.254333" lon="-3.503783">
        <ele>2356.0</ele>
        <time>2018-07-22T15:00:31Z</time>
      </trkpt>
      <trkpt lat="41.254450" lon="-3.503683">
        <ele>2354.0</ele>
        <time>2018-07-22T15:00:32Z</time>
      </trkpt>
      <trkpt lat="41.254567" lon="-3.503583">
        <ele>2352.0</ele>
        <time>2018-07-22T15:00:33Z</time>
      </trkpt>
      <trkpt lat="41.254700" lon="-3.503500">
        <ele>2350.0</ele>
        <time>2018-07-22T15:00:34Z</time>
      </trkpt>
      <trkpt lat="41.254817" lon="-3.503400">
        <ele>2347.0</ele>
        <time>2018-07-22T15:00:35Z</time>
      </trkpt>
      <trkpt lat="41.254950" lon="-3.503317">
        <ele>2345.0</ele>
        <time>2018-07-22T15:00:36Z</time>
      </trkpt>
      <trkpt lat="41.255067" lon="-3.503217">
        <ele>2343.0</ele>
        <time>2018-07-22T15:00:37Z</time>
      </trkpt>
      <trkpt lat="41.255183" lon="-3.503117">
        <ele>2341.0</ele>
        <time>2018-07-22T15:00:38Z</time>
      </trkpt>
      <trkpt lat="41.255317" lon="-3.503017">
        <ele>2339.0</ele>
        <time>2018-07-22T15:00:39Z</time>
      </trkpt>
      <trkpt lat="41.255450" lon="-3.502933">
        <ele>2337.0</ele>
        <time>2018-07-22T15:00:40Z</time>
      </trkpt>
      <trkpt lat="41.255567" lon="-3.502833">
        <ele>2336.0</ele>
        <time>2018-07-22T15:00:41Z</time>
      </trkpt>
      <trkpt lat="41.255683" lon="-3.502733">
        <ele>2335.0</ele>
        <time>2018-07-22T15:00:42Z</time>
      </trkpt>
      <trkpt lat="41.255817" lon="-3.502650">
        <ele>2333.0</ele>
        <time>2018-07-22T15:00:43Z</time>
      </trkpt>
      <trkpt lat="41.255933" lon="-3.502550">
        <ele>2331.0</ele>
        <time>2018-07-22T15:00:44Z</time>
      </trkpt>
      <trkpt lat="41.256067" lon="-3.502450">
        <ele>2329.0</ele>
        <time>2018-07-22T15:00:45Z</time>
      </trkpt>
      <trkpt lat="41.256183" lon="-3.502350">
        <ele>2327.0</ele>
        <time>2018-07-22T15:00:46Z</time>
      </trkpt>
      <trkpt lat="41.256317" lon="-3.502250">
        <ele>2326.0</ele>
        <time>2018-07-22T15:00:47Z</time>
      </trkpt>
      <trkpt lat="41.256450" lon="-3.502150">
        <ele>2325.0</ele>
        <time>2018-07-22T15:00:48Z</time>
      </trkpt>
      <trkpt lat="41.256583" lon="-3.502050">
        <ele>2323.0</ele>
        <time>2018-07-22T15:00:49Z</time>
      </trkpt>
      <trkpt lat="41.256700" lon="-3.501950">
        <ele>2322.0</ele>
        <time>2018-07-22T15:00:50Z</time>
      </trkpt>
      <trkpt lat="41.256833" lon="-3.501850">
        <ele>2322.0</ele>
        <time>2018-07-22T15:00:51Z</time>
      </trkpt>
      <trkpt lat="41.256950" lon="-3.501750">
        <ele>2321.0</ele>
        <time>2018-07-22T15:00:52Z</time>
      </trkpt>
      <trkpt lat="41.257067" lon="-3.501650">
        <ele>2321.0</ele>
        <time>2018-07-22T15:00:53Z</time>
      </trkpt>
      <trkpt lat="41.257183" lon="-3.501567">
        <ele>2320.0</ele>
        <time>2018-07-22T15:00:54Z</time>
      </trkpt>
      <trkpt lat="41.257300" lon="-3.501450">
        <ele>2318.0</ele>
        <time>2018-07-22T15:00:55Z</time>
      </trkpt>
      <trkpt lat="41.257417" lon="-3.501333">
        <ele>2316.0</ele>
        <time>2018-07-22T15:00:56Z</time>
      </trkpt>
      <trkpt lat="41.257517" lon="-3.501217">
        <ele>2313.0</ele>
        <time>2018-07-22T15:00:57Z</time>
      </trkpt>
      <trkpt lat="41.257617" lon="-3.501100">
        <ele>2311.0</ele>
        <time>2018-07-22T15:00:58Z</time>
      </trkpt>
      <trkpt lat="41.257717" lon="-3.501000">
        <ele>2308.0</ele>
        <time>2018-07-22T15:00:59Z</time>
      </trkpt>
      <trkpt lat="41.257817" lon="-3.500900">
        <ele>2306.0</ele>
        <time>2018-07-22T15:01:00Z</time>
      </trkpt>
      <trkpt lat="41.257917" lon="-3.500800">
        <ele>2303.0</ele>
        <time>2018-07-22T15:01:01Z</time>
      </trkpt>
      <trkpt lat="41.258017" lon="-3.500700">
        <ele>2300.0</ele>
        <time>2018-07-22T15:01:02Z</time>
      </trkpt>
      <trkpt lat="41.258117" lon="-3.500600">
        <ele>2296.0</ele>
        <time>2018-07-22T15:01:03Z</time>
      </trkpt>
      <trkpt lat="41.258233" lon="-3.500517">
        <ele>2293.0</ele>
        <time>2018-07-22T15:01:04Z</time>
      </trkpt>
      <trkpt lat="41.258350" lon="-3.500450">
        <ele>2290.0</ele>
        <time>2018-07-22T15:01:05Z</time>
      </trkpt>
      <trkpt lat="41.258450" lon="-3.500383">
        <ele>2287.0</ele>
        <time>2018-07-22T15:01:06Z</time>
      </trkpt>
      <trkpt lat="41.258567" lon="-3.500317">
        <ele>2285.0</ele>
        <time>2018-07-22T15:01:07Z</time>
      </trkpt>
      <trkpt lat="41.258667" lon="-3.500250">
        <ele>2282.0</ele>
        <time>2018-07-22T15:01:08Z</time>
      </trkpt>
      <trkpt lat="41.258767" lon="-3.500167">
        <ele>2278.0</ele>
        <time>2018-07-22T15:01:09Z</time>
      </trkpt>
      <trkpt lat="41.258883" lon="-3.500083">
        <ele>2273.0</ele>
        <time>2018-07-22T15:01:10Z</time>
      </trkpt>
      <trkpt lat="41.259000" lon="-3.499983">
        <ele>2269.0</ele>
        <time>2018-07-22T15:01:11Z</time>
      </trkpt>
      <trkpt lat="41.259133" lon="-3.499867">
        <ele>2265.0</ele>
        <time>2018-07-22T15:01:12Z</time>
      </trkpt>
      <trkpt lat="41.259250" lon="-3.499767">
        <ele>2263.0</ele>
        <time>2018-07-22T15:01:13Z</time>
      </trkpt>
      <trkpt lat="41.259350" lon="-3.499667">
        <ele>2261.0</ele>
        <time>2018-07-22T15:01:14Z</time>
      </trkpt>
      <trkpt lat="41.259450" lon="-3.499550">
        <ele>2259.0</ele>
        <time>2018-07-22T15:01:15Z</time>
      </trkpt>
      <trkpt lat="41.259550" lon="-3.499433">
        <ele>2256.0</ele>
        <time>2018-07-22T15:01:16Z</time>
      </trkpt>
      <trkpt lat="41.259650" lon="-3.499300">
        <ele>2252.0</ele>
        <time>2018-07-22T15:01:17Z</time>
      </trkpt>
      <trkpt lat="41.259767" lon="-3.499167">
        <ele>2248.0</ele>
        <time>2018-07-22T15:01:18Z</time>
      </trkpt>
      <trkpt lat="41.259867" lon="-3.499033">
        <ele>2245.0</ele>
        <time>2018-07-22T15:01:19Z</time>
      </trkpt>
      <trkpt lat="41.259967" lon="-3.498900">
        <ele>2244.0</ele>
        <time>2018-07-22T15:01:20Z</time>
      </trkpt>
      <trkpt lat="41.260067" lon="-3.498767">
        <ele>2241.0</ele>
        <time>2018-07-22T15:01:21Z</time>
      </trkpt>
      <trkpt lat="41.260167" lon="-3.498633">
        <ele>2238.0</ele>
        <time>2018-07-22T15:01:22Z</time>
      </trkpt>
      <trkpt lat="41.260267" lon="-3.498500">
        <ele>2236.0</ele>
        <time>2018-07-22T15:01:23Z</time>
      </trkpt>
      <trkpt lat="41.260383" lon="-3.498383">
        <ele>2233.0</ele>
        <time>2018-07-22T15:01:24Z</time>
      </trkpt>
      <trkpt lat="41.260500" lon="-3.498267">
        <ele>2230.0</ele>
        <time>2018-07-22T15:01:25Z</time>
      </trkpt>
      <trkpt lat="41.260600" lon="-3.498150">
        <ele>2227.0</ele>
        <time>2018-07-22T15:01:26Z</time>
      </trkpt>
      <trkpt lat="41.260717" lon="-3.498033">
        <ele>2224.0</ele>
        <time>2018-07-22T15:01:27Z</time>
      </trkpt>
      <trkpt lat="41.260833" lon="-3.497917">
        <ele>2221.0</ele>
        <time>2018-07-22T15:01:28Z</time>
      </trkpt>
      <trkpt lat="41.260950" lon="-3.497783">
        <ele>2218.0</ele>
        <time>2018-07-22T15:01:29Z</time>
      </trkpt>
      <trkpt lat="41.261067" lon="-3.497667">
        <ele>2215.0</ele>
        <time>2018-07-22T15:01:30Z</time>
      </trkpt>
      <trkpt lat="41.261183" lon="-3.497533">
        <ele>2213.0</ele>
        <time>2018-07-22T15:01:31Z</time>
      </trkpt>
      <trkpt lat="41.261300" lon="-3.497400">
        <ele>2211.0</ele>
        <time>2018-07-22T15:01:32Z</time>
      </trkpt>
      <trkpt lat="41.261417" lon="-3.497283">
        <ele>2209.0</ele>
        <time>2018-07-22T15:01:33Z</time>
      </trkpt>
      <trkpt lat="41.261517" lon="-3.497150">
        <ele>2207.0</ele>
        <time>2018-07-22T15:01:34Z</time>
      </trkpt>
      <trkpt lat="41.261633" lon="-3.497033">
        <ele>2204.0</ele>
        <time>2018-07-22T15:01:35Z</time>
      </trkpt>
      <trkpt lat="41.261750" lon="-3.496917">
        <ele>2201.0</ele>
        <time>2018-07-22T15:01:36Z</time>
      </trkpt>
      <trkpt lat="41.261867" lon="-3.496817">
        <ele>2198.0</ele>
        <time>2018-07-22T15:01:37Z</time>
      </trkpt>
      <trkpt lat="41.261983" lon="-3.496717">
        <ele>2195.0</ele>
        <time>2018-07-22T15:01:38Z</time>
      </trkpt>
      <trkpt lat="41.262100" lon="-3.496617">
        <ele>2192.0</ele>
        <time>2018-07-22T15:01:39Z</time>
      </trkpt>
      <trkpt lat="41.262233" lon="-3.496533">
        <ele>2190.0</ele>
        <time>2018-07-22T15:01:40Z</time>
      </trkpt>
      <trkpt lat="41.262350" lon="-3.496433">
        <ele>2188.0</ele>
        <time>2018-07-22T15:01:41Z</time>
      </trkpt>
      <trkpt lat="41.262450" lon="-3.496350">
        <ele>2186.0</ele>
        <time>2018-07-22T15:01:42Z</time>
      </trkpt>
      <trkpt lat="41.262550" lon="-3.496267">
        <ele>2184.0</ele>
        <time>2018-07-22T15:01:43Z</time>
      </trkpt>
      <trkpt lat="41.262667" lon="-3.496183">
        <ele>2181.0</ele>
        <time>2018-07-22T15:01:44Z</time>
      </trkpt>
      <trkpt lat="41.262767" lon="-3.496100">
        <ele>2179.0</ele>
        <time>2018-07-22T15:01:45Z</time>
      </trkpt>
      <trkpt lat="41.262867" lon="-3.496017">
        <ele>2176.0</ele>
        <time>2018-07-22T15:01:46Z</time>
      </trkpt>
      <trkpt lat="41.262983" lon="-3.495933">
        <ele>2173.0</ele>
        <time>2018-07-22T15:01:47Z</time>
      </trkpt>
      <trkpt lat="41.263100" lon="-3.495867">
        <ele>2172.0</ele>
        <time>2018-07-22T15:01:48Z</time>
      </trkpt>
      <trkpt lat="41.263217" lon="-3.495783">
        <ele>2171.0</ele>
        <time>2018-07-22T15:01:49Z</time>
      </trkpt>
      <trkpt lat="41.263333" lon="-3.495700">
        <ele>2171.0</ele>
        <time>2018-07-22T15:01:50Z</time>
      </trkpt>
      <trkpt lat="41.263433" lon="-3.495617">
        <ele>2171.0</ele>
        <time>2018-07-22T15:01:51Z</time>
      </trkpt>
      <trkpt lat="41.263533" lon="-3.495533">
        <ele>2170.0</ele>
        <time>2018-07-22T15:01:52Z</time>
      </trkpt>
      <trkpt lat="41.263633" lon="-3.495433">
        <ele>2170.0</ele>
        <time>2018-07-22T15:01:53Z</time>
      </trkpt>
      <trkpt lat="41.263733" lon="-3.495350">
        <ele>2171.0</ele>
        <time>2018-07-22T15:01:54Z</time>
      </trkpt>
      <trkpt lat="41.263833" lon="-3.495283">
        <ele>2173.0</ele>
        <time>2018-07-22T15:01:55Z</time>
      </trkpt>
      <trkpt lat="41.263917" lon="-3.495217">
        <ele>2173.0</ele>
        <time>2018-07-22T15:01:56Z</time>
      </trkpt>
      <trkpt lat="41.264000" lon="-3.495150">
        <ele>2173.0</ele>
        <time>2018-07-22T15:01:57Z</time>
      </trkpt>
      <trkpt lat="41.264083" lon="-3.495083">
        <ele>2171.0</ele>
        <time>2018-07-22T15:01:58Z</time>
      </trkpt>
      <trkpt lat="41.264200" lon="-3.495017">
        <ele>2169.0</ele>
        <time>2018-07-22T15:01:59Z</time>
      </trkpt>
      <trkpt lat="41.264300" lon="-3.494950">
        <ele>2169.0</ele>
        <time>2018-07-22T15:02:00Z</time>
      </trkpt>
      <trkpt lat="41.264400" lon="-3.494883">
        <ele>2170.0</ele>
        <time>2018-07-22T15:02:01Z</time>
      </trkpt>
      <trkpt lat="41.264500" lon="-3.494817">
        <ele>2172.0</ele>
        <time>2018-07-22T15:02:02Z</time>
      </trkpt>
      <trkpt lat="41.264567" lon="-3.494733">
        <ele>2174.0</ele>
        <time>2018-07-22T15:02:03Z</time>
      </trkpt>
      <trkpt lat="41.264650" lon="-3.494650">
        <ele>2174.0</ele>
        <time>2018-07-22T15:02:04Z</time>
      </trkpt>
      <trkpt lat="41.264750" lon="-3.494567">
        <ele>2174.0</ele>
        <time>2018-07-22T15:02:05Z</time>
      </trkpt>
      <trkpt lat="41.264850" lon="-3.494517">
        <ele>2174.0</ele>
        <time>2018-07-22T15:02:06Z</time>
      </trkpt>
      <trkpt lat="41.264950" lon="-3.494467">
        <ele>2175.0</ele>
        <time>2018-07-22T15:02:07Z</time>
      </trkpt>
      <trkpt lat="41.265033" lon="-3.494433">
        <ele>2178.0</ele>
        <time>2018-07-22T15:02:08Z</time>
      </trkpt>
      <trkpt lat="41.265117" lon="-3.494367">
        <ele>2179.0</ele>
        <time>2018-07-22T15:02:09Z</time>
      </trkpt>
      <trkpt lat="41.265200" lon="-3.494317">
        <ele>2180.0</ele>
        <time>2018-07-22T15:02:10Z</time>
      </trkpt>
      <trkpt lat="41.265283" lon="-3.494250">
        <ele>2180.0</ele>
        <time>2018-07-22T15:02:11Z</time>
      </trkpt>
      <trkpt lat="41.265383" lon="-3.494217">
        <ele>2180.0</ele>
        <time>2018-07-22T15:02:12Z</time>
      </trkpt>
      <trkpt lat="41.265467" lon="-3.494183">
        <ele>2180.0</ele>
        <time>2018-07-22T15:02:13Z</time>
      </trkpt>
      <trkpt lat="41.265567" lon="-3.494167">
        <ele>2180.0</ele>
        <time>2018-07-22T15:02:14Z</time>
      </trkpt>
      <trkpt lat="41.265650" lon="-3.494133">
        <ele>2181.0</ele>
        <time>2018-07-22T15:02:15Z</time>
      </trkpt>
      <trkpt lat="41.265733" lon="-3.494100">
        <ele>2180.0</ele>
        <time>2018-07-22T15:02:16Z</time>
      </trkpt>
      <trkpt lat="41.265817" lon="-3.494067">
        <ele>2180.0</ele>
        <time>2018-07-22T15:02:17Z</time>
      </trkpt>
      <trkpt lat="41.265900" lon="-3.494033">
        <ele>2178.0</ele>
        <time>2018-07-22T15:02:18Z</time>
      </trkpt>
      <trkpt lat="41.265983" lon="-3.494000">
        <ele>2177.0</ele>
        <time>2018-07-22T15:02:19Z</time>
      </trkpt>
      <trkpt lat="41.266067" lon="-3.493950">
        <ele>2177.0</ele>
        <time>2018-07-22T15:02:20Z</time>
      </trkpt>
      <trkpt lat="41.266150" lon="-3.493917">
        <ele>2176.0</ele>
        <time>2018-07-22T15:02:21Z</time>
      </trkpt>
      <trkpt lat="41.266233" lon="-3.493883">
        <ele>2176.0</ele>
        <time>2018-07-22T15:02:22Z</time>
      </trkpt>
      <trkpt lat="41.266317" lon="-3.493850">
        <ele>2176.0</ele>
        <time>2018-07-22T15:02:23Z</time>
      </trkpt>
      <trkpt lat="41.266383" lon="-3.493817">
        <ele>2176.0</ele>
        <time>2018-07-22T15:02:24Z</time>
      </trkpt>
      <trkpt lat="41.266450" lon="-3.493817">
        <ele>2176.0</ele>
        <time>2018-07-22T15:02:25Z</time>
      </trkpt>
      <trkpt lat="41.266517" lon="-3.493800">
        <ele>2175.0</ele>
        <time>2018-07-22T15:02:26Z</time>
      </trkpt>
      <trkpt lat="41.266583" lon="-3.493800">
        <ele>2174.0</ele>
        <time>2018-07-22T15:02:27Z</time>
      </trkpt>
      <trkpt lat="41.266667" lon="-3.493800">
        <ele>2173.0</ele>
        <time>2018-07-22T15:02:28Z</time>
      </trkpt>
      <trkpt lat="41.266750" lon="-3.493800">
        <ele>2172.0</ele>
        <time>2018-07-22T15:02:29Z</time>
      </trkpt>
      <trkpt lat="41.266833" lon="-3.493800">
        <ele>2172.0</ele>
        <time>2018-07-22T15:02:30Z</time>
      </trkpt>
      <trkpt lat="41.266917" lon="-3.493817">
        <ele>2172.0</ele>
        <time>2018-07-22T15:02:31Z</time>
      </trkpt>
      <trkpt lat="41.267000" lon="-3.493817">
        <ele>2173.0</ele>
        <time>2018-07-22T15:02:32Z</time>
      </trkpt>
      <trkpt lat="41.267083" lon="-3.493817">
        <ele>2175.0</ele>
        <time>2018-07-22T15:02:33Z</time>
      </trkpt>
      <trkpt lat="41.267183" lon="-3.493800">
        <ele>2177.0</ele>
        <time>2018-07-22T15:02:34Z</time>
      </trkpt>
      <trkpt lat="41.267267" lon="-3.493767">
        <ele>2178.0</ele>
        <time>2018-07-22T15:02:35Z</time>
      </trkpt>
      <trkpt lat="41.267367" lon="-3.493750">
        <ele>2180.0</ele>
        <time>2018-07-22T15:02:36Z</time>
      </trkpt>
      <trkpt lat="41.267467" lon="-3.493750">
        <ele>2181.0</ele>
        <time>2018-07-22T15:02:37Z</time>
      </trkpt>
      <trkpt lat="41.267567" lon="-3.493750">
        <ele>2183.0</ele>
        <time>2018-07-22T15:02:38Z</time>
      </trkpt>
      <trkpt lat="41.267667" lon="-3.493767">
        <ele>2187.0</ele>
        <time>2018-07-22T15:02:39Z</time>
      </trkpt>
      <trkpt lat="41.267750" lon="-3.493750">
        <ele>2190.0</ele>
        <time>2018-07-22T15:02:40Z</time>
      </trkpt>
      <trkpt lat="41.267833" lon="-3.493733">
        <ele>2194.0</ele>
        <time>2018-07-22T15:02:41Z</time>
      </trkpt>
      <trkpt lat="41.267917" lon="-3.493717">
        <ele>2197.0</ele>
        <time>2018-07-22T15:02:42Z</time>
      </trkpt>
      <trkpt lat="41.268000" lon="-3.493717">
        <ele>2199.0</ele>
        <time>2018-07-22T15:02:43Z</time>
      </trkpt>
      <trkpt lat="41.268100" lon="-3.493717">
        <ele>2202.0</ele>
        <time>2018-07-22T15:02:44Z</time>
      </trkpt>
      <trkpt lat="41.268183" lon="-3.493733">
        <ele>2205.0</ele>
        <time>2018-07-22T15:02:45Z</time>
      </trkpt>
      <trkpt lat="41.268267" lon="-3.493750">
        <ele>2208.0</ele>
        <time>2018-07-22T15:02:46Z</time>
      </trkpt>
      <trkpt lat="41.268350" lon="-3.493767">
        <ele>2212.0</ele>
        <time>2018-07-22T15:02:47Z</time>
      </trkpt>
      <trkpt lat="41.268417" lon="-3.493767">
        <ele>2215.0</ele>
        <time>2018-07-22T15:02:48Z</time>
      </trkpt>
      <trkpt lat="41.268500" lon="-3.493783">
        <ele>2217.0</ele>
        <time>2018-07-22T15:02:49Z</time>
      </trkpt>
      <trkpt lat="41.268583" lon="-3.493800">
        <ele>2218.0</ele>
        <time>2018-07-22T15:02:50Z</time>
      </trkpt>
      <trkpt lat="41.268683" lon="-3.493817">
        <ele>2219.0</ele>
        <time>2018-07-22T15:02:51Z</time>
      </trkpt>
      <trkpt lat="41.268783" lon="-3.493800">
        <ele>2220.0</ele>
        <time>2018-07-22T15:02:52Z</time>
      </trkpt>
      <trkpt lat="41.268900" lon="-3.493767">
        <ele>2221.0</ele>
        <time>2018-07-22T15:02:53Z</time>
      </trkpt>
      <trkpt lat="41.269000" lon="-3.493733">
        <ele>2222.0</ele>
        <time>2018-07-22T15:02:54Z</time>
      </trkpt>
      <trkpt lat="41.269083" lon="-3.493683">
        <ele>2224.0</ele>
        <time>2018-07-22T15:02:55Z</time>
      </trkpt>
      <trkpt lat="41.269183" lon="-3.493633">
        <ele>2226.0</ele>
        <time>2018-07-22T15:02:56Z</time>
      </trkpt>
      <trkpt lat="41.269283" lon="-3.493583">
        <ele>2227.0</ele>
        <time>2018-07-22T15:02:57Z</time>
      </trkpt>
      <trkpt lat="41.269383" lon="-3.493550">
        <ele>2228.0</ele>
        <time>2018-07-22T15:02:58Z</time>
      </trkpt>
      <trkpt lat="41.269483" lon="-3.493533">
        <ele>2228.0</ele>
        <time>2018-07-22T15:02:59Z</time>
      </trkpt>
      <trkpt lat="41.269600" lon="-3.493500">
        <ele>2229.0</ele>
        <time>2018-07-22T15:03:00Z</time>
      </trkpt>
      <trkpt lat="41.269700" lon="-3.493467">
        <ele>2229.0</ele>
        <time>2018-07-22T15:03:01Z</time>
      </trkpt>
      <trkpt lat="41.269783" lon="-3.493417">
        <ele>2231.0</ele>
        <time>2018-07-22T15:03:02Z</time>
      </trkpt>
      <trkpt lat="41.269883" lon="-3.493383">
        <ele>2232.0</ele>
        <time>2018-07-22T15:03:03Z</time>
      </trkpt>
      <trkpt lat="41.269967" lon="-3.493383">
        <ele>2232.0</ele>
        <time>2018-07-22T15:03:04Z</time>
      </trkpt>
      <trkpt lat="41.270050" lon="-3.493383">
        <ele>2232.0</ele>
        <time>2018-07-22T15:03:05Z</time>
      </trkpt>
      <trkpt lat="41.270133" lon="-3.493367">
        <ele>2231.0</ele>
        <time>2018-07-22T15:03:06Z</time>
      </trkpt>
      <trkpt lat="41.270233" lon="-3.493350">
        <ele>2229.0</ele>
        <time>2018-07-22T15:03:07Z</time>
      </trkpt>
      <trkpt lat="41.270333" lon="-3.493317">
        <ele>2228.0</ele>
        <time>2018-07-22T15:03:08Z</time>
      </trkpt>
      <trkpt lat="41.270433" lon="-3.493267">
        <ele>2226.0</ele>
        <time>2018-07-22T15:03:09Z</time>
      </trkpt>
      <trkpt lat="41.270533" lon="-3.493200">
        <ele>2226.0</ele>
        <time>2018-07-22T15:03:10Z</time>
      </trkpt>
      <trkpt lat="41.270633" lon="-3.493133">
        <ele>2225.0</ele>
        <time>2018-07-22T15:03:11Z</time>
      </trkpt>
      <trkpt lat="41.270700" lon="-3.493050">
        <ele>2224.0</ele>
        <time>2018-07-22T15:03:12Z</time>
      </trkpt>
      <trkpt lat="41.270783" lon="-3.492950">
        <ele>2222.0</ele>
        <time>2018-07-22T15:03:13Z</time>
      </trkpt>
      <trkpt lat="41.270850" lon="-3.492833">
        <ele>2220.0</ele>
        <time>2018-07-22T15:03:14Z</time>
      </trkpt>
      <trkpt lat="41.270917" lon="-3.492717">
        <ele>2218.0</ele>
        <time>2018-07-22T15:03:15Z</time>
      </trkpt>
      <trkpt lat="41.270967" lon="-3.492617">
        <ele>2218.0</ele>
        <time>2018-07-22T15:03:16Z</time>
      </trkpt>
      <trkpt lat="41.271017" lon="-3.492517">
        <ele>2218.0</ele>
        <time>2018-07-22T15:03:17Z</time>
      </trkpt>
      <trkpt lat="41.271067" lon="-3.492450">
        <ele>2217.0</ele>
        <time>2018-07-22T15:03:18Z</time>
      </trkpt>
      <trkpt lat="41.271117" lon="-3.492383">
        <ele>2215.0</ele>
        <time>2018-07-22T15:03:19Z</time>
      </trkpt>
      <trkpt lat="41.271183" lon="-3.492333">
        <ele>2213.0</ele>
        <time>2018-07-22T15:03:20Z</time>
      </trkpt>
      <trkpt lat="41.271267" lon="-3.492267">
        <ele>2210.0</ele>
        <time>2018-07-22T15:03:21Z</time>
      </trkpt>
      <trkpt lat="41.271350" lon="-3.492217">
        <ele>2208.0</ele>
        <time>2018-07-22T15:03:22Z</time>
      </trkpt>
      <trkpt lat="41.271433" lon="-3.492167">
        <ele>2205.0</ele>
        <time>2018-07-22T15:03:23Z</time>
      </trkpt>
      <trkpt lat="41.271533" lon="-3.492133">
        <ele>2203.0</ele>
        <time>2018-07-22T15:03:24Z</time>
      </trkpt>
      <trkpt lat="41.271617" lon="-3.492100">
        <ele>2202.0</ele>
        <time>2018-07-22T15:03:25Z</time>
      </trkpt>
      <trkpt lat="41.271700" lon="-3.492067">
        <ele>2200.0</ele>
        <time>2018-07-22T15:03:26Z</time>
      </trkpt>
      <trkpt lat="41.271783" lon="-3.492033">
        <ele>2199.0</ele>
        <time>2018-07-22T15:03:27Z</time>
      </trkpt>
      <trkpt lat="41.271867" lon="-3.492017">
        <ele>2197.0</ele>
        <time>2018-07-22T15:03:28Z</time>
      </trkpt>
      <trkpt lat="41.271967" lon="-3.492017">
        <ele>2194.0</ele>
        <time>2018-07-22T15:03:29Z</time>
      </trkpt>
      <trkpt lat="41.272050" lon="-3.492033">
        <ele>2191.0</ele>
        <time>2018-07-22T15:03:30Z</time>
      </trkpt>
      <trkpt lat="41.272150" lon="-3.492050">
        <ele>2189.0</ele>
        <time>2018-07-22T15:03:31Z</time>
      </trkpt>
      <trkpt lat="41.272250" lon="-3.492050">
        <ele>2186.0</ele>
        <time>2018-07-22T15:03:32Z</time>
      </trkpt>
      <trkpt lat="41.272333" lon="-3.492067">
        <ele>2184.0</ele>
        <time>2018-07-22T15:03:33Z</time>
      </trkpt>
      <trkpt lat="41.272433" lon="-3.492067">
        <ele>2181.0</ele>
        <time>2018-07-22T15:03:34Z</time>
      </trkpt>
      <trkpt lat="41.272533" lon="-3.492100">
        <ele>2178.0</ele>
        <time>2018-07-22T15:03:35Z</time>
      </trkpt>
      <trkpt lat="41.272633" lon="-3.492117">
        <ele>2176.0</ele>
        <time>2018-07-22T15:03:36Z</time>
      </trkpt>
      <trkpt lat="41.272750" lon="-3.492100">
        <ele>2174.0</ele>
        <time>2018-07-22T15:03:37Z</time>
      </trkpt>
      <trkpt lat="41.272850" lon="-3.492067">
        <ele>2172.0</ele>
        <time>2018-07-22T15:03:38Z</time>
      </trkpt>
      <trkpt lat="41.272950" lon="-3.492033">
        <ele>2169.0</ele>
        <time>2018-07-22T15:03:39Z</time>
      </trkpt>
      <trkpt lat="41.273050" lon="-3.492000">
        <ele>2167.0</ele>
        <time>2018-07-22T15:03:40Z</time>
      </trkpt>
      <trkpt lat="41.273167" lon="-3.491967">
        <ele>2165.0</ele>
        <time>2018-07-22T15:03:41Z</time>
      </trkpt>
      <trkpt lat="41.273267" lon="-3.491933">
        <ele>2163.0</ele>
        <time>2018-07-22T15:03:42Z</time>
      </trkpt>
      <trkpt lat="41.273367" lon="-3.491900">
        <ele>2161.0</ele>
        <time>2018-07-22T15:03:43Z</time>
      </trkpt>
      <trkpt lat="41.273450" lon="-3.491850">
        <ele>2159.0</ele>
        <time>2018-07-22T15:03:44Z</time>
      </trkpt>
      <trkpt lat="41.273533" lon="-3.491817">
        <ele>2156.0</ele>
        <time>2018-07-22T15:03:45Z</time>
      </trkpt>
      <trkpt lat="41.273633" lon="-3.491750">
        <ele>2153.0</ele>
        <time>2018-07-22T15:03:46Z</time>
      </trkpt>
      <trkpt lat="41.273733" lon="-3.491667">
        <ele>2149.0</ele>
        <time>2018-07-22T15:03:47Z</time>
      </trkpt>
      <trkpt lat="41.273833" lon="-3.491567">
        <ele>2146.0</ele>
        <time>2018-07-22T15:03:48Z</time>
      </trkpt>
      <trkpt lat="41.273933" lon="-3.491450">
        <ele>2144.0</ele>
        <time>2018-07-22T15:03:49Z</time>
      </trkpt>
      <trkpt lat="41.274017" lon="-3.491350">
        <ele>2143.0</ele>
        <time>2018-07-22T15:03:50Z</time>
      </trkpt>
      <trkpt lat="41.274083" lon="-3.491267">
        <ele>2142.0</ele>
        <time>2018-07-22T15:03:51Z</time>
      </trkpt>
      <trkpt lat="41.274150" lon="-3.491183">
        <ele>2141.0</ele>
        <time>2018-07-22T15:03:52Z</time>
      </trkpt>
      <trkpt lat="41.274217" lon="-3.491117">
        <ele>2138.0</ele>
        <time>2018-07-22T15:03:53Z</time>
      </trkpt>
      <trkpt lat="41.274300" lon="-3.491050">
        <ele>2134.0</ele>
        <time>2018-07-22T15:03:54Z</time>
      </trkpt>
      <trkpt lat="41.274383" lon="-3.490983">
        <ele>2130.0</ele>
        <time>2018-07-22T15:03:55Z</time>
      </trkpt>
      <trkpt lat="41.274483" lon="-3.490900">
        <ele>2126.0</ele>
        <time>2018-07-22T15:03:56Z</time>
      </trkpt>
      <trkpt lat="41.274583" lon="-3.490800">
        <ele>2123.0</ele>
        <time>2018-07-22T15:03:57Z</time>
      </trkpt>
      <trkpt lat="41.274700" lon="-3.490717">
        <ele>2120.0</ele>
        <time>2018-07-22T15:03:58Z</time>
      </trkpt>
      <trkpt lat="41.274800" lon="-3.490633">
        <ele>2119.0</ele>
        <time>2018-07-22T15:03:59Z</time>
      </trkpt>
      <trkpt lat="41.274900" lon="-3.490550">
        <ele>2119.0</ele>
        <time>2018-07-22T15:04:00Z</time>
      </trkpt>
      <trkpt lat="41.274983" lon="-3.490467">
        <ele>2117.0</ele>
        <time>2018-07-22T15:04:01Z</time>
      </trkpt>
      <trkpt lat="41.275050" lon="-3.490383">
        <ele>2115.0</ele>
        <time>2018-07-22T15:04:02Z</time>
      </trkpt>
      <trkpt lat="41.275133" lon="-3.490283">
        <ele>2111.0</ele>
        <time>2018-07-22T15:04:03Z</time>
      </trkpt>
      <trkpt lat="41.275233" lon="-3.490200">
        <ele>2107.0</ele>
        <time>2018-07-22T15:04:04Z</time>
      </trkpt>
      <trkpt lat="41.275333" lon="-3.490133">
        <ele>2103.0</ele>
        <time>2018-07-22T15:04:05Z</time>
      </trkpt>
      <trkpt lat="41.275433" lon="-3.490067">
        <ele>2100.0</ele>
        <time>2018-07-22T15:04:06Z</time>
      </trkpt>
      <trkpt lat="41.275533" lon="-3.490017">
        <ele>2098.0</ele>
        <time>2018-07-22T15:04:07Z</time>
      </trkpt>
      <trkpt lat="41.275617" lon="-3.489950">
        <ele>2096.0</ele>
        <time>2018-07-22T15:04:08Z</time>
      </trkpt>
      <trkpt lat="41.275700" lon="-3.489883">
        <ele>2094.0</ele>
        <time>2018-07-22T15:04:09Z</time>
      </trkpt>
      <trkpt lat="41.275783" lon="-3.489817">
        <ele>2091.0</ele>
        <time>2018-07-22T15:04:10Z</time>
      </trkpt>
      <trkpt lat="41.275883" lon="-3.489733">
        <ele>2087.0</ele>
        <time>2018-07-22T15:04:11Z</time>
      </trkpt>
      <trkpt lat="41.275983" lon="-3.489650">
        <ele>2083.0</ele>
        <time>2018-07-22T15:04:12Z</time>
      </trkpt>
      <trkpt lat="41.276083" lon="-3.489567">
        <ele>2080.0</ele>
        <time>2018-07-22T15:04:13Z</time>
      </trkpt>
      <trkpt lat="41.276167" lon="-3.489483">
        <ele>2078.0</ele>
        <time>2018-07-22T15:04:14Z</time>
      </trkpt>
      <trkpt lat="41.276250" lon="-3.489383">
        <ele>2075.0</ele>
        <time>2018-07-22T15:04:15Z</time>
      </trkpt>
      <trkpt lat="41.276350" lon="-3.489283">
        <ele>2072.0</ele>
        <time>2018-07-22T15:04:16Z</time>
      </trkpt>
      <trkpt lat="41.276433" lon="-3.489200">
        <ele>2069.0</ele>
        <time>2018-07-22T15:04:17Z</time>
      </trkpt>
      <trkpt lat="41.276533" lon="-3.489117">
        <ele>2065.0</ele>
        <time>2018-07-22T15:04:18Z</time>
      </trkpt>
      <trkpt lat="41.276617" lon="-3.489017">
        <ele>2061.0</ele>
        <time>2018-07-22T15:04:19Z</time>
      </trkpt>
      <trkpt lat="41.276717" lon="-3.488900">
        <ele>2058.0</ele>
        <time>2018-07-22T15:04:20Z</time>
      </trkpt>
      <trkpt lat="41.276800" lon="-3.488783">
        <ele>2055.0</ele>
        <time>2018-07-22T15:04:21Z</time>
      </trkpt>
      <trkpt lat="41.276883" lon="-3.488650">
        <ele>2052.0</ele>
        <time>2018-07-22T15:04:22Z</time>
      </trkpt>
      <trkpt lat="41.276967" lon="-3.488517">
        <ele>2049.0</ele>
        <time>2018-07-22T15:04:23Z</time>
      </trkpt>
      <trkpt lat="41.277050" lon="-3.488383">
        <ele>2046.0</ele>
        <time>2018-07-22T15:04:24Z</time>
      </trkpt>
      <trkpt lat="41.277133" lon="-3.488267">
        <ele>2043.0</ele>
        <time>2018-07-22T15:04:25Z</time>
      </trkpt>
      <trkpt lat="41.277217" lon="-3.488133">
        <ele>2039.0</ele>
        <time>2018-07-22T15:04:26Z</time>
      </trkpt>
      <trkpt lat="41.277300" lon="-3.488000">
        <ele>2036.0</ele>
        <time>2018-07-22T15:04:27Z</time>
      </trkpt>
      <trkpt lat="41.277383" lon="-3.487883">
        <ele>2033.0</ele>
        <time>2018-07-22T15:04:28Z</time>
      </trkpt>
      <trkpt lat="41.277450" lon="-3.487750">
        <ele>2030.0</ele>
        <time>2018-07-22T15:04:29Z</time>
      </trkpt>
      <trkpt lat="41.277533" lon="-3.487633">
        <ele>2026.0</ele>
        <time>2018-07-22T15:04:30Z</time>
      </trkpt>
      <trkpt lat="41.277617" lon="-3.487483">
        <ele>2022.0</ele>
        <time>2018-07-22T15:04:31Z</time>
      </trkpt>
      <trkpt lat="41.277683" lon="-3.487333">
        <ele>2018.0</ele>
        <time>2018-07-22T15:04:32Z</time>
      </trkpt>
      <trkpt lat="41.277767" lon="-3.487183">
        <ele>2014.0</ele>
        <time>2018-07-22T15:04:33Z</time>
      </trkpt>
      <trkpt lat="41.277833" lon="-3.487033">
        <ele>2011.0</ele>
        <time>2018-07-22T15:04:34Z</time>
      </trkpt>
      <trkpt lat="41.277917" lon="-3.486883">
        <ele>2008.0</ele>
        <time>2018-07-22T15:04:35Z</time>
      </trkpt>
      <trkpt lat="41.277983" lon="-3.486717">
        <ele>2005.0</ele>
        <time>2018-07-22T15:04:36Z</time>
      </trkpt>
      <trkpt lat="41.278033" lon="-3.486567">
        <ele>2002.0</ele>
        <time>2018-07-22T15:04:37Z</time>
      </trkpt>
      <trkpt lat="41.278100" lon="-3.486400">
        <ele>1999.0</ele>
        <time>2018-07-22T15:04:38Z</time>
      </trkpt>
      <trkpt lat="41.278150" lon="-3.486233">
        <ele>1995.0</ele>
        <time>2018-07-22T15:04:39Z</time>
      </trkpt>
      <trkpt lat="41.278200" lon="-3.486050">
        <ele>1993.0</ele>
        <time>2018-07-22T15:04:40Z</time>
      </trkpt>
      <trkpt lat="41.278250" lon="-3.485883">
        <ele>1991.0</ele>
        <time>2018-07-22T15:04:41Z</time>
      </trkpt>
      <trkpt lat="41.278283" lon="-3.485717">
        <ele>1989.0</ele>
        <time>2018-07-22T15:04:42Z</time>
      </trkpt>
      <trkpt lat="41.278333" lon="-3.485567">
        <ele>1987.0</ele>
        <time>2018-07-22T15:04:43Z</time>
      </trkpt>
      <trkpt lat="41.278367" lon="-3.485417">
        <ele>1984.0</ele>
        <time>2018-07-22T15:04:44Z</time>
      </trkpt>
      <trkpt lat="41.278400" lon="-3.485250">
        <ele>1981.0</ele>
        <time>2018-07-22T15:04:45Z</time>
      </trkpt>
      <trkpt lat="41.278433" lon="-3.485083">
        <ele>1977.0</ele>
        <time>2018-07-22T15:04:46Z</time>
      </trkpt>
      <trkpt lat="41.278467" lon="-3.484900">
        <ele>1973.0</ele>
        <time>2018-07-22T15:04:47Z</time>
      </trkpt>
      <trkpt lat="41.278500" lon="-3.484717">
        <ele>1969.0</ele>
        <time>2018-07-22T15:04:48Z</time>
      </trkpt>
      <trkpt lat="41.278517" lon="-3.484517">
        <ele>1966.0</ele>
        <time>2018-07-22T15:04:49Z</time>
      </trkpt>
      <trkpt lat="41.278533" lon="-3.484333">
        <ele>1964.0</ele>
        <time>2018-07-22T15:04:50Z</time>
      </trkpt>
      <trkpt lat="41.278533" lon="-3.484167">
        <ele>1961.0</ele>
        <time>2018-07-22T15:04:51Z</time>
      </trkpt>
      <trkpt lat="41.278533" lon="-3.483983">
        <ele>1958.0</ele>
        <time>2018-07-22T15:04:52Z</time>
      </trkpt>
      <trkpt lat="41.278517" lon="-3.483817">
        <ele>1955.0</ele>
        <time>2018-07-22T15:04:53Z</time>
      </trkpt>
      <trkpt lat="41.278483" lon="-3.483650">
        <ele>1951.0</ele>
        <time>2018-07-22T15:04:54Z</time>
      </trkpt>
      <trkpt lat="41.278467" lon="-3.483467">
        <ele>1948.0</ele>
        <time>2018-07-22T15:04:55Z</time>
      </trkpt>
      <trkpt lat="41.278433" lon="-3.483300">
        <ele>1946.0</ele>
        <time>2018-07-22T15:04:56Z</time>
      </trkpt>
      <trkpt lat="41.278417" lon="-3.483133">
        <ele>1943.0</ele>
        <time>2018-07-22T15:04:57Z</time>
      </trkpt>
      <trkpt lat="41.278400" lon="-3.482983">
        <ele>1941.0</ele>
        <time>2018-07-22T15:04:58Z</time>
      </trkpt>
      <trkpt lat="41.278383" lon="-3.482817">
        <ele>1938.0</ele>
        <time>2018-07-22T15:04:59Z</time>
      </trkpt>
      <trkpt lat="41.278367" lon="-3.482667">
        <ele>1934.0</ele>
        <time>2018-07-22T15:05:00Z</time>
      </trkpt>
      <trkpt lat="41.278350" lon="-3.482500">
        <ele>1930.0</ele>
        <time>2018-07-22T15:05:01Z</time>
      </trkpt>
      <trkpt lat="41.278333" lon="-3.482350">
        <ele>1927.0</ele>
        <time>2018-07-22T15:05:02Z</time>
      </trkpt>
      <trkpt lat="41.278333" lon="-3.482183">
        <ele>1923.0</ele>
        <time>2018-07-22T15:05:03Z</time>
      </trkpt>
      <trkpt lat="41.278333" lon="-3.482033">
        <ele>1920.0</ele>
        <time>2018-07-22T15:05:04Z</time>
      </trkpt>
      <trkpt lat="41.278333" lon="-3.481867">
        <ele>1916.0</ele>
        <time>2018-07-22T15:05:05Z</time>
      </trkpt>
      <trkpt lat="41.278350" lon="-3.481700">
        <ele>1913.0</ele>
        <time>2018-07-22T15:05:06Z</time>
      </trkpt>
      <trkpt lat="41.278367" lon="-3.481533">
        <ele>1908.0</ele>
        <time>2018-07-22T15:05:07Z</time>
      </trkpt>
      <trkpt lat="41.278383" lon="-3.481367">
        <ele>1905.0</ele>
        <time>2018-07-22T15:05:08Z</time>
      </trkpt>
      <trkpt lat="41.278400" lon="-3.481200">
        <ele>1902.0</ele>
        <time>2018-07-22T15:05:09Z</time>
      </trkpt>
      <trkpt lat="41.278417" lon="-3.481033">
        <ele>1899.0</ele>
        <time>2018-07-22T15:05:10Z</time>
      </trkpt>
      <trkpt lat="41.278450" lon="-3.480850">
        <ele>1897.0</ele>
        <time>2018-07-22T15:05:11Z</time>
      </trkpt>
      <trkpt lat="41.278467" lon="-3.480683">
        <ele>1895.0</ele>
        <time>2018-07-22T15:05:12Z</time>
      </trkpt>
      <trkpt lat="41.278467" lon="-3.480517">
        <ele>1894.0</ele>
        <time>2018-07-22T15:05:13Z</time>
      </trkpt>
      <trkpt lat="41.278450" lon="-3.480350">
        <ele>1892.0</ele>
        <time>2018-07-22T15:05:14Z</time>
      </trkpt>
      <trkpt lat="41.278433" lon="-3.480183">
        <ele>1890.0</ele>
        <time>2018-07-22T15:05:15Z</time>
      </trkpt>
      <trkpt lat="41.278383" lon="-3.480017">
        <ele>1891.0</ele>
        <time>2018-07-22T15:05:16Z</time>
      </trkpt>
      <trkpt lat="41.278350" lon="-3.479867">
        <ele>1891.0</ele>
        <time>2018-07-22T15:05:17Z</time>
      </trkpt>
      <trkpt lat="41.278300" lon="-3.479750">
        <ele>1890.0</ele>
        <time>2018-07-22T15:05:18Z</time>
      </trkpt>
      <trkpt lat="41.278250" lon="-3.479650">
        <ele>1889.0</ele>
        <time>2018-07-22T15:05:19Z</time>
      </trkpt>
      <trkpt lat="41.278167" lon="-3.479567">
        <ele>1888.0</ele>
        <time>2018-07-22T15:05:20Z</time>
      </trkpt>
      <trkpt lat="41.278100" lon="-3.479483">
        <ele>1886.0</ele>
        <time>2018-07-22T15:05:21Z</time>
      </trkpt>
      <trkpt lat="41.278017" lon="-3.479417">
        <ele>1885.0</ele>
        <time>2018-07-22T15:05:22Z</time>
      </trkpt>
      <trkpt lat="41.277950" lon="-3.479350">
        <ele>1884.0</ele>
        <time>2018-07-22T15:05:23Z</time>
      </trkpt>
      <trkpt lat="41.277867" lon="-3.479267">
        <ele>1884.0</ele>
        <time>2018-07-22T15:05:24Z</time>
      </trkpt>
      <trkpt lat="41.277783" lon="-3.479167">
        <ele>1883.0</ele>
        <time>2018-07-22T15:05:25Z</time>
      </trkpt>
      <trkpt lat="41.277717" lon="-3.479067">
        <ele>1883.0</ele>
        <time>2018-07-22T15:05:26Z</time>
      </trkpt>
      <trkpt lat="41.277633" lon="-3.478950">
        <ele>1883.0</ele>
        <time>2018-07-22T15:05:27Z</time>
      </trkpt>
      <trkpt lat="41.277550" lon="-3.478867">
        <ele>1883.0</ele>
        <time>2018-07-22T15:05:28Z</time>
      </trkpt>
      <trkpt lat="41.277467" lon="-3.478783">
        <ele>1882.0</ele>
        <time>2018-07-22T15:05:29Z</time>
      </trkpt>
      <trkpt lat="41.277383" lon="-3.478717">
        <ele>1881.0</ele>
        <time>2018-07-22T15:05:30Z</time>
      </trkpt>
      <trkpt lat="41.277300" lon="-3.478650">
        <ele>1881.0</ele>
        <time>2018-07-22T15:05:31Z</time>
      </trkpt>
      <trkpt lat="41.277200" lon="-3.478567">
        <ele>1881.0</ele>
        <time>2018-07-22T15:05:32Z</time>
      </trkpt>
      <trkpt lat="41.277117" lon="-3.478500">
        <ele>1881.0</ele>
        <time>2018-07-22T15:05:33Z</time>
      </trkpt>
      <trkpt lat="41.277017" lon="-3.478450">
        <ele>1881.0</ele>
        <time>2018-07-22T15:05:34Z</time>
      </trkpt>
      <trkpt lat="41.276950" lon="-3.478400">
        <ele>1881.0</ele>
        <time>2018-07-22T15:05:35Z</time>
      </trkpt>
      <trkpt lat="41.276867" lon="-3.478367">
        <ele>1879.0</ele>
        <time>2018-07-22T15:05:36Z</time>
      </trkpt>
      <trkpt lat="41.276783" lon="-3.478300">
        <ele>1877.0</ele>
        <time>2018-07-22T15:05:37Z</time>
      </trkpt>
      <trkpt lat="41.276683" lon="-3.478233">
        <ele>1875.0</ele>
        <time>2018-07-22T15:05:38Z</time>
      </trkpt>
      <trkpt lat="41.276583" lon="-3.478150">
        <ele>1874.0</ele>
        <time>2018-07-22T15:05:39Z</time>
      </trkpt>
      <trkpt lat="41.276500" lon="-3.478067">
        <ele>1873.0</ele>
        <time>2018-07-22T15:05:40Z</time>
      </trkpt>
      <trkpt lat="41.276417" lon="-3.477967">
        <ele>1872.0</ele>
        <time>2018-07-22T15:05:41Z</time>
      </trkpt>
      <trkpt lat="41.276317" lon="-3.477900">
        <ele>1870.0</ele>
        <time>2018-07-22T15:05:42Z</time>
      </trkpt>
      <trkpt lat="41.276217" lon="-3.477817">
        <ele>1868.0</ele>
        <time>2018-07-22T15:05:43Z</time>
      </trkpt>
      <trkpt lat="41.276117" lon="-3.477733">
        <ele>1866.0</ele>
        <time>2018-07-22T15:05:44Z</time>
      </trkpt>
      <trkpt lat="41.276017" lon="-3.477650">
        <ele>1864.0</ele>
        <time>2018-07-22T15:05:45Z</time>
      </trkpt>
      <trkpt lat="41.275917" lon="-3.477550">
        <ele>1863.0</ele>
        <time>2018-07-22T15:05:46Z</time>
      </trkpt>
      <trkpt lat="41.275817" lon="-3.477433">
        <ele>1862.0</ele>
        <time>2018-07-22T15:05:47Z</time>
      </trkpt>
      <trkpt lat="41.275717" lon="-3.477333">
        <ele>1862.0</ele>
        <time>2018-07-22T15:05:48Z</time>
      </trkpt>
      <trkpt lat="41.275617" lon="-3.477217">
        <ele>1861.0</ele>
        <time>2018-07-22T15:05:49Z</time>
      </trkpt>
      <trkpt lat="41.275517" lon="-3.477117">
        <ele>1860.0</ele>
        <time>2018-07-22T15:05:50Z</time>
      </trkpt>
      <trkpt lat="41.275417" lon="-3.477000">
        <ele>1860.0</ele>
        <time>2018-07-22T15:05:51Z</time>
      </trkpt>
      <trkpt lat="41.275317" lon="-3.476883">
        <ele>1861.0</ele>
        <time>2018-07-22T15:05:52Z</time>
      </trkpt>
      <trkpt lat="41.275217" lon="-3.476767">
        <ele>1863.0</ele>
        <time>2018-07-22T15:05:53Z</time>
      </trkpt>
      <trkpt lat="41.275117" lon="-3.476650">
        <ele>1865.0</ele>
        <time>2018-07-22T15:05:54Z</time>
      </trkpt>
      <trkpt lat="41.275033" lon="-3.476550">
        <ele>1866.0</ele>
        <time>2018-07-22T15:05:55Z</time>
      </trkpt>
      <trkpt lat="41.274950" lon="-3.476467">
        <ele>1867.0</ele>
        <time>2018-07-22T15:05:56Z</time>
      </trkpt>
      <trkpt lat="41.274867" lon="-3.476367">
        <ele>1866.0</ele>
        <time>2018-07-22T15:05:57Z</time>
      </trkpt>
      <trkpt lat="41.274767" lon="-3.476267">
        <ele>1866.0</ele>
        <time>2018-07-22T15:05:58Z</time>
      </trkpt>
      <trkpt lat="41.274683" lon="-3.476167">
        <ele>1865.0</ele>
        <time>2018-07-22T15:05:59Z</time>
      </trkpt>
      <trkpt lat="41.274600" lon="-3.476067">
        <ele>1863.0</ele>
        <time>2018-07-22T15:06:00Z</time>
      </trkpt>
      <trkpt lat="41.274517" lon="-3.475950">
        <ele>1861.0</ele>
        <time>2018-07-22T15:06:01Z</time>
      </trkpt>
      <trkpt lat="41.274417" lon="-3.475850">
        <ele>1861.0</ele>
        <time>2018-07-22T15:06:02Z</time>
      </trkpt>
      <trkpt lat="41.274317" lon="-3.475750">
        <ele>1861.0</ele>
        <time>2018-07-22T15:06:03Z</time>
      </trkpt>
      <trkpt lat="41.274233" lon="-3.475667">
        <ele>1861.0</ele>
        <time>2018-07-22T15:06:04Z</time>
      </trkpt>
      <trkpt lat="41.274133" lon="-3.475583">
        <ele>1860.0</ele>
        <time>2018-07-22T15:06:05Z</time>
      </trkpt>
      <trkpt lat="41.274017" lon="-3.475500">
        <ele>1858.0</ele>
        <time>2018-07-22T15:06:06Z</time>
      </trkpt>
      <trkpt lat="41.273917" lon="-3.475400">
        <ele>1856.0</ele>
        <time>2018-07-22T15:06:07Z</time>
      </trkpt>
      <trkpt lat="41.273817" lon="-3.475317">
        <ele>1857.0</ele>
        <time>2018-07-22T15:06:08Z</time>
      </trkpt>
      <trkpt lat="41.273700" lon="-3.475250">
        <ele>1857.0</ele>
        <time>2018-07-22T15:06:09Z</time>
      </trkpt>
      <trkpt lat="41.273617" lon="-3.475200">
        <ele>1856.0</ele>
        <time>2018-07-22T15:06:10Z</time>
      </trkpt>
      <trkpt lat="41.273517" lon="-3.475150">
        <ele>1854.0</ele>
        <time>2018-07-22T15:06:11Z</time>
      </trkpt>
      <trkpt lat="41.273400" lon="-3.475100">
        <ele>1852.0</ele>
        <time>2018-07-22T15:06:12Z</time>
      </trkpt>
      <trkpt lat="41.273300" lon="-3.475033">
        <ele>1850.0</ele>
        <time>2018-07-22T15:06:13Z</time>
      </trkpt>
      <trkpt lat="41.273167" lon="-3.474983">
        <ele>1848.0</ele>
        <time>2018-07-22T15:06:14Z</time>
      </trkpt>
      <trkpt lat="41.273050" lon="-3.474933">
        <ele>1847.0</ele>
        <time>2018-07-22T15:06:15Z</time>
      </trkpt>
      <trkpt lat="41.272950" lon="-3.474883">
        <ele>1848.0</ele>
        <time>2018-07-22T15:06:16Z</time>
      </trkpt>
      <trkpt lat="41.272850" lon="-3.474850">
        <ele>1848.0</ele>
        <time>2018-07-22T15:06:17Z</time>
      </trkpt>
      <trkpt lat="41.272750" lon="-3.474817">
        <ele>1847.0</ele>
        <time>2018-07-22T15:06:18Z</time>
      </trkpt>
      <trkpt lat="41.272650" lon="-3.474783">
        <ele>1845.0</ele>
        <time>2018-07-22T15:06:19Z</time>
      </trkpt>
      <trkpt lat="41.272533" lon="-3.474733">
        <ele>1842.0</ele>
        <time>2018-07-22T15:06:20Z</time>
      </trkpt>
      <trkpt lat="41.272433" lon="-3.474683">
        <ele>1841.0</ele>
        <time>2018-07-22T15:06:21Z</time>
      </trkpt>
      <trkpt lat="41.272333" lon="-3.474617">
        <ele>1840.0</ele>
        <time>2018-07-22T15:06:22Z</time>
      </trkpt>
      <trkpt lat="41.272233" lon="-3.474567">
        <ele>1840.0</ele>
        <time>2018-07-22T15:06:23Z</time>
      </trkpt>
      <trkpt lat="41.272133" lon="-3.474500">
        <ele>1840.0</ele>
        <time>2018-07-22T15:06:24Z</time>
      </trkpt>
      <trkpt lat="41.272033" lon="-3.474450">
        <ele>1839.0</ele>
        <time>2018-07-22T15:06:25Z</time>
      </trkpt>
      <trkpt lat="41.271950" lon="-3.474400">
        <ele>1838.0</ele>
        <time>2018-07-22T15:06:26Z</time>
      </trkpt>
      <trkpt lat="41.271850" lon="-3.474333">
        <ele>1838.0</ele>
        <time>2018-07-22T15:06:27Z</time>
      </trkpt>
      <trkpt lat="41.271750" lon="-3.474267">
        <ele>1837.0</ele>
        <time>2018-07-22T15:06:28Z</time>
      </trkpt>
      <trkpt lat="41.271650" lon="-3.474200">
        <ele>1836.0</ele>
        <time>2018-07-22T15:06:29Z</time>
      </trkpt>
      <trkpt lat="41.271550" lon="-3.474133">
        <ele>1836.0</ele>
        <time>2018-07-22T15:06:30Z</time>
      </trkpt>
      <trkpt lat="41.271450" lon="-3.474067">
        <ele>1835.0</ele>
        <time>2018-07-22T15:06:31Z</time>
      </trkpt>
      <trkpt lat="41.271350" lon="-3.474000">
        <ele>1834.0</ele>
        <time>2018-07-22T15:06:32Z</time>
      </trkpt>
      <trkpt lat="41.271250" lon="-3.473950">
        <ele>1834.0</ele>
        <time>2018-07-22T15:06:33Z</time>
      </trkpt>
      <trkpt lat="41.271167" lon="-3.473900">
        <ele>1832.0</ele>
        <time>2018-07-22T15:06:34Z</time>
      </trkpt>
      <trkpt lat="41.271067" lon="-3.473883">
        <ele>1830.0</ele>
        <time>2018-07-22T15:06:35Z</time>
      </trkpt>
      <trkpt lat="41.270983" lon="-3.473867">
        <ele>1828.0</ele>
        <time>2018-07-22T15:06:36Z</time>
      </trkpt>
      <trkpt lat="41.270883" lon="-3.473867">
        <ele>1826.0</ele>
        <time>2018-07-22T15:06:37Z</time>
      </trkpt>
      <trkpt lat="41.270783" lon="-3.473867">
        <ele>1826.0</ele>
        <time>2018-07-22T15:06:38Z</time>
      </trkpt>
      <trkpt lat="41.270683" lon="-3.473883">
        <ele>1826.0</ele>
        <time>2018-07-22T15:06:39Z</time>
      </trkpt>
      <trkpt lat="41.270600" lon="-3.473883">
        <ele>1826.0</ele>
        <time>2018-07-22T15:06:40Z</time>
      </trkpt>
      <trkpt lat="41.270533" lon="-3.473900">
        <ele>1824.0</ele>
        <time>2018-07-22T15:06:41Z</time>
      </trkpt>
      <trkpt lat="41.270450" lon="-3.473933">
        <ele>1822.0</ele>
        <time>2018-07-22T15:06:42Z</time>
      </trkpt>
      <trkpt lat="41.270367" lon="-3.473950">
        <ele>1820.0</ele>
        <time>2018-07-22T15:06:43Z</time>
      </trkpt>
      <trkpt lat="41.270267" lon="-3.473983">
        <ele>1817.0</ele>
        <time>2018-07-22T15:06:44Z</time>
      </trkpt>
      <trkpt lat="41.270183" lon="-3.474017">
        <ele>1815.0</ele>
        <time>2018-07-22T15:06:45Z</time>
      </trkpt>
      <trkpt lat="41.270100" lon="-3.474050">
        <ele>1814.0</ele>
        <time>2018-07-22T15:06:46Z</time>
      </trkpt>
      <trkpt lat="41.270017" lon="-3.474083">
        <ele>1813.0</ele>
        <time>2018-07-22T15:06:47Z</time>
      </trkpt>
      <trkpt lat="41.269917" lon="-3.474100">
        <ele>1812.0</ele>
        <time>2018-07-22T15:06:48Z</time>
      </trkpt>
      <trkpt lat="41.269833" lon="-3.474133">
        <ele>1811.0</ele>
        <time>2018-07-22T15:06:49Z</time>
      </trkpt>
      <trkpt lat="41.269750" lon="-3.474150">
        <ele>1811.0</ele>
        <time>2018-07-22T15:06:50Z</time>
      </trkpt>
      <trkpt lat="41.269683" lon="-3.474200">
        <ele>1811.0</ele>
        <time>2018-07-22T15:06:51Z</time>
      </trkpt>
      <trkpt lat="41.269650" lon="-3.474267">
        <ele>1810.0</ele>
        <time>2018-07-22T15:06:52Z</time>
      </trkpt>
      <trkpt lat="41.269617" lon="-3.474333">
        <ele>1808.0</ele>
        <time>2018-07-22T15:06:53Z</time>
      </trkpt>
      <trkpt lat="41.269600" lon="-3.474417">
        <ele>1806.0</ele>
        <time>2018-07-22T15:06:54Z</time>
      </trkpt>
      <trkpt lat="41.269600" lon="-3.474500">
        <ele>1805.0</ele>
        <time>2018-07-22T15:06:55Z</time>
      </trkpt>
      <trkpt lat="41.269617" lon="-3.474600">
        <ele>1805.0</ele>
        <time>2018-07-22T15:06:56Z</time>
      </trkpt>
      <trkpt lat="41.269633" lon="-3.474683">
        <ele>1805.0</ele>
        <time>2018-07-22T15:06:57Z</time>
      </trkpt>
      <trkpt lat="41.269633" lon="-3.474767">
        <ele>1806.0</ele>
        <time>2018-07-22T15:06:58Z</time>
      </trkpt>
      <trkpt lat="41.269633" lon="-3.474833">
        <ele>1806.0</ele>
        <time>2018-07-22T15:06:59Z</time>
      </trkpt>
      <trkpt lat="41.269633" lon="-3.474900">
        <ele>1806.0</ele>
        <time>2018-07-22T15:07:00Z</time>
      </trkpt>
      <trkpt lat="41.269617" lon="-3.474983">
        <ele>1805.0</ele>
        <time>2018-07-22T15:07:01Z</time>
      </trkpt>
      <trkpt lat="41.269633" lon="-3.475067">
        <ele>1805.0</ele>
        <time>2018-07-22T15:07:02Z</time>
      </trkpt>
      <trkpt lat="41.269650" lon="-3.475150">
        <ele>1804.0</ele>
        <time>2018-07-22T15:07:03Z</time>
      </trkpt>
      <trkpt lat="41.269667" lon="-3.475233">
        <ele>1804.0</ele>
        <time>2018-07-22T15:07:04Z</time>
      </trkpt>
      <trkpt lat="41.269683" lon="-3.475317">
        <ele>1804.0</ele>
        <time>2018-07-22T15:07:05Z</time>
      </trkpt>
      <trkpt lat="41.269700" lon="-3.475417">
        <ele>1804.0</ele>
        <time>2018-07-22T15:07:06Z</time>
      </trkpt>
      <trkpt lat="41.269717" lon="-3.475500">
        <ele>1804.0</ele>
        <time>2018-07-22T15:07:07Z</time>
      </trkpt>
      <trkpt lat="41.269733" lon="-3.475583">
        <ele>1804.0</ele>
        <time>2018-07-22T15:07:08Z</time>
      </trkpt>
      <trkpt lat="41.269750" lon="-3.475650">
        <ele>1805.0</ele>
        <time>2018-07-22T15:07:09Z</time>
      </trkpt>
      <trkpt lat="41.269767" lon="-3.475700">
        <ele>1805.0</ele>
        <time>2018-07-22T15:07:10Z</time>
      </trkpt>
      <trkpt lat="41.269783" lon="-3.475767">
        <ele>1805.0</ele>
        <time>2018-07-22T15:07:11Z</time>
      </trkpt>
      <trkpt lat="41.269833" lon="-3.475817">
        <ele>1805.0</ele>
        <time>2018-07-22T15:07:12Z</time>
      </trkpt>
      <trkpt lat="41.269883" lon="-3.475867">
        <ele>1804.0</ele>
        <time>2018-07-22T15:07:13Z</time>
      </trkpt>
      <trkpt lat="41.269950" lon="-3.475900">
        <ele>1804.0</ele>
        <time>2018-07-22T15:07:14Z</time>
      </trkpt>
      <trkpt lat="41.270017" lon="-3.475933">
        <ele>1803.0</ele>
        <time>2018-07-22T15:07:15Z</time>
      </trkpt>
      <trkpt lat="41.270100" lon="-3.475983">
        <ele>1803.0</ele>
        <time>2018-07-22T15:07:16Z</time>
      </trkpt>
      <trkpt lat="41.270167" lon="-3.476017">
        <ele>1804.0</ele>
        <time>2018-07-22T15:07:17Z</time>
      </trkpt>
      <trkpt lat="41.270250" lon="-3.476050">
        <ele>1804.0</ele>
        <time>2018-07-22T15:07:18Z</time>
      </trkpt>
      <trkpt lat="41.270317" lon="-3.476083">
        <ele>1805.0</ele>
        <time>2018-07-22T15:07:19Z</time>
      </trkpt>
      <trkpt lat="41.270367" lon="-3.476117">
        <ele>1806.0</ele>
        <time>2018-07-22T15:07:20Z</time>
      </trkpt>
      <trkpt lat="41.270417" lon="-3.476150">
        <ele>1806.0</ele>
        <time>2018-07-22T15:07:21Z</time>
      </trkpt>
      <trkpt lat="41.270483" lon="-3.476200">
        <ele>1805.0</ele>
        <time>2018-07-22T15:07:22Z</time>
      </trkpt>
      <trkpt lat="41.270533" lon="-3.476267">
        <ele>1805.0</ele>
        <time>2018-07-22T15:07:23Z</time>
      </trkpt>
      <trkpt lat="41.270567" lon="-3.476333">
        <ele>1804.0</ele>
        <time>2018-07-22T15:07:24Z</time>
      </trkpt>
      <trkpt lat="41.270600" lon="-3.476417">
        <ele>1804.0</ele>
        <time>2018-07-22T15:07:25Z</time>
      </trkpt>
      <trkpt lat="41.270633" lon="-3.476500">
        <ele>1803.0</ele>
        <time>2018-07-22T15:07:26Z</time>
      </trkpt>
      <trkpt lat="41.270650" lon="-3.476567">
        <ele>1804.0</ele>
        <time>2018-07-22T15:07:27Z</time>
      </trkpt>
      <trkpt lat="41.270667" lon="-3.476633">
        <ele>1804.0</ele>
        <time>2018-07-22T15:07:28Z</time>
      </trkpt>
      <trkpt lat="41.270683" lon="-3.476700">
        <ele>1804.0</ele>
        <time>2018-07-22T15:07:29Z</time>
      </trkpt>
      <trkpt lat="41.270733" lon="-3.476750">
        <ele>1804.0</ele>
        <time>2018-07-22T15:07:30Z</time>
      </trkpt>
      <trkpt lat="41.270783" lon="-3.476800">
        <ele>1802.0</ele>
        <time>2018-07-22T15:07:31Z</time>
      </trkpt>
      <trkpt lat="41.270850" lon="-3.476833">
        <ele>1801.0</ele>
        <time>2018-07-22T15:07:32Z</time>
      </trkpt>
      <trkpt lat="41.270933" lon="-3.476850">
        <ele>1801.0</ele>
        <time>2018-07-22T15:07:33Z</time>
      </trkpt>
      <trkpt lat="41.271017" lon="-3.476833">
        <ele>1800.0</ele>
        <time>2018-07-22T15:07:34Z</time>
      </trkpt>
      <trkpt lat="41.271083" lon="-3.476800">
        <ele>1799.0</ele>
        <time>2018-07-22T15:07:35Z</time>
      </trkpt>
      <trkpt lat="41.271167" lon="-3.476750">
        <ele>1798.0</ele>
        <time>2018-07-22T15:07:36Z</time>
      </trkpt>
      <trkpt lat="41.271267" lon="-3.476683">
        <ele>1796.0</ele>
        <time>2018-07-22T15:07:37Z</time>
      </trkpt>
      <trkpt lat="41.271350" lon="-3.476633">
        <ele>1795.0</ele>
        <time>2018-07-22T15:07:38Z</time>
      </trkpt>
      <trkpt lat="41.271433" lon="-3.476583">
        <ele>1794.0</ele>
        <time>2018-07-22T15:07:39Z</time>
      </trkpt>
      <trkpt lat="41.271533" lon="-3.476533">
        <ele>1793.0</ele>
        <time>2018-07-22T15:07:40Z</time>
      </trkpt>
      <trkpt lat="41.271617" lon="-3.476483">
        <ele>1791.0</ele>
        <time>2018-07-22T15:07:41Z</time>
      </trkpt>
      <trkpt lat="41.271717" lon="-3.476417">
        <ele>1790.0</ele>
        <time>2018-07-22T15:07:42Z</time>
      </trkpt>
      <trkpt lat="41.271817" lon="-3.476350">
        <ele>1788.0</ele>
        <time>2018-07-22T15:07:43Z</time>
      </trkpt>
      <trkpt lat="41.271917" lon="-3.476267">
        <ele>1788.0</ele>
        <time>2018-07-22T15:07:44Z</time>
      </trkpt>
      <trkpt lat="41.272017" lon="-3.476183">
        <ele>1788.0</ele>
        <time>2018-07-22T15:07:45Z</time>
      </trkpt>
      <trkpt lat="41.272100" lon="-3.476117">
        <ele>1788.0</ele>
        <time>2018-07-22T15:07:46Z</time>
      </trkpt>
      <trkpt lat="41.272200" lon="-3.476050">
        <ele>1788.0</ele>
        <time>2018-07-22T15:07:47Z</time>
      </trkpt>
      <trkpt lat="41.272283" lon="-3.475983">
        <ele>1788.0</ele>
        <time>2018-07-22T15:07:48Z</time>
      </trkpt>
      <trkpt lat="41.272367" lon="-3.475917">
        <ele>1788.0</ele>
        <time>2018-07-22T15:07:49Z</time>
      </trkpt>
      <trkpt lat="41.272450" lon="-3.475850">
        <ele>1787.0</ele>
        <time>2018-07-22T15:07:50Z</time>
      </trkpt>
      <trkpt lat="41.272533" lon="-3.475783">
        <ele>1787.0</ele>
        <time>2018-07-22T15:07:51Z</time>
      </trkpt>
      <trkpt lat="41.272617" lon="-3.475717">
        <ele>1786.0</ele>
        <time>2018-07-22T15:07:52Z</time>
      </trkpt>
      <trkpt lat="41.272717" lon="-3.475667">
        <ele>1785.0</ele>
        <time>2018-07-22T15:07:53Z</time>
      </trkpt>
      <trkpt lat="41.272800" lon="-3.475617">
        <ele>1783.0</ele>
        <time>2018-07-22T15:07:54Z</time>
      </trkpt>
      <trkpt lat="41.272900" lon="-3.475567">
        <ele>1783.0</ele>
        <time>2018-07-22T15:07:55Z</time>
      </trkpt>
      <trkpt lat="41.272983" lon="-3.475517">
        <ele>1783.0</ele>
        <time>2018-07-22T15:07:56Z</time>
      </trkpt>
      <trkpt lat="41.273050" lon="-3.475500">
        <ele>1782.0</ele>
        <time>2018-07-22T15:07:57Z</time>
      </trkpt>
      <trkpt lat="41.273117" lon="-3.475517">
        <ele>1780.0</ele>
        <time>2018-07-22T15:07:58Z</time>
      </trkpt>
      <trkpt lat="41.273167" lon="-3.475583">
        <ele>1776.0</ele>
        <time>2018-07-22T15:07:59Z</time>
      </trkpt>
      <trkpt lat="41.273183" lon="-3.475683">
        <ele>1773.0</ele>
        <time>2018-07-22T15:08:00Z</time>
      </trkpt>
      <trkpt lat="41.273133" lon="-3.475783">
        <ele>1770.0</ele>
        <time>2018-07-22T15:08:01Z</time>
      </trkpt>
      <trkpt lat="41.273033" lon="-3.475850">
        <ele>1769.0</ele>
        <time>2018-07-22T15:08:02Z</time>
      </trkpt>
      <trkpt lat="41.272900" lon="-3.475817">
        <ele>1767.0</ele>
        <time>2018-07-22T15:08:03Z</time>
      </trkpt>
      <trkpt lat="41.272800" lon="-3.475683">
        <ele>1765.0</ele>
        <time>2018-07-22T15:08:04Z</time>
      </trkpt>
      <trkpt lat="41.272750" lon="-3.475483">
        <ele>1762.0</ele>
        <time>2018-07-22T15:08:05Z</time>
      </trkpt>
      <trkpt lat="41.272783" lon="-3.475300">
        <ele>1760.0</ele>
        <time>2018-07-22T15:08:06Z</time>
      </trkpt>
      <trkpt lat="41.272867" lon="-3.475167">
        <ele>1759.0</ele>
        <time>2018-07-22T15:08:07Z</time>
      </trkpt>
      <trkpt lat="41.272967" lon="-3.475117">
        <ele>1757.0</ele>
        <time>2018-07-22T15:08:08Z</time>
      </trkpt>
      <trkpt lat="41.273050" lon="-3.475167">
        <ele>1753.0</ele>
        <time>2018-07-22T15:08:09Z</time>
      </trkpt>
      <trkpt lat="41.273083" lon="-3.475283">
        <ele>1750.0</ele>
        <time>2018-07-22T15:08:10Z</time>
      </trkpt>
      <trkpt lat="41.273017" lon="-3.475400">
        <ele>1747.0</ele>
        <time>2018-07-22T15:08:11Z</time>
      </trkpt>
      <trkpt lat="41.272883" lon="-3.475433">
        <ele>1744.0</ele>
        <time>2018-07-22T15:08:12Z</time>
      </trkpt>
      <trkpt lat="41.272733" lon="-3.475333">
        <ele>1742.0</ele>
        <time>2018-07-22T15:08:13Z</time>
      </trkpt>
      <trkpt lat="41.272667" lon="-3.475133">
        <ele>1739.0</ele>
        <time>2018-07-22T15:08:14Z</time>
      </trkpt>
      <trkpt lat="41.272700" lon="-3.474933">
        <ele>1733.0</ele>
        <time>2018-07-22T15:08:15Z</time>
      </trkpt>
      <trkpt lat="41.272817" lon="-3.474833">
        <ele>1727.0</ele>
        <time>2018-07-22T15:08:16Z</time>
      </trkpt>
      <trkpt lat="41.272933" lon="-3.474900">
        <ele>1720.0</ele>
        <time>2018-07-22T15:08:17Z</time>
      </trkpt>
      <trkpt lat="41.272917" lon="-3.475067">
        <ele>1714.0</ele>
        <time>2018-07-22T15:08:18Z</time>
      </trkpt>
      <trkpt lat="41.272767" lon="-3.475133">
        <ele>1709.0</ele>
        <time>2018-07-22T15:08:19Z</time>
      </trkpt>
      <trkpt lat="41.272600" lon="-3.475000">
        <ele>1705.0</ele>
        <time>2018-07-22T15:08:20Z</time>
      </trkpt>
      <trkpt lat="41.272583" lon="-3.474733">
        <ele>1699.0</ele>
        <time>2018-07-22T15:08:21Z</time>
      </trkpt>
      <trkpt lat="41.272717" lon="-3.474550">
        <ele>1695.0</ele>
        <time>2018-07-22T15:08:22Z</time>
      </trkpt>
      <trkpt lat="41.272867" lon="-3.474550">
        <ele>1696.0</ele>
        <time>2018-07-22T15:08:23Z</time>
      </trkpt>
      <trkpt lat="41.272933" lon="-3.474667">
        <ele>1697.0</ele>
        <time>2018-07-22T15:08:24Z</time>
      </trkpt>
      <trkpt lat="41.272900" lon="-3.474783">
        <ele>1697.0</ele>
        <time>2018-07-22T15:08:25Z</time>
      </trkpt>
      <trkpt lat="41.272783" lon="-3.474850">
        <ele>1696.0</ele>
        <time>2018-07-22T15:08:26Z</time>
      </trkpt>
      <trkpt lat="41.272650" lon="-3.474817">
        <ele>1697.0</ele>
        <time>2018-07-22T15:08:27Z</time>
      </trkpt>
      <trkpt lat="41.272550" lon="-3.474733">
        <ele>1698.0</ele>
        <time>2018-07-22T15:08:28Z</time>
      </trkpt>
      <trkpt lat="41.272483" lon="-3.474600">
        <ele>1698.0</ele>
        <time>2018-07-22T15:08:29Z</time>
      </trkpt>
      <trkpt lat="41.272433" lon="-3.474483">
        <ele>1699.0</ele>
        <time>2018-07-22T15:08:30Z</time>
      </trkpt>
      <trkpt lat="41.272383" lon="-3.474367">
        <ele>1699.0</ele>
        <time>2018-07-22T15:08:31Z</time>
      </trkpt>
      <trkpt lat="41.272350" lon="-3.474250">
        <ele>1698.0</ele>
        <time>2018-07-22T15:08:32Z</time>
      </trkpt>
      <trkpt lat="41.272300" lon="-3.474150">
        <ele>1697.0</ele>
        <time>2018-07-22T15:08:33Z</time>
      </trkpt>
      <trkpt lat="41.272233" lon="-3.474050">
        <ele>1695.0</ele>
        <time>2018-07-22T15:08:34Z</time>
      </trkpt>
      <trkpt lat="41.272167" lon="-3.473950">
        <ele>1694.0</ele>
        <time>2018-07-22T15:08:35Z</time>
      </trkpt>
      <trkpt lat="41.272100" lon="-3.473850">
        <ele>1693.0</ele>
        <time>2018-07-22T15:08:36Z</time>
      </trkpt>
      <trkpt lat="41.272033" lon="-3.473733">
        <ele>1693.0</ele>
        <time>2018-07-22T15:08:37Z</time>
      </trkpt>
      <trkpt lat="41.271967" lon="-3.473633">
        <ele>1694.0</ele>
        <time>2018-07-22T15:08:38Z</time>
      </trkpt>
      <trkpt lat="41.271883" lon="-3.473533">
        <ele>1694.0</ele>
        <time>2018-07-22T15:08:39Z</time>
      </trkpt>
      <trkpt lat="41.271817" lon="-3.473450">
        <ele>1694.0</ele>
        <time>2018-07-22T15:08:40Z</time>
      </trkpt>
      <trkpt lat="41.271750" lon="-3.473367">
        <ele>1693.0</ele>
        <time>2018-07-22T15:08:41Z</time>
      </trkpt>
      <trkpt lat="41.271667" lon="-3.473267">
        <ele>1692.0</ele>
        <time>2018-07-22T15:08:42Z</time>
      </trkpt>
      <trkpt lat="41.271583" lon="-3.473167">
        <ele>1691.0</ele>
        <time>2018-07-22T15:08:43Z</time>
      </trkpt>
      <trkpt lat="41.271483" lon="-3.473083">
        <ele>1691.0</ele>
        <time>2018-07-22T15:08:44Z</time>
      </trkpt>
      <trkpt lat="41.271383" lon="-3.473017">
        <ele>1691.0</ele>
        <time>2018-07-22T15:08:45Z</time>
      </trkpt>
      <trkpt lat="41.271283" lon="-3.472950">
        <ele>1692.0</ele>
        <time>2018-07-22T15:08:46Z</time>
      </trkpt>
      <trkpt lat="41.271200" lon="-3.472883">
        <ele>1692.0</ele>
        <time>2018-07-22T15:08:47Z</time>
      </trkpt>
      <trkpt lat="41.271117" lon="-3.472800">
        <ele>1691.0</ele>
        <time>2018-07-22T15:08:48Z</time>
      </trkpt>
      <trkpt lat="41.271033" lon="-3.472700">
        <ele>1690.0</ele>
        <time>2018-07-22T15:08:49Z</time>
      </trkpt>
      <trkpt lat="41.270933" lon="-3.472600">
        <ele>1689.0</ele>
        <time>2018-07-22T15:08:50Z</time>
      </trkpt>
      <trkpt lat="41.270833" lon="-3.472533">
        <ele>1688.0</ele>
        <time>2018-07-22T15:08:51Z</time>
      </trkpt>
      <trkpt lat="41.270750" lon="-3.472467">
        <ele>1689.0</ele>
        <time>2018-07-22T15:08:52Z</time>
      </trkpt>
      <trkpt lat="41.270650" lon="-3.472383">
        <ele>1689.0</ele>
        <time>2018-07-22T15:08:53Z</time>
      </trkpt>
      <trkpt lat="41.270567" lon="-3.472300">
        <ele>1688.0</ele>
        <time>2018-07-22T15:08:54Z</time>
      </trkpt>
      <trkpt lat="41.270483" lon="-3.472217">
        <ele>1687.0</ele>
        <time>2018-07-22T15:08:55Z</time>
      </trkpt>
      <trkpt lat="41.270383" lon="-3.472150">
        <ele>1685.0</ele>
        <time>2018-07-22T15:08:56Z</time>
      </trkpt>
      <trkpt lat="41.270300" lon="-3.472100">
        <ele>1684.0</ele>
        <time>2018-07-22T15:08:57Z</time>
      </trkpt>
      <trkpt lat="41.270200" lon="-3.472033">
        <ele>1683.0</ele>
        <time>2018-07-22T15:08:58Z</time>
      </trkpt>
      <trkpt lat="41.270117" lon="-3.471983">
        <ele>1682.0</ele>
        <time>2018-07-22T15:08:59Z</time>
      </trkpt>
      <trkpt lat="41.270017" lon="-3.471933">
        <ele>1681.0</ele>
        <time>2018-07-22T15:09:00Z</time>
      </trkpt>
      <trkpt lat="41.269950" lon="-3.471917">
        <ele>1680.0</ele>
        <time>2018-07-22T15:09:01Z</time>
      </trkpt>
      <trkpt lat="41.269867" lon="-3.471917">
        <ele>1677.0</ele>
        <time>2018-07-22T15:09:02Z</time>
      </trkpt>
      <trkpt lat="41.269783" lon="-3.471933">
        <ele>1675.0</ele>
        <time>2018-07-22T15:09:03Z</time>
      </trkpt>
      <trkpt lat="41.269700" lon="-3.471950">
        <ele>1674.0</ele>
        <time>2018-07-22T15:09:04Z</time>
      </trkpt>
      <trkpt lat="41.269617" lon="-3.471967">
        <ele>1673.0</ele>
        <time>2018-07-22T15:09:05Z</time>
      </trkpt>
      <trkpt lat="41.269550" lon="-3.472017">
        <ele>1672.0</ele>
        <time>2018-07-22T15:09:06Z</time>
      </trkpt>
      <trkpt lat="41.269517" lon="-3.472067">
        <ele>1671.0</ele>
        <time>2018-07-22T15:09:07Z</time>
      </trkpt>
      <trkpt lat="41.269483" lon="-3.472150">
        <ele>1671.0</ele>
        <time>2018-07-22T15:09:08Z</time>
      </trkpt>
      <trkpt lat="41.269450" lon="-3.472217">
        <ele>1670.0</ele>
        <time>2018-07-22T15:09:09Z</time>
      </trkpt>
      <trkpt lat="41.269417" lon="-3.472283">
        <ele>1670.0</ele>
        <time>2018-07-22T15:09:10Z</time>
      </trkpt>
      <trkpt lat="41.269383" lon="-3.472367">
        <ele>1669.0</ele>
        <time>2018-07-22T15:09:11Z</time>
      </trkpt>
      <trkpt lat="41.269333" lon="-3.472433">
        <ele>1669.0</ele>
        <time>2018-07-22T15:09:12Z</time>
      </trkpt>
      <trkpt lat="41.269283" lon="-3.472483">
        <ele>1669.0</ele>
        <time>2018-07-22T15:09:13Z</time>
      </trkpt>
      <trkpt lat="41.269233" lon="-3.472533">
        <ele>1670.0</ele>
        <time>2018-07-22T15:09:14Z</time>
      </trkpt>
      <trkpt lat="41.269183" lon="-3.472567">
        <ele>1672.0</ele>
        <time>2018-07-22T15:09:15Z</time>
      </trkpt>
      <trkpt lat="41.269150" lon="-3.472617">
        <ele>1673.0</ele>
        <time>2018-07-22T15:09:16Z</time>
      </trkpt>
      <trkpt lat="41.269117" lon="-3.472667">
        <ele>1673.0</ele>
        <time>2018-07-22T15:09:17Z</time>
      </trkpt>
      <trkpt lat="41.269117" lon="-3.472717">
        <ele>1673.0</ele>
        <time>2018-07-22T15:09:18Z</time>
      </trkpt>
      <trkpt lat="41.269117" lon="-3.472783">
        <ele>1673.0</ele>
        <time>2018-07-22T15:09:19Z</time>
      </trkpt>
      <trkpt lat="41.269133" lon="-3.472850">
        <ele>1673.0</ele>
        <time>2018-07-22T15:09:20Z</time>
      </trkpt>
      <trkpt lat="41.269150" lon="-3.472917">
        <ele>1673.0</ele>
        <time>2018-07-22T15:09:21Z</time>
      </trkpt>
      <trkpt lat="41.269200" lon="-3.472967">
        <ele>1672.0</ele>
        <time>2018-07-22T15:09:22Z</time>
      </trkpt>
      <trkpt lat="41.269250" lon="-3.473033">
        <ele>1672.0</ele>
        <time>2018-07-22T15:09:23Z</time>
      </trkpt>
      <trkpt lat="41.269300" lon="-3.473100">
        <ele>1671.0</ele>
        <time>2018-07-22T15:09:24Z</time>
      </trkpt>
      <trkpt lat="41.269367" lon="-3.473167">
        <ele>1672.0</ele>
        <time>2018-07-22T15:09:25Z</time>
      </trkpt>
      <trkpt lat="41.269417" lon="-3.473233">
        <ele>1673.0</ele>
        <time>2018-07-22T15:09:26Z</time>
      </trkpt>
      <trkpt lat="41.269483" lon="-3.473283">
        <ele>1674.0</ele>
        <time>2018-07-22T15:09:27Z</time>
      </trkpt>
      <trkpt lat="41.269550" lon="-3.473350">
        <ele>1675.0</ele>
        <time>2018-07-22T15:09:28Z</time>
      </trkpt>
      <trkpt lat="41.269617" lon="-3.473417">
        <ele>1675.0</ele>
        <time>2018-07-22T15:09:29Z</time>
      </trkpt>
      <trkpt lat="41.269683" lon="-3.473467">
        <ele>1675.0</ele>
        <time>2018-07-22T15:09:30Z</time>
      </trkpt>
      <trkpt lat="41.269733" lon="-3.473500">
        <ele>1675.0</ele>
        <time>2018-07-22T15:09:31Z</time>
      </trkpt>
      <trkpt lat="41.269783" lon="-3.473533">
        <ele>1673.0</ele>
        <time>2018-07-22T15:09:32Z</time>
      </trkpt>
      <trkpt lat="41.269850" lon="-3.473567">
        <ele>1670.0</ele>
        <time>2018-07-22T15:09:33Z</time>
      </trkpt>
      <trkpt lat="41.269900" lon="-3.473617">
        <ele>1667.0</ele>
        <time>2018-07-22T15:09:34Z</time>
      </trkpt>
      <trkpt lat="41.269950" lon="-3.473667">
        <ele>1664.0</ele>
        <time>2018-07-22T15:09:35Z</time>
      </trkpt>
      <trkpt lat="41.270017" lon="-3.473717">
        <ele>1661.0</ele>
        <time>2018-07-22T15:09:36Z</time>
      </trkpt>
      <trkpt lat="41.270083" lon="-3.473750">
        <ele>1659.0</ele>
        <time>2018-07-22T15:09:37Z</time>
      </trkpt>
      <trkpt lat="41.270150" lon="-3.473783">
        <ele>1656.0</ele>
        <time>2018-07-22T15:09:38Z</time>
      </trkpt>
      <trkpt lat="41.270217" lon="-3.473833">
        <ele>1653.0</ele>
        <time>2018-07-22T15:09:39Z</time>
      </trkpt>
      <trkpt lat="41.270283" lon="-3.473867">
        <ele>1650.0</ele>
        <time>2018-07-22T15:09:40Z</time>
      </trkpt>
      <trkpt lat="41.270350" lon="-3.473917">
        <ele>1646.0</ele>
        <time>2018-07-22T15:09:41Z</time>
      </trkpt>
      <trkpt lat="41.270433" lon="-3.473967">
        <ele>1644.0</ele>
        <time>2018-07-22T15:09:42Z</time>
      </trkpt>
      <trkpt lat="41.270517" lon="-3.474000">
        <ele>1644.0</ele>
        <time>2018-07-22T15:09:43Z</time>
      </trkpt>
      <trkpt lat="41.270600" lon="-3.474017">
        <ele>1644.0</ele>
        <time>2018-07-22T15:09:44Z</time>
      </trkpt>
      <trkpt lat="41.270667" lon="-3.474033">
        <ele>1643.0</ele>
        <time>2018-07-22T15:09:45Z</time>
      </trkpt>
      <trkpt lat="41.270733" lon="-3.474050">
        <ele>1640.0</ele>
        <time>2018-07-22T15:09:46Z</time>
      </trkpt>
      <trkpt lat="41.270800" lon="-3.474067">
        <ele>1637.0</ele>
        <time>2018-07-22T15:09:47Z</time>
      </trkpt>
      <trkpt lat="41.270883" lon="-3.474083">
        <ele>1634.0</ele>
        <time>2018-07-22T15:09:48Z</time>
      </trkpt>
      <trkpt lat="41.270983" lon="-3.474100">
        <ele>1631.0</ele>
        <time>2018-07-22T15:09:49Z</time>
      </trkpt>
      <trkpt lat="41.271067" lon="-3.474150">
        <ele>1631.0</ele>
        <time>2018-07-22T15:09:50Z</time>
      </trkpt>
      <trkpt lat="41.271133" lon="-3.474183">
        <ele>1632.0</ele>
        <time>2018-07-22T15:09:51Z</time>
      </trkpt>
      <trkpt lat="41.271183" lon="-3.474217">
        <ele>1632.0</ele>
        <time>2018-07-22T15:09:52Z</time>
      </trkpt>
      <trkpt lat="41.271217" lon="-3.474250">
        <ele>1631.0</ele>
        <time>2018-07-22T15:09:53Z</time>
      </trkpt>
      <trkpt lat="41.271267" lon="-3.474283">
        <ele>1629.0</ele>
        <time>2018-07-22T15:09:54Z</time>
      </trkpt>
      <trkpt lat="41.271333" lon="-3.474317">
        <ele>1626.0</ele>
        <time>2018-07-22T15:09:55Z</time>
      </trkpt>
      <trkpt lat="41.271400" lon="-3.474350">
        <ele>1624.0</ele>
        <time>2018-07-22T15:09:56Z</time>
      </trkpt>
      <trkpt lat="41.271467" lon="-3.474383">
        <ele>1621.0</ele>
        <time>2018-07-22T15:09:57Z</time>
      </trkpt>
      <trkpt lat="41.271517" lon="-3.474433">
        <ele>1619.0</ele>
        <time>2018-07-22T15:09:58Z</time>
      </trkpt>
      <trkpt lat="41.271567" lon="-3.474483">
        <ele>1616.0</ele>
        <time>2018-07-22T15:09:59Z</time>
      </trkpt>
      <trkpt lat="41.271600" lon="-3.474567">
        <ele>1612.0</ele>
        <time>2018-07-22T15:10:00Z</time>
      </trkpt>
      <trkpt lat="41.271633" lon="-3.474667">
        <ele>1608.0</ele>
        <time>2018-07-22T15:10:01Z</time>
      </trkpt>
      <trkpt lat="41.271667" lon="-3.474750">
        <ele>1605.0</ele>
        <time>2018-07-22T15:10:02Z</time>
      </trkpt>
      <trkpt lat="41.271683" lon="-3.474833">
        <ele>1603.0</ele>
        <time>2018-07-22T15:10:03Z</time>
      </trkpt>
      <trkpt lat="41.271717" lon="-3.474917">
        <ele>1600.0</ele>
        <time>2018-07-22T15:10:04Z</time>
      </trkpt>
      <trkpt lat="41.271750" lon="-3.474983">
        <ele>1597.0</ele>
        <time>2018-07-22T15:10:05Z</time>
      </trkpt>
      <trkpt lat="41.271783" lon="-3.475067">
        <ele>1595.0</ele>
        <time>2018-07-22T15:10:06Z</time>
      </trkpt>
      <trkpt lat="41.271817" lon="-3.475150">
        <ele>1592.0</ele>
        <time>2018-07-22T15:10:07Z</time>
      </trkpt>
      <trkpt lat="41.271850" lon="-3.475233">
        <ele>1589.0</ele>
        <time>2018-07-22T15:10:08Z</time>
      </trkpt>
      <trkpt lat="41.271883" lon="-3.475317">
        <ele>1587.0</ele>
        <time>2018-07-22T15:10:09Z</time>
      </trkpt>
      <trkpt lat="41.271933" lon="-3.475400">
        <ele>1585.0</ele>
        <time>2018-07-22T15:10:10Z</time>
      </trkpt>
      <trkpt lat="41.271983" lon="-3.475450">
        <ele>1584.0</ele>
        <time>2018-07-22T15:10:11Z</time>
      </trkpt>
      <trkpt lat="41.272050" lon="-3.475500">
        <ele>1583.0</ele>
        <time>2018-07-22T15:10:12Z</time>
      </trkpt>
      <trkpt lat="41.272117" lon="-3.475550">
        <ele>1581.0</ele>
        <time>2018-07-22T15:10:13Z</time>
      </trkpt>
      <trkpt lat="41.272183" lon="-3.475583">
        <ele>1578.0</ele>
        <time>2018-07-22T15:10:14Z</time>
      </trkpt>
      <trkpt lat="41.272250" lon="-3.475633">
        <ele>1576.0</ele>
        <time>2018-07-22T15:10:15Z</time>
      </trkpt>
      <trkpt lat="41.272317" lon="-3.475650">
        <ele>1574.0</ele>
        <time>2018-07-22T15:10:16Z</time>
      </trkpt>
      <trkpt lat="41.272383" lon="-3.475700">
        <ele>1572.0</ele>
        <time>2018-07-22T15:10:17Z</time>
      </trkpt>
      <trkpt lat="41.272433" lon="-3.475750">
        <ele>1571.0</ele>
        <time>2018-07-22T15:10:18Z</time>
      </trkpt>
      <trkpt lat="41.272483" lon="-3.475833">
        <ele>1569.0</ele>
        <time>2018-07-22T15:10:19Z</time>
      </trkpt>
      <trkpt lat="41.272500" lon="-3.475917">
        <ele>1567.0</ele>
        <time>2018-07-22T15:10:20Z</time>
      </trkpt>
      <trkpt lat="41.272517" lon="-3.476017">
        <ele>1565.0</ele>
        <time>2018-07-22T15:10:21Z</time>
      </trkpt>
      <trkpt lat="41.272533" lon="-3.476117">
        <ele>1563.0</ele>
        <time>2018-07-22T15:10:22Z</time>
      </trkpt>
      <trkpt lat="41.272550" lon="-3.476183">
        <ele>1561.0</ele>
        <time>2018-07-22T15:10:23Z</time>
      </trkpt>
      <trkpt lat="41.272583" lon="-3.476267">
        <ele>1559.0</ele>
        <time>2018-07-22T15:10:24Z</time>
      </trkpt>
      <trkpt lat="41.272633" lon="-3.476333">
        <ele>1556.0</ele>
        <time>2018-07-22T15:10:25Z</time>
      </trkpt>
      <trkpt lat="41.272683" lon="-3.476383">
        <ele>1555.0</ele>
        <time>2018-07-22T15:10:26Z</time>
      </trkpt>
      <trkpt lat="41.272750" lon="-3.476450">
        <ele>1554.0</ele>
        <time>2018-07-22T15:10:27Z</time>
      </trkpt>
      <trkpt lat="41.272800" lon="-3.476483">
        <ele>1554.0</ele>
        <time>2018-07-22T15:10:28Z</time>
      </trkpt>
      <trkpt lat="41.272850" lon="-3.476517">
        <ele>1553.0</ele>
        <time>2018-07-22T15:10:29Z</time>
      </trkpt>
      <trkpt lat="41.272917" lon="-3.476550">
        <ele>1551.0</ele>
        <time>2018-07-22T15:10:30Z</time>
      </trkpt>
      <trkpt lat="41.272967" lon="-3.476583">
        <ele>1549.0</ele>
        <time>2018-07-22T15:10:31Z</time>
      </trkpt>
      <trkpt lat="41.273033" lon="-3.476617">
        <ele>1547.0</ele>
        <time>2018-07-22T15:10:32Z</time>
      </trkpt>
      <trkpt lat="41.273067" lon="-3.476683">
        <ele>1545.0</ele>
        <time>2018-07-22T15:10:33Z</time>
      </trkpt>
      <trkpt lat="41.273100" lon="-3.476767">
        <ele>1544.0</ele>
        <time>2018-07-22T15:10:34Z</time>
      </trkpt>
      <trkpt lat="41.273117" lon="-3.476867">
        <ele>1543.0</ele>
        <time>2018-07-22T15:10:35Z</time>
      </trkpt>
      <trkpt lat="41.273133" lon="-3.476950">
        <ele>1543.0</ele>
        <time>2018-07-22T15:10:36Z</time>
      </trkpt>
      <trkpt lat="41.273117" lon="-3.477033">
        <ele>1543.0</ele>
        <time>2018-07-22T15:10:37Z</time>
      </trkpt>
      <trkpt lat="41.273100" lon="-3.477117">
        <ele>1542.0</ele>
        <time>2018-07-22T15:10:38Z</time>
      </trkpt>
      <trkpt lat="41.273100" lon="-3.477200">
        <ele>1542.0</ele>
        <time>2018-07-22T15:10:39Z</time>
      </trkpt>
      <trkpt lat="41.273100" lon="-3.477283">
        <ele>1541.0</ele>
        <time>2018-07-22T15:10:40Z</time>
      </trkpt>
      <trkpt lat="41.273100" lon="-3.477367">
        <ele>1541.0</ele>
        <time>2018-07-22T15:10:41Z</time>
      </trkpt>
      <trkpt lat="41.273117" lon="-3.477450">
        <ele>1540.0</ele>
        <time>2018-07-22T15:10:42Z</time>
      </trkpt>
      <trkpt lat="41.273117" lon="-3.477533">
        <ele>1538.0</ele>
        <time>2018-07-22T15:10:43Z</time>
      </trkpt>
      <trkpt lat="41.273117" lon="-3.477633">
        <ele>1536.0</ele>
        <time>2018-07-22T15:10:44Z</time>
      </trkpt>
      <trkpt lat="41.273117" lon="-3.477733">
        <ele>1534.0</ele>
        <time>2018-07-22T15:10:45Z</time>
      </trkpt>
      <trkpt lat="41.273100" lon="-3.477850">
        <ele>1532.0</ele>
        <time>2018-07-22T15:10:46Z</time>
      </trkpt>
      <trkpt lat="41.273083" lon="-3.477950">
        <ele>1530.0</ele>
        <time>2018-07-22T15:10:47Z</time>
      </trkpt>
      <trkpt lat="41.273083" lon="-3.478050">
        <ele>1529.0</ele>
        <time>2018-07-22T15:10:48Z</time>
      </trkpt>
      <trkpt lat="41.273083" lon="-3.478167">
        <ele>1527.0</ele>
        <time>2018-07-22T15:10:49Z</time>
      </trkpt>
      <trkpt lat="41.273100" lon="-3.478267">
        <ele>1525.0</ele>
        <time>2018-07-22T15:10:50Z</time>
      </trkpt>
      <trkpt lat="41.273100" lon="-3.478367">
        <ele>1523.0</ele>
        <time>2018-07-22T15:10:51Z</time>
      </trkpt>
      <trkpt lat="41.273133" lon="-3.478450">
        <ele>1522.0</ele>
        <time>2018-07-22T15:10:52Z</time>
      </trkpt>
      <trkpt lat="41.273150" lon="-3.478533">
        <ele>1521.0</ele>
        <time>2018-07-22T15:10:53Z</time>
      </trkpt>
      <trkpt lat="41.273183" lon="-3.478600">
        <ele>1519.0</ele>
        <time>2018-07-22T15:10:54Z</time>
      </trkpt>
      <trkpt lat="41.273200" lon="-3.478683">
        <ele>1516.0</ele>
        <time>2018-07-22T15:10:55Z</time>
      </trkpt>
      <trkpt lat="41.273200" lon="-3.478767">
        <ele>1514.0</ele>
        <time>2018-07-22T15:10:56Z</time>
      </trkpt>
      <trkpt lat="41.273200" lon="-3.478850">
        <ele>1511.0</ele>
        <time>2018-07-22T15:10:57Z</time>
      </trkpt>
      <trkpt lat="41.273200" lon="-3.478933">
        <ele>1508.0</ele>
        <time>2018-07-22T15:10:58Z</time>
      </trkpt>
      <trkpt lat="41.273200" lon="-3.479017">
        <ele>1505.0</ele>
        <time>2018-07-22T15:10:59Z</time>
      </trkpt>
      <trkpt lat="41.273200" lon="-3.479100">
        <ele>1502.0</ele>
        <time>2018-07-22T15:11:00Z</time>
      </trkpt>
      <trkpt lat="41.273200" lon="-3.479183">
        <ele>1500.0</ele>
        <time>2018-07-22T15:11:01Z</time>
      </trkpt>
      <trkpt lat="41.273217" lon="-3.479267">
        <ele>1497.0</ele>
        <time>2018-07-22T15:11:02Z</time>
      </trkpt>
      <trkpt lat="41.273200" lon="-3.479350">
        <ele>1495.0</ele>
        <time>2018-07-22T15:11:03Z</time>
      </trkpt>
      <trkpt lat="41.273200" lon="-3.479433">
        <ele>1493.0</ele>
        <time>2018-07-22T15:11:04Z</time>
      </trkpt>
      <trkpt lat="41.273183" lon="-3.479517">
        <ele>1491.0</ele>
        <time>2018-07-22T15:11:05Z</time>
      </trkpt>
      <trkpt lat="41.273167" lon="-3.479583">
        <ele>1490.0</ele>
        <time>2018-07-22T15:11:06Z</time>
      </trkpt>
      <trkpt lat="41.273117" lon="-3.479650">
        <ele>1489.0</ele>
        <time>2018-07-22T15:11:07Z</time>
      </trkpt>
      <trkpt lat="41.273033" lon="-3.479667">
        <ele>1486.0</ele>
        <time>2018-07-22T15:11:08Z</time>
      </trkpt>
      <trkpt lat="41.272917" lon="-3.479633">
        <ele>1482.0</ele>
        <time>2018-07-22T15:11:09Z</time>
      </trkpt>
      <trkpt lat="41.272817" lon="-3.479500">
        <ele>1478.0</ele>
        <time>2018-07-22T15:11:10Z</time>
      </trkpt>
      <trkpt lat="41.272750" lon="-3.479300">
        <ele>1474.0</ele>
        <time>2018-07-22T15:11:11Z</time>
      </trkpt>
      <trkpt lat="41.272800" lon="-3.479100">
        <ele>1470.0</ele>
        <time>2018-07-22T15:11:12Z</time>
      </trkpt>
      <trkpt lat="41.272917" lon="-3.479000">
        <ele>1464.0</ele>
        <time>2018-07-22T15:11:13Z</time>
      </trkpt>
      <trkpt lat="41.273033" lon="-3.479050">
        <ele>1457.0</ele>
        <time>2018-07-22T15:11:14Z</time>
      </trkpt>
      <trkpt lat="41.273050" lon="-3.479200">
        <ele>1451.0</ele>
        <time>2018-07-22T15:11:15Z</time>
      </trkpt>
      <trkpt lat="41.272933" lon="-3.479317">
        <ele>1445.0</ele>
        <time>2018-07-22T15:11:16Z</time>
      </trkpt>
      <trkpt lat="41.272767" lon="-3.479250">
        <ele>1438.0</ele>
        <time>2018-07-22T15:11:17Z</time>
      </trkpt>
      <trkpt lat="41.272683" lon="-3.479017">
        <ele>1431.0</ele>
        <time>2018-07-22T15:11:18Z</time>
      </trkpt>
      <trkpt lat="41.272767" lon="-3.478783">
        <ele>1425.0</ele>
        <time>2018-07-22T15:11:19Z</time>
      </trkpt>
      <trkpt lat="41.272917" lon="-3.478750">
        <ele>1419.0</ele>
        <time>2018-07-22T15:11:20Z</time>
      </trkpt>
      <trkpt lat="41.273000" lon="-3.478883">
        <ele>1413.0</ele>
        <time>2018-07-22T15:11:21Z</time>
      </trkpt>
      <trkpt lat="41.272900" lon="-3.479033">
        <ele>1406.0</ele>
        <time>2018-07-22T15:11:22Z</time>
      </trkpt>
      <trkpt lat="41.272733" lon="-3.478983">
        <ele>1401.0</ele>
        <time>2018-07-22T15:11:23Z</time>
      </trkpt>
      <trkpt lat="41.272633" lon="-3.478750">
        <ele>1397.0</ele>
        <time>2018-07-22T15:11:24Z</time>
      </trkpt>
      <trkpt lat="41.272700" lon="-3.478517">
        <ele>1393.0</ele>
        <time>2018-07-22T15:11:25Z</time>
      </trkpt>
      <trkpt lat="41.272850" lon="-3.478483">
        <ele>1387.0</ele>
        <time>2018-07-22T15:11:26Z</time>
      </trkpt>
      <trkpt lat="41.272933" lon="-3.478650">
        <ele>1381.0</ele>
        <time>2018-07-22T15:11:27Z</time>
      </trkpt>
      <trkpt lat="41.272800" lon="-3.478867">
        <ele>1379.0</ele>
        <time>2018-07-22T15:11:28Z</time>
      </trkpt>
      <trkpt lat="41.272667" lon="-3.478867">
        <ele>1380.0</ele>
        <time>2018-07-22T15:11:29Z</time>
      </trkpt>
      <trkpt lat="41.272533" lon="-3.478733">
        <ele>1380.0</ele>
        <time>2018-07-22T15:11:30Z</time>
      </trkpt>
      <trkpt lat="41.272517" lon="-3.478517">
        <ele>1379.0</ele>
        <time>2018-07-22T15:11:31Z</time>
      </trkpt>
      <trkpt lat="41.272567" lon="-3.478350">
        <ele>1378.0</ele>
        <time>2018-07-22T15:11:32Z</time>
      </trkpt>
      <trkpt lat="41.272683" lon="-3.478267">
        <ele>1376.0</ele>
        <time>2018-07-22T15:11:33Z</time>
      </trkpt>
      <trkpt lat="41.272800" lon="-3.478317">
        <ele>1375.0</ele>
        <time>2018-07-22T15:11:34Z</time>
      </trkpt>
      <trkpt lat="41.272833" lon="-3.478433">
        <ele>1376.0</ele>
        <time>2018-07-22T15:11:35Z</time>
      </trkpt>
      <trkpt lat="41.272800" lon="-3.478550">
        <ele>1376.0</ele>
        <time>2018-07-22T15:11:36Z</time>
      </trkpt>
      <trkpt lat="41.272733" lon="-3.478633">
        <ele>1377.0</ele>
        <time>2018-07-22T15:11:37Z</time>
      </trkpt>
      <trkpt lat="41.272667" lon="-3.478700">
        <ele>1379.0</ele>
        <time>2018-07-22T15:11:38Z</time>
      </trkpt>
      <trkpt lat="41.272633" lon="-3.478767">
        <ele>1381.0</ele>
        <time>2018-07-22T15:11:39Z</time>
      </trkpt>
      <trkpt lat="41.272600" lon="-3.478817">
        <ele>1381.0</ele>
        <time>2018-07-22T15:11:40Z</time>
      </trkpt>
      <trkpt lat="41.272583" lon="-3.478867">
        <ele>1380.0</ele>
        <time>2018-07-22T15:11:41Z</time>
      </trkpt>
      <trkpt lat="41.272533" lon="-3.478933">
        <ele>1378.0</ele>
        <time>2018-07-22T15:11:42Z</time>
      </trkpt>
      <trkpt lat="41.272500" lon="-3.479017">
        <ele>1377.0</ele>
        <time>2018-07-22T15:11:43Z</time>
      </trkpt>
      <trkpt lat="41.272467" lon="-3.479083">
        <ele>1375.0</ele>
        <time>2018-07-22T15:11:44Z</time>
      </trkpt>
      <trkpt lat="41.272433" lon="-3.479167">
        <ele>1374.0</ele>
        <time>2018-07-22T15:11:45Z</time>
      </trkpt>
      <trkpt lat="41.272417" lon="-3.479250">
        <ele>1373.0</ele>
        <time>2018-07-22T15:11:46Z</time>
      </trkpt>
      <trkpt lat="41.272383" lon="-3.479333">
        <ele>1372.0</ele>
        <time>2018-07-22T15:11:47Z</time>
      </trkpt>
      <trkpt lat="41.272350" lon="-3.479400">
        <ele>1371.0</ele>
        <time>2018-07-22T15:11:48Z</time>
      </trkpt>
      <trkpt lat="41.272333" lon="-3.479483">
        <ele>1369.0</ele>
        <time>2018-07-22T15:11:49Z</time>
      </trkpt>
      <trkpt lat="41.272317" lon="-3.479567">
        <ele>1367.0</ele>
        <time>2018-07-22T15:11:50Z</time>
      </trkpt>
      <trkpt lat="41.272317" lon="-3.479650">
        <ele>1365.0</ele>
        <time>2018-07-22T15:11:51Z</time>
      </trkpt>
      <trkpt lat="41.272300" lon="-3.479750">
        <ele>1362.0</ele>
        <time>2018-07-22T15:11:52Z</time>
      </trkpt>
      <trkpt lat="41.272283" lon="-3.479850">
        <ele>1359.0</ele>
        <time>2018-07-22T15:11:53Z</time>
      </trkpt>
      <trkpt lat="41.272283" lon="-3.479950">
        <ele>1356.0</ele>
        <time>2018-07-22T15:11:54Z</time>
      </trkpt>
      <trkpt lat="41.272267" lon="-3.480067">
        <ele>1352.0</ele>
        <time>2018-07-22T15:11:55Z</time>
      </trkpt>
      <trkpt lat="41.272250" lon="-3.480183">
        <ele>1350.0</ele>
        <time>2018-07-22T15:11:56Z</time>
      </trkpt>
      <trkpt lat="41.272233" lon="-3.480283">
        <ele>1348.0</ele>
        <time>2018-07-22T15:11:57Z</time>
      </trkpt>
      <trkpt lat="41.272200" lon="-3.480400">
        <ele>1346.0</ele>
        <time>2018-07-22T15:11:58Z</time>
      </trkpt>
      <trkpt lat="41.272183" lon="-3.480500">
        <ele>1344.0</ele>
        <time>2018-07-22T15:11:59Z</time>
      </trkpt>
      <trkpt lat="41.272167" lon="-3.480600">
        <ele>1342.0</ele>
        <time>2018-07-22T15:12:00Z</time>
      </trkpt>
      <trkpt lat="41.272133" lon="-3.480717">
        <ele>1340.0</ele>
        <time>2018-07-22T15:12:01Z</time>
      </trkpt>
      <trkpt lat="41.272117" lon="-3.480817">
        <ele>1337.0</ele>
        <time>2018-07-22T15:12:02Z</time>
      </trkpt>
      <trkpt lat="41.272100" lon="-3.480900">
        <ele>1334.0</ele>
        <time>2018-07-22T15:12:03Z</time>
      </trkpt>
      <trkpt lat="41.272083" lon="-3.480983">
        <ele>1332.0</ele>
        <time>2018-07-22T15:12:04Z</time>
      </trkpt>
      <trkpt lat="41.272083" lon="-3.481050">
        <ele>1329.0</ele>
        <time>2018-07-22T15:12:05Z</time>
      </trkpt>
      <trkpt lat="41.272083" lon="-3.481117">
        <ele>1325.0</ele>
        <time>2018-07-22T15:12:06Z</time>
      </trkpt>
      <trkpt lat="41.272083" lon="-3.481217">
        <ele>1321.0</ele>
        <time>2018-07-22T15:12:07Z</time>
      </trkpt>
      <trkpt lat="41.272067" lon="-3.481317">
        <ele>1318.0</ele>
        <time>2018-07-22T15:12:08Z</time>
      </trkpt>
      <trkpt lat="41.272050" lon="-3.481433">
        <ele>1316.0</ele>
        <time>2018-07-22T15:12:09Z</time>
      </trkpt>
      <trkpt lat="41.272033" lon="-3.481550">
        <ele>1316.0</ele>
        <time>2018-07-22T15:12:10Z</time>
      </trkpt>
      <trkpt lat="41.272017" lon="-3.481650">
        <ele>1315.0</ele>
        <time>2018-07-22T15:12:11Z</time>
      </trkpt>
      <trkpt lat="41.272017" lon="-3.481750">
        <ele>1316.0</ele>
        <time>2018-07-22T15:12:12Z</time>
      </trkpt>
      <trkpt lat="41.272000" lon="-3.481833">
        <ele>1316.0</ele>
        <time>2018-07-22T15:12:13Z</time>
      </trkpt>
      <trkpt lat="41.271983" lon="-3.481933">
        <ele>1316.0</ele>
        <time>2018-07-22T15:12:14Z</time>
      </trkpt>
      <trkpt lat="41.271967" lon="-3.482033">
        <ele>1316.0</ele>
        <time>2018-07-22T15:12:15Z</time>
      </trkpt>
      <trkpt lat="41.271950" lon="-3.482133">
        <ele>1316.0</ele>
        <time>2018-07-22T15:12:16Z</time>
      </trkpt>
      <trkpt lat="41.271917" lon="-3.482250">
        <ele>1317.0</ele>
        <time>2018-07-22T15:12:17Z</time>
      </trkpt>
      <trkpt lat="41.271900" lon="-3.482333">
        <ele>1320.0</ele>
        <time>2018-07-22T15:12:18Z</time>
      </trkpt>
      <trkpt lat="41.271883" lon="-3.482417">
        <ele>1322.0</ele>
        <time>2018-07-22T15:12:19Z</time>
      </trkpt>
      <trkpt lat="41.271850" lon="-3.482483">
        <ele>1324.0</ele>
        <time>2018-07-22T15:12:20Z</time>
      </trkpt>
      <trkpt lat="41.271817" lon="-3.482533">
        <ele>1324.0</ele>
        <time>2018-07-22T15:12:21Z</time>
      </trkpt>
      <trkpt lat="41.271783" lon="-3.482600">
        <ele>1324.0</ele>
        <time>2018-07-22T15:12:22Z</time>
      </trkpt>
      <trkpt lat="41.271733" lon="-3.482683">
        <ele>1322.0</ele>
        <time>2018-07-22T15:12:23Z</time>
      </trkpt>
      <trkpt lat="41.271667" lon="-3.482767">
        <ele>1322.0</ele>
        <time>2018-07-22T15:12:24Z</time>
      </trkpt>
      <trkpt lat="41.271617" lon="-3.482833">
        <ele>1322.0</ele>
        <time>2018-07-22T15:12:25Z</time>
      </trkpt>
      <trkpt lat="41.271550" lon="-3.482900">
        <ele>1324.0</ele>
        <time>2018-07-22T15:12:26Z</time>
      </trkpt>
      <trkpt lat="41.271517" lon="-3.482967">
        <ele>1324.0</ele>
        <time>2018-07-22T15:12:27Z</time>
      </trkpt>
      <trkpt lat="41.271483" lon="-3.483017">
        <ele>1324.0</ele>
        <time>2018-07-22T15:12:28Z</time>
      </trkpt>
      <trkpt lat="41.271450" lon="-3.483067">
        <ele>1322.0</ele>
        <time>2018-07-22T15:12:29Z</time>
      </trkpt>
      <trkpt lat="41.271417" lon="-3.483133">
        <ele>1319.0</ele>
        <time>2018-07-22T15:12:30Z</time>
      </trkpt>
      <trkpt lat="41.271400" lon="-3.483217">
        <ele>1315.0</ele>
        <time>2018-07-22T15:12:31Z</time>
      </trkpt>
      <trkpt lat="41.271383" lon="-3.483333">
        <ele>1313.0</ele>
        <time>2018-07-22T15:12:32Z</time>
      </trkpt>
      <trkpt lat="41.271367" lon="-3.483417">
        <ele>1312.0</ele>
        <time>2018-07-22T15:12:33Z</time>
      </trkpt>
      <trkpt lat="41.271350" lon="-3.483500">
        <ele>1311.0</ele>
        <time>2018-07-22T15:12:34Z</time>
      </trkpt>
      <trkpt lat="41.271333" lon="-3.483583">
        <ele>1310.0</ele>
        <time>2018-07-22T15:12:35Z</time>
      </trkpt>
      <trkpt lat="41.271317" lon="-3.483667">
        <ele>1307.0</ele>
        <time>2018-07-22T15:12:36Z</time>
      </trkpt>
      <trkpt lat="41.271283" lon="-3.483767">
        <ele>1305.0</ele>
        <time>2018-07-22T15:12:37Z</time>
      </trkpt>
      <trkpt lat="41.271267" lon="-3.483850">
        <ele>1304.0</ele>
        <time>2018-07-22T15:12:38Z</time>
      </trkpt>
      <trkpt lat="41.271250" lon="-3.483917">
        <ele>1304.0</ele>
        <time>2018-07-22T15:12:39Z</time>
      </trkpt>
      <trkpt lat="41.271250" lon="-3.483983">
        <ele>1303.0</ele>
        <time>2018-07-22T15:12:40Z</time>
      </trkpt>
      <trkpt lat="41.271233" lon="-3.484033">
        <ele>1302.0</ele>
        <time>2018-07-22T15:12:41Z</time>
      </trkpt>
      <trkpt lat="41.271217" lon="-3.484083">
        <ele>1299.0</ele>
        <time>2018-07-22T15:12:42Z</time>
      </trkpt>
      <trkpt lat="41.271200" lon="-3.484167">
        <ele>1296.0</ele>
        <time>2018-07-22T15:12:43Z</time>
      </trkpt>
      <trkpt lat="41.271200" lon="-3.484250">
        <ele>1292.0</ele>
        <time>2018-07-22T15:12:44Z</time>
      </trkpt>
      <trkpt lat="41.271183" lon="-3.484333">
        <ele>1290.0</ele>
        <time>2018-07-22T15:12:45Z</time>
      </trkpt>
      <trkpt lat="41.271183" lon="-3.484400">
        <ele>1288.0</ele>
        <time>2018-07-22T15:12:46Z</time>
      </trkpt>
      <trkpt lat="41.271183" lon="-3.484467">
        <ele>1286.0</ele>
        <time>2018-07-22T15:12:47Z</time>
      </trkpt>
      <trkpt lat="41.271183" lon="-3.484533">
        <ele>1283.0</ele>
        <time>2018-07-22T15:12:48Z</time>
      </trkpt>
      <trkpt lat="41.271200" lon="-3.484617">
        <ele>1279.0</ele>
        <time>2018-07-22T15:12:49Z</time>
      </trkpt>
      <trkpt lat="41.271217" lon="-3.484700">
        <ele>1275.0</ele>
        <time>2018-07-22T15:12:50Z</time>
      </trkpt>
      <trkpt lat="41.271217" lon="-3.484800">
        <ele>1272.0</ele>
        <time>2018-07-22T15:12:51Z</time>
      </trkpt>
      <trkpt lat="41.271217" lon="-3.484917">
        <ele>1270.0</ele>
        <time>2018-07-22T15:12:52Z</time>
      </trkpt>
      <trkpt lat="41.271217" lon="-3.485017">
        <ele>1269.0</ele>
        <time>2018-07-22T15:12:53Z</time>
      </trkpt>
      <trkpt lat="41.271217" lon="-3.485100">
        <ele>1269.0</ele>
        <time>2018-07-22T15:12:54Z</time>
      </trkpt>
      <trkpt lat="41.271217" lon="-3.485200">
        <ele>1268.0</ele>
        <time>2018-07-22T15:12:55Z</time>
      </trkpt>
      <trkpt lat="41.271200" lon="-3.485283">
        <ele>1266.0</ele>
        <time>2018-07-22T15:12:56Z</time>
      </trkpt>
      <trkpt lat="41.271200" lon="-3.485383">
        <ele>1265.0</ele>
        <time>2018-07-22T15:12:57Z</time>
      </trkpt>
      <trkpt lat="41.271183" lon="-3.485483">
        <ele>1263.0</ele>
        <time>2018-07-22T15:12:58Z</time>
      </trkpt>
      <trkpt lat="41.271183" lon="-3.485567">
        <ele>1262.0</ele>
        <time>2018-07-22T15:12:59Z</time>
      </trkpt>
      <trkpt lat="41.271183" lon="-3.485667">
        <ele>1263.0</ele>
        <time>2018-07-22T15:13:00Z</time>
      </trkpt>
      <trkpt lat="41.271183" lon="-3.485750">
        <ele>1264.0</ele>
        <time>2018-07-22T15:13:01Z</time>
      </trkpt>
      <trkpt lat="41.271200" lon="-3.485817">
        <ele>1265.0</ele>
        <time>2018-07-22T15:13:02Z</time>
      </trkpt>
      <trkpt lat="41.271200" lon="-3.485900">
        <ele>1265.0</ele>
        <time>2018-07-22T15:13:03Z</time>
      </trkpt>
      <trkpt lat="41.271200" lon="-3.485967">
        <ele>1265.0</ele>
        <time>2018-07-22T15:13:04Z</time>
      </trkpt>
      <trkpt lat="41.271183" lon="-3.486067">
        <ele>1265.0</ele>
        <time>2018-07-22T15:13:05Z</time>
      </trkpt>
      <trkpt lat="41.271167" lon="-3.486167">
        <ele>1266.0</ele>
        <time>2018-07-22T15:13:06Z</time>
      </trkpt>
      <trkpt lat="41.271150" lon="-3.486250">
        <ele>1267.0</ele>
        <time>2018-07-22T15:13:07Z</time>
      </trkpt>
      <trkpt lat="41.271133" lon="-3.486333">
        <ele>1270.0</ele>
        <time>2018-07-22T15:13:08Z</time>
      </trkpt>
      <trkpt lat="41.271117" lon="-3.486400">
        <ele>1273.0</ele>
        <time>2018-07-22T15:13:09Z</time>
      </trkpt>
      <trkpt lat="41.271100" lon="-3.486433">
        <ele>1275.0</ele>
        <time>2018-07-22T15:13:10Z</time>
      </trkpt>
      <trkpt lat="41.271083" lon="-3.486450">
        <ele>1275.0</ele>
        <time>2018-07-22T15:13:11Z</time>
      </trkpt>
      <trkpt lat="41.271067" lon="-3.486483">
        <ele>1275.0</ele>
        <time>2018-07-22T15:13:12Z</time>
      </trkpt>
      <trkpt lat="41.271050" lon="-3.486533">
        <ele>1273.0</ele>
        <time>2018-07-22T15:13:13Z</time>
      </trkpt>
      <trkpt lat="41.271050" lon="-3.486617">
        <ele>1270.0</ele>
        <time>2018-07-22T15:13:14Z</time>
      </trkpt>
      <trkpt lat="41.271050" lon="-3.486717">
        <ele>1268.0</ele>
        <time>2018-07-22T15:13:15Z</time>
      </trkpt>
      <trkpt lat="41.271017" lon="-3.486783">
        <ele>1268.0</ele>
        <time>2018-07-22T15:13:16Z</time>
      </trkpt>
      <trkpt lat="41.271000" lon="-3.486833">
        <ele>1268.0</ele>
        <time>2018-07-22T15:13:17Z</time>
      </trkpt>
      <trkpt lat="41.270983" lon="-3.486883">
        <ele>1267.0</ele>
        <time>2018-07-22T15:13:18Z</time>
      </trkpt>
      <trkpt lat="41.270983" lon="-3.486933">
        <ele>1264.0</ele>
        <time>2018-07-22T15:13:19Z</time>
      </trkpt>
      <trkpt lat="41.270983" lon="-3.487000">
        <ele>1261.0</ele>
        <time>2018-07-22T15:13:20Z</time>
      </trkpt>
      <trkpt lat="41.271000" lon="-3.487067">
        <ele>1257.0</ele>
        <time>2018-07-22T15:13:21Z</time>
      </trkpt>
      <trkpt lat="41.271033" lon="-3.487150">
        <ele>1255.0</ele>
        <time>2018-07-22T15:13:22Z</time>
      </trkpt>
      <trkpt lat="41.271050" lon="-3.487217">
        <ele>1254.0</ele>
        <time>2018-07-22T15:13:23Z</time>
      </trkpt>
      <trkpt lat="41.271067" lon="-3.487283">
        <ele>1252.0</ele>
        <time>2018-07-22T15:13:24Z</time>
      </trkpt>
      <trkpt lat="41.271067" lon="-3.487350">
        <ele>1250.0</ele>
        <time>2018-07-22T15:13:25Z</time>
      </trkpt>
      <trkpt lat="41.271083" lon="-3.487417">
        <ele>1246.0</ele>
        <time>2018-07-22T15:13:26Z</time>
      </trkpt>
      <trkpt lat="41.271100" lon="-3.487500">
        <ele>1243.0</ele>
        <time>2018-07-22T15:13:27Z</time>
      </trkpt>
      <trkpt lat="41.271117" lon="-3.487600">
        <ele>1239.0</ele>
        <time>2018-07-22T15:13:28Z</time>
      </trkpt>
      <trkpt lat="41.271133" lon="-3.487717">
        <ele>1236.0</ele>
        <time>2018-07-22T15:13:29Z</time>
      </trkpt>
      <trkpt lat="41.271150" lon="-3.487817">
        <ele>1233.0</ele>
        <time>2018-07-22T15:13:30Z</time>
      </trkpt>
      <trkpt lat="41.271183" lon="-3.487917">
        <ele>1232.0</ele>
        <time>2018-07-22T15:13:31Z</time>
      </trkpt>
      <trkpt lat="41.271217" lon="-3.488000">
        <ele>1231.0</ele>
        <time>2018-07-22T15:13:32Z</time>
      </trkpt>
      <trkpt lat="41.271233" lon="-3.488083">
        <ele>1229.0</ele>
        <time>2018-07-22T15:13:33Z</time>
      </trkpt>
      <trkpt lat="41.271250" lon="-3.488183">
        <ele>1227.0</ele>
        <time>2018-07-22T15:13:34Z</time>
      </trkpt>
      <trkpt lat="41.271250" lon="-3.488300">
        <ele>1226.0</ele>
        <time>2018-07-22T15:13:35Z</time>
      </trkpt>
      <trkpt lat="41.271267" lon="-3.488400">
        <ele>1224.0</ele>
        <time>2018-07-22T15:13:36Z</time>
      </trkpt>
      <trkpt lat="41.271267" lon="-3.488500">
        <ele>1223.0</ele>
        <time>2018-07-22T15:13:37Z</time>
      </trkpt>
      <trkpt lat="41.271283" lon="-3.488600">
        <ele>1221.0</ele>
        <time>2018-07-22T15:13:38Z</time>
      </trkpt>
      <trkpt lat="41.271283" lon="-3.488700">
        <ele>1219.0</ele>
        <time>2018-07-22T15:13:39Z</time>
      </trkpt>
      <trkpt lat="41.271300" lon="-3.488817">
        <ele>1217.0</ele>
        <time>2018-07-22T15:13:40Z</time>
      </trkpt>
      <trkpt lat="41.271300" lon="-3.488933">
        <ele>1215.0</ele>
        <time>2018-07-22T15:13:41Z</time>
      </trkpt>
      <trkpt lat="41.271300" lon="-3.489017">
        <ele>1215.0</ele>
        <time>2018-07-22T15:13:42Z</time>
      </trkpt>
      <trkpt lat="41.271300" lon="-3.489100">
        <ele>1216.0</ele>
        <time>2018-07-22T15:13:43Z</time>
      </trkpt>
      <trkpt lat="41.271300" lon="-3.489150">
        <ele>1215.0</ele>
        <time>2018-07-22T15:13:44Z</time>
      </trkpt>
      <trkpt lat="41.271300" lon="-3.489200">
        <ele>1214.0</ele>
        <time>2018-07-22T15:13:45Z</time>
      </trkpt>
      <trkpt lat="41.271300" lon="-3.489233">
        <ele>1213.0</ele>
        <time>2018-07-22T15:13:46Z</time>
      </trkpt>
      <trkpt lat="41.271300" lon="-3.489267">
        <ele>1212.0</ele>
        <time>2018-07-22T15:13:47Z</time>
      </trkpt>
      <trkpt lat="41.271317" lon="-3.489300">
        <ele>1212.0</ele>
        <time>2018-07-22T15:13:48Z</time>
      </trkpt>
      <trkpt lat="41.271333" lon="-3.489333">
        <ele>1211.0</ele>
        <time>2018-07-22T15:13:49Z</time>
      </trkpt>
      <trkpt lat="41.271333" lon="-3.489350">
        <ele>1211.0</ele>
        <time>2018-07-22T15:13:50Z</time>
      </trkpt>
      <trkpt lat="41.271333" lon="-3.489383">
        <ele>1210.0</ele>
        <time>2018-07-22T15:13:51Z</time>
      </trkpt>
      <trkpt lat="41.271350" lon="-3.489417">
        <ele>1210.0</ele>
        <time>2018-07-22T15:13:52Z</time>
      </trkpt>
      <trkpt lat="41.271367" lon="-3.489467">
        <ele>1210.0</ele>
        <time>2018-07-22T15:13:53Z</time>
      </trkpt>
      <trkpt lat="41.271367" lon="-3.489500">
        <ele>1210.0</ele>
        <time>2018-07-22T15:13:54Z</time>
      </trkpt>
      <trkpt lat="41.271400" lon="-3.489533">
        <ele>1209.0</ele>
        <time>2018-07-22T15:13:55Z</time>
      </trkpt>
      <trkpt lat="41.271417" lon="-3.489550">
        <ele>1209.0</ele>
        <time>2018-07-22T15:13:56Z</time>
      </trkpt>
      <trkpt lat="41.271433" lon="-3.489583">
        <ele>1208.0</ele>
        <time>2018-07-22T15:13:57Z</time>
      </trkpt>
      <trkpt lat="41.271417" lon="-3.489600">
        <ele>1208.0</ele>
        <time>2018-07-22T15:13:58Z</time>
      </trkpt>
      <trkpt lat="41.271433" lon="-3.489600">
        <ele>1209.0</ele>
        <time>2018-07-22T15:13:59Z</time>
      </trkpt>
      <trkpt lat="41.271433" lon="-3.489600">
        <ele>1209.0</ele>
        <time>2018-07-22T15:14:00Z</time>
      </trkpt>
      <trkpt lat="41.271433" lon="-3.489617">
        <ele>1210.0</ele>
        <time>2018-07-22T15:14:01Z</time>
      </trkpt>
      <trkpt lat="41.271433" lon="-3.489617">
        <ele>1209.0</ele>
        <time>2018-07-22T15:14:02Z</time>
      </trkpt>
      <trkpt lat="41.271433" lon="-3.489617">
        <ele>1209.0</ele>
        <time>2018-07-22T15:14:03Z</time>
      </trkpt>
      <trkpt lat="41.271433" lon="-3.489617">
        <ele>1209.0</ele>
        <time>2018-07-22T15:14:04Z</time>
      </trkpt>
      <trkpt lat="41.271433" lon="-3.489617">
        <ele>1209.0</ele>
        <time>2018-07-22T15:14:05Z</time>
      </trkpt>
      <trkpt lat="41.271433" lon="-3.489617">
        <ele>1208.0</ele>
        <time>2018-07-22T15:14:06Z</time>
      </trkpt>
      <trkpt lat="41.271433" lon="-3.489617">
        <ele>1208.0</ele>
        <time>2018-07-22T15:14:07Z</time>
      </trkpt>
      <trkpt lat="41.271433" lon="-3.489617">
        <ele>1208.0</ele>
        <time>2018-07-22T15:14:08Z</time>
      </trkpt>
      <trkpt lat="41.271433" lon="-3.489617">
        <ele>1208.0</ele>
        <time>2018-07-22T15:14:09Z</time>
      </trkpt>
      <trkpt lat="41.271433" lon="-3.489617">
        <ele>1207.0</ele>
        <time>2018-07-22T15:14:10Z</time>
      </trkpt>
      <trkpt lat="41.271433" lon="-3.489617">
        <ele>1207.0</ele>
        <time>2018-07-22T15:14:11Z</time>
      </trkpt>
      <trkpt lat="41.271433" lon="-3.489617">
        <ele>1207.0</ele>
        <time>2018-07-22T15:14:12Z</time>
      </trkpt>
      <trkpt lat="41.271433" lon="-3.489617">
        <ele>1207.0</ele>
        <time>2018-07-22T15:14:13Z</time>
      </trkpt>
      <trkpt lat="41.271433" lon="-3.489617">
        <ele>1207.0</ele>
        <time>2018-07-22T15:14:14Z</time>
      </trkpt>
      <trkpt lat="41.271433" lon="-3.489617">
        <ele>1207.0</ele>
        <time>2018-07-22T15:14:15Z</time>
      </trkpt>
      <trkpt lat="41.271433" lon="-3.489617">
        <ele>1207.0</ele>
        <time>2018-07-22T15:14:16Z</time>
      </trkpt>
      <trkpt lat="41.271433" lon="-3.489617">
        <ele>1207.0</ele>
        <time>2018-07-22T15:14:17Z</time>
      </trkpt>
      <trkpt lat="41.271433" lon="-3.489617">
        <ele>1207.0</ele>
        <time>2018-07-22T15:14:18Z</time>
      </trkpt>
      <trkpt lat="41.271433" lon="-3.489617">
        <ele>1207.0</ele>
        <time>2018-07-22T15:14:19Z</time>
      </trkpt>
      <trkpt lat="41.271433" lon="-3.489617">
        <ele>1207.0</ele>
        <time>2018-07-22T15:14:20Z</time>
      </trkpt>
      <trkpt lat="41.271433" lon="-3.489617">
        <ele>1207.0</ele>
        <time>2018-07-22T15:14:21Z</time>
      </trkpt>
      <trkpt lat="41.271433" lon="-3.489617">
        <ele>1206.0</ele>
        <time>2018-07-22T15:14:22Z</time>
      </trkpt>
      <trkpt lat="41.271433" lon="-3.489617">
        <ele>1206.0</ele>
        <time>2018-07-22T15:14:23Z</time>
      </trkpt>
      <trkpt lat="41.271433" lon="-3.489617">
        <ele>1206.0</ele>
        <time>2018-07-22T15:14:24Z</time>
      </trkpt>
      <trkpt lat="41.271433" lon="-3.489617">
        <ele>1205.0</ele>
        <time>2018-07-22T15:14:25Z</time>
      </trkpt>
      <trkpt lat="41.271417" lon="-3.489633">
        <ele>1205.0</ele>
        <time>2018-07-22T15:14:26Z</time>
      </trkpt>
      <trkpt lat="41.271417" lon="-3.489633">
        <ele>1205.0</ele>
        <time>2018-07-22T15:14:27Z</time>
      </trkpt>
      <trkpt lat="41.271417" lon="-3.489633">
        <ele>1205.0</ele>
        <time>2018-07-22T15:14:28Z</time>
      </trkpt>
      <trkpt lat="41.271433" lon="-3.489633">
        <ele>1205.0</ele>
        <time>2018-07-22T15:14:29Z</time>
      </trkpt>
      <trkpt lat="41.271433" lon="-3.489633">
        <ele>1205.0</ele>
        <time>2018-07-22T15:14:30Z</time>
      </trkpt>
      <trkpt lat="41.271433" lon="-3.489617">
        <ele>1205.0</ele>
        <time>2018-07-22T15:14:31Z</time>
      </trkpt>
      <trkpt lat="41.271433" lon="-3.489617">
        <ele>1205.0</ele>
        <time>2018-07-22T15:14:32Z</time>
      </trkpt>
      <trkpt lat="41.271433" lon="-3.489617">
        <ele>1205.0</ele>
        <time>2018-07-22T15:14:33Z</time>
      </trkpt>
      <trkpt lat="41.271433" lon="-3.489633">
        <ele>1205.0</ele>
        <time>2018-07-22T15:14:34Z</time>
      </trkpt>
      <trkpt lat="41.271433" lon="-3.489633">
        <ele>1205.0</ele>
        <time>2018-07-22T15:14:35Z</time>
      </trkpt>
      <trkpt lat="41.271433" lon="-3.489633">
        <ele>1206.0</ele>
        <time>2018-07-22T15:14:36Z</time>
      </trkpt>
      <trkpt lat="41.271433" lon="-3.489633">
        <ele>1206.0</ele>
        <time>2018-07-22T15:14:37Z</time>
      </trkpt>
      <trkpt lat="41.271433" lon="-3.489633">
        <ele>1206.0</ele>
        <time>2018-07-22T15:14:38Z</time>
      </trkpt>
      <trkpt lat="41.271433" lon="-3.489633">
        <ele>1207.0</ele>
        <time>2018-07-22T15:14:39Z</time>
      </trkpt>
      <trkpt lat="41.271433" lon="-3.489633">
        <ele>1207.0</ele>
        <time>2018-07-22T15:14:40Z</time>
      </trkpt>
      <trkpt lat="41.271433" lon="-3.489633">
        <ele>1207.0</ele>
        <time>2018-07-22T15:14:41Z</time>
      </trkpt>
      <trkpt lat="41.271433" lon="-3.489633">
        <ele>1207.0</ele>
        <time>2018-07-22T15:14:42Z</time>
      </trkpt>
      <trkpt lat="41.271433" lon="-3.489633">
        <ele>1208.0</ele>
        <time>2018-07-22T15:14:43Z</time>
      </trkpt>
      <trkpt lat="41.271433" lon="-3.489633">
        <ele>1208.0</ele>
        <time>2018-07-22T15:14:44Z</time>
      </trkpt>
      <trkpt lat="41.271433" lon="-3.489633">
        <ele>1208.0</ele>
        <time>2018-07-22T15:14:45Z</time>
      </trkpt>
      <trkpt lat="41.271433" lon="-3.489633">
        <ele>1208.0</ele>
        <time>2018-07-22T15:14:46Z</time>
      </trkpt>
      <trkpt lat="41.271433" lon="-3.489633">
        <ele>1208.0</ele>
        <time>2018-07-22T15:14:47Z</time>
      </trkpt>
      <trkpt lat="41.271433" lon="-3.489633">
        <ele>1208.0</ele>
        <time>2018-07-22T15:14:48Z</time>
      </trkpt>
      <trkpt lat="41.271433" lon="-3.489633">
        <ele>1208.0</ele>
        <time>2018-07-22T15:14:49Z</time>
      </trkpt>
      <trkpt lat="41.271433" lon="-3.489633">
        <ele>1208.0</ele>
        <time>2018-07-22T15:14:50Z</time>
      </trkpt>
      <trkpt lat="41.271433" lon="-3.489633">
        <ele>1208.0</ele>
        <time>2018-07-22T15:14:51Z</time>
      </trkpt>
      <trkpt lat="41.271433" lon="-3.489650">
        <ele>1209.0</ele>
        <time>2018-07-22T15:14:52Z</time>
      </trkpt>
      <trkpt lat="41.271433" lon="-3.489650">
        <ele>1209.0</ele>
        <time>2018-07-22T15:14:53Z</time>
      </trkpt>
      <trkpt lat="41.271433" lon="-3.489633">
        <ele>1210.0</ele>
        <time>2018-07-22T15:14:54Z</time>
      </trkpt>
      <trkpt lat="41.271417" lon="-3.489633">
        <ele>1210.0</ele>
        <time>2018-07-22T15:14:55Z</time>
      </trkpt>
      <trkpt lat="41.271417" lon="-3.489633">
        <ele>1209.0</ele>
        <time>2018-07-22T15:14:56Z</time>
      </trkpt>
      <trkpt lat="41.271417" lon="-3.489633">
        <ele>1209.0</ele>
        <time>2018-07-22T15:14:57Z</time>
      </trkpt>
      <trkpt lat="41.271433" lon="-3.489633">
        <ele>1209.0</ele>
        <time>2018-07-22T15:14:58Z</time>
      </trkpt>
      <trkpt lat="41.271433" lon="-3.489633">
        <ele>1209.0</ele>
        <time>2018-07-22T15:14:59Z</time>
      </trkpt>
      <trkpt lat="41.271433" lon="-3.489633">
        <ele>1209.0</ele>
        <time>2018-07-22T15:15:00Z</time>
      </trkpt>
      <trkpt lat="41.271433" lon="-3.489633">
        <ele>1209.0</ele>
        <time>2018-07-22T15:15:01Z</time>
      </trkpt>
      <trkpt lat="41.271433" lon="-3.489633">
        <ele>1209.0</ele>
        <time>2018-07-22T15:15:02Z</time>
      </trkpt>
      <trkpt lat="41.271433" lon="-3.489633">
        <ele>1209.0</ele>
        <time>2018-07-22T15:15:03Z</time>
      </trkpt>
      <trkpt lat="41.271433" lon="-3.489650">
        <ele>1209.0</ele>
        <time>2018-07-22T15:15:04Z</time>
      </trkpt>
      <trkpt lat="41.271433" lon="-3.489650">
        <ele>1209.0</ele>
        <time>2018-07-22T15:15:05Z</time>
      </trkpt>
      <trkpt lat="41.271433" lon="-3.489650">
        <ele>1208.0</ele>
        <time>2018-07-22T15:15:06Z</time>
      </trkpt>
      <trkpt lat="41.271433" lon="-3.489650">
        <ele>1208.0</ele>
        <time>2018-07-22T15:15:07Z</time>
      </trkpt>
      <trkpt lat="41.271433" lon="-3.489650">
        <ele>1208.0</ele>
        <time>2018-07-22T15:15:08Z</time>
      </trkpt>
      <trkpt lat="41.271433" lon="-3.489650">
        <ele>1208.0</ele>
        <time>2018-07-22T15:15:09Z</time>
      </trkpt>
      <trkpt lat="41.271433" lon="-3.489650">
        <ele>1208.0</ele>
        <time>2018-07-22T15:15:10Z</time>
      </trkpt>
      <trkpt lat="41.271433" lon="-3.489650">
        <ele>1208.0</ele>
        <time>2018-07-22T15:15:11Z</time>
      </trkpt>
      <trkpt lat="41.271433" lon="-3.489650">
        <ele>1208.0</ele>
        <time>2018-07-22T15:15:12Z</time>
      </trkpt>
      <trkpt lat="41.271433" lon="-3.489650">
        <ele>1208.0</ele>
        <time>2018-07-22T15:15:13Z</time>
      </trkpt>
      <trkpt lat="41.271433" lon="-3.489650">
        <ele>1208.0</ele>
        <time>2018-07-22T15:15:14Z</time>
      </trkpt>
      <trkpt lat="41.271433" lon="-3.489650">
        <ele>1208.0</ele>
        <time>2018-07-22T15:15:15Z</time>
      </trkpt>
      <trkpt lat="41.271433" lon="-3.489650">
        <ele>1208.0</ele>
        <time>2018-07-22T15:15:16Z</time>
      </trkpt>
      <trkpt lat="41.271433" lon="-3.489650">
        <ele>1208.0</ele>
        <time>2018-07-22T15:15:17Z</time>
      </trkpt>
      <trkpt lat="41.271433" lon="-3.489650">
        <ele>1209.0</ele>
        <time>2018-07-22T15:15:18Z</time>
      </trkpt>
      <trkpt lat="41.271433" lon="-3.489650">
        <ele>1209.0</ele>
        <time>2018-07-22T15:15:19Z</time>
      </trkpt>
      <trkpt lat="41.271433" lon="-3.489650">
        <ele>1209.0</ele>
        <time>2018-07-22T15:15:20Z</time>
      </trkpt>
      <trkpt lat="41.271433" lon="-3.489650">
        <ele>1209.0</ele>
        <time>2018-07-22T15:15:21Z</time>
      </trkpt>
      <trkpt lat="41.271433" lon="-3.489650">
        <ele>1209.0</ele>
        <time>2018-07-22T15:15:22Z</time>
      </trkpt>
      <trkpt lat="41.271433" lon="-3.489633">
        <ele>1208.0</ele>
        <time>2018-07-22T15:15:23Z</time>
      </trkpt>
      <trkpt lat="41.271433" lon="-3.489633">
        <ele>1208.0</ele>
        <time>2018-07-22T15:15:24Z</time>
      </trkpt>
      <trkpt lat="41.271433" lon="-3.489633">
        <ele>1207.0</ele>
        <time>2018-07-22T15:15:25Z</time>
      </trkpt>
      <trkpt lat="41.271433" lon="-3.489633">
        <ele>1207.0</ele>
        <time>2018-07-22T15:15:26Z</time>
      </trkpt>
      <trkpt lat="41.271433" lon="-3.489633">
        <ele>1207.0</ele>
        <time>2018-07-22T15:15:27Z</time>
      </trkpt>
      <trkpt lat="41.271433" lon="-3.489633">
        <ele>1207.0</ele>
        <time>2018-07-22T15:15:28Z</time>
      </trkpt>
      <trkpt lat="41.271433" lon="-3.489633">
        <ele>1207.0</ele>
        <time>2018-07-22T15:15:29Z</time>
      </trkpt>
      <trkpt lat="41.271433" lon="-3.489633">
        <ele>1208.0</ele>
        <time>2018-07-22T15:15:30Z</time>
      </trkpt>
      <trkpt lat="41.271433" lon="-3.489633">
        <ele>1209.0</ele>
        <time>2018-07-22T15:15:31Z</time>
      </trkpt>
      <trkpt lat="41.271433" lon="-3.489633">
        <ele>1209.0</ele>
        <time>2018-07-22T15:15:32Z</time>
      </trkpt>
      <trkpt lat="41.271433" lon="-3.489633">
        <ele>1209.0</ele>
        <time>2018-07-22T15:15:33Z</time>
      </trkpt>
      <trkpt lat="41.271433" lon="-3.489633">
        <ele>1209.0</ele>
        <time>2018-07-22T15:15:34Z</time>
      </trkpt>
      <trkpt lat="41.271433" lon="-3.489633">
        <ele>1209.0</ele>
        <time>2018-07-22T15:15:35Z</time>
      </trkpt>
      <trkpt lat="41.271433" lon="-3.489633">
        <ele>1209.0</ele>
        <time>2018-07-22T15:15:36Z</time>
      </trkpt>
      <trkpt lat="41.271433" lon="-3.489633">
        <ele>1209.0</ele>
        <time>2018-07-22T15:15:37Z</time>
      </trkpt>
      <trkpt lat="41.271433" lon="-3.489633">
        <ele>1209.0</ele>
        <time>2018-07-22T15:15:38Z</time>
      </trkpt>
      <trkpt lat="41.271433" lon="-3.489633">
        <ele>1209.0</ele>
        <time>2018-07-22T15:15:39Z</time>
      </trkpt>
      <trkpt lat="41.271433" lon="-3.489633">
        <ele>1209.0</ele>
        <time>2018-07-22T15:15:40Z</time>
      </trkpt>
      <trkpt lat="41.271433" lon="-3.489633">
        <ele>1210.0</ele>
        <time>2018-07-22T15:15:41Z</time>
      </trkpt>
      <trkpt lat="41.271433" lon="-3.489633">
        <ele>1210.0</ele>
        <time>2018-07-22T15:15:42Z</time>
      </trkpt>
      <trkpt lat="41.271433" lon="-3.489633">
        <ele>1210.0</ele>
        <time>2018-07-22T15:15:43Z</time>
      </trkpt>
      <trkpt lat="41.271433" lon="-3.489633">
        <ele>1210.0</ele>
        <time>2018-07-22T15:15:44Z</time>
      </trkpt>
      <trkpt lat="41.271433" lon="-3.489633">
        <ele>1210.0</ele>
        <time>2018-07-22T15:15:45Z</time>
      </trkpt>
      <trkpt lat="41.271433" lon="-3.489633">
        <ele>1210.0</ele>
        <time>2018-07-22T15:15:46Z</time>
      </trkpt>
      <trkpt lat="41.271433" lon="-3.489633">
        <ele>1210.0</ele>
        <time>2018-07-22T15:15:47Z</time>
      </trkpt>
      <trkpt lat="41.271433" lon="-3.489633">
        <ele>1209.0</ele>
        <time>2018-07-22T15:15:48Z</time>
      </trkpt>
      <trkpt lat="41.271433" lon="-3.489633">
        <ele>1209.0</ele>
        <time>2018-07-22T15:15:49Z</time>
      </trkpt>
      <trkpt lat="41.271433" lon="-3.489633">
        <ele>1209.0</ele>
        <time>2018-07-22T15:15:50Z</time>
      </trkpt>
      <trkpt lat="41.271433" lon="-3.489633">
        <ele>1209.0</ele>
        <time>2018-07-22T15:15:51Z</time>
      </trkpt>
      <trkpt lat="41.271433" lon="-3.489633">
        <ele>1209.0</ele>
        <time>2018-07-22T15:15:52Z</time>
      </trkpt>
      <trkpt lat="41.271433" lon="-3.489633">
        <ele>1209.0</ele>
        <time>2018-07-22T15:15:53Z</time>
      </trkpt>
      <trkpt lat="41.271433" lon="-3.489633">
        <ele>1209.0</ele>
        <time>2018-07-22T15:15:54Z</time>
      </trkpt>
      <trkpt lat="41.271433" lon="-3.489633">
        <ele>1209.0</ele>
        <time>2018-07-22T15:15:55Z</time>
      </trkpt>
      <trkpt lat="41.271433" lon="-3.489633">
        <ele>1209.0</ele>
        <time>2018-07-22T15:15:56Z</time>
      </trkpt>
      <trkpt lat="41.271433" lon="-3.489633">
        <ele>1209.0</ele>
        <time>2018-07-22T15:15:57Z</time>
      </trkpt>
      <trkpt lat="41.271433" lon="-3.489633">
        <ele>1209.0</ele>
        <time>2018-07-22T15:15:58Z</time>
      </trkpt>
      <trkpt lat="41.271417" lon="-3.489633">
        <ele>1209.0</ele>
        <time>2018-07-22T15:15:59Z</time>
      </trkpt>
      <trkpt lat="41.271417" lon="-3.489633">
        <ele>1208.0</ele>
        <time>2018-07-22T15:16:00Z</time>
      </trkpt>
      <trkpt lat="41.271417" lon="-3.489633">
        <ele>1208.0</ele>
        <time>2018-07-22T15:16:01Z</time>
      </trkpt>
      <trkpt lat="41.271417" lon="-3.489633">
        <ele>1208.0</ele>
        <time>2018-07-22T15:16:02Z</time>
      </trkpt>
      <trkpt lat="41.271433" lon="-3.489633">
        <ele>1208.0</ele>
        <time>2018-07-22T15:16:03Z</time>
      </trkpt>
      <trkpt lat="41.271433" lon="-3.489633">
        <ele>1208.0</ele>
        <time>2018-07-22T15:16:04Z</time>
      </trkpt>
      <trkpt lat="41.271433" lon="-3.489633">
        <ele>1208.0</ele>
        <time>2018-07-22T15:16:05Z</time>
      </trkpt>
      <trkpt lat="41.271433" lon="-3.489633">
        <ele>1207.0</ele>
        <time>2018-07-22T15:16:06Z</time>
      </trkpt>
      <trkpt lat="41.271433" lon="-3.489633">
        <ele>1207.0</ele>
        <time>2018-07-22T15:16:07Z</time>
      </trkpt>
      <trkpt lat="41.271433" lon="-3.489633">
        <ele>1207.0</ele>
        <time>2018-07-22T15:16:08Z</time>
      </trkpt>
      <trkpt lat="41.271433" lon="-3.489633">
        <ele>1207.0</ele>
        <time>2018-07-22T15:16:09Z</time>
      </trkpt>
      <trkpt lat="41.271433" lon="-3.489633">
        <ele>1207.0</ele>
        <time>2018-07-22T15:16:10Z</time>
      </trkpt>
      <trkpt lat="41.271433" lon="-3.489633">
        <ele>1207.0</ele>
        <time>2018-07-22T15:16:11Z</time>
      </trkpt>
      <trkpt lat="41.271433" lon="-3.489633">
        <ele>1207.0</ele>
        <time>2018-07-22T15:16:12Z</time>
      </trkpt>
      <trkpt lat="41.271433" lon="-3.489633">
        <ele>1207.0</ele>
        <time>2018-07-22T15:16:13Z</time>
      </trkpt>
      <trkpt lat="41.271433" lon="-3.489633">
        <ele>1207.0</ele>
        <time>2018-07-22T15:16:14Z</time>
      </trkpt>
      <trkpt lat="41.271433" lon="-3.489633">
        <ele>1207.0</ele>
        <time>2018-07-22T15:16:15Z</time>
      </trkpt>
      <trkpt lat="41.271433" lon="-3.489633">
        <ele>1207.0</ele>
        <time>2018-07-22T15:16:16Z</time>
      </trkpt>
      <trkpt lat="41.271433" lon="-3.489633">
        <ele>1207.0</ele>
        <time>2018-07-22T15:16:17Z</time>
      </trkpt>
      <trkpt lat="41.271433" lon="-3.489633">
        <ele>1207.0</ele>
        <time>2018-07-22T15:16:18Z</time>
      </trkpt>
      <trkpt lat="41.271433" lon="-3.489633">
        <ele>1207.0</ele>
        <time>2018-07-22T15:16:19Z</time>
      </trkpt>
      <trkpt lat="41.271433" lon="-3.489633">
        <ele>1207.0</ele>
        <time>2018-07-22T15:16:20Z</time>
      </trkpt>
      <trkpt lat="41.271433" lon="-3.489633">
        <ele>1207.0</ele>
        <time>2018-07-22T15:16:21Z</time>
      </trkpt>
      <trkpt lat="41.271433" lon="-3.489633">
        <ele>1207.0</ele>
        <time>2018-07-22T15:16:22Z</time>
      </trkpt>
      <trkpt lat="41.271433" lon="-3.489633">
        <ele>1207.0</ele>
        <time>2018-07-22T15:16:23Z</time>
      </trkpt>
      <trkpt lat="41.271433" lon="-3.489633">
        <ele>1208.0</ele>
        <time>2018-07-22T15:16:24Z</time>
      </trkpt>
      <trkpt lat="41.271433" lon="-3.489633">
        <ele>1208.0</ele>
        <time>2018-07-22T15:16:25Z</time>
      </trkpt>
      <trkpt lat="41.271433" lon="-3.489633">
        <ele>1207.0</ele>
        <time>2018-07-22T15:16:26Z</time>
      </trkpt>
      <trkpt lat="41.271433" lon="-3.489633">
        <ele>1207.0</ele>
        <time>2018-07-22T15:16:27Z</time>
      </trkpt>
      <trkpt lat="41.271433" lon="-3.489633">
        <ele>1207.0</ele>
        <time>2018-07-22T15:16:28Z</time>
      </trkpt>
      <trkpt lat="41.271433" lon="-3.489633">
        <ele>1207.0</ele>
        <time>2018-07-22T15:16:29Z</time>
      </trkpt>
      <trkpt lat="41.271433" lon="-3.489633">
        <ele>1207.0</ele>
        <time>2018-07-22T15:16:30Z</time>
      </trkpt>
      <trkpt lat="41.271433" lon="-3.489633">
        <ele>1207.0</ele>
        <time>2018-07-22T15:16:31Z</time>
      </trkpt>
      <trkpt lat="41.271433" lon="-3.489633">
        <ele>1207.0</ele>
        <time>2018-07-22T15:16:32Z</time>
      </trkpt>
      <trkpt lat="41.271433" lon="-3.489633">
        <ele>1207.0</ele>
        <time>2018-07-22T15:16:33Z</time>
      </trkpt>
      <trkpt lat="41.271433" lon="-3.489633">
        <ele>1207.0</ele>
        <time>2018-07-22T15:16:34Z</time>
      </trkpt>
      <trkpt lat="41.271433" lon="-3.489633">
        <ele>1207.0</ele>
        <time>2018-07-22T15:16:35Z</time>
      </trkpt>
      <trkpt lat="41.271433" lon="-3.489633">
        <ele>1207.0</ele>
        <time>2018-07-22T15:16:36Z</time>
      </trkpt>
      <trkpt lat="41.271433" lon="-3.489633">
        <ele>1207.0</ele>
        <time>2018-07-22T15:16:37Z</time>
      </trkpt>
      <trkpt lat="41.271433" lon="-3.489633">
        <ele>1207.0</ele>
        <time>2018-07-22T15:16:38Z</time>
      </trkpt>
      <trkpt lat="41.271433" lon="-3.489633">
        <ele>1207.0</ele>
        <time>2018-07-22T15:16:39Z</time>
      </trkpt>
      <trkpt lat="41.271433" lon="-3.489633">
        <ele>1207.0</ele>
        <time>2018-07-22T15:16:40Z</time>
      </trkpt>
      <trkpt lat="41.271433" lon="-3.489633">
        <ele>1207.0</ele>
        <time>2018-07-22T15:16:41Z</time>
      </trkpt>
      <trkpt lat="41.271433" lon="-3.489633">
        <ele>1207.0</ele>
        <time>2018-07-22T15:16:42Z</time>
      </trkpt>
      <trkpt lat="41.271433" lon="-3.489633">
        <ele>1207.0</ele>
        <time>2018-07-22T15:16:43Z</time>
      </trkpt>
      <trkpt lat="41.271433" lon="-3.489633">
        <ele>1207.0</ele>
        <time>2018-07-22T15:16:44Z</time>
      </trkpt>
      <trkpt lat="41.271433" lon="-3.489633">
        <ele>1207.0</ele>
        <time>2018-07-22T15:16:45Z</time>
      </trkpt>
      <trkpt lat="41.271433" lon="-3.489633">
        <ele>1207.0</ele>
        <time>2018-07-22T15:16:46Z</time>
      </trkpt>
      <trkpt lat="41.271433" lon="-3.489633">
        <ele>1206.0</ele>
        <time>2018-07-22T15:16:47Z</time>
      </trkpt>
      <trkpt lat="41.271433" lon="-3.489633">
        <ele>1207.0</ele>
        <time>2018-07-22T15:16:48Z</time>
      </trkpt>
      <trkpt lat="41.271433" lon="-3.489633">
        <ele>1207.0</ele>
        <time>2018-07-22T15:16:49Z</time>
      </trkpt>
      <trkpt lat="41.271433" lon="-3.489633">
        <ele>1207.0</ele>
        <time>2018-07-22T15:16:50Z</time>
      </trkpt>
      <trkpt lat="41.271433" lon="-3.489633">
        <ele>1207.0</ele>
        <time>2018-07-22T15:16:51Z</time>
      </trkpt>
      <trkpt lat="41.271433" lon="-3.489633">
        <ele>1207.0</ele>
        <time>2018-07-22T15:16:52Z</time>
      </trkpt>
      <trkpt lat="41.271433" lon="-3.489633">
        <ele>1207.0</ele>
        <time>2018-07-22T15:16:53Z</time>
      </trkpt>
      <trkpt lat="41.271433" lon="-3.489633">
        <ele>1207.0</ele>
        <time>2018-07-22T15:16:54Z</time>
      </trkpt>
      <trkpt lat="41.271433" lon="-3.489633">
        <ele>1208.0</ele>
        <time>2018-07-22T15:16:55Z</time>
      </trkpt>
      <trkpt lat="41.271417" lon="-3.489633">
        <ele>1208.0</ele>
        <time>2018-07-22T15:16:56Z</time>
      </trkpt>
      <trkpt lat="41.271417" lon="-3.489633">
        <ele>1208.0</ele>
        <time>2018-07-22T15:16:57Z</time>
      </trkpt>
      <trkpt lat="41.271417" lon="-3.489633">
        <ele>1208.0</ele>
        <time>2018-07-22T15:16:58Z</time>
      </trkpt>
      <trkpt lat="41.271417" lon="-3.489633">
        <ele>1208.0</ele>
        <time>2018-07-22T15:16:59Z</time>
      </trkpt>
      <trkpt lat="41.271417" lon="-3.489633">
        <ele>1208.0</ele>
        <time>2018-07-22T15:17:00Z</time>
      </trkpt>
      <trkpt lat="41.271417" lon="-3.489633">
        <ele>1208.0</ele>
        <time>2018-07-22T15:17:01Z</time>
      </trkpt>
      <trkpt lat="41.271433" lon="-3.489633">
        <ele>1208.0</ele>
        <time>2018-07-22T15:17:02Z</time>
      </trkpt>
      <trkpt lat="41.271417" lon="-3.489633">
        <ele>1209.0</ele>
        <time>2018-07-22T15:17:03Z</time>
      </trkpt>
      <trkpt lat="41.271417" lon="-3.489633">
        <ele>1209.0</ele>
        <time>2018-07-22T15:17:04Z</time>
      </trkpt>
      <trkpt lat="41.271417" lon="-3.489633">
        <ele>1209.0</ele>
        <time>2018-07-22T15:17:05Z</time>
      </trkpt>
      <trkpt lat="41.271417" lon="-3.489633">
        <ele>1209.0</ele>
        <time>2018-07-22T15:17:06Z</time>
      </trkpt>
      <trkpt lat="41.271417" lon="-3.489633">
        <ele>1210.0</ele>
        <time>2018-07-22T15:17:07Z</time>
      </trkpt>
      <trkpt lat="41.271417" lon="-3.489633">
        <ele>1210.0</ele>
        <time>2018-07-22T15:17:08Z</time>
      </trkpt>
      <trkpt lat="41.271417" lon="-3.489633">
        <ele>1210.0</ele>
        <time>2018-07-22T15:17:09Z</time>
      </trkpt>
      <trkpt lat="41.271417" lon="-3.489633">
        <ele>1210.0</ele>
        <time>2018-07-22T15:17:10Z</time>
      </trkpt>
      <trkpt lat="41.271417" lon="-3.489633">
        <ele>1211.0</ele>
        <time>2018-07-22T15:17:11Z</time>
      </trkpt>
      <trkpt lat="41.271417" lon="-3.489633">
        <ele>1211.0</ele>
        <time>2018-07-22T15:17:12Z</time>
      </trkpt>
      <trkpt lat="41.271417" lon="-3.489633">
        <ele>1211.0</ele>
        <time>2018-07-22T15:17:13Z</time>
      </trkpt>
      <trkpt lat="41.271417" lon="-3.489633">
        <ele>1210.0</ele>
        <time>2018-07-22T15:17:14Z</time>
      </trkpt>
      <trkpt lat="41.271417" lon="-3.489633">
        <ele>1210.0</ele>
        <time>2018-07-22T15:17:15Z</time>
      </trkpt>
      <trkpt lat="41.271417" lon="-3.489633">
        <ele>1210.0</ele>
        <time>2018-07-22T15:17:16Z</time>
      </trkpt>
      <trkpt lat="41.271417" lon="-3.489633">
        <ele>1210.0</ele>
        <time>2018-07-22T15:17:17Z</time>
      </trkpt>
      <trkpt lat="41.271433" lon="-3.489633">
        <ele>1211.0</ele>
        <time>2018-07-22T15:17:18Z</time>
      </trkpt>
      <trkpt lat="41.271433" lon="-3.489633">
        <ele>1210.0</ele>
        <time>2018-07-22T15:17:19Z</time>
      </trkpt>
      <trkpt lat="41.271433" lon="-3.489633">
        <ele>1210.0</ele>
        <time>2018-07-22T15:17:20Z</time>
      </trkpt>
      <trkpt lat="41.271433" lon="-3.489633">
        <ele>1210.0</ele>
        <time>2018-07-22T15:17:21Z</time>
      </trkpt>
      <trkpt lat="41.271433" lon="-3.489633">
        <ele>1210.0</ele>
        <time>2018-07-22T15:17:22Z</time>
      </trkpt>
      <trkpt lat="41.271433" lon="-3.489633">
        <ele>1210.0</ele>
        <time>2018-07-22T15:17:23Z</time>
      </trkpt>
      <trkpt lat="41.271433" lon="-3.489633">
        <ele>1209.0</ele>
        <time>2018-07-22T15:17:24Z</time>
      </trkpt>
      <trkpt lat="41.271433" lon="-3.489633">
        <ele>1210.0</ele>
        <time>2018-07-22T15:17:25Z</time>
      </trkpt>
      <trkpt lat="41.271433" lon="-3.489633">
        <ele>1210.0</ele>
        <time>2018-07-22T15:17:26Z</time>
      </trkpt>
      <trkpt lat="41.271433" lon="-3.489633">
        <ele>1210.0</ele>
        <time>2018-07-22T15:17:27Z</time>
      </trkpt>
      <trkpt lat="41.271433" lon="-3.489633">
        <ele>1210.0</ele>
        <time>2018-07-22T15:17:28Z</time>
      </trkpt>
      <trkpt lat="41.271433" lon="-3.489633">
        <ele>1211.0</ele>
        <time>2018-07-22T15:17:29Z</time>
      </trkpt>
      <trkpt lat="41.271433" lon="-3.489633">
        <ele>1211.0</ele>
        <time>2018-07-22T15:17:30Z</time>
      </trkpt>
      <trkpt lat="41.271433" lon="-3.489633">
        <ele>1211.0</ele>
        <time>2018-07-22T15:17:31Z</time>
      </trkpt>
      <trkpt lat="41.271433" lon="-3.489633">
        <ele>1211.0</ele>
        <time>2018-07-22T15:17:32Z</time>
      </trkpt>
      <trkpt lat="41.271433" lon="-3.489633">
        <ele>1211.0</ele>
        <time>2018-07-22T15:17:33Z</time>
      </trkpt>
      <trkpt lat="41.271433" lon="-3.489633">
        <ele>1212.0</ele>
        <time>2018-07-22T15:17:34Z</time>
      </trkpt>
      <trkpt lat="41.271433" lon="-3.489633">
        <ele>1212.0</ele>
        <time>2018-07-22T15:17:35Z</time>
      </trkpt>
      <trkpt lat="41.271433" lon="-3.489633">
        <ele>1212.0</ele>
        <time>2018-07-22T15:17:36Z</time>
      </trkpt>
      <trkpt lat="41.271433" lon="-3.489633">
        <ele>1212.0</ele>
        <time>2018-07-22T15:17:37Z</time>
      </trkpt>
      <trkpt lat="41.271433" lon="-3.489633">
        <ele>1212.0</ele>
        <time>2018-07-22T15:17:38Z</time>
      </trkpt>
      <trkpt lat="41.271433" lon="-3.489633">
        <ele>1212.0</ele>
        <time>2018-07-22T15:17:39Z</time>
      </trkpt>
      <trkpt lat="41.271433" lon="-3.489633">
        <ele>1212.0</ele>
        <time>2018-07-22T15:17:40Z</time>
      </trkpt>
      <trkpt lat="41.271433" lon="-3.489633">
        <ele>1212.0</ele>
        <time>2018-07-22T15:17:41Z</time>
      </trkpt>
      <trkpt lat="41.271433" lon="-3.489633">
        <ele>1212.0</ele>
        <time>2018-07-22T15:17:42Z</time>
      </trkpt>
      <trkpt lat="41.271433" lon="-3.489633">
        <ele>1212.0</ele>
        <time>2018-07-22T15:17:43Z</time>
      </trkpt>
      <trkpt lat="41.271433" lon="-3.489633">
        <ele>1212.0</ele>
        <time>2018-07-22T15:17:44Z</time>
      </trkpt>
      <trkpt lat="41.271433" lon="-3.489633">
        <ele>1212.0</ele>
        <time>2018-07-22T15:17:45Z</time>
      </trkpt>
      <trkpt lat="41.271433" lon="-3.489633">
        <ele>1212.0</ele>
        <time>2018-07-22T15:17:46Z</time>
      </trkpt>
      <trkpt lat="41.271433" lon="-3.489633">
        <ele>1212.0</ele>
        <time>2018-07-22T15:17:47Z</time>
      </trkpt>
    </trkseg>
  </trk>
</gpx>
